<?xml version="1.0" encoding="UTF-8"?>
<gpx
  version="1.1"
  creator="Cyclemeter - http://www.cyclemeter.com"
  xmlns:xsi="http://www.w3.org/2001/XMLSchema-instance"
  xmlns:abvio="http://www.abvio.com/xmlschemas/1"
  xmlns="http://www.topografix.com/GPX/1/1"
  xsi:schemaLocation="http://www.topografix.com/GPX/1/1 http://www.topografix.com/gpx/1/1/gpx.xsd">
<metadata>
<name>Cyclemeter-Cycle-20141108-0559.gpx</name>
<desc>Cyclemeter Cycle (Road) Nov 8, 2014, 05:59:00</desc>
<author><name>Abvio Cyclemeter</name><email id="support" domain="abvio.com"/></author>
<copyright author="Abvio Inc."><year>2015</year></copyright>
<link href="http://www.cyclemeter.com">
<text>Abvio Cyclemeter</text>
<type>text/html</type>
</link>
<time>2015-06-16T07:08:13Z</time>
<keywords>Abvio, Cyclemeter, ride</keywords>
<bounds minlat="30.8346399" minlon="34.4318946" maxlat="32.0507420" maxlon="34.7939816"/>
</metadata>
<trk>
<name><![CDATA[בית השנטי]]></name>
<type><![CDATA[Cycle Merckx]]></type>
<trkseg>
<trkpt lat="32.0502315" lon="34.7644874"><ele>-3.8</ele><time>2014-11-08T03:59:08Z</time></trkpt>
</trkseg>
<trkseg>
<trkpt lat="32.0502315" lon="34.7644874"><ele>-3.8</ele><time>2014-11-08T04:02:12Z</time></trkpt>
<trkpt lat="32.0497306" lon="34.7642598"><ele>9.3</ele><time>2014-11-08T04:02:22Z</time></trkpt>
<trkpt lat="32.0495255" lon="34.7640990"><ele>8.6</ele><time>2014-11-08T04:02:27Z</time></trkpt>
<trkpt lat="32.0492478" lon="34.7639544"><ele>7.4</ele><time>2014-11-08T04:02:34Z</time></trkpt>
<trkpt lat="32.0488440" lon="34.7636570"><ele>8.6</ele><time>2014-11-08T04:02:44Z</time></trkpt>
<trkpt lat="32.0484224" lon="34.7633551"><ele>7.0</ele><time>2014-11-08T04:02:53Z</time></trkpt>
<trkpt lat="32.0480148" lon="34.7631093"><ele>5.2</ele><time>2014-11-08T04:03:03Z</time></trkpt>
<trkpt lat="32.0475315" lon="34.7630036"><ele>9.3</ele><time>2014-11-08T04:03:14Z</time></trkpt>
<trkpt lat="32.0471676" lon="34.7629661"><ele>12.8</ele><time>2014-11-08T04:03:22Z</time></trkpt>
<trkpt lat="32.0471618" lon="34.7629881"><ele>13.2</ele><time>2014-11-08T04:03:23Z</time></trkpt>
<trkpt lat="32.0466840" lon="34.7628760"><ele>11.9</ele><time>2014-11-08T04:03:34Z</time></trkpt>
<trkpt lat="32.0462192" lon="34.7627984"><ele>14.0</ele><time>2014-11-08T04:03:44Z</time></trkpt>
<trkpt lat="32.0460028" lon="34.7627756"><ele>15.0</ele><time>2014-11-08T04:03:49Z</time></trkpt>
<trkpt lat="32.0455274" lon="34.7627186"><ele>14.7</ele><time>2014-11-08T04:03:59Z</time></trkpt>
<trkpt lat="32.0454177" lon="34.7627274"><ele>14.0</ele><time>2014-11-08T04:04:01Z</time></trkpt>
<trkpt lat="32.0453387" lon="34.7627036"><ele>13.3</ele><time>2014-11-08T04:04:03Z</time></trkpt>
<trkpt lat="32.0450726" lon="34.7628568"><ele>13.8</ele><time>2014-11-08T04:04:08Z</time></trkpt>
<trkpt lat="32.0446230" lon="34.7626080"><ele>11.8</ele><time>2014-11-08T04:04:17Z</time></trkpt>
<trkpt lat="32.0441121" lon="34.7624844"><ele>12.4</ele><time>2014-11-08T04:04:28Z</time></trkpt>
<trkpt lat="32.0436231" lon="34.7623674"><ele>13.6</ele><time>2014-11-08T04:04:38Z</time></trkpt>
<trkpt lat="32.0431517" lon="34.7623052"><ele>12.0</ele><time>2014-11-08T04:04:46Z</time></trkpt>
<trkpt lat="32.0426922" lon="34.7622459"><ele>11.4</ele><time>2014-11-08T04:04:54Z</time></trkpt>
<trkpt lat="32.0421990" lon="34.7621665"><ele>8.5</ele><time>2014-11-08T04:05:03Z</time></trkpt>
<trkpt lat="32.0417219" lon="34.7621002"><ele>8.7</ele><time>2014-11-08T04:05:12Z</time></trkpt>
<trkpt lat="32.0412482" lon="34.7620332"><ele>10.0</ele><time>2014-11-08T04:05:22Z</time></trkpt>
<trkpt lat="32.0407963" lon="34.7619777"><ele>11.1</ele><time>2014-11-08T04:05:31Z</time></trkpt>
<trkpt lat="32.0403113" lon="34.7618795"><ele>13.5</ele><time>2014-11-08T04:05:40Z</time></trkpt>
<trkpt lat="32.0398335" lon="34.7617489"><ele>15.5</ele><time>2014-11-08T04:05:48Z</time></trkpt>
<trkpt lat="32.0393989" lon="34.7615350"><ele>16.5</ele><time>2014-11-08T04:05:56Z</time></trkpt>
<trkpt lat="32.0389923" lon="34.7612369"><ele>19.0</ele><time>2014-11-08T04:06:04Z</time></trkpt>
<trkpt lat="32.0385527" lon="34.7609470"><ele>19.8</ele><time>2014-11-08T04:06:11Z</time></trkpt>
<trkpt lat="32.0382208" lon="34.7607380"><ele>19.3</ele><time>2014-11-08T04:06:16Z</time></trkpt>
<trkpt lat="32.0380026" lon="34.7604690"><ele>18.4</ele><time>2014-11-08T04:06:21Z</time></trkpt>
<trkpt lat="32.0376444" lon="34.7601423"><ele>18.8</ele><time>2014-11-08T04:06:27Z</time></trkpt>
<trkpt lat="32.0374286" lon="34.7599389"><ele>19.3</ele><time>2014-11-08T04:06:30Z</time></trkpt>
<trkpt lat="32.0373243" lon="34.7598608"><ele>19.6</ele><time>2014-11-08T04:06:32Z</time></trkpt>
<trkpt lat="32.0370731" lon="34.7595914"><ele>20.5</ele><time>2014-11-08T04:06:37Z</time></trkpt>
<trkpt lat="32.0366683" lon="34.7593479"><ele>21.7</ele><time>2014-11-08T04:06:44Z</time></trkpt>
<trkpt lat="32.0362409" lon="34.7590873"><ele>21.3</ele><time>2014-11-08T04:06:50Z</time></trkpt>
<trkpt lat="32.0360801" lon="34.7590482"><ele>21.0</ele><time>2014-11-08T04:06:54Z</time></trkpt>
<trkpt lat="32.0360269" lon="34.7591038"><ele>21.0</ele><time>2014-11-08T04:06:55Z</time></trkpt>
<trkpt lat="32.0356421" lon="34.7592386"><ele>20.5</ele><time>2014-11-08T04:07:00Z</time></trkpt>
<trkpt lat="32.0351107" lon="34.7591653"><ele>19.2</ele><time>2014-11-08T04:07:07Z</time></trkpt>
<trkpt lat="32.0346386" lon="34.7591546"><ele>18.2</ele><time>2014-11-08T04:07:13Z</time></trkpt>
<trkpt lat="32.0341650" lon="34.7592174"><ele>18.8</ele><time>2014-11-08T04:07:19Z</time></trkpt>
<trkpt lat="32.0336892" lon="34.7593273"><ele>26.0</ele><time>2014-11-08T04:07:25Z</time></trkpt>
<trkpt lat="32.0331998" lon="34.7593292"><ele>22.0</ele><time>2014-11-08T04:07:31Z</time></trkpt>
<trkpt lat="32.0327178" lon="34.7594204"><ele>21.8</ele><time>2014-11-08T04:07:37Z</time></trkpt>
<trkpt lat="32.0322449" lon="34.7595196"><ele>21.2</ele><time>2014-11-08T04:07:43Z</time></trkpt>
<trkpt lat="32.0319468" lon="34.7596140"><ele>21.8</ele><time>2014-11-08T04:07:47Z</time></trkpt>
<trkpt lat="32.0318835" lon="34.7596679"><ele>22.0</ele><time>2014-11-08T04:07:48Z</time></trkpt>
<trkpt lat="32.0314312" lon="34.7598104"><ele>23.0</ele><time>2014-11-08T04:07:54Z</time></trkpt>
<trkpt lat="32.0309320" lon="34.7600007"><ele>25.3</ele><time>2014-11-08T04:08:01Z</time></trkpt>
<trkpt lat="32.0304844" lon="34.7601278"><ele>26.4</ele><time>2014-11-08T04:08:07Z</time></trkpt>
<trkpt lat="32.0300312" lon="34.7601997"><ele>27.4</ele><time>2014-11-08T04:08:13Z</time></trkpt>
<trkpt lat="32.0295769" lon="34.7602640"><ele>29.0</ele><time>2014-11-08T04:08:19Z</time></trkpt>
<trkpt lat="32.0290845" lon="34.7602923"><ele>30.0</ele><time>2014-11-08T04:08:26Z</time></trkpt>
<trkpt lat="32.0286267" lon="34.7603148"><ele>30.6</ele><time>2014-11-08T04:08:32Z</time></trkpt>
<trkpt lat="32.0281752" lon="34.7603029"><ele>31.4</ele><time>2014-11-08T04:08:38Z</time></trkpt>
<trkpt lat="32.0276940" lon="34.7602818"><ele>31.7</ele><time>2014-11-08T04:08:44Z</time></trkpt>
<trkpt lat="32.0271830" lon="34.7602926"><ele>30.8</ele><time>2014-11-08T04:08:51Z</time></trkpt>
<trkpt lat="32.0266831" lon="34.7603035"><ele>33.2</ele><time>2014-11-08T04:08:57Z</time></trkpt>
<trkpt lat="32.0261880" lon="34.7603301"><ele>33.2</ele><time>2014-11-08T04:09:03Z</time></trkpt>
<trkpt lat="32.0256800" lon="34.7603945"><ele>33.0</ele><time>2014-11-08T04:09:09Z</time></trkpt>
<trkpt lat="32.0252090" lon="34.7604592"><ele>33.0</ele><time>2014-11-08T04:09:14Z</time></trkpt>
<trkpt lat="32.0247220" lon="34.7605203"><ele>33.0</ele><time>2014-11-08T04:09:20Z</time></trkpt>
<trkpt lat="32.0241942" lon="34.7606019"><ele>33.0</ele><time>2014-11-08T04:09:24Z</time></trkpt>
<trkpt lat="32.0236653" lon="34.7606757"><ele>33.0</ele><time>2014-11-08T04:09:29Z</time></trkpt>
<trkpt lat="32.0231610" lon="34.7607522"><ele>33.0</ele><time>2014-11-08T04:09:34Z</time></trkpt>
<trkpt lat="32.0226439" lon="34.7608625"><ele>33.0</ele><time>2014-11-08T04:09:39Z</time></trkpt>
<trkpt lat="32.0221450" lon="34.7609938"><ele>33.2</ele><time>2014-11-08T04:09:44Z</time></trkpt>
<trkpt lat="32.0216615" lon="34.7610978"><ele>33.7</ele><time>2014-11-08T04:09:49Z</time></trkpt>
<trkpt lat="32.0211803" lon="34.7612122"><ele>33.8</ele><time>2014-11-08T04:09:54Z</time></trkpt>
<trkpt lat="32.0207035" lon="34.7613225"><ele>33.3</ele><time>2014-11-08T04:09:59Z</time></trkpt>
<trkpt lat="32.0202337" lon="34.7614359"><ele>32.8</ele><time>2014-11-08T04:10:04Z</time></trkpt>
<trkpt lat="32.0197371" lon="34.7615471"><ele>32.2</ele><time>2014-11-08T04:10:09Z</time></trkpt>
<trkpt lat="32.0192346" lon="34.7616393"><ele>31.7</ele><time>2014-11-08T04:10:14Z</time></trkpt>
<trkpt lat="32.0187397" lon="34.7617228"><ele>31.2</ele><time>2014-11-08T04:10:19Z</time></trkpt>
<trkpt lat="32.0182462" lon="34.7617792"><ele>30.5</ele><time>2014-11-08T04:10:24Z</time></trkpt>
<trkpt lat="32.0177578" lon="34.7618217"><ele>29.5</ele><time>2014-11-08T04:10:29Z</time></trkpt>
<trkpt lat="32.0172895" lon="34.7618628"><ele>28.3</ele><time>2014-11-08T04:10:34Z</time></trkpt>
<trkpt lat="32.0168225" lon="34.7618846"><ele>27.0</ele><time>2014-11-08T04:10:39Z</time></trkpt>
<trkpt lat="32.0163501" lon="34.7619049"><ele>26.6</ele><time>2014-11-08T04:10:44Z</time></trkpt>
<trkpt lat="32.0158662" lon="34.7619131"><ele>24.8</ele><time>2014-11-08T04:10:49Z</time></trkpt>
<trkpt lat="32.0153795" lon="34.7619135"><ele>23.0</ele><time>2014-11-08T04:10:54Z</time></trkpt>
<trkpt lat="32.0149149" lon="34.7619270"><ele>23.0</ele><time>2014-11-08T04:10:59Z</time></trkpt>
<trkpt lat="32.0146395" lon="34.7619798"><ele>22.5</ele><time>2014-11-08T04:11:02Z</time></trkpt>
<trkpt lat="32.0142234" lon="34.7619775"><ele>22.3</ele><time>2014-11-08T04:11:06Z</time></trkpt>
<trkpt lat="32.0141405" lon="34.7619985"><ele>22.6</ele><time>2014-11-08T04:11:07Z</time></trkpt>
<trkpt lat="32.0140450" lon="34.7619307"><ele>23.1</ele><time>2014-11-08T04:11:09Z</time></trkpt>
<trkpt lat="32.0135590" lon="34.7618997"><ele>24.7</ele><time>2014-11-08T04:11:15Z</time></trkpt>
<trkpt lat="32.0130229" lon="34.7618916"><ele>27.2</ele><time>2014-11-08T04:11:22Z</time></trkpt>
<trkpt lat="32.0125349" lon="34.7618671"><ele>29.0</ele><time>2014-11-08T04:11:28Z</time></trkpt>
<trkpt lat="32.0120347" lon="34.7618360"><ele>28.9</ele><time>2014-11-08T04:11:34Z</time></trkpt>
<trkpt lat="32.0115451" lon="34.7618162"><ele>28.5</ele><time>2014-11-08T04:11:40Z</time></trkpt>
<trkpt lat="32.0110718" lon="34.7618452"><ele>28.2</ele><time>2014-11-08T04:11:46Z</time></trkpt>
<trkpt lat="32.0107755" lon="34.7618049"><ele>27.9</ele><time>2014-11-08T04:11:50Z</time></trkpt>
<trkpt lat="32.0106984" lon="34.7618225"><ele>27.9</ele><time>2014-11-08T04:11:51Z</time></trkpt>
<trkpt lat="32.0106655" lon="34.7617826"><ele>27.8</ele><time>2014-11-08T04:11:52Z</time></trkpt>
<trkpt lat="32.0101997" lon="34.7617282"><ele>27.6</ele><time>2014-11-08T04:11:56Z</time></trkpt>
<trkpt lat="32.0097333" lon="34.7616598"><ele>27.3</ele><time>2014-11-08T04:12:01Z</time></trkpt>
<trkpt lat="32.0092315" lon="34.7615629"><ele>27.2</ele><time>2014-11-08T04:12:07Z</time></trkpt>
<trkpt lat="32.0087615" lon="34.7614526"><ele>28.3</ele><time>2014-11-08T04:12:13Z</time></trkpt>
<trkpt lat="32.0082740" lon="34.7613222"><ele>28.6</ele><time>2014-11-08T04:12:19Z</time></trkpt>
<trkpt lat="32.0077711" lon="34.7611776"><ele>27.3</ele><time>2014-11-08T04:12:26Z</time></trkpt>
<trkpt lat="32.0072913" lon="34.7610351"><ele>26.5</ele><time>2014-11-08T04:12:34Z</time></trkpt>
<trkpt lat="32.0068294" lon="34.7609035"><ele>25.8</ele><time>2014-11-08T04:12:40Z</time></trkpt>
<trkpt lat="32.0063743" lon="34.7607442"><ele>25.0</ele><time>2014-11-08T04:12:47Z</time></trkpt>
<trkpt lat="32.0058989" lon="34.7605747"><ele>24.4</ele><time>2014-11-08T04:12:54Z</time></trkpt>
<trkpt lat="32.0054310" lon="34.7604510"><ele>23.2</ele><time>2014-11-08T04:13:00Z</time></trkpt>
<trkpt lat="32.0049268" lon="34.7603197"><ele>21.0</ele><time>2014-11-08T04:13:07Z</time></trkpt>
<trkpt lat="32.0044527" lon="34.7601818"><ele>21.0</ele><time>2014-11-08T04:13:14Z</time></trkpt>
<trkpt lat="32.0039900" lon="34.7600430"><ele>20.8</ele><time>2014-11-08T04:13:22Z</time></trkpt>
<trkpt lat="32.0035154" lon="34.7599048"><ele>20.2</ele><time>2014-11-08T04:13:28Z</time></trkpt>
<trkpt lat="32.0030101" lon="34.7597465"><ele>19.7</ele><time>2014-11-08T04:13:35Z</time></trkpt>
<trkpt lat="32.0025025" lon="34.7596091"><ele>19.2</ele><time>2014-11-08T04:13:42Z</time></trkpt>
<trkpt lat="32.0019966" lon="34.7594771"><ele>18.6</ele><time>2014-11-08T04:13:49Z</time></trkpt>
<trkpt lat="32.0015099" lon="34.7593351"><ele>18.1</ele><time>2014-11-08T04:13:56Z</time></trkpt>
<trkpt lat="32.0010165" lon="34.7591865"><ele>17.6</ele><time>2014-11-08T04:14:03Z</time></trkpt>
<trkpt lat="32.0008268" lon="34.7591407"><ele>17.5</ele><time>2014-11-08T04:14:05Z</time></trkpt>
<trkpt lat="32.0006123" lon="34.7591673"><ele>17.3</ele><time>2014-11-08T04:14:08Z</time></trkpt>
<trkpt lat="32.0003984" lon="34.7591049"><ele>17.1</ele><time>2014-11-08T04:14:11Z</time></trkpt>
<trkpt lat="32.0003002" lon="34.7591100"><ele>17.1</ele><time>2014-11-08T04:14:13Z</time></trkpt>
<trkpt lat="31.9997996" lon="34.7590005"><ele>16.7</ele><time>2014-11-08T04:14:18Z</time></trkpt>
<trkpt lat="31.9993186" lon="34.7589174"><ele>16.3</ele><time>2014-11-08T04:14:25Z</time></trkpt>
<trkpt lat="31.9988308" lon="34.7588466"><ele>16.0</ele><time>2014-11-08T04:14:30Z</time></trkpt>
<trkpt lat="31.9983759" lon="34.7587796"><ele>17.5</ele><time>2014-11-08T04:14:36Z</time></trkpt>
<trkpt lat="31.9978913" lon="34.7586916"><ele>14.8</ele><time>2014-11-08T04:14:42Z</time></trkpt>
<trkpt lat="31.9976295" lon="34.7586976"><ele>14.2</ele><time>2014-11-08T04:14:45Z</time></trkpt>
<trkpt lat="31.9973617" lon="34.7586461"><ele>14.4</ele><time>2014-11-08T04:14:48Z</time></trkpt>
<trkpt lat="31.9969116" lon="34.7585973"><ele>14.8</ele><time>2014-11-08T04:14:54Z</time></trkpt>
<trkpt lat="31.9964520" lon="34.7585343"><ele>14.4</ele><time>2014-11-08T04:15:00Z</time></trkpt>
<trkpt lat="31.9959735" lon="34.7584630"><ele>13.9</ele><time>2014-11-08T04:15:07Z</time></trkpt>
<trkpt lat="31.9954943" lon="34.7583933"><ele>13.4</ele><time>2014-11-08T04:15:15Z</time></trkpt>
<trkpt lat="31.9950930" lon="34.7583137"><ele>13.1</ele><time>2014-11-08T04:15:19Z</time></trkpt>
<trkpt lat="31.9946374" lon="34.7582885"><ele>12.6</ele><time>2014-11-08T04:15:25Z</time></trkpt>
<trkpt lat="31.9941739" lon="34.7582016"><ele>12.1</ele><time>2014-11-08T04:15:32Z</time></trkpt>
<trkpt lat="31.9941470" lon="34.7581447"><ele>12.1</ele><time>2014-11-08T04:15:33Z</time></trkpt>
<trkpt lat="31.9936290" lon="34.7580909"><ele>13.0</ele><time>2014-11-08T04:15:41Z</time></trkpt>
<trkpt lat="31.9931170" lon="34.7580173"><ele>12.5</ele><time>2014-11-08T04:15:48Z</time></trkpt>
<trkpt lat="31.9929858" lon="34.7579814"><ele>12.2</ele><time>2014-11-08T04:15:50Z</time></trkpt>
<trkpt lat="31.9927876" lon="34.7579762"><ele>12.4</ele><time>2014-11-08T04:15:54Z</time></trkpt>
<trkpt lat="31.9926273" lon="34.7579385"><ele>12.8</ele><time>2014-11-08T04:15:56Z</time></trkpt>
<trkpt lat="31.9921262" lon="34.7578697"><ele>14.0</ele><time>2014-11-08T04:16:02Z</time></trkpt>
<trkpt lat="31.9920734" lon="34.7579068"><ele>14.1</ele><time>2014-11-08T04:16:03Z</time></trkpt>
<trkpt lat="31.9920300" lon="34.7578544"><ele>14.3</ele><time>2014-11-08T04:16:04Z</time></trkpt>
<trkpt lat="31.9915840" lon="34.7577740"><ele>15.3</ele><time>2014-11-08T04:16:11Z</time></trkpt>
<trkpt lat="31.9911062" lon="34.7576615"><ele>15.8</ele><time>2014-11-08T04:16:18Z</time></trkpt>
<trkpt lat="31.9909536" lon="34.7576811"><ele>16.0</ele><time>2014-11-08T04:16:20Z</time></trkpt>
<trkpt lat="31.9905083" lon="34.7575893"><ele>14.9</ele><time>2014-11-08T04:16:26Z</time></trkpt>
<trkpt lat="31.9902065" lon="34.7575027"><ele>14.2</ele><time>2014-11-08T04:16:30Z</time></trkpt>
<trkpt lat="31.9897270" lon="34.7574338"><ele>15.6</ele><time>2014-11-08T04:16:38Z</time></trkpt>
<trkpt lat="31.9894633" lon="34.7573463"><ele>17.0</ele><time>2014-11-08T04:16:42Z</time></trkpt>
<trkpt lat="31.9890007" lon="34.7573196"><ele>17.0</ele><time>2014-11-08T04:16:48Z</time></trkpt>
<trkpt lat="31.9885231" lon="34.7572360"><ele>17.7</ele><time>2014-11-08T04:16:56Z</time></trkpt>
<trkpt lat="31.9881445" lon="34.7572313"><ele>16.8</ele><time>2014-11-08T04:17:01Z</time></trkpt>
<trkpt lat="31.9877002" lon="34.7571219"><ele>15.6</ele><time>2014-11-08T04:17:07Z</time></trkpt>
<trkpt lat="31.9872188" lon="34.7570757"><ele>15.0</ele><time>2014-11-08T04:17:15Z</time></trkpt>
<trkpt lat="31.9871211" lon="34.7570558"><ele>15.0</ele><time>2014-11-08T04:17:16Z</time></trkpt>
<trkpt lat="31.9866790" lon="34.7569390"><ele>15.1</ele><time>2014-11-08T04:17:22Z</time></trkpt>
<trkpt lat="31.9861899" lon="34.7568324"><ele>15.3</ele><time>2014-11-08T04:17:29Z</time></trkpt>
<trkpt lat="31.9861189" lon="34.7568205"><ele>15.3</ele><time>2014-11-08T04:17:30Z</time></trkpt>
<trkpt lat="31.9860153" lon="34.7568483"><ele>15.3</ele><time>2014-11-08T04:17:31Z</time></trkpt>
<trkpt lat="31.9855211" lon="34.7567411"><ele>15.5</ele><time>2014-11-08T04:17:38Z</time></trkpt>
<trkpt lat="31.9850275" lon="34.7566772"><ele>15.8</ele><time>2014-11-08T04:17:45Z</time></trkpt>
<trkpt lat="31.9845362" lon="34.7565947"><ele>15.9</ele><time>2014-11-08T04:17:51Z</time></trkpt>
<trkpt lat="31.9840252" lon="34.7565129"><ele>15.2</ele><time>2014-11-08T04:17:58Z</time></trkpt>
<trkpt lat="31.9835591" lon="34.7564683"><ele>17.0</ele><time>2014-11-08T04:18:04Z</time></trkpt>
<trkpt lat="31.9830429" lon="34.7563772"><ele>14.2</ele><time>2014-11-08T04:18:11Z</time></trkpt>
<trkpt lat="31.9825153" lon="34.7562898"><ele>14.3</ele><time>2014-11-08T04:18:18Z</time></trkpt>
<trkpt lat="31.9820073" lon="34.7562205"><ele>12.4</ele><time>2014-11-08T04:18:26Z</time></trkpt>
<trkpt lat="31.9814954" lon="34.7561586"><ele>13.4</ele><time>2014-11-08T04:18:32Z</time></trkpt>
<trkpt lat="31.9810193" lon="34.7561121"><ele>14.8</ele><time>2014-11-08T04:18:39Z</time></trkpt>
<trkpt lat="31.9805595" lon="34.7560466"><ele>14.6</ele><time>2014-11-08T04:18:46Z</time></trkpt>
<trkpt lat="31.9800899" lon="34.7560339"><ele>16.0</ele><time>2014-11-08T04:18:54Z</time></trkpt>
<trkpt lat="31.9795890" lon="34.7559143"><ele>16.0</ele><time>2014-11-08T04:19:02Z</time></trkpt>
<trkpt lat="31.9791343" lon="34.7558681"><ele>18.0</ele><time>2014-11-08T04:19:10Z</time></trkpt>
<trkpt lat="31.9790451" lon="34.7558710"><ele>18.4</ele><time>2014-11-08T04:19:12Z</time></trkpt>
<trkpt lat="31.9785913" lon="34.7557669"><ele>18.4</ele><time>2014-11-08T04:19:19Z</time></trkpt>
<trkpt lat="31.9780849" lon="34.7557276"><ele>15.0</ele><time>2014-11-08T04:19:27Z</time></trkpt>
<trkpt lat="31.9775954" lon="34.7556973"><ele>15.5</ele><time>2014-11-08T04:19:35Z</time></trkpt>
<trkpt lat="31.9771194" lon="34.7557016"><ele>16.2</ele><time>2014-11-08T04:19:43Z</time></trkpt>
<trkpt lat="31.9766610" lon="34.7557185"><ele>16.5</ele><time>2014-11-08T04:19:50Z</time></trkpt>
<trkpt lat="31.9761660" lon="34.7557439"><ele>16.9</ele><time>2014-11-08T04:19:58Z</time></trkpt>
<trkpt lat="31.9757103" lon="34.7557736"><ele>18.4</ele><time>2014-11-08T04:20:06Z</time></trkpt>
<trkpt lat="31.9752573" lon="34.7558201"><ele>20.3</ele><time>2014-11-08T04:20:14Z</time></trkpt>
<trkpt lat="31.9749456" lon="34.7558800"><ele>20.4</ele><time>2014-11-08T04:20:20Z</time></trkpt>
<trkpt lat="31.9744391" lon="34.7559371"><ele>18.6</ele><time>2014-11-08T04:20:29Z</time></trkpt>
<trkpt lat="31.9739527" lon="34.7560487"><ele>19.5</ele><time>2014-11-08T04:20:39Z</time></trkpt>
<trkpt lat="31.9735006" lon="34.7561538"><ele>22.3</ele><time>2014-11-08T04:20:47Z</time></trkpt>
<trkpt lat="31.9734112" lon="34.7562000"><ele>22.4</ele><time>2014-11-08T04:20:48Z</time></trkpt>
<trkpt lat="31.9733392" lon="34.7561710"><ele>22.5</ele><time>2014-11-08T04:20:49Z</time></trkpt>
<trkpt lat="31.9728534" lon="34.7562720"><ele>24.4</ele><time>2014-11-08T04:20:57Z</time></trkpt>
<trkpt lat="31.9727970" lon="34.7563029"><ele>25.0</ele><time>2014-11-08T04:20:58Z</time></trkpt>
<trkpt lat="31.9726617" lon="34.7562942"><ele>26.0</ele><time>2014-11-08T04:21:00Z</time></trkpt>
<trkpt lat="31.9721798" lon="34.7564130"><ele>26.0</ele><time>2014-11-08T04:21:08Z</time></trkpt>
<trkpt lat="31.9716830" lon="34.7564992"><ele>26.9</ele><time>2014-11-08T04:21:16Z</time></trkpt>
<trkpt lat="31.9712013" lon="34.7566163"><ele>28.2</ele><time>2014-11-08T04:21:23Z</time></trkpt>
<trkpt lat="31.9707533" lon="34.7566875"><ele>28.7</ele><time>2014-11-08T04:21:29Z</time></trkpt>
<trkpt lat="31.9702460" lon="34.7567732"><ele>26.8</ele><time>2014-11-08T04:21:36Z</time></trkpt>
<trkpt lat="31.9699301" lon="34.7568438"><ele>26.1</ele><time>2014-11-08T04:21:40Z</time></trkpt>
<trkpt lat="31.9694367" lon="34.7569065"><ele>26.7</ele><time>2014-11-08T04:21:47Z</time></trkpt>
<trkpt lat="31.9693642" lon="34.7569188"><ele>26.8</ele><time>2014-11-08T04:21:48Z</time></trkpt>
<trkpt lat="31.9693101" lon="34.7570242"><ele>26.9</ele><time>2014-11-08T04:21:49Z</time></trkpt>
<trkpt lat="31.9692290" lon="34.7569796"><ele>27.0</ele><time>2014-11-08T04:21:50Z</time></trkpt>
<trkpt lat="31.9686059" lon="34.7571190"><ele>25.8</ele><time>2014-11-08T04:21:58Z</time></trkpt>
<trkpt lat="31.9685055" lon="34.7571115"><ele>25.3</ele><time>2014-11-08T04:22:01Z</time></trkpt>
<trkpt lat="31.9680239" lon="34.7572072"><ele>25.8</ele><time>2014-11-08T04:22:08Z</time></trkpt>
<trkpt lat="31.9675019" lon="34.7572935"><ele>27.0</ele><time>2014-11-08T04:22:16Z</time></trkpt>
<trkpt lat="31.9670038" lon="34.7573690"><ele>27.3</ele><time>2014-11-08T04:22:22Z</time></trkpt>
<trkpt lat="31.9669040" lon="34.7573622"><ele>27.4</ele><time>2014-11-08T04:22:23Z</time></trkpt>
<trkpt lat="31.9668234" lon="34.7574298"><ele>27.7</ele><time>2014-11-08T04:22:26Z</time></trkpt>
<trkpt lat="31.9663732" lon="34.7574946"><ele>28.4</ele><time>2014-11-08T04:22:31Z</time></trkpt>
<trkpt lat="31.9662483" lon="34.7574965"><ele>28.6</ele><time>2014-11-08T04:22:33Z</time></trkpt>
<trkpt lat="31.9659709" lon="34.7576179"><ele>29.0</ele><time>2014-11-08T04:22:37Z</time></trkpt>
<trkpt lat="31.9655094" lon="34.7577048"><ele>29.0</ele><time>2014-11-08T04:22:44Z</time></trkpt>
<trkpt lat="31.9649856" lon="34.7578662"><ele>28.0</ele><time>2014-11-08T04:22:50Z</time></trkpt>
<trkpt lat="31.9648283" lon="34.7579430"><ele>27.4</ele><time>2014-11-08T04:22:52Z</time></trkpt>
<trkpt lat="31.9647673" lon="34.7579161"><ele>27.0</ele><time>2014-11-08T04:22:53Z</time></trkpt>
<trkpt lat="31.9644200" lon="34.7580029"><ele>29.5</ele><time>2014-11-08T04:22:58Z</time></trkpt>
<trkpt lat="31.9642983" lon="34.7580732"><ele>29.9</ele><time>2014-11-08T04:23:00Z</time></trkpt>
<trkpt lat="31.9640834" lon="34.7581374"><ele>29.6</ele><time>2014-11-08T04:23:02Z</time></trkpt>
<trkpt lat="31.9640054" lon="34.7581179"><ele>29.5</ele><time>2014-11-08T04:23:03Z</time></trkpt>
<trkpt lat="31.9638525" lon="34.7581502"><ele>29.2</ele><time>2014-11-08T04:23:06Z</time></trkpt>
<trkpt lat="31.9633599" lon="34.7582205"><ele>28.4</ele><time>2014-11-08T04:23:12Z</time></trkpt>
<trkpt lat="31.9628916" lon="34.7583600"><ele>28.0</ele><time>2014-11-08T04:23:19Z</time></trkpt>
<trkpt lat="31.9624330" lon="34.7584391"><ele>25.5</ele><time>2014-11-08T04:23:25Z</time></trkpt>
<trkpt lat="31.9619822" lon="34.7585229"><ele>25.8</ele><time>2014-11-08T04:23:30Z</time></trkpt>
<trkpt lat="31.9615148" lon="34.7586191"><ele>23.6</ele><time>2014-11-08T04:23:35Z</time></trkpt>
<trkpt lat="31.9610531" lon="34.7586957"><ele>23.0</ele><time>2014-11-08T04:23:40Z</time></trkpt>
<trkpt lat="31.9605305" lon="34.7587791"><ele>22.3</ele><time>2014-11-08T04:23:45Z</time></trkpt>
<trkpt lat="31.9600035" lon="34.7588676"><ele>20.0</ele><time>2014-11-08T04:23:52Z</time></trkpt>
<trkpt lat="31.9596286" lon="34.7589102"><ele>20.0</ele><time>2014-11-08T04:23:57Z</time></trkpt>
<trkpt lat="31.9590901" lon="34.7588960"><ele>19.2</ele><time>2014-11-08T04:24:02Z</time></trkpt>
<trkpt lat="31.9586074" lon="34.7588721"><ele>17.0</ele><time>2014-11-08T04:24:07Z</time></trkpt>
<trkpt lat="31.9583721" lon="34.7588290"><ele>16.5</ele><time>2014-11-08T04:24:10Z</time></trkpt>
<trkpt lat="31.9581656" lon="34.7588319"><ele>17.5</ele><time>2014-11-08T04:24:12Z</time></trkpt>
<trkpt lat="31.9577414" lon="34.7587247"><ele>19.0</ele><time>2014-11-08T04:24:17Z</time></trkpt>
<trkpt lat="31.9576684" lon="34.7586802"><ele>19.0</ele><time>2014-11-08T04:24:18Z</time></trkpt>
<trkpt lat="31.9572155" lon="34.7586058"><ele>18.8</ele><time>2014-11-08T04:24:22Z</time></trkpt>
<trkpt lat="31.9568059" lon="34.7585089"><ele>18.0</ele><time>2014-11-08T04:24:26Z</time></trkpt>
<trkpt lat="31.9563457" lon="34.7582942"><ele>15.5</ele><time>2014-11-08T04:24:31Z</time></trkpt>
<trkpt lat="31.9558366" lon="34.7580542"><ele>17.0</ele><time>2014-11-08T04:24:37Z</time></trkpt>
<trkpt lat="31.9553812" lon="34.7578288"><ele>17.0</ele><time>2014-11-08T04:24:42Z</time></trkpt>
<trkpt lat="31.9549613" lon="34.7575987"><ele>14.6</ele><time>2014-11-08T04:24:48Z</time></trkpt>
<trkpt lat="31.9544942" lon="34.7572600"><ele>11.5</ele><time>2014-11-08T04:24:53Z</time></trkpt>
<trkpt lat="31.9541117" lon="34.7569670"><ele>11.3</ele><time>2014-11-08T04:24:58Z</time></trkpt>
<trkpt lat="31.9539695" lon="34.7568593"><ele>11.5</ele><time>2014-11-08T04:25:00Z</time></trkpt>
<trkpt lat="31.9539117" lon="34.7567618"><ele>11.7</ele><time>2014-11-08T04:25:02Z</time></trkpt>
<trkpt lat="31.9537987" lon="34.7566776"><ele>11.8</ele><time>2014-11-08T04:25:04Z</time></trkpt>
<trkpt lat="31.9537913" lon="34.7566190"><ele>11.9</ele><time>2014-11-08T04:25:05Z</time></trkpt>
<trkpt lat="31.9534240" lon="34.7563020"><ele>14.3</ele><time>2014-11-08T04:25:12Z</time></trkpt>
<trkpt lat="31.9532404" lon="34.7561083"><ele>15.4</ele><time>2014-11-08T04:25:16Z</time></trkpt>
<trkpt lat="31.9531081" lon="34.7560303"><ele>15.9</ele><time>2014-11-08T04:25:18Z</time></trkpt>
<trkpt lat="31.9530906" lon="34.7559529"><ele>16.2</ele><time>2014-11-08T04:25:19Z</time></trkpt>
<trkpt lat="31.9527234" lon="34.7555890"><ele>17.7</ele><time>2014-11-08T04:25:24Z</time></trkpt>
<trkpt lat="31.9524499" lon="34.7553558"><ele>19.0</ele><time>2014-11-08T04:25:28Z</time></trkpt>
<trkpt lat="31.9520893" lon="34.7549400"><ele>21.0</ele><time>2014-11-08T04:25:34Z</time></trkpt>
<trkpt lat="31.9517175" lon="34.7545753"><ele>22.0</ele><time>2014-11-08T04:25:40Z</time></trkpt>
<trkpt lat="31.9513414" lon="34.7541828"><ele>19.1</ele><time>2014-11-08T04:25:46Z</time></trkpt>
<trkpt lat="31.9513629" lon="34.7541802"><ele>19.3</ele><time>2014-11-08T04:25:47Z</time></trkpt>
<trkpt lat="31.9510154" lon="34.7537971"><ele>20.0</ele><time>2014-11-08T04:25:56Z</time></trkpt>
<trkpt lat="31.9506639" lon="34.7534502"><ele>21.6</ele><time>2014-11-08T04:26:03Z</time></trkpt>
<trkpt lat="31.9503451" lon="34.7531509"><ele>19.8</ele><time>2014-11-08T04:26:08Z</time></trkpt>
<trkpt lat="31.9502257" lon="34.7529933"><ele>19.1</ele><time>2014-11-08T04:26:10Z</time></trkpt>
<trkpt lat="31.9500350" lon="34.7528400"><ele>18.0</ele><time>2014-11-08T04:26:13Z</time></trkpt>
<trkpt lat="31.9497741" lon="34.7525258"><ele>15.2</ele><time>2014-11-08T04:26:19Z</time></trkpt>
<trkpt lat="31.9493871" lon="34.7521631"><ele>12.0</ele><time>2014-11-08T04:26:24Z</time></trkpt>
<trkpt lat="31.9490134" lon="34.7517803"><ele>14.3</ele><time>2014-11-08T04:26:31Z</time></trkpt>
<trkpt lat="31.9487666" lon="34.7516043"><ele>15.0</ele><time>2014-11-08T04:26:35Z</time></trkpt>
<trkpt lat="31.9484033" lon="34.7512579"><ele>10.0</ele><time>2014-11-08T04:26:41Z</time></trkpt>
<trkpt lat="31.9480123" lon="34.7508758"><ele>10.0</ele><time>2014-11-08T04:26:47Z</time></trkpt>
<trkpt lat="31.9475919" lon="34.7505013"><ele>10.1</ele><time>2014-11-08T04:26:53Z</time></trkpt>
<trkpt lat="31.9472024" lon="34.7500930"><ele>10.7</ele><time>2014-11-08T04:26:59Z</time></trkpt>
<trkpt lat="31.9468223" lon="34.7497244"><ele>11.4</ele><time>2014-11-08T04:27:06Z</time></trkpt>
<trkpt lat="31.9464426" lon="34.7493446"><ele>12.0</ele><time>2014-11-08T04:27:11Z</time></trkpt>
<trkpt lat="31.9460837" lon="34.7489805"><ele>12.7</ele><time>2014-11-08T04:27:18Z</time></trkpt>
<trkpt lat="31.9457376" lon="34.7486088"><ele>13.6</ele><time>2014-11-08T04:27:23Z</time></trkpt>
<trkpt lat="31.9453885" lon="34.7482402"><ele>12.4</ele><time>2014-11-08T04:27:29Z</time></trkpt>
<trkpt lat="31.9452802" lon="34.7481068"><ele>12.0</ele><time>2014-11-08T04:27:31Z</time></trkpt>
<trkpt lat="31.9452130" lon="34.7480769"><ele>11.9</ele><time>2014-11-08T04:27:32Z</time></trkpt>
<trkpt lat="31.9448635" lon="34.7477015"><ele>11.7</ele><time>2014-11-08T04:27:38Z</time></trkpt>
<trkpt lat="31.9444855" lon="34.7472923"><ele>11.4</ele><time>2014-11-08T04:27:45Z</time></trkpt>
<trkpt lat="31.9441335" lon="34.7469275"><ele>11.2</ele><time>2014-11-08T04:27:51Z</time></trkpt>
<trkpt lat="31.9437947" lon="34.7465637"><ele>11.0</ele><time>2014-11-08T04:27:57Z</time></trkpt>
<trkpt lat="31.9434426" lon="34.7462166"><ele>11.0</ele><time>2014-11-08T04:28:03Z</time></trkpt>
<trkpt lat="31.9430715" lon="34.7458670"><ele>10.5</ele><time>2014-11-08T04:28:09Z</time></trkpt>
<trkpt lat="31.9426751" lon="34.7455023"><ele>10.0</ele><time>2014-11-08T04:28:15Z</time></trkpt>
<trkpt lat="31.9422639" lon="34.7451371"><ele>9.4</ele><time>2014-11-08T04:28:21Z</time></trkpt>
<trkpt lat="31.9418777" lon="34.7448158"><ele>9.0</ele><time>2014-11-08T04:28:26Z</time></trkpt>
<trkpt lat="31.9414821" lon="34.7445157"><ele>8.5</ele><time>2014-11-08T04:28:31Z</time></trkpt>
<trkpt lat="31.9411046" lon="34.7442262"><ele>8.0</ele><time>2014-11-08T04:28:36Z</time></trkpt>
<trkpt lat="31.9406520" lon="34.7439114"><ele>6.4</ele><time>2014-11-08T04:28:42Z</time></trkpt>
<trkpt lat="31.9402566" lon="34.7436478"><ele>5.0</ele><time>2014-11-08T04:28:48Z</time></trkpt>
<trkpt lat="31.9398544" lon="34.7434010"><ele>5.0</ele><time>2014-11-08T04:28:52Z</time></trkpt>
<trkpt lat="31.9393940" lon="34.7431376"><ele>5.0</ele><time>2014-11-08T04:28:58Z</time></trkpt>
<trkpt lat="31.9389272" lon="34.7428816"><ele>5.7</ele><time>2014-11-08T04:29:04Z</time></trkpt>
<trkpt lat="31.9384795" lon="34.7426675"><ele>6.4</ele><time>2014-11-08T04:29:10Z</time></trkpt>
<trkpt lat="31.9380378" lon="34.7424686"><ele>7.2</ele><time>2014-11-08T04:29:16Z</time></trkpt>
<trkpt lat="31.9375907" lon="34.7422855"><ele>8.2</ele><time>2014-11-08T04:29:22Z</time></trkpt>
<trkpt lat="31.9371437" lon="34.7421168"><ele>9.5</ele><time>2014-11-08T04:29:30Z</time></trkpt>
<trkpt lat="31.9366980" lon="34.7419607"><ele>10.8</ele><time>2014-11-08T04:29:37Z</time></trkpt>
<trkpt lat="31.9362238" lon="34.7418043"><ele>12.1</ele><time>2014-11-08T04:29:43Z</time></trkpt>
<trkpt lat="31.9357343" lon="34.7416611"><ele>13.3</ele><time>2014-11-08T04:29:50Z</time></trkpt>
<trkpt lat="31.9352452" lon="34.7415404"><ele>14.6</ele><time>2014-11-08T04:29:57Z</time></trkpt>
<trkpt lat="31.9347575" lon="34.7414222"><ele>15.8</ele><time>2014-11-08T04:30:04Z</time></trkpt>
<trkpt lat="31.9342698" lon="34.7413230"><ele>16.0</ele><time>2014-11-08T04:30:11Z</time></trkpt>
<trkpt lat="31.9337732" lon="34.7412515"><ele>15.0</ele><time>2014-11-08T04:30:19Z</time></trkpt>
<trkpt lat="31.9332860" lon="34.7411870"><ele>14.1</ele><time>2014-11-08T04:30:25Z</time></trkpt>
<trkpt lat="31.9328057" lon="34.7411247"><ele>13.1</ele><time>2014-11-08T04:30:32Z</time></trkpt>
<trkpt lat="31.9323080" lon="34.7410582"><ele>13.0</ele><time>2014-11-08T04:30:39Z</time></trkpt>
<trkpt lat="31.9318467" lon="34.7410005"><ele>12.3</ele><time>2014-11-08T04:30:45Z</time></trkpt>
<trkpt lat="31.9313382" lon="34.7409393"><ele>11.5</ele><time>2014-11-08T04:30:51Z</time></trkpt>
<trkpt lat="31.9308527" lon="34.7408800"><ele>10.6</ele><time>2014-11-08T04:30:57Z</time></trkpt>
<trkpt lat="31.9303651" lon="34.7408160"><ele>9.6</ele><time>2014-11-08T04:31:03Z</time></trkpt>
<trkpt lat="31.9298733" lon="34.7407581"><ele>8.5</ele><time>2014-11-08T04:31:10Z</time></trkpt>
<trkpt lat="31.9293835" lon="34.7406906"><ele>7.7</ele><time>2014-11-08T04:31:15Z</time></trkpt>
<trkpt lat="31.9289111" lon="34.7406223"><ele>7.2</ele><time>2014-11-08T04:31:21Z</time></trkpt>
<trkpt lat="31.9284246" lon="34.7405641"><ele>7.4</ele><time>2014-11-08T04:31:27Z</time></trkpt>
<trkpt lat="31.9279396" lon="34.7405075"><ele>7.9</ele><time>2014-11-08T04:31:33Z</time></trkpt>
<trkpt lat="31.9274626" lon="34.7404545"><ele>8.4</ele><time>2014-11-08T04:31:39Z</time></trkpt>
<trkpt lat="31.9269900" lon="34.7404011"><ele>8.9</ele><time>2014-11-08T04:31:45Z</time></trkpt>
<trkpt lat="31.9265065" lon="34.7403483"><ele>9.5</ele><time>2014-11-08T04:31:51Z</time></trkpt>
<trkpt lat="31.9260137" lon="34.7402823"><ele>10.0</ele><time>2014-11-08T04:31:57Z</time></trkpt>
<trkpt lat="31.9255054" lon="34.7402182"><ele>10.2</ele><time>2014-11-08T04:32:04Z</time></trkpt>
<trkpt lat="31.9250154" lon="34.7401564"><ele>11.4</ele><time>2014-11-08T04:32:12Z</time></trkpt>
<trkpt lat="31.9245295" lon="34.7400947"><ele>12.3</ele><time>2014-11-08T04:32:18Z</time></trkpt>
<trkpt lat="31.9240391" lon="34.7400396"><ele>12.8</ele><time>2014-11-08T04:32:25Z</time></trkpt>
<trkpt lat="31.9235507" lon="34.7399790"><ele>13.6</ele><time>2014-11-08T04:32:32Z</time></trkpt>
<trkpt lat="31.9230753" lon="34.7399297"><ele>14.5</ele><time>2014-11-08T04:32:39Z</time></trkpt>
<trkpt lat="31.9225946" lon="34.7398633"><ele>15.0</ele><time>2014-11-08T04:32:46Z</time></trkpt>
<trkpt lat="31.9221065" lon="34.7398007"><ele>16.6</ele><time>2014-11-08T04:32:53Z</time></trkpt>
<trkpt lat="31.9216145" lon="34.7397412"><ele>17.6</ele><time>2014-11-08T04:33:01Z</time></trkpt>
<trkpt lat="31.9211209" lon="34.7396821"><ele>18.2</ele><time>2014-11-08T04:33:07Z</time></trkpt>
<trkpt lat="31.9206404" lon="34.7396181"><ele>18.8</ele><time>2014-11-08T04:33:14Z</time></trkpt>
<trkpt lat="31.9201662" lon="34.7395609"><ele>19.5</ele><time>2014-11-08T04:33:21Z</time></trkpt>
<trkpt lat="31.9196922" lon="34.7395073"><ele>20.2</ele><time>2014-11-08T04:33:28Z</time></trkpt>
<trkpt lat="31.9192062" lon="34.7394533"><ele>20.8</ele><time>2014-11-08T04:33:35Z</time></trkpt>
<trkpt lat="31.9187198" lon="34.7393895"><ele>20.0</ele><time>2014-11-08T04:33:43Z</time></trkpt>
<trkpt lat="31.9182335" lon="34.7393238"><ele>20.8</ele><time>2014-11-08T04:33:50Z</time></trkpt>
<trkpt lat="31.9177565" lon="34.7392636"><ele>21.6</ele><time>2014-11-08T04:33:56Z</time></trkpt>
<trkpt lat="31.9172781" lon="34.7392039"><ele>22.0</ele><time>2014-11-08T04:34:03Z</time></trkpt>
<trkpt lat="31.9167997" lon="34.7391473"><ele>23.3</ele><time>2014-11-08T04:34:10Z</time></trkpt>
<trkpt lat="31.9163268" lon="34.7390901"><ele>24.8</ele><time>2014-11-08T04:34:17Z</time></trkpt>
<trkpt lat="31.9158273" lon="34.7390293"><ele>26.2</ele><time>2014-11-08T04:34:24Z</time></trkpt>
<trkpt lat="31.9153432" lon="34.7389466"><ele>27.6</ele><time>2014-11-08T04:34:31Z</time></trkpt>
<trkpt lat="31.9148427" lon="34.7388956"><ele>27.7</ele><time>2014-11-08T04:34:36Z</time></trkpt>
<trkpt lat="31.9143639" lon="34.7388289"><ele>27.2</ele><time>2014-11-08T04:34:42Z</time></trkpt>
<trkpt lat="31.9139129" lon="34.7387841"><ele>27.7</ele><time>2014-11-08T04:34:48Z</time></trkpt>
<trkpt lat="31.9137652" lon="34.7387290"><ele>28.1</ele><time>2014-11-08T04:34:50Z</time></trkpt>
<trkpt lat="31.9136993" lon="34.7387631"><ele>28.3</ele><time>2014-11-08T04:34:51Z</time></trkpt>
<trkpt lat="31.9132013" lon="34.7387091"><ele>28.6</ele><time>2014-11-08T04:34:57Z</time></trkpt>
<trkpt lat="31.9127600" lon="34.7386936"><ele>27.8</ele><time>2014-11-08T04:35:03Z</time></trkpt>
<trkpt lat="31.9122415" lon="34.7386215"><ele>27.5</ele><time>2014-11-08T04:35:09Z</time></trkpt>
<trkpt lat="31.9117615" lon="34.7385433"><ele>27.1</ele><time>2014-11-08T04:35:16Z</time></trkpt>
<trkpt lat="31.9112725" lon="34.7384622"><ele>27.7</ele><time>2014-11-08T04:35:21Z</time></trkpt>
<trkpt lat="31.9108221" lon="34.7384108"><ele>27.3</ele><time>2014-11-08T04:35:27Z</time></trkpt>
<trkpt lat="31.9103035" lon="34.7383422"><ele>26.2</ele><time>2014-11-08T04:35:33Z</time></trkpt>
<trkpt lat="31.9098127" lon="34.7383093"><ele>26.0</ele><time>2014-11-08T04:35:39Z</time></trkpt>
<trkpt lat="31.9093365" lon="34.7382324"><ele>25.4</ele><time>2014-11-08T04:35:45Z</time></trkpt>
<trkpt lat="31.9088251" lon="34.7381373"><ele>24.7</ele><time>2014-11-08T04:35:51Z</time></trkpt>
<trkpt lat="31.9084465" lon="34.7380866"><ele>24.2</ele><time>2014-11-08T04:35:56Z</time></trkpt>
<trkpt lat="31.9081218" lon="34.7379984"><ele>23.7</ele><time>2014-11-08T04:36:00Z</time></trkpt>
<trkpt lat="31.9079746" lon="34.7380205"><ele>23.6</ele><time>2014-11-08T04:36:02Z</time></trkpt>
<trkpt lat="31.9077933" lon="34.7379287"><ele>23.3</ele><time>2014-11-08T04:36:04Z</time></trkpt>
<trkpt lat="31.9073817" lon="34.7378352"><ele>23.0</ele><time>2014-11-08T04:36:09Z</time></trkpt>
<trkpt lat="31.9072692" lon="34.7377660"><ele>23.0</ele><time>2014-11-08T04:36:11Z</time></trkpt>
<trkpt lat="31.9070186" lon="34.7377008"><ele>23.0</ele><time>2014-11-08T04:36:15Z</time></trkpt>
<trkpt lat="31.9065347" lon="34.7375560"><ele>23.5</ele><time>2014-11-08T04:36:21Z</time></trkpt>
<trkpt lat="31.9060807" lon="34.7374121"><ele>25.8</ele><time>2014-11-08T04:36:26Z</time></trkpt>
<trkpt lat="31.9056938" lon="34.7372822"><ele>25.0</ele><time>2014-11-08T04:36:31Z</time></trkpt>
<trkpt lat="31.9052256" lon="34.7370880"><ele>26.6</ele><time>2014-11-08T04:36:37Z</time></trkpt>
<trkpt lat="31.9047502" lon="34.7368466"><ele>27.0</ele><time>2014-11-08T04:36:44Z</time></trkpt>
<trkpt lat="31.9042866" lon="34.7366049"><ele>24.4</ele><time>2014-11-08T04:36:52Z</time></trkpt>
<trkpt lat="31.9038348" lon="34.7363860"><ele>24.0</ele><time>2014-11-08T04:36:58Z</time></trkpt>
<trkpt lat="31.9033922" lon="34.7361880"><ele>23.3</ele><time>2014-11-08T04:37:05Z</time></trkpt>
<trkpt lat="31.9029542" lon="34.7359711"><ele>22.5</ele><time>2014-11-08T04:37:12Z</time></trkpt>
<trkpt lat="31.9025035" lon="34.7357469"><ele>24.0</ele><time>2014-11-08T04:37:20Z</time></trkpt>
<trkpt lat="31.9020318" lon="34.7355017"><ele>25.0</ele><time>2014-11-08T04:37:27Z</time></trkpt>
<trkpt lat="31.9016231" lon="34.7352987"><ele>24.8</ele><time>2014-11-08T04:37:33Z</time></trkpt>
<trkpt lat="31.9015594" lon="34.7352947"><ele>24.5</ele><time>2014-11-08T04:37:34Z</time></trkpt>
<trkpt lat="31.9011090" lon="34.7350881"><ele>22.9</ele><time>2014-11-08T04:37:42Z</time></trkpt>
<trkpt lat="31.9006756" lon="34.7348703"><ele>21.2</ele><time>2014-11-08T04:37:48Z</time></trkpt>
<trkpt lat="31.9003284" lon="34.7347333"><ele>22.4</ele><time>2014-11-08T04:37:54Z</time></trkpt>
<trkpt lat="31.8998876" lon="34.7344980"><ele>23.0</ele><time>2014-11-08T04:38:00Z</time></trkpt>
<trkpt lat="31.8994640" lon="34.7342782"><ele>25.4</ele><time>2014-11-08T04:38:07Z</time></trkpt>
<trkpt lat="31.8990043" lon="34.7340661"><ele>20.3</ele><time>2014-11-08T04:38:14Z</time></trkpt>
<trkpt lat="31.8985225" lon="34.7338402"><ele>20.9</ele><time>2014-11-08T04:38:21Z</time></trkpt>
<trkpt lat="31.8983368" lon="34.7337427"><ele>20.5</ele><time>2014-11-08T04:38:24Z</time></trkpt>
<trkpt lat="31.8982096" lon="34.7336520"><ele>20.0</ele><time>2014-11-08T04:38:26Z</time></trkpt>
<trkpt lat="31.8979616" lon="34.7335494"><ele>19.1</ele><time>2014-11-08T04:38:29Z</time></trkpt>
<trkpt lat="31.8974722" lon="34.7333283"><ele>18.6</ele><time>2014-11-08T04:38:35Z</time></trkpt>
<trkpt lat="31.8971868" lon="34.7331772"><ele>20.0</ele><time>2014-11-08T04:38:39Z</time></trkpt>
<trkpt lat="31.8970952" lon="34.7331520"><ele>20.7</ele><time>2014-11-08T04:38:40Z</time></trkpt>
<trkpt lat="31.8969020" lon="34.7330007"><ele>22.6</ele><time>2014-11-08T04:38:43Z</time></trkpt>
<trkpt lat="31.8964840" lon="34.7328729"><ele>22.0</ele><time>2014-11-08T04:38:48Z</time></trkpt>
<trkpt lat="31.8959972" lon="34.7326167"><ele>18.7</ele><time>2014-11-08T04:38:55Z</time></trkpt>
<trkpt lat="31.8955345" lon="34.7323855"><ele>18.8</ele><time>2014-11-08T04:39:01Z</time></trkpt>
<trkpt lat="31.8951036" lon="34.7321622"><ele>17.3</ele><time>2014-11-08T04:39:07Z</time></trkpt>
<trkpt lat="31.8946267" lon="34.7319296"><ele>18.0</ele><time>2014-11-08T04:39:13Z</time></trkpt>
<trkpt lat="31.8941688" lon="34.7317204"><ele>19.1</ele><time>2014-11-08T04:39:19Z</time></trkpt>
<trkpt lat="31.8936885" lon="34.7314657"><ele>20.6</ele><time>2014-11-08T04:39:26Z</time></trkpt>
<trkpt lat="31.8932395" lon="34.7312604"><ele>23.1</ele><time>2014-11-08T04:39:33Z</time></trkpt>
<trkpt lat="31.8927870" lon="34.7310609"><ele>25.0</ele><time>2014-11-08T04:39:38Z</time></trkpt>
<trkpt lat="31.8923272" lon="34.7308457"><ele>25.0</ele><time>2014-11-08T04:39:44Z</time></trkpt>
<trkpt lat="31.8918743" lon="34.7306311"><ele>24.5</ele><time>2014-11-08T04:39:50Z</time></trkpt>
<trkpt lat="31.8914116" lon="34.7304233"><ele>23.4</ele><time>2014-11-08T04:39:56Z</time></trkpt>
<trkpt lat="31.8909624" lon="34.7301995"><ele>22.3</ele><time>2014-11-08T04:40:02Z</time></trkpt>
<trkpt lat="31.8906425" lon="34.7300644"><ele>21.5</ele><time>2014-11-08T04:40:06Z</time></trkpt>
<trkpt lat="31.8905874" lon="34.7300675"><ele>21.4</ele><time>2014-11-08T04:40:07Z</time></trkpt>
<trkpt lat="31.8904446" lon="34.7299419"><ele>21.0</ele><time>2014-11-08T04:40:09Z</time></trkpt>
<trkpt lat="31.8900085" lon="34.7296851"><ele>24.0</ele><time>2014-11-08T04:40:15Z</time></trkpt>
<trkpt lat="31.8895905" lon="34.7294778"><ele>24.2</ele><time>2014-11-08T04:40:21Z</time></trkpt>
<trkpt lat="31.8891494" lon="34.7292208"><ele>25.0</ele><time>2014-11-08T04:40:27Z</time></trkpt>
<trkpt lat="31.8886868" lon="34.7289929"><ele>25.0</ele><time>2014-11-08T04:40:33Z</time></trkpt>
<trkpt lat="31.8882851" lon="34.7287335"><ele>24.4</ele><time>2014-11-08T04:40:38Z</time></trkpt>
<trkpt lat="31.8878670" lon="34.7284683"><ele>22.5</ele><time>2014-11-08T04:40:44Z</time></trkpt>
<trkpt lat="31.8874437" lon="34.7281854"><ele>20.6</ele><time>2014-11-08T04:40:50Z</time></trkpt>
<trkpt lat="31.8870012" lon="34.7278980"><ele>20.0</ele><time>2014-11-08T04:40:56Z</time></trkpt>
<trkpt lat="31.8866077" lon="34.7276782"><ele>20.0</ele><time>2014-11-08T04:41:03Z</time></trkpt>
<trkpt lat="31.8865486" lon="34.7275719"><ele>20.0</ele><time>2014-11-08T04:41:04Z</time></trkpt>
<trkpt lat="31.8861639" lon="34.7272861"><ele>23.0</ele><time>2014-11-08T04:41:09Z</time></trkpt>
<trkpt lat="31.8857468" lon="34.7270115"><ele>26.0</ele><time>2014-11-08T04:41:15Z</time></trkpt>
<trkpt lat="31.8853495" lon="34.7267360"><ele>24.2</ele><time>2014-11-08T04:41:21Z</time></trkpt>
<trkpt lat="31.8849278" lon="34.7264533"><ele>25.5</ele><time>2014-11-08T04:41:28Z</time></trkpt>
<trkpt lat="31.8845012" lon="34.7261810"><ele>26.0</ele><time>2014-11-08T04:41:35Z</time></trkpt>
<trkpt lat="31.8841995" lon="34.7259916"><ele>24.2</ele><time>2014-11-08T04:41:40Z</time></trkpt>
<trkpt lat="31.8838783" lon="34.7257554"><ele>24.0</ele><time>2014-11-08T04:41:45Z</time></trkpt>
<trkpt lat="31.8836108" lon="34.7255897"><ele>25.4</ele><time>2014-11-08T04:41:49Z</time></trkpt>
<trkpt lat="31.8832855" lon="34.7253036"><ele>28.8</ele><time>2014-11-08T04:41:55Z</time></trkpt>
<trkpt lat="31.8829459" lon="34.7251100"><ele>33.3</ele><time>2014-11-08T04:42:02Z</time></trkpt>
<trkpt lat="31.8825772" lon="34.7248323"><ele>34.0</ele><time>2014-11-08T04:42:07Z</time></trkpt>
<trkpt lat="31.8821359" lon="34.7245670"><ele>34.9</ele><time>2014-11-08T04:42:14Z</time></trkpt>
<trkpt lat="31.8820756" lon="34.7245250"><ele>35.0</ele><time>2014-11-08T04:42:15Z</time></trkpt>
<trkpt lat="31.8819821" lon="34.7245093"><ele>35.2</ele><time>2014-11-08T04:42:16Z</time></trkpt>
<trkpt lat="31.8815600" lon="34.7242136"><ele>36.5</ele><time>2014-11-08T04:42:23Z</time></trkpt>
<trkpt lat="31.8811250" lon="34.7239001"><ele>37.8</ele><time>2014-11-08T04:42:30Z</time></trkpt>
<trkpt lat="31.8809651" lon="34.7237862"><ele>38.3</ele><time>2014-11-08T04:42:34Z</time></trkpt>
<trkpt lat="31.8807984" lon="34.7236255"><ele>38.8</ele><time>2014-11-08T04:42:36Z</time></trkpt>
<trkpt lat="31.8803712" lon="34.7233559"><ele>42.6</ele><time>2014-11-08T04:42:44Z</time></trkpt>
<trkpt lat="31.8799413" lon="34.7230644"><ele>46.3</ele><time>2014-11-08T04:42:50Z</time></trkpt>
<trkpt lat="31.8794858" lon="34.7227446"><ele>48.0</ele><time>2014-11-08T04:42:58Z</time></trkpt>
<trkpt lat="31.8790425" lon="34.7224485"><ele>48.1</ele><time>2014-11-08T04:43:05Z</time></trkpt>
<trkpt lat="31.8786349" lon="34.7221773"><ele>48.5</ele><time>2014-11-08T04:43:12Z</time></trkpt>
<trkpt lat="31.8782110" lon="34.7218843"><ele>48.9</ele><time>2014-11-08T04:43:19Z</time></trkpt>
<trkpt lat="31.8778166" lon="34.7215961"><ele>50.0</ele><time>2014-11-08T04:43:26Z</time></trkpt>
<trkpt lat="31.8773855" lon="34.7213045"><ele>47.9</ele><time>2014-11-08T04:43:34Z</time></trkpt>
<trkpt lat="31.8769622" lon="34.7210093"><ele>47.5</ele><time>2014-11-08T04:43:40Z</time></trkpt>
<trkpt lat="31.8765278" lon="34.7207191"><ele>47.1</ele><time>2014-11-08T04:43:47Z</time></trkpt>
<trkpt lat="31.8760993" lon="34.7204423"><ele>47.6</ele><time>2014-11-08T04:43:54Z</time></trkpt>
<trkpt lat="31.8756686" lon="34.7201448"><ele>45.1</ele><time>2014-11-08T04:44:01Z</time></trkpt>
<trkpt lat="31.8752430" lon="34.7198492"><ele>44.0</ele><time>2014-11-08T04:44:08Z</time></trkpt>
<trkpt lat="31.8748050" lon="34.7195505"><ele>43.1</ele><time>2014-11-08T04:44:16Z</time></trkpt>
<trkpt lat="31.8743838" lon="34.7192687"><ele>42.0</ele><time>2014-11-08T04:44:21Z</time></trkpt>
<trkpt lat="31.8739316" lon="34.7189476"><ele>42.5</ele><time>2014-11-08T04:44:27Z</time></trkpt>
<trkpt lat="31.8735110" lon="34.7186916"><ele>43.0</ele><time>2014-11-08T04:44:33Z</time></trkpt>
<trkpt lat="31.8730869" lon="34.7184132"><ele>43.5</ele><time>2014-11-08T04:44:39Z</time></trkpt>
<trkpt lat="31.8726557" lon="34.7181257"><ele>43.7</ele><time>2014-11-08T04:44:45Z</time></trkpt>
<trkpt lat="31.8722268" lon="34.7178594"><ele>42.0</ele><time>2014-11-08T04:44:51Z</time></trkpt>
<trkpt lat="31.8718074" lon="34.7175817"><ele>42.0</ele><time>2014-11-08T04:44:57Z</time></trkpt>
<trkpt lat="31.8716571" lon="34.7174979"><ele>42.0</ele><time>2014-11-08T04:44:59Z</time></trkpt>
<trkpt lat="31.8715962" lon="34.7174332"><ele>42.0</ele><time>2014-11-08T04:45:00Z</time></trkpt>
<trkpt lat="31.8711493" lon="34.7172170"><ele>40.3</ele><time>2014-11-08T04:45:06Z</time></trkpt>
<trkpt lat="31.8707099" lon="34.7169918"><ele>39.0</ele><time>2014-11-08T04:45:13Z</time></trkpt>
<trkpt lat="31.8702257" lon="34.7167572"><ele>39.0</ele><time>2014-11-08T04:45:18Z</time></trkpt>
<trkpt lat="31.8697851" lon="34.7165392"><ele>37.2</ele><time>2014-11-08T04:45:24Z</time></trkpt>
<trkpt lat="31.8693347" lon="34.7163261"><ele>36.0</ele><time>2014-11-08T04:45:30Z</time></trkpt>
<trkpt lat="31.8688830" lon="34.7161439"><ele>36.0</ele><time>2014-11-08T04:45:36Z</time></trkpt>
<trkpt lat="31.8684163" lon="34.7159413"><ele>34.2</ele><time>2014-11-08T04:45:42Z</time></trkpt>
<trkpt lat="31.8679379" lon="34.7157382"><ele>33.0</ele><time>2014-11-08T04:45:48Z</time></trkpt>
<trkpt lat="31.8674728" lon="34.7155395"><ele>33.0</ele><time>2014-11-08T04:45:55Z</time></trkpt>
<trkpt lat="31.8670335" lon="34.7153639"><ele>32.2</ele><time>2014-11-08T04:46:00Z</time></trkpt>
<trkpt lat="31.8665728" lon="34.7151692"><ele>31.2</ele><time>2014-11-08T04:46:06Z</time></trkpt>
<trkpt lat="31.8661192" lon="34.7149734"><ele>29.3</ele><time>2014-11-08T04:46:12Z</time></trkpt>
<trkpt lat="31.8656535" lon="34.7147878"><ele>29.0</ele><time>2014-11-08T04:46:18Z</time></trkpt>
<trkpt lat="31.8651896" lon="34.7145876"><ele>28.7</ele><time>2014-11-08T04:46:24Z</time></trkpt>
<trkpt lat="31.8647397" lon="34.7143813"><ele>26.6</ele><time>2014-11-08T04:46:30Z</time></trkpt>
<trkpt lat="31.8643006" lon="34.7142044"><ele>25.3</ele><time>2014-11-08T04:46:36Z</time></trkpt>
<trkpt lat="31.8638648" lon="34.7140195"><ele>27.2</ele><time>2014-11-08T04:46:43Z</time></trkpt>
<trkpt lat="31.8633945" lon="34.7138032"><ele>29.0</ele><time>2014-11-08T04:46:49Z</time></trkpt>
<trkpt lat="31.8629577" lon="34.7136076"><ele>29.0</ele><time>2014-11-08T04:46:56Z</time></trkpt>
<trkpt lat="31.8624832" lon="34.7134227"><ele>30.6</ele><time>2014-11-08T04:47:03Z</time></trkpt>
<trkpt lat="31.8620422" lon="34.7132348"><ele>31.6</ele><time>2014-11-08T04:47:10Z</time></trkpt>
<trkpt lat="31.8615984" lon="34.7130668"><ele>32.3</ele><time>2014-11-08T04:47:17Z</time></trkpt>
<trkpt lat="31.8611421" lon="34.7128707"><ele>35.0</ele><time>2014-11-08T04:47:25Z</time></trkpt>
<trkpt lat="31.8606897" lon="34.7126851"><ele>35.6</ele><time>2014-11-08T04:47:31Z</time></trkpt>
<trkpt lat="31.8602351" lon="34.7124683"><ele>36.4</ele><time>2014-11-08T04:47:38Z</time></trkpt>
<trkpt lat="31.8597725" lon="34.7122741"><ele>38.2</ele><time>2014-11-08T04:47:45Z</time></trkpt>
<trkpt lat="31.8593034" lon="34.7120762"><ele>39.4</ele><time>2014-11-08T04:47:52Z</time></trkpt>
<trkpt lat="31.8592378" lon="34.7120507"><ele>39.5</ele><time>2014-11-08T04:47:53Z</time></trkpt>
<trkpt lat="31.8591756" lon="34.7120731"><ele>39.6</ele><time>2014-11-08T04:47:54Z</time></trkpt>
<trkpt lat="31.8586809" lon="34.7118978"><ele>40.8</ele><time>2014-11-08T04:48:02Z</time></trkpt>
<trkpt lat="31.8585501" lon="34.7118241"><ele>41.2</ele><time>2014-11-08T04:48:04Z</time></trkpt>
<trkpt lat="31.8580536" lon="34.7116627"><ele>42.2</ele><time>2014-11-08T04:48:11Z</time></trkpt>
<trkpt lat="31.8575751" lon="34.7115004"><ele>42.6</ele><time>2014-11-08T04:48:18Z</time></trkpt>
<trkpt lat="31.8570883" lon="34.7113574"><ele>43.1</ele><time>2014-11-08T04:48:25Z</time></trkpt>
<trkpt lat="31.8566093" lon="34.7112297"><ele>43.6</ele><time>2014-11-08T04:48:32Z</time></trkpt>
<trkpt lat="31.8561177" lon="34.7111175"><ele>44.0</ele><time>2014-11-08T04:48:39Z</time></trkpt>
<trkpt lat="31.8556375" lon="34.7109963"><ele>44.0</ele><time>2014-11-08T04:48:46Z</time></trkpt>
<trkpt lat="31.8551329" lon="34.7108866"><ele>42.0</ele><time>2014-11-08T04:48:53Z</time></trkpt>
<trkpt lat="31.8546550" lon="34.7108042"><ele>41.0</ele><time>2014-11-08T04:49:00Z</time></trkpt>
<trkpt lat="31.8541765" lon="34.7107460"><ele>40.7</ele><time>2014-11-08T04:49:07Z</time></trkpt>
<trkpt lat="31.8536651" lon="34.7106467"><ele>40.0</ele><time>2014-11-08T04:49:13Z</time></trkpt>
<trkpt lat="31.8531633" lon="34.7106006"><ele>40.5</ele><time>2014-11-08T04:49:18Z</time></trkpt>
<trkpt lat="31.8526890" lon="34.7105560"><ele>42.2</ele><time>2014-11-08T04:49:24Z</time></trkpt>
<trkpt lat="31.8521855" lon="34.7104959"><ele>42.5</ele><time>2014-11-08T04:49:30Z</time></trkpt>
<trkpt lat="31.8516656" lon="34.7104856"><ele>41.4</ele><time>2014-11-08T04:49:36Z</time></trkpt>
<trkpt lat="31.8511941" lon="34.7104794"><ele>41.8</ele><time>2014-11-08T04:49:42Z</time></trkpt>
<trkpt lat="31.8507244" lon="34.7104636"><ele>42.8</ele><time>2014-11-08T04:49:48Z</time></trkpt>
<trkpt lat="31.8502435" lon="34.7104423"><ele>43.0</ele><time>2014-11-08T04:49:55Z</time></trkpt>
<trkpt lat="31.8497122" lon="34.7104062"><ele>41.0</ele><time>2014-11-08T04:50:00Z</time></trkpt>
<trkpt lat="31.8492321" lon="34.7103698"><ele>40.2</ele><time>2014-11-08T04:50:05Z</time></trkpt>
<trkpt lat="31.8487759" lon="34.7103288"><ele>38.7</ele><time>2014-11-08T04:50:10Z</time></trkpt>
<trkpt lat="31.8483248" lon="34.7102969"><ele>38.0</ele><time>2014-11-08T04:50:15Z</time></trkpt>
<trkpt lat="31.8478628" lon="34.7102959"><ele>38.0</ele><time>2014-11-08T04:50:20Z</time></trkpt>
<trkpt lat="31.8473941" lon="34.7102831"><ele>38.0</ele><time>2014-11-08T04:50:25Z</time></trkpt>
<trkpt lat="31.8469401" lon="34.7102569"><ele>38.0</ele><time>2014-11-08T04:50:30Z</time></trkpt>
<trkpt lat="31.8463888" lon="34.7102201"><ele>37.5</ele><time>2014-11-08T04:50:36Z</time></trkpt>
<trkpt lat="31.8458898" lon="34.7101981"><ele>36.4</ele><time>2014-11-08T04:50:43Z</time></trkpt>
<trkpt lat="31.8453878" lon="34.7101721"><ele>34.7</ele><time>2014-11-08T04:50:48Z</time></trkpt>
<trkpt lat="31.8449252" lon="34.7101254"><ele>31.6</ele><time>2014-11-08T04:50:55Z</time></trkpt>
<trkpt lat="31.8447255" lon="34.7100940"><ele>32.9</ele><time>2014-11-08T04:50:57Z</time></trkpt>
<trkpt lat="31.8446800" lon="34.7101105"><ele>33.8</ele><time>2014-11-08T04:50:58Z</time></trkpt>
<trkpt lat="31.8443733" lon="34.7100629"><ele>37.3</ele><time>2014-11-08T04:51:02Z</time></trkpt>
<trkpt lat="31.8439663" lon="34.7100920"><ele>39.1</ele><time>2014-11-08T04:51:08Z</time></trkpt>
<trkpt lat="31.8434664" lon="34.7100477"><ele>40.0</ele><time>2014-11-08T04:51:15Z</time></trkpt>
<trkpt lat="31.8429761" lon="34.7100223"><ele>40.0</ele><time>2014-11-08T04:51:22Z</time></trkpt>
<trkpt lat="31.8424572" lon="34.7099971"><ele>41.9</ele><time>2014-11-08T04:51:29Z</time></trkpt>
<trkpt lat="31.8419649" lon="34.7099702"><ele>43.2</ele><time>2014-11-08T04:51:36Z</time></trkpt>
<trkpt lat="31.8414965" lon="34.7099286"><ele>43.8</ele><time>2014-11-08T04:51:43Z</time></trkpt>
<trkpt lat="31.8409956" lon="34.7098990"><ele>43.7</ele><time>2014-11-08T04:51:50Z</time></trkpt>
<trkpt lat="31.8404909" lon="34.7098564"><ele>43.3</ele><time>2014-11-08T04:51:57Z</time></trkpt>
<trkpt lat="31.8400213" lon="34.7098364"><ele>44.5</ele><time>2014-11-08T04:52:04Z</time></trkpt>
<trkpt lat="31.8398397" lon="34.7098566"><ele>46.0</ele><time>2014-11-08T04:52:07Z</time></trkpt>
<trkpt lat="31.8393331" lon="34.7098187"><ele>45.9</ele><time>2014-11-08T04:52:16Z</time></trkpt>
<trkpt lat="31.8388794" lon="34.7097860"><ele>44.0</ele><time>2014-11-08T04:52:22Z</time></trkpt>
<trkpt lat="31.8384109" lon="34.7096805"><ele>43.0</ele><time>2014-11-08T04:52:29Z</time></trkpt>
<trkpt lat="31.8378841" lon="34.7096180"><ele>41.2</ele><time>2014-11-08T04:52:36Z</time></trkpt>
<trkpt lat="31.8373644" lon="34.7094666"><ele>38.0</ele><time>2014-11-08T04:52:42Z</time></trkpt>
<trkpt lat="31.8368599" lon="34.7092988"><ele>36.6</ele><time>2014-11-08T04:52:48Z</time></trkpt>
<trkpt lat="31.8363649" lon="34.7090958"><ele>36.0</ele><time>2014-11-08T04:52:54Z</time></trkpt>
<trkpt lat="31.8358767" lon="34.7088974"><ele>34.9</ele><time>2014-11-08T04:53:00Z</time></trkpt>
<trkpt lat="31.8354550" lon="34.7086539"><ele>34.0</ele><time>2014-11-08T04:53:06Z</time></trkpt>
<trkpt lat="31.8350477" lon="34.7084189"><ele>33.2</ele><time>2014-11-08T04:53:10Z</time></trkpt>
<trkpt lat="31.8345819" lon="34.7080955"><ele>32.2</ele><time>2014-11-08T04:53:16Z</time></trkpt>
<trkpt lat="31.8341608" lon="34.7078204"><ele>31.7</ele><time>2014-11-08T04:53:21Z</time></trkpt>
<trkpt lat="31.8337819" lon="34.7075127"><ele>31.3</ele><time>2014-11-08T04:53:26Z</time></trkpt>
<trkpt lat="31.8334177" lon="34.7071931"><ele>31.4</ele><time>2014-11-08T04:53:31Z</time></trkpt>
<trkpt lat="31.8330113" lon="34.7068069"><ele>34.4</ele><time>2014-11-08T04:53:37Z</time></trkpt>
<trkpt lat="31.8326594" lon="34.7064559"><ele>39.3</ele><time>2014-11-08T04:53:43Z</time></trkpt>
<trkpt lat="31.8323037" lon="34.7060447"><ele>41.0</ele><time>2014-11-08T04:53:49Z</time></trkpt>
<trkpt lat="31.8319505" lon="34.7056378"><ele>41.0</ele><time>2014-11-08T04:53:56Z</time></trkpt>
<trkpt lat="31.8316309" lon="34.7052318"><ele>39.0</ele><time>2014-11-08T04:54:02Z</time></trkpt>
<trkpt lat="31.8313280" lon="34.7048109"><ele>41.0</ele><time>2014-11-08T04:54:08Z</time></trkpt>
<trkpt lat="31.8309943" lon="34.7043479"><ele>43.2</ele><time>2014-11-08T04:54:15Z</time></trkpt>
<trkpt lat="31.8306452" lon="34.7039334"><ele>43.2</ele><time>2014-11-08T04:54:22Z</time></trkpt>
<trkpt lat="31.8303201" lon="34.7034850"><ele>40.7</ele><time>2014-11-08T04:54:29Z</time></trkpt>
<trkpt lat="31.8299978" lon="34.7030629"><ele>41.0</ele><time>2014-11-08T04:54:36Z</time></trkpt>
<trkpt lat="31.8297010" lon="34.7026607"><ele>42.5</ele><time>2014-11-08T04:54:44Z</time></trkpt>
<trkpt lat="31.8294330" lon="34.7023694"><ele>45.0</ele><time>2014-11-08T04:54:49Z</time></trkpt>
<trkpt lat="31.8291097" lon="34.7019038"><ele>45.6</ele><time>2014-11-08T04:54:57Z</time></trkpt>
<trkpt lat="31.8287872" lon="34.7015002"><ele>46.8</ele><time>2014-11-08T04:55:04Z</time></trkpt>
<trkpt lat="31.8284384" lon="34.7010764"><ele>46.8</ele><time>2014-11-08T04:55:11Z</time></trkpt>
<trkpt lat="31.8282034" lon="34.7007869"><ele>45.8</ele><time>2014-11-08T04:55:16Z</time></trkpt>
<trkpt lat="31.8278143" lon="34.7003901"><ele>45.6</ele><time>2014-11-08T04:55:23Z</time></trkpt>
<trkpt lat="31.8277292" lon="34.7002707"><ele>46.0</ele><time>2014-11-08T04:55:25Z</time></trkpt>
<trkpt lat="31.8276755" lon="34.7002716"><ele>46.1</ele><time>2014-11-08T04:55:27Z</time></trkpt>
<trkpt lat="31.8275932" lon="34.7002163"><ele>46.2</ele><time>2014-11-08T04:55:28Z</time></trkpt>
<trkpt lat="31.8273923" lon="34.6999979"><ele>46.5</ele><time>2014-11-08T04:55:31Z</time></trkpt>
<trkpt lat="31.8269758" lon="34.6996817"><ele>47.1</ele><time>2014-11-08T04:55:38Z</time></trkpt>
<trkpt lat="31.8265504" lon="34.6993868"><ele>47.8</ele><time>2014-11-08T04:55:46Z</time></trkpt>
<trkpt lat="31.8261217" lon="34.6991391"><ele>48.4</ele><time>2014-11-08T04:55:52Z</time></trkpt>
<trkpt lat="31.8256923" lon="34.6989493"><ele>49.0</ele><time>2014-11-08T04:55:59Z</time></trkpt>
<trkpt lat="31.8252312" lon="34.6987638"><ele>48.3</ele><time>2014-11-08T04:56:06Z</time></trkpt>
<trkpt lat="31.8250842" lon="34.6987136"><ele>48.1</ele><time>2014-11-08T04:56:08Z</time></trkpt>
<trkpt lat="31.8250212" lon="34.6987190"><ele>48.0</ele><time>2014-11-08T04:56:09Z</time></trkpt>
<trkpt lat="31.8245747" lon="34.6985698"><ele>46.8</ele><time>2014-11-08T04:56:15Z</time></trkpt>
<trkpt lat="31.8240722" lon="34.6985030"><ele>45.8</ele><time>2014-11-08T04:56:22Z</time></trkpt>
<trkpt lat="31.8235730" lon="34.6984494"><ele>45.2</ele><time>2014-11-08T04:56:29Z</time></trkpt>
<trkpt lat="31.8230732" lon="34.6984127"><ele>43.0</ele><time>2014-11-08T04:56:35Z</time></trkpt>
<trkpt lat="31.8225747" lon="34.6984051"><ele>41.6</ele><time>2014-11-08T04:56:41Z</time></trkpt>
<trkpt lat="31.8220496" lon="34.6983781"><ele>41.0</ele><time>2014-11-08T04:56:47Z</time></trkpt>
<trkpt lat="31.8218613" lon="34.6983846"><ele>40.6</ele><time>2014-11-08T04:56:49Z</time></trkpt>
<trkpt lat="31.8217880" lon="34.6984196"><ele>40.4</ele><time>2014-11-08T04:56:50Z</time></trkpt>
<trkpt lat="31.8215553" lon="34.6984158"><ele>39.8</ele><time>2014-11-08T04:56:53Z</time></trkpt>
<trkpt lat="31.8210859" lon="34.6984683"><ele>38.6</ele><time>2014-11-08T04:56:58Z</time></trkpt>
<trkpt lat="31.8206329" lon="34.6984871"><ele>37.0</ele><time>2014-11-08T04:57:03Z</time></trkpt>
<trkpt lat="31.8201671" lon="34.6984887"><ele>37.0</ele><time>2014-11-08T04:57:08Z</time></trkpt>
<trkpt lat="31.8197889" lon="34.6984746"><ele>40.9</ele><time>2014-11-08T04:57:15Z</time></trkpt>
<trkpt lat="31.8197454" lon="34.6984995"><ele>41.4</ele><time>2014-11-08T04:57:16Z</time></trkpt>
<trkpt lat="31.8193662" lon="34.6984772"><ele>47.0</ele><time>2014-11-08T04:57:23Z</time></trkpt>
<trkpt lat="31.8193075" lon="34.6984931"><ele>48.0</ele><time>2014-11-08T04:57:24Z</time></trkpt>
<trkpt lat="31.8190474" lon="34.6984737"><ele>48.7</ele><time>2014-11-08T04:57:28Z</time></trkpt>
<trkpt lat="31.8187480" lon="34.6985275"><ele>49.5</ele><time>2014-11-08T04:57:33Z</time></trkpt>
<trkpt lat="31.8182675" lon="34.6985361"><ele>48.8</ele><time>2014-11-08T04:57:39Z</time></trkpt>
<trkpt lat="31.8178071" lon="34.6985320"><ele>46.2</ele><time>2014-11-08T04:57:46Z</time></trkpt>
<trkpt lat="31.8172920" lon="34.6985479"><ele>44.3</ele><time>2014-11-08T04:57:54Z</time></trkpt>
<trkpt lat="31.8167996" lon="34.6986004"><ele>47.4</ele><time>2014-11-08T04:58:02Z</time></trkpt>
<trkpt lat="31.8163194" lon="34.6985822"><ele>49.8</ele><time>2014-11-08T04:58:10Z</time></trkpt>
<trkpt lat="31.8158119" lon="34.6986387"><ele>51.0</ele><time>2014-11-08T04:58:18Z</time></trkpt>
<trkpt lat="31.8153147" lon="34.6986455"><ele>54.0</ele><time>2014-11-08T04:58:26Z</time></trkpt>
<trkpt lat="31.8150265" lon="34.6986402"><ele>53.0</ele><time>2014-11-08T04:58:31Z</time></trkpt>
<trkpt lat="31.8145652" lon="34.6985944"><ele>50.8</ele><time>2014-11-08T04:58:37Z</time></trkpt>
<trkpt lat="31.8140654" lon="34.6985413"><ele>49.6</ele><time>2014-11-08T04:58:46Z</time></trkpt>
<trkpt lat="31.8136142" lon="34.6984306"><ele>48.8</ele><time>2014-11-08T04:58:52Z</time></trkpt>
<trkpt lat="31.8131295" lon="34.6982923"><ele>48.0</ele><time>2014-11-08T04:58:59Z</time></trkpt>
<trkpt lat="31.8127551" lon="34.6982233"><ele>47.0</ele><time>2014-11-08T04:59:05Z</time></trkpt>
<trkpt lat="31.8122731" lon="34.6979897"><ele>46.2</ele><time>2014-11-08T04:59:11Z</time></trkpt>
<trkpt lat="31.8118391" lon="34.6977869"><ele>45.2</ele><time>2014-11-08T04:59:18Z</time></trkpt>
<trkpt lat="31.8113859" lon="34.6975258"><ele>44.0</ele><time>2014-11-08T04:59:25Z</time></trkpt>
<trkpt lat="31.8109499" lon="34.6972379"><ele>43.6</ele><time>2014-11-08T04:59:32Z</time></trkpt>
<trkpt lat="31.8105380" lon="34.6969390"><ele>41.5</ele><time>2014-11-08T04:59:39Z</time></trkpt>
<trkpt lat="31.8101183" lon="34.6966093"><ele>41.7</ele><time>2014-11-08T04:59:46Z</time></trkpt>
<trkpt lat="31.8096743" lon="34.6962805"><ele>39.9</ele><time>2014-11-08T04:59:53Z</time></trkpt>
<trkpt lat="31.8092318" lon="34.6959441"><ele>37.5</ele><time>2014-11-08T05:00:00Z</time></trkpt>
<trkpt lat="31.8088357" lon="34.6956735"><ele>35.8</ele><time>2014-11-08T05:00:06Z</time></trkpt>
<trkpt lat="31.8085741" lon="34.6954757"><ele>35.4</ele><time>2014-11-08T05:00:10Z</time></trkpt>
<trkpt lat="31.8081551" lon="34.6951283"><ele>38.0</ele><time>2014-11-08T05:00:17Z</time></trkpt>
<trkpt lat="31.8077784" lon="34.6948215"><ele>39.9</ele><time>2014-11-08T05:00:26Z</time></trkpt>
<trkpt lat="31.8073681" lon="34.6945128"><ele>41.2</ele><time>2014-11-08T05:00:32Z</time></trkpt>
<trkpt lat="31.8069534" lon="34.6941791"><ele>42.4</ele><time>2014-11-08T05:00:39Z</time></trkpt>
<trkpt lat="31.8065559" lon="34.6938613"><ele>42.3</ele><time>2014-11-08T05:00:46Z</time></trkpt>
<trkpt lat="31.8061328" lon="34.6935332"><ele>41.7</ele><time>2014-11-08T05:00:53Z</time></trkpt>
<trkpt lat="31.8057082" lon="34.6932265"><ele>41.4</ele><time>2014-11-08T05:01:00Z</time></trkpt>
<trkpt lat="31.8052779" lon="34.6929088"><ele>41.0</ele><time>2014-11-08T05:01:07Z</time></trkpt>
<trkpt lat="31.8048676" lon="34.6926013"><ele>40.7</ele><time>2014-11-08T05:01:15Z</time></trkpt>
<trkpt lat="31.8044306" lon="34.6922957"><ele>40.3</ele><time>2014-11-08T05:01:21Z</time></trkpt>
<trkpt lat="31.8040097" lon="34.6920021"><ele>39.7</ele><time>2014-11-08T05:01:28Z</time></trkpt>
<trkpt lat="31.8036074" lon="34.6917198"><ele>38.8</ele><time>2014-11-08T05:01:35Z</time></trkpt>
<trkpt lat="31.8032140" lon="34.6914237"><ele>41.6</ele><time>2014-11-08T05:01:42Z</time></trkpt>
<trkpt lat="31.8028279" lon="34.6911141"><ele>42.0</ele><time>2014-11-08T05:01:49Z</time></trkpt>
<trkpt lat="31.8024109" lon="34.6908284"><ele>45.4</ele><time>2014-11-08T05:01:56Z</time></trkpt>
<trkpt lat="31.8019882" lon="34.6905504"><ele>46.6</ele><time>2014-11-08T05:02:03Z</time></trkpt>
<trkpt lat="31.8015833" lon="34.6902852"><ele>48.2</ele><time>2014-11-08T05:02:10Z</time></trkpt>
<trkpt lat="31.8011752" lon="34.6900175"><ele>50.0</ele><time>2014-11-08T05:02:17Z</time></trkpt>
<trkpt lat="31.8007577" lon="34.6896807"><ele>48.6</ele><time>2014-11-08T05:02:24Z</time></trkpt>
<trkpt lat="31.8005053" lon="34.6895163"><ele>48.0</ele><time>2014-11-08T05:02:28Z</time></trkpt>
<trkpt lat="31.8001121" lon="34.6892127"><ele>48.1</ele><time>2014-11-08T05:02:35Z</time></trkpt>
<trkpt lat="31.7996863" lon="34.6888765"><ele>48.3</ele><time>2014-11-08T05:02:42Z</time></trkpt>
<trkpt lat="31.7992684" lon="34.6885467"><ele>48.5</ele><time>2014-11-08T05:02:49Z</time></trkpt>
<trkpt lat="31.7988632" lon="34.6882495"><ele>48.7</ele><time>2014-11-08T05:02:57Z</time></trkpt>
<trkpt lat="31.7984883" lon="34.6879486"><ele>48.9</ele><time>2014-11-08T05:03:03Z</time></trkpt>
<trkpt lat="31.7983285" lon="34.6878604"><ele>49.0</ele><time>2014-11-08T05:03:05Z</time></trkpt>
<trkpt lat="31.7979209" lon="34.6875262"><ele>49.7</ele><time>2014-11-08T05:03:12Z</time></trkpt>
<trkpt lat="31.7976369" lon="34.6873278"><ele>49.7</ele><time>2014-11-08T05:03:17Z</time></trkpt>
<trkpt lat="31.7975336" lon="34.6872088"><ele>49.3</ele><time>2014-11-08T05:03:19Z</time></trkpt>
<trkpt lat="31.7970938" lon="34.6868987"><ele>46.0</ele><time>2014-11-08T05:03:26Z</time></trkpt>
<trkpt lat="31.7966766" lon="34.6865509"><ele>47.6</ele><time>2014-11-08T05:03:33Z</time></trkpt>
<trkpt lat="31.7964487" lon="34.6863827"><ele>45.8</ele><time>2014-11-08T05:03:38Z</time></trkpt>
<trkpt lat="31.7963651" lon="34.6862786"><ele>45.4</ele><time>2014-11-08T05:03:39Z</time></trkpt>
<trkpt lat="31.7963152" lon="34.6862832"><ele>45.1</ele><time>2014-11-08T05:03:40Z</time></trkpt>
<trkpt lat="31.7959071" lon="34.6859231"><ele>43.6</ele><time>2014-11-08T05:03:47Z</time></trkpt>
<trkpt lat="31.7957949" lon="34.6858264"><ele>43.4</ele><time>2014-11-08T05:03:49Z</time></trkpt>
<trkpt lat="31.7957525" lon="34.6857102"><ele>43.3</ele><time>2014-11-08T05:03:50Z</time></trkpt>
<trkpt lat="31.7954473" lon="34.6854449"><ele>42.5</ele><time>2014-11-08T05:03:57Z</time></trkpt>
<trkpt lat="31.7951108" lon="34.6850304"><ele>41.3</ele><time>2014-11-08T05:04:03Z</time></trkpt>
<trkpt lat="31.7947902" lon="34.6846377"><ele>41.0</ele><time>2014-11-08T05:04:10Z</time></trkpt>
<trkpt lat="31.7944695" lon="34.6842090"><ele>38.9</ele><time>2014-11-08T05:04:17Z</time></trkpt>
<trkpt lat="31.7941701" lon="34.6837997"><ele>37.6</ele><time>2014-11-08T05:04:23Z</time></trkpt>
<trkpt lat="31.7938827" lon="34.6833783"><ele>35.9</ele><time>2014-11-08T05:04:29Z</time></trkpt>
<trkpt lat="31.7936233" lon="34.6830499"><ele>35.4</ele><time>2014-11-08T05:04:35Z</time></trkpt>
<trkpt lat="31.7935030" lon="34.6829460"><ele>35.2</ele><time>2014-11-08T05:04:37Z</time></trkpt>
<trkpt lat="31.7934004" lon="34.6827751"><ele>35.0</ele><time>2014-11-08T05:04:39Z</time></trkpt>
<trkpt lat="31.7934772" lon="34.6826902"><ele>35.1</ele><time>2014-11-08T05:04:40Z</time></trkpt>
<trkpt lat="31.7934141" lon="34.6825350"><ele>35.2</ele><time>2014-11-08T05:04:42Z</time></trkpt>
<trkpt lat="31.7930757" lon="34.6821842"><ele>35.5</ele><time>2014-11-08T05:04:48Z</time></trkpt>
<trkpt lat="31.7929844" lon="34.6821596"><ele>35.6</ele><time>2014-11-08T05:04:49Z</time></trkpt>
<trkpt lat="31.7928564" lon="34.6819841"><ele>35.8</ele><time>2014-11-08T05:04:52Z</time></trkpt>
<trkpt lat="31.7927652" lon="34.6818116"><ele>35.9</ele><time>2014-11-08T05:04:54Z</time></trkpt>
<trkpt lat="31.7924034" lon="34.6814095"><ele>36.3</ele><time>2014-11-08T05:05:01Z</time></trkpt>
<trkpt lat="31.7922661" lon="34.6811795"><ele>36.5</ele><time>2014-11-08T05:05:05Z</time></trkpt>
<trkpt lat="31.7919361" lon="34.6808045"><ele>36.9</ele><time>2014-11-08T05:05:12Z</time></trkpt>
<trkpt lat="31.7917030" lon="34.6804529"><ele>41.1</ele><time>2014-11-08T05:05:18Z</time></trkpt>
<trkpt lat="31.7916852" lon="34.6804877"><ele>42.0</ele><time>2014-11-08T05:05:19Z</time></trkpt>
<trkpt lat="31.7913376" lon="34.6801258"><ele>42.0</ele><time>2014-11-08T05:05:26Z</time></trkpt>
<trkpt lat="31.7912897" lon="34.6800660"><ele>42.0</ele><time>2014-11-08T05:05:27Z</time></trkpt>
<trkpt lat="31.7912107" lon="34.6800345"><ele>42.0</ele><time>2014-11-08T05:05:27Z</time></trkpt>
<trkpt lat="31.7908170" lon="34.6796324"><ele>41.2</ele><time>2014-11-08T05:05:35Z</time></trkpt>
<trkpt lat="31.7905119" lon="34.6793456"><ele>40.1</ele><time>2014-11-08T05:05:40Z</time></trkpt>
<trkpt lat="31.7904674" lon="34.6792711"><ele>39.9</ele><time>2014-11-08T05:05:41Z</time></trkpt>
<trkpt lat="31.7900822" lon="34.6789194"><ele>37.0</ele><time>2014-11-08T05:05:48Z</time></trkpt>
<trkpt lat="31.7900253" lon="34.6788466"><ele>36.1</ele><time>2014-11-08T05:05:49Z</time></trkpt>
<trkpt lat="31.7899049" lon="34.6787571"><ele>34.1</ele><time>2014-11-08T05:05:51Z</time></trkpt>
<trkpt lat="31.7895155" lon="34.6783527"><ele>32.5</ele><time>2014-11-08T05:05:58Z</time></trkpt>
<trkpt lat="31.7891509" lon="34.6780330"><ele>32.5</ele><time>2014-11-08T05:06:05Z</time></trkpt>
<trkpt lat="31.7887677" lon="34.6776758"><ele>34.4</ele><time>2014-11-08T05:06:12Z</time></trkpt>
<trkpt lat="31.7885921" lon="34.6775606"><ele>34.6</ele><time>2014-11-08T05:06:16Z</time></trkpt>
<trkpt lat="31.7882048" lon="34.6771544"><ele>32.4</ele><time>2014-11-08T05:06:22Z</time></trkpt>
<trkpt lat="31.7878236" lon="34.6768106"><ele>29.7</ele><time>2014-11-08T05:06:29Z</time></trkpt>
<trkpt lat="31.7874382" lon="34.6764401"><ele>26.5</ele><time>2014-11-08T05:06:36Z</time></trkpt>
<trkpt lat="31.7870477" lon="34.6760628"><ele>25.5</ele><time>2014-11-08T05:06:43Z</time></trkpt>
<trkpt lat="31.7866539" lon="34.6757364"><ele>25.9</ele><time>2014-11-08T05:06:50Z</time></trkpt>
<trkpt lat="31.7862610" lon="34.6753932"><ele>28.5</ele><time>2014-11-08T05:06:58Z</time></trkpt>
<trkpt lat="31.7858749" lon="34.6750387"><ele>29.8</ele><time>2014-11-08T05:07:04Z</time></trkpt>
<trkpt lat="31.7854923" lon="34.6746650"><ele>31.0</ele><time>2014-11-08T05:07:11Z</time></trkpt>
<trkpt lat="31.7851275" lon="34.6742777"><ele>29.5</ele><time>2014-11-08T05:07:18Z</time></trkpt>
<trkpt lat="31.7848130" lon="34.6738727"><ele>27.5</ele><time>2014-11-08T05:07:25Z</time></trkpt>
<trkpt lat="31.7844649" lon="34.6734450"><ele>24.5</ele><time>2014-11-08T05:07:32Z</time></trkpt>
<trkpt lat="31.7841616" lon="34.6730327"><ele>22.8</ele><time>2014-11-08T05:07:40Z</time></trkpt>
<trkpt lat="31.7838198" lon="34.6726025"><ele>17.0</ele><time>2014-11-08T05:07:47Z</time></trkpt>
<trkpt lat="31.7834801" lon="34.6721689"><ele>18.3</ele><time>2014-11-08T05:07:53Z</time></trkpt>
<trkpt lat="31.7832777" lon="34.6719618"><ele>19.9</ele><time>2014-11-08T05:07:57Z</time></trkpt>
<trkpt lat="31.7829807" lon="34.6715400"><ele>22.3</ele><time>2014-11-08T05:08:04Z</time></trkpt>
<trkpt lat="31.7826639" lon="34.6711416"><ele>22.8</ele><time>2014-11-08T05:08:11Z</time></trkpt>
<trkpt lat="31.7824882" lon="34.6709557"><ele>23.8</ele><time>2014-11-08T05:08:15Z</time></trkpt>
<trkpt lat="31.7824600" lon="34.6708982"><ele>24.2</ele><time>2014-11-08T05:08:16Z</time></trkpt>
<trkpt lat="31.7821007" lon="34.6705402"><ele>25.8</ele><time>2014-11-08T05:08:22Z</time></trkpt>
<trkpt lat="31.7818155" lon="34.6702658"><ele>25.2</ele><time>2014-11-08T05:08:28Z</time></trkpt>
<trkpt lat="31.7817370" lon="34.6702180"><ele>25.0</ele><time>2014-11-08T05:08:29Z</time></trkpt>
<trkpt lat="31.7816184" lon="34.6700539"><ele>25.3</ele><time>2014-11-08T05:08:31Z</time></trkpt>
<trkpt lat="31.7812307" lon="34.6696757"><ele>25.9</ele><time>2014-11-08T05:08:38Z</time></trkpt>
<trkpt lat="31.7808573" lon="34.6693617"><ele>26.5</ele><time>2014-11-08T05:08:46Z</time></trkpt>
<trkpt lat="31.7804592" lon="34.6690615"><ele>27.2</ele><time>2014-11-08T05:08:52Z</time></trkpt>
<trkpt lat="31.7802209" lon="34.6689203"><ele>28.0</ele><time>2014-11-08T05:08:56Z</time></trkpt>
<trkpt lat="31.7798185" lon="34.6686289"><ele>28.0</ele><time>2014-11-08T05:09:03Z</time></trkpt>
<trkpt lat="31.7793567" lon="34.6683693"><ele>29.0</ele><time>2014-11-08T05:09:10Z</time></trkpt>
<trkpt lat="31.7789205" lon="34.6681521"><ele>31.5</ele><time>2014-11-08T05:09:18Z</time></trkpt>
<trkpt lat="31.7786677" lon="34.6680082"><ele>32.8</ele><time>2014-11-08T05:09:21Z</time></trkpt>
<trkpt lat="31.7786425" lon="34.6680291"><ele>33.6</ele><time>2014-11-08T05:09:22Z</time></trkpt>
<trkpt lat="31.7781647" lon="34.6678759"><ele>34.1</ele><time>2014-11-08T05:09:29Z</time></trkpt>
<trkpt lat="31.7776871" lon="34.6677064"><ele>32.0</ele><time>2014-11-08T05:09:37Z</time></trkpt>
<trkpt lat="31.7773258" lon="34.6676077"><ele>31.2</ele><time>2014-11-08T05:09:41Z</time></trkpt>
<trkpt lat="31.7772408" lon="34.6676142"><ele>31.0</ele><time>2014-11-08T05:09:42Z</time></trkpt>
<trkpt lat="31.7769209" lon="34.6675198"><ele>30.2</ele><time>2014-11-08T05:09:47Z</time></trkpt>
<trkpt lat="31.7764296" lon="34.6674595"><ele>30.9</ele><time>2014-11-08T05:09:54Z</time></trkpt>
<trkpt lat="31.7760223" lon="34.6674083"><ele>30.5</ele><time>2014-11-08T05:09:59Z</time></trkpt>
<trkpt lat="31.7758176" lon="34.6674266"><ele>30.2</ele><time>2014-11-08T05:10:02Z</time></trkpt>
<trkpt lat="31.7757595" lon="34.6674760"><ele>30.0</ele><time>2014-11-08T05:10:05Z</time></trkpt>
<trkpt lat="31.7752911" lon="34.6674105"><ele>29.4</ele><time>2014-11-08T05:10:11Z</time></trkpt>
<trkpt lat="31.7747818" lon="34.6673955"><ele>29.7</ele><time>2014-11-08T05:10:18Z</time></trkpt>
<trkpt lat="31.7743007" lon="34.6674032"><ele>29.2</ele><time>2014-11-08T05:10:24Z</time></trkpt>
<trkpt lat="31.7738414" lon="34.6673834"><ele>27.3</ele><time>2014-11-08T05:10:30Z</time></trkpt>
<trkpt lat="31.7737733" lon="34.6674052"><ele>27.2</ele><time>2014-11-08T05:10:31Z</time></trkpt>
<trkpt lat="31.7733006" lon="34.6673859"><ele>22.2</ele><time>2014-11-08T05:10:38Z</time></trkpt>
<trkpt lat="31.7728102" lon="34.6673802"><ele>17.8</ele><time>2014-11-08T05:10:45Z</time></trkpt>
<trkpt lat="31.7723254" lon="34.6673664"><ele>17.2</ele><time>2014-11-08T05:10:52Z</time></trkpt>
<trkpt lat="31.7718535" lon="34.6673498"><ele>18.2</ele><time>2014-11-08T05:10:59Z</time></trkpt>
<trkpt lat="31.7713749" lon="34.6673779"><ele>20.1</ele><time>2014-11-08T05:11:08Z</time></trkpt>
<trkpt lat="31.7709052" lon="34.6673678"><ele>20.2</ele><time>2014-11-08T05:11:13Z</time></trkpt>
<trkpt lat="31.7703781" lon="34.6673633"><ele>19.0</ele><time>2014-11-08T05:11:21Z</time></trkpt>
<trkpt lat="31.7698751" lon="34.6673767"><ele>20.0</ele><time>2014-11-08T05:11:28Z</time></trkpt>
<trkpt lat="31.7693905" lon="34.6673803"><ele>20.8</ele><time>2014-11-08T05:11:35Z</time></trkpt>
<trkpt lat="31.7688939" lon="34.6673571"><ele>23.3</ele><time>2014-11-08T05:11:42Z</time></trkpt>
<trkpt lat="31.7683960" lon="34.6673663"><ele>22.0</ele><time>2014-11-08T05:11:50Z</time></trkpt>
<trkpt lat="31.7679122" lon="34.6673550"><ele>21.8</ele><time>2014-11-08T05:11:57Z</time></trkpt>
<trkpt lat="31.7674979" lon="34.6673307"><ele>20.9</ele><time>2014-11-08T05:12:02Z</time></trkpt>
<trkpt lat="31.7670216" lon="34.6673363"><ele>20.3</ele><time>2014-11-08T05:12:09Z</time></trkpt>
<trkpt lat="31.7667325" lon="34.6673653"><ele>20.2</ele><time>2014-11-08T05:12:13Z</time></trkpt>
<trkpt lat="31.7662137" lon="34.6673597"><ele>20.8</ele><time>2014-11-08T05:12:20Z</time></trkpt>
<trkpt lat="31.7657265" lon="34.6673486"><ele>20.3</ele><time>2014-11-08T05:12:27Z</time></trkpt>
<trkpt lat="31.7652096" lon="34.6673231"><ele>19.8</ele><time>2014-11-08T05:12:34Z</time></trkpt>
<trkpt lat="31.7651240" lon="34.6673157"><ele>19.7</ele><time>2014-11-08T05:12:36Z</time></trkpt>
<trkpt lat="31.7650775" lon="34.6673589"><ele>19.6</ele><time>2014-11-08T05:12:37Z</time></trkpt>
<trkpt lat="31.7645907" lon="34.6673597"><ele>19.2</ele><time>2014-11-08T05:12:43Z</time></trkpt>
<trkpt lat="31.7640730" lon="34.6673567"><ele>18.2</ele><time>2014-11-08T05:12:50Z</time></trkpt>
<trkpt lat="31.7635890" lon="34.6673215"><ele>18.5</ele><time>2014-11-08T05:12:57Z</time></trkpt>
<trkpt lat="31.7631311" lon="34.6673232"><ele>19.2</ele><time>2014-11-08T05:13:04Z</time></trkpt>
<trkpt lat="31.7629240" lon="34.6673015"><ele>19.5</ele><time>2014-11-08T05:13:07Z</time></trkpt>
<trkpt lat="31.7624494" lon="34.6673022"><ele>20.0</ele><time>2014-11-08T05:13:14Z</time></trkpt>
<trkpt lat="31.7623789" lon="34.6672962"><ele>20.0</ele><time>2014-11-08T05:13:15Z</time></trkpt>
<trkpt lat="31.7622435" lon="34.6672333"><ele>20.0</ele><time>2014-11-08T05:13:18Z</time></trkpt>
<trkpt lat="31.7617227" lon="34.6671644"><ele>22.0</ele><time>2014-11-08T05:13:26Z</time></trkpt>
<trkpt lat="31.7616610" lon="34.6671753"><ele>22.0</ele><time>2014-11-08T05:13:27Z</time></trkpt>
<trkpt lat="31.7612018" lon="34.6670910"><ele>22.0</ele><time>2014-11-08T05:13:33Z</time></trkpt>
<trkpt lat="31.7607421" lon="34.6669407"><ele>23.3</ele><time>2014-11-08T05:13:40Z</time></trkpt>
<trkpt lat="31.7602634" lon="34.6668083"><ele>26.0</ele><time>2014-11-08T05:13:47Z</time></trkpt>
<trkpt lat="31.7598140" lon="34.6666842"><ele>24.6</ele><time>2014-11-08T05:13:54Z</time></trkpt>
<trkpt lat="31.7595370" lon="34.6665960"><ele>25.2</ele><time>2014-11-08T05:13:58Z</time></trkpt>
<trkpt lat="31.7595220" lon="34.6666242"><ele>26.4</ele><time>2014-11-08T05:13:59Z</time></trkpt>
<trkpt lat="31.7593541" lon="34.6665645"><ele>29.8</ele><time>2014-11-08T05:14:02Z</time></trkpt>
<trkpt lat="31.7592459" lon="34.6664860"><ele>31.2</ele><time>2014-11-08T05:14:04Z</time></trkpt>
<trkpt lat="31.7589204" lon="34.6664545"><ele>31.9</ele><time>2014-11-08T05:14:09Z</time></trkpt>
<trkpt lat="31.7587186" lon="34.6663695"><ele>32.4</ele><time>2014-11-08T05:14:11Z</time></trkpt>
<trkpt lat="31.7586440" lon="34.6663664"><ele>32.6</ele><time>2014-11-08T05:14:12Z</time></trkpt>
<trkpt lat="31.7586181" lon="34.6663903"><ele>32.8</ele><time>2014-11-08T05:14:13Z</time></trkpt>
<trkpt lat="31.7581817" lon="34.6662412"><ele>31.3</ele><time>2014-11-08T05:14:19Z</time></trkpt>
<trkpt lat="31.7578201" lon="34.6660995"><ele>31.7</ele><time>2014-11-08T05:14:24Z</time></trkpt>
<trkpt lat="31.7573904" lon="34.6658968"><ele>35.0</ele><time>2014-11-08T05:14:31Z</time></trkpt>
<trkpt lat="31.7569416" lon="34.6656220"><ele>32.0</ele><time>2014-11-08T05:14:38Z</time></trkpt>
<trkpt lat="31.7567666" lon="34.6655160"><ele>32.0</ele><time>2014-11-08T05:14:41Z</time></trkpt>
<trkpt lat="31.7564393" lon="34.6652032"><ele>32.0</ele><time>2014-11-08T05:14:47Z</time></trkpt>
<trkpt lat="31.7564008" lon="34.6651980"><ele>31.7</ele><time>2014-11-08T05:14:48Z</time></trkpt>
<trkpt lat="31.7559652" lon="34.6648753"><ele>29.8</ele><time>2014-11-08T05:14:56Z</time></trkpt>
<trkpt lat="31.7555552" lon="34.6645540"><ele>29.0</ele><time>2014-11-08T05:15:02Z</time></trkpt>
<trkpt lat="31.7551376" lon="34.6642245"><ele>29.0</ele><time>2014-11-08T05:15:10Z</time></trkpt>
<trkpt lat="31.7547290" lon="34.6639165"><ele>29.6</ele><time>2014-11-08T05:15:16Z</time></trkpt>
<trkpt lat="31.7546614" lon="34.6638855"><ele>29.7</ele><time>2014-11-08T05:15:17Z</time></trkpt>
<trkpt lat="31.7542482" lon="34.6635201"><ele>30.4</ele><time>2014-11-08T05:15:24Z</time></trkpt>
<trkpt lat="31.7538506" lon="34.6631701"><ele>31.0</ele><time>2014-11-08T05:15:31Z</time></trkpt>
<trkpt lat="31.7535063" lon="34.6629304"><ele>32.5</ele><time>2014-11-08T05:15:37Z</time></trkpt>
<trkpt lat="31.7534074" lon="34.6628085"><ele>33.6</ele><time>2014-11-08T05:15:39Z</time></trkpt>
<trkpt lat="31.7533332" lon="34.6628031"><ele>34.0</ele><time>2014-11-08T05:15:40Z</time></trkpt>
<trkpt lat="31.7529544" lon="34.6624814"><ele>36.4</ele><time>2014-11-08T05:15:48Z</time></trkpt>
<trkpt lat="31.7525697" lon="34.6620919"><ele>38.0</ele><time>2014-11-08T05:15:54Z</time></trkpt>
<trkpt lat="31.7522489" lon="34.6616893"><ele>38.5</ele><time>2014-11-08T05:16:01Z</time></trkpt>
<trkpt lat="31.7521333" lon="34.6615212"><ele>39.0</ele><time>2014-11-08T05:16:04Z</time></trkpt>
<trkpt lat="31.7518715" lon="34.6610004"><ele>37.6</ele><time>2014-11-08T05:16:11Z</time></trkpt>
<trkpt lat="31.7518705" lon="34.6609224"><ele>37.4</ele><time>2014-11-08T05:16:12Z</time></trkpt>
<trkpt lat="31.7516696" lon="34.6604104"><ele>36.0</ele><time>2014-11-08T05:16:19Z</time></trkpt>
<trkpt lat="31.7514710" lon="34.6600248"><ele>33.5</ele><time>2014-11-08T05:16:24Z</time></trkpt>
<trkpt lat="31.7514955" lon="34.6599371"><ele>33.0</ele><time>2014-11-08T05:16:25Z</time></trkpt>
<trkpt lat="31.7513978" lon="34.6593522"><ele>31.7</ele><time>2014-11-08T05:16:32Z</time></trkpt>
<trkpt lat="31.7513805" lon="34.6590984"><ele>30.7</ele><time>2014-11-08T05:16:35Z</time></trkpt>
<trkpt lat="31.7513949" lon="34.6587227"><ele>30.0</ele><time>2014-11-08T05:16:41Z</time></trkpt>
<trkpt lat="31.7513341" lon="34.6585672"><ele>30.0</ele><time>2014-11-08T05:16:42Z</time></trkpt>
<trkpt lat="31.7512958" lon="34.6579640"><ele>31.2</ele><time>2014-11-08T05:16:50Z</time></trkpt>
<trkpt lat="31.7513128" lon="34.6575796"><ele>31.4</ele><time>2014-11-08T05:16:55Z</time></trkpt>
<trkpt lat="31.7512976" lon="34.6573176"><ele>30.2</ele><time>2014-11-08T05:16:57Z</time></trkpt>
<trkpt lat="31.7512714" lon="34.6572321"><ele>29.6</ele><time>2014-11-08T05:16:58Z</time></trkpt>
<trkpt lat="31.7512861" lon="34.6567674"><ele>26.7</ele><time>2014-11-08T05:17:04Z</time></trkpt>
<trkpt lat="31.7512339" lon="34.6561923"><ele>24.6</ele><time>2014-11-08T05:17:11Z</time></trkpt>
<trkpt lat="31.7512475" lon="34.6556592"><ele>27.3</ele><time>2014-11-08T05:17:18Z</time></trkpt>
<trkpt lat="31.7512559" lon="34.6555050"><ele>27.7</ele><time>2014-11-08T05:17:20Z</time></trkpt>
<trkpt lat="31.7512250" lon="34.6554401"><ele>27.8</ele><time>2014-11-08T05:17:21Z</time></trkpt>
<trkpt lat="31.7512238" lon="34.6552294"><ele>28.0</ele><time>2014-11-08T05:17:23Z</time></trkpt>
<trkpt lat="31.7511393" lon="34.6550590"><ele>28.0</ele><time>2014-11-08T05:17:25Z</time></trkpt>
<trkpt lat="31.7511359" lon="34.6549790"><ele>28.0</ele><time>2014-11-08T05:17:26Z</time></trkpt>
<trkpt lat="31.7510549" lon="34.6546962"><ele>27.4</ele><time>2014-11-08T05:17:30Z</time></trkpt>
<trkpt lat="31.7510661" lon="34.6545830"><ele>27.1</ele><time>2014-11-08T05:17:31Z</time></trkpt>
<trkpt lat="31.7509294" lon="34.6540137"><ele>26.4</ele><time>2014-11-08T05:17:39Z</time></trkpt>
<trkpt lat="31.7508674" lon="34.6538547"><ele>27.0</ele><time>2014-11-08T05:17:40Z</time></trkpt>
<trkpt lat="31.7507340" lon="34.6533708"><ele>28.8</ele><time>2014-11-08T05:17:47Z</time></trkpt>
<trkpt lat="31.7505048" lon="34.6528547"><ele>29.0</ele><time>2014-11-08T05:17:54Z</time></trkpt>
<trkpt lat="31.7503840" lon="34.6525048"><ele>31.0</ele><time>2014-11-08T05:17:59Z</time></trkpt>
<trkpt lat="31.7502693" lon="34.6521993"><ele>32.3</ele><time>2014-11-08T05:18:03Z</time></trkpt>
<trkpt lat="31.7502157" lon="34.6521364"><ele>32.7</ele><time>2014-11-08T05:18:04Z</time></trkpt>
<trkpt lat="31.7502204" lon="34.6521017"><ele>33.0</ele><time>2014-11-08T05:18:05Z</time></trkpt>
<trkpt lat="31.7500951" lon="34.6518787"><ele>32.5</ele><time>2014-11-08T05:18:08Z</time></trkpt>
<trkpt lat="31.7497874" lon="34.6514265"><ele>34.4</ele><time>2014-11-08T05:18:15Z</time></trkpt>
<trkpt lat="31.7494456" lon="34.6509880"><ele>34.0</ele><time>2014-11-08T05:18:22Z</time></trkpt>
<trkpt lat="31.7491339" lon="34.6505728"><ele>34.8</ele><time>2014-11-08T05:18:30Z</time></trkpt>
<trkpt lat="31.7487752" lon="34.6502098"><ele>37.5</ele><time>2014-11-08T05:18:35Z</time></trkpt>
<trkpt lat="31.7486416" lon="34.6500255"><ele>38.2</ele><time>2014-11-08T05:18:39Z</time></trkpt>
<trkpt lat="31.7482771" lon="34.6497040"><ele>38.4</ele><time>2014-11-08T05:18:45Z</time></trkpt>
<trkpt lat="31.7480463" lon="34.6495344"><ele>36.0</ele><time>2014-11-08T05:18:49Z</time></trkpt>
<trkpt lat="31.7476283" lon="34.6492217"><ele>39.4</ele><time>2014-11-08T05:18:56Z</time></trkpt>
<trkpt lat="31.7471898" lon="34.6489556"><ele>41.0</ele><time>2014-11-08T05:19:04Z</time></trkpt>
<trkpt lat="31.7467227" lon="34.6486796"><ele>40.2</ele><time>2014-11-08T05:19:11Z</time></trkpt>
<trkpt lat="31.7463112" lon="34.6484758"><ele>37.5</ele><time>2014-11-08T05:19:17Z</time></trkpt>
<trkpt lat="31.7459070" lon="34.6481918"><ele>38.2</ele><time>2014-11-08T05:19:24Z</time></trkpt>
<trkpt lat="31.7454809" lon="34.6479315"><ele>40.0</ele><time>2014-11-08T05:19:31Z</time></trkpt>
<trkpt lat="31.7450550" lon="34.6477116"><ele>38.6</ele><time>2014-11-08T05:19:38Z</time></trkpt>
<trkpt lat="31.7446361" lon="34.6474649"><ele>38.0</ele><time>2014-11-08T05:19:45Z</time></trkpt>
<trkpt lat="31.7441726" lon="34.6472017"><ele>37.9</ele><time>2014-11-08T05:19:52Z</time></trkpt>
<trkpt lat="31.7437612" lon="34.6469484"><ele>40.0</ele><time>2014-11-08T05:19:59Z</time></trkpt>
<trkpt lat="31.7433126" lon="34.6467016"><ele>40.5</ele><time>2014-11-08T05:20:05Z</time></trkpt>
<trkpt lat="31.7432530" lon="34.6466717"><ele>40.7</ele><time>2014-11-08T05:20:06Z</time></trkpt>
<trkpt lat="31.7432375" lon="34.6466862"><ele>40.8</ele><time>2014-11-08T05:20:07Z</time></trkpt>
<trkpt lat="31.7428346" lon="34.6464478"><ele>43.0</ele><time>2014-11-08T05:20:14Z</time></trkpt>
<trkpt lat="31.7427007" lon="34.6463948"><ele>43.6</ele><time>2014-11-08T05:20:16Z</time></trkpt>
<trkpt lat="31.7422959" lon="34.6461254"><ele>45.2</ele><time>2014-11-08T05:20:22Z</time></trkpt>
<trkpt lat="31.7421697" lon="34.6460616"><ele>45.7</ele><time>2014-11-08T05:20:24Z</time></trkpt>
<trkpt lat="31.7421215" lon="34.6460657"><ele>46.0</ele><time>2014-11-08T05:20:25Z</time></trkpt>
<trkpt lat="31.7416510" lon="34.6458108"><ele>48.3</ele><time>2014-11-08T05:20:33Z</time></trkpt>
<trkpt lat="31.7412120" lon="34.6455622"><ele>52.0</ele><time>2014-11-08T05:20:41Z</time></trkpt>
<trkpt lat="31.7409155" lon="34.6453515"><ele>52.0</ele><time>2014-11-08T05:20:45Z</time></trkpt>
<trkpt lat="31.7405823" lon="34.6451830"><ele>49.9</ele><time>2014-11-08T05:20:51Z</time></trkpt>
<trkpt lat="31.7404036" lon="34.6451313"><ele>48.7</ele><time>2014-11-08T05:20:52Z</time></trkpt>
<trkpt lat="31.7403631" lon="34.6450600"><ele>48.0</ele><time>2014-11-08T05:20:53Z</time></trkpt>
<trkpt lat="31.7402977" lon="34.6450207"><ele>47.9</ele><time>2014-11-08T05:20:54Z</time></trkpt>
<trkpt lat="31.7402255" lon="34.6450154"><ele>47.8</ele><time>2014-11-08T05:20:55Z</time></trkpt>
<trkpt lat="31.7398247" lon="34.6447291"><ele>47.2</ele><time>2014-11-08T05:21:02Z</time></trkpt>
<trkpt lat="31.7394105" lon="34.6444629"><ele>46.6</ele><time>2014-11-08T05:21:08Z</time></trkpt>
<trkpt lat="31.7389386" lon="34.6442123"><ele>45.9</ele><time>2014-11-08T05:21:16Z</time></trkpt>
<trkpt lat="31.7385494" lon="34.6440281"><ele>45.4</ele><time>2014-11-08T05:21:22Z</time></trkpt>
<trkpt lat="31.7383755" lon="34.6438843"><ele>45.1</ele><time>2014-11-08T05:21:25Z</time></trkpt>
<trkpt lat="31.7379566" lon="34.6436876"><ele>43.4</ele><time>2014-11-08T05:21:31Z</time></trkpt>
<trkpt lat="31.7376133" lon="34.6434535"><ele>43.0</ele><time>2014-11-08T05:21:38Z</time></trkpt>
<trkpt lat="31.7371865" lon="34.6432090"><ele>42.7</ele><time>2014-11-08T05:21:44Z</time></trkpt>
<trkpt lat="31.7367295" lon="34.6429370"><ele>40.8</ele><time>2014-11-08T05:21:51Z</time></trkpt>
<trkpt lat="31.7366736" lon="34.6428593"><ele>40.5</ele><time>2014-11-08T05:21:52Z</time></trkpt>
<trkpt lat="31.7362135" lon="34.6426487"><ele>37.0</ele><time>2014-11-08T05:21:59Z</time></trkpt>
<trkpt lat="31.7357814" lon="34.6423852"><ele>36.4</ele><time>2014-11-08T05:22:06Z</time></trkpt>
<trkpt lat="31.7353479" lon="34.6421052"><ele>35.5</ele><time>2014-11-08T05:22:13Z</time></trkpt>
<trkpt lat="31.7349342" lon="34.6418209"><ele>35.0</ele><time>2014-11-08T05:22:20Z</time></trkpt>
<trkpt lat="31.7345231" lon="34.6415399"><ele>35.3</ele><time>2014-11-08T05:22:27Z</time></trkpt>
<trkpt lat="31.7341030" lon="34.6412458"><ele>35.7</ele><time>2014-11-08T05:22:34Z</time></trkpt>
<trkpt lat="31.7336904" lon="34.6409660"><ele>36.5</ele><time>2014-11-08T05:22:41Z</time></trkpt>
<trkpt lat="31.7332799" lon="34.6406861"><ele>38.3</ele><time>2014-11-08T05:22:48Z</time></trkpt>
<trkpt lat="31.7328460" lon="34.6404335"><ele>39.8</ele><time>2014-11-08T05:22:55Z</time></trkpt>
<trkpt lat="31.7323931" lon="34.6402020"><ele>43.0</ele><time>2014-11-08T05:23:02Z</time></trkpt>
<trkpt lat="31.7319605" lon="34.6399663"><ele>41.4</ele><time>2014-11-08T05:23:09Z</time></trkpt>
<trkpt lat="31.7315205" lon="34.6397148"><ele>39.1</ele><time>2014-11-08T05:23:16Z</time></trkpt>
<trkpt lat="31.7310701" lon="34.6394581"><ele>37.0</ele><time>2014-11-08T05:23:23Z</time></trkpt>
<trkpt lat="31.7306178" lon="34.6391991"><ele>36.3</ele><time>2014-11-08T05:23:30Z</time></trkpt>
<trkpt lat="31.7301668" lon="34.6389608"><ele>36.5</ele><time>2014-11-08T05:23:37Z</time></trkpt>
<trkpt lat="31.7297324" lon="34.6387252"><ele>35.2</ele><time>2014-11-08T05:23:44Z</time></trkpt>
<trkpt lat="31.7292910" lon="34.6384734"><ele>34.5</ele><time>2014-11-08T05:23:51Z</time></trkpt>
<trkpt lat="31.7288522" lon="34.6382429"><ele>34.3</ele><time>2014-11-08T05:23:58Z</time></trkpt>
<trkpt lat="31.7284199" lon="34.6380054"><ele>35.3</ele><time>2014-11-08T05:24:05Z</time></trkpt>
<trkpt lat="31.7280097" lon="34.6377683"><ele>36.2</ele><time>2014-11-08T05:24:12Z</time></trkpt>
<trkpt lat="31.7275663" lon="34.6375337"><ele>37.2</ele><time>2014-11-08T05:24:19Z</time></trkpt>
<trkpt lat="31.7272577" lon="34.6373966"><ele>37.9</ele><time>2014-11-08T05:24:24Z</time></trkpt>
<trkpt lat="31.7268858" lon="34.6371596"><ele>37.0</ele><time>2014-11-08T05:24:30Z</time></trkpt>
<trkpt lat="31.7268612" lon="34.6371024"><ele>37.2</ele><time>2014-11-08T05:24:31Z</time></trkpt>
<trkpt lat="31.7264328" lon="34.6369048"><ele>37.2</ele><time>2014-11-08T05:24:37Z</time></trkpt>
<trkpt lat="31.7259658" lon="34.6366438"><ele>33.7</ele><time>2014-11-08T05:24:44Z</time></trkpt>
<trkpt lat="31.7255305" lon="34.6364219"><ele>33.1</ele><time>2014-11-08T05:24:52Z</time></trkpt>
<trkpt lat="31.7251133" lon="34.6361902"><ele>36.0</ele><time>2014-11-08T05:24:59Z</time></trkpt>
<trkpt lat="31.7246863" lon="34.6359509"><ele>38.0</ele><time>2014-11-08T05:25:05Z</time></trkpt>
<trkpt lat="31.7244364" lon="34.6358656"><ele>38.0</ele><time>2014-11-08T05:25:09Z</time></trkpt>
<trkpt lat="31.7240492" lon="34.6359895"><ele>37.0</ele><time>2014-11-08T05:25:15Z</time></trkpt>
<trkpt lat="31.7240338" lon="34.6362107"><ele>35.4</ele><time>2014-11-08T05:25:17Z</time></trkpt>
<trkpt lat="31.7237493" lon="34.6366376"><ele>33.8</ele><time>2014-11-08T05:25:23Z</time></trkpt>
<trkpt lat="31.7234546" lon="34.6370986"><ele>35.7</ele><time>2014-11-08T05:25:31Z</time></trkpt>
<trkpt lat="31.7233002" lon="34.6373821"><ele>35.5</ele><time>2014-11-08T05:25:34Z</time></trkpt>
<trkpt lat="31.7229710" lon="34.6378111"><ele>35.0</ele><time>2014-11-08T05:25:41Z</time></trkpt>
<trkpt lat="31.7226547" lon="34.6382580"><ele>35.3</ele><time>2014-11-08T05:25:48Z</time></trkpt>
<trkpt lat="31.7223363" lon="34.6386699"><ele>35.8</ele><time>2014-11-08T05:25:55Z</time></trkpt>
<trkpt lat="31.7220375" lon="34.6390696"><ele>36.2</ele><time>2014-11-08T05:26:01Z</time></trkpt>
<trkpt lat="31.7218103" lon="34.6393677"><ele>36.6</ele><time>2014-11-08T05:26:07Z</time></trkpt>
<trkpt lat="31.7214366" lon="34.6394908"><ele>37.0</ele><time>2014-11-08T05:26:13Z</time></trkpt>
<trkpt lat="31.7210777" lon="34.6391659"><ele>37.4</ele><time>2014-11-08T05:26:19Z</time></trkpt>
<trkpt lat="31.7206724" lon="34.6388370"><ele>37.9</ele><time>2014-11-08T05:26:26Z</time></trkpt>
<trkpt lat="31.7205659" lon="34.6387443"><ele>38.0</ele><time>2014-11-08T05:26:29Z</time></trkpt>
<trkpt lat="31.7201425" lon="34.6384892"><ele>38.0</ele><time>2014-11-08T05:26:35Z</time></trkpt>
<trkpt lat="31.7197186" lon="34.6382201"><ele>37.7</ele><time>2014-11-08T05:26:42Z</time></trkpt>
<trkpt lat="31.7193150" lon="34.6378996"><ele>37.6</ele><time>2014-11-08T05:26:49Z</time></trkpt>
<trkpt lat="31.7190845" lon="34.6375898"><ele>39.8</ele><time>2014-11-08T05:26:58Z</time></trkpt>
<trkpt lat="31.7198523" lon="34.6382203"><ele>24.8</ele><time>2014-11-08T05:27:05Z</time></trkpt>
</trkseg>
<trkseg>
<trkpt lat="31.7198523" lon="34.6382203"><ele>24.8</ele><time>2014-11-08T05:55:22Z</time></trkpt>
<trkpt lat="31.7205953" lon="34.6388453"><ele>9.5</ele><time>2014-11-08T05:55:27Z</time></trkpt>
<trkpt lat="31.7209964" lon="34.6391004"><ele>7.8</ele><time>2014-11-08T05:55:43Z</time></trkpt>
<trkpt lat="31.7214678" lon="34.6396912"><ele>22.1</ele><time>2014-11-08T05:56:00Z</time></trkpt>
</trkseg>
<trkseg>
<trkpt lat="31.7214678" lon="34.6396912"><ele>22.1</ele><time>2014-11-08T06:00:06Z</time></trkpt>
<trkpt lat="31.7215113" lon="34.6400839"><ele>31.0</ele><time>2014-11-08T06:00:10Z</time></trkpt>
<trkpt lat="31.7212113" lon="34.6405612"><ele>32.4</ele><time>2014-11-08T06:00:17Z</time></trkpt>
<trkpt lat="31.7209022" lon="34.6410347"><ele>33.0</ele><time>2014-11-08T06:00:25Z</time></trkpt>
<trkpt lat="31.7206354" lon="34.6414705"><ele>34.7</ele><time>2014-11-08T06:00:33Z</time></trkpt>
<trkpt lat="31.7203588" lon="34.6418928"><ele>36.8</ele><time>2014-11-08T06:00:42Z</time></trkpt>
<trkpt lat="31.7200717" lon="34.6423400"><ele>38.0</ele><time>2014-11-08T06:00:49Z</time></trkpt>
<trkpt lat="31.7197825" lon="34.6427722"><ele>37.8</ele><time>2014-11-08T06:00:57Z</time></trkpt>
<trkpt lat="31.7194604" lon="34.6432314"><ele>37.3</ele><time>2014-11-08T06:01:05Z</time></trkpt>
<trkpt lat="31.7191087" lon="34.6436203"><ele>37.3</ele><time>2014-11-08T06:01:12Z</time></trkpt>
<trkpt lat="31.7186861" lon="34.6439584"><ele>38.7</ele><time>2014-11-08T06:01:20Z</time></trkpt>
<trkpt lat="31.7182729" lon="34.6441929"><ele>39.0</ele><time>2014-11-08T06:01:27Z</time></trkpt>
<trkpt lat="31.7178294" lon="34.6443492"><ele>38.6</ele><time>2014-11-08T06:01:34Z</time></trkpt>
<trkpt lat="31.7173805" lon="34.6444336"><ele>38.2</ele><time>2014-11-08T06:01:42Z</time></trkpt>
<trkpt lat="31.7169473" lon="34.6444517"><ele>37.9</ele><time>2014-11-08T06:01:47Z</time></trkpt>
<trkpt lat="31.7164436" lon="34.6443551"><ele>37.5</ele><time>2014-11-08T06:01:54Z</time></trkpt>
<trkpt lat="31.7163050" lon="34.6443323"><ele>37.4</ele><time>2014-11-08T06:01:56Z</time></trkpt>
<trkpt lat="31.7158286" lon="34.6441360"><ele>37.0</ele><time>2014-11-08T06:02:03Z</time></trkpt>
<trkpt lat="31.7156289" lon="34.6440696"><ele>36.9</ele><time>2014-11-08T06:02:06Z</time></trkpt>
<trkpt lat="31.7153544" lon="34.6440010"><ele>36.6</ele><time>2014-11-08T06:02:10Z</time></trkpt>
<trkpt lat="31.7149691" lon="34.6438287"><ele>36.3</ele><time>2014-11-08T06:02:16Z</time></trkpt>
<trkpt lat="31.7145209" lon="34.6436687"><ele>36.0</ele><time>2014-11-08T06:02:23Z</time></trkpt>
<trkpt lat="31.7140369" lon="34.6434927"><ele>35.6</ele><time>2014-11-08T06:02:29Z</time></trkpt>
<trkpt lat="31.7135867" lon="34.6433431"><ele>35.3</ele><time>2014-11-08T06:02:35Z</time></trkpt>
<trkpt lat="31.7131421" lon="34.6431897"><ele>35.0</ele><time>2014-11-08T06:02:41Z</time></trkpt>
<trkpt lat="31.7126522" lon="34.6430117"><ele>35.0</ele><time>2014-11-08T06:02:48Z</time></trkpt>
<trkpt lat="31.7121887" lon="34.6429347"><ele>33.5</ele><time>2014-11-08T06:02:55Z</time></trkpt>
<trkpt lat="31.7117010" lon="34.6429771"><ele>32.0</ele><time>2014-11-08T06:03:02Z</time></trkpt>
<trkpt lat="31.7111887" lon="34.6430713"><ele>30.6</ele><time>2014-11-08T06:03:10Z</time></trkpt>
<trkpt lat="31.7107396" lon="34.6432490"><ele>28.1</ele><time>2014-11-08T06:03:17Z</time></trkpt>
<trkpt lat="31.7102672" lon="34.6434873"><ele>26.5</ele><time>2014-11-08T06:03:23Z</time></trkpt>
<trkpt lat="31.7098051" lon="34.6437331"><ele>25.5</ele><time>2014-11-08T06:03:29Z</time></trkpt>
<trkpt lat="31.7093646" lon="34.6439917"><ele>25.0</ele><time>2014-11-08T06:03:36Z</time></trkpt>
<trkpt lat="31.7089392" lon="34.6442224"><ele>25.0</ele><time>2014-11-08T06:03:43Z</time></trkpt>
<trkpt lat="31.7084906" lon="34.6444227"><ele>25.4</ele><time>2014-11-08T06:03:50Z</time></trkpt>
<trkpt lat="31.7080634" lon="34.6446025"><ele>25.8</ele><time>2014-11-08T06:03:56Z</time></trkpt>
<trkpt lat="31.7075900" lon="34.6447650"><ele>26.2</ele><time>2014-11-08T06:04:04Z</time></trkpt>
<trkpt lat="31.7071369" lon="34.6449415"><ele>26.6</ele><time>2014-11-08T06:04:10Z</time></trkpt>
<trkpt lat="31.7066672" lon="34.6451194"><ele>27.0</ele><time>2014-11-08T06:04:17Z</time></trkpt>
<trkpt lat="31.7061978" lon="34.6452638"><ele>27.7</ele><time>2014-11-08T06:04:24Z</time></trkpt>
<trkpt lat="31.7057172" lon="34.6453924"><ele>26.8</ele><time>2014-11-08T06:04:31Z</time></trkpt>
<trkpt lat="31.7052203" lon="34.6455392"><ele>26.5</ele><time>2014-11-08T06:04:38Z</time></trkpt>
<trkpt lat="31.7047456" lon="34.6456861"><ele>26.1</ele><time>2014-11-08T06:04:45Z</time></trkpt>
<trkpt lat="31.7042768" lon="34.6458276"><ele>25.7</ele><time>2014-11-08T06:04:53Z</time></trkpt>
<trkpt lat="31.7038129" lon="34.6459472"><ele>25.4</ele><time>2014-11-08T06:04:59Z</time></trkpt>
<trkpt lat="31.7033379" lon="34.6460822"><ele>25.0</ele><time>2014-11-08T06:05:06Z</time></trkpt>
<trkpt lat="31.7028762" lon="34.6462317"><ele>24.6</ele><time>2014-11-08T06:05:13Z</time></trkpt>
<trkpt lat="31.7024226" lon="34.6463568"><ele>24.3</ele><time>2014-11-08T06:05:20Z</time></trkpt>
<trkpt lat="31.7019140" lon="34.6465114"><ele>23.9</ele><time>2014-11-08T06:05:28Z</time></trkpt>
<trkpt lat="31.7014422" lon="34.6466576"><ele>23.7</ele><time>2014-11-08T06:05:35Z</time></trkpt>
<trkpt lat="31.7009838" lon="34.6468010"><ele>23.6</ele><time>2014-11-08T06:05:42Z</time></trkpt>
<trkpt lat="31.7005419" lon="34.6469366"><ele>23.4</ele><time>2014-11-08T06:05:49Z</time></trkpt>
<trkpt lat="31.7000922" lon="34.6470843"><ele>23.2</ele><time>2014-11-08T06:05:56Z</time></trkpt>
<trkpt lat="31.6996481" lon="34.6471870"><ele>23.0</ele><time>2014-11-08T06:06:02Z</time></trkpt>
<trkpt lat="31.6991770" lon="34.6473253"><ele>22.0</ele><time>2014-11-08T06:06:09Z</time></trkpt>
<trkpt lat="31.6987270" lon="34.6475005"><ele>22.4</ele><time>2014-11-08T06:06:16Z</time></trkpt>
<trkpt lat="31.6982826" lon="34.6477615"><ele>23.6</ele><time>2014-11-08T06:06:23Z</time></trkpt>
<trkpt lat="31.6978401" lon="34.6480089"><ele>23.2</ele><time>2014-11-08T06:06:30Z</time></trkpt>
<trkpt lat="31.6974049" lon="34.6482450"><ele>26.6</ele><time>2014-11-08T06:06:37Z</time></trkpt>
<trkpt lat="31.6969657" lon="34.6485041"><ele>29.3</ele><time>2014-11-08T06:06:45Z</time></trkpt>
<trkpt lat="31.6965097" lon="34.6487653"><ele>29.9</ele><time>2014-11-08T06:06:51Z</time></trkpt>
<trkpt lat="31.6961018" lon="34.6490087"><ele>31.5</ele><time>2014-11-08T06:06:58Z</time></trkpt>
<trkpt lat="31.6956701" lon="34.6492683"><ele>33.8</ele><time>2014-11-08T06:07:05Z</time></trkpt>
<trkpt lat="31.6952376" lon="34.6495262"><ele>38.3</ele><time>2014-11-08T06:07:12Z</time></trkpt>
<trkpt lat="31.6947919" lon="34.6496958"><ele>41.5</ele><time>2014-11-08T06:07:19Z</time></trkpt>
<trkpt lat="31.6943167" lon="34.6497907"><ele>43.1</ele><time>2014-11-08T06:07:27Z</time></trkpt>
<trkpt lat="31.6938487" lon="34.6498552"><ele>44.0</ele><time>2014-11-08T06:07:32Z</time></trkpt>
<trkpt lat="31.6933465" lon="34.6498860"><ele>43.6</ele><time>2014-11-08T06:07:39Z</time></trkpt>
<trkpt lat="31.6928707" lon="34.6498811"><ele>43.3</ele><time>2014-11-08T06:07:46Z</time></trkpt>
<trkpt lat="31.6923658" lon="34.6498529"><ele>43.0</ele><time>2014-11-08T06:07:53Z</time></trkpt>
<trkpt lat="31.6918705" lon="34.6498518"><ele>42.7</ele><time>2014-11-08T06:08:00Z</time></trkpt>
<trkpt lat="31.6913901" lon="34.6498422"><ele>42.4</ele><time>2014-11-08T06:08:07Z</time></trkpt>
<trkpt lat="31.6908906" lon="34.6498683"><ele>42.0</ele><time>2014-11-08T06:08:14Z</time></trkpt>
<trkpt lat="31.6904295" lon="34.6499343"><ele>40.4</ele><time>2014-11-08T06:08:21Z</time></trkpt>
<trkpt lat="31.6899685" lon="34.6499950"><ele>38.8</ele><time>2014-11-08T06:08:28Z</time></trkpt>
<trkpt lat="31.6894848" lon="34.6500652"><ele>38.2</ele><time>2014-11-08T06:08:35Z</time></trkpt>
<trkpt lat="31.6889997" lon="34.6501250"><ele>37.3</ele><time>2014-11-08T06:08:42Z</time></trkpt>
<trkpt lat="31.6884901" lon="34.6502143"><ele>36.0</ele><time>2014-11-08T06:08:49Z</time></trkpt>
<trkpt lat="31.6880070" lon="34.6504310"><ele>36.0</ele><time>2014-11-08T06:08:56Z</time></trkpt>
<trkpt lat="31.6875608" lon="34.6506518"><ele>36.4</ele><time>2014-11-08T06:09:03Z</time></trkpt>
<trkpt lat="31.6871155" lon="34.6508943"><ele>37.4</ele><time>2014-11-08T06:09:11Z</time></trkpt>
<trkpt lat="31.6866902" lon="34.6511429"><ele>38.3</ele><time>2014-11-08T06:09:17Z</time></trkpt>
<trkpt lat="31.6862686" lon="34.6513863"><ele>39.5</ele><time>2014-11-08T06:09:24Z</time></trkpt>
<trkpt lat="31.6858266" lon="34.6516524"><ele>41.4</ele><time>2014-11-08T06:09:31Z</time></trkpt>
<trkpt lat="31.6853969" lon="34.6519112"><ele>43.2</ele><time>2014-11-08T06:09:38Z</time></trkpt>
<trkpt lat="31.6849694" lon="34.6521891"><ele>45.0</ele><time>2014-11-08T06:09:45Z</time></trkpt>
<trkpt lat="31.6845477" lon="34.6524498"><ele>47.5</ele><time>2014-11-08T06:09:52Z</time></trkpt>
<trkpt lat="31.6841217" lon="34.6527098"><ele>49.0</ele><time>2014-11-08T06:09:59Z</time></trkpt>
<trkpt lat="31.6836859" lon="34.6529716"><ele>49.7</ele><time>2014-11-08T06:10:06Z</time></trkpt>
<trkpt lat="31.6832696" lon="34.6531906"><ele>49.7</ele><time>2014-11-08T06:10:13Z</time></trkpt>
<trkpt lat="31.6832067" lon="34.6532091"><ele>49.6</ele><time>2014-11-08T06:10:14Z</time></trkpt>
<trkpt lat="31.6830814" lon="34.6531621"><ele>49.4</ele><time>2014-11-08T06:10:16Z</time></trkpt>
<trkpt lat="31.6828713" lon="34.6526218"><ele>49.0</ele><time>2014-11-08T06:10:23Z</time></trkpt>
<trkpt lat="31.6826910" lon="34.6520699"><ele>48.5</ele><time>2014-11-08T06:10:30Z</time></trkpt>
<trkpt lat="31.6825854" lon="34.6517843"><ele>48.2</ele><time>2014-11-08T06:10:34Z</time></trkpt>
<trkpt lat="31.6824762" lon="34.6517106"><ele>48.1</ele><time>2014-11-08T06:10:37Z</time></trkpt>
<trkpt lat="31.6819963" lon="34.6518608"><ele>47.0</ele><time>2014-11-08T06:10:43Z</time></trkpt>
<trkpt lat="31.6815491" lon="34.6520249"><ele>46.7</ele><time>2014-11-08T06:10:49Z</time></trkpt>
<trkpt lat="31.6810915" lon="34.6521641"><ele>46.3</ele><time>2014-11-08T06:10:56Z</time></trkpt>
<trkpt lat="31.6806388" lon="34.6522407"><ele>45.9</ele><time>2014-11-08T06:11:03Z</time></trkpt>
<trkpt lat="31.6801789" lon="34.6522421"><ele>45.5</ele><time>2014-11-08T06:11:10Z</time></trkpt>
<trkpt lat="31.6796523" lon="34.6521556"><ele>45.1</ele><time>2014-11-08T06:11:17Z</time></trkpt>
<trkpt lat="31.6791631" lon="34.6521170"><ele>44.8</ele><time>2014-11-08T06:11:23Z</time></trkpt>
<trkpt lat="31.6786731" lon="34.6521085"><ele>44.4</ele><time>2014-11-08T06:11:30Z</time></trkpt>
<trkpt lat="31.6781620" lon="34.6521395"><ele>44.0</ele><time>2014-11-08T06:11:38Z</time></trkpt>
<trkpt lat="31.6776915" lon="34.6521672"><ele>45.0</ele><time>2014-11-08T06:11:44Z</time></trkpt>
<trkpt lat="31.6772128" lon="34.6521736"><ele>45.0</ele><time>2014-11-08T06:11:51Z</time></trkpt>
<trkpt lat="31.6767559" lon="34.6521890"><ele>45.0</ele><time>2014-11-08T06:11:58Z</time></trkpt>
<trkpt lat="31.6762841" lon="34.6522416"><ele>45.0</ele><time>2014-11-08T06:12:05Z</time></trkpt>
<trkpt lat="31.6758038" lon="34.6524363"><ele>45.3</ele><time>2014-11-08T06:12:12Z</time></trkpt>
<trkpt lat="31.6753580" lon="34.6527401"><ele>46.5</ele><time>2014-11-08T06:12:20Z</time></trkpt>
<trkpt lat="31.6749478" lon="34.6530669"><ele>47.8</ele><time>2014-11-08T06:12:26Z</time></trkpt>
<trkpt lat="31.6745298" lon="34.6533865"><ele>47.0</ele><time>2014-11-08T06:12:33Z</time></trkpt>
<trkpt lat="31.6741329" lon="34.6536951"><ele>47.6</ele><time>2014-11-08T06:12:40Z</time></trkpt>
<trkpt lat="31.6737449" lon="34.6540025"><ele>48.3</ele><time>2014-11-08T06:12:47Z</time></trkpt>
<trkpt lat="31.6733344" lon="34.6543146"><ele>48.9</ele><time>2014-11-08T06:12:54Z</time></trkpt>
<trkpt lat="31.6729093" lon="34.6545840"><ele>49.6</ele><time>2014-11-08T06:13:01Z</time></trkpt>
<trkpt lat="31.6724637" lon="34.6546883"><ele>50.4</ele><time>2014-11-08T06:13:09Z</time></trkpt>
<trkpt lat="31.6719926" lon="34.6547072"><ele>51.6</ele><time>2014-11-08T06:13:15Z</time></trkpt>
<trkpt lat="31.6715125" lon="34.6546699"><ele>52.8</ele><time>2014-11-08T06:13:22Z</time></trkpt>
<trkpt lat="31.6710407" lon="34.6546019"><ele>53.8</ele><time>2014-11-08T06:13:29Z</time></trkpt>
<trkpt lat="31.6705659" lon="34.6545065"><ele>54.5</ele><time>2014-11-08T06:13:36Z</time></trkpt>
<trkpt lat="31.6701123" lon="34.6544217"><ele>58.0</ele><time>2014-11-08T06:13:43Z</time></trkpt>
<trkpt lat="31.6698166" lon="34.6544243"><ele>60.2</ele><time>2014-11-08T06:13:47Z</time></trkpt>
<trkpt lat="31.6693820" lon="34.6545864"><ele>62.5</ele><time>2014-11-08T06:13:53Z</time></trkpt>
<trkpt lat="31.6689081" lon="34.6547969"><ele>63.8</ele><time>2014-11-08T06:14:01Z</time></trkpt>
<trkpt lat="31.6686110" lon="34.6549922"><ele>65.3</ele><time>2014-11-08T06:14:05Z</time></trkpt>
<trkpt lat="31.6683248" lon="34.6554581"><ele>66.0</ele><time>2014-11-08T06:14:12Z</time></trkpt>
<trkpt lat="31.6680979" lon="34.6559488"><ele>66.8</ele><time>2014-11-08T06:14:19Z</time></trkpt>
<trkpt lat="31.6678804" lon="34.6564209"><ele>67.8</ele><time>2014-11-08T06:14:26Z</time></trkpt>
<trkpt lat="31.6676663" lon="34.6569297"><ele>68.9</ele><time>2014-11-08T06:14:34Z</time></trkpt>
<trkpt lat="31.6675292" lon="34.6574456"><ele>67.7</ele><time>2014-11-08T06:14:42Z</time></trkpt>
<trkpt lat="31.6673861" lon="34.6579964"><ele>67.0</ele><time>2014-11-08T06:14:51Z</time></trkpt>
<trkpt lat="31.6672288" lon="34.6581723"><ele>68.5</ele><time>2014-11-08T06:14:54Z</time></trkpt>
<trkpt lat="31.6667776" lon="34.6581433"><ele>70.5</ele><time>2014-11-08T06:15:02Z</time></trkpt>
<trkpt lat="31.6662800" lon="34.6580202"><ele>71.5</ele><time>2014-11-08T06:15:10Z</time></trkpt>
<trkpt lat="31.6658008" lon="34.6579089"><ele>73.0</ele><time>2014-11-08T06:15:19Z</time></trkpt>
<trkpt lat="31.6653407" lon="34.6578074"><ele>73.9</ele><time>2014-11-08T06:15:28Z</time></trkpt>
<trkpt lat="31.6651308" lon="34.6578320"><ele>76.1</ele><time>2014-11-08T06:15:33Z</time></trkpt>
<trkpt lat="31.6649048" lon="34.6580697"><ele>78.8</ele><time>2014-11-08T06:15:38Z</time></trkpt>
<trkpt lat="31.6647865" lon="34.6585971"><ele>81.0</ele><time>2014-11-08T06:15:46Z</time></trkpt>
<trkpt lat="31.6646980" lon="34.6591767"><ele>79.8</ele><time>2014-11-08T06:15:53Z</time></trkpt>
<trkpt lat="31.6646321" lon="34.6597534"><ele>78.7</ele><time>2014-11-08T06:16:00Z</time></trkpt>
<trkpt lat="31.6645633" lon="34.6603068"><ele>78.3</ele><time>2014-11-08T06:16:07Z</time></trkpt>
<trkpt lat="31.6644581" lon="34.6608584"><ele>79.1</ele><time>2014-11-08T06:16:14Z</time></trkpt>
<trkpt lat="31.6642929" lon="34.6610888"><ele>79.5</ele><time>2014-11-08T06:16:18Z</time></trkpt>
<trkpt lat="31.6638388" lon="34.6612453"><ele>80.3</ele><time>2014-11-08T06:16:25Z</time></trkpt>
<trkpt lat="31.6633435" lon="34.6613104"><ele>81.6</ele><time>2014-11-08T06:16:33Z</time></trkpt>
<trkpt lat="31.6628752" lon="34.6613804"><ele>83.4</ele><time>2014-11-08T06:16:41Z</time></trkpt>
<trkpt lat="31.6625519" lon="34.6614729"><ele>84.0</ele><time>2014-11-08T06:16:47Z</time></trkpt>
<trkpt lat="31.6621836" lon="34.6618603"><ele>87.3</ele><time>2014-11-08T06:16:56Z</time></trkpt>
<trkpt lat="31.6618987" lon="34.6622754"><ele>91.2</ele><time>2014-11-08T06:17:05Z</time></trkpt>
<trkpt lat="31.6616365" lon="34.6627580"><ele>94.6</ele><time>2014-11-08T06:17:15Z</time></trkpt>
<trkpt lat="31.6615374" lon="34.6633106"><ele>94.7</ele><time>2014-11-08T06:17:24Z</time></trkpt>
<trkpt lat="31.6614609" lon="34.6637201"><ele>93.4</ele><time>2014-11-08T06:17:29Z</time></trkpt>
<trkpt lat="31.6613632" lon="34.6638844"><ele>93.0</ele><time>2014-11-08T06:17:31Z</time></trkpt>
<trkpt lat="31.6608617" lon="34.6641123"><ele>93.0</ele><time>2014-11-08T06:17:37Z</time></trkpt>
<trkpt lat="31.6603984" lon="34.6642565"><ele>91.0</ele><time>2014-11-08T06:17:42Z</time></trkpt>
<trkpt lat="31.6599250" lon="34.6643791"><ele>90.0</ele><time>2014-11-08T06:17:47Z</time></trkpt>
<trkpt lat="31.6594909" lon="34.6643073"><ele>90.0</ele><time>2014-11-08T06:17:52Z</time></trkpt>
<trkpt lat="31.6590333" lon="34.6640872"><ele>89.5</ele><time>2014-11-08T06:17:58Z</time></trkpt>
<trkpt lat="31.6585645" lon="34.6638568"><ele>88.8</ele><time>2014-11-08T06:18:05Z</time></trkpt>
<trkpt lat="31.6581191" lon="34.6636809"><ele>88.2</ele><time>2014-11-08T06:18:12Z</time></trkpt>
<trkpt lat="31.6576728" lon="34.6635238"><ele>88.0</ele><time>2014-11-08T06:18:19Z</time></trkpt>
<trkpt lat="31.6572081" lon="34.6633575"><ele>86.1</ele><time>2014-11-08T06:18:27Z</time></trkpt>
<trkpt lat="31.6567295" lon="34.6631901"><ele>87.0</ele><time>2014-11-08T06:18:35Z</time></trkpt>
<trkpt lat="31.6562736" lon="34.6630532"><ele>89.0</ele><time>2014-11-08T06:18:43Z</time></trkpt>
<trkpt lat="31.6557647" lon="34.6629368"><ele>88.8</ele><time>2014-11-08T06:18:50Z</time></trkpt>
<trkpt lat="31.6552710" lon="34.6628260"><ele>88.2</ele><time>2014-11-08T06:18:56Z</time></trkpt>
<trkpt lat="31.6547915" lon="34.6626675"><ele>87.7</ele><time>2014-11-08T06:19:02Z</time></trkpt>
<trkpt lat="31.6543364" lon="34.6624792"><ele>87.1</ele><time>2014-11-08T06:19:08Z</time></trkpt>
<trkpt lat="31.6539151" lon="34.6622733"><ele>87.8</ele><time>2014-11-08T06:19:14Z</time></trkpt>
<trkpt lat="31.6537760" lon="34.6622444"><ele>88.2</ele><time>2014-11-08T06:19:16Z</time></trkpt>
<trkpt lat="31.6536995" lon="34.6622645"><ele>88.4</ele><time>2014-11-08T06:19:17Z</time></trkpt>
<trkpt lat="31.6535949" lon="34.6623900"><ele>88.8</ele><time>2014-11-08T06:19:19Z</time></trkpt>
<trkpt lat="31.6533817" lon="34.6629386"><ele>88.5</ele><time>2014-11-08T06:19:26Z</time></trkpt>
<trkpt lat="31.6531731" lon="34.6633966"><ele>87.6</ele><time>2014-11-08T06:19:33Z</time></trkpt>
<trkpt lat="31.6530790" lon="34.6634843"><ele>87.2</ele><time>2014-11-08T06:19:36Z</time></trkpt>
<trkpt lat="31.6530083" lon="34.6635084"><ele>87.0</ele><time>2014-11-08T06:19:36Z</time></trkpt>
<trkpt lat="31.6525126" lon="34.6633279"><ele>85.8</ele><time>2014-11-08T06:19:44Z</time></trkpt>
<trkpt lat="31.6520370" lon="34.6631549"><ele>85.2</ele><time>2014-11-08T06:19:50Z</time></trkpt>
<trkpt lat="31.6515628" lon="34.6630166"><ele>84.1</ele><time>2014-11-08T06:19:57Z</time></trkpt>
<trkpt lat="31.6510867" lon="34.6628863"><ele>82.9</ele><time>2014-11-08T06:20:04Z</time></trkpt>
<trkpt lat="31.6505868" lon="34.6627952"><ele>81.3</ele><time>2014-11-08T06:20:11Z</time></trkpt>
<trkpt lat="31.6500809" lon="34.6627458"><ele>80.0</ele><time>2014-11-08T06:20:18Z</time></trkpt>
<trkpt lat="31.6495692" lon="34.6627282"><ele>80.0</ele><time>2014-11-08T06:20:26Z</time></trkpt>
<trkpt lat="31.6490700" lon="34.6627459"><ele>79.1</ele><time>2014-11-08T06:20:32Z</time></trkpt>
<trkpt lat="31.6485964" lon="34.6628009"><ele>77.9</ele><time>2014-11-08T06:20:39Z</time></trkpt>
<trkpt lat="31.6481109" lon="34.6628656"><ele>77.3</ele><time>2014-11-08T06:20:46Z</time></trkpt>
<trkpt lat="31.6476254" lon="34.6629317"><ele>75.7</ele><time>2014-11-08T06:20:53Z</time></trkpt>
<trkpt lat="31.6471723" lon="34.6629991"><ele>74.2</ele><time>2014-11-08T06:21:00Z</time></trkpt>
<trkpt lat="31.6467051" lon="34.6630692"><ele>74.0</ele><time>2014-11-08T06:21:07Z</time></trkpt>
<trkpt lat="31.6462345" lon="34.6631312"><ele>74.0</ele><time>2014-11-08T06:21:15Z</time></trkpt>
<trkpt lat="31.6457465" lon="34.6632220"><ele>74.0</ele><time>2014-11-08T06:21:21Z</time></trkpt>
<trkpt lat="31.6452782" lon="34.6632995"><ele>74.0</ele><time>2014-11-08T06:21:28Z</time></trkpt>
<trkpt lat="31.6448109" lon="34.6633919"><ele>74.0</ele><time>2014-11-08T06:21:35Z</time></trkpt>
<trkpt lat="31.6443174" lon="34.6634472"><ele>73.8</ele><time>2014-11-08T06:21:42Z</time></trkpt>
<trkpt lat="31.6439136" lon="34.6635067"><ele>73.5</ele><time>2014-11-08T06:21:48Z</time></trkpt>
<trkpt lat="31.6434097" lon="34.6634479"><ele>73.3</ele><time>2014-11-08T06:21:55Z</time></trkpt>
<trkpt lat="31.6429005" lon="34.6633791"><ele>73.0</ele><time>2014-11-08T06:22:02Z</time></trkpt>
<trkpt lat="31.6424091" lon="34.6632837"><ele>73.0</ele><time>2014-11-08T06:22:09Z</time></trkpt>
<trkpt lat="31.6419172" lon="34.6631990"><ele>73.6</ele><time>2014-11-08T06:22:17Z</time></trkpt>
<trkpt lat="31.6414350" lon="34.6631328"><ele>74.1</ele><time>2014-11-08T06:22:23Z</time></trkpt>
<trkpt lat="31.6409626" lon="34.6630758"><ele>74.7</ele><time>2014-11-08T06:22:30Z</time></trkpt>
<trkpt lat="31.6404929" lon="34.6629920"><ele>75.2</ele><time>2014-11-08T06:22:37Z</time></trkpt>
<trkpt lat="31.6399960" lon="34.6629165"><ele>75.8</ele><time>2014-11-08T06:22:44Z</time></trkpt>
<trkpt lat="31.6395068" lon="34.6628316"><ele>76.2</ele><time>2014-11-08T06:22:51Z</time></trkpt>
<trkpt lat="31.6390255" lon="34.6628002"><ele>76.5</ele><time>2014-11-08T06:22:59Z</time></trkpt>
<trkpt lat="31.6385486" lon="34.6628147"><ele>76.8</ele><time>2014-11-08T06:23:06Z</time></trkpt>
<trkpt lat="31.6380534" lon="34.6628196"><ele>77.1</ele><time>2014-11-08T06:23:12Z</time></trkpt>
<trkpt lat="31.6375736" lon="34.6628566"><ele>77.4</ele><time>2014-11-08T06:23:19Z</time></trkpt>
<trkpt lat="31.6370756" lon="34.6629091"><ele>77.7</ele><time>2014-11-08T06:23:26Z</time></trkpt>
<trkpt lat="31.6365878" lon="34.6629175"><ele>78.0</ele><time>2014-11-08T06:23:33Z</time></trkpt>
<trkpt lat="31.6361333" lon="34.6629548"><ele>79.0</ele><time>2014-11-08T06:23:40Z</time></trkpt>
<trkpt lat="31.6356680" lon="34.6630139"><ele>79.2</ele><time>2014-11-08T06:23:48Z</time></trkpt>
<trkpt lat="31.6351574" lon="34.6630412"><ele>78.0</ele><time>2014-11-08T06:23:54Z</time></trkpt>
<trkpt lat="31.6346804" lon="34.6630716"><ele>77.4</ele><time>2014-11-08T06:24:01Z</time></trkpt>
<trkpt lat="31.6341913" lon="34.6630898"><ele>77.2</ele><time>2014-11-08T06:24:08Z</time></trkpt>
<trkpt lat="31.6337359" lon="34.6631116"><ele>77.7</ele><time>2014-11-08T06:24:15Z</time></trkpt>
<trkpt lat="31.6332252" lon="34.6631488"><ele>78.2</ele><time>2014-11-08T06:24:22Z</time></trkpt>
<trkpt lat="31.6327295" lon="34.6631862"><ele>78.7</ele><time>2014-11-08T06:24:30Z</time></trkpt>
<trkpt lat="31.6322723" lon="34.6632250"><ele>79.0</ele><time>2014-11-08T06:24:37Z</time></trkpt>
<trkpt lat="31.6317920" lon="34.6632726"><ele>79.0</ele><time>2014-11-08T06:24:43Z</time></trkpt>
<trkpt lat="31.6312853" lon="34.6633457"><ele>80.1</ele><time>2014-11-08T06:24:50Z</time></trkpt>
<trkpt lat="31.6308270" lon="34.6634124"><ele>82.2</ele><time>2014-11-08T06:24:57Z</time></trkpt>
<trkpt lat="31.6303480" lon="34.6634054"><ele>83.3</ele><time>2014-11-08T06:25:04Z</time></trkpt>
<trkpt lat="31.6298577" lon="34.6633319"><ele>83.7</ele><time>2014-11-08T06:25:11Z</time></trkpt>
<trkpt lat="31.6293856" lon="34.6631839"><ele>84.6</ele><time>2014-11-08T06:25:18Z</time></trkpt>
<trkpt lat="31.6289315" lon="34.6629561"><ele>85.6</ele><time>2014-11-08T06:25:25Z</time></trkpt>
<trkpt lat="31.6284879" lon="34.6626961"><ele>85.3</ele><time>2014-11-08T06:25:32Z</time></trkpt>
<trkpt lat="31.6280733" lon="34.6624372"><ele>86.0</ele><time>2014-11-08T06:25:39Z</time></trkpt>
<trkpt lat="31.6276269" lon="34.6621811"><ele>87.2</ele><time>2014-11-08T06:25:46Z</time></trkpt>
<trkpt lat="31.6271954" lon="34.6619157"><ele>88.1</ele><time>2014-11-08T06:25:53Z</time></trkpt>
<trkpt lat="31.6267615" lon="34.6616533"><ele>89.0</ele><time>2014-11-08T06:26:00Z</time></trkpt>
<trkpt lat="31.6263189" lon="34.6614394"><ele>89.8</ele><time>2014-11-08T06:26:07Z</time></trkpt>
<trkpt lat="31.6258959" lon="34.6611980"><ele>90.6</ele><time>2014-11-08T06:26:14Z</time></trkpt>
<trkpt lat="31.6254436" lon="34.6609835"><ele>92.3</ele><time>2014-11-08T06:26:21Z</time></trkpt>
<trkpt lat="31.6249671" lon="34.6607686"><ele>91.3</ele><time>2014-11-08T06:26:28Z</time></trkpt>
<trkpt lat="31.6244938" lon="34.6606064"><ele>90.8</ele><time>2014-11-08T06:26:35Z</time></trkpt>
<trkpt lat="31.6240482" lon="34.6604929"><ele>90.3</ele><time>2014-11-08T06:26:42Z</time></trkpt>
<trkpt lat="31.6235387" lon="34.6603878"><ele>91.1</ele><time>2014-11-08T06:26:49Z</time></trkpt>
<trkpt lat="31.6230816" lon="34.6602606"><ele>91.8</ele><time>2014-11-08T06:26:56Z</time></trkpt>
<trkpt lat="31.6226089" lon="34.6601412"><ele>92.6</ele><time>2014-11-08T06:27:03Z</time></trkpt>
<trkpt lat="31.6221305" lon="34.6600187"><ele>94.0</ele><time>2014-11-08T06:27:10Z</time></trkpt>
<trkpt lat="31.6216424" lon="34.6599817"><ele>95.0</ele><time>2014-11-08T06:27:17Z</time></trkpt>
<trkpt lat="31.6211857" lon="34.6599530"><ele>96.0</ele><time>2014-11-08T06:27:24Z</time></trkpt>
<trkpt lat="31.6207072" lon="34.6599299"><ele>98.5</ele><time>2014-11-08T06:27:31Z</time></trkpt>
<trkpt lat="31.6202277" lon="34.6598869"><ele>100.5</ele><time>2014-11-08T06:27:38Z</time></trkpt>
<trkpt lat="31.6197369" lon="34.6598470"><ele>101.9</ele><time>2014-11-08T06:27:45Z</time></trkpt>
<trkpt lat="31.6192709" lon="34.6597444"><ele>103.3</ele><time>2014-11-08T06:27:52Z</time></trkpt>
<trkpt lat="31.6188031" lon="34.6596343"><ele>105.4</ele><time>2014-11-08T06:28:00Z</time></trkpt>
<trkpt lat="31.6183346" lon="34.6595208"><ele>106.5</ele><time>2014-11-08T06:28:06Z</time></trkpt>
<trkpt lat="31.6178913" lon="34.6593904"><ele>106.2</ele><time>2014-11-08T06:28:13Z</time></trkpt>
<trkpt lat="31.6174361" lon="34.6592581"><ele>107.2</ele><time>2014-11-08T06:28:20Z</time></trkpt>
<trkpt lat="31.6169614" lon="34.6590845"><ele>108.7</ele><time>2014-11-08T06:28:27Z</time></trkpt>
<trkpt lat="31.6164713" lon="34.6589177"><ele>110.5</ele><time>2014-11-08T06:28:34Z</time></trkpt>
<trkpt lat="31.6160341" lon="34.6587576"><ele>111.8</ele><time>2014-11-08T06:28:41Z</time></trkpt>
<trkpt lat="31.6155598" lon="34.6585862"><ele>113.4</ele><time>2014-11-08T06:28:47Z</time></trkpt>
<trkpt lat="31.6150991" lon="34.6584313"><ele>115.0</ele><time>2014-11-08T06:28:54Z</time></trkpt>
<trkpt lat="31.6146408" lon="34.6582678"><ele>116.5</ele><time>2014-11-08T06:29:01Z</time></trkpt>
<trkpt lat="31.6141873" lon="34.6581120"><ele>117.8</ele><time>2014-11-08T06:29:08Z</time></trkpt>
<trkpt lat="31.6136998" lon="34.6579437"><ele>119.0</ele><time>2014-11-08T06:29:15Z</time></trkpt>
<trkpt lat="31.6132614" lon="34.6577713"><ele>120.6</ele><time>2014-11-08T06:29:22Z</time></trkpt>
<trkpt lat="31.6128194" lon="34.6575248"><ele>122.8</ele><time>2014-11-08T06:29:29Z</time></trkpt>
<trkpt lat="31.6123873" lon="34.6572679"><ele>125.0</ele><time>2014-11-08T06:29:36Z</time></trkpt>
<trkpt lat="31.6119361" lon="34.6570225"><ele>125.6</ele><time>2014-11-08T06:29:43Z</time></trkpt>
<trkpt lat="31.6114461" lon="34.6568164"><ele>125.4</ele><time>2014-11-08T06:29:50Z</time></trkpt>
<trkpt lat="31.6109482" lon="34.6566094"><ele>123.0</ele><time>2014-11-08T06:29:57Z</time></trkpt>
<trkpt lat="31.6104768" lon="34.6564601"><ele>122.0</ele><time>2014-11-08T06:30:04Z</time></trkpt>
<trkpt lat="31.6100262" lon="34.6563246"><ele>122.1</ele><time>2014-11-08T06:30:12Z</time></trkpt>
<trkpt lat="31.6095721" lon="34.6561557"><ele>122.3</ele><time>2014-11-08T06:30:18Z</time></trkpt>
<trkpt lat="31.6091281" lon="34.6559000"><ele>122.6</ele><time>2014-11-08T06:30:25Z</time></trkpt>
<trkpt lat="31.6087347" lon="34.6555540"><ele>122.8</ele><time>2014-11-08T06:30:32Z</time></trkpt>
<trkpt lat="31.6083693" lon="34.6551370"><ele>123.1</ele><time>2014-11-08T06:30:39Z</time></trkpt>
<trkpt lat="31.6080114" lon="34.6547410"><ele>123.3</ele><time>2014-11-08T06:30:46Z</time></trkpt>
<trkpt lat="31.6076401" lon="34.6543438"><ele>123.5</ele><time>2014-11-08T06:30:53Z</time></trkpt>
<trkpt lat="31.6072924" lon="34.6539788"><ele>123.8</ele><time>2014-11-08T06:30:59Z</time></trkpt>
<trkpt lat="31.6068705" lon="34.6536731"><ele>124.0</ele><time>2014-11-08T06:31:05Z</time></trkpt>
<trkpt lat="31.6064306" lon="34.6534149"><ele>125.4</ele><time>2014-11-08T06:31:12Z</time></trkpt>
<trkpt lat="31.6059963" lon="34.6531533"><ele>127.3</ele><time>2014-11-08T06:31:18Z</time></trkpt>
<trkpt lat="31.6055550" lon="34.6529373"><ele>129.2</ele><time>2014-11-08T06:31:25Z</time></trkpt>
<trkpt lat="31.6050420" lon="34.6528668"><ele>128.7</ele><time>2014-11-08T06:31:32Z</time></trkpt>
<trkpt lat="31.6045493" lon="34.6528564"><ele>128.0</ele><time>2014-11-08T06:31:39Z</time></trkpt>
<trkpt lat="31.6040523" lon="34.6528323"><ele>127.2</ele><time>2014-11-08T06:31:46Z</time></trkpt>
<trkpt lat="31.6036120" lon="34.6527051"><ele>126.3</ele><time>2014-11-08T06:31:52Z</time></trkpt>
<trkpt lat="31.6031434" lon="34.6524848"><ele>125.4</ele><time>2014-11-08T06:31:58Z</time></trkpt>
<trkpt lat="31.6026641" lon="34.6522131"><ele>123.0</ele><time>2014-11-08T06:32:04Z</time></trkpt>
<trkpt lat="31.6022198" lon="34.6519447"><ele>120.0</ele><time>2014-11-08T06:32:09Z</time></trkpt>
<trkpt lat="31.6017745" lon="34.6516681"><ele>117.8</ele><time>2014-11-08T06:32:14Z</time></trkpt>
<trkpt lat="31.6013263" lon="34.6514122"><ele>116.8</ele><time>2014-11-08T06:32:19Z</time></trkpt>
<trkpt lat="31.6008883" lon="34.6511501"><ele>115.5</ele><time>2014-11-08T06:32:24Z</time></trkpt>
<trkpt lat="31.6004659" lon="34.6508921"><ele>113.0</ele><time>2014-11-08T06:32:29Z</time></trkpt>
<trkpt lat="31.6000156" lon="34.6506294"><ele>110.5</ele><time>2014-11-08T06:32:34Z</time></trkpt>
<trkpt lat="31.5995701" lon="34.6503377"><ele>108.0</ele><time>2014-11-08T06:32:39Z</time></trkpt>
<trkpt lat="31.5991029" lon="34.6500052"><ele>105.2</ele><time>2014-11-08T06:32:44Z</time></trkpt>
<trkpt lat="31.5986356" lon="34.6496465"><ele>103.2</ele><time>2014-11-08T06:32:49Z</time></trkpt>
<trkpt lat="31.5981899" lon="34.6492923"><ele>101.8</ele><time>2014-11-08T06:32:54Z</time></trkpt>
<trkpt lat="31.5977643" lon="34.6489543"><ele>101.4</ele><time>2014-11-08T06:32:59Z</time></trkpt>
<trkpt lat="31.5973770" lon="34.6485825"><ele>101.3</ele><time>2014-11-08T06:33:04Z</time></trkpt>
<trkpt lat="31.5969653" lon="34.6482435"><ele>99.5</ele><time>2014-11-08T06:33:09Z</time></trkpt>
<trkpt lat="31.5965565" lon="34.6479158"><ele>97.7</ele><time>2014-11-08T06:33:14Z</time></trkpt>
<trkpt lat="31.5961451" lon="34.6476565"><ele>96.4</ele><time>2014-11-08T06:33:19Z</time></trkpt>
<trkpt lat="31.5957072" lon="34.6474879"><ele>95.0</ele><time>2014-11-08T06:33:24Z</time></trkpt>
<trkpt lat="31.5951671" lon="34.6474206"><ele>94.0</ele><time>2014-11-08T06:33:30Z</time></trkpt>
<trkpt lat="31.5946251" lon="34.6473847"><ele>92.9</ele><time>2014-11-08T06:33:36Z</time></trkpt>
<trkpt lat="31.5941664" lon="34.6473529"><ele>92.0</ele><time>2014-11-08T06:33:41Z</time></trkpt>
<trkpt lat="31.5937145" lon="34.6473642"><ele>91.4</ele><time>2014-11-08T06:33:46Z</time></trkpt>
<trkpt lat="31.5932234" lon="34.6473755"><ele>90.7</ele><time>2014-11-08T06:33:52Z</time></trkpt>
<trkpt lat="31.5927555" lon="34.6473830"><ele>90.0</ele><time>2014-11-08T06:33:58Z</time></trkpt>
<trkpt lat="31.5922646" lon="34.6474085"><ele>89.3</ele><time>2014-11-08T06:34:04Z</time></trkpt>
<trkpt lat="31.5917647" lon="34.6474091"><ele>88.6</ele><time>2014-11-08T06:34:10Z</time></trkpt>
<trkpt lat="31.5912711" lon="34.6474014"><ele>87.8</ele><time>2014-11-08T06:34:16Z</time></trkpt>
<trkpt lat="31.5907942" lon="34.6473883"><ele>86.8</ele><time>2014-11-08T06:34:22Z</time></trkpt>
<trkpt lat="31.5903197" lon="34.6473683"><ele>85.7</ele><time>2014-11-08T06:34:28Z</time></trkpt>
<trkpt lat="31.5898182" lon="34.6473276"><ele>84.6</ele><time>2014-11-08T06:34:35Z</time></trkpt>
<trkpt lat="31.5892875" lon="34.6473030"><ele>83.7</ele><time>2014-11-08T06:34:40Z</time></trkpt>
<trkpt lat="31.5888276" lon="34.6472700"><ele>82.9</ele><time>2014-11-08T06:34:45Z</time></trkpt>
<trkpt lat="31.5882978" lon="34.6472218"><ele>82.6</ele><time>2014-11-08T06:34:51Z</time></trkpt>
<trkpt lat="31.5878363" lon="34.6472018"><ele>82.2</ele><time>2014-11-08T06:34:56Z</time></trkpt>
<trkpt lat="31.5873629" lon="34.6471552"><ele>81.9</ele><time>2014-11-08T06:35:01Z</time></trkpt>
<trkpt lat="31.5868788" lon="34.6471174"><ele>81.2</ele><time>2014-11-08T06:35:06Z</time></trkpt>
<trkpt lat="31.5863516" lon="34.6470644"><ele>80.4</ele><time>2014-11-08T06:35:12Z</time></trkpt>
<trkpt lat="31.5858483" lon="34.6470293"><ele>79.0</ele><time>2014-11-08T06:35:18Z</time></trkpt>
<trkpt lat="31.5853434" lon="34.6469871"><ele>77.4</ele><time>2014-11-08T06:35:24Z</time></trkpt>
<trkpt lat="31.5848479" lon="34.6469685"><ele>76.4</ele><time>2014-11-08T06:35:30Z</time></trkpt>
<trkpt lat="31.5843414" lon="34.6469045"><ele>75.3</ele><time>2014-11-08T06:35:36Z</time></trkpt>
<trkpt lat="31.5838669" lon="34.6468712"><ele>74.7</ele><time>2014-11-08T06:35:42Z</time></trkpt>
<trkpt lat="31.5833626" lon="34.6468303"><ele>74.3</ele><time>2014-11-08T06:35:48Z</time></trkpt>
<trkpt lat="31.5828669" lon="34.6466908"><ele>73.9</ele><time>2014-11-08T06:35:54Z</time></trkpt>
<trkpt lat="31.5823874" lon="34.6465283"><ele>73.4</ele><time>2014-11-08T06:36:00Z</time></trkpt>
<trkpt lat="31.5819079" lon="34.6463630"><ele>72.4</ele><time>2014-11-08T06:36:06Z</time></trkpt>
<trkpt lat="31.5814697" lon="34.6462013"><ele>71.0</ele><time>2014-11-08T06:36:12Z</time></trkpt>
<trkpt lat="31.5809803" lon="34.6460128"><ele>71.0</ele><time>2014-11-08T06:36:19Z</time></trkpt>
<trkpt lat="31.5804895" lon="34.6458167"><ele>70.6</ele><time>2014-11-08T06:36:25Z</time></trkpt>
<trkpt lat="31.5799870" lon="34.6456154"><ele>69.9</ele><time>2014-11-08T06:36:31Z</time></trkpt>
<trkpt lat="31.5795036" lon="34.6453991"><ele>69.2</ele><time>2014-11-08T06:36:37Z</time></trkpt>
<trkpt lat="31.5790484" lon="34.6452200"><ele>68.6</ele><time>2014-11-08T06:36:43Z</time></trkpt>
<trkpt lat="31.5785739" lon="34.6450341"><ele>67.9</ele><time>2014-11-08T06:36:49Z</time></trkpt>
<trkpt lat="31.5781298" lon="34.6449257"><ele>67.6</ele><time>2014-11-08T06:36:56Z</time></trkpt>
<trkpt lat="31.5776434" lon="34.6448614"><ele>67.2</ele><time>2014-11-08T06:37:01Z</time></trkpt>
<trkpt lat="31.5771602" lon="34.6448019"><ele>66.4</ele><time>2014-11-08T06:37:07Z</time></trkpt>
<trkpt lat="31.5766935" lon="34.6447373"><ele>65.4</ele><time>2014-11-08T06:37:13Z</time></trkpt>
<trkpt lat="31.5762107" lon="34.6446652"><ele>65.4</ele><time>2014-11-08T06:37:19Z</time></trkpt>
<trkpt lat="31.5756923" lon="34.6446097"><ele>64.2</ele><time>2014-11-08T06:37:25Z</time></trkpt>
<trkpt lat="31.5752165" lon="34.6445864"><ele>63.6</ele><time>2014-11-08T06:37:31Z</time></trkpt>
<trkpt lat="31.5747415" lon="34.6445989"><ele>63.0</ele><time>2014-11-08T06:37:37Z</time></trkpt>
<trkpt lat="31.5742301" lon="34.6445951"><ele>62.2</ele><time>2014-11-08T06:37:43Z</time></trkpt>
<trkpt lat="31.5737333" lon="34.6446092"><ele>61.4</ele><time>2014-11-08T06:37:49Z</time></trkpt>
<trkpt lat="31.5732425" lon="34.6446152"><ele>60.6</ele><time>2014-11-08T06:37:55Z</time></trkpt>
<trkpt lat="31.5727599" lon="34.6446273"><ele>60.0</ele><time>2014-11-08T06:38:01Z</time></trkpt>
<trkpt lat="31.5722750" lon="34.6446150"><ele>59.9</ele><time>2014-11-08T06:38:07Z</time></trkpt>
<trkpt lat="31.5717879" lon="34.6445676"><ele>59.4</ele><time>2014-11-08T06:38:13Z</time></trkpt>
<trkpt lat="31.5712969" lon="34.6444805"><ele>58.8</ele><time>2014-11-08T06:38:19Z</time></trkpt>
<trkpt lat="31.5708263" lon="34.6443620"><ele>58.3</ele><time>2014-11-08T06:38:25Z</time></trkpt>
<trkpt lat="31.5703918" lon="34.6442187"><ele>57.5</ele><time>2014-11-08T06:38:31Z</time></trkpt>
<trkpt lat="31.5699499" lon="34.6440389"><ele>58.3</ele><time>2014-11-08T06:38:38Z</time></trkpt>
<trkpt lat="31.5695128" lon="34.6438215"><ele>59.0</ele><time>2014-11-08T06:38:45Z</time></trkpt>
<trkpt lat="31.5690863" lon="34.6435601"><ele>60.0</ele><time>2014-11-08T06:38:52Z</time></trkpt>
<trkpt lat="31.5686620" lon="34.6432515"><ele>59.5</ele><time>2014-11-08T06:38:59Z</time></trkpt>
<trkpt lat="31.5682767" lon="34.6429307"><ele>58.9</ele><time>2014-11-08T06:39:06Z</time></trkpt>
<trkpt lat="31.5678975" lon="34.6425577"><ele>58.4</ele><time>2014-11-08T06:39:13Z</time></trkpt>
<trkpt lat="31.5675437" lon="34.6421566"><ele>57.9</ele><time>2014-11-08T06:39:21Z</time></trkpt>
<trkpt lat="31.5672010" lon="34.6417617"><ele>57.4</ele><time>2014-11-08T06:39:28Z</time></trkpt>
<trkpt lat="31.5668541" lon="34.6413522"><ele>57.2</ele><time>2014-11-08T06:39:34Z</time></trkpt>
<trkpt lat="31.5665188" lon="34.6409439"><ele>57.8</ele><time>2014-11-08T06:39:41Z</time></trkpt>
<trkpt lat="31.5661830" lon="34.6405405"><ele>58.5</ele><time>2014-11-08T06:39:48Z</time></trkpt>
<trkpt lat="31.5658494" lon="34.6401387"><ele>59.1</ele><time>2014-11-08T06:39:55Z</time></trkpt>
<trkpt lat="31.5655135" lon="34.6397353"><ele>59.7</ele><time>2014-11-08T06:40:02Z</time></trkpt>
<trkpt lat="31.5651494" lon="34.6393528"><ele>59.9</ele><time>2014-11-08T06:40:10Z</time></trkpt>
<trkpt lat="31.5647667" lon="34.6390009"><ele>59.8</ele><time>2014-11-08T06:40:16Z</time></trkpt>
<trkpt lat="31.5643860" lon="34.6386461"><ele>59.6</ele><time>2014-11-08T06:40:23Z</time></trkpt>
<trkpt lat="31.5640043" lon="34.6383013"><ele>59.5</ele><time>2014-11-08T06:40:30Z</time></trkpt>
<trkpt lat="31.5636183" lon="34.6379564"><ele>59.3</ele><time>2014-11-08T06:40:37Z</time></trkpt>
<trkpt lat="31.5632300" lon="34.6376007"><ele>59.2</ele><time>2014-11-08T06:40:44Z</time></trkpt>
<trkpt lat="31.5628346" lon="34.6372642"><ele>59.0</ele><time>2014-11-08T06:40:51Z</time></trkpt>
<trkpt lat="31.5624525" lon="34.6369332"><ele>58.9</ele><time>2014-11-08T06:40:59Z</time></trkpt>
<trkpt lat="31.5620581" lon="34.6365729"><ele>58.7</ele><time>2014-11-08T06:41:06Z</time></trkpt>
<trkpt lat="31.5616431" lon="34.6362143"><ele>58.5</ele><time>2014-11-08T06:41:15Z</time></trkpt>
<trkpt lat="31.5612633" lon="34.6358681"><ele>58.3</ele><time>2014-11-08T06:41:23Z</time></trkpt>
<trkpt lat="31.5608630" lon="34.6355161"><ele>58.2</ele><time>2014-11-08T06:41:31Z</time></trkpt>
<trkpt lat="31.5604569" lon="34.6351524"><ele>58.0</ele><time>2014-11-08T06:41:39Z</time></trkpt>
<trkpt lat="31.5600887" lon="34.6348364"><ele>57.9</ele><time>2014-11-08T06:41:46Z</time></trkpt>
<trkpt lat="31.5597054" lon="34.6344894"><ele>57.7</ele><time>2014-11-08T06:41:54Z</time></trkpt>
<trkpt lat="31.5593299" lon="34.6341552"><ele>57.5</ele><time>2014-11-08T06:42:02Z</time></trkpt>
<trkpt lat="31.5589620" lon="34.6338457"><ele>57.4</ele><time>2014-11-08T06:42:09Z</time></trkpt>
<trkpt lat="31.5585846" lon="34.6335015"><ele>57.2</ele><time>2014-11-08T06:42:16Z</time></trkpt>
<trkpt lat="31.5582242" lon="34.6331723"><ele>57.1</ele><time>2014-11-08T06:42:23Z</time></trkpt>
<trkpt lat="31.5578484" lon="34.6328457"><ele>57.4</ele><time>2014-11-08T06:42:30Z</time></trkpt>
<trkpt lat="31.5574773" lon="34.6324978"><ele>58.0</ele><time>2014-11-08T06:42:37Z</time></trkpt>
<trkpt lat="31.5570749" lon="34.6321289"><ele>58.7</ele><time>2014-11-08T06:42:45Z</time></trkpt>
<trkpt lat="31.5566686" lon="34.6318192"><ele>59.4</ele><time>2014-11-08T06:42:53Z</time></trkpt>
<trkpt lat="31.5562306" lon="34.6315362"><ele>60.0</ele><time>2014-11-08T06:43:01Z</time></trkpt>
<trkpt lat="31.5558367" lon="34.6312768"><ele>59.8</ele><time>2014-11-08T06:43:08Z</time></trkpt>
<trkpt lat="31.5553929" lon="34.6310288"><ele>59.2</ele><time>2014-11-08T06:43:16Z</time></trkpt>
<trkpt lat="31.5549863" lon="34.6307745"><ele>58.6</ele><time>2014-11-08T06:43:23Z</time></trkpt>
<trkpt lat="31.5545829" lon="34.6305131"><ele>58.0</ele><time>2014-11-08T06:43:30Z</time></trkpt>
<trkpt lat="31.5541599" lon="34.6302476"><ele>57.5</ele><time>2014-11-08T06:43:37Z</time></trkpt>
<trkpt lat="31.5537458" lon="34.6300301"><ele>56.9</ele><time>2014-11-08T06:43:44Z</time></trkpt>
<trkpt lat="31.5535451" lon="34.6299371"><ele>56.7</ele><time>2014-11-08T06:43:47Z</time></trkpt>
<trkpt lat="31.5531861" lon="34.6296602"><ele>56.2</ele><time>2014-11-08T06:43:53Z</time></trkpt>
<trkpt lat="31.5527598" lon="34.6293355"><ele>55.0</ele><time>2014-11-08T06:44:00Z</time></trkpt>
<trkpt lat="31.5523318" lon="34.6290368"><ele>55.8</ele><time>2014-11-08T06:44:08Z</time></trkpt>
<trkpt lat="31.5519096" lon="34.6287073"><ele>55.1</ele><time>2014-11-08T06:44:16Z</time></trkpt>
<trkpt lat="31.5514930" lon="34.6283971"><ele>54.4</ele><time>2014-11-08T06:44:24Z</time></trkpt>
<trkpt lat="31.5510957" lon="34.6280992"><ele>53.5</ele><time>2014-11-08T06:44:31Z</time></trkpt>
<trkpt lat="31.5506849" lon="34.6278052"><ele>54.1</ele><time>2014-11-08T06:44:38Z</time></trkpt>
<trkpt lat="31.5502391" lon="34.6274957"><ele>56.0</ele><time>2014-11-08T06:44:45Z</time></trkpt>
<trkpt lat="31.5498357" lon="34.6271847"><ele>55.2</ele><time>2014-11-08T06:44:52Z</time></trkpt>
<trkpt lat="31.5494378" lon="34.6268632"><ele>55.9</ele><time>2014-11-08T06:44:59Z</time></trkpt>
<trkpt lat="31.5490302" lon="34.6265500"><ele>56.5</ele><time>2014-11-08T06:45:06Z</time></trkpt>
<trkpt lat="31.5486376" lon="34.6262014"><ele>57.0</ele><time>2014-11-08T06:45:13Z</time></trkpt>
<trkpt lat="31.5482741" lon="34.6258479"><ele>56.8</ele><time>2014-11-08T06:45:20Z</time></trkpt>
<trkpt lat="31.5480786" lon="34.6256448"><ele>56.5</ele><time>2014-11-08T06:45:25Z</time></trkpt>
<trkpt lat="31.5480051" lon="34.6255992"><ele>56.5</ele><time>2014-11-08T06:45:25Z</time></trkpt>
<trkpt lat="31.5476292" lon="34.6252121"><ele>56.1</ele><time>2014-11-08T06:45:32Z</time></trkpt>
<trkpt lat="31.5474231" lon="34.6249901"><ele>56.0</ele><time>2014-11-08T06:45:36Z</time></trkpt>
<trkpt lat="31.5473728" lon="34.6248935"><ele>56.0</ele><time>2014-11-08T06:45:37Z</time></trkpt>
<trkpt lat="31.5473240" lon="34.6248952"><ele>56.0</ele><time>2014-11-08T06:45:38Z</time></trkpt>
<trkpt lat="31.5469609" lon="34.6246229"><ele>57.0</ele><time>2014-11-08T06:45:44Z</time></trkpt>
<trkpt lat="31.5465778" lon="34.6242312"><ele>58.4</ele><time>2014-11-08T06:45:52Z</time></trkpt>
<trkpt lat="31.5461918" lon="34.6238676"><ele>58.5</ele><time>2014-11-08T06:45:58Z</time></trkpt>
<trkpt lat="31.5458082" lon="34.6234822"><ele>57.7</ele><time>2014-11-08T06:46:05Z</time></trkpt>
<trkpt lat="31.5454344" lon="34.6231118"><ele>57.0</ele><time>2014-11-08T06:46:12Z</time></trkpt>
<trkpt lat="31.5450783" lon="34.6227435"><ele>57.0</ele><time>2014-11-08T06:46:19Z</time></trkpt>
<trkpt lat="31.5447089" lon="34.6223970"><ele>57.5</ele><time>2014-11-08T06:46:26Z</time></trkpt>
<trkpt lat="31.5443272" lon="34.6220310"><ele>58.5</ele><time>2014-11-08T06:46:33Z</time></trkpt>
<trkpt lat="31.5439393" lon="34.6216894"><ele>59.4</ele><time>2014-11-08T06:46:40Z</time></trkpt>
<trkpt lat="31.5435577" lon="34.6213879"><ele>61.0</ele><time>2014-11-08T06:46:47Z</time></trkpt>
<trkpt lat="31.5431513" lon="34.6210751"><ele>63.5</ele><time>2014-11-08T06:46:54Z</time></trkpt>
<trkpt lat="31.5427685" lon="34.6207125"><ele>66.0</ele><time>2014-11-08T06:47:01Z</time></trkpt>
<trkpt lat="31.5424061" lon="34.6203201"><ele>67.9</ele><time>2014-11-08T06:47:08Z</time></trkpt>
<trkpt lat="31.5420472" lon="34.6199179"><ele>69.5</ele><time>2014-11-08T06:47:15Z</time></trkpt>
<trkpt lat="31.5417066" lon="34.6195172"><ele>70.8</ele><time>2014-11-08T06:47:22Z</time></trkpt>
<trkpt lat="31.5413574" lon="34.6191150"><ele>72.0</ele><time>2014-11-08T06:47:29Z</time></trkpt>
<trkpt lat="31.5412690" lon="34.6189946"><ele>71.6</ele><time>2014-11-08T06:47:31Z</time></trkpt>
<trkpt lat="31.5412168" lon="34.6190012"><ele>71.4</ele><time>2014-11-08T06:47:32Z</time></trkpt>
<trkpt lat="31.5411523" lon="34.6189443"><ele>71.2</ele><time>2014-11-08T06:47:34Z</time></trkpt>
<trkpt lat="31.5408454" lon="34.6185273"><ele>70.2</ele><time>2014-11-08T06:47:39Z</time></trkpt>
<trkpt lat="31.5404820" lon="34.6181498"><ele>70.0</ele><time>2014-11-08T06:47:46Z</time></trkpt>
<trkpt lat="31.5401155" lon="34.6177174"><ele>68.1</ele><time>2014-11-08T06:47:53Z</time></trkpt>
<trkpt lat="31.5397836" lon="34.6173391"><ele>68.6</ele><time>2014-11-08T06:47:59Z</time></trkpt>
<trkpt lat="31.5396569" lon="34.6171304"><ele>68.8</ele><time>2014-11-08T06:48:01Z</time></trkpt>
<trkpt lat="31.5394746" lon="34.6169798"><ele>69.1</ele><time>2014-11-08T06:48:04Z</time></trkpt>
<trkpt lat="31.5390970" lon="34.6165606"><ele>69.9</ele><time>2014-11-08T06:48:10Z</time></trkpt>
<trkpt lat="31.5386881" lon="34.6161422"><ele>70.6</ele><time>2014-11-08T06:48:16Z</time></trkpt>
<trkpt lat="31.5383480" lon="34.6157923"><ele>71.4</ele><time>2014-11-08T06:48:21Z</time></trkpt>
<trkpt lat="31.5379382" lon="34.6154240"><ele>72.5</ele><time>2014-11-08T06:48:27Z</time></trkpt>
<trkpt lat="31.5375365" lon="34.6151204"><ele>73.6</ele><time>2014-11-08T06:48:34Z</time></trkpt>
<trkpt lat="31.5371065" lon="34.6148740"><ele>75.3</ele><time>2014-11-08T06:48:39Z</time></trkpt>
<trkpt lat="31.5366414" lon="34.6146180"><ele>76.0</ele><time>2014-11-08T06:48:45Z</time></trkpt>
<trkpt lat="31.5362019" lon="34.6143823"><ele>77.7</ele><time>2014-11-08T06:48:51Z</time></trkpt>
<trkpt lat="31.5357383" lon="34.6141162"><ele>80.0</ele><time>2014-11-08T06:48:58Z</time></trkpt>
<trkpt lat="31.5352973" lon="34.6138643"><ele>80.7</ele><time>2014-11-08T06:49:06Z</time></trkpt>
<trkpt lat="31.5348884" lon="34.6136148"><ele>81.5</ele><time>2014-11-08T06:49:12Z</time></trkpt>
<trkpt lat="31.5344845" lon="34.6133373"><ele>82.4</ele><time>2014-11-08T06:49:19Z</time></trkpt>
<trkpt lat="31.5340680" lon="34.6130255"><ele>83.0</ele><time>2014-11-08T06:49:26Z</time></trkpt>
<trkpt lat="31.5336488" lon="34.6127326"><ele>83.2</ele><time>2014-11-08T06:49:33Z</time></trkpt>
<trkpt lat="31.5332433" lon="34.6124295"><ele>83.6</ele><time>2014-11-08T06:49:40Z</time></trkpt>
<trkpt lat="31.5327954" lon="34.6121458"><ele>84.0</ele><time>2014-11-08T06:49:47Z</time></trkpt>
<trkpt lat="31.5323427" lon="34.6118762"><ele>84.7</ele><time>2014-11-08T06:49:54Z</time></trkpt>
<trkpt lat="31.5318853" lon="34.6115736"><ele>85.4</ele><time>2014-11-08T06:50:01Z</time></trkpt>
<trkpt lat="31.5314874" lon="34.6113239"><ele>85.3</ele><time>2014-11-08T06:50:07Z</time></trkpt>
<trkpt lat="31.5310805" lon="34.6110727"><ele>85.7</ele><time>2014-11-08T06:50:13Z</time></trkpt>
<trkpt lat="31.5306435" lon="34.6108375"><ele>86.1</ele><time>2014-11-08T06:50:19Z</time></trkpt>
<trkpt lat="31.5302323" lon="34.6105972"><ele>86.5</ele><time>2014-11-08T06:50:25Z</time></trkpt>
<trkpt lat="31.5297709" lon="34.6103303"><ele>86.9</ele><time>2014-11-08T06:50:31Z</time></trkpt>
<trkpt lat="31.5293237" lon="34.6100293"><ele>89.0</ele><time>2014-11-08T06:50:38Z</time></trkpt>
<trkpt lat="31.5288830" lon="34.6097429"><ele>89.3</ele><time>2014-11-08T06:50:43Z</time></trkpt>
<trkpt lat="31.5284826" lon="34.6094244"><ele>90.9</ele><time>2014-11-08T06:50:49Z</time></trkpt>
<trkpt lat="31.5280972" lon="34.6091407"><ele>91.2</ele><time>2014-11-08T06:50:56Z</time></trkpt>
<trkpt lat="31.5278912" lon="34.6089894"><ele>90.0</ele><time>2014-11-08T06:50:59Z</time></trkpt>
<trkpt lat="31.5278367" lon="34.6089048"><ele>90.1</ele><time>2014-11-08T06:50:59Z</time></trkpt>
<trkpt lat="31.5274181" lon="34.6086195"><ele>90.6</ele><time>2014-11-08T06:51:05Z</time></trkpt>
<trkpt lat="31.5270338" lon="34.6082961"><ele>91.1</ele><time>2014-11-08T06:51:11Z</time></trkpt>
<trkpt lat="31.5266555" lon="34.6079605"><ele>91.9</ele><time>2014-11-08T06:51:17Z</time></trkpt>
<trkpt lat="31.5263041" lon="34.6075799"><ele>92.6</ele><time>2014-11-08T06:51:23Z</time></trkpt>
<trkpt lat="31.5261026" lon="34.6073125"><ele>93.0</ele><time>2014-11-08T06:51:26Z</time></trkpt>
<trkpt lat="31.5260119" lon="34.6072296"><ele>92.8</ele><time>2014-11-08T06:51:27Z</time></trkpt>
<trkpt lat="31.5258994" lon="34.6072716"><ele>92.6</ele><time>2014-11-08T06:51:28Z</time></trkpt>
<trkpt lat="31.5259336" lon="34.6072225"><ele>92.5</ele><time>2014-11-08T06:51:29Z</time></trkpt>
<trkpt lat="31.5258867" lon="34.6072095"><ele>92.3</ele><time>2014-11-08T06:51:30Z</time></trkpt>
<trkpt lat="31.5258111" lon="34.6071311"><ele>92.1</ele><time>2014-11-08T06:51:31Z</time></trkpt>
<trkpt lat="31.5256733" lon="34.6069000"><ele>91.8</ele><time>2014-11-08T06:51:33Z</time></trkpt>
<trkpt lat="31.5253086" lon="34.6064358"><ele>90.7</ele><time>2014-11-08T06:51:39Z</time></trkpt>
<trkpt lat="31.5250114" lon="34.6060214"><ele>90.0</ele><time>2014-11-08T06:51:44Z</time></trkpt>
<trkpt lat="31.5246746" lon="34.6056548"><ele>90.0</ele><time>2014-11-08T06:51:49Z</time></trkpt>
<trkpt lat="31.5243603" lon="34.6052513"><ele>89.2</ele><time>2014-11-08T06:51:54Z</time></trkpt>
<trkpt lat="31.5240478" lon="34.6048487"><ele>89.4</ele><time>2014-11-08T06:51:59Z</time></trkpt>
<trkpt lat="31.5236910" lon="34.6043880"><ele>89.9</ele><time>2014-11-08T06:52:05Z</time></trkpt>
<trkpt lat="31.5233338" lon="34.6039658"><ele>90.0</ele><time>2014-11-08T06:52:11Z</time></trkpt>
<trkpt lat="31.5229805" lon="34.6035849"><ele>92.0</ele><time>2014-11-08T06:52:17Z</time></trkpt>
<trkpt lat="31.5226090" lon="34.6032245"><ele>92.6</ele><time>2014-11-08T06:52:23Z</time></trkpt>
<trkpt lat="31.5221917" lon="34.6028429"><ele>92.7</ele><time>2014-11-08T06:52:29Z</time></trkpt>
<trkpt lat="31.5217392" lon="34.6024735"><ele>91.6</ele><time>2014-11-08T06:52:36Z</time></trkpt>
<trkpt lat="31.5213499" lon="34.6021433"><ele>90.7</ele><time>2014-11-08T06:52:40Z</time></trkpt>
<trkpt lat="31.5209595" lon="34.6017926"><ele>90.1</ele><time>2014-11-08T06:52:45Z</time></trkpt>
<trkpt lat="31.5205803" lon="34.6014563"><ele>90.5</ele><time>2014-11-08T06:52:50Z</time></trkpt>
<trkpt lat="31.5201892" lon="34.6011291"><ele>91.0</ele><time>2014-11-08T06:52:55Z</time></trkpt>
<trkpt lat="31.5198079" lon="34.6008011"><ele>91.8</ele><time>2014-11-08T06:53:00Z</time></trkpt>
<trkpt lat="31.5193877" lon="34.6004526"><ele>94.0</ele><time>2014-11-08T06:53:06Z</time></trkpt>
<trkpt lat="31.5189928" lon="34.6000878"><ele>97.0</ele><time>2014-11-08T06:53:12Z</time></trkpt>
<trkpt lat="31.5185860" lon="34.5997091"><ele>99.2</ele><time>2014-11-08T06:53:18Z</time></trkpt>
<trkpt lat="31.5181784" lon="34.5993941"><ele>101.0</ele><time>2014-11-08T06:53:24Z</time></trkpt>
<trkpt lat="31.5177841" lon="34.5991073"><ele>101.5</ele><time>2014-11-08T06:53:30Z</time></trkpt>
<trkpt lat="31.5173824" lon="34.5988158"><ele>103.5</ele><time>2014-11-08T06:53:37Z</time></trkpt>
<trkpt lat="31.5169643" lon="34.5985492"><ele>104.8</ele><time>2014-11-08T06:53:44Z</time></trkpt>
<trkpt lat="31.5165582" lon="34.5982996"><ele>105.0</ele><time>2014-11-08T06:53:50Z</time></trkpt>
<trkpt lat="31.5160992" lon="34.5980210"><ele>106.1</ele><time>2014-11-08T06:53:57Z</time></trkpt>
<trkpt lat="31.5156433" lon="34.5977604"><ele>107.4</ele><time>2014-11-08T06:54:04Z</time></trkpt>
<trkpt lat="31.5151926" lon="34.5975205"><ele>107.9</ele><time>2014-11-08T06:54:11Z</time></trkpt>
<trkpt lat="31.5147134" lon="34.5972837"><ele>107.7</ele><time>2014-11-08T06:54:18Z</time></trkpt>
<trkpt lat="31.5142803" lon="34.5970631"><ele>107.5</ele><time>2014-11-08T06:54:24Z</time></trkpt>
<trkpt lat="31.5138000" lon="34.5968291"><ele>107.3</ele><time>2014-11-08T06:54:31Z</time></trkpt>
<trkpt lat="31.5133839" lon="34.5966181"><ele>107.2</ele><time>2014-11-08T06:54:37Z</time></trkpt>
<trkpt lat="31.5129255" lon="34.5963247"><ele>107.0</ele><time>2014-11-08T06:54:44Z</time></trkpt>
<trkpt lat="31.5125400" lon="34.5960489"><ele>106.8</ele><time>2014-11-08T06:54:51Z</time></trkpt>
<trkpt lat="31.5121536" lon="34.5957142"><ele>106.7</ele><time>2014-11-08T06:54:56Z</time></trkpt>
<trkpt lat="31.5117709" lon="34.5953609"><ele>106.5</ele><time>2014-11-08T06:55:02Z</time></trkpt>
<trkpt lat="31.5114367" lon="34.5949647"><ele>106.3</ele><time>2014-11-08T06:55:08Z</time></trkpt>
<trkpt lat="31.5110916" lon="34.5945344"><ele>106.2</ele><time>2014-11-08T06:55:14Z</time></trkpt>
<trkpt lat="31.5107437" lon="34.5940614"><ele>106.0</ele><time>2014-11-08T06:55:20Z</time></trkpt>
<trkpt lat="31.5104511" lon="34.5935301"><ele>105.5</ele><time>2014-11-08T06:55:26Z</time></trkpt>
<trkpt lat="31.5102188" lon="34.5930745"><ele>105.0</ele><time>2014-11-08T06:55:31Z</time></trkpt>
<trkpt lat="31.5100070" lon="34.5925756"><ele>105.2</ele><time>2014-11-08T06:55:36Z</time></trkpt>
<trkpt lat="31.5098185" lon="34.5920811"><ele>105.5</ele><time>2014-11-08T06:55:42Z</time></trkpt>
<trkpt lat="31.5096354" lon="34.5915861"><ele>105.7</ele><time>2014-11-08T06:55:46Z</time></trkpt>
<trkpt lat="31.5094632" lon="34.5910702"><ele>105.9</ele><time>2014-11-08T06:55:51Z</time></trkpt>
<trkpt lat="31.5092796" lon="34.5905490"><ele>107.4</ele><time>2014-11-08T06:55:56Z</time></trkpt>
<trkpt lat="31.5090743" lon="34.5900430"><ele>108.6</ele><time>2014-11-08T06:56:02Z</time></trkpt>
<trkpt lat="31.5088543" lon="34.5895578"><ele>107.9</ele><time>2014-11-08T06:56:06Z</time></trkpt>
<trkpt lat="31.5085926" lon="34.5890476"><ele>107.5</ele><time>2014-11-08T06:56:12Z</time></trkpt>
<trkpt lat="31.5083979" lon="34.5885265"><ele>107.2</ele><time>2014-11-08T06:56:18Z</time></trkpt>
<trkpt lat="31.5081745" lon="34.5879777"><ele>107.0</ele><time>2014-11-08T06:56:24Z</time></trkpt>
<trkpt lat="31.5080737" lon="34.5877037"><ele>107.0</ele><time>2014-11-08T06:56:27Z</time></trkpt>
<trkpt lat="31.5078596" lon="34.5873642"><ele>106.3</ele><time>2014-11-08T06:56:33Z</time></trkpt>
<trkpt lat="31.5077901" lon="34.5871598"><ele>105.8</ele><time>2014-11-08T06:56:36Z</time></trkpt>
<trkpt lat="31.5079309" lon="34.5869585"><ele>105.7</ele><time>2014-11-08T06:56:37Z</time></trkpt>
<trkpt lat="31.5079790" lon="34.5868314"><ele>105.6</ele><time>2014-11-08T06:56:38Z</time></trkpt>
<trkpt lat="31.5079830" lon="34.5866642"><ele>105.4</ele><time>2014-11-08T06:56:40Z</time></trkpt>
<trkpt lat="31.5080357" lon="34.5865618"><ele>105.3</ele><time>2014-11-08T06:56:40Z</time></trkpt>
<trkpt lat="31.5081271" lon="34.5865200"><ele>105.2</ele><time>2014-11-08T06:56:41Z</time></trkpt>
<trkpt lat="31.5083832" lon="34.5865059"><ele>104.9</ele><time>2014-11-08T06:56:43Z</time></trkpt>
<trkpt lat="31.5085907" lon="34.5863726"><ele>104.5</ele><time>2014-11-08T06:56:46Z</time></trkpt>
<trkpt lat="31.5086238" lon="34.5863212"><ele>104.4</ele><time>2014-11-08T06:56:47Z</time></trkpt>
<trkpt lat="31.5086124" lon="34.5861123"><ele>104.0</ele><time>2014-11-08T06:56:51Z</time></trkpt>
<trkpt lat="31.5085721" lon="34.5860482"><ele>103.8</ele><time>2014-11-08T06:56:52Z</time></trkpt>
<trkpt lat="31.5085192" lon="34.5860558"><ele>103.7</ele><time>2014-11-08T06:56:52Z</time></trkpt>
<trkpt lat="31.5082388" lon="34.5855421"><ele>102.6</ele><time>2014-11-08T06:56:58Z</time></trkpt>
<trkpt lat="31.5080921" lon="34.5853110"><ele>102.1</ele><time>2014-11-08T06:57:01Z</time></trkpt>
<trkpt lat="31.5080167" lon="34.5852630"><ele>101.9</ele><time>2014-11-08T06:57:02Z</time></trkpt>
<trkpt lat="31.5077755" lon="34.5849431"><ele>101.2</ele><time>2014-11-08T06:57:06Z</time></trkpt>
<trkpt lat="31.5076000" lon="34.5847917"><ele>100.9</ele><time>2014-11-08T06:57:08Z</time></trkpt>
<trkpt lat="31.5073952" lon="34.5847398"><ele>100.8</ele><time>2014-11-08T06:57:10Z</time></trkpt>
<trkpt lat="31.5071916" lon="34.5845537"><ele>100.6</ele><time>2014-11-08T06:57:13Z</time></trkpt>
<trkpt lat="31.5068047" lon="34.5841134"><ele>100.3</ele><time>2014-11-08T06:57:20Z</time></trkpt>
<trkpt lat="31.5064726" lon="34.5837180"><ele>100.0</ele><time>2014-11-08T06:57:24Z</time></trkpt>
<trkpt lat="31.5061299" lon="34.5832733"><ele>99.7</ele><time>2014-11-08T06:57:30Z</time></trkpt>
<trkpt lat="31.5058063" lon="34.5827991"><ele>99.4</ele><time>2014-11-08T06:57:35Z</time></trkpt>
<trkpt lat="31.5056471" lon="34.5826283"><ele>99.3</ele><time>2014-11-08T06:57:36Z</time></trkpt>
<trkpt lat="31.5054833" lon="34.5823656"><ele>99.1</ele><time>2014-11-08T06:57:40Z</time></trkpt>
<trkpt lat="31.5054510" lon="34.5821376"><ele>99.0</ele><time>2014-11-08T06:57:41Z</time></trkpt>
<trkpt lat="31.5052011" lon="34.5815843"><ele>98.6</ele><time>2014-11-08T06:57:47Z</time></trkpt>
<trkpt lat="31.5049767" lon="34.5811076"><ele>98.2</ele><time>2014-11-08T06:57:53Z</time></trkpt>
<trkpt lat="31.5048759" lon="34.5810712"><ele>98.1</ele><time>2014-11-08T06:57:55Z</time></trkpt>
<trkpt lat="31.5048032" lon="34.5809864"><ele>98.0</ele><time>2014-11-08T06:57:57Z</time></trkpt>
<trkpt lat="31.5047325" lon="34.5808572"><ele>98.6</ele><time>2014-11-08T06:57:59Z</time></trkpt>
<trkpt lat="31.5046629" lon="34.5805408"><ele>99.5</ele><time>2014-11-08T06:58:02Z</time></trkpt>
<trkpt lat="31.5045475" lon="34.5801817"><ele>100.7</ele><time>2014-11-08T06:58:06Z</time></trkpt>
<trkpt lat="31.5044863" lon="34.5799670"><ele>101.0</ele><time>2014-11-08T06:58:10Z</time></trkpt>
<trkpt lat="31.5044772" lon="34.5798432"><ele>101.0</ele><time>2014-11-08T06:58:11Z</time></trkpt>
<trkpt lat="31.5043469" lon="34.5793997"><ele>100.4</ele><time>2014-11-08T06:58:13Z</time></trkpt>
<trkpt lat="31.5042922" lon="34.5793844"><ele>99.7</ele><time>2014-11-08T06:58:14Z</time></trkpt>
<trkpt lat="31.5041680" lon="34.5790153"><ele>98.1</ele><time>2014-11-08T06:58:22Z</time></trkpt>
<trkpt lat="31.5041009" lon="34.5784783"><ele>98.7</ele><time>2014-11-08T06:58:26Z</time></trkpt>
<trkpt lat="31.5039827" lon="34.5780589"><ele>97.9</ele><time>2014-11-08T06:58:31Z</time></trkpt>
<trkpt lat="31.5039138" lon="34.5777214"><ele>97.6</ele><time>2014-11-08T06:58:34Z</time></trkpt>
<trkpt lat="31.5039224" lon="34.5776173"><ele>97.5</ele><time>2014-11-08T06:58:35Z</time></trkpt>
<trkpt lat="31.5038606" lon="34.5773239"><ele>97.0</ele><time>2014-11-08T06:58:39Z</time></trkpt>
<trkpt lat="31.5038145" lon="34.5772747"><ele>96.9</ele><time>2014-11-08T06:58:40Z</time></trkpt>
<trkpt lat="31.5037751" lon="34.5767121"><ele>96.1</ele><time>2014-11-08T06:58:47Z</time></trkpt>
<trkpt lat="31.5037189" lon="34.5761190"><ele>95.2</ele><time>2014-11-08T06:58:55Z</time></trkpt>
<trkpt lat="31.5036626" lon="34.5758346"><ele>94.8</ele><time>2014-11-08T06:58:59Z</time></trkpt>
<trkpt lat="31.5036882" lon="34.5754645"><ele>94.4</ele><time>2014-11-08T06:59:03Z</time></trkpt>
<trkpt lat="31.5036166" lon="34.5755541"><ele>94.3</ele><time>2014-11-08T06:59:04Z</time></trkpt>
<trkpt lat="31.5035815" lon="34.5755507"><ele>94.2</ele><time>2014-11-08T06:59:05Z</time></trkpt>
<trkpt lat="31.5035603" lon="34.5754161"><ele>94.0</ele><time>2014-11-08T06:59:07Z</time></trkpt>
<trkpt lat="31.5035438" lon="34.5748112"><ele>95.9</ele><time>2014-11-08T06:59:13Z</time></trkpt>
<trkpt lat="31.5035213" lon="34.5742029"><ele>95.3</ele><time>2014-11-08T06:59:20Z</time></trkpt>
<trkpt lat="31.5034953" lon="34.5736050"><ele>96.5</ele><time>2014-11-08T06:59:27Z</time></trkpt>
<trkpt lat="31.5034867" lon="34.5734400"><ele>96.8</ele><time>2014-11-08T06:59:29Z</time></trkpt>
<trkpt lat="31.5035417" lon="34.5728912"><ele>96.3</ele><time>2014-11-08T06:59:34Z</time></trkpt>
<trkpt lat="31.5036527" lon="34.5722863"><ele>94.6</ele><time>2014-11-08T06:59:42Z</time></trkpt>
<trkpt lat="31.5037393" lon="34.5716855"><ele>93.0</ele><time>2014-11-08T06:59:49Z</time></trkpt>
<trkpt lat="31.5039015" lon="34.5711306"><ele>92.3</ele><time>2014-11-08T06:59:55Z</time></trkpt>
<trkpt lat="31.5039525" lon="34.5705224"><ele>91.2</ele><time>2014-11-08T07:00:02Z</time></trkpt>
<trkpt lat="31.5040062" lon="34.5702231"><ele>91.2</ele><time>2014-11-08T07:00:04Z</time></trkpt>
<trkpt lat="31.5041186" lon="34.5699257"><ele>91.5</ele><time>2014-11-08T07:00:08Z</time></trkpt>
<trkpt lat="31.5042079" lon="34.5693139"><ele>91.6</ele><time>2014-11-08T07:00:15Z</time></trkpt>
<trkpt lat="31.5042398" lon="34.5690987"><ele>91.1</ele><time>2014-11-08T07:00:16Z</time></trkpt>
<trkpt lat="31.5043143" lon="34.5689403"><ele>90.4</ele><time>2014-11-08T07:00:18Z</time></trkpt>
<trkpt lat="31.5043890" lon="34.5684638"><ele>89.0</ele><time>2014-11-08T07:00:22Z</time></trkpt>
<trkpt lat="31.5044223" lon="34.5678818"><ele>86.9</ele><time>2014-11-08T07:00:29Z</time></trkpt>
<trkpt lat="31.5044838" lon="34.5673207"><ele>85.3</ele><time>2014-11-08T07:00:35Z</time></trkpt>
<trkpt lat="31.5045842" lon="34.5667078"><ele>81.7</ele><time>2014-11-08T07:00:41Z</time></trkpt>
<trkpt lat="31.5045582" lon="34.5666095"><ele>81.0</ele><time>2014-11-08T07:00:42Z</time></trkpt>
<trkpt lat="31.5046520" lon="34.5660825"><ele>84.0</ele><time>2014-11-08T07:00:48Z</time></trkpt>
<trkpt lat="31.5046593" lon="34.5658483"><ele>84.3</ele><time>2014-11-08T07:00:50Z</time></trkpt>
<trkpt lat="31.5047445" lon="34.5654514"><ele>85.0</ele><time>2014-11-08T07:00:56Z</time></trkpt>
<trkpt lat="31.5047301" lon="34.5653010"><ele>85.2</ele><time>2014-11-08T07:00:58Z</time></trkpt>
<trkpt lat="31.5048360" lon="34.5647676"><ele>86.0</ele><time>2014-11-08T07:01:04Z</time></trkpt>
<trkpt lat="31.5049299" lon="34.5642156"><ele>85.0</ele><time>2014-11-08T07:01:10Z</time></trkpt>
<trkpt lat="31.5050415" lon="34.5636230"><ele>90.7</ele><time>2014-11-08T07:01:17Z</time></trkpt>
<trkpt lat="31.5051271" lon="34.5630594"><ele>94.9</ele><time>2014-11-08T07:01:24Z</time></trkpt>
<trkpt lat="31.5052399" lon="34.5625100"><ele>96.7</ele><time>2014-11-08T07:01:29Z</time></trkpt>
<trkpt lat="31.5053775" lon="34.5619975"><ele>96.2</ele><time>2014-11-08T07:01:36Z</time></trkpt>
<trkpt lat="31.5055288" lon="34.5614869"><ele>95.4</ele><time>2014-11-08T07:01:40Z</time></trkpt>
<trkpt lat="31.5056557" lon="34.5609976"><ele>94.7</ele><time>2014-11-08T07:01:45Z</time></trkpt>
<trkpt lat="31.5058047" lon="34.5604973"><ele>94.3</ele><time>2014-11-08T07:01:50Z</time></trkpt>
<trkpt lat="31.5058259" lon="34.5603567"><ele>94.2</ele><time>2014-11-08T07:01:51Z</time></trkpt>
<trkpt lat="31.5059039" lon="34.5600762"><ele>93.8</ele><time>2014-11-08T07:01:54Z</time></trkpt>
<trkpt lat="31.5059445" lon="34.5597476"><ele>93.0</ele><time>2014-11-08T07:01:57Z</time></trkpt>
<trkpt lat="31.5060362" lon="34.5594101"><ele>92.2</ele><time>2014-11-08T07:02:00Z</time></trkpt>
<trkpt lat="31.5059414" lon="34.5594020"><ele>92.0</ele><time>2014-11-08T07:02:01Z</time></trkpt>
<trkpt lat="31.5059690" lon="34.5592329"><ele>91.2</ele><time>2014-11-08T07:02:04Z</time></trkpt>
<trkpt lat="31.5060528" lon="34.5589836"><ele>90.7</ele><time>2014-11-08T07:02:06Z</time></trkpt>
<trkpt lat="31.5061274" lon="34.5584235"><ele>89.0</ele><time>2014-11-08T07:02:12Z</time></trkpt>
<trkpt lat="31.5061362" lon="34.5578110"><ele>86.8</ele><time>2014-11-08T07:02:17Z</time></trkpt>
<trkpt lat="31.5061038" lon="34.5576445"><ele>85.9</ele><time>2014-11-08T07:02:18Z</time></trkpt>
<trkpt lat="31.5060220" lon="34.5570843"><ele>86.2</ele><time>2014-11-08T07:02:24Z</time></trkpt>
<trkpt lat="31.5059957" lon="34.5568019"><ele>87.0</ele><time>2014-11-08T07:02:26Z</time></trkpt>
<trkpt lat="31.5058468" lon="34.5563570"><ele>88.9</ele><time>2014-11-08T07:02:29Z</time></trkpt>
<trkpt lat="31.5058121" lon="34.5561265"><ele>89.5</ele><time>2014-11-08T07:02:30Z</time></trkpt>
<trkpt lat="31.5057574" lon="34.5560762"><ele>90.0</ele><time>2014-11-08T07:02:31Z</time></trkpt>
<trkpt lat="31.5055845" lon="34.5555472"><ele>95.7</ele><time>2014-11-08T07:02:36Z</time></trkpt>
<trkpt lat="31.5053687" lon="34.5551836"><ele>98.6</ele><time>2014-11-08T07:02:38Z</time></trkpt>
<trkpt lat="31.5051970" lon="34.5550054"><ele>99.8</ele><time>2014-11-08T07:02:40Z</time></trkpt>
<trkpt lat="31.5051351" lon="34.5548813"><ele>100.4</ele><time>2014-11-08T07:02:41Z</time></trkpt>
<trkpt lat="31.5047849" lon="34.5545223"><ele>100.1</ele><time>2014-11-08T07:02:45Z</time></trkpt>
<trkpt lat="31.5044694" lon="34.5542856"><ele>99.2</ele><time>2014-11-08T07:02:48Z</time></trkpt>
<trkpt lat="31.5041824" lon="34.5541855"><ele>98.3</ele><time>2014-11-08T07:02:51Z</time></trkpt>
<trkpt lat="31.5041134" lon="34.5541823"><ele>98.0</ele><time>2014-11-08T07:02:52Z</time></trkpt>
<trkpt lat="31.5038487" lon="34.5540434"><ele>97.4</ele><time>2014-11-08T07:02:55Z</time></trkpt>
<trkpt lat="31.5033321" lon="34.5540015"><ele>96.4</ele><time>2014-11-08T07:03:00Z</time></trkpt>
<trkpt lat="31.5028343" lon="34.5539578"><ele>94.7</ele><time>2014-11-08T07:03:05Z</time></trkpt>
<trkpt lat="31.5023115" lon="34.5538764"><ele>91.9</ele><time>2014-11-08T07:03:11Z</time></trkpt>
<trkpt lat="31.5017818" lon="34.5537942"><ele>89.0</ele><time>2014-11-08T07:03:17Z</time></trkpt>
<trkpt lat="31.5012738" lon="34.5537172"><ele>86.5</ele><time>2014-11-08T07:03:23Z</time></trkpt>
<trkpt lat="31.5007680" lon="34.5536720"><ele>84.4</ele><time>2014-11-08T07:03:29Z</time></trkpt>
<trkpt lat="31.5002535" lon="34.5536356"><ele>82.3</ele><time>2014-11-08T07:03:35Z</time></trkpt>
<trkpt lat="31.4997224" lon="34.5535960"><ele>80.3</ele><time>2014-11-08T07:03:41Z</time></trkpt>
<trkpt lat="31.4991998" lon="34.5535199"><ele>80.0</ele><time>2014-11-08T07:03:47Z</time></trkpt>
<trkpt lat="31.4987980" lon="34.5535479"><ele>80.0</ele><time>2014-11-08T07:03:52Z</time></trkpt>
<trkpt lat="31.4982749" lon="34.5534980"><ele>81.1</ele><time>2014-11-08T07:03:58Z</time></trkpt>
<trkpt lat="31.4978244" lon="34.5534688"><ele>82.1</ele><time>2014-11-08T07:04:05Z</time></trkpt>
<trkpt lat="31.4973122" lon="34.5534488"><ele>82.7</ele><time>2014-11-08T07:04:11Z</time></trkpt>
<trkpt lat="31.4968453" lon="34.5534033"><ele>84.0</ele><time>2014-11-08T07:04:18Z</time></trkpt>
<trkpt lat="31.4963875" lon="34.5533737"><ele>85.0</ele><time>2014-11-08T07:04:25Z</time></trkpt>
<trkpt lat="31.4959192" lon="34.5533353"><ele>88.0</ele><time>2014-11-08T07:04:33Z</time></trkpt>
<trkpt lat="31.4954239" lon="34.5532954"><ele>88.0</ele><time>2014-11-08T07:04:41Z</time></trkpt>
<trkpt lat="31.4949260" lon="34.5532519"><ele>87.2</ele><time>2014-11-08T07:04:48Z</time></trkpt>
<trkpt lat="31.4944783" lon="34.5531720"><ele>86.5</ele><time>2014-11-08T07:04:55Z</time></trkpt>
<trkpt lat="31.4940352" lon="34.5530128"><ele>86.0</ele><time>2014-11-08T07:05:00Z</time></trkpt>
<trkpt lat="31.4936099" lon="34.5527668"><ele>85.5</ele><time>2014-11-08T07:05:06Z</time></trkpt>
<trkpt lat="31.4931356" lon="34.5525378"><ele>84.7</ele><time>2014-11-08T07:05:12Z</time></trkpt>
<trkpt lat="31.4926705" lon="34.5523140"><ele>82.5</ele><time>2014-11-08T07:05:18Z</time></trkpt>
<trkpt lat="31.4925907" lon="34.5522567"><ele>81.9</ele><time>2014-11-08T07:05:19Z</time></trkpt>
<trkpt lat="31.4925276" lon="34.5522786"><ele>81.4</ele><time>2014-11-08T07:05:20Z</time></trkpt>
<trkpt lat="31.4920327" lon="34.5520431"><ele>78.1</ele><time>2014-11-08T07:05:26Z</time></trkpt>
<trkpt lat="31.4918142" lon="34.5519073"><ele>76.8</ele><time>2014-11-08T07:05:29Z</time></trkpt>
<trkpt lat="31.4917533" lon="34.5518409"><ele>76.6</ele><time>2014-11-08T07:05:30Z</time></trkpt>
<trkpt lat="31.4912938" lon="34.5516233"><ele>75.5</ele><time>2014-11-08T07:05:37Z</time></trkpt>
<trkpt lat="31.4908145" lon="34.5514013"><ele>75.0</ele><time>2014-11-08T07:05:42Z</time></trkpt>
<trkpt lat="31.4903182" lon="34.5511616"><ele>75.2</ele><time>2014-11-08T07:05:48Z</time></trkpt>
<trkpt lat="31.4898460" lon="34.5509422"><ele>75.6</ele><time>2014-11-08T07:05:54Z</time></trkpt>
<trkpt lat="31.4893832" lon="34.5507582"><ele>75.9</ele><time>2014-11-08T07:06:00Z</time></trkpt>
<trkpt lat="31.4890649" lon="34.5505980"><ele>76.0</ele><time>2014-11-08T07:06:04Z</time></trkpt>
<trkpt lat="31.4887900" lon="34.5504332"><ele>75.9</ele><time>2014-11-08T07:06:08Z</time></trkpt>
<trkpt lat="31.4886459" lon="34.5503735"><ele>75.7</ele><time>2014-11-08T07:06:10Z</time></trkpt>
<trkpt lat="31.4884094" lon="34.5502029"><ele>75.4</ele><time>2014-11-08T07:06:13Z</time></trkpt>
<trkpt lat="31.4881421" lon="34.5499350"><ele>74.9</ele><time>2014-11-08T07:06:18Z</time></trkpt>
<trkpt lat="31.4880836" lon="34.5498419"><ele>74.8</ele><time>2014-11-08T07:06:19Z</time></trkpt>
<trkpt lat="31.4879564" lon="34.5497152"><ele>74.6</ele><time>2014-11-08T07:06:20Z</time></trkpt>
<trkpt lat="31.4878697" lon="34.5496939"><ele>74.5</ele><time>2014-11-08T07:06:21Z</time></trkpt>
<trkpt lat="31.4877145" lon="34.5495976"><ele>74.3</ele><time>2014-11-08T07:06:23Z</time></trkpt>
<trkpt lat="31.4874086" lon="34.5492767"><ele>73.7</ele><time>2014-11-08T07:06:29Z</time></trkpt>
<trkpt lat="31.4872012" lon="34.5491372"><ele>73.4</ele><time>2014-11-08T07:06:31Z</time></trkpt>
<trkpt lat="31.4871515" lon="34.5490463"><ele>73.3</ele><time>2014-11-08T07:06:32Z</time></trkpt>
<trkpt lat="31.4868005" lon="34.5487171"><ele>72.5</ele><time>2014-11-08T07:06:38Z</time></trkpt>
<trkpt lat="31.4863647" lon="34.5484057"><ele>72.7</ele><time>2014-11-08T07:06:45Z</time></trkpt>
<trkpt lat="31.4862158" lon="34.5482134"><ele>73.4</ele><time>2014-11-08T07:06:48Z</time></trkpt>
<trkpt lat="31.4860869" lon="34.5481164"><ele>74.2</ele><time>2014-11-08T07:06:50Z</time></trkpt>
<trkpt lat="31.4860352" lon="34.5480424"><ele>74.6</ele><time>2014-11-08T07:06:51Z</time></trkpt>
<trkpt lat="31.4858973" lon="34.5479440"><ele>74.6</ele><time>2014-11-08T07:06:53Z</time></trkpt>
<trkpt lat="31.4856837" lon="34.5478451"><ele>73.4</ele><time>2014-11-08T07:06:56Z</time></trkpt>
<trkpt lat="31.4855663" lon="34.5477375"><ele>72.6</ele><time>2014-11-08T07:06:58Z</time></trkpt>
<trkpt lat="31.4854420" lon="34.5476666"><ele>71.8</ele><time>2014-11-08T07:07:00Z</time></trkpt>
<trkpt lat="31.4853219" lon="34.5475523"><ele>71.0</ele><time>2014-11-08T07:07:02Z</time></trkpt>
<trkpt lat="31.4852512" lon="34.5475228"><ele>71.2</ele><time>2014-11-08T07:07:03Z</time></trkpt>
<trkpt lat="31.4851848" lon="34.5474406"><ele>71.3</ele><time>2014-11-08T07:07:04Z</time></trkpt>
<trkpt lat="31.4847734" lon="34.5471515"><ele>72.4</ele><time>2014-11-08T07:07:11Z</time></trkpt>
<trkpt lat="31.4845638" lon="34.5468808"><ele>73.4</ele><time>2014-11-08T07:07:15Z</time></trkpt>
<trkpt lat="31.4841495" lon="34.5465471"><ele>75.0</ele><time>2014-11-08T07:07:21Z</time></trkpt>
<trkpt lat="31.4840289" lon="34.5465022"><ele>75.0</ele><time>2014-11-08T07:07:23Z</time></trkpt>
<trkpt lat="31.4837350" lon="34.5462224"><ele>76.1</ele><time>2014-11-08T07:07:28Z</time></trkpt>
<trkpt lat="31.4836930" lon="34.5462484"><ele>76.3</ele><time>2014-11-08T07:07:29Z</time></trkpt>
<trkpt lat="31.4834687" lon="34.5461369"><ele>77.2</ele><time>2014-11-08T07:07:32Z</time></trkpt>
<trkpt lat="31.4831050" lon="34.5457675"><ele>76.0</ele><time>2014-11-08T07:07:39Z</time></trkpt>
<trkpt lat="31.4828739" lon="34.5456224"><ele>75.2</ele><time>2014-11-08T07:07:43Z</time></trkpt>
<trkpt lat="31.4824744" lon="34.5452741"><ele>76.1</ele><time>2014-11-08T07:07:51Z</time></trkpt>
<trkpt lat="31.4821424" lon="34.5449790"><ele>76.8</ele><time>2014-11-08T07:07:57Z</time></trkpt>
<trkpt lat="31.4820687" lon="34.5449580"><ele>76.9</ele><time>2014-11-08T07:07:57Z</time></trkpt>
<trkpt lat="31.4818650" lon="34.5447508"><ele>77.3</ele><time>2014-11-08T07:08:01Z</time></trkpt>
<trkpt lat="31.4815146" lon="34.5443275"><ele>78.2</ele><time>2014-11-08T07:08:09Z</time></trkpt>
<trkpt lat="31.4814221" lon="34.5442044"><ele>78.4</ele><time>2014-11-08T07:08:11Z</time></trkpt>
<trkpt lat="31.4814053" lon="34.5441498"><ele>78.5</ele><time>2014-11-08T07:08:11Z</time></trkpt>
<trkpt lat="31.4813392" lon="34.5441275"><ele>78.6</ele><time>2014-11-08T07:08:12Z</time></trkpt>
<trkpt lat="31.4812780" lon="34.5440174"><ele>78.9</ele><time>2014-11-08T07:08:14Z</time></trkpt>
<trkpt lat="31.4812042" lon="34.5439787"><ele>79.0</ele><time>2014-11-08T07:08:16Z</time></trkpt>
<trkpt lat="31.4809159" lon="34.5435624"><ele>81.2</ele><time>2014-11-08T07:08:22Z</time></trkpt>
<trkpt lat="31.4807474" lon="34.5433062"><ele>81.8</ele><time>2014-11-08T07:08:26Z</time></trkpt>
<trkpt lat="31.4804318" lon="34.5429922"><ele>82.5</ele><time>2014-11-08T07:08:33Z</time></trkpt>
<trkpt lat="31.4801136" lon="34.5426393"><ele>83.2</ele><time>2014-11-08T07:08:40Z</time></trkpt>
<trkpt lat="31.4798308" lon="34.5421856"><ele>84.3</ele><time>2014-11-08T07:08:49Z</time></trkpt>
<trkpt lat="31.4795921" lon="34.5419209"><ele>85.0</ele><time>2014-11-08T07:08:55Z</time></trkpt>
<trkpt lat="31.4792760" lon="34.5415393"><ele>87.0</ele><time>2014-11-08T07:09:03Z</time></trkpt>
<trkpt lat="31.4790558" lon="34.5410334"><ele>89.1</ele><time>2014-11-08T07:09:12Z</time></trkpt>
<trkpt lat="31.4788337" lon="34.5405596"><ele>92.0</ele><time>2014-11-08T07:09:21Z</time></trkpt>
<trkpt lat="31.4785970" lon="34.5400669"><ele>95.9</ele><time>2014-11-08T07:09:31Z</time></trkpt>
<trkpt lat="31.4783792" lon="34.5395600"><ele>98.3</ele><time>2014-11-08T07:09:41Z</time></trkpt>
<trkpt lat="31.4781631" lon="34.5390703"><ele>101.0</ele><time>2014-11-08T07:09:51Z</time></trkpt>
<trkpt lat="31.4779350" lon="34.5385846"><ele>104.1</ele><time>2014-11-08T07:10:01Z</time></trkpt>
<trkpt lat="31.4779139" lon="34.5385315"><ele>104.4</ele><time>2014-11-08T07:10:02Z</time></trkpt>
<trkpt lat="31.4778746" lon="34.5385131"><ele>104.6</ele><time>2014-11-08T07:10:03Z</time></trkpt>
<trkpt lat="31.4776384" lon="34.5380130"><ele>106.8</ele><time>2014-11-08T07:10:13Z</time></trkpt>
<trkpt lat="31.4773636" lon="34.5375402"><ele>106.2</ele><time>2014-11-08T07:10:22Z</time></trkpt>
<trkpt lat="31.4770104" lon="34.5371584"><ele>106.7</ele><time>2014-11-08T07:10:32Z</time></trkpt>
<trkpt lat="31.4768289" lon="34.5369270"><ele>107.0</ele><time>2014-11-08T07:10:37Z</time></trkpt>
<trkpt lat="31.4766570" lon="34.5366115"><ele>107.0</ele><time>2014-11-08T07:10:41Z</time></trkpt>
<trkpt lat="31.4764207" lon="34.5364288"><ele>107.0</ele><time>2014-11-08T07:10:46Z</time></trkpt>
<trkpt lat="31.4762115" lon="34.5361434"><ele>107.0</ele><time>2014-11-08T07:10:51Z</time></trkpt>
<trkpt lat="31.4761540" lon="34.5361079"><ele>107.0</ele><time>2014-11-08T07:10:52Z</time></trkpt>
<trkpt lat="31.4760349" lon="34.5359520"><ele>107.0</ele><time>2014-11-08T07:10:55Z</time></trkpt>
<trkpt lat="31.4759471" lon="34.5358064"><ele>107.0</ele><time>2014-11-08T07:10:57Z</time></trkpt>
<trkpt lat="31.4758834" lon="34.5357679"><ele>107.0</ele><time>2014-11-08T07:10:58Z</time></trkpt>
<trkpt lat="31.4755345" lon="34.5353284"><ele>108.2</ele><time>2014-11-08T07:11:05Z</time></trkpt>
<trkpt lat="31.4754661" lon="34.5351646"><ele>108.6</ele><time>2014-11-08T07:11:07Z</time></trkpt>
<trkpt lat="31.4753503" lon="34.5350107"><ele>109.0</ele><time>2014-11-08T07:11:10Z</time></trkpt>
<trkpt lat="31.4752901" lon="34.5348574"><ele>109.0</ele><time>2014-11-08T07:11:12Z</time></trkpt>
<trkpt lat="31.4752096" lon="34.5347708"><ele>109.0</ele><time>2014-11-08T07:11:14Z</time></trkpt>
<trkpt lat="31.4751366" lon="34.5347362"><ele>109.0</ele><time>2014-11-08T07:11:15Z</time></trkpt>
<trkpt lat="31.4749154" lon="34.5343719"><ele>109.8</ele><time>2014-11-08T07:11:21Z</time></trkpt>
<trkpt lat="31.4748681" lon="34.5343358"><ele>110.0</ele><time>2014-11-08T07:11:22Z</time></trkpt>
<trkpt lat="31.4745475" lon="34.5338802"><ele>111.0</ele><time>2014-11-08T07:11:29Z</time></trkpt>
<trkpt lat="31.4742573" lon="34.5333673"><ele>112.2</ele><time>2014-11-08T07:11:38Z</time></trkpt>
<trkpt lat="31.4741392" lon="34.5331878"><ele>112.6</ele><time>2014-11-08T07:11:40Z</time></trkpt>
<trkpt lat="31.4739944" lon="34.5329238"><ele>112.7</ele><time>2014-11-08T07:11:44Z</time></trkpt>
<trkpt lat="31.4738992" lon="34.5328302"><ele>112.0</ele><time>2014-11-08T07:11:46Z</time></trkpt>
<trkpt lat="31.4736629" lon="34.5324829"><ele>112.8</ele><time>2014-11-08T07:11:52Z</time></trkpt>
<trkpt lat="31.4734307" lon="34.5322065"><ele>113.2</ele><time>2014-11-08T07:11:59Z</time></trkpt>
<trkpt lat="31.4733375" lon="34.5321861"><ele>113.0</ele><time>2014-11-08T07:12:00Z</time></trkpt>
<trkpt lat="31.4733093" lon="34.5320876"><ele>113.0</ele><time>2014-11-08T07:12:01Z</time></trkpt>
<trkpt lat="31.4730609" lon="34.5317188"><ele>113.3</ele><time>2014-11-08T07:12:07Z</time></trkpt>
<trkpt lat="31.4727400" lon="34.5313279"><ele>115.4</ele><time>2014-11-08T07:12:14Z</time></trkpt>
<trkpt lat="31.4724766" lon="34.5309486"><ele>116.0</ele><time>2014-11-08T07:12:21Z</time></trkpt>
<trkpt lat="31.4721122" lon="34.5305439"><ele>115.9</ele><time>2014-11-08T07:12:29Z</time></trkpt>
<trkpt lat="31.4717387" lon="34.5301402"><ele>115.5</ele><time>2014-11-08T07:12:37Z</time></trkpt>
<trkpt lat="31.4713501" lon="34.5297611"><ele>115.2</ele><time>2014-11-08T07:12:45Z</time></trkpt>
<trkpt lat="31.4709663" lon="34.5294367"><ele>115.7</ele><time>2014-11-08T07:12:52Z</time></trkpt>
<trkpt lat="31.4705895" lon="34.5291268"><ele>115.6</ele><time>2014-11-08T07:12:59Z</time></trkpt>
<trkpt lat="31.4702070" lon="34.5288024"><ele>115.0</ele><time>2014-11-08T07:13:04Z</time></trkpt>
<trkpt lat="31.4700538" lon="34.5287005"><ele>114.7</ele><time>2014-11-08T07:13:07Z</time></trkpt>
<trkpt lat="31.4698980" lon="34.5282722"><ele>114.1</ele><time>2014-11-08T07:13:13Z</time></trkpt>
<trkpt lat="31.4698611" lon="34.5282244"><ele>114.0</ele><time>2014-11-08T07:13:14Z</time></trkpt>
<trkpt lat="31.4697816" lon="34.5281869"><ele>113.8</ele><time>2014-11-08T07:13:15Z</time></trkpt>
<trkpt lat="31.4696520" lon="34.5287807"><ele>113.2</ele><time>2014-11-08T07:13:21Z</time></trkpt>
<trkpt lat="31.4693257" lon="34.5292058"><ele>112.6</ele><time>2014-11-08T07:13:27Z</time></trkpt>
<trkpt lat="31.4689707" lon="34.5296337"><ele>111.6</ele><time>2014-11-08T07:13:34Z</time></trkpt>
<trkpt lat="31.4686200" lon="34.5300496"><ele>109.5</ele><time>2014-11-08T07:13:42Z</time></trkpt>
<trkpt lat="31.4682828" lon="34.5304869"><ele>108.3</ele><time>2014-11-08T07:13:49Z</time></trkpt>
<trkpt lat="31.4679406" lon="34.5309384"><ele>108.0</ele><time>2014-11-08T07:13:55Z</time></trkpt>
<trkpt lat="31.4675920" lon="34.5313804"><ele>107.5</ele><time>2014-11-08T07:14:02Z</time></trkpt>
<trkpt lat="31.4672871" lon="34.5317701"><ele>107.2</ele><time>2014-11-08T07:14:08Z</time></trkpt>
<trkpt lat="31.4669375" lon="34.5321907"><ele>106.7</ele><time>2014-11-08T07:14:15Z</time></trkpt>
<trkpt lat="31.4665866" lon="34.5326290"><ele>106.2</ele><time>2014-11-08T07:14:22Z</time></trkpt>
<trkpt lat="31.4662369" lon="34.5330661"><ele>105.8</ele><time>2014-11-08T07:14:30Z</time></trkpt>
<trkpt lat="31.4659037" lon="34.5335027"><ele>105.3</ele><time>2014-11-08T07:14:36Z</time></trkpt>
<trkpt lat="31.4656176" lon="34.5338725"><ele>105.1</ele><time>2014-11-08T07:14:42Z</time></trkpt>
<trkpt lat="31.4654843" lon="34.5339410"><ele>105.4</ele><time>2014-11-08T07:14:44Z</time></trkpt>
<trkpt lat="31.4649896" lon="34.5337763"><ele>106.2</ele><time>2014-11-08T07:14:51Z</time></trkpt>
<trkpt lat="31.4645671" lon="34.5335691"><ele>107.0</ele><time>2014-11-08T07:14:57Z</time></trkpt>
<trkpt lat="31.4640972" lon="34.5333581"><ele>109.3</ele><time>2014-11-08T07:15:04Z</time></trkpt>
<trkpt lat="31.4636699" lon="34.5331433"><ele>110.5</ele><time>2014-11-08T07:15:11Z</time></trkpt>
<trkpt lat="31.4632252" lon="34.5329154"><ele>113.0</ele><time>2014-11-08T07:15:20Z</time></trkpt>
<trkpt lat="31.4627985" lon="34.5326179"><ele>115.6</ele><time>2014-11-08T07:15:28Z</time></trkpt>
<trkpt lat="31.4624327" lon="34.5322632"><ele>116.7</ele><time>2014-11-08T07:15:37Z</time></trkpt>
<trkpt lat="31.4621372" lon="34.5319696"><ele>115.7</ele><time>2014-11-08T07:15:43Z</time></trkpt>
<trkpt lat="31.4618964" lon="34.5316221"><ele>115.0</ele><time>2014-11-08T07:15:49Z</time></trkpt>
<trkpt lat="31.4617790" lon="34.5315183"><ele>115.0</ele><time>2014-11-08T07:15:51Z</time></trkpt>
<trkpt lat="31.4614500" lon="34.5310544"><ele>115.6</ele><time>2014-11-08T07:15:58Z</time></trkpt>
<trkpt lat="31.4610999" lon="34.5306801"><ele>116.5</ele><time>2014-11-08T07:16:05Z</time></trkpt>
<trkpt lat="31.4608704" lon="34.5304213"><ele>117.0</ele><time>2014-11-08T07:16:10Z</time></trkpt>
<trkpt lat="31.4608291" lon="34.5303435"><ele>117.0</ele><time>2014-11-08T07:16:11Z</time></trkpt>
<trkpt lat="31.4604609" lon="34.5299361"><ele>116.6</ele><time>2014-11-08T07:16:17Z</time></trkpt>
<trkpt lat="31.4601596" lon="34.5295125"><ele>115.3</ele><time>2014-11-08T07:16:23Z</time></trkpt>
<trkpt lat="31.4598561" lon="34.5291099"><ele>114.0</ele><time>2014-11-08T07:16:29Z</time></trkpt>
<trkpt lat="31.4595334" lon="34.5286710"><ele>112.7</ele><time>2014-11-08T07:16:35Z</time></trkpt>
<trkpt lat="31.4594132" lon="34.5284900"><ele>112.2</ele><time>2014-11-08T07:16:37Z</time></trkpt>
<trkpt lat="31.4590341" lon="34.5280803"><ele>112.8</ele><time>2014-11-08T07:16:43Z</time></trkpt>
<trkpt lat="31.4589661" lon="34.5280138"><ele>113.0</ele><time>2014-11-08T07:16:44Z</time></trkpt>
<trkpt lat="31.4588632" lon="34.5278287"><ele>113.3</ele><time>2014-11-08T07:16:46Z</time></trkpt>
<trkpt lat="31.4586955" lon="34.5276487"><ele>113.7</ele><time>2014-11-08T07:16:49Z</time></trkpt>
<trkpt lat="31.4585663" lon="34.5275478"><ele>114.0</ele><time>2014-11-08T07:16:51Z</time></trkpt>
<trkpt lat="31.4584013" lon="34.5273670"><ele>114.4</ele><time>2014-11-08T07:16:54Z</time></trkpt>
<trkpt lat="31.4583070" lon="34.5272044"><ele>114.7</ele><time>2014-11-08T07:16:56Z</time></trkpt>
<trkpt lat="31.4580713" lon="34.5268929"><ele>115.5</ele><time>2014-11-08T07:17:02Z</time></trkpt>
<trkpt lat="31.4579656" lon="34.5268199"><ele>115.7</ele><time>2014-11-08T07:17:04Z</time></trkpt>
<trkpt lat="31.4577945" lon="34.5266134"><ele>115.5</ele><time>2014-11-08T07:17:07Z</time></trkpt>
<trkpt lat="31.4577298" lon="34.5264768"><ele>114.9</ele><time>2014-11-08T07:17:10Z</time></trkpt>
<trkpt lat="31.4575088" lon="34.5261204"><ele>113.5</ele><time>2014-11-08T07:17:14Z</time></trkpt>
<trkpt lat="31.4572736" lon="34.5258347"><ele>113.0</ele><time>2014-11-08T07:17:18Z</time></trkpt>
<trkpt lat="31.4569853" lon="34.5254078"><ele>113.0</ele><time>2014-11-08T07:17:24Z</time></trkpt>
<trkpt lat="31.4566678" lon="34.5249984"><ele>112.5</ele><time>2014-11-08T07:17:30Z</time></trkpt>
<trkpt lat="31.4563648" lon="34.5245734"><ele>111.6</ele><time>2014-11-08T07:17:36Z</time></trkpt>
<trkpt lat="31.4562309" lon="34.5243485"><ele>111.2</ele><time>2014-11-08T07:17:39Z</time></trkpt>
<trkpt lat="31.4559651" lon="34.5240605"><ele>110.5</ele><time>2014-11-08T07:17:44Z</time></trkpt>
<trkpt lat="31.4556745" lon="34.5235078"><ele>109.6</ele><time>2014-11-08T07:17:50Z</time></trkpt>
<trkpt lat="31.4555595" lon="34.5233442"><ele>109.3</ele><time>2014-11-08T07:17:52Z</time></trkpt>
<trkpt lat="31.4554678" lon="34.5231738"><ele>109.0</ele><time>2014-11-08T07:17:54Z</time></trkpt>
<trkpt lat="31.4554369" lon="34.5230527"><ele>108.7</ele><time>2014-11-08T07:17:55Z</time></trkpt>
<trkpt lat="31.4552008" lon="34.5227538"><ele>107.8</ele><time>2014-11-08T07:17:58Z</time></trkpt>
<trkpt lat="31.4551318" lon="34.5226976"><ele>107.5</ele><time>2014-11-08T07:17:59Z</time></trkpt>
<trkpt lat="31.4548578" lon="34.5221770"><ele>106.0</ele><time>2014-11-08T07:18:05Z</time></trkpt>
<trkpt lat="31.4546986" lon="34.5218804"><ele>105.7</ele><time>2014-11-08T07:18:09Z</time></trkpt>
<trkpt lat="31.4546313" lon="34.5218139"><ele>105.6</ele><time>2014-11-08T07:18:10Z</time></trkpt>
<trkpt lat="31.4543194" lon="34.5213722"><ele>105.1</ele><time>2014-11-08T07:18:16Z</time></trkpt>
<trkpt lat="31.4540231" lon="34.5209377"><ele>103.0</ele><time>2014-11-08T07:18:22Z</time></trkpt>
<trkpt lat="31.4537633" lon="34.5204913"><ele>103.0</ele><time>2014-11-08T07:18:28Z</time></trkpt>
<trkpt lat="31.4534223" lon="34.5200413"><ele>105.1</ele><time>2014-11-08T07:18:34Z</time></trkpt>
<trkpt lat="31.4531140" lon="34.5196040"><ele>105.8</ele><time>2014-11-08T07:18:41Z</time></trkpt>
<trkpt lat="31.4530169" lon="34.5194484"><ele>106.0</ele><time>2014-11-08T07:18:42Z</time></trkpt>
<trkpt lat="31.4526727" lon="34.5191316"><ele>106.8</ele><time>2014-11-08T07:18:48Z</time></trkpt>
<trkpt lat="31.4523371" lon="34.5186467"><ele>110.3</ele><time>2014-11-08T07:18:54Z</time></trkpt>
<trkpt lat="31.4523024" lon="34.5185458"><ele>111.1</ele><time>2014-11-08T07:18:55Z</time></trkpt>
<trkpt lat="31.4522196" lon="34.5186079"><ele>112.0</ele><time>2014-11-08T07:18:56Z</time></trkpt>
<trkpt lat="31.4521624" lon="34.5185420"><ele>111.7</ele><time>2014-11-08T07:18:57Z</time></trkpt>
<trkpt lat="31.4520677" lon="34.5183610"><ele>111.2</ele><time>2014-11-08T07:18:59Z</time></trkpt>
<trkpt lat="31.4517722" lon="34.5180371"><ele>109.8</ele><time>2014-11-08T07:19:04Z</time></trkpt>
<trkpt lat="31.4517355" lon="34.5179647"><ele>109.5</ele><time>2014-11-08T07:19:05Z</time></trkpt>
<trkpt lat="31.4514929" lon="34.5177208"><ele>109.4</ele><time>2014-11-08T07:19:09Z</time></trkpt>
<trkpt lat="31.4512558" lon="34.5173976"><ele>109.7</ele><time>2014-11-08T07:19:13Z</time></trkpt>
<trkpt lat="31.4509816" lon="34.5170984"><ele>108.8</ele><time>2014-11-08T07:19:17Z</time></trkpt>
<trkpt lat="31.4509026" lon="34.5170673"><ele>108.5</ele><time>2014-11-08T07:19:18Z</time></trkpt>
<trkpt lat="31.4505110" lon="34.5166472"><ele>107.0</ele><time>2014-11-08T07:19:24Z</time></trkpt>
<trkpt lat="31.4501833" lon="34.5162473"><ele>106.0</ele><time>2014-11-08T07:19:29Z</time></trkpt>
<trkpt lat="31.4498382" lon="34.5158868"><ele>103.6</ele><time>2014-11-08T07:19:35Z</time></trkpt>
<trkpt lat="31.4495073" lon="34.5154748"><ele>101.4</ele><time>2014-11-08T07:19:39Z</time></trkpt>
<trkpt lat="31.4491272" lon="34.5151690"><ele>100.3</ele><time>2014-11-08T07:19:44Z</time></trkpt>
<trkpt lat="31.4487781" lon="34.5147654"><ele>99.4</ele><time>2014-11-08T07:19:49Z</time></trkpt>
<trkpt lat="31.4484484" lon="34.5143790"><ele>99.0</ele><time>2014-11-08T07:19:54Z</time></trkpt>
<trkpt lat="31.4481112" lon="34.5139938"><ele>99.0</ele><time>2014-11-08T07:19:59Z</time></trkpt>
<trkpt lat="31.4477751" lon="34.5136242"><ele>98.0</ele><time>2014-11-08T07:20:04Z</time></trkpt>
<trkpt lat="31.4474236" lon="34.5132631"><ele>96.6</ele><time>2014-11-08T07:20:09Z</time></trkpt>
<trkpt lat="31.4470643" lon="34.5128794"><ele>96.3</ele><time>2014-11-08T07:20:14Z</time></trkpt>
<trkpt lat="31.4467066" lon="34.5124852"><ele>96.6</ele><time>2014-11-08T07:20:20Z</time></trkpt>
<trkpt lat="31.4463661" lon="34.5120566"><ele>94.8</ele><time>2014-11-08T07:20:24Z</time></trkpt>
<trkpt lat="31.4459846" lon="34.5116290"><ele>93.0</ele><time>2014-11-08T07:20:31Z</time></trkpt>
<trkpt lat="31.4456620" lon="34.5112415"><ele>93.2</ele><time>2014-11-08T07:20:35Z</time></trkpt>
<trkpt lat="31.4454249" lon="34.5109567"><ele>94.0</ele><time>2014-11-08T07:20:39Z</time></trkpt>
<trkpt lat="31.4453458" lon="34.5108927"><ele>94.2</ele><time>2014-11-08T07:20:40Z</time></trkpt>
<trkpt lat="31.4451677" lon="34.5106466"><ele>94.8</ele><time>2014-11-08T07:20:43Z</time></trkpt>
<trkpt lat="31.4451055" lon="34.5105964"><ele>95.0</ele><time>2014-11-08T07:20:44Z</time></trkpt>
<trkpt lat="31.4450619" lon="34.5105152"><ele>95.2</ele><time>2014-11-08T07:20:45Z</time></trkpt>
<trkpt lat="31.4447815" lon="34.5102618"><ele>96.3</ele><time>2014-11-08T07:20:50Z</time></trkpt>
<trkpt lat="31.4444256" lon="34.5098132"><ele>98.2</ele><time>2014-11-08T07:20:57Z</time></trkpt>
<trkpt lat="31.4442362" lon="34.5095992"><ele>99.0</ele><time>2014-11-08T07:21:02Z</time></trkpt>
<trkpt lat="31.4441106" lon="34.5094864"><ele>99.0</ele><time>2014-11-08T07:21:04Z</time></trkpt>
<trkpt lat="31.4440817" lon="34.5093822"><ele>99.0</ele><time>2014-11-08T07:21:05Z</time></trkpt>
<trkpt lat="31.4440286" lon="34.5093432"><ele>99.0</ele><time>2014-11-08T07:21:05Z</time></trkpt>
<trkpt lat="31.4437371" lon="34.5090206"><ele>99.0</ele><time>2014-11-08T07:21:11Z</time></trkpt>
<trkpt lat="31.4436860" lon="34.5090426"><ele>99.0</ele><time>2014-11-08T07:21:12Z</time></trkpt>
<trkpt lat="31.4435778" lon="34.5089565"><ele>99.1</ele><time>2014-11-08T07:21:14Z</time></trkpt>
<trkpt lat="31.4434797" lon="34.5088344"><ele>99.2</ele><time>2014-11-08T07:21:17Z</time></trkpt>
<trkpt lat="31.4431034" lon="34.5084322"><ele>99.4</ele><time>2014-11-08T07:21:24Z</time></trkpt>
<trkpt lat="31.4429973" lon="34.5083166"><ele>99.5</ele><time>2014-11-08T07:21:25Z</time></trkpt>
<trkpt lat="31.4426610" lon="34.5078913"><ele>99.8</ele><time>2014-11-08T07:21:32Z</time></trkpt>
<trkpt lat="31.4424962" lon="34.5076778"><ele>99.9</ele><time>2014-11-08T07:21:36Z</time></trkpt>
<trkpt lat="31.4421449" lon="34.5073234"><ele>100.8</ele><time>2014-11-08T07:21:42Z</time></trkpt>
<trkpt lat="31.4417815" lon="34.5069305"><ele>101.0</ele><time>2014-11-08T07:21:49Z</time></trkpt>
<trkpt lat="31.4416376" lon="34.5068081"><ele>100.8</ele><time>2014-11-08T07:21:53Z</time></trkpt>
<trkpt lat="31.4416045" lon="34.5067422"><ele>100.8</ele><time>2014-11-08T07:21:53Z</time></trkpt>
<trkpt lat="31.4413485" lon="34.5065751"><ele>100.5</ele><time>2014-11-08T07:21:57Z</time></trkpt>
<trkpt lat="31.4410359" lon="34.5063135"><ele>100.2</ele><time>2014-11-08T07:22:02Z</time></trkpt>
<trkpt lat="31.4407718" lon="34.5059649"><ele>99.7</ele><time>2014-11-08T07:22:07Z</time></trkpt>
<trkpt lat="31.4406105" lon="34.5057478"><ele>98.9</ele><time>2014-11-08T07:22:10Z</time></trkpt>
<trkpt lat="31.4401991" lon="34.5053727"><ele>97.3</ele><time>2014-11-08T07:22:16Z</time></trkpt>
<trkpt lat="31.4397686" lon="34.5049955"><ele>96.1</ele><time>2014-11-08T07:22:22Z</time></trkpt>
<trkpt lat="31.4393987" lon="34.5046807"><ele>95.2</ele><time>2014-11-08T07:22:27Z</time></trkpt>
<trkpt lat="31.4392525" lon="34.5045662"><ele>94.4</ele><time>2014-11-08T07:22:29Z</time></trkpt>
<trkpt lat="31.4388698" lon="34.5041726"><ele>92.6</ele><time>2014-11-08T07:22:35Z</time></trkpt>
<trkpt lat="31.4386012" lon="34.5038902"><ele>94.0</ele><time>2014-11-08T07:22:39Z</time></trkpt>
<trkpt lat="31.4385618" lon="34.5039069"><ele>94.0</ele><time>2014-11-08T07:22:40Z</time></trkpt>
<trkpt lat="31.4381867" lon="34.5035616"><ele>94.0</ele><time>2014-11-08T07:22:47Z</time></trkpt>
<trkpt lat="31.4378181" lon="34.5032163"><ele>94.6</ele><time>2014-11-08T07:22:54Z</time></trkpt>
<trkpt lat="31.4374182" lon="34.5028545"><ele>95.6</ele><time>2014-11-08T07:23:01Z</time></trkpt>
<trkpt lat="31.4372932" lon="34.5027447"><ele>95.9</ele><time>2014-11-08T07:23:03Z</time></trkpt>
<trkpt lat="31.4371297" lon="34.5025584"><ele>96.3</ele><time>2014-11-08T07:23:06Z</time></trkpt>
<trkpt lat="31.4367389" lon="34.5022112"><ele>96.8</ele><time>2014-11-08T07:23:13Z</time></trkpt>
<trkpt lat="31.4363989" lon="34.5018761"><ele>96.3</ele><time>2014-11-08T07:23:19Z</time></trkpt>
<trkpt lat="31.4360100" lon="34.5015791"><ele>96.0</ele><time>2014-11-08T07:23:26Z</time></trkpt>
<trkpt lat="31.4356000" lon="34.5012438"><ele>96.0</ele><time>2014-11-08T07:23:33Z</time></trkpt>
<trkpt lat="31.4352656" lon="34.5009260"><ele>96.0</ele><time>2014-11-08T07:23:39Z</time></trkpt>
<trkpt lat="31.4351295" lon="34.5008433"><ele>95.8</ele><time>2014-11-08T07:23:41Z</time></trkpt>
<trkpt lat="31.4347651" lon="34.5004706"><ele>94.7</ele><time>2014-11-08T07:23:47Z</time></trkpt>
<trkpt lat="31.4343681" lon="34.5001267"><ele>93.2</ele><time>2014-11-08T07:23:53Z</time></trkpt>
<trkpt lat="31.4343015" lon="34.5000707"><ele>92.8</ele><time>2014-11-08T07:23:54Z</time></trkpt>
<trkpt lat="31.4341770" lon="34.5000331"><ele>92.4</ele><time>2014-11-08T07:23:55Z</time></trkpt>
<trkpt lat="31.4341001" lon="34.4998691"><ele>92.0</ele><time>2014-11-08T07:23:57Z</time></trkpt>
<trkpt lat="31.4338035" lon="34.4995672"><ele>92.0</ele><time>2014-11-08T07:24:02Z</time></trkpt>
<trkpt lat="31.4335326" lon="34.4993261"><ele>92.0</ele><time>2014-11-08T07:24:06Z</time></trkpt>
<trkpt lat="31.4334557" lon="34.4992874"><ele>92.0</ele><time>2014-11-08T07:24:07Z</time></trkpt>
<trkpt lat="31.4330931" lon="34.4989661"><ele>95.0</ele><time>2014-11-08T07:24:13Z</time></trkpt>
<trkpt lat="31.4327094" lon="34.4985999"><ele>95.0</ele><time>2014-11-08T07:24:19Z</time></trkpt>
<trkpt lat="31.4326272" lon="34.4985179"><ele>94.6</ele><time>2014-11-08T07:24:20Z</time></trkpt>
<trkpt lat="31.4325676" lon="34.4985017"><ele>94.2</ele><time>2014-11-08T07:24:21Z</time></trkpt>
<trkpt lat="31.4323046" lon="34.4982786"><ele>92.8</ele><time>2014-11-08T07:24:26Z</time></trkpt>
<trkpt lat="31.4322635" lon="34.4981850"><ele>92.6</ele><time>2014-11-08T07:24:27Z</time></trkpt>
<trkpt lat="31.4318284" lon="34.4978292"><ele>91.6</ele><time>2014-11-08T07:24:32Z</time></trkpt>
<trkpt lat="31.4314005" lon="34.4975725"><ele>92.5</ele><time>2014-11-08T07:24:38Z</time></trkpt>
<trkpt lat="31.4309425" lon="34.4973614"><ele>94.3</ele><time>2014-11-08T07:24:44Z</time></trkpt>
<trkpt lat="31.4304426" lon="34.4971961"><ele>94.9</ele><time>2014-11-08T07:24:51Z</time></trkpt>
<trkpt lat="31.4299894" lon="34.4970706"><ele>94.8</ele><time>2014-11-08T07:24:58Z</time></trkpt>
<trkpt lat="31.4295383" lon="34.4969826"><ele>94.6</ele><time>2014-11-08T07:25:05Z</time></trkpt>
<trkpt lat="31.4293590" lon="34.4968457"><ele>94.5</ele><time>2014-11-08T07:25:07Z</time></trkpt>
<trkpt lat="31.4291751" lon="34.4962758"><ele>93.8</ele><time>2014-11-08T07:25:14Z</time></trkpt>
</trkseg>
<trkseg>
<trkpt lat="31.4291751" lon="34.4962758"><ele>93.8</ele><time>2014-11-08T07:25:50Z</time></trkpt>
<trkpt lat="31.4288819" lon="34.4965133"><ele>91.1</ele><time>2014-11-08T07:26:13Z</time></trkpt>
</trkseg>
<trkseg>
<trkpt lat="31.4288819" lon="34.4965133"><ele>91.1</ele><time>2014-11-08T08:11:32Z</time></trkpt>
<trkpt lat="31.4286315" lon="34.4970233"><ele>89.0</ele><time>2014-11-08T08:11:34Z</time></trkpt>
<trkpt lat="31.4281335" lon="34.4969749"><ele>89.8</ele><time>2014-11-08T08:11:44Z</time></trkpt>
<trkpt lat="31.4277269" lon="34.4969673"><ele>89.4</ele><time>2014-11-08T08:11:52Z</time></trkpt>
<trkpt lat="31.4276328" lon="34.4969461"><ele>89.3</ele><time>2014-11-08T08:11:54Z</time></trkpt>
<trkpt lat="31.4275098" lon="34.4969963"><ele>89.2</ele><time>2014-11-08T08:11:57Z</time></trkpt>
<trkpt lat="31.4272343" lon="34.4969326"><ele>89.1</ele><time>2014-11-08T08:12:00Z</time></trkpt>
<trkpt lat="31.4271622" lon="34.4968774"><ele>89.0</ele><time>2014-11-08T08:12:02Z</time></trkpt>
<trkpt lat="31.4266568" lon="34.4969156"><ele>84.8</ele><time>2014-11-08T08:12:09Z</time></trkpt>
<trkpt lat="31.4261830" lon="34.4969565"><ele>84.2</ele><time>2014-11-08T08:12:16Z</time></trkpt>
<trkpt lat="31.4256724" lon="34.4970094"><ele>82.0</ele><time>2014-11-08T08:12:24Z</time></trkpt>
<trkpt lat="31.4252214" lon="34.4970146"><ele>83.8</ele><time>2014-11-08T08:12:31Z</time></trkpt>
<trkpt lat="31.4247477" lon="34.4970173"><ele>83.1</ele><time>2014-11-08T08:12:40Z</time></trkpt>
<trkpt lat="31.4242869" lon="34.4969787"><ele>82.4</ele><time>2014-11-08T08:12:47Z</time></trkpt>
<trkpt lat="31.4238222" lon="34.4969888"><ele>82.0</ele><time>2014-11-08T08:12:57Z</time></trkpt>
<trkpt lat="31.4233702" lon="34.4969594"><ele>82.5</ele><time>2014-11-08T08:13:07Z</time></trkpt>
<trkpt lat="31.4228969" lon="34.4969739"><ele>83.1</ele><time>2014-11-08T08:13:17Z</time></trkpt>
<trkpt lat="31.4224167" lon="34.4969772"><ele>83.6</ele><time>2014-11-08T08:13:27Z</time></trkpt>
<trkpt lat="31.4219041" lon="34.4969713"><ele>84.1</ele><time>2014-11-08T08:13:36Z</time></trkpt>
<trkpt lat="31.4214014" lon="34.4969868"><ele>84.6</ele><time>2014-11-08T08:13:44Z</time></trkpt>
<trkpt lat="31.4208982" lon="34.4969213"><ele>84.9</ele><time>2014-11-08T08:13:51Z</time></trkpt>
<trkpt lat="31.4206129" lon="34.4968830"><ele>84.8</ele><time>2014-11-08T08:13:55Z</time></trkpt>
<trkpt lat="31.4201242" lon="34.4967388"><ele>84.4</ele><time>2014-11-08T08:14:01Z</time></trkpt>
<trkpt lat="31.4199491" lon="34.4966931"><ele>84.2</ele><time>2014-11-08T08:14:03Z</time></trkpt>
<trkpt lat="31.4197520" lon="34.4965570"><ele>84.0</ele><time>2014-11-08T08:14:06Z</time></trkpt>
<trkpt lat="31.4193151" lon="34.4963345"><ele>83.6</ele><time>2014-11-08T08:14:13Z</time></trkpt>
<trkpt lat="31.4191487" lon="34.4962412"><ele>83.4</ele><time>2014-11-08T08:14:14Z</time></trkpt>
<trkpt lat="31.4188798" lon="34.4961636"><ele>83.2</ele><time>2014-11-08T08:14:17Z</time></trkpt>
<trkpt lat="31.4186903" lon="34.4959417"><ele>83.0</ele><time>2014-11-08T08:14:20Z</time></trkpt>
<trkpt lat="31.4182675" lon="34.4955825"><ele>82.7</ele><time>2014-11-08T08:14:26Z</time></trkpt>
<trkpt lat="31.4179642" lon="34.4953233"><ele>81.3</ele><time>2014-11-08T08:14:30Z</time></trkpt>
<trkpt lat="31.4178596" lon="34.4951853"><ele>80.6</ele><time>2014-11-08T08:14:32Z</time></trkpt>
<trkpt lat="31.4174581" lon="34.4948272"><ele>78.8</ele><time>2014-11-08T08:14:38Z</time></trkpt>
<trkpt lat="31.4170589" lon="34.4944328"><ele>78.3</ele><time>2014-11-08T08:14:44Z</time></trkpt>
<trkpt lat="31.4166680" lon="34.4940721"><ele>76.8</ele><time>2014-11-08T08:14:50Z</time></trkpt>
<trkpt lat="31.4164178" lon="34.4938398"><ele>75.0</ele><time>2014-11-08T08:14:54Z</time></trkpt>
<trkpt lat="31.4160359" lon="34.4934978"><ele>73.0</ele><time>2014-11-08T08:15:00Z</time></trkpt>
<trkpt lat="31.4156970" lon="34.4931375"><ele>73.0</ele><time>2014-11-08T08:15:06Z</time></trkpt>
<trkpt lat="31.4152701" lon="34.4927851"><ele>73.6</ele><time>2014-11-08T08:15:13Z</time></trkpt>
<trkpt lat="31.4152164" lon="34.4927688"><ele>73.8</ele><time>2014-11-08T08:15:14Z</time></trkpt>
<trkpt lat="31.4148531" lon="34.4924086"><ele>75.0</ele><time>2014-11-08T08:15:22Z</time></trkpt>
<trkpt lat="31.4145005" lon="34.4920674"><ele>75.2</ele><time>2014-11-08T08:15:28Z</time></trkpt>
<trkpt lat="31.4143964" lon="34.4919619"><ele>75.6</ele><time>2014-11-08T08:15:30Z</time></trkpt>
<trkpt lat="31.4143172" lon="34.4918265"><ele>76.0</ele><time>2014-11-08T08:15:32Z</time></trkpt>
<trkpt lat="31.4139448" lon="34.4913937"><ele>79.0</ele><time>2014-11-08T08:15:39Z</time></trkpt>
<trkpt lat="31.4138110" lon="34.4913104"><ele>79.0</ele><time>2014-11-08T08:15:41Z</time></trkpt>
<trkpt lat="31.4134705" lon="34.4908749"><ele>79.0</ele><time>2014-11-08T08:15:47Z</time></trkpt>
<trkpt lat="31.4131089" lon="34.4904442"><ele>78.1</ele><time>2014-11-08T08:15:55Z</time></trkpt>
<trkpt lat="31.4128700" lon="34.4901355"><ele>77.4</ele><time>2014-11-08T08:15:59Z</time></trkpt>
<trkpt lat="31.4127569" lon="34.4900251"><ele>77.1</ele><time>2014-11-08T08:16:01Z</time></trkpt>
<trkpt lat="31.4125725" lon="34.4897733"><ele>76.4</ele><time>2014-11-08T08:16:06Z</time></trkpt>
<trkpt lat="31.4124387" lon="34.4896501"><ele>76.2</ele><time>2014-11-08T08:16:07Z</time></trkpt>
<trkpt lat="31.4121204" lon="34.4892225"><ele>75.2</ele><time>2014-11-08T08:16:14Z</time></trkpt>
<trkpt lat="31.4117700" lon="34.4888329"><ele>76.0</ele><time>2014-11-08T08:16:21Z</time></trkpt>
<trkpt lat="31.4115296" lon="34.4886210"><ele>75.0</ele><time>2014-11-08T08:16:25Z</time></trkpt>
<trkpt lat="31.4111791" lon="34.4881692"><ele>73.5</ele><time>2014-11-08T08:16:32Z</time></trkpt>
<trkpt lat="31.4108410" lon="34.4877713"><ele>72.2</ele><time>2014-11-08T08:16:36Z</time></trkpt>
<trkpt lat="31.4105271" lon="34.4873513"><ele>71.2</ele><time>2014-11-08T08:16:42Z</time></trkpt>
<trkpt lat="31.4101693" lon="34.4869070"><ele>70.4</ele><time>2014-11-08T08:16:46Z</time></trkpt>
<trkpt lat="31.4101123" lon="34.4868130"><ele>70.2</ele><time>2014-11-08T08:16:47Z</time></trkpt>
<trkpt lat="31.4097455" lon="34.4864281"><ele>68.5</ele><time>2014-11-08T08:16:53Z</time></trkpt>
<trkpt lat="31.4093981" lon="34.4860259"><ele>66.7</ele><time>2014-11-08T08:16:57Z</time></trkpt>
<trkpt lat="31.4090490" lon="34.4855924"><ele>65.0</ele><time>2014-11-08T08:17:03Z</time></trkpt>
<trkpt lat="31.4086865" lon="34.4851520"><ele>62.8</ele><time>2014-11-08T08:17:07Z</time></trkpt>
<trkpt lat="31.4083319" lon="34.4847250"><ele>60.8</ele><time>2014-11-08T08:17:12Z</time></trkpt>
<trkpt lat="31.4079564" lon="34.4843175"><ele>60.3</ele><time>2014-11-08T08:17:17Z</time></trkpt>
<trkpt lat="31.4076262" lon="34.4839316"><ele>59.8</ele><time>2014-11-08T08:17:23Z</time></trkpt>
<trkpt lat="31.4072569" lon="34.4834699"><ele>59.1</ele><time>2014-11-08T08:17:28Z</time></trkpt>
<trkpt lat="31.4069115" lon="34.4830960"><ele>58.5</ele><time>2014-11-08T08:17:34Z</time></trkpt>
<trkpt lat="31.4065971" lon="34.4825969"><ele>57.9</ele><time>2014-11-08T08:17:39Z</time></trkpt>
<trkpt lat="31.4064405" lon="34.4823290"><ele>57.5</ele><time>2014-11-08T08:17:43Z</time></trkpt>
<trkpt lat="31.4063428" lon="34.4822155"><ele>57.4</ele><time>2014-11-08T08:17:43Z</time></trkpt>
<trkpt lat="31.4060707" lon="34.4817137"><ele>56.6</ele><time>2014-11-08T08:17:49Z</time></trkpt>
<trkpt lat="31.4058004" lon="34.4812060"><ele>55.5</ele><time>2014-11-08T08:17:55Z</time></trkpt>
<trkpt lat="31.4055264" lon="34.4806962"><ele>54.4</ele><time>2014-11-08T08:18:01Z</time></trkpt>
<trkpt lat="31.4052761" lon="34.4802269"><ele>54.0</ele><time>2014-11-08T08:18:07Z</time></trkpt>
<trkpt lat="31.4050385" lon="34.4797360"><ele>53.6</ele><time>2014-11-08T08:18:14Z</time></trkpt>
<trkpt lat="31.4047454" lon="34.4792453"><ele>53.1</ele><time>2014-11-08T08:18:20Z</time></trkpt>
<trkpt lat="31.4044782" lon="34.4787718"><ele>52.6</ele><time>2014-11-08T08:18:25Z</time></trkpt>
<trkpt lat="31.4041967" lon="34.4782995"><ele>52.0</ele><time>2014-11-08T08:18:32Z</time></trkpt>
<trkpt lat="31.4039561" lon="34.4778470"><ele>53.0</ele><time>2014-11-08T08:18:37Z</time></trkpt>
<trkpt lat="31.4037035" lon="34.4773899"><ele>52.4</ele><time>2014-11-08T08:18:43Z</time></trkpt>
<trkpt lat="31.4033831" lon="34.4769293"><ele>51.7</ele><time>2014-11-08T08:18:49Z</time></trkpt>
<trkpt lat="31.4030744" lon="34.4765892"><ele>51.2</ele><time>2014-11-08T08:18:54Z</time></trkpt>
<trkpt lat="31.4027806" lon="34.4762335"><ele>50.7</ele><time>2014-11-08T08:18:59Z</time></trkpt>
<trkpt lat="31.4027499" lon="34.4761581"><ele>50.5</ele><time>2014-11-08T08:19:00Z</time></trkpt>
<trkpt lat="31.4023458" lon="34.4758834"><ele>49.8</ele><time>2014-11-08T08:19:07Z</time></trkpt>
<trkpt lat="31.4019331" lon="34.4755411"><ele>48.8</ele><time>2014-11-08T08:19:13Z</time></trkpt>
<trkpt lat="31.4015418" lon="34.4752763"><ele>48.0</ele><time>2014-11-08T08:19:17Z</time></trkpt>
<trkpt lat="31.4011337" lon="34.4749505"><ele>47.2</ele><time>2014-11-08T08:19:22Z</time></trkpt>
<trkpt lat="31.4007209" lon="34.4747015"><ele>46.3</ele><time>2014-11-08T08:19:27Z</time></trkpt>
<trkpt lat="31.4003480" lon="34.4744484"><ele>46.0</ele><time>2014-11-08T08:19:32Z</time></trkpt>
<trkpt lat="31.3999661" lon="34.4741405"><ele>45.9</ele><time>2014-11-08T08:19:38Z</time></trkpt>
<trkpt lat="31.3998172" lon="34.4740359"><ele>45.9</ele><time>2014-11-08T08:19:40Z</time></trkpt>
<trkpt lat="31.3998114" lon="34.4739951"><ele>45.8</ele><time>2014-11-08T08:19:41Z</time></trkpt>
<trkpt lat="31.3993984" lon="34.4737434"><ele>45.6</ele><time>2014-11-08T08:19:49Z</time></trkpt>
<trkpt lat="31.3992324" lon="34.4736427"><ele>45.6</ele><time>2014-11-08T08:19:53Z</time></trkpt>
<trkpt lat="31.3991811" lon="34.4736349"><ele>45.5</ele><time>2014-11-08T08:19:54Z</time></trkpt>
<trkpt lat="31.3987745" lon="34.4733375"><ele>45.3</ele><time>2014-11-08T08:20:02Z</time></trkpt>
<trkpt lat="31.3984899" lon="34.4731282"><ele>45.2</ele><time>2014-11-08T08:20:07Z</time></trkpt>
<trkpt lat="31.3981919" lon="34.4728873"><ele>45.0</ele><time>2014-11-08T08:20:13Z</time></trkpt>
<trkpt lat="31.3977915" lon="34.4726190"><ele>47.0</ele><time>2014-11-08T08:20:19Z</time></trkpt>
<trkpt lat="31.3973725" lon="34.4723096"><ele>47.6</ele><time>2014-11-08T08:20:26Z</time></trkpt>
<trkpt lat="31.3969382" lon="34.4719890"><ele>48.2</ele><time>2014-11-08T08:20:32Z</time></trkpt>
<trkpt lat="31.3968058" lon="34.4719181"><ele>48.4</ele><time>2014-11-08T08:20:34Z</time></trkpt>
<trkpt lat="31.3964677" lon="34.4716374"><ele>48.9</ele><time>2014-11-08T08:20:40Z</time></trkpt>
<trkpt lat="31.3962906" lon="34.4714275"><ele>49.2</ele><time>2014-11-08T08:20:44Z</time></trkpt>
<trkpt lat="31.3961392" lon="34.4712983"><ele>49.4</ele><time>2014-11-08T08:20:46Z</time></trkpt>
<trkpt lat="31.3958208" lon="34.4708247"><ele>50.0</ele><time>2014-11-08T08:20:53Z</time></trkpt>
<trkpt lat="31.3954807" lon="34.4704527"><ele>48.9</ele><time>2014-11-08T08:20:58Z</time></trkpt>
<trkpt lat="31.3951908" lon="34.4700269"><ele>47.4</ele><time>2014-11-08T08:21:04Z</time></trkpt>
<trkpt lat="31.3950371" lon="34.4697907"><ele>45.4</ele><time>2014-11-08T08:21:07Z</time></trkpt>
<trkpt lat="31.3949774" lon="34.4697329"><ele>44.7</ele><time>2014-11-08T08:21:08Z</time></trkpt>
<trkpt lat="31.3946550" lon="34.4693165"><ele>44.5</ele><time>2014-11-08T08:21:14Z</time></trkpt>
<trkpt lat="31.3943352" lon="34.4689088"><ele>45.0</ele><time>2014-11-08T08:21:20Z</time></trkpt>
<trkpt lat="31.3940051" lon="34.4684533"><ele>44.5</ele><time>2014-11-08T08:21:28Z</time></trkpt>
<trkpt lat="31.3937243" lon="34.4681283"><ele>45.8</ele><time>2014-11-08T08:21:33Z</time></trkpt>
<trkpt lat="31.3934166" lon="34.4676415"><ele>47.0</ele><time>2014-11-08T08:21:39Z</time></trkpt>
<trkpt lat="31.3931214" lon="34.4671446"><ele>47.0</ele><time>2014-11-08T08:21:45Z</time></trkpt>
<trkpt lat="31.3930376" lon="34.4669960"><ele>47.0</ele><time>2014-11-08T08:21:48Z</time></trkpt>
<trkpt lat="31.3927414" lon="34.4666259"><ele>48.8</ele><time>2014-11-08T08:21:52Z</time></trkpt>
<trkpt lat="31.3923684" lon="34.4661641"><ele>51.6</ele><time>2014-11-08T08:21:58Z</time></trkpt>
<trkpt lat="31.3920087" lon="34.4657404"><ele>52.0</ele><time>2014-11-08T08:22:04Z</time></trkpt>
<trkpt lat="31.3918526" lon="34.4654563"><ele>52.0</ele><time>2014-11-08T08:22:07Z</time></trkpt>
<trkpt lat="31.3918117" lon="34.4654717"><ele>52.0</ele><time>2014-11-08T08:22:08Z</time></trkpt>
<trkpt lat="31.3916536" lon="34.4652552"><ele>51.2</ele><time>2014-11-08T08:22:11Z</time></trkpt>
<trkpt lat="31.3915467" lon="34.4650555"><ele>50.0</ele><time>2014-11-08T08:22:14Z</time></trkpt>
<trkpt lat="31.3911678" lon="34.4646415"><ele>50.6</ele><time>2014-11-08T08:22:21Z</time></trkpt>
<trkpt lat="31.3908247" lon="34.4643301"><ele>48.9</ele><time>2014-11-08T08:22:26Z</time></trkpt>
<trkpt lat="31.3907069" lon="34.4642873"><ele>48.7</ele><time>2014-11-08T08:22:27Z</time></trkpt>
<trkpt lat="31.3906981" lon="34.4640631"><ele>48.3</ele><time>2014-11-08T08:22:29Z</time></trkpt>
<trkpt lat="31.3906699" lon="34.4639786"><ele>48.2</ele><time>2014-11-08T08:22:30Z</time></trkpt>
<trkpt lat="31.3906367" lon="34.4639475"><ele>48.0</ele><time>2014-11-08T08:22:31Z</time></trkpt>
<trkpt lat="31.3905380" lon="34.4636222"><ele>48.8</ele><time>2014-11-08T08:22:36Z</time></trkpt>
<trkpt lat="31.3904873" lon="34.4630514"><ele>50.0</ele><time>2014-11-08T08:22:42Z</time></trkpt>
<trkpt lat="31.3903946" lon="34.4624506"><ele>49.5</ele><time>2014-11-08T08:22:48Z</time></trkpt>
<trkpt lat="31.3902749" lon="34.4618538"><ele>52.4</ele><time>2014-11-08T08:22:54Z</time></trkpt>
<trkpt lat="31.3902243" lon="34.4613025"><ele>54.8</ele><time>2014-11-08T08:23:00Z</time></trkpt>
<trkpt lat="31.3902134" lon="34.4611008"><ele>55.6</ele><time>2014-11-08T08:23:02Z</time></trkpt>
<trkpt lat="31.3900884" lon="34.4605443"><ele>54.3</ele><time>2014-11-08T08:23:08Z</time></trkpt>
<trkpt lat="31.3900075" lon="34.4601569"><ele>53.2</ele><time>2014-11-08T08:23:13Z</time></trkpt>
<trkpt lat="31.3900116" lon="34.4599815"><ele>52.6</ele><time>2014-11-08T08:23:15Z</time></trkpt>
<trkpt lat="31.3899096" lon="34.4595955"><ele>51.6</ele><time>2014-11-08T08:23:18Z</time></trkpt>
<trkpt lat="31.3898887" lon="34.4593046"><ele>51.2</ele><time>2014-11-08T08:23:21Z</time></trkpt>
<trkpt lat="31.3897802" lon="34.4588685"><ele>52.0</ele><time>2014-11-08T08:23:26Z</time></trkpt>
<trkpt lat="31.3898056" lon="34.4587611"><ele>51.9</ele><time>2014-11-08T08:23:26Z</time></trkpt>
<trkpt lat="31.3896416" lon="34.4581767"><ele>51.0</ele><time>2014-11-08T08:23:31Z</time></trkpt>
<trkpt lat="31.3895628" lon="34.4576441"><ele>50.0</ele><time>2014-11-08T08:23:36Z</time></trkpt>
<trkpt lat="31.3895502" lon="34.4575301"><ele>50.0</ele><time>2014-11-08T08:23:37Z</time></trkpt>
<trkpt lat="31.3895719" lon="34.4574418"><ele>50.0</ele><time>2014-11-08T08:23:38Z</time></trkpt>
<trkpt lat="31.3894398" lon="34.4568453"><ele>49.6</ele><time>2014-11-08T08:23:43Z</time></trkpt>
<trkpt lat="31.3892765" lon="34.4563351"><ele>48.6</ele><time>2014-11-08T08:23:48Z</time></trkpt>
<trkpt lat="31.3891355" lon="34.4560265"><ele>48.0</ele><time>2014-11-08T08:23:52Z</time></trkpt>
<trkpt lat="31.3890634" lon="34.4559297"><ele>47.8</ele><time>2014-11-08T08:23:53Z</time></trkpt>
<trkpt lat="31.3888400" lon="34.4554155"><ele>47.0</ele><time>2014-11-08T08:23:58Z</time></trkpt>
<trkpt lat="31.3887704" lon="34.4552095"><ele>47.0</ele><time>2014-11-08T08:23:59Z</time></trkpt>
<trkpt lat="31.3887087" lon="34.4551266"><ele>47.0</ele><time>2014-11-08T08:24:00Z</time></trkpt>
<trkpt lat="31.3884875" lon="34.4545736"><ele>47.0</ele><time>2014-11-08T08:24:06Z</time></trkpt>
<trkpt lat="31.3882421" lon="34.4540507"><ele>45.9</ele><time>2014-11-08T08:24:12Z</time></trkpt>
<trkpt lat="31.3879986" lon="34.4535715"><ele>44.9</ele><time>2014-11-08T08:24:17Z</time></trkpt>
<trkpt lat="31.3877843" lon="34.4531030"><ele>43.8</ele><time>2014-11-08T08:24:22Z</time></trkpt>
<trkpt lat="31.3875384" lon="34.4526129"><ele>42.7</ele><time>2014-11-08T08:24:27Z</time></trkpt>
<trkpt lat="31.3874323" lon="34.4524245"><ele>42.3</ele><time>2014-11-08T08:24:29Z</time></trkpt>
<trkpt lat="31.3872783" lon="34.4518934"><ele>41.2</ele><time>2014-11-08T08:24:34Z</time></trkpt>
<trkpt lat="31.3870865" lon="34.4514003"><ele>40.2</ele><time>2014-11-08T08:24:39Z</time></trkpt>
<trkpt lat="31.3870488" lon="34.4512941"><ele>40.0</ele><time>2014-11-08T08:24:40Z</time></trkpt>
<trkpt lat="31.3870531" lon="34.4512276"><ele>39.8</ele><time>2014-11-08T08:24:41Z</time></trkpt>
<trkpt lat="31.3870058" lon="34.4510849"><ele>39.6</ele><time>2014-11-08T08:24:42Z</time></trkpt>
<trkpt lat="31.3867731" lon="34.4506984"><ele>38.7</ele><time>2014-11-08T08:24:47Z</time></trkpt>
<trkpt lat="31.3866692" lon="34.4504060"><ele>37.7</ele><time>2014-11-08T08:24:49Z</time></trkpt>
<trkpt lat="31.3865895" lon="34.4501182"><ele>37.1</ele><time>2014-11-08T08:24:52Z</time></trkpt>
<trkpt lat="31.3864480" lon="34.4499399"><ele>37.3</ele><time>2014-11-08T08:24:55Z</time></trkpt>
<trkpt lat="31.3863272" lon="34.4496654"><ele>37.6</ele><time>2014-11-08T08:24:58Z</time></trkpt>
<trkpt lat="31.3862575" lon="34.4496111"><ele>37.6</ele><time>2014-11-08T08:24:58Z</time></trkpt>
<trkpt lat="31.3860405" lon="34.4490955"><ele>38.2</ele><time>2014-11-08T08:25:04Z</time></trkpt>
<trkpt lat="31.3857804" lon="34.4486554"><ele>39.0</ele><time>2014-11-08T08:25:08Z</time></trkpt>
<trkpt lat="31.3855470" lon="34.4482746"><ele>38.0</ele><time>2014-11-08T08:25:13Z</time></trkpt>
<trkpt lat="31.3853995" lon="34.4481393"><ele>38.2</ele><time>2014-11-08T08:25:15Z</time></trkpt>
<trkpt lat="31.3849993" lon="34.4478479"><ele>38.7</ele><time>2014-11-08T08:25:21Z</time></trkpt>
<trkpt lat="31.3846838" lon="34.4476096"><ele>39.1</ele><time>2014-11-08T08:25:25Z</time></trkpt>
<trkpt lat="31.3841979" lon="34.4474886"><ele>39.7</ele><time>2014-11-08T08:25:32Z</time></trkpt>
<trkpt lat="31.3841432" lon="34.4475297"><ele>39.8</ele><time>2014-11-08T08:25:33Z</time></trkpt>
<trkpt lat="31.3836852" lon="34.4474775"><ele>38.7</ele><time>2014-11-08T08:25:39Z</time></trkpt>
<trkpt lat="31.3831761" lon="34.4474494"><ele>38.9</ele><time>2014-11-08T08:25:47Z</time></trkpt>
<trkpt lat="31.3827018" lon="34.4474134"><ele>39.9</ele><time>2014-11-08T08:25:54Z</time></trkpt>
<trkpt lat="31.3822926" lon="34.4474204"><ele>40.8</ele><time>2014-11-08T08:26:00Z</time></trkpt>
<trkpt lat="31.3819738" lon="34.4474282"><ele>41.6</ele><time>2014-11-08T08:26:05Z</time></trkpt>
<trkpt lat="31.3815226" lon="34.4473923"><ele>42.0</ele><time>2014-11-08T08:26:12Z</time></trkpt>
<trkpt lat="31.3810358" lon="34.4473103"><ele>42.3</ele><time>2014-11-08T08:26:20Z</time></trkpt>
<trkpt lat="31.3805455" lon="34.4472716"><ele>43.4</ele><time>2014-11-08T08:26:29Z</time></trkpt>
<trkpt lat="31.3800695" lon="34.4472541"><ele>44.5</ele><time>2014-11-08T08:26:37Z</time></trkpt>
<trkpt lat="31.3795932" lon="34.4472366"><ele>45.0</ele><time>2014-11-08T08:26:46Z</time></trkpt>
<trkpt lat="31.3791175" lon="34.4472774"><ele>45.7</ele><time>2014-11-08T08:26:53Z</time></trkpt>
<trkpt lat="31.3786560" lon="34.4473593"><ele>46.6</ele><time>2014-11-08T08:27:01Z</time></trkpt>
<trkpt lat="31.3782162" lon="34.4474760"><ele>47.5</ele><time>2014-11-08T08:27:09Z</time></trkpt>
<trkpt lat="31.3777657" lon="34.4475815"><ele>48.3</ele><time>2014-11-08T08:27:17Z</time></trkpt>
<trkpt lat="31.3773100" lon="34.4476970"><ele>50.2</ele><time>2014-11-08T08:27:24Z</time></trkpt>
<trkpt lat="31.3768250" lon="34.4478422"><ele>52.0</ele><time>2014-11-08T08:27:31Z</time></trkpt>
<trkpt lat="31.3763791" lon="34.4479213"><ele>53.0</ele><time>2014-11-08T08:27:38Z</time></trkpt>
<trkpt lat="31.3759123" lon="34.4480722"><ele>52.8</ele><time>2014-11-08T08:27:45Z</time></trkpt>
<trkpt lat="31.3754338" lon="34.4482290"><ele>52.3</ele><time>2014-11-08T08:27:52Z</time></trkpt>
<trkpt lat="31.3749715" lon="34.4483387"><ele>51.8</ele><time>2014-11-08T08:27:59Z</time></trkpt>
<trkpt lat="31.3744845" lon="34.4484651"><ele>51.1</ele><time>2014-11-08T08:28:08Z</time></trkpt>
<trkpt lat="31.3739912" lon="34.4485882"><ele>50.6</ele><time>2014-11-08T08:28:15Z</time></trkpt>
<trkpt lat="31.3735235" lon="34.4487467"><ele>50.1</ele><time>2014-11-08T08:28:21Z</time></trkpt>
<trkpt lat="31.3731949" lon="34.4488095"><ele>50.7</ele><time>2014-11-08T08:28:26Z</time></trkpt>
<trkpt lat="31.3730499" lon="34.4488726"><ele>51.0</ele><time>2014-11-08T08:28:28Z</time></trkpt>
<trkpt lat="31.3727672" lon="34.4489056"><ele>51.0</ele><time>2014-11-08T08:28:32Z</time></trkpt>
<trkpt lat="31.3722948" lon="34.4490496"><ele>51.0</ele><time>2014-11-08T08:28:39Z</time></trkpt>
<trkpt lat="31.3718383" lon="34.4491782"><ele>51.0</ele><time>2014-11-08T08:28:47Z</time></trkpt>
<trkpt lat="31.3713797" lon="34.4493070"><ele>51.0</ele><time>2014-11-08T08:28:53Z</time></trkpt>
<trkpt lat="31.3708895" lon="34.4494512"><ele>51.0</ele><time>2014-11-08T08:29:01Z</time></trkpt>
<trkpt lat="31.3703967" lon="34.4495730"><ele>51.0</ele><time>2014-11-08T08:29:09Z</time></trkpt>
<trkpt lat="31.3699331" lon="34.4496900"><ele>51.0</ele><time>2014-11-08T08:29:16Z</time></trkpt>
<trkpt lat="31.3694882" lon="34.4498281"><ele>52.0</ele><time>2014-11-08T08:29:23Z</time></trkpt>
<trkpt lat="31.3689990" lon="34.4499306"><ele>54.6</ele><time>2014-11-08T08:29:32Z</time></trkpt>
<trkpt lat="31.3685273" lon="34.4500443"><ele>56.0</ele><time>2014-11-08T08:29:39Z</time></trkpt>
<trkpt lat="31.3680705" lon="34.4501423"><ele>56.0</ele><time>2014-11-08T08:29:46Z</time></trkpt>
<trkpt lat="31.3676242" lon="34.4502680"><ele>56.3</ele><time>2014-11-08T08:29:52Z</time></trkpt>
<trkpt lat="31.3671664" lon="34.4503788"><ele>56.5</ele><time>2014-11-08T08:29:59Z</time></trkpt>
<trkpt lat="31.3666971" lon="34.4504801"><ele>56.8</ele><time>2014-11-08T08:30:06Z</time></trkpt>
<trkpt lat="31.3662258" lon="34.4505522"><ele>56.8</ele><time>2014-11-08T08:30:13Z</time></trkpt>
<trkpt lat="31.3657508" lon="34.4506199"><ele>56.2</ele><time>2014-11-08T08:30:20Z</time></trkpt>
<trkpt lat="31.3652989" lon="34.4507181"><ele>56.6</ele><time>2014-11-08T08:30:28Z</time></trkpt>
<trkpt lat="31.3650965" lon="34.4507398"><ele>56.8</ele><time>2014-11-08T08:30:31Z</time></trkpt>
<trkpt lat="31.3646185" lon="34.4507579"><ele>57.2</ele><time>2014-11-08T08:30:37Z</time></trkpt>
<trkpt lat="31.3643185" lon="34.4507246"><ele>57.4</ele><time>2014-11-08T08:30:41Z</time></trkpt>
<trkpt lat="31.3639011" lon="34.4506965"><ele>57.8</ele><time>2014-11-08T08:30:48Z</time></trkpt>
<trkpt lat="31.3634551" lon="34.4505375"><ele>58.7</ele><time>2014-11-08T08:30:55Z</time></trkpt>
<trkpt lat="31.3630058" lon="34.4504329"><ele>60.0</ele><time>2014-11-08T08:31:02Z</time></trkpt>
<trkpt lat="31.3625334" lon="34.4503573"><ele>58.5</ele><time>2014-11-08T08:31:10Z</time></trkpt>
<trkpt lat="31.3620867" lon="34.4502614"><ele>58.0</ele><time>2014-11-08T08:31:18Z</time></trkpt>
<trkpt lat="31.3615895" lon="34.4502058"><ele>59.9</ele><time>2014-11-08T08:31:25Z</time></trkpt>
<trkpt lat="31.3611449" lon="34.4500852"><ele>60.5</ele><time>2014-11-08T08:31:32Z</time></trkpt>
<trkpt lat="31.3610757" lon="34.4500561"><ele>60.4</ele><time>2014-11-08T08:31:33Z</time></trkpt>
<trkpt lat="31.3609437" lon="34.4500522"><ele>60.0</ele><time>2014-11-08T08:31:35Z</time></trkpt>
<trkpt lat="31.3609151" lon="34.4499903"><ele>59.8</ele><time>2014-11-08T08:31:37Z</time></trkpt>
<trkpt lat="31.3604548" lon="34.4499261"><ele>59.0</ele><time>2014-11-08T08:31:43Z</time></trkpt>
<trkpt lat="31.3599483" lon="34.4498406"><ele>59.2</ele><time>2014-11-08T08:31:51Z</time></trkpt>
<trkpt lat="31.3596249" lon="34.4497939"><ele>59.4</ele><time>2014-11-08T08:31:56Z</time></trkpt>
<trkpt lat="31.3591399" lon="34.4497202"><ele>59.8</ele><time>2014-11-08T08:32:04Z</time></trkpt>
<trkpt lat="31.3586484" lon="34.4496263"><ele>60.0</ele><time>2014-11-08T08:32:12Z</time></trkpt>
<trkpt lat="31.3584341" lon="34.4495550"><ele>60.0</ele><time>2014-11-08T08:32:15Z</time></trkpt>
<trkpt lat="31.3583485" lon="34.4495672"><ele>60.0</ele><time>2014-11-08T08:32:17Z</time></trkpt>
<trkpt lat="31.3578808" lon="34.4494003"><ele>60.4</ele><time>2014-11-08T08:32:24Z</time></trkpt>
<trkpt lat="31.3577319" lon="34.4493845"><ele>60.6</ele><time>2014-11-08T08:32:26Z</time></trkpt>
<trkpt lat="31.3576608" lon="34.4493503"><ele>60.7</ele><time>2014-11-08T08:32:28Z</time></trkpt>
<trkpt lat="31.3575611" lon="34.4494215"><ele>60.9</ele><time>2014-11-08T08:32:30Z</time></trkpt>
<trkpt lat="31.3573088" lon="34.4493833"><ele>61.3</ele><time>2014-11-08T08:32:33Z</time></trkpt>
<trkpt lat="31.3572232" lon="34.4493179"><ele>61.4</ele><time>2014-11-08T08:32:35Z</time></trkpt>
<trkpt lat="31.3567147" lon="34.4492258"><ele>62.0</ele><time>2014-11-08T08:32:44Z</time></trkpt>
<trkpt lat="31.3562447" lon="34.4491412"><ele>62.0</ele><time>2014-11-08T08:32:52Z</time></trkpt>
<trkpt lat="31.3558772" lon="34.4490477"><ele>63.9</ele><time>2014-11-08T08:32:59Z</time></trkpt>
<trkpt lat="31.3556031" lon="34.4490057"><ele>65.3</ele><time>2014-11-08T08:33:02Z</time></trkpt>
<trkpt lat="31.3553183" lon="34.4489368"><ele>65.4</ele><time>2014-11-08T08:33:08Z</time></trkpt>
<trkpt lat="31.3552590" lon="34.4489007"><ele>65.2</ele><time>2014-11-08T08:33:09Z</time></trkpt>
<trkpt lat="31.3547948" lon="34.4488076"><ele>64.0</ele><time>2014-11-08T08:33:16Z</time></trkpt>
<trkpt lat="31.3542955" lon="34.4487215"><ele>64.4</ele><time>2014-11-08T08:33:24Z</time></trkpt>
<trkpt lat="31.3540453" lon="34.4487044"><ele>64.9</ele><time>2014-11-08T08:33:28Z</time></trkpt>
<trkpt lat="31.3539142" lon="34.4486572"><ele>65.1</ele><time>2014-11-08T08:33:30Z</time></trkpt>
<trkpt lat="31.3536868" lon="34.4486525"><ele>65.6</ele><time>2014-11-08T08:33:34Z</time></trkpt>
<trkpt lat="31.3532305" lon="34.4485425"><ele>66.9</ele><time>2014-11-08T08:33:43Z</time></trkpt>
<trkpt lat="31.3529782" lon="34.4484939"><ele>67.6</ele><time>2014-11-08T08:33:46Z</time></trkpt>
<trkpt lat="31.3525306" lon="34.4483986"><ele>68.0</ele><time>2014-11-08T08:33:54Z</time></trkpt>
<trkpt lat="31.3520276" lon="34.4482943"><ele>68.0</ele><time>2014-11-08T08:34:02Z</time></trkpt>
<trkpt lat="31.3518106" lon="34.4482834"><ele>68.0</ele><time>2014-11-08T08:34:06Z</time></trkpt>
<trkpt lat="31.3516358" lon="34.4481928"><ele>68.0</ele><time>2014-11-08T08:34:09Z</time></trkpt>
<trkpt lat="31.3511629" lon="34.4480763"><ele>68.0</ele><time>2014-11-08T08:34:17Z</time></trkpt>
<trkpt lat="31.3506982" lon="34.4479609"><ele>68.4</ele><time>2014-11-08T08:34:25Z</time></trkpt>
<trkpt lat="31.3502303" lon="34.4478776"><ele>69.6</ele><time>2014-11-08T08:34:34Z</time></trkpt>
<trkpt lat="31.3497300" lon="34.4477872"><ele>70.9</ele><time>2014-11-08T08:34:43Z</time></trkpt>
<trkpt lat="31.3494617" lon="34.4476772"><ele>71.0</ele><time>2014-11-08T08:34:49Z</time></trkpt>
<trkpt lat="31.3489424" lon="34.4475959"><ele>69.5</ele><time>2014-11-08T08:34:57Z</time></trkpt>
<trkpt lat="31.3484749" lon="34.4474841"><ele>68.2</ele><time>2014-11-08T08:35:04Z</time></trkpt>
<trkpt lat="31.3483405" lon="34.4474624"><ele>68.0</ele><time>2014-11-08T08:35:06Z</time></trkpt>
<trkpt lat="31.3482174" lon="34.4474672"><ele>68.0</ele><time>2014-11-08T08:35:08Z</time></trkpt>
<trkpt lat="31.3477719" lon="34.4473726"><ele>68.0</ele><time>2014-11-08T08:35:15Z</time></trkpt>
<trkpt lat="31.3475609" lon="34.4473403"><ele>68.0</ele><time>2014-11-08T08:35:18Z</time></trkpt>
<trkpt lat="31.3474506" lon="34.4472992"><ele>68.0</ele><time>2014-11-08T08:35:21Z</time></trkpt>
<trkpt lat="31.3473795" lon="34.4473020"><ele>68.0</ele><time>2014-11-08T08:35:22Z</time></trkpt>
<trkpt lat="31.3472633" lon="34.4472293"><ele>68.1</ele><time>2014-11-08T08:35:24Z</time></trkpt>
<trkpt lat="31.3467665" lon="34.4471198"><ele>68.2</ele><time>2014-11-08T08:35:33Z</time></trkpt>
<trkpt lat="31.3463152" lon="34.4470326"><ele>68.4</ele><time>2014-11-08T08:35:41Z</time></trkpt>
<trkpt lat="31.3460541" lon="34.4469765"><ele>68.5</ele><time>2014-11-08T08:35:46Z</time></trkpt>
<trkpt lat="31.3459552" lon="34.4469380"><ele>68.6</ele><time>2014-11-08T08:35:48Z</time></trkpt>
<trkpt lat="31.3458657" lon="34.4469501"><ele>68.6</ele><time>2014-11-08T08:35:49Z</time></trkpt>
<trkpt lat="31.3456656" lon="34.4468837"><ele>68.7</ele><time>2014-11-08T08:35:53Z</time></trkpt>
<trkpt lat="31.3451917" lon="34.4467949"><ele>68.9</ele><time>2014-11-08T08:36:03Z</time></trkpt>
<trkpt lat="31.3447197" lon="34.4466881"><ele>68.5</ele><time>2014-11-08T08:36:12Z</time></trkpt>
<trkpt lat="31.3443328" lon="34.4466315"><ele>69.5</ele><time>2014-11-08T08:36:20Z</time></trkpt>
<trkpt lat="31.3442790" lon="34.4465665"><ele>69.8</ele><time>2014-11-08T08:36:21Z</time></trkpt>
<trkpt lat="31.3437985" lon="34.4464469"><ele>71.0</ele><time>2014-11-08T08:36:31Z</time></trkpt>
<trkpt lat="31.3435789" lon="34.4464235"><ele>71.0</ele><time>2014-11-08T08:36:33Z</time></trkpt>
<trkpt lat="31.3430942" lon="34.4463998"><ele>71.7</ele><time>2014-11-08T08:36:41Z</time></trkpt>
<trkpt lat="31.3426455" lon="34.4463074"><ele>72.9</ele><time>2014-11-08T08:36:49Z</time></trkpt>
<trkpt lat="31.3422295" lon="34.4462279"><ele>74.0</ele><time>2014-11-08T08:36:57Z</time></trkpt>
<trkpt lat="31.3419187" lon="34.4461410"><ele>74.9</ele><time>2014-11-08T08:37:03Z</time></trkpt>
<trkpt lat="31.3415510" lon="34.4461397"><ele>75.9</ele><time>2014-11-08T08:37:07Z</time></trkpt>
<trkpt lat="31.3412228" lon="34.4460314"><ele>77.0</ele><time>2014-11-08T08:37:14Z</time></trkpt>
<trkpt lat="31.3408497" lon="34.4459422"><ele>77.8</ele><time>2014-11-08T08:37:21Z</time></trkpt>
<trkpt lat="31.3407600" lon="34.4459056"><ele>77.5</ele><time>2014-11-08T08:37:22Z</time></trkpt>
<trkpt lat="31.3407814" lon="34.4459582"><ele>77.3</ele><time>2014-11-08T08:37:23Z</time></trkpt>
<trkpt lat="31.3406305" lon="34.4458729"><ele>77.0</ele><time>2014-11-08T08:37:25Z</time></trkpt>
<trkpt lat="31.3404487" lon="34.4458300"><ele>77.5</ele><time>2014-11-08T08:37:28Z</time></trkpt>
<trkpt lat="31.3401933" lon="34.4458212"><ele>78.3</ele><time>2014-11-08T08:37:32Z</time></trkpt>
<trkpt lat="31.3398122" lon="34.4457198"><ele>78.6</ele><time>2014-11-08T08:37:38Z</time></trkpt>
<trkpt lat="31.3393494" lon="34.4456740"><ele>78.0</ele><time>2014-11-08T08:37:46Z</time></trkpt>
<trkpt lat="31.3388815" lon="34.4456188"><ele>78.0</ele><time>2014-11-08T08:37:55Z</time></trkpt>
<trkpt lat="31.3383764" lon="34.4455666"><ele>78.0</ele><time>2014-11-08T08:38:03Z</time></trkpt>
<trkpt lat="31.3379202" lon="34.4455079"><ele>78.0</ele><time>2014-11-08T08:38:11Z</time></trkpt>
<trkpt lat="31.3374592" lon="34.4454587"><ele>78.0</ele><time>2014-11-08T08:38:20Z</time></trkpt>
<trkpt lat="31.3370011" lon="34.4454100"><ele>78.0</ele><time>2014-11-08T08:38:27Z</time></trkpt>
<trkpt lat="31.3365202" lon="34.4453840"><ele>78.0</ele><time>2014-11-08T08:38:35Z</time></trkpt>
<trkpt lat="31.3361572" lon="34.4453191"><ele>79.4</ele><time>2014-11-08T08:38:42Z</time></trkpt>
<trkpt lat="31.3358847" lon="34.4453383"><ele>79.4</ele><time>2014-11-08T08:38:46Z</time></trkpt>
<trkpt lat="31.3354104" lon="34.4452807"><ele>79.0</ele><time>2014-11-08T08:38:54Z</time></trkpt>
<trkpt lat="31.3349308" lon="34.4452408"><ele>79.4</ele><time>2014-11-08T08:39:03Z</time></trkpt>
<trkpt lat="31.3345486" lon="34.4451976"><ele>80.1</ele><time>2014-11-08T08:39:09Z</time></trkpt>
<trkpt lat="31.3340965" lon="34.4451024"><ele>81.2</ele><time>2014-11-08T08:39:17Z</time></trkpt>
<trkpt lat="31.3335926" lon="34.4450210"><ele>82.1</ele><time>2014-11-08T08:39:24Z</time></trkpt>
<trkpt lat="31.3334664" lon="34.4449873"><ele>82.3</ele><time>2014-11-08T08:39:26Z</time></trkpt>
<trkpt lat="31.3330706" lon="34.4449795"><ele>83.1</ele><time>2014-11-08T08:39:33Z</time></trkpt>
<trkpt lat="31.3326037" lon="34.4448376"><ele>83.5</ele><time>2014-11-08T08:39:41Z</time></trkpt>
<trkpt lat="31.3321101" lon="34.4447105"><ele>81.3</ele><time>2014-11-08T08:39:48Z</time></trkpt>
<trkpt lat="31.3319709" lon="34.4446642"><ele>81.5</ele><time>2014-11-08T08:39:50Z</time></trkpt>
<trkpt lat="31.3318631" lon="34.4446871"><ele>81.6</ele><time>2014-11-08T08:39:52Z</time></trkpt>
<trkpt lat="31.3318115" lon="34.4446292"><ele>81.7</ele><time>2014-11-08T08:39:53Z</time></trkpt>
<trkpt lat="31.3313540" lon="34.4445429"><ele>82.4</ele><time>2014-11-08T08:40:00Z</time></trkpt>
<trkpt lat="31.3310561" lon="34.4444536"><ele>82.8</ele><time>2014-11-08T08:40:05Z</time></trkpt>
<trkpt lat="31.3306183" lon="34.4443015"><ele>83.5</ele><time>2014-11-08T08:40:13Z</time></trkpt>
<trkpt lat="31.3304368" lon="34.4442411"><ele>83.8</ele><time>2014-11-08T08:40:16Z</time></trkpt>
<trkpt lat="31.3304015" lon="34.4441982"><ele>83.9</ele><time>2014-11-08T08:40:17Z</time></trkpt>
<trkpt lat="31.3299526" lon="34.4440938"><ele>81.9</ele><time>2014-11-08T08:40:25Z</time></trkpt>
<trkpt lat="31.3295017" lon="34.4439333"><ele>81.8</ele><time>2014-11-08T08:40:33Z</time></trkpt>
<trkpt lat="31.3290461" lon="34.4438040"><ele>82.7</ele><time>2014-11-08T08:40:41Z</time></trkpt>
<trkpt lat="31.3285603" lon="34.4436614"><ele>81.5</ele><time>2014-11-08T08:40:51Z</time></trkpt>
<trkpt lat="31.3281279" lon="34.4435067"><ele>82.6</ele><time>2014-11-08T08:40:58Z</time></trkpt>
<trkpt lat="31.3276665" lon="34.4433616"><ele>83.7</ele><time>2014-11-08T08:41:06Z</time></trkpt>
<trkpt lat="31.3272813" lon="34.4432553"><ele>85.0</ele><time>2014-11-08T08:41:14Z</time></trkpt>
<trkpt lat="31.3272215" lon="34.4432963"><ele>84.9</ele><time>2014-11-08T08:41:14Z</time></trkpt>
<trkpt lat="31.3267662" lon="34.4431417"><ele>84.7</ele><time>2014-11-08T08:41:23Z</time></trkpt>
<trkpt lat="31.3264910" lon="34.4430394"><ele>85.8</ele><time>2014-11-08T08:41:29Z</time></trkpt>
<trkpt lat="31.3264427" lon="34.4430456"><ele>85.9</ele><time>2014-11-08T08:41:30Z</time></trkpt>
<trkpt lat="31.3259815" lon="34.4428860"><ele>86.5</ele><time>2014-11-08T08:41:39Z</time></trkpt>
<trkpt lat="31.3255202" lon="34.4427474"><ele>86.2</ele><time>2014-11-08T08:41:48Z</time></trkpt>
<trkpt lat="31.3250639" lon="34.4425888"><ele>86.5</ele><time>2014-11-08T08:41:56Z</time></trkpt>
<trkpt lat="31.3246845" lon="34.4424647"><ele>86.7</ele><time>2014-11-08T08:42:03Z</time></trkpt>
<trkpt lat="31.3242401" lon="34.4423604"><ele>87.0</ele><time>2014-11-08T08:42:12Z</time></trkpt>
<trkpt lat="31.3237602" lon="34.4422330"><ele>87.3</ele><time>2014-11-08T08:42:22Z</time></trkpt>
<trkpt lat="31.3233201" lon="34.4420756"><ele>87.6</ele><time>2014-11-08T08:42:31Z</time></trkpt>
<trkpt lat="31.3228756" lon="34.4419365"><ele>87.9</ele><time>2014-11-08T08:42:40Z</time></trkpt>
<trkpt lat="31.3224332" lon="34.4418207"><ele>90.2</ele><time>2014-11-08T08:42:49Z</time></trkpt>
<trkpt lat="31.3219557" lon="34.4416670"><ele>91.0</ele><time>2014-11-08T08:42:59Z</time></trkpt>
<trkpt lat="31.3215037" lon="34.4415224"><ele>92.6</ele><time>2014-11-08T08:43:08Z</time></trkpt>
<trkpt lat="31.3211817" lon="34.4414338"><ele>93.6</ele><time>2014-11-08T08:43:14Z</time></trkpt>
<trkpt lat="31.3211085" lon="34.4414576"><ele>94.0</ele><time>2014-11-08T08:43:16Z</time></trkpt>
<trkpt lat="31.3206726" lon="34.4412930"><ele>96.2</ele><time>2014-11-08T08:43:24Z</time></trkpt>
<trkpt lat="31.3202073" lon="34.4411442"><ele>97.2</ele><time>2014-11-08T08:43:35Z</time></trkpt>
<trkpt lat="31.3198129" lon="34.4410213"><ele>97.8</ele><time>2014-11-08T08:43:43Z</time></trkpt>
<trkpt lat="31.3194322" lon="34.4408966"><ele>101.1</ele><time>2014-11-08T08:43:51Z</time></trkpt>
<trkpt lat="31.3192463" lon="34.4407660"><ele>103.0</ele><time>2014-11-08T08:43:56Z</time></trkpt>
<trkpt lat="31.3190129" lon="34.4407361"><ele>103.5</ele><time>2014-11-08T08:44:01Z</time></trkpt>
<trkpt lat="31.3190125" lon="34.4406993"><ele>104.0</ele><time>2014-11-08T08:44:02Z</time></trkpt>
<trkpt lat="31.3187893" lon="34.4406270"><ele>105.8</ele><time>2014-11-08T08:44:07Z</time></trkpt>
<trkpt lat="31.3183949" lon="34.4405111"><ele>105.3</ele><time>2014-11-08T08:44:16Z</time></trkpt>
<trkpt lat="31.3179434" lon="34.4404307"><ele>105.8</ele><time>2014-11-08T08:44:25Z</time></trkpt>
<trkpt lat="31.3174659" lon="34.4403040"><ele>104.4</ele><time>2014-11-08T08:44:33Z</time></trkpt>
<trkpt lat="31.3169917" lon="34.4401248"><ele>105.0</ele><time>2014-11-08T08:44:40Z</time></trkpt>
<trkpt lat="31.3165371" lon="34.4399829"><ele>105.0</ele><time>2014-11-08T08:44:47Z</time></trkpt>
<trkpt lat="31.3160711" lon="34.4398347"><ele>105.0</ele><time>2014-11-08T08:44:55Z</time></trkpt>
<trkpt lat="31.3155724" lon="34.4396751"><ele>108.5</ele><time>2014-11-08T08:45:03Z</time></trkpt>
<trkpt lat="31.3150757" lon="34.4395341"><ele>111.3</ele><time>2014-11-08T08:45:10Z</time></trkpt>
<trkpt lat="31.3146128" lon="34.4393836"><ele>112.0</ele><time>2014-11-08T08:45:18Z</time></trkpt>
<trkpt lat="31.3141513" lon="34.4392178"><ele>112.7</ele><time>2014-11-08T08:45:26Z</time></trkpt>
<trkpt lat="31.3138969" lon="34.4390911"><ele>113.0</ele><time>2014-11-08T08:45:29Z</time></trkpt>
<trkpt lat="31.3138202" lon="34.4391053"><ele>113.1</ele><time>2014-11-08T08:45:30Z</time></trkpt>
<trkpt lat="31.3134982" lon="34.4389844"><ele>113.5</ele><time>2014-11-08T08:45:35Z</time></trkpt>
<trkpt lat="31.3130205" lon="34.4388574"><ele>114.0</ele><time>2014-11-08T08:45:43Z</time></trkpt>
<trkpt lat="31.3128713" lon="34.4388109"><ele>114.0</ele><time>2014-11-08T08:45:45Z</time></trkpt>
<trkpt lat="31.3128018" lon="34.4388204"><ele>114.0</ele><time>2014-11-08T08:45:46Z</time></trkpt>
<trkpt lat="31.3123486" lon="34.4386538"><ele>112.7</ele><time>2014-11-08T08:45:54Z</time></trkpt>
<trkpt lat="31.3118528" lon="34.4384769"><ele>113.6</ele><time>2014-11-08T08:46:01Z</time></trkpt>
<trkpt lat="31.3113912" lon="34.4383451"><ele>114.4</ele><time>2014-11-08T08:46:09Z</time></trkpt>
<trkpt lat="31.3109476" lon="34.4382412"><ele>114.9</ele><time>2014-11-08T08:46:16Z</time></trkpt>
<trkpt lat="31.3104591" lon="34.4380916"><ele>117.0</ele><time>2014-11-08T08:46:24Z</time></trkpt>
<trkpt lat="31.3100097" lon="34.4379521"><ele>114.0</ele><time>2014-11-08T08:46:31Z</time></trkpt>
<trkpt lat="31.3095190" lon="34.4377999"><ele>112.7</ele><time>2014-11-08T08:46:39Z</time></trkpt>
<trkpt lat="31.3090776" lon="34.4376536"><ele>111.3</ele><time>2014-11-08T08:46:47Z</time></trkpt>
<trkpt lat="31.3086021" lon="34.4375223"><ele>113.0</ele><time>2014-11-08T08:46:55Z</time></trkpt>
<trkpt lat="31.3085003" lon="34.4374897"><ele>113.0</ele><time>2014-11-08T08:46:57Z</time></trkpt>
<trkpt lat="31.3084845" lon="34.4375799"><ele>113.0</ele><time>2014-11-08T08:46:57Z</time></trkpt>
<trkpt lat="31.3082371" lon="34.4374423"><ele>112.7</ele><time>2014-11-08T08:47:01Z</time></trkpt>
<trkpt lat="31.3078007" lon="34.4372787"><ele>112.3</ele><time>2014-11-08T08:47:08Z</time></trkpt>
<trkpt lat="31.3073284" lon="34.4371230"><ele>111.8</ele><time>2014-11-08T08:47:16Z</time></trkpt>
<trkpt lat="31.3068555" lon="34.4369726"><ele>111.4</ele><time>2014-11-08T08:47:23Z</time></trkpt>
<trkpt lat="31.3063714" lon="34.4368397"><ele>111.0</ele><time>2014-11-08T08:47:30Z</time></trkpt>
<trkpt lat="31.3058954" lon="34.4366731"><ele>110.6</ele><time>2014-11-08T08:47:38Z</time></trkpt>
<trkpt lat="31.3053925" lon="34.4364921"><ele>110.2</ele><time>2014-11-08T08:47:45Z</time></trkpt>
<trkpt lat="31.3049355" lon="34.4363720"><ele>110.0</ele><time>2014-11-08T08:47:50Z</time></trkpt>
<trkpt lat="31.3044394" lon="34.4362117"><ele>110.0</ele><time>2014-11-08T08:47:57Z</time></trkpt>
<trkpt lat="31.3039585" lon="34.4360246"><ele>109.5</ele><time>2014-11-08T08:48:04Z</time></trkpt>
<trkpt lat="31.3037511" lon="34.4360067"><ele>109.1</ele><time>2014-11-08T08:48:07Z</time></trkpt>
<trkpt lat="31.3032587" lon="34.4358026"><ele>108.3</ele><time>2014-11-08T08:48:14Z</time></trkpt>
<trkpt lat="31.3029238" lon="34.4357256"><ele>108.3</ele><time>2014-11-08T08:48:18Z</time></trkpt>
<trkpt lat="31.3027864" lon="34.4356674"><ele>109.0</ele><time>2014-11-08T08:48:20Z</time></trkpt>
<trkpt lat="31.3022953" lon="34.4355421"><ele>109.6</ele><time>2014-11-08T08:48:28Z</time></trkpt>
<trkpt lat="31.3018019" lon="34.4353679"><ele>109.0</ele><time>2014-11-08T08:48:35Z</time></trkpt>
<trkpt lat="31.3013654" lon="34.4352151"><ele>109.0</ele><time>2014-11-08T08:48:40Z</time></trkpt>
<trkpt lat="31.3008662" lon="34.4350800"><ele>107.1</ele><time>2014-11-08T08:48:47Z</time></trkpt>
<trkpt lat="31.3004125" lon="34.4349336"><ele>106.4</ele><time>2014-11-08T08:48:53Z</time></trkpt>
<trkpt lat="31.3001805" lon="34.4348325"><ele>107.0</ele><time>2014-11-08T08:48:56Z</time></trkpt>
<trkpt lat="31.3000552" lon="34.4348242"><ele>106.6</ele><time>2014-11-08T08:48:58Z</time></trkpt>
<trkpt lat="31.2995470" lon="34.4346795"><ele>105.4</ele><time>2014-11-08T08:49:05Z</time></trkpt>
<trkpt lat="31.2991551" lon="34.4345799"><ele>104.3</ele><time>2014-11-08T08:49:11Z</time></trkpt>
<trkpt lat="31.2986688" lon="34.4344047"><ele>104.8</ele><time>2014-11-08T08:49:18Z</time></trkpt>
<trkpt lat="31.2982145" lon="34.4342568"><ele>105.4</ele><time>2014-11-08T08:49:26Z</time></trkpt>
<trkpt lat="31.2977231" lon="34.4340975"><ele>105.9</ele><time>2014-11-08T08:49:33Z</time></trkpt>
<trkpt lat="31.2972448" lon="34.4339624"><ele>107.1</ele><time>2014-11-08T08:49:41Z</time></trkpt>
<trkpt lat="31.2967672" lon="34.4337982"><ele>108.6</ele><time>2014-11-08T08:49:49Z</time></trkpt>
<trkpt lat="31.2963064" lon="34.4336350"><ele>110.0</ele><time>2014-11-08T08:49:57Z</time></trkpt>
<trkpt lat="31.2958084" lon="34.4335029"><ele>110.0</ele><time>2014-11-08T08:50:06Z</time></trkpt>
<trkpt lat="31.2953667" lon="34.4333452"><ele>110.0</ele><time>2014-11-08T08:50:12Z</time></trkpt>
<trkpt lat="31.2948939" lon="34.4332020"><ele>110.0</ele><time>2014-11-08T08:50:19Z</time></trkpt>
<trkpt lat="31.2944267" lon="34.4330774"><ele>110.0</ele><time>2014-11-08T08:50:26Z</time></trkpt>
<trkpt lat="31.2939450" lon="34.4329135"><ele>110.0</ele><time>2014-11-08T08:50:33Z</time></trkpt>
<trkpt lat="31.2934954" lon="34.4327674"><ele>110.0</ele><time>2014-11-08T08:50:40Z</time></trkpt>
<trkpt lat="31.2930313" lon="34.4326716"><ele>109.5</ele><time>2014-11-08T08:50:47Z</time></trkpt>
<trkpt lat="31.2926623" lon="34.4326242"><ele>109.1</ele><time>2014-11-08T08:50:52Z</time></trkpt>
<trkpt lat="31.2925843" lon="34.4326412"><ele>109.0</ele><time>2014-11-08T08:50:53Z</time></trkpt>
<trkpt lat="31.2921530" lon="34.4326193"><ele>108.4</ele><time>2014-11-08T08:50:59Z</time></trkpt>
<trkpt lat="31.2916490" lon="34.4326481"><ele>107.6</ele><time>2014-11-08T08:51:07Z</time></trkpt>
<trkpt lat="31.2911615" lon="34.4326687"><ele>106.9</ele><time>2014-11-08T08:51:13Z</time></trkpt>
<trkpt lat="31.2906788" lon="34.4326836"><ele>106.1</ele><time>2014-11-08T08:51:20Z</time></trkpt>
<trkpt lat="31.2901721" lon="34.4326817"><ele>107.4</ele><time>2014-11-08T08:51:28Z</time></trkpt>
<trkpt lat="31.2896789" lon="34.4326912"><ele>112.2</ele><time>2014-11-08T08:51:36Z</time></trkpt>
<trkpt lat="31.2892107" lon="34.4327054"><ele>111.0</ele><time>2014-11-08T08:51:44Z</time></trkpt>
<trkpt lat="31.2887379" lon="34.4327024"><ele>110.5</ele><time>2014-11-08T08:51:52Z</time></trkpt>
<trkpt lat="31.2882487" lon="34.4327112"><ele>109.6</ele><time>2014-11-08T08:52:00Z</time></trkpt>
<trkpt lat="31.2877496" lon="34.4327089"><ele>110.0</ele><time>2014-11-08T08:52:08Z</time></trkpt>
<trkpt lat="31.2872510" lon="34.4327158"><ele>111.0</ele><time>2014-11-08T08:52:16Z</time></trkpt>
<trkpt lat="31.2867532" lon="34.4327323"><ele>110.8</ele><time>2014-11-08T08:52:24Z</time></trkpt>
<trkpt lat="31.2862948" lon="34.4327424"><ele>110.7</ele><time>2014-11-08T08:52:31Z</time></trkpt>
<trkpt lat="31.2858023" lon="34.4327603"><ele>110.5</ele><time>2014-11-08T08:52:40Z</time></trkpt>
<trkpt lat="31.2853044" lon="34.4327793"><ele>110.3</ele><time>2014-11-08T08:52:47Z</time></trkpt>
<trkpt lat="31.2848082" lon="34.4328090"><ele>110.2</ele><time>2014-11-08T08:52:55Z</time></trkpt>
<trkpt lat="31.2843046" lon="34.4328156"><ele>110.1</ele><time>2014-11-08T08:53:03Z</time></trkpt>
<trkpt lat="31.2838034" lon="34.4328271"><ele>110.8</ele><time>2014-11-08T08:53:11Z</time></trkpt>
<trkpt lat="31.2833336" lon="34.4328421"><ele>110.5</ele><time>2014-11-08T08:53:19Z</time></trkpt>
<trkpt lat="31.2828628" lon="34.4328354"><ele>110.4</ele><time>2014-11-08T08:53:26Z</time></trkpt>
<trkpt lat="31.2826312" lon="34.4328378"><ele>111.0</ele><time>2014-11-08T08:53:30Z</time></trkpt>
<trkpt lat="31.2821320" lon="34.4328331"><ele>111.9</ele><time>2014-11-08T08:53:37Z</time></trkpt>
<trkpt lat="31.2816675" lon="34.4328517"><ele>112.9</ele><time>2014-11-08T08:53:45Z</time></trkpt>
<trkpt lat="31.2811963" lon="34.4328571"><ele>114.0</ele><time>2014-11-08T08:53:53Z</time></trkpt>
<trkpt lat="31.2807433" lon="34.4328512"><ele>114.4</ele><time>2014-11-08T08:54:01Z</time></trkpt>
<trkpt lat="31.2802824" lon="34.4328767"><ele>115.3</ele><time>2014-11-08T08:54:10Z</time></trkpt>
<trkpt lat="31.2798227" lon="34.4328794"><ele>116.3</ele><time>2014-11-08T08:54:19Z</time></trkpt>
<trkpt lat="31.2793243" lon="34.4328894"><ele>118.0</ele><time>2014-11-08T08:54:28Z</time></trkpt>
<trkpt lat="31.2788721" lon="34.4328794"><ele>120.7</ele><time>2014-11-08T08:54:35Z</time></trkpt>
<trkpt lat="31.2783859" lon="34.4328907"><ele>121.0</ele><time>2014-11-08T08:54:44Z</time></trkpt>
<trkpt lat="31.2778899" lon="34.4328895"><ele>123.2</ele><time>2014-11-08T08:54:53Z</time></trkpt>
<trkpt lat="31.2774355" lon="34.4329106"><ele>126.1</ele><time>2014-11-08T08:55:02Z</time></trkpt>
<trkpt lat="31.2769356" lon="34.4329333"><ele>129.3</ele><time>2014-11-08T08:55:11Z</time></trkpt>
<trkpt lat="31.2764680" lon="34.4329340"><ele>131.5</ele><time>2014-11-08T08:55:19Z</time></trkpt>
<trkpt lat="31.2759734" lon="34.4329543"><ele>131.8</ele><time>2014-11-08T08:55:27Z</time></trkpt>
<trkpt lat="31.2755222" lon="34.4329405"><ele>130.4</ele><time>2014-11-08T08:55:35Z</time></trkpt>
<trkpt lat="31.2753036" lon="34.4329292"><ele>130.0</ele><time>2014-11-08T08:55:39Z</time></trkpt>
<trkpt lat="31.2748216" lon="34.4329618"><ele>130.8</ele><time>2014-11-08T08:55:48Z</time></trkpt>
<trkpt lat="31.2743432" lon="34.4329712"><ele>132.0</ele><time>2014-11-08T08:55:57Z</time></trkpt>
<trkpt lat="31.2738487" lon="34.4329450"><ele>133.2</ele><time>2014-11-08T08:56:06Z</time></trkpt>
<trkpt lat="31.2733722" lon="34.4329414"><ele>134.9</ele><time>2014-11-08T08:56:15Z</time></trkpt>
<trkpt lat="31.2729208" lon="34.4329993"><ele>136.2</ele><time>2014-11-08T08:56:23Z</time></trkpt>
<trkpt lat="31.2724619" lon="34.4329872"><ele>136.9</ele><time>2014-11-08T08:56:32Z</time></trkpt>
<trkpt lat="31.2721346" lon="34.4329538"><ele>138.3</ele><time>2014-11-08T08:56:36Z</time></trkpt>
<trkpt lat="31.2720937" lon="34.4329216"><ele>138.7</ele><time>2014-11-08T08:56:37Z</time></trkpt>
<trkpt lat="31.2715792" lon="34.4328852"><ele>136.7</ele><time>2014-11-08T08:56:46Z</time></trkpt>
<trkpt lat="31.2714081" lon="34.4328428"><ele>136.2</ele><time>2014-11-08T08:56:48Z</time></trkpt>
<trkpt lat="31.2713639" lon="34.4328109"><ele>136.0</ele><time>2014-11-08T08:56:49Z</time></trkpt>
<trkpt lat="31.2709096" lon="34.4326513"><ele>137.8</ele><time>2014-11-08T08:56:57Z</time></trkpt>
<trkpt lat="31.2704359" lon="34.4323786"><ele>139.0</ele><time>2014-11-08T08:57:05Z</time></trkpt>
<trkpt lat="31.2703635" lon="34.4323744"><ele>139.0</ele><time>2014-11-08T08:57:06Z</time></trkpt>
<trkpt lat="31.2701878" lon="34.4322662"><ele>139.0</ele><time>2014-11-08T08:57:09Z</time></trkpt>
<trkpt lat="31.2700840" lon="34.4322224"><ele>139.0</ele><time>2014-11-08T08:57:11Z</time></trkpt>
<trkpt lat="31.2699871" lon="34.4320938"><ele>139.1</ele><time>2014-11-08T08:57:13Z</time></trkpt>
<trkpt lat="31.2699653" lon="34.4320291"><ele>139.1</ele><time>2014-11-08T08:57:14Z</time></trkpt>
<trkpt lat="31.2697008" lon="34.4319256"><ele>139.2</ele><time>2014-11-08T08:57:18Z</time></trkpt>
<trkpt lat="31.2696860" lon="34.4319888"><ele>139.2</ele><time>2014-11-08T08:57:19Z</time></trkpt>
<trkpt lat="31.2696019" lon="34.4319808"><ele>139.2</ele><time>2014-11-08T08:57:20Z</time></trkpt>
<trkpt lat="31.2695553" lon="34.4318946"><ele>139.3</ele><time>2014-11-08T08:57:21Z</time></trkpt>
<trkpt lat="31.2695116" lon="34.4319932"><ele>139.3</ele><time>2014-11-08T08:57:23Z</time></trkpt>
<trkpt lat="31.2691123" lon="34.4323179"><ele>139.5</ele><time>2014-11-08T08:57:29Z</time></trkpt>
<trkpt lat="31.2690390" lon="34.4323633"><ele>139.5</ele><time>2014-11-08T08:57:31Z</time></trkpt>
<trkpt lat="31.2686343" lon="34.4326192"><ele>139.7</ele><time>2014-11-08T08:57:40Z</time></trkpt>
<trkpt lat="31.2681983" lon="34.4328717"><ele>140.0</ele><time>2014-11-08T08:57:48Z</time></trkpt>
<trkpt lat="31.2677873" lon="34.4330989"><ele>138.0</ele><time>2014-11-08T08:57:57Z</time></trkpt>
<trkpt lat="31.2673731" lon="34.4333405"><ele>138.2</ele><time>2014-11-08T08:58:05Z</time></trkpt>
<trkpt lat="31.2669238" lon="34.4335725"><ele>138.4</ele><time>2014-11-08T08:58:15Z</time></trkpt>
<trkpt lat="31.2668514" lon="34.4336114"><ele>138.5</ele><time>2014-11-08T08:58:16Z</time></trkpt>
<trkpt lat="31.2668062" lon="34.4336030"><ele>138.5</ele><time>2014-11-08T08:58:17Z</time></trkpt>
<trkpt lat="31.2663704" lon="34.4339051"><ele>138.7</ele><time>2014-11-08T08:58:25Z</time></trkpt>
<trkpt lat="31.2659870" lon="34.4341163"><ele>138.8</ele><time>2014-11-08T08:58:33Z</time></trkpt>
<trkpt lat="31.2658104" lon="34.4341656"><ele>138.9</ele><time>2014-11-08T08:58:36Z</time></trkpt>
<trkpt lat="31.2657432" lon="34.4342342"><ele>139.0</ele><time>2014-11-08T08:58:37Z</time></trkpt>
<trkpt lat="31.2654973" lon="34.4343093"><ele>138.5</ele><time>2014-11-08T08:58:42Z</time></trkpt>
<trkpt lat="31.2653623" lon="34.4344092"><ele>138.0</ele><time>2014-11-08T08:58:45Z</time></trkpt>
<trkpt lat="31.2649191" lon="34.4345656"><ele>136.5</ele><time>2014-11-08T08:58:53Z</time></trkpt>
<trkpt lat="31.2647601" lon="34.4346597"><ele>136.0</ele><time>2014-11-08T08:58:56Z</time></trkpt>
<trkpt lat="31.2642985" lon="34.4348315"><ele>134.3</ele><time>2014-11-08T08:59:06Z</time></trkpt>
<trkpt lat="31.2638716" lon="34.4350386"><ele>132.7</ele><time>2014-11-08T08:59:14Z</time></trkpt>
<trkpt lat="31.2637668" lon="34.4350565"><ele>132.3</ele><time>2014-11-08T08:59:17Z</time></trkpt>
<trkpt lat="31.2636603" lon="34.4351318"><ele>132.0</ele><time>2014-11-08T08:59:18Z</time></trkpt>
<trkpt lat="31.2631885" lon="34.4352623"><ele>134.7</ele><time>2014-11-08T08:59:27Z</time></trkpt>
<trkpt lat="31.2629690" lon="34.4353790"><ele>135.0</ele><time>2014-11-08T08:59:31Z</time></trkpt>
<trkpt lat="31.2628398" lon="34.4354085"><ele>135.0</ele><time>2014-11-08T08:59:33Z</time></trkpt>
<trkpt lat="31.2627503" lon="34.4354638"><ele>135.0</ele><time>2014-11-08T08:59:34Z</time></trkpt>
<trkpt lat="31.2627434" lon="34.4354337"><ele>135.0</ele><time>2014-11-08T08:59:35Z</time></trkpt>
<trkpt lat="31.2624547" lon="34.4355829"><ele>135.6</ele><time>2014-11-08T08:59:40Z</time></trkpt>
<trkpt lat="31.2620166" lon="34.4357850"><ele>136.6</ele><time>2014-11-08T08:59:48Z</time></trkpt>
<trkpt lat="31.2619343" lon="34.4358496"><ele>136.9</ele><time>2014-11-08T08:59:50Z</time></trkpt>
<trkpt lat="31.2617510" lon="34.4359281"><ele>137.0</ele><time>2014-11-08T08:59:54Z</time></trkpt>
<trkpt lat="31.2613824" lon="34.4359758"><ele>138.0</ele><time>2014-11-08T08:59:59Z</time></trkpt>
<trkpt lat="31.2612647" lon="34.4360586"><ele>138.6</ele><time>2014-11-08T09:00:01Z</time></trkpt>
<trkpt lat="31.2611099" lon="34.4361029"><ele>139.1</ele><time>2014-11-08T09:00:03Z</time></trkpt>
<trkpt lat="31.2606768" lon="34.4363464"><ele>139.5</ele><time>2014-11-08T09:00:12Z</time></trkpt>
<trkpt lat="31.2604225" lon="34.4364717"><ele>139.7</ele><time>2014-11-08T09:00:14Z</time></trkpt>
<trkpt lat="31.2603758" lon="34.4364737"><ele>139.8</ele><time>2014-11-08T09:00:15Z</time></trkpt>
<trkpt lat="31.2599046" lon="34.4366736"><ele>139.6</ele><time>2014-11-08T09:00:24Z</time></trkpt>
<trkpt lat="31.2594647" lon="34.4368750"><ele>138.8</ele><time>2014-11-08T09:00:32Z</time></trkpt>
<trkpt lat="31.2590157" lon="34.4370694"><ele>137.4</ele><time>2014-11-08T09:00:40Z</time></trkpt>
<trkpt lat="31.2585941" lon="34.4372635"><ele>137.0</ele><time>2014-11-08T09:00:48Z</time></trkpt>
<trkpt lat="31.2581389" lon="34.4374776"><ele>137.0</ele><time>2014-11-08T09:00:58Z</time></trkpt>
<trkpt lat="31.2580334" lon="34.4375187"><ele>137.0</ele><time>2014-11-08T09:00:59Z</time></trkpt>
<trkpt lat="31.2576397" lon="34.4377976"><ele>137.0</ele><time>2014-11-08T09:01:07Z</time></trkpt>
<trkpt lat="31.2575456" lon="34.4378610"><ele>137.0</ele><time>2014-11-08T09:01:09Z</time></trkpt>
<trkpt lat="31.2571632" lon="34.4382688"><ele>136.9</ele><time>2014-11-08T09:01:18Z</time></trkpt>
<trkpt lat="31.2567913" lon="34.4386134"><ele>136.4</ele><time>2014-11-08T09:01:26Z</time></trkpt>
<trkpt lat="31.2564461" lon="34.4389623"><ele>135.8</ele><time>2014-11-08T09:01:34Z</time></trkpt>
<trkpt lat="31.2560797" lon="34.4393422"><ele>134.4</ele><time>2014-11-08T09:01:41Z</time></trkpt>
<trkpt lat="31.2557389" lon="34.4396901"><ele>136.0</ele><time>2014-11-08T09:01:49Z</time></trkpt>
<trkpt lat="31.2555395" lon="34.4398952"><ele>133.6</ele><time>2014-11-08T09:01:54Z</time></trkpt>
<trkpt lat="31.2553003" lon="34.4400785"><ele>133.7</ele><time>2014-11-08T09:01:58Z</time></trkpt>
<trkpt lat="31.2551990" lon="34.4402566"><ele>134.2</ele><time>2014-11-08T09:02:01Z</time></trkpt>
<trkpt lat="31.2548086" lon="34.4406068"><ele>135.7</ele><time>2014-11-08T09:02:10Z</time></trkpt>
<trkpt lat="31.2544714" lon="34.4408970"><ele>136.5</ele><time>2014-11-08T09:02:18Z</time></trkpt>
<trkpt lat="31.2544351" lon="34.4409774"><ele>136.6</ele><time>2014-11-08T09:02:18Z</time></trkpt>
<trkpt lat="31.2542224" lon="34.4411581"><ele>137.0</ele><time>2014-11-08T09:02:22Z</time></trkpt>
<trkpt lat="31.2539592" lon="34.4414768"><ele>136.7</ele><time>2014-11-08T09:02:29Z</time></trkpt>
<trkpt lat="31.2539051" lon="34.4414990"><ele>136.6</ele><time>2014-11-08T09:02:30Z</time></trkpt>
<trkpt lat="31.2535470" lon="34.4418852"><ele>136.2</ele><time>2014-11-08T09:02:39Z</time></trkpt>
<trkpt lat="31.2532056" lon="34.4422432"><ele>136.6</ele><time>2014-11-08T09:02:47Z</time></trkpt>
<trkpt lat="31.2530346" lon="34.4423755"><ele>137.2</ele><time>2014-11-08T09:02:50Z</time></trkpt>
<trkpt lat="31.2527215" lon="34.4426963"><ele>137.8</ele><time>2014-11-08T09:02:56Z</time></trkpt>
<trkpt lat="31.2523289" lon="34.4430857"><ele>136.2</ele><time>2014-11-08T09:03:04Z</time></trkpt>
<trkpt lat="31.2519846" lon="34.4434325"><ele>134.3</ele><time>2014-11-08T09:03:11Z</time></trkpt>
<trkpt lat="31.2516314" lon="34.4438123"><ele>131.0</ele><time>2014-11-08T09:03:18Z</time></trkpt>
<trkpt lat="31.2512849" lon="34.4441623"><ele>130.3</ele><time>2014-11-08T09:03:26Z</time></trkpt>
<trkpt lat="31.2509007" lon="34.4445408"><ele>130.0</ele><time>2014-11-08T09:03:32Z</time></trkpt>
<trkpt lat="31.2508036" lon="34.4446693"><ele>130.0</ele><time>2014-11-08T09:03:34Z</time></trkpt>
<trkpt lat="31.2506935" lon="34.4447470"><ele>129.7</ele><time>2014-11-08T09:03:36Z</time></trkpt>
<trkpt lat="31.2503376" lon="34.4451370"><ele>128.5</ele><time>2014-11-08T09:03:43Z</time></trkpt>
<trkpt lat="31.2499815" lon="34.4455053"><ele>127.2</ele><time>2014-11-08T09:03:51Z</time></trkpt>
<trkpt lat="31.2496120" lon="34.4458681"><ele>126.9</ele><time>2014-11-08T09:03:59Z</time></trkpt>
<trkpt lat="31.2492304" lon="34.4462530"><ele>126.2</ele><time>2014-11-08T09:04:08Z</time></trkpt>
<trkpt lat="31.2488811" lon="34.4466186"><ele>125.7</ele><time>2014-11-08T09:04:15Z</time></trkpt>
<trkpt lat="31.2485372" lon="34.4469691"><ele>125.2</ele><time>2014-11-08T09:04:21Z</time></trkpt>
<trkpt lat="31.2481563" lon="34.4473188"><ele>125.7</ele><time>2014-11-08T09:04:28Z</time></trkpt>
<trkpt lat="31.2477840" lon="34.4477038"><ele>124.9</ele><time>2014-11-08T09:04:36Z</time></trkpt>
<trkpt lat="31.2474444" lon="34.4480861"><ele>123.4</ele><time>2014-11-08T09:04:44Z</time></trkpt>
<trkpt lat="31.2472429" lon="34.4482666"><ele>122.0</ele><time>2014-11-08T09:04:49Z</time></trkpt>
<trkpt lat="31.2470606" lon="34.4483829"><ele>120.5</ele><time>2014-11-08T09:04:51Z</time></trkpt>
<trkpt lat="31.2469246" lon="34.4485484"><ele>120.0</ele><time>2014-11-08T09:04:55Z</time></trkpt>
<trkpt lat="31.2467369" lon="34.4486809"><ele>120.0</ele><time>2014-11-08T09:04:58Z</time></trkpt>
<trkpt lat="31.2463989" lon="34.4490586"><ele>119.4</ele><time>2014-11-08T09:05:07Z</time></trkpt>
<trkpt lat="31.2462588" lon="34.4491751"><ele>118.9</ele><time>2014-11-08T09:05:09Z</time></trkpt>
<trkpt lat="31.2462341" lon="34.4492467"><ele>118.7</ele><time>2014-11-08T09:05:10Z</time></trkpt>
<trkpt lat="31.2458648" lon="34.4496255"><ele>117.5</ele><time>2014-11-08T09:05:19Z</time></trkpt>
<trkpt lat="31.2457196" lon="34.4497831"><ele>117.3</ele><time>2014-11-08T09:05:22Z</time></trkpt>
<trkpt lat="31.2455020" lon="34.4499739"><ele>116.7</ele><time>2014-11-08T09:05:26Z</time></trkpt>
<trkpt lat="31.2451365" lon="34.4503946"><ele>114.4</ele><time>2014-11-08T09:05:35Z</time></trkpt>
<trkpt lat="31.2447555" lon="34.4507661"><ele>114.4</ele><time>2014-11-08T09:05:42Z</time></trkpt>
<trkpt lat="31.2443932" lon="34.4511345"><ele>116.0</ele><time>2014-11-08T09:05:50Z</time></trkpt>
<trkpt lat="31.2440496" lon="34.4515047"><ele>113.5</ele><time>2014-11-08T09:05:59Z</time></trkpt>
<trkpt lat="31.2439196" lon="34.4516463"><ele>112.0</ele><time>2014-11-08T09:06:01Z</time></trkpt>
<trkpt lat="31.2439201" lon="34.4516813"><ele>111.5</ele><time>2014-11-08T09:06:02Z</time></trkpt>
<trkpt lat="31.2436142" lon="34.4519649"><ele>111.0</ele><time>2014-11-08T09:06:08Z</time></trkpt>
<trkpt lat="31.2434682" lon="34.4520479"><ele>111.0</ele><time>2014-11-08T09:06:11Z</time></trkpt>
<trkpt lat="31.2432185" lon="34.4523352"><ele>110.2</ele><time>2014-11-08T09:06:17Z</time></trkpt>
<trkpt lat="31.2428413" lon="34.4526864"><ele>108.0</ele><time>2014-11-08T09:06:26Z</time></trkpt>
<trkpt lat="31.2425162" lon="34.4530532"><ele>105.0</ele><time>2014-11-08T09:06:33Z</time></trkpt>
<trkpt lat="31.2422339" lon="34.4532701"><ele>105.0</ele><time>2014-11-08T09:06:40Z</time></trkpt>
<trkpt lat="31.2421867" lon="34.4534008"><ele>105.0</ele><time>2014-11-08T09:06:41Z</time></trkpt>
<trkpt lat="31.2418199" lon="34.4537331"><ele>106.9</ele><time>2014-11-08T09:06:50Z</time></trkpt>
<trkpt lat="31.2414698" lon="34.4540805"><ele>109.0</ele><time>2014-11-08T09:06:59Z</time></trkpt>
<trkpt lat="31.2410922" lon="34.4544688"><ele>108.5</ele><time>2014-11-08T09:07:08Z</time></trkpt>
<trkpt lat="31.2409092" lon="34.4546380"><ele>108.2</ele><time>2014-11-08T09:07:12Z</time></trkpt>
<trkpt lat="31.2405621" lon="34.4549940"><ele>109.6</ele><time>2014-11-08T09:07:21Z</time></trkpt>
<trkpt lat="31.2402217" lon="34.4553475"><ele>111.0</ele><time>2014-11-08T09:07:29Z</time></trkpt>
<trkpt lat="31.2398654" lon="34.4557448"><ele>112.6</ele><time>2014-11-08T09:07:38Z</time></trkpt>
<trkpt lat="31.2394825" lon="34.4560754"><ele>113.0</ele><time>2014-11-08T09:07:45Z</time></trkpt>
<trkpt lat="31.2390697" lon="34.4564430"><ele>113.0</ele><time>2014-11-08T09:07:52Z</time></trkpt>
<trkpt lat="31.2387131" lon="34.4568516"><ele>112.2</ele><time>2014-11-08T09:08:00Z</time></trkpt>
<trkpt lat="31.2383248" lon="34.4572230"><ele>110.3</ele><time>2014-11-08T09:08:07Z</time></trkpt>
<trkpt lat="31.2379532" lon="34.4576028"><ele>110.0</ele><time>2014-11-08T09:08:13Z</time></trkpt>
<trkpt lat="31.2376158" lon="34.4579548"><ele>109.5</ele><time>2014-11-08T09:08:19Z</time></trkpt>
<trkpt lat="31.2372886" lon="34.4583303"><ele>108.9</ele><time>2014-11-08T09:08:26Z</time></trkpt>
<trkpt lat="31.2368804" lon="34.4587012"><ele>108.3</ele><time>2014-11-08T09:08:32Z</time></trkpt>
<trkpt lat="31.2365331" lon="34.4590939"><ele>107.3</ele><time>2014-11-08T09:08:39Z</time></trkpt>
<trkpt lat="31.2364272" lon="34.4592230"><ele>106.9</ele><time>2014-11-08T09:08:41Z</time></trkpt>
<trkpt lat="31.2362401" lon="34.4593676"><ele>106.4</ele><time>2014-11-08T09:08:44Z</time></trkpt>
<trkpt lat="31.2361117" lon="34.4595597"><ele>106.2</ele><time>2014-11-08T09:08:47Z</time></trkpt>
<trkpt lat="31.2360789" lon="34.4596662"><ele>106.3</ele><time>2014-11-08T09:08:49Z</time></trkpt>
<trkpt lat="31.2359856" lon="34.4596418"><ele>106.5</ele><time>2014-11-08T09:08:50Z</time></trkpt>
<trkpt lat="31.2359230" lon="34.4596661"><ele>106.7</ele><time>2014-11-08T09:08:50Z</time></trkpt>
<trkpt lat="31.2355564" lon="34.4600611"><ele>107.3</ele><time>2014-11-08T09:08:58Z</time></trkpt>
<trkpt lat="31.2351715" lon="34.4604398"><ele>107.7</ele><time>2014-11-08T09:09:04Z</time></trkpt>
<trkpt lat="31.2347875" lon="34.4608239"><ele>107.8</ele><time>2014-11-08T09:09:11Z</time></trkpt>
<trkpt lat="31.2344301" lon="34.4611679"><ele>107.2</ele><time>2014-11-08T09:09:18Z</time></trkpt>
<trkpt lat="31.2340826" lon="34.4615193"><ele>110.0</ele><time>2014-11-08T09:09:26Z</time></trkpt>
<trkpt lat="31.2336942" lon="34.4618677"><ele>111.2</ele><time>2014-11-08T09:09:33Z</time></trkpt>
<trkpt lat="31.2333673" lon="34.4622514"><ele>112.0</ele><time>2014-11-08T09:09:40Z</time></trkpt>
<trkpt lat="31.2330423" lon="34.4626496"><ele>112.7</ele><time>2014-11-08T09:09:48Z</time></trkpt>
<trkpt lat="31.2329959" lon="34.4627075"><ele>112.9</ele><time>2014-11-08T09:09:49Z</time></trkpt>
<trkpt lat="31.2330362" lon="34.4627193"><ele>113.1</ele><time>2014-11-08T09:09:49Z</time></trkpt>
<trkpt lat="31.2328338" lon="34.4630204"><ele>113.8</ele><time>2014-11-08T09:09:53Z</time></trkpt>
<trkpt lat="31.2325761" lon="34.4635410"><ele>119.0</ele><time>2014-11-08T09:10:01Z</time></trkpt>
<trkpt lat="31.2323622" lon="34.4640380"><ele>119.0</ele><time>2014-11-08T09:10:06Z</time></trkpt>
<trkpt lat="31.2322527" lon="34.4642626"><ele>119.0</ele><time>2014-11-08T09:10:10Z</time></trkpt>
<trkpt lat="31.2321853" lon="34.4642780"><ele>119.0</ele><time>2014-11-08T09:10:10Z</time></trkpt>
<trkpt lat="31.2320934" lon="34.4643997"><ele>119.1</ele><time>2014-11-08T09:10:12Z</time></trkpt>
<trkpt lat="31.2319727" lon="34.4645172"><ele>119.3</ele><time>2014-11-08T09:10:14Z</time></trkpt>
<trkpt lat="31.2319726" lon="34.4647353"><ele>119.4</ele><time>2014-11-08T09:10:16Z</time></trkpt>
<trkpt lat="31.2317808" lon="34.4651944"><ele>120.0</ele><time>2014-11-08T09:10:22Z</time></trkpt>
<trkpt lat="31.2317039" lon="34.4653337"><ele>120.2</ele><time>2014-11-08T09:10:24Z</time></trkpt>
<trkpt lat="31.2314960" lon="34.4657548"><ele>120.7</ele><time>2014-11-08T09:10:31Z</time></trkpt>
<trkpt lat="31.2314861" lon="34.4658309"><ele>120.8</ele><time>2014-11-08T09:10:32Z</time></trkpt>
<trkpt lat="31.2314431" lon="34.4658864"><ele>120.9</ele><time>2014-11-08T09:10:33Z</time></trkpt>
<trkpt lat="31.2314132" lon="34.4660230"><ele>121.0</ele><time>2014-11-08T09:10:34Z</time></trkpt>
<trkpt lat="31.2312015" lon="34.4662652"><ele>121.0</ele><time>2014-11-08T09:10:39Z</time></trkpt>
<trkpt lat="31.2311570" lon="34.4664195"><ele>121.2</ele><time>2014-11-08T09:10:40Z</time></trkpt>
<trkpt lat="31.2310732" lon="34.4665603"><ele>121.4</ele><time>2014-11-08T09:10:42Z</time></trkpt>
<trkpt lat="31.2308322" lon="34.4670787"><ele>122.0</ele><time>2014-11-08T09:10:49Z</time></trkpt>
<trkpt lat="31.2305986" lon="34.4675863"><ele>122.6</ele><time>2014-11-08T09:10:57Z</time></trkpt>
<trkpt lat="31.2303565" lon="34.4680977"><ele>123.2</ele><time>2014-11-08T09:11:05Z</time></trkpt>
<trkpt lat="31.2300972" lon="34.4685613"><ele>123.7</ele><time>2014-11-08T09:11:12Z</time></trkpt>
<trkpt lat="31.2298688" lon="34.4690249"><ele>123.0</ele><time>2014-11-08T09:11:20Z</time></trkpt>
<trkpt lat="31.2296563" lon="34.4694986"><ele>122.3</ele><time>2014-11-08T09:11:26Z</time></trkpt>
<trkpt lat="31.2295815" lon="34.4697106"><ele>122.6</ele><time>2014-11-08T09:11:30Z</time></trkpt>
<trkpt lat="31.2295088" lon="34.4697653"><ele>122.7</ele><time>2014-11-08T09:11:31Z</time></trkpt>
<trkpt lat="31.2293069" lon="34.4702591"><ele>123.3</ele><time>2014-11-08T09:11:37Z</time></trkpt>
<trkpt lat="31.2290870" lon="34.4707335"><ele>123.9</ele><time>2014-11-08T09:11:44Z</time></trkpt>
<trkpt lat="31.2288262" lon="34.4712358"><ele>124.6</ele><time>2014-11-08T09:11:52Z</time></trkpt>
<trkpt lat="31.2285745" lon="34.4717147"><ele>125.7</ele><time>2014-11-08T09:11:59Z</time></trkpt>
<trkpt lat="31.2283147" lon="34.4721700"><ele>126.4</ele><time>2014-11-08T09:12:06Z</time></trkpt>
<trkpt lat="31.2282365" lon="34.4724156"><ele>125.7</ele><time>2014-11-08T09:12:10Z</time></trkpt>
<trkpt lat="31.2279890" lon="34.4728877"><ele>124.0</ele><time>2014-11-08T09:12:17Z</time></trkpt>
<trkpt lat="31.2278884" lon="34.4729585"><ele>124.0</ele><time>2014-11-08T09:12:20Z</time></trkpt>
<trkpt lat="31.2277827" lon="34.4732015"><ele>123.3</ele><time>2014-11-08T09:12:23Z</time></trkpt>
<trkpt lat="31.2277372" lon="34.4732581"><ele>123.2</ele><time>2014-11-08T09:12:24Z</time></trkpt>
<trkpt lat="31.2277209" lon="34.4733495"><ele>123.0</ele><time>2014-11-08T09:12:25Z</time></trkpt>
<trkpt lat="31.2275014" lon="34.4737242"><ele>124.0</ele><time>2014-11-08T09:12:31Z</time></trkpt>
<trkpt lat="31.2274773" lon="34.4737986"><ele>123.9</ele><time>2014-11-08T09:12:32Z</time></trkpt>
<trkpt lat="31.2274186" lon="34.4738500"><ele>123.9</ele><time>2014-11-08T09:12:33Z</time></trkpt>
<trkpt lat="31.2273232" lon="34.4741478"><ele>123.6</ele><time>2014-11-08T09:12:37Z</time></trkpt>
<trkpt lat="31.2270896" lon="34.4746602"><ele>123.2</ele><time>2014-11-08T09:12:44Z</time></trkpt>
<trkpt lat="31.2268747" lon="34.4751294"><ele>123.0</ele><time>2014-11-08T09:12:51Z</time></trkpt>
<trkpt lat="31.2266722" lon="34.4755889"><ele>123.4</ele><time>2014-11-08T09:12:59Z</time></trkpt>
<trkpt lat="31.2265801" lon="34.4756807"><ele>123.6</ele><time>2014-11-08T09:13:01Z</time></trkpt>
<trkpt lat="31.2264483" lon="34.4759485"><ele>123.9</ele><time>2014-11-08T09:13:04Z</time></trkpt>
<trkpt lat="31.2263854" lon="34.4759793"><ele>124.0</ele><time>2014-11-08T09:13:05Z</time></trkpt>
<trkpt lat="31.2263927" lon="34.4760708"><ele>124.1</ele><time>2014-11-08T09:13:06Z</time></trkpt>
<trkpt lat="31.2261789" lon="34.4765599"><ele>124.8</ele><time>2014-11-08T09:13:14Z</time></trkpt>
<trkpt lat="31.2260342" lon="34.4768891"><ele>126.7</ele><time>2014-11-08T09:13:18Z</time></trkpt>
<trkpt lat="31.2258108" lon="34.4773469"><ele>128.9</ele><time>2014-11-08T09:13:25Z</time></trkpt>
<trkpt lat="31.2257543" lon="34.4774100"><ele>129.1</ele><time>2014-11-08T09:13:26Z</time></trkpt>
<trkpt lat="31.2255617" lon="34.4779219"><ele>130.0</ele><time>2014-11-08T09:13:33Z</time></trkpt>
<trkpt lat="31.2253420" lon="34.4782982"><ele>129.8</ele><time>2014-11-08T09:13:40Z</time></trkpt>
<trkpt lat="31.2251956" lon="34.4788395"><ele>129.4</ele><time>2014-11-08T09:13:46Z</time></trkpt>
<trkpt lat="31.2251869" lon="34.4792285"><ele>129.1</ele><time>2014-11-08T09:13:52Z</time></trkpt>
<trkpt lat="31.2251566" lon="34.4792782"><ele>129.0</ele><time>2014-11-08T09:13:53Z</time></trkpt>
<trkpt lat="31.2251280" lon="34.4798313"><ele>131.3</ele><time>2014-11-08T09:14:00Z</time></trkpt>
<trkpt lat="31.2251493" lon="34.4801411"><ele>132.2</ele><time>2014-11-08T09:14:03Z</time></trkpt>
<trkpt lat="31.2251378" lon="34.4802255"><ele>132.5</ele><time>2014-11-08T09:14:05Z</time></trkpt>
<trkpt lat="31.2251548" lon="34.4803442"><ele>132.7</ele><time>2014-11-08T09:14:05Z</time></trkpt>
<trkpt lat="31.2250936" lon="34.4809429"><ele>132.9</ele><time>2014-11-08T09:14:14Z</time></trkpt>
<trkpt lat="31.2250303" lon="34.4815247"><ele>132.0</ele><time>2014-11-08T09:14:21Z</time></trkpt>
<trkpt lat="31.2249843" lon="34.4817509"><ele>131.3</ele><time>2014-11-08T09:14:25Z</time></trkpt>
<trkpt lat="31.2249982" lon="34.4822993"><ele>130.0</ele><time>2014-11-08T09:14:32Z</time></trkpt>
<trkpt lat="31.2249439" lon="34.4824522"><ele>130.0</ele><time>2014-11-08T09:14:35Z</time></trkpt>
<trkpt lat="31.2249323" lon="34.4830579"><ele>129.1</ele><time>2014-11-08T09:14:43Z</time></trkpt>
<trkpt lat="31.2249129" lon="34.4836574"><ele>128.0</ele><time>2014-11-08T09:14:52Z</time></trkpt>
<trkpt lat="31.2248950" lon="34.4838502"><ele>128.0</ele><time>2014-11-08T09:14:54Z</time></trkpt>
<trkpt lat="31.2248288" lon="34.4839911"><ele>128.1</ele><time>2014-11-08T09:14:56Z</time></trkpt>
<trkpt lat="31.2248028" lon="34.4842300"><ele>128.4</ele><time>2014-11-08T09:14:59Z</time></trkpt>
<trkpt lat="31.2247837" lon="34.4847633"><ele>129.3</ele><time>2014-11-08T09:15:07Z</time></trkpt>
<trkpt lat="31.2247592" lon="34.4851259"><ele>129.8</ele><time>2014-11-08T09:15:12Z</time></trkpt>
<trkpt lat="31.2247326" lon="34.4852836"><ele>130.0</ele><time>2014-11-08T09:15:14Z</time></trkpt>
<trkpt lat="31.2246666" lon="34.4858343"><ele>130.8</ele><time>2014-11-08T09:15:21Z</time></trkpt>
<trkpt lat="31.2246693" lon="34.4863905"><ele>128.0</ele><time>2014-11-08T09:15:29Z</time></trkpt>
<trkpt lat="31.2246195" lon="34.4868843"><ele>128.0</ele><time>2014-11-08T09:15:36Z</time></trkpt>
<trkpt lat="31.2245551" lon="34.4871621"><ele>128.0</ele><time>2014-11-08T09:15:41Z</time></trkpt>
<trkpt lat="31.2245487" lon="34.4877128"><ele>130.1</ele><time>2014-11-08T09:15:48Z</time></trkpt>
<trkpt lat="31.2245532" lon="34.4882504"><ele>130.2</ele><time>2014-11-08T09:15:56Z</time></trkpt>
<trkpt lat="31.2245257" lon="34.4888082"><ele>129.0</ele><time>2014-11-08T09:16:05Z</time></trkpt>
<trkpt lat="31.2245065" lon="34.4891833"><ele>128.9</ele><time>2014-11-08T09:16:10Z</time></trkpt>
<trkpt lat="31.2244802" lon="34.4892690"><ele>128.8</ele><time>2014-11-08T09:16:11Z</time></trkpt>
<trkpt lat="31.2244019" lon="34.4898226"><ele>128.3</ele><time>2014-11-08T09:16:19Z</time></trkpt>
<trkpt lat="31.2243797" lon="34.4903541"><ele>128.5</ele><time>2014-11-08T09:16:27Z</time></trkpt>
<trkpt lat="31.2243483" lon="34.4908996"><ele>129.3</ele><time>2014-11-08T09:16:36Z</time></trkpt>
<trkpt lat="31.2243246" lon="34.4912819"><ele>129.7</ele><time>2014-11-08T09:16:42Z</time></trkpt>
<trkpt lat="31.2243385" lon="34.4914360"><ele>129.8</ele><time>2014-11-08T09:16:44Z</time></trkpt>
<trkpt lat="31.2242899" lon="34.4919829"><ele>129.2</ele><time>2014-11-08T09:16:52Z</time></trkpt>
<trkpt lat="31.2242807" lon="34.4925639"><ele>128.5</ele><time>2014-11-08T09:17:02Z</time></trkpt>
<trkpt lat="31.2242152" lon="34.4930988"><ele>128.0</ele><time>2014-11-08T09:17:09Z</time></trkpt>
<trkpt lat="31.2241869" lon="34.4934941"><ele>128.0</ele><time>2014-11-08T09:17:15Z</time></trkpt>
<trkpt lat="31.2241607" lon="34.4940396"><ele>128.0</ele><time>2014-11-08T09:17:23Z</time></trkpt>
<trkpt lat="31.2241095" lon="34.4945718"><ele>128.0</ele><time>2014-11-08T09:17:31Z</time></trkpt>
<trkpt lat="31.2240663" lon="34.4951328"><ele>128.0</ele><time>2014-11-08T09:17:40Z</time></trkpt>
<trkpt lat="31.2240280" lon="34.4956642"><ele>126.8</ele><time>2014-11-08T09:17:48Z</time></trkpt>
<trkpt lat="31.2239841" lon="34.4961977"><ele>126.0</ele><time>2014-11-08T09:17:56Z</time></trkpt>
<trkpt lat="31.2239679" lon="34.4967663"><ele>126.1</ele><time>2014-11-08T09:18:05Z</time></trkpt>
<trkpt lat="31.2239205" lon="34.4973443"><ele>126.6</ele><time>2014-11-08T09:18:14Z</time></trkpt>
<trkpt lat="31.2238906" lon="34.4977571"><ele>126.9</ele><time>2014-11-08T09:18:20Z</time></trkpt>
<trkpt lat="31.2239116" lon="34.4978202"><ele>126.9</ele><time>2014-11-08T09:18:21Z</time></trkpt>
<trkpt lat="31.2238667" lon="34.4983535"><ele>127.3</ele><time>2014-11-08T09:18:28Z</time></trkpt>
<trkpt lat="31.2238132" lon="34.4986638"><ele>127.6</ele><time>2014-11-08T09:18:34Z</time></trkpt>
<trkpt lat="31.2238070" lon="34.4989255"><ele>127.8</ele><time>2014-11-08T09:18:38Z</time></trkpt>
<trkpt lat="31.2237699" lon="34.4994982"><ele>130.0</ele><time>2014-11-08T09:18:48Z</time></trkpt>
<trkpt lat="31.2237284" lon="34.5000310"><ele>128.8</ele><time>2014-11-08T09:18:58Z</time></trkpt>
<trkpt lat="31.2237341" lon="34.5001476"><ele>128.6</ele><time>2014-11-08T09:19:00Z</time></trkpt>
<trkpt lat="31.2236670" lon="34.5002618"><ele>128.5</ele><time>2014-11-08T09:19:03Z</time></trkpt>
<trkpt lat="31.2236651" lon="34.5006452"><ele>128.1</ele><time>2014-11-08T09:19:08Z</time></trkpt>
<trkpt lat="31.2236342" lon="34.5007925"><ele>127.9</ele><time>2014-11-08T09:19:11Z</time></trkpt>
<trkpt lat="31.2236538" lon="34.5008641"><ele>127.9</ele><time>2014-11-08T09:19:12Z</time></trkpt>
<trkpt lat="31.2236196" lon="34.5009257"><ele>127.8</ele><time>2014-11-08T09:19:13Z</time></trkpt>
<trkpt lat="31.2235745" lon="34.5014686"><ele>127.3</ele><time>2014-11-08T09:19:22Z</time></trkpt>
<trkpt lat="31.2235522" lon="34.5017035"><ele>127.0</ele><time>2014-11-08T09:19:27Z</time></trkpt>
<trkpt lat="31.2235112" lon="34.5017950"><ele>126.8</ele><time>2014-11-08T09:19:29Z</time></trkpt>
<trkpt lat="31.2235615" lon="34.5023631"><ele>126.3</ele><time>2014-11-08T09:19:39Z</time></trkpt>
<trkpt lat="31.2235329" lon="34.5029056"><ele>125.0</ele><time>2014-11-08T09:19:49Z</time></trkpt>
<trkpt lat="31.2235138" lon="34.5034316"><ele>125.8</ele><time>2014-11-08T09:19:59Z</time></trkpt>
<trkpt lat="31.2235141" lon="34.5034852"><ele>126.0</ele><time>2014-11-08T09:20:01Z</time></trkpt>
<trkpt lat="31.2234621" lon="34.5035307"><ele>126.2</ele><time>2014-11-08T09:20:01Z</time></trkpt>
<trkpt lat="31.2234259" lon="34.5040095"><ele>127.0</ele><time>2014-11-08T09:20:10Z</time></trkpt>
<trkpt lat="31.2234456" lon="34.5040714"><ele>127.0</ele><time>2014-11-08T09:20:11Z</time></trkpt>
<trkpt lat="31.2234219" lon="34.5041107"><ele>127.0</ele><time>2014-11-08T09:20:12Z</time></trkpt>
<trkpt lat="31.2234198" lon="34.5046653"><ele>127.8</ele><time>2014-11-08T09:20:21Z</time></trkpt>
<trkpt lat="31.2234398" lon="34.5048000"><ele>128.2</ele><time>2014-11-08T09:20:24Z</time></trkpt>
<trkpt lat="31.2233713" lon="34.5050034"><ele>129.0</ele><time>2014-11-08T09:20:28Z</time></trkpt>
<trkpt lat="31.2233070" lon="34.5055400"><ele>129.0</ele><time>2014-11-08T09:20:38Z</time></trkpt>
<trkpt lat="31.2233170" lon="34.5057237"><ele>129.1</ele><time>2014-11-08T09:20:41Z</time></trkpt>
<trkpt lat="31.2232580" lon="34.5062107"><ele>129.5</ele><time>2014-11-08T09:20:49Z</time></trkpt>
<trkpt lat="31.2231671" lon="34.5065802"><ele>129.9</ele><time>2014-11-08T09:20:56Z</time></trkpt>
<trkpt lat="31.2232019" lon="34.5067852"><ele>130.0</ele><time>2014-11-08T09:20:59Z</time></trkpt>
<trkpt lat="31.2231757" lon="34.5068347"><ele>130.0</ele><time>2014-11-08T09:21:00Z</time></trkpt>
<trkpt lat="31.2231941" lon="34.5073189"><ele>130.4</ele><time>2014-11-08T09:21:08Z</time></trkpt>
<trkpt lat="31.2232292" lon="34.5074460"><ele>130.5</ele><time>2014-11-08T09:21:10Z</time></trkpt>
<trkpt lat="31.2231795" lon="34.5079972"><ele>130.9</ele><time>2014-11-08T09:21:19Z</time></trkpt>
<trkpt lat="31.2231207" lon="34.5085265"><ele>131.8</ele><time>2014-11-08T09:21:28Z</time></trkpt>
<trkpt lat="31.2231442" lon="34.5086625"><ele>131.7</ele><time>2014-11-08T09:21:30Z</time></trkpt>
<trkpt lat="31.2230792" lon="34.5092211"><ele>131.0</ele><time>2014-11-08T09:21:39Z</time></trkpt>
<trkpt lat="31.2230542" lon="34.5093397"><ele>131.0</ele><time>2014-11-08T09:21:41Z</time></trkpt>
<trkpt lat="31.2230142" lon="34.5099012"><ele>130.8</ele><time>2014-11-08T09:21:50Z</time></trkpt>
<trkpt lat="31.2229750" lon="34.5103540"><ele>130.6</ele><time>2014-11-08T09:21:58Z</time></trkpt>
<trkpt lat="31.2229213" lon="34.5108180"><ele>130.3</ele><time>2014-11-08T09:22:05Z</time></trkpt>
<trkpt lat="31.2229197" lon="34.5113738"><ele>130.1</ele><time>2014-11-08T09:22:14Z</time></trkpt>
<trkpt lat="31.2229005" lon="34.5115365"><ele>130.2</ele><time>2014-11-08T09:22:17Z</time></trkpt>
<trkpt lat="31.2227407" lon="34.5120274"><ele>131.2</ele><time>2014-11-08T09:22:25Z</time></trkpt>
<trkpt lat="31.2226440" lon="34.5125851"><ele>131.9</ele><time>2014-11-08T09:22:33Z</time></trkpt>
<trkpt lat="31.2225452" lon="34.5129808"><ele>132.5</ele><time>2014-11-08T09:22:40Z</time></trkpt>
<trkpt lat="31.2224713" lon="34.5131284"><ele>132.7</ele><time>2014-11-08T09:22:44Z</time></trkpt>
<trkpt lat="31.2224886" lon="34.5131863"><ele>132.8</ele><time>2014-11-08T09:22:45Z</time></trkpt>
<trkpt lat="31.2224217" lon="34.5133724"><ele>132.8</ele><time>2014-11-08T09:22:48Z</time></trkpt>
<trkpt lat="31.2224124" lon="34.5135183"><ele>132.4</ele><time>2014-11-08T09:22:51Z</time></trkpt>
<trkpt lat="31.2223632" lon="34.5135718"><ele>132.2</ele><time>2014-11-08T09:22:52Z</time></trkpt>
<trkpt lat="31.2222789" lon="34.5141007"><ele>131.5</ele><time>2014-11-08T09:23:01Z</time></trkpt>
<trkpt lat="31.2222415" lon="34.5142252"><ele>131.8</ele><time>2014-11-08T09:23:04Z</time></trkpt>
<trkpt lat="31.2222023" lon="34.5144852"><ele>131.5</ele><time>2014-11-08T09:23:07Z</time></trkpt>
<trkpt lat="31.2220480" lon="34.5147688"><ele>130.4</ele><time>2014-11-08T09:23:13Z</time></trkpt>
<trkpt lat="31.2220461" lon="34.5148285"><ele>130.2</ele><time>2014-11-08T09:23:14Z</time></trkpt>
<trkpt lat="31.2219997" lon="34.5149350"><ele>130.2</ele><time>2014-11-08T09:23:16Z</time></trkpt>
<trkpt lat="31.2220359" lon="34.5149869"><ele>130.4</ele><time>2014-11-08T09:23:17Z</time></trkpt>
<trkpt lat="31.2219637" lon="34.5151782"><ele>131.0</ele><time>2014-11-08T09:23:20Z</time></trkpt>
<trkpt lat="31.2218352" lon="34.5157071"><ele>131.6</ele><time>2014-11-08T09:23:29Z</time></trkpt>
<trkpt lat="31.2217777" lon="34.5159536"><ele>131.8</ele><time>2014-11-08T09:23:34Z</time></trkpt>
<trkpt lat="31.2217418" lon="34.5160026"><ele>131.9</ele><time>2014-11-08T09:23:34Z</time></trkpt>
<trkpt lat="31.2216450" lon="34.5165533"><ele>133.0</ele><time>2014-11-08T09:23:45Z</time></trkpt>
<trkpt lat="31.2215937" lon="34.5166530"><ele>133.0</ele><time>2014-11-08T09:23:47Z</time></trkpt>
<trkpt lat="31.2215050" lon="34.5169083"><ele>133.7</ele><time>2014-11-08T09:23:51Z</time></trkpt>
<trkpt lat="31.2214565" lon="34.5169833"><ele>133.9</ele><time>2014-11-08T09:23:52Z</time></trkpt>
<trkpt lat="31.2214230" lon="34.5169958"><ele>134.1</ele><time>2014-11-08T09:23:53Z</time></trkpt>
<trkpt lat="31.2212041" lon="34.5175220"><ele>136.0</ele><time>2014-11-08T09:24:03Z</time></trkpt>
<trkpt lat="31.2209776" lon="34.5180058"><ele>134.7</ele><time>2014-11-08T09:24:12Z</time></trkpt>
<trkpt lat="31.2207271" lon="34.5184613"><ele>137.0</ele><time>2014-11-08T09:24:21Z</time></trkpt>
<trkpt lat="31.2207083" lon="34.5185750"><ele>136.6</ele><time>2014-11-08T09:24:23Z</time></trkpt>
<trkpt lat="31.2205011" lon="34.5189628"><ele>134.7</ele><time>2014-11-08T09:24:30Z</time></trkpt>
<trkpt lat="31.2203834" lon="34.5192755"><ele>134.0</ele><time>2014-11-08T09:24:36Z</time></trkpt>
<trkpt lat="31.2201984" lon="34.5196026"><ele>134.0</ele><time>2014-11-08T09:24:42Z</time></trkpt>
<trkpt lat="31.2199351" lon="34.5200863"><ele>135.0</ele><time>2014-11-08T09:24:52Z</time></trkpt>
<trkpt lat="31.2197619" lon="34.5203687"><ele>136.6</ele><time>2014-11-08T09:24:58Z</time></trkpt>
<trkpt lat="31.2196652" lon="34.5206729"><ele>136.2</ele><time>2014-11-08T09:25:03Z</time></trkpt>
<trkpt lat="31.2193736" lon="34.5211088"><ele>134.3</ele><time>2014-11-08T09:25:14Z</time></trkpt>
<trkpt lat="31.2192465" lon="34.5212558"><ele>133.5</ele><time>2014-11-08T09:25:18Z</time></trkpt>
<trkpt lat="31.2190865" lon="34.5215399"><ele>132.4</ele><time>2014-11-08T09:25:24Z</time></trkpt>
<trkpt lat="31.2190765" lon="34.5216114"><ele>132.2</ele><time>2014-11-08T09:25:25Z</time></trkpt>
<trkpt lat="31.2190223" lon="34.5216761"><ele>132.0</ele><time>2014-11-08T09:25:27Z</time></trkpt>
<trkpt lat="31.2189328" lon="34.5218756"><ele>132.0</ele><time>2014-11-08T09:25:30Z</time></trkpt>
<trkpt lat="31.2187977" lon="34.5221371"><ele>132.5</ele><time>2014-11-08T09:25:36Z</time></trkpt>
<trkpt lat="31.2187950" lon="34.5222269"><ele>132.7</ele><time>2014-11-08T09:25:37Z</time></trkpt>
<trkpt lat="31.2185711" lon="34.5226970"><ele>133.7</ele><time>2014-11-08T09:25:45Z</time></trkpt>
<trkpt lat="31.2183355" lon="34.5231714"><ele>134.1</ele><time>2014-11-08T09:25:54Z</time></trkpt>
<trkpt lat="31.2182636" lon="34.5232594"><ele>134.2</ele><time>2014-11-08T09:25:56Z</time></trkpt>
<trkpt lat="31.2182413" lon="34.5233285"><ele>134.2</ele><time>2014-11-08T09:25:58Z</time></trkpt>
<trkpt lat="31.2181683" lon="34.5234373"><ele>134.4</ele><time>2014-11-08T09:26:00Z</time></trkpt>
<trkpt lat="31.2179256" lon="34.5239199"><ele>134.9</ele><time>2014-11-08T09:26:09Z</time></trkpt>
<trkpt lat="31.2177293" lon="34.5243609"><ele>135.5</ele><time>2014-11-08T09:26:19Z</time></trkpt>
<trkpt lat="31.2174399" lon="34.5248032"><ele>135.6</ele><time>2014-11-08T09:26:28Z</time></trkpt>
<trkpt lat="31.2172316" lon="34.5251798"><ele>134.2</ele><time>2014-11-08T09:26:36Z</time></trkpt>
<trkpt lat="31.2172122" lon="34.5252552"><ele>134.3</ele><time>2014-11-08T09:26:37Z</time></trkpt>
<trkpt lat="31.2170810" lon="34.5254177"><ele>134.6</ele><time>2014-11-08T09:26:42Z</time></trkpt>
<trkpt lat="31.2170614" lon="34.5255001"><ele>134.7</ele><time>2014-11-08T09:26:43Z</time></trkpt>
<trkpt lat="31.2170299" lon="34.5255263"><ele>134.7</ele><time>2014-11-08T09:26:45Z</time></trkpt>
<trkpt lat="31.2170139" lon="34.5256140"><ele>134.8</ele><time>2014-11-08T09:26:46Z</time></trkpt>
<trkpt lat="31.2167304" lon="34.5260751"><ele>135.3</ele><time>2014-11-08T09:26:55Z</time></trkpt>
<trkpt lat="31.2167148" lon="34.5261428"><ele>135.4</ele><time>2014-11-08T09:26:56Z</time></trkpt>
<trkpt lat="31.2165318" lon="34.5263654"><ele>135.7</ele><time>2014-11-08T09:27:00Z</time></trkpt>
<trkpt lat="31.2165270" lon="34.5264087"><ele>135.7</ele><time>2014-11-08T09:27:01Z</time></trkpt>
<trkpt lat="31.2163103" lon="34.5266692"><ele>135.7</ele><time>2014-11-08T09:27:07Z</time></trkpt>
<trkpt lat="31.2163238" lon="34.5266990"><ele>135.5</ele><time>2014-11-08T09:27:08Z</time></trkpt>
<trkpt lat="31.2160293" lon="34.5271168"><ele>134.6</ele><time>2014-11-08T09:27:16Z</time></trkpt>
<trkpt lat="31.2158806" lon="34.5273317"><ele>134.4</ele><time>2014-11-08T09:27:20Z</time></trkpt>
<trkpt lat="31.2158267" lon="34.5273700"><ele>134.3</ele><time>2014-11-08T09:27:21Z</time></trkpt>
<trkpt lat="31.2156659" lon="34.5276486"><ele>133.9</ele><time>2014-11-08T09:27:27Z</time></trkpt>
<trkpt lat="31.2155820" lon="34.5277284"><ele>133.8</ele><time>2014-11-08T09:27:28Z</time></trkpt>
<trkpt lat="31.2155253" lon="34.5278739"><ele>133.7</ele><time>2014-11-08T09:27:30Z</time></trkpt>
<trkpt lat="31.2151865" lon="34.5282486"><ele>132.9</ele><time>2014-11-08T09:27:40Z</time></trkpt>
<trkpt lat="31.2148699" lon="34.5286468"><ele>131.9</ele><time>2014-11-08T09:27:49Z</time></trkpt>
<trkpt lat="31.2147149" lon="34.5288333"><ele>131.5</ele><time>2014-11-08T09:27:54Z</time></trkpt>
<trkpt lat="31.2146598" lon="34.5288557"><ele>131.4</ele><time>2014-11-08T09:27:54Z</time></trkpt>
<trkpt lat="31.2145753" lon="34.5289874"><ele>131.0</ele><time>2014-11-08T09:27:58Z</time></trkpt>
<trkpt lat="31.2145027" lon="34.5291251"><ele>132.4</ele><time>2014-11-08T09:28:00Z</time></trkpt>
<trkpt lat="31.2144610" lon="34.5291420"><ele>132.9</ele><time>2014-11-08T09:28:01Z</time></trkpt>
<trkpt lat="31.2141915" lon="34.5295759"><ele>134.6</ele><time>2014-11-08T09:28:10Z</time></trkpt>
<trkpt lat="31.2141088" lon="34.5297155"><ele>134.9</ele><time>2014-11-08T09:28:13Z</time></trkpt>
<trkpt lat="31.2140587" lon="34.5297487"><ele>134.7</ele><time>2014-11-08T09:28:15Z</time></trkpt>
<trkpt lat="31.2139569" lon="34.5299441"><ele>133.0</ele><time>2014-11-08T09:28:20Z</time></trkpt>
<trkpt lat="31.2137887" lon="34.5300046"><ele>134.6</ele><time>2014-11-08T09:28:25Z</time></trkpt>
<trkpt lat="31.2137220" lon="34.5300669"><ele>135.2</ele><time>2014-11-08T09:28:27Z</time></trkpt>
<trkpt lat="31.2135701" lon="34.5304619"><ele>136.4</ele><time>2014-11-08T09:28:36Z</time></trkpt>
<trkpt lat="31.2134193" lon="34.5306501"><ele>136.7</ele><time>2014-11-08T09:28:39Z</time></trkpt>
<trkpt lat="31.2133679" lon="34.5306799"><ele>136.8</ele><time>2014-11-08T09:28:40Z</time></trkpt>
<trkpt lat="31.2133152" lon="34.5307684"><ele>137.0</ele><time>2014-11-08T09:28:42Z</time></trkpt>
<trkpt lat="31.2131828" lon="34.5308262"><ele>137.4</ele><time>2014-11-08T09:28:46Z</time></trkpt>
<trkpt lat="31.2131425" lon="34.5308221"><ele>137.5</ele><time>2014-11-08T09:28:47Z</time></trkpt>
<trkpt lat="31.2127759" lon="34.5311982"><ele>138.7</ele><time>2014-11-08T09:28:56Z</time></trkpt>
<trkpt lat="31.2126471" lon="34.5313200"><ele>139.0</ele><time>2014-11-08T09:28:59Z</time></trkpt>
<trkpt lat="31.2123646" lon="34.5315674"><ele>140.0</ele><time>2014-11-08T09:29:07Z</time></trkpt>
<trkpt lat="31.2123490" lon="34.5316228"><ele>140.3</ele><time>2014-11-08T09:29:08Z</time></trkpt>
<trkpt lat="31.2119370" lon="34.5319085"><ele>139.0</ele><time>2014-11-08T09:29:19Z</time></trkpt>
<trkpt lat="31.2115568" lon="34.5322114"><ele>138.0</ele><time>2014-11-08T09:29:28Z</time></trkpt>
<trkpt lat="31.2111566" lon="34.5325286"><ele>140.8</ele><time>2014-11-08T09:29:40Z</time></trkpt>
<trkpt lat="31.2110007" lon="34.5326764"><ele>141.9</ele><time>2014-11-08T09:29:44Z</time></trkpt>
<trkpt lat="31.2108814" lon="34.5327426"><ele>142.7</ele><time>2014-11-08T09:29:47Z</time></trkpt>
<trkpt lat="31.2104909" lon="34.5330447"><ele>142.1</ele><time>2014-11-08T09:29:56Z</time></trkpt>
<trkpt lat="31.2103280" lon="34.5331773"><ele>142.2</ele><time>2014-11-08T09:30:00Z</time></trkpt>
<trkpt lat="31.2099702" lon="34.5334264"><ele>142.5</ele><time>2014-11-08T09:30:08Z</time></trkpt>
<trkpt lat="31.2096877" lon="34.5337373"><ele>142.8</ele><time>2014-11-08T09:30:18Z</time></trkpt>
<trkpt lat="31.2095195" lon="34.5338366"><ele>143.0</ele><time>2014-11-08T09:30:22Z</time></trkpt>
<trkpt lat="31.2094409" lon="34.5339323"><ele>143.0</ele><time>2014-11-08T09:30:25Z</time></trkpt>
<trkpt lat="31.2090786" lon="34.5341509"><ele>143.4</ele><time>2014-11-08T09:30:34Z</time></trkpt>
<trkpt lat="31.2086465" lon="34.5344063"><ele>143.7</ele><time>2014-11-08T09:30:44Z</time></trkpt>
<trkpt lat="31.2083827" lon="34.5345988"><ele>143.9</ele><time>2014-11-08T09:30:51Z</time></trkpt>
<trkpt lat="31.2083363" lon="34.5345829"><ele>144.0</ele><time>2014-11-08T09:30:53Z</time></trkpt>
<trkpt lat="31.2083207" lon="34.5345003"><ele>144.0</ele><time>2014-11-08T09:30:54Z</time></trkpt>
<trkpt lat="31.2081464" lon="34.5343253"><ele>143.6</ele><time>2014-11-08T09:30:58Z</time></trkpt>
<trkpt lat="31.2079628" lon="34.5342301"><ele>143.1</ele><time>2014-11-08T09:31:04Z</time></trkpt>
<trkpt lat="31.2078935" lon="34.5342635"><ele>142.5</ele><time>2014-11-08T09:31:07Z</time></trkpt>
<trkpt lat="31.2074419" lon="34.5349983"><ele>146.7</ele><time>2014-11-08T09:31:10Z</time></trkpt>
</trkseg>
<trkseg>
<trkpt lat="31.2074419" lon="34.5349983"><ele>146.7</ele><time>2014-11-08T10:23:40Z</time></trkpt>
<trkpt lat="31.2070212" lon="34.5357582"><ele>151.2</ele><time>2014-11-08T10:23:45Z</time></trkpt>
<trkpt lat="31.2066300" lon="34.5360606"><ele>154.0</ele><time>2014-11-08T10:23:55Z</time></trkpt>
<trkpt lat="31.2062622" lon="34.5363729"><ele>152.2</ele><time>2014-11-08T10:24:07Z</time></trkpt>
<trkpt lat="31.2058499" lon="34.5366720"><ele>152.7</ele><time>2014-11-08T10:24:18Z</time></trkpt>
<trkpt lat="31.2054451" lon="34.5369766"><ele>152.2</ele><time>2014-11-08T10:24:29Z</time></trkpt>
<trkpt lat="31.2051440" lon="34.5371625"><ele>151.9</ele><time>2014-11-08T10:24:35Z</time></trkpt>
<trkpt lat="31.2047753" lon="34.5374656"><ele>151.4</ele><time>2014-11-08T10:24:45Z</time></trkpt>
<trkpt lat="31.2043736" lon="34.5377890"><ele>151.4</ele><time>2014-11-08T10:24:56Z</time></trkpt>
<trkpt lat="31.2039756" lon="34.5380737"><ele>153.0</ele><time>2014-11-08T10:25:06Z</time></trkpt>
<trkpt lat="31.2035870" lon="34.5383923"><ele>152.9</ele><time>2014-11-08T10:25:14Z</time></trkpt>
<trkpt lat="31.2031897" lon="34.5386831"><ele>152.6</ele><time>2014-11-08T10:25:24Z</time></trkpt>
<trkpt lat="31.2027563" lon="34.5388471"><ele>152.4</ele><time>2014-11-08T10:25:33Z</time></trkpt>
<trkpt lat="31.2022641" lon="34.5388865"><ele>152.2</ele><time>2014-11-08T10:25:42Z</time></trkpt>
<trkpt lat="31.2019122" lon="34.5388383"><ele>152.0</ele><time>2014-11-08T10:25:50Z</time></trkpt>
<trkpt lat="31.2014237" lon="34.5387676"><ele>151.1</ele><time>2014-11-08T10:26:00Z</time></trkpt>
<trkpt lat="31.2009445" lon="34.5386859"><ele>152.1</ele><time>2014-11-08T10:26:09Z</time></trkpt>
<trkpt lat="31.2004634" lon="34.5386277"><ele>153.2</ele><time>2014-11-08T10:26:17Z</time></trkpt>
<trkpt lat="31.1999728" lon="34.5385242"><ele>154.0</ele><time>2014-11-08T10:26:26Z</time></trkpt>
<trkpt lat="31.1994994" lon="34.5384597"><ele>154.1</ele><time>2014-11-08T10:26:34Z</time></trkpt>
<trkpt lat="31.1990012" lon="34.5383897"><ele>154.4</ele><time>2014-11-08T10:26:44Z</time></trkpt>
<trkpt lat="31.1985314" lon="34.5383835"><ele>154.7</ele><time>2014-11-08T10:26:53Z</time></trkpt>
<trkpt lat="31.1982794" lon="34.5384089"><ele>154.8</ele><time>2014-11-08T10:26:58Z</time></trkpt>
<trkpt lat="31.1981636" lon="34.5384472"><ele>154.9</ele><time>2014-11-08T10:27:00Z</time></trkpt>
<trkpt lat="31.1977009" lon="34.5385219"><ele>155.0</ele><time>2014-11-08T10:27:08Z</time></trkpt>
<trkpt lat="31.1972480" lon="34.5387677"><ele>155.8</ele><time>2014-11-08T10:27:18Z</time></trkpt>
<trkpt lat="31.1968398" lon="34.5390763"><ele>157.0</ele><time>2014-11-08T10:27:27Z</time></trkpt>
<trkpt lat="31.1964860" lon="34.5394613"><ele>157.2</ele><time>2014-11-08T10:27:35Z</time></trkpt>
<trkpt lat="31.1961548" lon="34.5399019"><ele>157.4</ele><time>2014-11-08T10:27:45Z</time></trkpt>
<trkpt lat="31.1958682" lon="34.5403291"><ele>157.6</ele><time>2014-11-08T10:27:53Z</time></trkpt>
<trkpt lat="31.1955534" lon="34.5407715"><ele>157.8</ele><time>2014-11-08T10:28:02Z</time></trkpt>
<trkpt lat="31.1952593" lon="34.5412192"><ele>157.7</ele><time>2014-11-08T10:28:13Z</time></trkpt>
<trkpt lat="31.1949542" lon="34.5416778"><ele>156.0</ele><time>2014-11-08T10:28:24Z</time></trkpt>
<trkpt lat="31.1946488" lon="34.5420793"><ele>156.0</ele><time>2014-11-08T10:28:34Z</time></trkpt>
<trkpt lat="31.1943458" lon="34.5425372"><ele>156.0</ele><time>2014-11-08T10:28:44Z</time></trkpt>
<trkpt lat="31.1940216" lon="34.5429590"><ele>156.0</ele><time>2014-11-08T10:28:56Z</time></trkpt>
<trkpt lat="31.1937195" lon="34.5433937"><ele>156.0</ele><time>2014-11-08T10:29:07Z</time></trkpt>
<trkpt lat="31.1934467" lon="34.5438155"><ele>156.0</ele><time>2014-11-08T10:29:17Z</time></trkpt>
<trkpt lat="31.1931531" lon="34.5442199"><ele>155.4</ele><time>2014-11-08T10:29:26Z</time></trkpt>
<trkpt lat="31.1928547" lon="34.5446367"><ele>154.8</ele><time>2014-11-08T10:29:35Z</time></trkpt>
<trkpt lat="31.1925367" lon="34.5450617"><ele>154.1</ele><time>2014-11-08T10:29:47Z</time></trkpt>
<trkpt lat="31.1922572" lon="34.5454869"><ele>153.5</ele><time>2014-11-08T10:29:57Z</time></trkpt>
<trkpt lat="31.1919737" lon="34.5459030"><ele>152.9</ele><time>2014-11-08T10:30:06Z</time></trkpt>
<trkpt lat="31.1916536" lon="34.5463225"><ele>152.3</ele><time>2014-11-08T10:30:15Z</time></trkpt>
<trkpt lat="31.1913808" lon="34.5467849"><ele>152.6</ele><time>2014-11-08T10:30:27Z</time></trkpt>
<trkpt lat="31.1910869" lon="34.5472216"><ele>154.4</ele><time>2014-11-08T10:30:38Z</time></trkpt>
<trkpt lat="31.1907892" lon="34.5476171"><ele>155.0</ele><time>2014-11-08T10:30:47Z</time></trkpt>
<trkpt lat="31.1904666" lon="34.5480501"><ele>155.0</ele><time>2014-11-08T10:30:56Z</time></trkpt>
<trkpt lat="31.1901718" lon="34.5484641"><ele>155.0</ele><time>2014-11-08T10:31:07Z</time></trkpt>
<trkpt lat="31.1898468" lon="34.5489229"><ele>155.0</ele><time>2014-11-08T10:31:15Z</time></trkpt>
<trkpt lat="31.1895080" lon="34.5493834"><ele>155.0</ele><time>2014-11-08T10:31:23Z</time></trkpt>
<trkpt lat="31.1891871" lon="34.5498385"><ele>155.0</ele><time>2014-11-08T10:31:32Z</time></trkpt>
<trkpt lat="31.1888955" lon="34.5502440"><ele>154.8</ele><time>2014-11-08T10:31:39Z</time></trkpt>
<trkpt lat="31.1885919" lon="34.5506981"><ele>154.0</ele><time>2014-11-08T10:31:47Z</time></trkpt>
<trkpt lat="31.1882981" lon="34.5511183"><ele>154.1</ele><time>2014-11-08T10:31:54Z</time></trkpt>
<trkpt lat="31.1880234" lon="34.5515454"><ele>154.3</ele><time>2014-11-08T10:32:01Z</time></trkpt>
<trkpt lat="31.1877116" lon="34.5519927"><ele>154.5</ele><time>2014-11-08T10:32:11Z</time></trkpt>
<trkpt lat="31.1874255" lon="34.5524331"><ele>154.7</ele><time>2014-11-08T10:32:21Z</time></trkpt>
<trkpt lat="31.1871080" lon="34.5528769"><ele>155.0</ele><time>2014-11-08T10:32:32Z</time></trkpt>
<trkpt lat="31.1867941" lon="34.5533470"><ele>155.7</ele><time>2014-11-08T10:32:43Z</time></trkpt>
<trkpt lat="31.1865081" lon="34.5537594"><ele>157.5</ele><time>2014-11-08T10:32:53Z</time></trkpt>
<trkpt lat="31.1862133" lon="34.5542273"><ele>159.0</ele><time>2014-11-08T10:33:02Z</time></trkpt>
<trkpt lat="31.1858844" lon="34.5546438"><ele>159.4</ele><time>2014-11-08T10:33:10Z</time></trkpt>
<trkpt lat="31.1855723" lon="34.5550423"><ele>160.1</ele><time>2014-11-08T10:33:18Z</time></trkpt>
<trkpt lat="31.1852491" lon="34.5554998"><ele>160.3</ele><time>2014-11-08T10:33:25Z</time></trkpt>
<trkpt lat="31.1849498" lon="34.5559363"><ele>160.4</ele><time>2014-11-08T10:33:32Z</time></trkpt>
<trkpt lat="31.1846694" lon="34.5563579"><ele>160.5</ele><time>2014-11-08T10:33:39Z</time></trkpt>
<trkpt lat="31.1843558" lon="34.5567805"><ele>160.7</ele><time>2014-11-08T10:33:44Z</time></trkpt>
<trkpt lat="31.1840644" lon="34.5572113"><ele>160.8</ele><time>2014-11-08T10:33:52Z</time></trkpt>
<trkpt lat="31.1837607" lon="34.5576486"><ele>160.9</ele><time>2014-11-08T10:33:59Z</time></trkpt>
<trkpt lat="31.1834768" lon="34.5580956"><ele>161.0</ele><time>2014-11-08T10:34:06Z</time></trkpt>
<trkpt lat="31.1831687" lon="34.5585109"><ele>162.0</ele><time>2014-11-08T10:34:13Z</time></trkpt>
<trkpt lat="31.1828731" lon="34.5589723"><ele>161.4</ele><time>2014-11-08T10:34:20Z</time></trkpt>
<trkpt lat="31.1825742" lon="34.5594146"><ele>160.7</ele><time>2014-11-08T10:34:26Z</time></trkpt>
<trkpt lat="31.1823739" lon="34.5599379"><ele>160.1</ele><time>2014-11-08T10:34:33Z</time></trkpt>
<trkpt lat="31.1822415" lon="34.5604983"><ele>159.4</ele><time>2014-11-08T10:34:42Z</time></trkpt>
<trkpt lat="31.1821313" lon="34.5610688"><ele>158.8</ele><time>2014-11-08T10:34:50Z</time></trkpt>
<trkpt lat="31.1820566" lon="34.5616479"><ele>158.5</ele><time>2014-11-08T10:34:58Z</time></trkpt>
<trkpt lat="31.1819303" lon="34.5622216"><ele>158.0</ele><time>2014-11-08T10:35:07Z</time></trkpt>
<trkpt lat="31.1818561" lon="34.5627445"><ele>156.4</ele><time>2014-11-08T10:35:14Z</time></trkpt>
<trkpt lat="31.1817093" lon="34.5632839"><ele>154.2</ele><time>2014-11-08T10:35:24Z</time></trkpt>
<trkpt lat="31.1816272" lon="34.5638258"><ele>154.4</ele><time>2014-11-08T10:35:32Z</time></trkpt>
<trkpt lat="31.1815210" lon="34.5644061"><ele>156.0</ele><time>2014-11-08T10:35:41Z</time></trkpt>
<trkpt lat="31.1813999" lon="34.5649682"><ele>157.8</ele><time>2014-11-08T10:35:50Z</time></trkpt>
<trkpt lat="31.1812473" lon="34.5654891"><ele>158.1</ele><time>2014-11-08T10:35:57Z</time></trkpt>
<trkpt lat="31.1810408" lon="34.5659697"><ele>159.3</ele><time>2014-11-08T10:36:07Z</time></trkpt>
<trkpt lat="31.1807861" lon="34.5664097"><ele>160.3</ele><time>2014-11-08T10:36:14Z</time></trkpt>
<trkpt lat="31.1805231" lon="34.5668465"><ele>162.5</ele><time>2014-11-08T10:36:23Z</time></trkpt>
<trkpt lat="31.1802179" lon="34.5672784"><ele>164.0</ele><time>2014-11-08T10:36:31Z</time></trkpt>
<trkpt lat="31.1799130" lon="34.5676821"><ele>164.1</ele><time>2014-11-08T10:36:39Z</time></trkpt>
<trkpt lat="31.1795792" lon="34.5681230"><ele>164.5</ele><time>2014-11-08T10:36:47Z</time></trkpt>
<trkpt lat="31.1792745" lon="34.5685806"><ele>164.9</ele><time>2014-11-08T10:36:56Z</time></trkpt>
<trkpt lat="31.1789423" lon="34.5689896"><ele>165.3</ele><time>2014-11-08T10:37:04Z</time></trkpt>
<trkpt lat="31.1785781" lon="34.5693535"><ele>165.7</ele><time>2014-11-08T10:37:12Z</time></trkpt>
<trkpt lat="31.1781726" lon="34.5696581"><ele>166.1</ele><time>2014-11-08T10:37:19Z</time></trkpt>
<trkpt lat="31.1777836" lon="34.5699386"><ele>166.5</ele><time>2014-11-08T10:37:27Z</time></trkpt>
<trkpt lat="31.1773562" lon="34.5702002"><ele>166.8</ele><time>2014-11-08T10:37:34Z</time></trkpt>
<trkpt lat="31.1769270" lon="34.5704355"><ele>166.4</ele><time>2014-11-08T10:37:41Z</time></trkpt>
<trkpt lat="31.1765332" lon="34.5706934"><ele>164.3</ele><time>2014-11-08T10:37:47Z</time></trkpt>
<trkpt lat="31.1762132" lon="34.5708913"><ele>164.0</ele><time>2014-11-08T10:37:54Z</time></trkpt>
<trkpt lat="31.1757418" lon="34.5711277"><ele>163.5</ele><time>2014-11-08T10:38:02Z</time></trkpt>
<trkpt lat="31.1753155" lon="34.5713519"><ele>163.1</ele><time>2014-11-08T10:38:09Z</time></trkpt>
<trkpt lat="31.1748343" lon="34.5716302"><ele>162.3</ele><time>2014-11-08T10:38:17Z</time></trkpt>
<trkpt lat="31.1743987" lon="34.5718651"><ele>161.3</ele><time>2014-11-08T10:38:25Z</time></trkpt>
<trkpt lat="31.1739547" lon="34.5721310"><ele>161.0</ele><time>2014-11-08T10:38:32Z</time></trkpt>
<trkpt lat="31.1735452" lon="34.5724486"><ele>161.4</ele><time>2014-11-08T10:38:42Z</time></trkpt>
<trkpt lat="31.1731806" lon="34.5727975"><ele>161.7</ele><time>2014-11-08T10:38:49Z</time></trkpt>
<trkpt lat="31.1728393" lon="34.5731818"><ele>162.1</ele><time>2014-11-08T10:38:58Z</time></trkpt>
<trkpt lat="31.1725304" lon="34.5735917"><ele>162.5</ele><time>2014-11-08T10:39:06Z</time></trkpt>
<trkpt lat="31.1722213" lon="34.5739777"><ele>162.8</ele><time>2014-11-08T10:39:13Z</time></trkpt>
<trkpt lat="31.1719238" lon="34.5743840"><ele>161.7</ele><time>2014-11-08T10:39:21Z</time></trkpt>
<trkpt lat="31.1716382" lon="34.5748045"><ele>160.0</ele><time>2014-11-08T10:39:29Z</time></trkpt>
<trkpt lat="31.1713346" lon="34.5752581"><ele>162.5</ele><time>2014-11-08T10:39:39Z</time></trkpt>
<trkpt lat="31.1710236" lon="34.5757095"><ele>163.5</ele><time>2014-11-08T10:39:47Z</time></trkpt>
<trkpt lat="31.1707364" lon="34.5761333"><ele>164.0</ele><time>2014-11-08T10:39:57Z</time></trkpt>
<trkpt lat="31.1704174" lon="34.5765548"><ele>163.9</ele><time>2014-11-08T10:40:06Z</time></trkpt>
<trkpt lat="31.1701223" lon="34.5770147"><ele>163.5</ele><time>2014-11-08T10:40:14Z</time></trkpt>
<trkpt lat="31.1698053" lon="34.5774818"><ele>163.1</ele><time>2014-11-08T10:40:24Z</time></trkpt>
<trkpt lat="31.1695199" lon="34.5779082"><ele>162.8</ele><time>2014-11-08T10:40:32Z</time></trkpt>
<trkpt lat="31.1692041" lon="34.5783227"><ele>162.4</ele><time>2014-11-08T10:40:41Z</time></trkpt>
<trkpt lat="31.1689155" lon="34.5787619"><ele>162.1</ele><time>2014-11-08T10:40:50Z</time></trkpt>
<trkpt lat="31.1686252" lon="34.5791741"><ele>163.1</ele><time>2014-11-08T10:40:58Z</time></trkpt>
<trkpt lat="31.1683028" lon="34.5795826"><ele>164.2</ele><time>2014-11-08T10:41:06Z</time></trkpt>
<trkpt lat="31.1680088" lon="34.5800198"><ele>165.3</ele><time>2014-11-08T10:41:16Z</time></trkpt>
<trkpt lat="31.1677167" lon="34.5804768"><ele>166.4</ele><time>2014-11-08T10:41:25Z</time></trkpt>
<trkpt lat="31.1674223" lon="34.5809191"><ele>167.8</ele><time>2014-11-08T10:41:34Z</time></trkpt>
<trkpt lat="31.1671113" lon="34.5813362"><ele>168.8</ele><time>2014-11-08T10:41:42Z</time></trkpt>
<trkpt lat="31.1668154" lon="34.5817457"><ele>169.0</ele><time>2014-11-08T10:41:51Z</time></trkpt>
<trkpt lat="31.1665190" lon="34.5821500"><ele>169.4</ele><time>2014-11-08T10:42:00Z</time></trkpt>
<trkpt lat="31.1662439" lon="34.5825930"><ele>169.9</ele><time>2014-11-08T10:42:10Z</time></trkpt>
<trkpt lat="31.1659527" lon="34.5830089"><ele>170.6</ele><time>2014-11-08T10:42:19Z</time></trkpt>
<trkpt lat="31.1656308" lon="34.5834190"><ele>171.7</ele><time>2014-11-08T10:42:28Z</time></trkpt>
<trkpt lat="31.1653471" lon="34.5838500"><ele>173.0</ele><time>2014-11-08T10:42:38Z</time></trkpt>
<trkpt lat="31.1650518" lon="34.5842878"><ele>174.2</ele><time>2014-11-08T10:42:49Z</time></trkpt>
<trkpt lat="31.1647354" lon="34.5847327"><ele>174.7</ele><time>2014-11-08T10:42:58Z</time></trkpt>
<trkpt lat="31.1643972" lon="34.5851786"><ele>175.5</ele><time>2014-11-08T10:43:08Z</time></trkpt>
<trkpt lat="31.1641039" lon="34.5856015"><ele>176.3</ele><time>2014-11-08T10:43:17Z</time></trkpt>
<trkpt lat="31.1638262" lon="34.5860433"><ele>177.1</ele><time>2014-11-08T10:43:25Z</time></trkpt>
<trkpt lat="31.1635238" lon="34.5864682"><ele>178.0</ele><time>2014-11-08T10:43:36Z</time></trkpt>
<trkpt lat="31.1632264" lon="34.5868634"><ele>178.4</ele><time>2014-11-08T10:43:44Z</time></trkpt>
<trkpt lat="31.1629164" lon="34.5872929"><ele>179.8</ele><time>2014-11-08T10:43:52Z</time></trkpt>
<trkpt lat="31.1626452" lon="34.5877145"><ele>181.8</ele><time>2014-11-08T10:44:03Z</time></trkpt>
<trkpt lat="31.1623242" lon="34.5881409"><ele>183.5</ele><time>2014-11-08T10:44:13Z</time></trkpt>
<trkpt lat="31.1620405" lon="34.5885657"><ele>183.8</ele><time>2014-11-08T10:44:21Z</time></trkpt>
<trkpt lat="31.1617357" lon="34.5889775"><ele>185.0</ele><time>2014-11-08T10:44:30Z</time></trkpt>
<trkpt lat="31.1614257" lon="34.5894391"><ele>186.0</ele><time>2014-11-08T10:44:39Z</time></trkpt>
<trkpt lat="31.1611241" lon="34.5899017"><ele>185.5</ele><time>2014-11-08T10:44:48Z</time></trkpt>
<trkpt lat="31.1608214" lon="34.5903239"><ele>184.7</ele><time>2014-11-08T10:44:57Z</time></trkpt>
<trkpt lat="31.1605205" lon="34.5907536"><ele>183.9</ele><time>2014-11-08T10:45:06Z</time></trkpt>
<trkpt lat="31.1602348" lon="34.5911980"><ele>183.1</ele><time>2014-11-08T10:45:14Z</time></trkpt>
<trkpt lat="31.1599343" lon="34.5916535"><ele>183.0</ele><time>2014-11-08T10:45:25Z</time></trkpt>
<trkpt lat="31.1595994" lon="34.5920959"><ele>183.0</ele><time>2014-11-08T10:45:33Z</time></trkpt>
<trkpt lat="31.1592812" lon="34.5925509"><ele>183.0</ele><time>2014-11-08T10:45:42Z</time></trkpt>
<trkpt lat="31.1589816" lon="34.5929828"><ele>184.3</ele><time>2014-11-08T10:45:50Z</time></trkpt>
<trkpt lat="31.1586710" lon="34.5934296"><ele>185.0</ele><time>2014-11-08T10:46:00Z</time></trkpt>
<trkpt lat="31.1583720" lon="34.5938796"><ele>186.8</ele><time>2014-11-08T10:46:10Z</time></trkpt>
<trkpt lat="31.1580479" lon="34.5943168"><ele>188.3</ele><time>2014-11-08T10:46:20Z</time></trkpt>
<trkpt lat="31.1577698" lon="34.5947582"><ele>189.0</ele><time>2014-11-08T10:46:29Z</time></trkpt>
<trkpt lat="31.1574569" lon="34.5952043"><ele>189.4</ele><time>2014-11-08T10:46:37Z</time></trkpt>
<trkpt lat="31.1571564" lon="34.5956262"><ele>189.8</ele><time>2014-11-08T10:46:46Z</time></trkpt>
<trkpt lat="31.1568599" lon="34.5960904"><ele>190.1</ele><time>2014-11-08T10:46:58Z</time></trkpt>
<trkpt lat="31.1565553" lon="34.5965354"><ele>191.3</ele><time>2014-11-08T10:47:09Z</time></trkpt>
<trkpt lat="31.1562196" lon="34.5969476"><ele>192.4</ele><time>2014-11-08T10:47:19Z</time></trkpt>
<trkpt lat="31.1559227" lon="34.5973843"><ele>192.6</ele><time>2014-11-08T10:47:28Z</time></trkpt>
<trkpt lat="31.1556272" lon="34.5978175"><ele>191.9</ele><time>2014-11-08T10:47:37Z</time></trkpt>
<trkpt lat="31.1553128" lon="34.5982405"><ele>191.2</ele><time>2014-11-08T10:47:45Z</time></trkpt>
<trkpt lat="31.1549938" lon="34.5986795"><ele>190.4</ele><time>2014-11-08T10:47:54Z</time></trkpt>
<trkpt lat="31.1546737" lon="34.5991271"><ele>190.5</ele><time>2014-11-08T10:48:02Z</time></trkpt>
<trkpt lat="31.1543706" lon="34.5995838"><ele>190.7</ele><time>2014-11-08T10:48:09Z</time></trkpt>
<trkpt lat="31.1540628" lon="34.6000158"><ele>190.1</ele><time>2014-11-08T10:48:15Z</time></trkpt>
<trkpt lat="31.1537542" lon="34.6004596"><ele>189.6</ele><time>2014-11-08T10:48:22Z</time></trkpt>
<trkpt lat="31.1534470" lon="34.6008961"><ele>189.0</ele><time>2014-11-08T10:48:30Z</time></trkpt>
<trkpt lat="31.1531091" lon="34.6013593"><ele>188.5</ele><time>2014-11-08T10:48:37Z</time></trkpt>
<trkpt lat="31.1528127" lon="34.6018081"><ele>187.6</ele><time>2014-11-08T10:48:44Z</time></trkpt>
<trkpt lat="31.1525142" lon="34.6022748"><ele>187.8</ele><time>2014-11-08T10:48:52Z</time></trkpt>
<trkpt lat="31.1522187" lon="34.6027188"><ele>189.4</ele><time>2014-11-08T10:49:02Z</time></trkpt>
<trkpt lat="31.1519139" lon="34.6031783"><ele>190.4</ele><time>2014-11-08T10:49:12Z</time></trkpt>
<trkpt lat="31.1515844" lon="34.6035973"><ele>191.5</ele><time>2014-11-08T10:49:22Z</time></trkpt>
<trkpt lat="31.1512924" lon="34.6040147"><ele>192.1</ele><time>2014-11-08T10:49:32Z</time></trkpt>
<trkpt lat="31.1509852" lon="34.6044534"><ele>193.4</ele><time>2014-11-08T10:49:44Z</time></trkpt>
<trkpt lat="31.1506754" lon="34.6048620"><ele>194.6</ele><time>2014-11-08T10:49:57Z</time></trkpt>
<trkpt lat="31.1503866" lon="34.6053000"><ele>195.8</ele><time>2014-11-08T10:50:08Z</time></trkpt>
<trkpt lat="31.1500928" lon="34.6057295"><ele>199.6</ele><time>2014-11-08T10:50:20Z</time></trkpt>
<trkpt lat="31.1497760" lon="34.6061542"><ele>200.0</ele><time>2014-11-08T10:50:31Z</time></trkpt>
<trkpt lat="31.1494950" lon="34.6065678"><ele>200.0</ele><time>2014-11-08T10:50:40Z</time></trkpt>
<trkpt lat="31.1491896" lon="34.6069765"><ele>200.0</ele><time>2014-11-08T10:50:48Z</time></trkpt>
<trkpt lat="31.1488925" lon="34.6074215"><ele>200.0</ele><time>2014-11-08T10:50:57Z</time></trkpt>
<trkpt lat="31.1485870" lon="34.6078659"><ele>200.0</ele><time>2014-11-08T10:51:06Z</time></trkpt>
<trkpt lat="31.1482494" lon="34.6083230"><ele>200.0</ele><time>2014-11-08T10:51:14Z</time></trkpt>
<trkpt lat="31.1480584" lon="34.6086449"><ele>200.0</ele><time>2014-11-08T10:51:19Z</time></trkpt>
<trkpt lat="31.1477258" lon="34.6090802"><ele>200.0</ele><time>2014-11-08T10:51:27Z</time></trkpt>
<trkpt lat="31.1474108" lon="34.6094914"><ele>200.0</ele><time>2014-11-08T10:51:33Z</time></trkpt>
<trkpt lat="31.1470977" lon="34.6099325"><ele>200.0</ele><time>2014-11-08T10:51:41Z</time></trkpt>
<trkpt lat="31.1468128" lon="34.6103677"><ele>199.9</ele><time>2014-11-08T10:51:48Z</time></trkpt>
<trkpt lat="31.1464986" lon="34.6107698"><ele>199.2</ele><time>2014-11-08T10:51:54Z</time></trkpt>
<trkpt lat="31.1461823" lon="34.6112038"><ele>198.6</ele><time>2014-11-08T10:52:02Z</time></trkpt>
<trkpt lat="31.1458887" lon="34.6116120"><ele>198.0</ele><time>2014-11-08T10:52:09Z</time></trkpt>
<trkpt lat="31.1456074" lon="34.6120438"><ele>197.7</ele><time>2014-11-08T10:52:15Z</time></trkpt>
<trkpt lat="31.1453021" lon="34.6124932"><ele>196.8</ele><time>2014-11-08T10:52:23Z</time></trkpt>
<trkpt lat="31.1449842" lon="34.6128974"><ele>195.8</ele><time>2014-11-08T10:52:30Z</time></trkpt>
<trkpt lat="31.1446703" lon="34.6133178"><ele>194.6</ele><time>2014-11-08T10:52:37Z</time></trkpt>
<trkpt lat="31.1443498" lon="34.6137737"><ele>193.0</ele><time>2014-11-08T10:52:44Z</time></trkpt>
<trkpt lat="31.1440699" lon="34.6142303"><ele>191.9</ele><time>2014-11-08T10:52:53Z</time></trkpt>
<trkpt lat="31.1437495" lon="34.6146893"><ele>191.3</ele><time>2014-11-08T10:53:01Z</time></trkpt>
<trkpt lat="31.1434474" lon="34.6151510"><ele>190.8</ele><time>2014-11-08T10:53:09Z</time></trkpt>
<trkpt lat="31.1431245" lon="34.6156151"><ele>190.2</ele><time>2014-11-08T10:53:16Z</time></trkpt>
<trkpt lat="31.1428215" lon="34.6160518"><ele>190.0</ele><time>2014-11-08T10:53:24Z</time></trkpt>
<trkpt lat="31.1425074" lon="34.6164942"><ele>191.4</ele><time>2014-11-08T10:53:33Z</time></trkpt>
<trkpt lat="31.1422039" lon="34.6169318"><ele>192.0</ele><time>2014-11-08T10:53:41Z</time></trkpt>
<trkpt lat="31.1421028" lon="34.6170805"><ele>192.0</ele><time>2014-11-08T10:53:43Z</time></trkpt>
<trkpt lat="31.1420470" lon="34.6171252"><ele>192.0</ele><time>2014-11-08T10:53:43Z</time></trkpt>
<trkpt lat="31.1417181" lon="34.6175772"><ele>192.1</ele><time>2014-11-08T10:53:52Z</time></trkpt>
<trkpt lat="31.1413920" lon="34.6179748"><ele>192.4</ele><time>2014-11-08T10:54:00Z</time></trkpt>
<trkpt lat="31.1410473" lon="34.6183466"><ele>192.6</ele><time>2014-11-08T10:54:08Z</time></trkpt>
<trkpt lat="31.1406993" lon="34.6186841"><ele>192.8</ele><time>2014-11-08T10:54:16Z</time></trkpt>
<trkpt lat="31.1403070" lon="34.6190012"><ele>193.0</ele><time>2014-11-08T10:54:25Z</time></trkpt>
<trkpt lat="31.1400939" lon="34.6191932"><ele>193.0</ele><time>2014-11-08T10:54:30Z</time></trkpt>
<trkpt lat="31.1396871" lon="34.6194686"><ele>193.5</ele><time>2014-11-08T10:54:37Z</time></trkpt>
<trkpt lat="31.1392775" lon="34.6197640"><ele>194.2</ele><time>2014-11-08T10:54:47Z</time></trkpt>
<trkpt lat="31.1388901" lon="34.6200628"><ele>194.7</ele><time>2014-11-08T10:54:54Z</time></trkpt>
<trkpt lat="31.1384558" lon="34.6203694"><ele>195.8</ele><time>2014-11-08T10:55:03Z</time></trkpt>
<trkpt lat="31.1380581" lon="34.6206645"><ele>196.6</ele><time>2014-11-08T10:55:12Z</time></trkpt>
<trkpt lat="31.1376576" lon="34.6209755"><ele>197.1</ele><time>2014-11-08T10:55:19Z</time></trkpt>
<trkpt lat="31.1372393" lon="34.6212421"><ele>197.7</ele><time>2014-11-08T10:55:27Z</time></trkpt>
<trkpt lat="31.1368533" lon="34.6215153"><ele>198.4</ele><time>2014-11-08T10:55:35Z</time></trkpt>
<trkpt lat="31.1364592" lon="34.6218199"><ele>198.9</ele><time>2014-11-08T10:55:42Z</time></trkpt>
<trkpt lat="31.1360646" lon="34.6221149"><ele>199.0</ele><time>2014-11-08T10:55:49Z</time></trkpt>
<trkpt lat="31.1356961" lon="34.6224292"><ele>198.5</ele><time>2014-11-08T10:55:56Z</time></trkpt>
<trkpt lat="31.1353171" lon="34.6227437"><ele>197.8</ele><time>2014-11-08T10:56:04Z</time></trkpt>
<trkpt lat="31.1349559" lon="34.6231094"><ele>197.3</ele><time>2014-11-08T10:56:11Z</time></trkpt>
<trkpt lat="31.1346072" lon="34.6235208"><ele>196.8</ele><time>2014-11-08T10:56:17Z</time></trkpt>
<trkpt lat="31.1342542" lon="34.6239121"><ele>196.2</ele><time>2014-11-08T10:56:24Z</time></trkpt>
<trkpt lat="31.1339159" lon="34.6243233"><ele>196.7</ele><time>2014-11-08T10:56:31Z</time></trkpt>
<trkpt lat="31.1335454" lon="34.6247573"><ele>197.4</ele><time>2014-11-08T10:56:38Z</time></trkpt>
<trkpt lat="31.1332005" lon="34.6251450"><ele>198.0</ele><time>2014-11-08T10:56:45Z</time></trkpt>
<trkpt lat="31.1330932" lon="34.6252476"><ele>198.2</ele><time>2014-11-08T10:56:47Z</time></trkpt>
<trkpt lat="31.1327872" lon="34.6256469"><ele>198.8</ele><time>2014-11-08T10:56:55Z</time></trkpt>
<trkpt lat="31.1324546" lon="34.6260178"><ele>199.5</ele><time>2014-11-08T10:57:02Z</time></trkpt>
<trkpt lat="31.1321214" lon="34.6263938"><ele>199.8</ele><time>2014-11-08T10:57:08Z</time></trkpt>
<trkpt lat="31.1317884" lon="34.6267779"><ele>198.5</ele><time>2014-11-08T10:57:15Z</time></trkpt>
<trkpt lat="31.1314343" lon="34.6271787"><ele>197.2</ele><time>2014-11-08T10:57:23Z</time></trkpt>
<trkpt lat="31.1310889" lon="34.6276054"><ele>196.1</ele><time>2014-11-08T10:57:31Z</time></trkpt>
<trkpt lat="31.1307549" lon="34.6279704"><ele>196.5</ele><time>2014-11-08T10:57:39Z</time></trkpt>
<trkpt lat="31.1304219" lon="34.6283533"><ele>197.0</ele><time>2014-11-08T10:57:47Z</time></trkpt>
<trkpt lat="31.1300723" lon="34.6287624"><ele>197.6</ele><time>2014-11-08T10:57:57Z</time></trkpt>
<trkpt lat="31.1297189" lon="34.6291479"><ele>198.3</ele><time>2014-11-08T10:58:08Z</time></trkpt>
<trkpt lat="31.1294052" lon="34.6295476"><ele>199.2</ele><time>2014-11-08T10:58:16Z</time></trkpt>
<trkpt lat="31.1290709" lon="34.6299360"><ele>200.2</ele><time>2014-11-08T10:58:26Z</time></trkpt>
<trkpt lat="31.1287368" lon="34.6302945"><ele>201.0</ele><time>2014-11-08T10:58:34Z</time></trkpt>
<trkpt lat="31.1284289" lon="34.6306965"><ele>201.9</ele><time>2014-11-08T10:58:42Z</time></trkpt>
<trkpt lat="31.1280849" lon="34.6311106"><ele>202.0</ele><time>2014-11-08T10:58:49Z</time></trkpt>
<trkpt lat="31.1277329" lon="34.6315401"><ele>202.3</ele><time>2014-11-08T10:58:58Z</time></trkpt>
<trkpt lat="31.1274189" lon="34.6319252"><ele>202.9</ele><time>2014-11-08T10:59:05Z</time></trkpt>
<trkpt lat="31.1270667" lon="34.6322987"><ele>203.5</ele><time>2014-11-08T10:59:12Z</time></trkpt>
<trkpt lat="31.1267560" lon="34.6327300"><ele>204.0</ele><time>2014-11-08T10:59:20Z</time></trkpt>
<trkpt lat="31.1264219" lon="34.6331334"><ele>203.2</ele><time>2014-11-08T10:59:26Z</time></trkpt>
<trkpt lat="31.1260728" lon="34.6335203"><ele>202.0</ele><time>2014-11-08T10:59:33Z</time></trkpt>
<trkpt lat="31.1257368" lon="34.6339413"><ele>203.3</ele><time>2014-11-08T10:59:40Z</time></trkpt>
<trkpt lat="31.1253780" lon="34.6343267"><ele>203.3</ele><time>2014-11-08T10:59:49Z</time></trkpt>
<trkpt lat="31.1250599" lon="34.6347536"><ele>202.2</ele><time>2014-11-08T10:59:57Z</time></trkpt>
<trkpt lat="31.1247503" lon="34.6351542"><ele>203.4</ele><time>2014-11-08T11:00:04Z</time></trkpt>
<trkpt lat="31.1244218" lon="34.6355254"><ele>204.0</ele><time>2014-11-08T11:00:11Z</time></trkpt>
<trkpt lat="31.1240997" lon="34.6359413"><ele>203.6</ele><time>2014-11-08T11:00:18Z</time></trkpt>
<trkpt lat="31.1237738" lon="34.6363303"><ele>203.1</ele><time>2014-11-08T11:00:26Z</time></trkpt>
<trkpt lat="31.1234023" lon="34.6367538"><ele>202.5</ele><time>2014-11-08T11:00:33Z</time></trkpt>
<trkpt lat="31.1230596" lon="34.6371526"><ele>202.0</ele><time>2014-11-08T11:00:40Z</time></trkpt>
<trkpt lat="31.1227279" lon="34.6375239"><ele>202.7</ele><time>2014-11-08T11:00:48Z</time></trkpt>
<trkpt lat="31.1223830" lon="34.6379379"><ele>200.7</ele><time>2014-11-08T11:00:56Z</time></trkpt>
<trkpt lat="31.1220630" lon="34.6383273"><ele>200.1</ele><time>2014-11-08T11:01:03Z</time></trkpt>
<trkpt lat="31.1217061" lon="34.6387604"><ele>199.6</ele><time>2014-11-08T11:01:09Z</time></trkpt>
<trkpt lat="31.1213853" lon="34.6391290"><ele>199.2</ele><time>2014-11-08T11:01:17Z</time></trkpt>
<trkpt lat="31.1210169" lon="34.6395558"><ele>198.8</ele><time>2014-11-08T11:01:25Z</time></trkpt>
<trkpt lat="31.1206585" lon="34.6399460"><ele>198.4</ele><time>2014-11-08T11:01:31Z</time></trkpt>
<trkpt lat="31.1203373" lon="34.6403232"><ele>198.2</ele><time>2014-11-08T11:01:38Z</time></trkpt>
<trkpt lat="31.1200022" lon="34.6407389"><ele>199.0</ele><time>2014-11-08T11:01:46Z</time></trkpt>
<trkpt lat="31.1196575" lon="34.6411513"><ele>199.0</ele><time>2014-11-08T11:01:52Z</time></trkpt>
<trkpt lat="31.1193061" lon="34.6415783"><ele>199.0</ele><time>2014-11-08T11:02:00Z</time></trkpt>
<trkpt lat="31.1189478" lon="34.6420088"><ele>199.0</ele><time>2014-11-08T11:02:08Z</time></trkpt>
<trkpt lat="31.1186032" lon="34.6424078"><ele>197.8</ele><time>2014-11-08T11:02:15Z</time></trkpt>
<trkpt lat="31.1182697" lon="34.6428509"><ele>197.0</ele><time>2014-11-08T11:02:22Z</time></trkpt>
<trkpt lat="31.1179365" lon="34.6432517"><ele>197.4</ele><time>2014-11-08T11:02:31Z</time></trkpt>
<trkpt lat="31.1175907" lon="34.6436582"><ele>198.5</ele><time>2014-11-08T11:02:42Z</time></trkpt>
<trkpt lat="31.1172510" lon="34.6440768"><ele>199.5</ele><time>2014-11-08T11:02:51Z</time></trkpt>
<trkpt lat="31.1169187" lon="34.6444467"><ele>200.5</ele><time>2014-11-08T11:02:58Z</time></trkpt>
<trkpt lat="31.1165880" lon="34.6448474"><ele>200.0</ele><time>2014-11-08T11:03:07Z</time></trkpt>
<trkpt lat="31.1162407" lon="34.6452675"><ele>200.4</ele><time>2014-11-08T11:03:16Z</time></trkpt>
<trkpt lat="31.1158941" lon="34.6456974"><ele>200.8</ele><time>2014-11-08T11:03:24Z</time></trkpt>
<trkpt lat="31.1155917" lon="34.6460956"><ele>201.2</ele><time>2014-11-08T11:03:34Z</time></trkpt>
<trkpt lat="31.1152360" lon="34.6465056"><ele>201.6</ele><time>2014-11-08T11:03:42Z</time></trkpt>
<trkpt lat="31.1148929" lon="34.6468988"><ele>202.0</ele><time>2014-11-08T11:03:51Z</time></trkpt>
<trkpt lat="31.1145521" lon="34.6472900"><ele>202.3</ele><time>2014-11-08T11:03:58Z</time></trkpt>
<trkpt lat="31.1142202" lon="34.6476872"><ele>202.7</ele><time>2014-11-08T11:04:08Z</time></trkpt>
<trkpt lat="31.1138953" lon="34.6480576"><ele>203.1</ele><time>2014-11-08T11:04:16Z</time></trkpt>
<trkpt lat="31.1135293" lon="34.6484818"><ele>203.5</ele><time>2014-11-08T11:04:24Z</time></trkpt>
<trkpt lat="31.1132067" lon="34.6488667"><ele>203.9</ele><time>2014-11-08T11:04:32Z</time></trkpt>
<trkpt lat="31.1128400" lon="34.6492788"><ele>204.0</ele><time>2014-11-08T11:04:41Z</time></trkpt>
<trkpt lat="31.1124887" lon="34.6497060"><ele>203.2</ele><time>2014-11-08T11:04:48Z</time></trkpt>
<trkpt lat="31.1121851" lon="34.6501003"><ele>204.6</ele><time>2014-11-08T11:04:57Z</time></trkpt>
<trkpt lat="31.1118635" lon="34.6505073"><ele>206.0</ele><time>2014-11-08T11:05:04Z</time></trkpt>
<trkpt lat="31.1116550" lon="34.6507201"><ele>206.3</ele><time>2014-11-08T11:05:10Z</time></trkpt>
<trkpt lat="31.1113373" lon="34.6511363"><ele>206.7</ele><time>2014-11-08T11:05:17Z</time></trkpt>
<trkpt lat="31.1110243" lon="34.6515279"><ele>207.1</ele><time>2014-11-08T11:05:25Z</time></trkpt>
<trkpt lat="31.1107014" lon="34.6519074"><ele>207.5</ele><time>2014-11-08T11:05:34Z</time></trkpt>
<trkpt lat="31.1103719" lon="34.6523043"><ele>207.9</ele><time>2014-11-08T11:05:43Z</time></trkpt>
<trkpt lat="31.1100427" lon="34.6527035"><ele>208.3</ele><time>2014-11-08T11:05:51Z</time></trkpt>
<trkpt lat="31.1097137" lon="34.6530785"><ele>208.8</ele><time>2014-11-08T11:06:00Z</time></trkpt>
<trkpt lat="31.1093525" lon="34.6534925"><ele>209.2</ele><time>2014-11-08T11:06:10Z</time></trkpt>
<trkpt lat="31.1090154" lon="34.6538902"><ele>210.7</ele><time>2014-11-08T11:06:19Z</time></trkpt>
<trkpt lat="31.1086712" lon="34.6542960"><ele>212.3</ele><time>2014-11-08T11:06:29Z</time></trkpt>
<trkpt lat="31.1083633" lon="34.6546806"><ele>211.0</ele><time>2014-11-08T11:06:37Z</time></trkpt>
<trkpt lat="31.1080683" lon="34.6550007"><ele>212.1</ele><time>2014-11-08T11:06:44Z</time></trkpt>
<trkpt lat="31.1080661" lon="34.6550498"><ele>212.2</ele><time>2014-11-08T11:06:44Z</time></trkpt>
<trkpt lat="31.1077438" lon="34.6554418"><ele>212.9</ele><time>2014-11-08T11:06:53Z</time></trkpt>
<trkpt lat="31.1073956" lon="34.6558478"><ele>213.7</ele><time>2014-11-08T11:07:02Z</time></trkpt>
<trkpt lat="31.1070476" lon="34.6562392"><ele>214.5</ele><time>2014-11-08T11:07:10Z</time></trkpt>
<trkpt lat="31.1067123" lon="34.6566514"><ele>215.3</ele><time>2014-11-08T11:07:19Z</time></trkpt>
<trkpt lat="31.1063712" lon="34.6570474"><ele>216.0</ele><time>2014-11-08T11:07:27Z</time></trkpt>
<trkpt lat="31.1060171" lon="34.6574491"><ele>216.8</ele><time>2014-11-08T11:07:36Z</time></trkpt>
<trkpt lat="31.1057038" lon="34.6578351"><ele>216.0</ele><time>2014-11-08T11:07:44Z</time></trkpt>
<trkpt lat="31.1055200" lon="34.6580357"><ele>216.5</ele><time>2014-11-08T11:07:49Z</time></trkpt>
<trkpt lat="31.1052265" lon="34.6584385"><ele>217.6</ele><time>2014-11-08T11:07:57Z</time></trkpt>
<trkpt lat="31.1048920" lon="34.6588128"><ele>216.8</ele><time>2014-11-08T11:08:07Z</time></trkpt>
<trkpt lat="31.1045721" lon="34.6592099"><ele>216.8</ele><time>2014-11-08T11:08:16Z</time></trkpt>
<trkpt lat="31.1042318" lon="34.6595917"><ele>217.4</ele><time>2014-11-08T11:08:24Z</time></trkpt>
<trkpt lat="31.1038771" lon="34.6600003"><ele>218.0</ele><time>2014-11-08T11:08:35Z</time></trkpt>
<trkpt lat="31.1036172" lon="34.6603293"><ele>218.4</ele><time>2014-11-08T11:08:43Z</time></trkpt>
<trkpt lat="31.1032705" lon="34.6607543"><ele>219.0</ele><time>2014-11-08T11:08:54Z</time></trkpt>
<trkpt lat="31.1029417" lon="34.6611331"><ele>219.5</ele><time>2014-11-08T11:09:03Z</time></trkpt>
<trkpt lat="31.1026175" lon="34.6615268"><ele>220.4</ele><time>2014-11-08T11:09:13Z</time></trkpt>
<trkpt lat="31.1022882" lon="34.6619013"><ele>223.0</ele><time>2014-11-08T11:09:23Z</time></trkpt>
<trkpt lat="31.1019805" lon="34.6622893"><ele>223.8</ele><time>2014-11-08T11:09:32Z</time></trkpt>
<trkpt lat="31.1016536" lon="34.6626717"><ele>225.0</ele><time>2014-11-08T11:09:42Z</time></trkpt>
<trkpt lat="31.1013197" lon="34.6630530"><ele>226.1</ele><time>2014-11-08T11:09:50Z</time></trkpt>
<trkpt lat="31.1009764" lon="34.6634544"><ele>227.0</ele><time>2014-11-08T11:09:59Z</time></trkpt>
<trkpt lat="31.1009059" lon="34.6635469"><ele>227.0</ele><time>2014-11-08T11:10:01Z</time></trkpt>
<trkpt lat="31.1005813" lon="34.6639248"><ele>226.0</ele><time>2014-11-08T11:10:10Z</time></trkpt>
<trkpt lat="31.1002426" lon="34.6643644"><ele>224.9</ele><time>2014-11-08T11:10:19Z</time></trkpt>
<trkpt lat="31.0999105" lon="34.6647531"><ele>224.6</ele><time>2014-11-08T11:10:28Z</time></trkpt>
<trkpt lat="31.0995914" lon="34.6651776"><ele>227.0</ele><time>2014-11-08T11:10:37Z</time></trkpt>
<trkpt lat="31.0992352" lon="34.6655879"><ele>225.7</ele><time>2014-11-08T11:10:45Z</time></trkpt>
<trkpt lat="31.0989324" lon="34.6659794"><ele>226.9</ele><time>2014-11-08T11:10:54Z</time></trkpt>
<trkpt lat="31.0986138" lon="34.6664039"><ele>226.1</ele><time>2014-11-08T11:11:03Z</time></trkpt>
<trkpt lat="31.0982715" lon="34.6668104"><ele>225.4</ele><time>2014-11-08T11:11:10Z</time></trkpt>
<trkpt lat="31.0979484" lon="34.6672344"><ele>224.7</ele><time>2014-11-08T11:11:18Z</time></trkpt>
<trkpt lat="31.0976524" lon="34.6676309"><ele>224.1</ele><time>2014-11-08T11:11:26Z</time></trkpt>
<trkpt lat="31.0973196" lon="34.6680365"><ele>225.3</ele><time>2014-11-08T11:11:34Z</time></trkpt>
<trkpt lat="31.0970210" lon="34.6684365"><ele>226.0</ele><time>2014-11-08T11:11:43Z</time></trkpt>
<trkpt lat="31.0967054" lon="34.6688796"><ele>226.4</ele><time>2014-11-08T11:11:55Z</time></trkpt>
<trkpt lat="31.0964076" lon="34.6692770"><ele>226.7</ele><time>2014-11-08T11:12:03Z</time></trkpt>
<trkpt lat="31.0960809" lon="34.6696897"><ele>227.3</ele><time>2014-11-08T11:12:14Z</time></trkpt>
<trkpt lat="31.0957758" lon="34.6700922"><ele>229.4</ele><time>2014-11-08T11:12:25Z</time></trkpt>
<trkpt lat="31.0954648" lon="34.6705038"><ele>230.6</ele><time>2014-11-08T11:12:35Z</time></trkpt>
<trkpt lat="31.0951495" lon="34.6709139"><ele>232.0</ele><time>2014-11-08T11:12:45Z</time></trkpt>
<trkpt lat="31.0948461" lon="34.6713571"><ele>231.5</ele><time>2014-11-08T11:12:56Z</time></trkpt>
<trkpt lat="31.0945968" lon="34.6716737"><ele>232.0</ele><time>2014-11-08T11:13:05Z</time></trkpt>
<trkpt lat="31.0942633" lon="34.6720898"><ele>233.5</ele><time>2014-11-08T11:13:16Z</time></trkpt>
<trkpt lat="31.0939435" lon="34.6725055"><ele>234.5</ele><time>2014-11-08T11:13:27Z</time></trkpt>
<trkpt lat="31.0936290" lon="34.6728993"><ele>236.5</ele><time>2014-11-08T11:13:37Z</time></trkpt>
<trkpt lat="31.0933267" lon="34.6732935"><ele>237.8</ele><time>2014-11-08T11:13:49Z</time></trkpt>
<trkpt lat="31.0929954" lon="34.6736774"><ele>239.0</ele><time>2014-11-08T11:14:00Z</time></trkpt>
<trkpt lat="31.0927168" lon="34.6741250"><ele>240.3</ele><time>2014-11-08T11:14:11Z</time></trkpt>
<trkpt lat="31.0923733" lon="34.6745409"><ele>243.7</ele><time>2014-11-08T11:14:22Z</time></trkpt>
<trkpt lat="31.0920711" lon="34.6749515"><ele>245.0</ele><time>2014-11-08T11:14:32Z</time></trkpt>
<trkpt lat="31.0917656" lon="34.6753313"><ele>243.9</ele><time>2014-11-08T11:14:41Z</time></trkpt>
<trkpt lat="31.0914799" lon="34.6757432"><ele>243.4</ele><time>2014-11-08T11:14:51Z</time></trkpt>
<trkpt lat="31.0911630" lon="34.6761450"><ele>244.8</ele><time>2014-11-08T11:15:01Z</time></trkpt>
<trkpt lat="31.0908510" lon="34.6765451"><ele>243.8</ele><time>2014-11-08T11:15:12Z</time></trkpt>
<trkpt lat="31.0905311" lon="34.6769362"><ele>243.5</ele><time>2014-11-08T11:15:23Z</time></trkpt>
<trkpt lat="31.0902386" lon="34.6773454"><ele>243.2</ele><time>2014-11-08T11:15:35Z</time></trkpt>
<trkpt lat="31.0899364" lon="34.6777508"><ele>243.0</ele><time>2014-11-08T11:15:45Z</time></trkpt>
<trkpt lat="31.0896258" lon="34.6781569"><ele>243.5</ele><time>2014-11-08T11:15:54Z</time></trkpt>
<trkpt lat="31.0893068" lon="34.6785565"><ele>244.7</ele><time>2014-11-08T11:16:05Z</time></trkpt>
<trkpt lat="31.0889670" lon="34.6789932"><ele>245.8</ele><time>2014-11-08T11:16:16Z</time></trkpt>
<trkpt lat="31.0886452" lon="34.6794146"><ele>245.0</ele><time>2014-11-08T11:16:26Z</time></trkpt>
<trkpt lat="31.0883409" lon="34.6798181"><ele>244.4</ele><time>2014-11-08T11:16:34Z</time></trkpt>
<trkpt lat="31.0880063" lon="34.6801882"><ele>243.8</ele><time>2014-11-08T11:16:43Z</time></trkpt>
<trkpt lat="31.0877006" lon="34.6806063"><ele>243.1</ele><time>2014-11-08T11:16:51Z</time></trkpt>
<trkpt lat="31.0873945" lon="34.6810100"><ele>244.1</ele><time>2014-11-08T11:17:02Z</time></trkpt>
<trkpt lat="31.0870955" lon="34.6814278"><ele>244.4</ele><time>2014-11-08T11:17:11Z</time></trkpt>
<trkpt lat="31.0867661" lon="34.6818168"><ele>244.8</ele><time>2014-11-08T11:17:20Z</time></trkpt>
<trkpt lat="31.0864750" lon="34.6822341"><ele>245.8</ele><time>2014-11-08T11:17:29Z</time></trkpt>
<trkpt lat="31.0861561" lon="34.6826737"><ele>247.0</ele><time>2014-11-08T11:17:37Z</time></trkpt>
<trkpt lat="31.0858232" lon="34.6831087"><ele>246.2</ele><time>2014-11-08T11:17:47Z</time></trkpt>
<trkpt lat="31.0855029" lon="34.6835226"><ele>246.4</ele><time>2014-11-08T11:17:56Z</time></trkpt>
<trkpt lat="31.0851813" lon="34.6839313"><ele>245.1</ele><time>2014-11-08T11:18:05Z</time></trkpt>
<trkpt lat="31.0848687" lon="34.6843158"><ele>245.7</ele><time>2014-11-08T11:18:12Z</time></trkpt>
<trkpt lat="31.0845583" lon="34.6847074"><ele>245.5</ele><time>2014-11-08T11:18:20Z</time></trkpt>
<trkpt lat="31.0842256" lon="34.6851328"><ele>244.3</ele><time>2014-11-08T11:18:29Z</time></trkpt>
<trkpt lat="31.0838961" lon="34.6855485"><ele>243.0</ele><time>2014-11-08T11:18:38Z</time></trkpt>
<trkpt lat="31.0836013" lon="34.6859466"><ele>241.6</ele><time>2014-11-08T11:18:51Z</time></trkpt>
<trkpt lat="31.0832718" lon="34.6863563"><ele>241.2</ele><time>2014-11-08T11:19:04Z</time></trkpt>
<trkpt lat="31.0829515" lon="34.6867311"><ele>241.8</ele><time>2014-11-08T11:19:15Z</time></trkpt>
<trkpt lat="31.0826058" lon="34.6871397"><ele>242.0</ele><time>2014-11-08T11:19:26Z</time></trkpt>
<trkpt lat="31.0823011" lon="34.6875799"><ele>242.0</ele><time>2014-11-08T11:19:35Z</time></trkpt>
<trkpt lat="31.0819846" lon="34.6880021"><ele>242.0</ele><time>2014-11-08T11:19:47Z</time></trkpt>
<trkpt lat="31.0816344" lon="34.6884377"><ele>242.1</ele><time>2014-11-08T11:19:59Z</time></trkpt>
<trkpt lat="31.0813305" lon="34.6888389"><ele>242.6</ele><time>2014-11-08T11:20:08Z</time></trkpt>
<trkpt lat="31.0810165" lon="34.6892321"><ele>243.1</ele><time>2014-11-08T11:20:21Z</time></trkpt>
<trkpt lat="31.0807090" lon="34.6896161"><ele>243.7</ele><time>2014-11-08T11:20:33Z</time></trkpt>
<trkpt lat="31.0801640" lon="34.6903262"><ele>250.0</ele><time>2014-11-08T11:20:49Z</time></trkpt>
</trkseg>
<trkseg>
<trkpt lat="31.0801640" lon="34.6903262"><ele>250.0</ele><time>2014-11-08T11:45:29Z</time></trkpt>
<trkpt lat="31.0799412" lon="34.6906554"><ele>255.3</ele><time>2014-11-08T11:45:32Z</time></trkpt>
<trkpt lat="31.0796307" lon="34.6910405"><ele>252.3</ele><time>2014-11-08T11:45:43Z</time></trkpt>
<trkpt lat="31.0792933" lon="34.6914387"><ele>253.3</ele><time>2014-11-08T11:45:57Z</time></trkpt>
<trkpt lat="31.0789717" lon="34.6918438"><ele>256.8</ele><time>2014-11-08T11:46:08Z</time></trkpt>
<trkpt lat="31.0786500" lon="34.6922625"><ele>258.0</ele><time>2014-11-08T11:46:20Z</time></trkpt>
<trkpt lat="31.0784235" lon="34.6925932"><ele>262.0</ele><time>2014-11-08T11:46:29Z</time></trkpt>
<trkpt lat="31.0784092" lon="34.6927506"><ele>262.0</ele><time>2014-11-08T11:46:33Z</time></trkpt>
<trkpt lat="31.0780729" lon="34.6931132"><ele>264.0</ele><time>2014-11-08T11:46:44Z</time></trkpt>
<trkpt lat="31.0777242" lon="34.6934648"><ele>263.5</ele><time>2014-11-08T11:46:54Z</time></trkpt>
<trkpt lat="31.0773805" lon="34.6938298"><ele>262.2</ele><time>2014-11-08T11:47:04Z</time></trkpt>
<trkpt lat="31.0770562" lon="34.6942491"><ele>260.6</ele><time>2014-11-08T11:47:14Z</time></trkpt>
<trkpt lat="31.0767481" lon="34.6946757"><ele>262.3</ele><time>2014-11-08T11:47:26Z</time></trkpt>
<trkpt lat="31.0764191" lon="34.6950913"><ele>267.3</ele><time>2014-11-08T11:47:38Z</time></trkpt>
<trkpt lat="31.0761314" lon="34.6954994"><ele>267.5</ele><time>2014-11-08T11:47:49Z</time></trkpt>
<trkpt lat="31.0758486" lon="34.6958435"><ele>267.6</ele><time>2014-11-08T11:47:58Z</time></trkpt>
<trkpt lat="31.0755422" lon="34.6962764"><ele>268.7</ele><time>2014-11-08T11:48:10Z</time></trkpt>
<trkpt lat="31.0753893" lon="34.6964457"><ele>268.7</ele><time>2014-11-08T11:48:16Z</time></trkpt>
<trkpt lat="31.0753696" lon="34.6965097"><ele>268.5</ele><time>2014-11-08T11:48:16Z</time></trkpt>
<trkpt lat="31.0749914" lon="34.6968702"><ele>263.3</ele><time>2014-11-08T11:48:29Z</time></trkpt>
<trkpt lat="31.0746330" lon="34.6972212"><ele>262.8</ele><time>2014-11-08T11:48:41Z</time></trkpt>
<trkpt lat="31.0742541" lon="34.6975721"><ele>261.2</ele><time>2014-11-08T11:48:51Z</time></trkpt>
<trkpt lat="31.0738887" lon="34.6979636"><ele>258.4</ele><time>2014-11-08T11:49:03Z</time></trkpt>
<trkpt lat="31.0736589" lon="34.6982144"><ele>258.1</ele><time>2014-11-08T11:49:09Z</time></trkpt>
<trkpt lat="31.0736474" lon="34.6982523"><ele>258.3</ele><time>2014-11-08T11:49:11Z</time></trkpt>
<trkpt lat="31.0732602" lon="34.6986211"><ele>256.6</ele><time>2014-11-08T11:49:22Z</time></trkpt>
<trkpt lat="31.0729036" lon="34.6989503"><ele>255.8</ele><time>2014-11-08T11:49:30Z</time></trkpt>
<trkpt lat="31.0727649" lon="34.6991314"><ele>257.6</ele><time>2014-11-08T11:49:36Z</time></trkpt>
<trkpt lat="31.0724432" lon="34.6994343"><ele>259.6</ele><time>2014-11-08T11:49:43Z</time></trkpt>
<trkpt lat="31.0721523" lon="34.6997151"><ele>261.5</ele><time>2014-11-08T11:49:51Z</time></trkpt>
<trkpt lat="31.0717969" lon="34.7000901"><ele>260.4</ele><time>2014-11-08T11:50:01Z</time></trkpt>
<trkpt lat="31.0714265" lon="34.7004641"><ele>261.7</ele><time>2014-11-08T11:50:12Z</time></trkpt>
<trkpt lat="31.0710620" lon="34.7008525"><ele>263.0</ele><time>2014-11-08T11:50:22Z</time></trkpt>
<trkpt lat="31.0708447" lon="34.7010877"><ele>264.1</ele><time>2014-11-08T11:50:27Z</time></trkpt>
<trkpt lat="31.0706362" lon="34.7012713"><ele>265.0</ele><time>2014-11-08T11:50:32Z</time></trkpt>
<trkpt lat="31.0705374" lon="34.7014126"><ele>265.6</ele><time>2014-11-08T11:50:35Z</time></trkpt>
<trkpt lat="31.0701678" lon="34.7017821"><ele>263.8</ele><time>2014-11-08T11:50:46Z</time></trkpt>
<trkpt lat="31.0697840" lon="34.7021688"><ele>262.8</ele><time>2014-11-08T11:50:56Z</time></trkpt>
<trkpt lat="31.0694061" lon="34.7025113"><ele>261.0</ele><time>2014-11-08T11:51:06Z</time></trkpt>
<trkpt lat="31.0690505" lon="34.7028984"><ele>259.4</ele><time>2014-11-08T11:51:15Z</time></trkpt>
<trkpt lat="31.0686785" lon="34.7032655"><ele>260.6</ele><time>2014-11-08T11:51:26Z</time></trkpt>
<trkpt lat="31.0683276" lon="34.7036093"><ele>257.8</ele><time>2014-11-08T11:51:35Z</time></trkpt>
<trkpt lat="31.0679865" lon="34.7039602"><ele>256.2</ele><time>2014-11-08T11:51:44Z</time></trkpt>
<trkpt lat="31.0676081" lon="34.7043339"><ele>260.7</ele><time>2014-11-08T11:51:53Z</time></trkpt>
<trkpt lat="31.0672382" lon="34.7047122"><ele>260.4</ele><time>2014-11-08T11:52:03Z</time></trkpt>
<trkpt lat="31.0668711" lon="34.7050862"><ele>262.2</ele><time>2014-11-08T11:52:14Z</time></trkpt>
<trkpt lat="31.0665440" lon="34.7054469"><ele>263.0</ele><time>2014-11-08T11:52:24Z</time></trkpt>
<trkpt lat="31.0664342" lon="34.7055598"><ele>263.0</ele><time>2014-11-08T11:52:27Z</time></trkpt>
<trkpt lat="31.0664320" lon="34.7056167"><ele>263.0</ele><time>2014-11-08T11:52:28Z</time></trkpt>
<trkpt lat="31.0660450" lon="34.7059367"><ele>261.4</ele><time>2014-11-08T11:52:37Z</time></trkpt>
<trkpt lat="31.0656782" lon="34.7063149"><ele>259.0</ele><time>2014-11-08T11:52:47Z</time></trkpt>
<trkpt lat="31.0652895" lon="34.7066571"><ele>257.3</ele><time>2014-11-08T11:52:56Z</time></trkpt>
<trkpt lat="31.0649210" lon="34.7070304"><ele>257.9</ele><time>2014-11-08T11:53:07Z</time></trkpt>
<trkpt lat="31.0645588" lon="34.7073988"><ele>258.4</ele><time>2014-11-08T11:53:17Z</time></trkpt>
<trkpt lat="31.0642026" lon="34.7077706"><ele>255.0</ele><time>2014-11-08T11:53:27Z</time></trkpt>
<trkpt lat="31.0638523" lon="34.7081031"><ele>255.4</ele><time>2014-11-08T11:53:36Z</time></trkpt>
<trkpt lat="31.0634925" lon="34.7084815"><ele>257.0</ele><time>2014-11-08T11:53:47Z</time></trkpt>
<trkpt lat="31.0631288" lon="34.7088695"><ele>257.2</ele><time>2014-11-08T11:53:58Z</time></trkpt>
<trkpt lat="31.0627722" lon="34.7092460"><ele>257.7</ele><time>2014-11-08T11:54:08Z</time></trkpt>
<trkpt lat="31.0623992" lon="34.7096011"><ele>258.1</ele><time>2014-11-08T11:54:17Z</time></trkpt>
<trkpt lat="31.0620591" lon="34.7099484"><ele>258.5</ele><time>2014-11-08T11:54:26Z</time></trkpt>
<trkpt lat="31.0616791" lon="34.7103173"><ele>258.6</ele><time>2014-11-08T11:54:38Z</time></trkpt>
<trkpt lat="31.0613444" lon="34.7106939"><ele>257.3</ele><time>2014-11-08T11:54:48Z</time></trkpt>
<trkpt lat="31.0609931" lon="34.7110486"><ele>259.0</ele><time>2014-11-08T11:54:57Z</time></trkpt>
<trkpt lat="31.0606218" lon="34.7114065"><ele>257.2</ele><time>2014-11-08T11:55:07Z</time></trkpt>
<trkpt lat="31.0602485" lon="34.7117906"><ele>257.8</ele><time>2014-11-08T11:55:18Z</time></trkpt>
<trkpt lat="31.0598806" lon="34.7121485"><ele>259.3</ele><time>2014-11-08T11:55:28Z</time></trkpt>
<trkpt lat="31.0595041" lon="34.7125231"><ele>261.0</ele><time>2014-11-08T11:55:38Z</time></trkpt>
<trkpt lat="31.0591434" lon="34.7128765"><ele>260.2</ele><time>2014-11-08T11:55:48Z</time></trkpt>
<trkpt lat="31.0588049" lon="34.7132423"><ele>260.2</ele><time>2014-11-08T11:55:57Z</time></trkpt>
<trkpt lat="31.0584359" lon="34.7136154"><ele>261.1</ele><time>2014-11-08T11:56:07Z</time></trkpt>
<trkpt lat="31.0580857" lon="34.7139545"><ele>261.9</ele><time>2014-11-08T11:56:17Z</time></trkpt>
<trkpt lat="31.0577171" lon="34.7143279"><ele>262.5</ele><time>2014-11-08T11:56:27Z</time></trkpt>
<trkpt lat="31.0573560" lon="34.7147054"><ele>263.4</ele><time>2014-11-08T11:56:36Z</time></trkpt>
<trkpt lat="31.0569866" lon="34.7150720"><ele>265.5</ele><time>2014-11-08T11:56:44Z</time></trkpt>
<trkpt lat="31.0566090" lon="34.7154467"><ele>266.9</ele><time>2014-11-08T11:56:54Z</time></trkpt>
<trkpt lat="31.0562712" lon="34.7158594"><ele>268.8</ele><time>2014-11-08T11:57:06Z</time></trkpt>
<trkpt lat="31.0558865" lon="34.7162248"><ele>270.6</ele><time>2014-11-08T11:57:16Z</time></trkpt>
<trkpt lat="31.0555227" lon="34.7165690"><ele>270.0</ele><time>2014-11-08T11:57:25Z</time></trkpt>
<trkpt lat="31.0551548" lon="34.7169297"><ele>270.0</ele><time>2014-11-08T11:57:34Z</time></trkpt>
<trkpt lat="31.0548068" lon="34.7172803"><ele>270.0</ele><time>2014-11-08T11:57:44Z</time></trkpt>
<trkpt lat="31.0544562" lon="34.7176339"><ele>272.0</ele><time>2014-11-08T11:57:53Z</time></trkpt>
<trkpt lat="31.0540885" lon="34.7179801"><ele>273.0</ele><time>2014-11-08T11:58:01Z</time></trkpt>
<trkpt lat="31.0537347" lon="34.7183273"><ele>273.3</ele><time>2014-11-08T11:58:10Z</time></trkpt>
<trkpt lat="31.0533654" lon="34.7186691"><ele>275.0</ele><time>2014-11-08T11:58:19Z</time></trkpt>
<trkpt lat="31.0530001" lon="34.7190457"><ele>275.9</ele><time>2014-11-08T11:58:29Z</time></trkpt>
<trkpt lat="31.0526675" lon="34.7194055"><ele>274.9</ele><time>2014-11-08T11:58:38Z</time></trkpt>
<trkpt lat="31.0523656" lon="34.7198556"><ele>273.5</ele><time>2014-11-08T11:58:49Z</time></trkpt>
<trkpt lat="31.0521220" lon="34.7203433"><ele>272.8</ele><time>2014-11-08T11:58:59Z</time></trkpt>
<trkpt lat="31.0518984" lon="34.7208359"><ele>274.0</ele><time>2014-11-08T11:59:10Z</time></trkpt>
<trkpt lat="31.0517287" lon="34.7213407"><ele>275.4</ele><time>2014-11-08T11:59:19Z</time></trkpt>
<trkpt lat="31.0517206" lon="34.7214499"><ele>275.0</ele><time>2014-11-08T11:59:20Z</time></trkpt>
<trkpt lat="31.0515823" lon="34.7219678"><ele>275.6</ele><time>2014-11-08T11:59:29Z</time></trkpt>
<trkpt lat="31.0515371" lon="34.7222278"><ele>275.6</ele><time>2014-11-08T11:59:34Z</time></trkpt>
<trkpt lat="31.0515034" lon="34.7227504"><ele>275.8</ele><time>2014-11-08T11:59:43Z</time></trkpt>
<trkpt lat="31.0514466" lon="34.7232442"><ele>274.4</ele><time>2014-11-08T11:59:51Z</time></trkpt>
<trkpt lat="31.0514381" lon="34.7236880"><ele>274.7</ele><time>2014-11-08T11:59:57Z</time></trkpt>
<trkpt lat="31.0513811" lon="34.7242569"><ele>277.0</ele><time>2014-11-08T12:00:06Z</time></trkpt>
<trkpt lat="31.0513396" lon="34.7247934"><ele>278.5</ele><time>2014-11-08T12:00:16Z</time></trkpt>
<trkpt lat="31.0512992" lon="34.7253690"><ele>281.0</ele><time>2014-11-08T12:00:25Z</time></trkpt>
<trkpt lat="31.0512120" lon="34.7259518"><ele>279.8</ele><time>2014-11-08T12:00:34Z</time></trkpt>
<trkpt lat="31.0510661" lon="34.7264735"><ele>275.0</ele><time>2014-11-08T12:00:42Z</time></trkpt>
<trkpt lat="31.0509695" lon="34.7266940"><ele>273.4</ele><time>2014-11-08T12:00:47Z</time></trkpt>
<trkpt lat="31.0507756" lon="34.7272012"><ele>271.0</ele><time>2014-11-08T12:00:56Z</time></trkpt>
<trkpt lat="31.0507157" lon="34.7273279"><ele>271.0</ele><time>2014-11-08T12:00:58Z</time></trkpt>
<trkpt lat="31.0506404" lon="34.7274132"><ele>271.3</ele><time>2014-11-08T12:01:01Z</time></trkpt>
<trkpt lat="31.0506214" lon="34.7274913"><ele>271.5</ele><time>2014-11-08T12:01:01Z</time></trkpt>
<trkpt lat="31.0506419" lon="34.7275435"><ele>271.7</ele><time>2014-11-08T12:01:03Z</time></trkpt>
<trkpt lat="31.0503625" lon="34.7279842"><ele>272.6</ele><time>2014-11-08T12:01:13Z</time></trkpt>
<trkpt lat="31.0502852" lon="34.7280674"><ele>272.2</ele><time>2014-11-08T12:01:15Z</time></trkpt>
<trkpt lat="31.0501609" lon="34.7281615"><ele>272.3</ele><time>2014-11-08T12:01:17Z</time></trkpt>
<trkpt lat="31.0500712" lon="34.7282652"><ele>272.8</ele><time>2014-11-08T12:01:19Z</time></trkpt>
<trkpt lat="31.0500199" lon="34.7282928"><ele>273.1</ele><time>2014-11-08T12:01:20Z</time></trkpt>
<trkpt lat="31.0499934" lon="34.7283961"><ele>273.6</ele><time>2014-11-08T12:01:22Z</time></trkpt>
<trkpt lat="31.0497407" lon="34.7286496"><ele>275.3</ele><time>2014-11-08T12:01:28Z</time></trkpt>
<trkpt lat="31.0494183" lon="34.7289333"><ele>279.0</ele><time>2014-11-08T12:01:38Z</time></trkpt>
<trkpt lat="31.0494005" lon="34.7290188"><ele>280.5</ele><time>2014-11-08T12:01:39Z</time></trkpt>
<trkpt lat="31.0491390" lon="34.7293049"><ele>285.5</ele><time>2014-11-08T12:01:46Z</time></trkpt>
<trkpt lat="31.0488232" lon="34.7296683"><ele>289.6</ele><time>2014-11-08T12:01:57Z</time></trkpt>
<trkpt lat="31.0484908" lon="34.7299391"><ele>289.4</ele><time>2014-11-08T12:02:05Z</time></trkpt>
<trkpt lat="31.0481456" lon="34.7302793"><ele>284.6</ele><time>2014-11-08T12:02:15Z</time></trkpt>
<trkpt lat="31.0477961" lon="34.7306752"><ele>287.7</ele><time>2014-11-08T12:02:26Z</time></trkpt>
<trkpt lat="31.0474432" lon="34.7310271"><ele>285.2</ele><time>2014-11-08T12:02:35Z</time></trkpt>
<trkpt lat="31.0470936" lon="34.7313659"><ele>286.0</ele><time>2014-11-08T12:02:46Z</time></trkpt>
<trkpt lat="31.0467250" lon="34.7317070"><ele>283.8</ele><time>2014-11-08T12:02:56Z</time></trkpt>
<trkpt lat="31.0463141" lon="34.7320185"><ele>288.6</ele><time>2014-11-08T12:03:07Z</time></trkpt>
<trkpt lat="31.0458994" lon="34.7323092"><ele>292.2</ele><time>2014-11-08T12:03:17Z</time></trkpt>
<trkpt lat="31.0454662" lon="34.7325645"><ele>293.0</ele><time>2014-11-08T12:03:28Z</time></trkpt>
<trkpt lat="31.0450591" lon="34.7327947"><ele>290.1</ele><time>2014-11-08T12:03:39Z</time></trkpt>
<trkpt lat="31.0446395" lon="34.7330380"><ele>292.0</ele><time>2014-11-08T12:03:51Z</time></trkpt>
<trkpt lat="31.0442129" lon="34.7332857"><ele>295.9</ele><time>2014-11-08T12:04:02Z</time></trkpt>
<trkpt lat="31.0437910" lon="34.7335179"><ele>297.0</ele><time>2014-11-08T12:04:13Z</time></trkpt>
<trkpt lat="31.0433940" lon="34.7338185"><ele>297.5</ele><time>2014-11-08T12:04:24Z</time></trkpt>
<trkpt lat="31.0430447" lon="34.7341750"><ele>298.6</ele><time>2014-11-08T12:04:34Z</time></trkpt>
<trkpt lat="31.0427744" lon="34.7345280"><ele>301.0</ele><time>2014-11-08T12:04:42Z</time></trkpt>
<trkpt lat="31.0426042" lon="34.7348833"><ele>299.7</ele><time>2014-11-08T12:04:50Z</time></trkpt>
<trkpt lat="31.0424863" lon="34.7350287"><ele>299.2</ele><time>2014-11-08T12:04:52Z</time></trkpt>
<trkpt lat="31.0422823" lon="34.7355779"><ele>303.0</ele><time>2014-11-08T12:05:01Z</time></trkpt>
<trkpt lat="31.0420546" lon="34.7360821"><ele>299.8</ele><time>2014-11-08T12:05:10Z</time></trkpt>
<trkpt lat="31.0419230" lon="34.7364234"><ele>298.3</ele><time>2014-11-08T12:05:15Z</time></trkpt>
<trkpt lat="31.0418716" lon="34.7364648"><ele>298.1</ele><time>2014-11-08T12:05:16Z</time></trkpt>
<trkpt lat="31.0418390" lon="34.7365321"><ele>297.9</ele><time>2014-11-08T12:05:17Z</time></trkpt>
<trkpt lat="31.0418358" lon="34.7366132"><ele>297.7</ele><time>2014-11-08T12:05:18Z</time></trkpt>
<trkpt lat="31.0416663" lon="34.7370722"><ele>296.4</ele><time>2014-11-08T12:05:25Z</time></trkpt>
<trkpt lat="31.0414067" lon="34.7375771"><ele>296.0</ele><time>2014-11-08T12:05:33Z</time></trkpt>
<trkpt lat="31.0412783" lon="34.7378828"><ele>298.0</ele><time>2014-11-08T12:05:38Z</time></trkpt>
<trkpt lat="31.0410355" lon="34.7383668"><ele>295.2</ele><time>2014-11-08T12:05:45Z</time></trkpt>
<trkpt lat="31.0408200" lon="34.7388506"><ele>295.9</ele><time>2014-11-08T12:05:54Z</time></trkpt>
<trkpt lat="31.0405931" lon="34.7393216"><ele>296.8</ele><time>2014-11-08T12:06:04Z</time></trkpt>
<trkpt lat="31.0403963" lon="34.7398207"><ele>300.3</ele><time>2014-11-08T12:06:16Z</time></trkpt>
<trkpt lat="31.0401687" lon="34.7403090"><ele>302.8</ele><time>2014-11-08T12:06:27Z</time></trkpt>
<trkpt lat="31.0399587" lon="34.7408280"><ele>306.0</ele><time>2014-11-08T12:06:40Z</time></trkpt>
<trkpt lat="31.0397402" lon="34.7412957"><ele>307.0</ele><time>2014-11-08T12:06:50Z</time></trkpt>
<trkpt lat="31.0395601" lon="34.7417948"><ele>310.0</ele><time>2014-11-08T12:07:01Z</time></trkpt>
<trkpt lat="31.0393318" lon="34.7422974"><ele>313.0</ele><time>2014-11-08T12:07:13Z</time></trkpt>
<trkpt lat="31.0391148" lon="34.7427750"><ele>310.0</ele><time>2014-11-08T12:07:23Z</time></trkpt>
<trkpt lat="31.0390279" lon="34.7429460"><ele>310.5</ele><time>2014-11-08T12:07:27Z</time></trkpt>
<trkpt lat="31.0389820" lon="34.7429778"><ele>310.7</ele><time>2014-11-08T12:07:27Z</time></trkpt>
<trkpt lat="31.0389813" lon="34.7430907"><ele>311.0</ele><time>2014-11-08T12:07:29Z</time></trkpt>
<trkpt lat="31.0388038" lon="34.7433895"><ele>306.2</ele><time>2014-11-08T12:07:36Z</time></trkpt>
<trkpt lat="31.0386141" lon="34.7438843"><ele>308.2</ele><time>2014-11-08T12:07:47Z</time></trkpt>
<trkpt lat="31.0384056" lon="34.7443764"><ele>308.5</ele><time>2014-11-08T12:07:57Z</time></trkpt>
<trkpt lat="31.0381937" lon="34.7448723"><ele>307.6</ele><time>2014-11-08T12:08:07Z</time></trkpt>
<trkpt lat="31.0379638" lon="34.7453465"><ele>306.7</ele><time>2014-11-08T12:08:17Z</time></trkpt>
<trkpt lat="31.0377417" lon="34.7458470"><ele>306.0</ele><time>2014-11-08T12:08:28Z</time></trkpt>
<trkpt lat="31.0376202" lon="34.7461422"><ele>306.6</ele><time>2014-11-08T12:08:34Z</time></trkpt>
<trkpt lat="31.0374013" lon="34.7466411"><ele>306.5</ele><time>2014-11-08T12:08:43Z</time></trkpt>
<trkpt lat="31.0371403" lon="34.7471405"><ele>305.7</ele><time>2014-11-08T12:08:54Z</time></trkpt>
<trkpt lat="31.0368847" lon="34.7476114"><ele>305.1</ele><time>2014-11-08T12:09:03Z</time></trkpt>
<trkpt lat="31.0366244" lon="34.7480549"><ele>304.4</ele><time>2014-11-08T12:09:12Z</time></trkpt>
<trkpt lat="31.0362705" lon="34.7484485"><ele>303.0</ele><time>2014-11-08T12:09:21Z</time></trkpt>
<trkpt lat="31.0358663" lon="34.7487827"><ele>306.0</ele><time>2014-11-08T12:09:31Z</time></trkpt>
<trkpt lat="31.0354404" lon="34.7490302"><ele>305.1</ele><time>2014-11-08T12:09:41Z</time></trkpt>
<trkpt lat="31.0350018" lon="34.7492113"><ele>311.2</ele><time>2014-11-08T12:09:51Z</time></trkpt>
<trkpt lat="31.0345337" lon="34.7493424"><ele>308.5</ele><time>2014-11-08T12:10:01Z</time></trkpt>
<trkpt lat="31.0340591" lon="34.7494493"><ele>311.7</ele><time>2014-11-08T12:10:11Z</time></trkpt>
<trkpt lat="31.0335765" lon="34.7494984"><ele>311.5</ele><time>2014-11-08T12:10:22Z</time></trkpt>
<trkpt lat="31.0333804" lon="34.7495182"><ele>311.8</ele><time>2014-11-08T12:10:26Z</time></trkpt>
<trkpt lat="31.0333383" lon="34.7495617"><ele>311.9</ele><time>2014-11-08T12:10:26Z</time></trkpt>
<trkpt lat="31.0328856" lon="34.7496214"><ele>314.0</ele><time>2014-11-08T12:10:39Z</time></trkpt>
<trkpt lat="31.0323857" lon="34.7496564"><ele>311.8</ele><time>2014-11-08T12:10:50Z</time></trkpt>
<trkpt lat="31.0319019" lon="34.7497152"><ele>311.0</ele><time>2014-11-08T12:11:01Z</time></trkpt>
<trkpt lat="31.0314204" lon="34.7497792"><ele>316.3</ele><time>2014-11-08T12:11:13Z</time></trkpt>
<trkpt lat="31.0309318" lon="34.7498615"><ele>314.5</ele><time>2014-11-08T12:11:24Z</time></trkpt>
<trkpt lat="31.0304519" lon="34.7499286"><ele>315.7</ele><time>2014-11-08T12:11:36Z</time></trkpt>
<trkpt lat="31.0299645" lon="34.7500036"><ele>320.1</ele><time>2014-11-08T12:11:47Z</time></trkpt>
<trkpt lat="31.0294829" lon="34.7500607"><ele>324.4</ele><time>2014-11-08T12:11:58Z</time></trkpt>
<trkpt lat="31.0290290" lon="34.7501440"><ele>324.0</ele><time>2014-11-08T12:12:07Z</time></trkpt>
<trkpt lat="31.0285721" lon="34.7502169"><ele>324.6</ele><time>2014-11-08T12:12:18Z</time></trkpt>
<trkpt lat="31.0281220" lon="34.7502769"><ele>327.4</ele><time>2014-11-08T12:12:28Z</time></trkpt>
<trkpt lat="31.0276604" lon="34.7503360"><ele>325.9</ele><time>2014-11-08T12:12:37Z</time></trkpt>
<trkpt lat="31.0274669" lon="34.7503532"><ele>322.1</ele><time>2014-11-08T12:12:40Z</time></trkpt>
<trkpt lat="31.0270127" lon="34.7504801"><ele>321.8</ele><time>2014-11-08T12:12:49Z</time></trkpt>
<trkpt lat="31.0265802" lon="34.7506472"><ele>321.0</ele><time>2014-11-08T12:12:58Z</time></trkpt>
<trkpt lat="31.0261601" lon="34.7509090"><ele>317.6</ele><time>2014-11-08T12:13:06Z</time></trkpt>
<trkpt lat="31.0257631" lon="34.7511587"><ele>310.2</ele><time>2014-11-08T12:13:14Z</time></trkpt>
<trkpt lat="31.0253482" lon="34.7514590"><ele>310.4</ele><time>2014-11-08T12:13:22Z</time></trkpt>
<trkpt lat="31.0249637" lon="34.7517336"><ele>311.0</ele><time>2014-11-08T12:13:31Z</time></trkpt>
<trkpt lat="31.0245692" lon="34.7520266"><ele>310.8</ele><time>2014-11-08T12:13:40Z</time></trkpt>
<trkpt lat="31.0241968" lon="34.7523467"><ele>310.4</ele><time>2014-11-08T12:13:50Z</time></trkpt>
<trkpt lat="31.0238082" lon="34.7526925"><ele>308.8</ele><time>2014-11-08T12:14:01Z</time></trkpt>
<trkpt lat="31.0234102" lon="34.7530276"><ele>308.2</ele><time>2014-11-08T12:14:14Z</time></trkpt>
<trkpt lat="31.0230108" lon="34.7533768"><ele>307.0</ele><time>2014-11-08T12:14:25Z</time></trkpt>
<trkpt lat="31.0226355" lon="34.7536792"><ele>307.6</ele><time>2014-11-08T12:14:34Z</time></trkpt>
<trkpt lat="31.0222866" lon="34.7540152"><ele>306.1</ele><time>2014-11-08T12:14:45Z</time></trkpt>
<trkpt lat="31.0219048" lon="34.7543161"><ele>304.4</ele><time>2014-11-08T12:14:56Z</time></trkpt>
<trkpt lat="31.0215027" lon="34.7546373"><ele>304.0</ele><time>2014-11-08T12:15:08Z</time></trkpt>
<trkpt lat="31.0211006" lon="34.7549118"><ele>306.9</ele><time>2014-11-08T12:15:17Z</time></trkpt>
<trkpt lat="31.0206910" lon="34.7552097"><ele>311.0</ele><time>2014-11-08T12:15:28Z</time></trkpt>
<trkpt lat="31.0202713" lon="34.7554337"><ele>314.4</ele><time>2014-11-08T12:15:37Z</time></trkpt>
<trkpt lat="31.0198128" lon="34.7556634"><ele>318.0</ele><time>2014-11-08T12:15:47Z</time></trkpt>
<trkpt lat="31.0193925" lon="34.7559020"><ele>317.8</ele><time>2014-11-08T12:15:57Z</time></trkpt>
<trkpt lat="31.0189301" lon="34.7561230"><ele>314.9</ele><time>2014-11-08T12:16:06Z</time></trkpt>
<trkpt lat="31.0184893" lon="34.7563596"><ele>318.8</ele><time>2014-11-08T12:16:14Z</time></trkpt>
<trkpt lat="31.0180720" lon="34.7566495"><ele>312.9</ele><time>2014-11-08T12:16:24Z</time></trkpt>
<trkpt lat="31.0176946" lon="34.7569928"><ele>312.1</ele><time>2014-11-08T12:16:32Z</time></trkpt>
<trkpt lat="31.0173771" lon="34.7574365"><ele>314.2</ele><time>2014-11-08T12:16:42Z</time></trkpt>
<trkpt lat="31.0172134" lon="34.7576426"><ele>316.3</ele><time>2014-11-08T12:16:47Z</time></trkpt>
<trkpt lat="31.0170140" lon="34.7580266"><ele>318.9</ele><time>2014-11-08T12:16:55Z</time></trkpt>
<trkpt lat="31.0170115" lon="34.7580752"><ele>319.2</ele><time>2014-11-08T12:16:56Z</time></trkpt>
<trkpt lat="31.0169758" lon="34.7581304"><ele>319.5</ele><time>2014-11-08T12:16:57Z</time></trkpt>
<trkpt lat="31.0168990" lon="34.7583604"><ele>320.5</ele><time>2014-11-08T12:17:00Z</time></trkpt>
<trkpt lat="31.0168783" lon="34.7585372"><ele>321.0</ele><time>2014-11-08T12:17:03Z</time></trkpt>
<trkpt lat="31.0167953" lon="34.7586822"><ele>321.0</ele><time>2014-11-08T12:17:07Z</time></trkpt>
<trkpt lat="31.0166569" lon="34.7591951"><ele>322.8</ele><time>2014-11-08T12:17:16Z</time></trkpt>
<trkpt lat="31.0164781" lon="34.7597364"><ele>329.0</ele><time>2014-11-08T12:17:25Z</time></trkpt>
<trkpt lat="31.0162784" lon="34.7602596"><ele>329.8</ele><time>2014-11-08T12:17:35Z</time></trkpt>
<trkpt lat="31.0161959" lon="34.7604296"><ele>329.4</ele><time>2014-11-08T12:17:38Z</time></trkpt>
<trkpt lat="31.0161345" lon="34.7606830"><ele>328.4</ele><time>2014-11-08T12:17:42Z</time></trkpt>
<trkpt lat="31.0159505" lon="34.7611710"><ele>325.0</ele><time>2014-11-08T12:17:50Z</time></trkpt>
<trkpt lat="31.0157845" lon="34.7616769"><ele>323.5</ele><time>2014-11-08T12:17:59Z</time></trkpt>
<trkpt lat="31.0157307" lon="34.7618552"><ele>323.2</ele><time>2014-11-08T12:18:02Z</time></trkpt>
<trkpt lat="31.0156864" lon="34.7619055"><ele>323.1</ele><time>2014-11-08T12:18:03Z</time></trkpt>
<trkpt lat="31.0155381" lon="34.7624093"><ele>323.0</ele><time>2014-11-08T12:18:12Z</time></trkpt>
<trkpt lat="31.0154307" lon="34.7626925"><ele>324.0</ele><time>2014-11-08T12:18:17Z</time></trkpt>
<trkpt lat="31.0154463" lon="34.7627370"><ele>324.0</ele><time>2014-11-08T12:18:17Z</time></trkpt>
<trkpt lat="31.0153800" lon="34.7628320"><ele>324.0</ele><time>2014-11-08T12:18:20Z</time></trkpt>
<trkpt lat="31.0152134" lon="34.7633161"><ele>325.1</ele><time>2014-11-08T12:18:28Z</time></trkpt>
<trkpt lat="31.0151166" lon="34.7636340"><ele>326.8</ele><time>2014-11-08T12:18:34Z</time></trkpt>
<trkpt lat="31.0150370" lon="34.7637758"><ele>326.6</ele><time>2014-11-08T12:18:35Z</time></trkpt>
<trkpt lat="31.0150351" lon="34.7638879"><ele>326.5</ele><time>2014-11-08T12:18:37Z</time></trkpt>
<trkpt lat="31.0149799" lon="34.7640720"><ele>326.3</ele><time>2014-11-08T12:18:40Z</time></trkpt>
<trkpt lat="31.0149207" lon="34.7640604"><ele>326.2</ele><time>2014-11-08T12:18:40Z</time></trkpt>
<trkpt lat="31.0149264" lon="34.7642411"><ele>327.2</ele><time>2014-11-08T12:18:44Z</time></trkpt>
<trkpt lat="31.0148907" lon="34.7645223"><ele>332.0</ele><time>2014-11-08T12:18:48Z</time></trkpt>
<trkpt lat="31.0146734" lon="34.7650527"><ele>332.0</ele><time>2014-11-08T12:18:58Z</time></trkpt>
<trkpt lat="31.0144733" lon="34.7655443"><ele>334.0</ele><time>2014-11-08T12:19:07Z</time></trkpt>
<trkpt lat="31.0143038" lon="34.7660349"><ele>334.3</ele><time>2014-11-08T12:19:16Z</time></trkpt>
<trkpt lat="31.0141142" lon="34.7665350"><ele>334.8</ele><time>2014-11-08T12:19:24Z</time></trkpt>
<trkpt lat="31.0139886" lon="34.7670431"><ele>338.5</ele><time>2014-11-08T12:19:34Z</time></trkpt>
<trkpt lat="31.0139186" lon="34.7673192"><ele>339.9</ele><time>2014-11-08T12:19:39Z</time></trkpt>
<trkpt lat="31.0139211" lon="34.7673833"><ele>340.2</ele><time>2014-11-08T12:19:39Z</time></trkpt>
<trkpt lat="31.0137578" lon="34.7679151"><ele>338.9</ele><time>2014-11-08T12:19:50Z</time></trkpt>
<trkpt lat="31.0136011" lon="34.7684583"><ele>338.3</ele><time>2014-11-08T12:20:00Z</time></trkpt>
<trkpt lat="31.0134538" lon="34.7689877"><ele>338.4</ele><time>2014-11-08T12:20:09Z</time></trkpt>
<trkpt lat="31.0133812" lon="34.7692456"><ele>338.7</ele><time>2014-11-08T12:20:12Z</time></trkpt>
<trkpt lat="31.0133684" lon="34.7694975"><ele>338.9</ele><time>2014-11-08T12:20:16Z</time></trkpt>
<trkpt lat="31.0132917" lon="34.7697767"><ele>338.6</ele><time>2014-11-08T12:20:22Z</time></trkpt>
<trkpt lat="31.0132291" lon="34.7699055"><ele>338.4</ele><time>2014-11-08T12:20:25Z</time></trkpt>
<trkpt lat="31.0131777" lon="34.7701344"><ele>338.1</ele><time>2014-11-08T12:20:29Z</time></trkpt>
<trkpt lat="31.0131961" lon="34.7701597"><ele>338.0</ele><time>2014-11-08T12:20:30Z</time></trkpt>
<trkpt lat="31.0130692" lon="34.7705675"><ele>337.5</ele><time>2014-11-08T12:20:37Z</time></trkpt>
<trkpt lat="31.0130246" lon="34.7706602"><ele>337.3</ele><time>2014-11-08T12:20:39Z</time></trkpt>
<trkpt lat="31.0129072" lon="34.7711676"><ele>340.0</ele><time>2014-11-08T12:20:49Z</time></trkpt>
<trkpt lat="31.0127723" lon="34.7717133"><ele>343.7</ele><time>2014-11-08T12:20:59Z</time></trkpt>
<trkpt lat="31.0126093" lon="34.7722557"><ele>341.8</ele><time>2014-11-08T12:21:09Z</time></trkpt>
<trkpt lat="31.0124770" lon="34.7727640"><ele>344.0</ele><time>2014-11-08T12:21:20Z</time></trkpt>
<trkpt lat="31.0123382" lon="34.7732999"><ele>343.4</ele><time>2014-11-08T12:21:30Z</time></trkpt>
<trkpt lat="31.0122096" lon="34.7738376"><ele>342.3</ele><time>2014-11-08T12:21:39Z</time></trkpt>
<trkpt lat="31.0120810" lon="34.7743666"><ele>340.0</ele><time>2014-11-08T12:21:50Z</time></trkpt>
<trkpt lat="31.0119497" lon="34.7749150"><ele>340.3</ele><time>2014-11-08T12:22:01Z</time></trkpt>
<trkpt lat="31.0118060" lon="34.7754247"><ele>343.0</ele><time>2014-11-08T12:22:11Z</time></trkpt>
<trkpt lat="31.0116853" lon="34.7759516"><ele>344.0</ele><time>2014-11-08T12:22:22Z</time></trkpt>
<trkpt lat="31.0115524" lon="34.7764860"><ele>344.8</ele><time>2014-11-08T12:22:33Z</time></trkpt>
<trkpt lat="31.0114300" lon="34.7770248"><ele>346.1</ele><time>2014-11-08T12:22:43Z</time></trkpt>
<trkpt lat="31.0113030" lon="34.7775883"><ele>346.2</ele><time>2014-11-08T12:22:55Z</time></trkpt>
<trkpt lat="31.0111976" lon="34.7781311"><ele>344.0</ele><time>2014-11-08T12:23:05Z</time></trkpt>
<trkpt lat="31.0110799" lon="34.7786733"><ele>345.2</ele><time>2014-11-08T12:23:13Z</time></trkpt>
<trkpt lat="31.0109241" lon="34.7792068"><ele>345.5</ele><time>2014-11-08T12:23:23Z</time></trkpt>
<trkpt lat="31.0107583" lon="34.7795819"><ele>345.4</ele><time>2014-11-08T12:23:30Z</time></trkpt>
<trkpt lat="31.0105872" lon="34.7798621"><ele>347.8</ele><time>2014-11-08T12:23:37Z</time></trkpt>
<trkpt lat="31.0102767" lon="34.7803005"><ele>345.0</ele><time>2014-11-08T12:23:46Z</time></trkpt>
<trkpt lat="31.0101347" lon="34.7803543"><ele>344.5</ele><time>2014-11-08T12:23:49Z</time></trkpt>
<trkpt lat="31.0100248" lon="34.7803040"><ele>344.2</ele><time>2014-11-08T12:23:50Z</time></trkpt>
<trkpt lat="31.0099025" lon="34.7802089"><ele>344.2</ele><time>2014-11-08T12:23:53Z</time></trkpt>
<trkpt lat="31.0099265" lon="34.7801346"><ele>344.4</ele><time>2014-11-08T12:23:54Z</time></trkpt>
<trkpt lat="31.0096044" lon="34.7798451"><ele>345.8</ele><time>2014-11-08T12:24:01Z</time></trkpt>
<trkpt lat="31.0092795" lon="34.7794549"><ele>345.9</ele><time>2014-11-08T12:24:10Z</time></trkpt>
<trkpt lat="31.0089385" lon="34.7790813"><ele>345.7</ele><time>2014-11-08T12:24:17Z</time></trkpt>
<trkpt lat="31.0088369" lon="34.7789574"><ele>345.6</ele><time>2014-11-08T12:24:21Z</time></trkpt>
<trkpt lat="31.0087718" lon="34.7789157"><ele>345.6</ele><time>2014-11-08T12:24:22Z</time></trkpt>
<trkpt lat="31.0087057" lon="34.7788195"><ele>345.5</ele><time>2014-11-08T12:24:24Z</time></trkpt>
<trkpt lat="31.0083712" lon="34.7785014"><ele>345.3</ele><time>2014-11-08T12:24:30Z</time></trkpt>
<trkpt lat="31.0080043" lon="34.7781144"><ele>345.0</ele><time>2014-11-08T12:24:40Z</time></trkpt>
<trkpt lat="31.0076586" lon="34.7777529"><ele>345.0</ele><time>2014-11-08T12:24:47Z</time></trkpt>
<trkpt lat="31.0076141" lon="34.7777131"><ele>345.0</ele><time>2014-11-08T12:24:48Z</time></trkpt>
<trkpt lat="31.0075419" lon="34.7777078"><ele>345.0</ele><time>2014-11-08T12:24:49Z</time></trkpt>
<trkpt lat="31.0074476" lon="34.7776033"><ele>345.0</ele><time>2014-11-08T12:24:50Z</time></trkpt>
<trkpt lat="31.0071753" lon="34.7772430"><ele>345.8</ele><time>2014-11-08T12:24:57Z</time></trkpt>
<trkpt lat="31.0071035" lon="34.7771985"><ele>346.0</ele><time>2014-11-08T12:24:58Z</time></trkpt>
<trkpt lat="31.0067621" lon="34.7767785"><ele>348.4</ele><time>2014-11-08T12:25:08Z</time></trkpt>
<trkpt lat="31.0064076" lon="34.7763480"><ele>348.0</ele><time>2014-11-08T12:25:16Z</time></trkpt>
<trkpt lat="31.0062210" lon="34.7761798"><ele>347.2</ele><time>2014-11-08T12:25:20Z</time></trkpt>
<trkpt lat="31.0060374" lon="34.7759549"><ele>347.0</ele><time>2014-11-08T12:25:25Z</time></trkpt>
<trkpt lat="31.0059633" lon="34.7759319"><ele>347.0</ele><time>2014-11-08T12:25:26Z</time></trkpt>
<trkpt lat="31.0059176" lon="34.7758879"><ele>347.0</ele><time>2014-11-08T12:25:27Z</time></trkpt>
<trkpt lat="31.0058557" lon="34.7758758"><ele>346.8</ele><time>2014-11-08T12:25:28Z</time></trkpt>
<trkpt lat="31.0057182" lon="34.7757065"><ele>346.4</ele><time>2014-11-08T12:25:30Z</time></trkpt>
<trkpt lat="31.0056554" lon="34.7756903"><ele>346.2</ele><time>2014-11-08T12:25:31Z</time></trkpt>
<trkpt lat="31.0054431" lon="34.7754210"><ele>345.2</ele><time>2014-11-08T12:25:37Z</time></trkpt>
<trkpt lat="31.0053554" lon="34.7753591"><ele>345.0</ele><time>2014-11-08T12:25:39Z</time></trkpt>
<trkpt lat="31.0052107" lon="34.7751602"><ele>345.0</ele><time>2014-11-08T12:25:42Z</time></trkpt>
<trkpt lat="31.0051425" lon="34.7751089"><ele>345.0</ele><time>2014-11-08T12:25:43Z</time></trkpt>
<trkpt lat="31.0050831" lon="34.7749960"><ele>345.0</ele><time>2014-11-08T12:25:45Z</time></trkpt>
<trkpt lat="31.0049310" lon="34.7747929"><ele>345.2</ele><time>2014-11-08T12:25:49Z</time></trkpt>
<trkpt lat="31.0048498" lon="34.7747639"><ele>345.2</ele><time>2014-11-08T12:25:50Z</time></trkpt>
<trkpt lat="31.0046666" lon="34.7745276"><ele>345.4</ele><time>2014-11-08T12:25:56Z</time></trkpt>
<trkpt lat="31.0044591" lon="34.7743190"><ele>345.6</ele><time>2014-11-08T12:26:01Z</time></trkpt>
<trkpt lat="31.0041455" lon="34.7738725"><ele>345.9</ele><time>2014-11-08T12:26:09Z</time></trkpt>
<trkpt lat="31.0039490" lon="34.7736440"><ele>346.3</ele><time>2014-11-08T12:26:13Z</time></trkpt>
<trkpt lat="31.0038063" lon="34.7735352"><ele>346.7</ele><time>2014-11-08T12:26:15Z</time></trkpt>
<trkpt lat="31.0038261" lon="34.7734815"><ele>346.8</ele><time>2014-11-08T12:26:16Z</time></trkpt>
<trkpt lat="31.0037154" lon="34.7732613"><ele>346.5</ele><time>2014-11-08T12:26:20Z</time></trkpt>
<trkpt lat="31.0034908" lon="34.7729243"><ele>346.5</ele><time>2014-11-08T12:26:26Z</time></trkpt>
<trkpt lat="31.0034124" lon="34.7728598"><ele>346.9</ele><time>2014-11-08T12:26:28Z</time></trkpt>
<trkpt lat="31.0033784" lon="34.7727580"><ele>347.3</ele><time>2014-11-08T12:26:30Z</time></trkpt>
<trkpt lat="31.0033842" lon="34.7726981"><ele>347.4</ele><time>2014-11-08T12:26:30Z</time></trkpt>
<trkpt lat="31.0037157" lon="34.7722879"><ele>348.8</ele><time>2014-11-08T12:26:38Z</time></trkpt>
<trkpt lat="31.0037573" lon="34.7722823"><ele>348.2</ele><time>2014-11-08T12:26:43Z</time></trkpt>
</trkseg>
<trkseg>
<trkpt lat="31.0037573" lon="34.7722823"><ele>348.2</ele><time>2014-11-08T12:54:41Z</time></trkpt>
<trkpt lat="31.0036654" lon="34.7724187"><ele>347.4</ele><time>2014-11-08T12:54:44Z</time></trkpt>
<trkpt lat="31.0033043" lon="34.7726946"><ele>346.7</ele><time>2014-11-08T12:55:02Z</time></trkpt>
<trkpt lat="31.0032046" lon="34.7726451"><ele>346.3</ele><time>2014-11-08T12:55:06Z</time></trkpt>
<trkpt lat="31.0029095" lon="34.7722370"><ele>348.2</ele><time>2014-11-08T12:55:16Z</time></trkpt>
<trkpt lat="31.0025814" lon="34.7718681"><ele>349.2</ele><time>2014-11-08T12:55:25Z</time></trkpt>
<trkpt lat="31.0022421" lon="34.7714837"><ele>350.3</ele><time>2014-11-08T12:55:37Z</time></trkpt>
<trkpt lat="31.0021385" lon="34.7713694"><ele>350.7</ele><time>2014-11-08T12:55:40Z</time></trkpt>
<trkpt lat="31.0021539" lon="34.7713403"><ele>350.8</ele><time>2014-11-08T12:55:41Z</time></trkpt>
<trkpt lat="31.0018262" lon="34.7709336"><ele>351.9</ele><time>2014-11-08T12:55:52Z</time></trkpt>
<trkpt lat="31.0014923" lon="34.7705545"><ele>353.0</ele><time>2014-11-08T12:56:03Z</time></trkpt>
<trkpt lat="31.0011829" lon="34.7701682"><ele>350.0</ele><time>2014-11-08T12:56:13Z</time></trkpt>
<trkpt lat="31.0008953" lon="34.7697267"><ele>346.8</ele><time>2014-11-08T12:56:25Z</time></trkpt>
<trkpt lat="31.0005753" lon="34.7693380"><ele>345.2</ele><time>2014-11-08T12:56:36Z</time></trkpt>
<trkpt lat="31.0002138" lon="34.7689668"><ele>346.3</ele><time>2014-11-08T12:56:47Z</time></trkpt>
<trkpt lat="30.9999085" lon="34.7685755"><ele>346.7</ele><time>2014-11-08T12:56:56Z</time></trkpt>
<trkpt lat="30.9997903" lon="34.7684093"><ele>347.0</ele><time>2014-11-08T12:57:02Z</time></trkpt>
<trkpt lat="30.9995052" lon="34.7681856"><ele>347.4</ele><time>2014-11-08T12:57:10Z</time></trkpt>
<trkpt lat="30.9991098" lon="34.7678759"><ele>346.9</ele><time>2014-11-08T12:57:22Z</time></trkpt>
<trkpt lat="30.9987575" lon="34.7675483"><ele>345.1</ele><time>2014-11-08T12:57:32Z</time></trkpt>
<trkpt lat="30.9983481" lon="34.7672787"><ele>341.5</ele><time>2014-11-08T12:57:43Z</time></trkpt>
<trkpt lat="30.9982747" lon="34.7672226"><ele>340.7</ele><time>2014-11-08T12:57:45Z</time></trkpt>
<trkpt lat="30.9980710" lon="34.7671396"><ele>341.0</ele><time>2014-11-08T12:57:50Z</time></trkpt>
<trkpt lat="30.9977828" lon="34.7669587"><ele>342.8</ele><time>2014-11-08T12:57:55Z</time></trkpt>
<trkpt lat="30.9977331" lon="34.7669666"><ele>343.2</ele><time>2014-11-08T12:57:56Z</time></trkpt>
<trkpt lat="30.9977051" lon="34.7669458"><ele>343.6</ele><time>2014-11-08T12:57:57Z</time></trkpt>
<trkpt lat="30.9977130" lon="34.7668761"><ele>344.0</ele><time>2014-11-08T12:57:58Z</time></trkpt>
<trkpt lat="30.9975607" lon="34.7667311"><ele>340.8</ele><time>2014-11-08T12:58:02Z</time></trkpt>
<trkpt lat="30.9973208" lon="34.7666591"><ele>340.0</ele><time>2014-11-08T12:58:07Z</time></trkpt>
<trkpt lat="30.9970105" lon="34.7664400"><ele>341.4</ele><time>2014-11-08T12:58:15Z</time></trkpt>
<trkpt lat="30.9969396" lon="34.7663441"><ele>342.2</ele><time>2014-11-08T12:58:17Z</time></trkpt>
<trkpt lat="30.9964749" lon="34.7661487"><ele>346.0</ele><time>2014-11-08T12:58:25Z</time></trkpt>
<trkpt lat="30.9961744" lon="34.7659870"><ele>346.0</ele><time>2014-11-08T12:58:30Z</time></trkpt>
<trkpt lat="30.9957442" lon="34.7656943"><ele>346.7</ele><time>2014-11-08T12:58:39Z</time></trkpt>
<trkpt lat="30.9953212" lon="34.7654259"><ele>348.9</ele><time>2014-11-08T12:58:49Z</time></trkpt>
<trkpt lat="30.9949311" lon="34.7651932"><ele>350.7</ele><time>2014-11-08T12:58:57Z</time></trkpt>
<trkpt lat="30.9945376" lon="34.7649276"><ele>352.5</ele><time>2014-11-08T12:59:06Z</time></trkpt>
<trkpt lat="30.9942718" lon="34.7647737"><ele>352.2</ele><time>2014-11-08T12:59:11Z</time></trkpt>
<trkpt lat="30.9940416" lon="34.7645884"><ele>350.8</ele><time>2014-11-08T12:59:15Z</time></trkpt>
<trkpt lat="30.9938017" lon="34.7644710"><ele>350.0</ele><time>2014-11-08T12:59:19Z</time></trkpt>
<trkpt lat="30.9934135" lon="34.7642488"><ele>349.8</ele><time>2014-11-08T12:59:26Z</time></trkpt>
<trkpt lat="30.9930040" lon="34.7639899"><ele>349.1</ele><time>2014-11-08T12:59:35Z</time></trkpt>
<trkpt lat="30.9928158" lon="34.7638631"><ele>348.7</ele><time>2014-11-08T12:59:39Z</time></trkpt>
<trkpt lat="30.9923715" lon="34.7636107"><ele>348.0</ele><time>2014-11-08T12:59:47Z</time></trkpt>
<trkpt lat="30.9919734" lon="34.7633632"><ele>350.6</ele><time>2014-11-08T12:59:54Z</time></trkpt>
<trkpt lat="30.9915108" lon="34.7630961"><ele>353.0</ele><time>2014-11-08T13:00:01Z</time></trkpt>
<trkpt lat="30.9911114" lon="34.7628371"><ele>353.1</ele><time>2014-11-08T13:00:11Z</time></trkpt>
<trkpt lat="30.9909403" lon="34.7628613"><ele>353.3</ele><time>2014-11-08T13:00:14Z</time></trkpt>
<trkpt lat="30.9908880" lon="34.7628930"><ele>353.4</ele><time>2014-11-08T13:00:15Z</time></trkpt>
<trkpt lat="30.9908534" lon="34.7630350"><ele>353.5</ele><time>2014-11-08T13:00:17Z</time></trkpt>
<trkpt lat="30.9905877" lon="34.7634916"><ele>354.1</ele><time>2014-11-08T13:00:26Z</time></trkpt>
<trkpt lat="30.9902389" lon="34.7638955"><ele>354.7</ele><time>2014-11-08T13:00:36Z</time></trkpt>
<trkpt lat="30.9899113" lon="34.7642231"><ele>355.6</ele><time>2014-11-08T13:00:45Z</time></trkpt>
<trkpt lat="30.9897952" lon="34.7642610"><ele>356.0</ele><time>2014-11-08T13:00:47Z</time></trkpt>
<trkpt lat="30.9898078" lon="34.7642959"><ele>356.4</ele><time>2014-11-08T13:00:48Z</time></trkpt>
<trkpt lat="30.9894363" lon="34.7646448"><ele>360.0</ele><time>2014-11-08T13:00:59Z</time></trkpt>
<trkpt lat="30.9892382" lon="34.7647688"><ele>362.7</ele><time>2014-11-08T13:01:04Z</time></trkpt>
<trkpt lat="30.9892178" lon="34.7648048"><ele>363.3</ele><time>2014-11-08T13:01:05Z</time></trkpt>
<trkpt lat="30.9889520" lon="34.7649872"><ele>366.3</ele><time>2014-11-08T13:01:10Z</time></trkpt>
<trkpt lat="30.9885773" lon="34.7653045"><ele>368.7</ele><time>2014-11-08T13:01:20Z</time></trkpt>
<trkpt lat="30.9881869" lon="34.7656130"><ele>366.6</ele><time>2014-11-08T13:01:30Z</time></trkpt>
<trkpt lat="30.9878196" lon="34.7659717"><ele>366.0</ele><time>2014-11-08T13:01:42Z</time></trkpt>
<trkpt lat="30.9874996" lon="34.7664130"><ele>366.0</ele><time>2014-11-08T13:01:53Z</time></trkpt>
<trkpt lat="30.9871685" lon="34.7668419"><ele>366.0</ele><time>2014-11-08T13:02:04Z</time></trkpt>
<trkpt lat="30.9870423" lon="34.7670133"><ele>364.2</ele><time>2014-11-08T13:02:09Z</time></trkpt>
<trkpt lat="30.9869616" lon="34.7672310"><ele>362.0</ele><time>2014-11-08T13:02:13Z</time></trkpt>
<trkpt lat="30.9866397" lon="34.7676032"><ele>360.0</ele><time>2014-11-08T13:02:22Z</time></trkpt>
<trkpt lat="30.9863475" lon="34.7680202"><ele>362.1</ele><time>2014-11-08T13:02:32Z</time></trkpt>
<trkpt lat="30.9860303" lon="34.7684242"><ele>364.1</ele><time>2014-11-08T13:02:41Z</time></trkpt>
<trkpt lat="30.9856813" lon="34.7688265"><ele>364.9</ele><time>2014-11-08T13:02:50Z</time></trkpt>
<trkpt lat="30.9853454" lon="34.7692426"><ele>366.3</ele><time>2014-11-08T13:03:00Z</time></trkpt>
<trkpt lat="30.9849681" lon="34.7696210"><ele>365.7</ele><time>2014-11-08T13:03:11Z</time></trkpt>
<trkpt lat="30.9845920" lon="34.7699859"><ele>367.0</ele><time>2014-11-08T13:03:21Z</time></trkpt>
<trkpt lat="30.9842005" lon="34.7703354"><ele>367.9</ele><time>2014-11-08T13:03:31Z</time></trkpt>
<trkpt lat="30.9837899" lon="34.7706684"><ele>369.5</ele><time>2014-11-08T13:03:42Z</time></trkpt>
<trkpt lat="30.9833872" lon="34.7709560"><ele>370.5</ele><time>2014-11-08T13:03:52Z</time></trkpt>
<trkpt lat="30.9830509" lon="34.7711970"><ele>373.0</ele><time>2014-11-08T13:04:01Z</time></trkpt>
<trkpt lat="30.9826415" lon="34.7714296"><ele>373.8</ele><time>2014-11-08T13:04:11Z</time></trkpt>
<trkpt lat="30.9825288" lon="34.7714926"><ele>374.0</ele><time>2014-11-08T13:04:14Z</time></trkpt>
<trkpt lat="30.9824943" lon="34.7715476"><ele>374.0</ele><time>2014-11-08T13:04:15Z</time></trkpt>
<trkpt lat="30.9823853" lon="34.7716005"><ele>374.0</ele><time>2014-11-08T13:04:17Z</time></trkpt>
<trkpt lat="30.9823295" lon="34.7715847"><ele>374.0</ele><time>2014-11-08T13:04:18Z</time></trkpt>
<trkpt lat="30.9820354" lon="34.7717501"><ele>374.7</ele><time>2014-11-08T13:04:24Z</time></trkpt>
<trkpt lat="30.9815827" lon="34.7719044"><ele>376.1</ele><time>2014-11-08T13:04:34Z</time></trkpt>
<trkpt lat="30.9812793" lon="34.7720413"><ele>377.2</ele><time>2014-11-08T13:04:41Z</time></trkpt>
<trkpt lat="30.9812970" lon="34.7720684"><ele>377.3</ele><time>2014-11-08T13:04:42Z</time></trkpt>
<trkpt lat="30.9808443" lon="34.7721859"><ele>378.8</ele><time>2014-11-08T13:04:50Z</time></trkpt>
<trkpt lat="30.9803804" lon="34.7723147"><ele>384.6</ele><time>2014-11-08T13:05:00Z</time></trkpt>
<trkpt lat="30.9799284" lon="34.7724447"><ele>386.2</ele><time>2014-11-08T13:05:09Z</time></trkpt>
<trkpt lat="30.9794654" lon="34.7724901"><ele>387.0</ele><time>2014-11-08T13:05:18Z</time></trkpt>
<trkpt lat="30.9789839" lon="34.7725277"><ele>387.8</ele><time>2014-11-08T13:05:27Z</time></trkpt>
<trkpt lat="30.9785110" lon="34.7725361"><ele>389.4</ele><time>2014-11-08T13:05:37Z</time></trkpt>
<trkpt lat="30.9780401" lon="34.7725644"><ele>391.0</ele><time>2014-11-08T13:05:46Z</time></trkpt>
<trkpt lat="30.9775763" lon="34.7725589"><ele>396.0</ele><time>2014-11-08T13:05:56Z</time></trkpt>
<trkpt lat="30.9770848" lon="34.7725639"><ele>399.5</ele><time>2014-11-08T13:06:07Z</time></trkpt>
<trkpt lat="30.9766117" lon="34.7725426"><ele>402.0</ele><time>2014-11-08T13:06:17Z</time></trkpt>
<trkpt lat="30.9761464" lon="34.7725440"><ele>408.3</ele><time>2014-11-08T13:06:27Z</time></trkpt>
<trkpt lat="30.9756913" lon="34.7725346"><ele>411.0</ele><time>2014-11-08T13:06:37Z</time></trkpt>
<trkpt lat="30.9752114" lon="34.7725268"><ele>409.6</ele><time>2014-11-08T13:06:48Z</time></trkpt>
<trkpt lat="30.9747610" lon="34.7724948"><ele>409.2</ele><time>2014-11-08T13:06:59Z</time></trkpt>
<trkpt lat="30.9742969" lon="34.7725038"><ele>410.5</ele><time>2014-11-08T13:07:09Z</time></trkpt>
<trkpt lat="30.9738303" lon="34.7724780"><ele>411.6</ele><time>2014-11-08T13:07:19Z</time></trkpt>
<trkpt lat="30.9733558" lon="34.7724651"><ele>412.6</ele><time>2014-11-08T13:07:29Z</time></trkpt>
<trkpt lat="30.9728806" lon="34.7724789"><ele>413.0</ele><time>2014-11-08T13:07:38Z</time></trkpt>
<trkpt lat="30.9724779" lon="34.7725551"><ele>413.0</ele><time>2014-11-08T13:07:49Z</time></trkpt>
<trkpt lat="30.9720298" lon="34.7727171"><ele>412.0</ele><time>2014-11-08T13:07:58Z</time></trkpt>
<trkpt lat="30.9719304" lon="34.7727335"><ele>412.0</ele><time>2014-11-08T13:08:00Z</time></trkpt>
<trkpt lat="30.9715330" lon="34.7729973"><ele>410.8</ele><time>2014-11-08T13:08:10Z</time></trkpt>
<trkpt lat="30.9710981" lon="34.7732705"><ele>408.7</ele><time>2014-11-08T13:08:20Z</time></trkpt>
<trkpt lat="30.9706801" lon="34.7735803"><ele>408.7</ele><time>2014-11-08T13:08:30Z</time></trkpt>
<trkpt lat="30.9703081" lon="34.7739196"><ele>411.0</ele><time>2014-11-08T13:08:40Z</time></trkpt>
<trkpt lat="30.9699367" lon="34.7742763"><ele>409.0</ele><time>2014-11-08T13:08:50Z</time></trkpt>
<trkpt lat="30.9695724" lon="34.7746034"><ele>410.1</ele><time>2014-11-08T13:08:59Z</time></trkpt>
<trkpt lat="30.9692108" lon="34.7749272"><ele>410.5</ele><time>2014-11-08T13:09:08Z</time></trkpt>
<trkpt lat="30.9688026" lon="34.7752613"><ele>411.0</ele><time>2014-11-08T13:09:18Z</time></trkpt>
<trkpt lat="30.9683951" lon="34.7755819"><ele>411.4</ele><time>2014-11-08T13:09:28Z</time></trkpt>
<trkpt lat="30.9679908" lon="34.7759142"><ele>411.9</ele><time>2014-11-08T13:09:38Z</time></trkpt>
<trkpt lat="30.9675962" lon="34.7762558"><ele>413.8</ele><time>2014-11-08T13:09:49Z</time></trkpt>
<trkpt lat="30.9672179" lon="34.7765739"><ele>417.9</ele><time>2014-11-08T13:10:00Z</time></trkpt>
<trkpt lat="30.9668597" lon="34.7769008"><ele>419.6</ele><time>2014-11-08T13:10:11Z</time></trkpt>
<trkpt lat="30.9666470" lon="34.7771098"><ele>421.6</ele><time>2014-11-08T13:10:18Z</time></trkpt>
<trkpt lat="30.9662718" lon="34.7774005"><ele>424.4</ele><time>2014-11-08T13:10:28Z</time></trkpt>
<trkpt lat="30.9659255" lon="34.7777461"><ele>428.3</ele><time>2014-11-08T13:10:39Z</time></trkpt>
<trkpt lat="30.9655269" lon="34.7780703"><ele>429.0</ele><time>2014-11-08T13:10:50Z</time></trkpt>
<trkpt lat="30.9651532" lon="34.7784026"><ele>431.0</ele><time>2014-11-08T13:11:01Z</time></trkpt>
<trkpt lat="30.9648107" lon="34.7787437"><ele>431.6</ele><time>2014-11-08T13:11:11Z</time></trkpt>
<trkpt lat="30.9644430" lon="34.7790882"><ele>432.3</ele><time>2014-11-08T13:11:21Z</time></trkpt>
<trkpt lat="30.9641191" lon="34.7794587"><ele>432.9</ele><time>2014-11-08T13:11:30Z</time></trkpt>
<trkpt lat="30.9640188" lon="34.7795573"><ele>433.0</ele><time>2014-11-08T13:11:33Z</time></trkpt>
<trkpt lat="30.9639381" lon="34.7796965"><ele>433.0</ele><time>2014-11-08T13:11:34Z</time></trkpt>
<trkpt lat="30.9635923" lon="34.7801045"><ele>433.7</ele><time>2014-11-08T13:11:43Z</time></trkpt>
<trkpt lat="30.9632986" lon="34.7805360"><ele>434.6</ele><time>2014-11-08T13:11:51Z</time></trkpt>
<trkpt lat="30.9629922" lon="34.7809284"><ele>435.5</ele><time>2014-11-08T13:11:59Z</time></trkpt>
<trkpt lat="30.9626456" lon="34.7813214"><ele>436.4</ele><time>2014-11-08T13:12:08Z</time></trkpt>
<trkpt lat="30.9622629" lon="34.7816383"><ele>437.4</ele><time>2014-11-08T13:12:17Z</time></trkpt>
<trkpt lat="30.9618385" lon="34.7819032"><ele>438.0</ele><time>2014-11-08T13:12:26Z</time></trkpt>
<trkpt lat="30.9617774" lon="34.7819350"><ele>438.0</ele><time>2014-11-08T13:12:27Z</time></trkpt>
<trkpt lat="30.9617055" lon="34.7819202"><ele>438.0</ele><time>2014-11-08T13:12:28Z</time></trkpt>
<trkpt lat="30.9616280" lon="34.7819453"><ele>438.5</ele><time>2014-11-08T13:12:30Z</time></trkpt>
<trkpt lat="30.9614963" lon="34.7819462"><ele>438.8</ele><time>2014-11-08T13:12:31Z</time></trkpt>
<trkpt lat="30.9613325" lon="34.7820589"><ele>440.4</ele><time>2014-11-08T13:12:37Z</time></trkpt>
<trkpt lat="30.9608516" lon="34.7822312"><ele>441.0</ele><time>2014-11-08T13:12:49Z</time></trkpt>
<trkpt lat="30.9603864" lon="34.7823659"><ele>441.0</ele><time>2014-11-08T13:13:00Z</time></trkpt>
<trkpt lat="30.9599319" lon="34.7825358"><ele>441.0</ele><time>2014-11-08T13:13:11Z</time></trkpt>
<trkpt lat="30.9594878" lon="34.7826994"><ele>442.0</ele><time>2014-11-08T13:13:22Z</time></trkpt>
<trkpt lat="30.9590386" lon="34.7828891"><ele>443.0</ele><time>2014-11-08T13:13:32Z</time></trkpt>
<trkpt lat="30.9586086" lon="34.7830708"><ele>441.4</ele><time>2014-11-08T13:13:41Z</time></trkpt>
<trkpt lat="30.9581798" lon="34.7832808"><ele>443.7</ele><time>2014-11-08T13:13:51Z</time></trkpt>
<trkpt lat="30.9577555" lon="34.7835049"><ele>446.2</ele><time>2014-11-08T13:14:02Z</time></trkpt>
<trkpt lat="30.9573290" lon="34.7836992"><ele>447.2</ele><time>2014-11-08T13:14:12Z</time></trkpt>
<trkpt lat="30.9569079" lon="34.7839193"><ele>449.0</ele><time>2014-11-08T13:14:22Z</time></trkpt>
<trkpt lat="30.9564942" lon="34.7841304"><ele>451.2</ele><time>2014-11-08T13:14:31Z</time></trkpt>
<trkpt lat="30.9560387" lon="34.7843679"><ele>452.1</ele><time>2014-11-08T13:14:42Z</time></trkpt>
<trkpt lat="30.9555949" lon="34.7845856"><ele>452.7</ele><time>2014-11-08T13:14:52Z</time></trkpt>
<trkpt lat="30.9551442" lon="34.7848008"><ele>453.3</ele><time>2014-11-08T13:15:02Z</time></trkpt>
<trkpt lat="30.9547174" lon="34.7850089"><ele>453.9</ele><time>2014-11-08T13:15:12Z</time></trkpt>
<trkpt lat="30.9542691" lon="34.7852070"><ele>454.5</ele><time>2014-11-08T13:15:22Z</time></trkpt>
<trkpt lat="30.9538106" lon="34.7853943"><ele>456.0</ele><time>2014-11-08T13:15:33Z</time></trkpt>
<trkpt lat="30.9533444" lon="34.7855402"><ele>458.9</ele><time>2014-11-08T13:15:44Z</time></trkpt>
<trkpt lat="30.9529243" lon="34.7857063"><ele>463.4</ele><time>2014-11-08T13:15:54Z</time></trkpt>
<trkpt lat="30.9524649" lon="34.7857870"><ele>467.4</ele><time>2014-11-08T13:16:04Z</time></trkpt>
<trkpt lat="30.9520130" lon="34.7858591"><ele>468.3</ele><time>2014-11-08T13:16:14Z</time></trkpt>
<trkpt lat="30.9515337" lon="34.7859176"><ele>469.4</ele><time>2014-11-08T13:16:24Z</time></trkpt>
<trkpt lat="30.9510545" lon="34.7860026"><ele>470.7</ele><time>2014-11-08T13:16:35Z</time></trkpt>
<trkpt lat="30.9505604" lon="34.7860694"><ele>471.0</ele><time>2014-11-08T13:16:44Z</time></trkpt>
<trkpt lat="30.9503461" lon="34.7861017"><ele>471.0</ele><time>2014-11-08T13:16:49Z</time></trkpt>
<trkpt lat="30.9499282" lon="34.7863351"><ele>471.0</ele><time>2014-11-08T13:16:59Z</time></trkpt>
<trkpt lat="30.9495247" lon="34.7865852"><ele>470.5</ele><time>2014-11-08T13:17:09Z</time></trkpt>
<trkpt lat="30.9491082" lon="34.7868494"><ele>469.2</ele><time>2014-11-08T13:17:19Z</time></trkpt>
<trkpt lat="30.9486643" lon="34.7871033"><ele>468.0</ele><time>2014-11-08T13:17:29Z</time></trkpt>
<trkpt lat="30.9481954" lon="34.7872886"><ele>469.9</ele><time>2014-11-08T13:17:39Z</time></trkpt>
<trkpt lat="30.9477245" lon="34.7874023"><ele>471.4</ele><time>2014-11-08T13:17:48Z</time></trkpt>
<trkpt lat="30.9472606" lon="34.7874253"><ele>473.2</ele><time>2014-11-08T13:17:58Z</time></trkpt>
<trkpt lat="30.9467747" lon="34.7874662"><ele>474.7</ele><time>2014-11-08T13:18:07Z</time></trkpt>
<trkpt lat="30.9463182" lon="34.7873873"><ele>478.9</ele><time>2014-11-08T13:18:15Z</time></trkpt>
<trkpt lat="30.9462689" lon="34.7873467"><ele>479.4</ele><time>2014-11-08T13:18:16Z</time></trkpt>
<trkpt lat="30.9457812" lon="34.7872516"><ele>480.3</ele><time>2014-11-08T13:18:25Z</time></trkpt>
<trkpt lat="30.9452948" lon="34.7871788"><ele>483.3</ele><time>2014-11-08T13:18:35Z</time></trkpt>
<trkpt lat="30.9448423" lon="34.7871096"><ele>484.0</ele><time>2014-11-08T13:18:44Z</time></trkpt>
<trkpt lat="30.9444187" lon="34.7870572"><ele>484.7</ele><time>2014-11-08T13:18:54Z</time></trkpt>
<trkpt lat="30.9441734" lon="34.7870205"><ele>485.4</ele><time>2014-11-08T13:19:00Z</time></trkpt>
<trkpt lat="30.9441645" lon="34.7869840"><ele>485.5</ele><time>2014-11-08T13:19:01Z</time></trkpt>
<trkpt lat="30.9437850" lon="34.7870076"><ele>488.0</ele><time>2014-11-08T13:19:11Z</time></trkpt>
<trkpt lat="30.9434660" lon="34.7868753"><ele>489.6</ele><time>2014-11-08T13:19:18Z</time></trkpt>
<trkpt lat="30.9434136" lon="34.7869068"><ele>489.9</ele><time>2014-11-08T13:19:19Z</time></trkpt>
<trkpt lat="30.9429723" lon="34.7867476"><ele>496.0</ele><time>2014-11-08T13:19:29Z</time></trkpt>
<trkpt lat="30.9425434" lon="34.7865733"><ele>500.0</ele><time>2014-11-08T13:19:38Z</time></trkpt>
<trkpt lat="30.9422897" lon="34.7864567"><ele>500.0</ele><time>2014-11-08T13:19:42Z</time></trkpt>
<trkpt lat="30.9421621" lon="34.7863582"><ele>501.8</ele><time>2014-11-08T13:19:45Z</time></trkpt>
<trkpt lat="30.9421358" lon="34.7863880"><ele>503.6</ele><time>2014-11-08T13:19:46Z</time></trkpt>
<trkpt lat="30.9418858" lon="34.7863590"><ele>508.8</ele><time>2014-11-08T13:19:51Z</time></trkpt>
<trkpt lat="30.9418059" lon="34.7863128"><ele>508.6</ele><time>2014-11-08T13:19:53Z</time></trkpt>
<trkpt lat="30.9413450" lon="34.7861960"><ele>506.6</ele><time>2014-11-08T13:20:03Z</time></trkpt>
<trkpt lat="30.9408960" lon="34.7860347"><ele>502.8</ele><time>2014-11-08T13:20:13Z</time></trkpt>
<trkpt lat="30.9406330" lon="34.7858787"><ele>502.3</ele><time>2014-11-08T13:20:18Z</time></trkpt>
<trkpt lat="30.9403711" lon="34.7857322"><ele>501.8</ele><time>2014-11-08T13:20:24Z</time></trkpt>
<trkpt lat="30.9403669" lon="34.7857485"><ele>501.6</ele><time>2014-11-08T13:20:25Z</time></trkpt>
<trkpt lat="30.9401608" lon="34.7856902"><ele>500.6</ele><time>2014-11-08T13:20:29Z</time></trkpt>
<trkpt lat="30.9398290" lon="34.7855038"><ele>500.5</ele><time>2014-11-08T13:20:36Z</time></trkpt>
<trkpt lat="30.9393903" lon="34.7853584"><ele>501.9</ele><time>2014-11-08T13:20:44Z</time></trkpt>
<trkpt lat="30.9389201" lon="34.7851992"><ele>503.3</ele><time>2014-11-08T13:20:53Z</time></trkpt>
<trkpt lat="30.9388225" lon="34.7851684"><ele>503.4</ele><time>2014-11-08T13:20:54Z</time></trkpt>
<trkpt lat="30.9385871" lon="34.7851234"><ele>503.9</ele><time>2014-11-08T13:21:00Z</time></trkpt>
<trkpt lat="30.9384778" lon="34.7850622"><ele>504.7</ele><time>2014-11-08T13:21:02Z</time></trkpt>
<trkpt lat="30.9381980" lon="34.7849995"><ele>508.0</ele><time>2014-11-08T13:21:07Z</time></trkpt>
<trkpt lat="30.9379030" lon="34.7848366"><ele>504.8</ele><time>2014-11-08T13:21:14Z</time></trkpt>
<trkpt lat="30.9378267" lon="34.7847577"><ele>504.7</ele><time>2014-11-08T13:21:15Z</time></trkpt>
<trkpt lat="30.9373676" lon="34.7846481"><ele>505.3</ele><time>2014-11-08T13:21:26Z</time></trkpt>
<trkpt lat="30.9369114" lon="34.7844741"><ele>507.4</ele><time>2014-11-08T13:21:35Z</time></trkpt>
<trkpt lat="30.9364817" lon="34.7842849"><ele>508.3</ele><time>2014-11-08T13:21:45Z</time></trkpt>
<trkpt lat="30.9360551" lon="34.7840776"><ele>511.1</ele><time>2014-11-08T13:21:55Z</time></trkpt>
<trkpt lat="30.9356412" lon="34.7838529"><ele>511.7</ele><time>2014-11-08T13:22:04Z</time></trkpt>
<trkpt lat="30.9353163" lon="34.7836479"><ele>512.0</ele><time>2014-11-08T13:22:13Z</time></trkpt>
<trkpt lat="30.9351136" lon="34.7835914"><ele>512.0</ele><time>2014-11-08T13:22:16Z</time></trkpt>
<trkpt lat="30.9351328" lon="34.7835679"><ele>512.0</ele><time>2014-11-08T13:22:17Z</time></trkpt>
<trkpt lat="30.9347237" lon="34.7833064"><ele>512.9</ele><time>2014-11-08T13:22:25Z</time></trkpt>
<trkpt lat="30.9343133" lon="34.7830974"><ele>514.1</ele><time>2014-11-08T13:22:34Z</time></trkpt>
<trkpt lat="30.9342590" lon="34.7830360"><ele>514.4</ele><time>2014-11-08T13:22:36Z</time></trkpt>
<trkpt lat="30.9337952" lon="34.7828387"><ele>515.6</ele><time>2014-11-08T13:22:44Z</time></trkpt>
<trkpt lat="30.9334510" lon="34.7826402"><ele>516.3</ele><time>2014-11-08T13:22:49Z</time></trkpt>
<trkpt lat="30.9333041" lon="34.7826052"><ele>516.5</ele><time>2014-11-08T13:22:52Z</time></trkpt>
<trkpt lat="30.9331814" lon="34.7824559"><ele>516.8</ele><time>2014-11-08T13:22:55Z</time></trkpt>
<trkpt lat="30.9327707" lon="34.7821980"><ele>517.3</ele><time>2014-11-08T13:23:01Z</time></trkpt>
<trkpt lat="30.9323622" lon="34.7819754"><ele>517.9</ele><time>2014-11-08T13:23:06Z</time></trkpt>
<trkpt lat="30.9320688" lon="34.7818249"><ele>516.4</ele><time>2014-11-08T13:23:12Z</time></trkpt>
<trkpt lat="30.9316110" lon="34.7815530"><ele>517.0</ele><time>2014-11-08T13:23:19Z</time></trkpt>
<trkpt lat="30.9314444" lon="34.7814910"><ele>517.4</ele><time>2014-11-08T13:23:21Z</time></trkpt>
<trkpt lat="30.9310267" lon="34.7812293"><ele>517.0</ele><time>2014-11-08T13:23:26Z</time></trkpt>
<trkpt lat="30.9305828" lon="34.7810247"><ele>515.4</ele><time>2014-11-08T13:23:32Z</time></trkpt>
<trkpt lat="30.9304121" lon="34.7808893"><ele>515.2</ele><time>2014-11-08T13:23:36Z</time></trkpt>
<trkpt lat="30.9302430" lon="34.7808774"><ele>515.6</ele><time>2014-11-08T13:23:38Z</time></trkpt>
<trkpt lat="30.9300790" lon="34.7808186"><ele>516.0</ele><time>2014-11-08T13:23:40Z</time></trkpt>
<trkpt lat="30.9300001" lon="34.7807386"><ele>516.2</ele><time>2014-11-08T13:23:41Z</time></trkpt>
<trkpt lat="30.9295554" lon="34.7804962"><ele>515.8</ele><time>2014-11-08T13:23:47Z</time></trkpt>
<trkpt lat="30.9291396" lon="34.7802201"><ele>513.4</ele><time>2014-11-08T13:23:53Z</time></trkpt>
<trkpt lat="30.9287379" lon="34.7799763"><ele>511.7</ele><time>2014-11-08T13:23:59Z</time></trkpt>
<trkpt lat="30.9283081" lon="34.7797396"><ele>510.3</ele><time>2014-11-08T13:24:05Z</time></trkpt>
<trkpt lat="30.9280007" lon="34.7795472"><ele>509.4</ele><time>2014-11-08T13:24:10Z</time></trkpt>
<trkpt lat="30.9277503" lon="34.7794656"><ele>509.0</ele><time>2014-11-08T13:24:13Z</time></trkpt>
<trkpt lat="30.9275558" lon="34.7793578"><ele>509.0</ele><time>2014-11-08T13:24:16Z</time></trkpt>
<trkpt lat="30.9272305" lon="34.7792619"><ele>508.6</ele><time>2014-11-08T13:24:19Z</time></trkpt>
<trkpt lat="30.9269239" lon="34.7790489"><ele>507.0</ele><time>2014-11-08T13:24:23Z</time></trkpt>
<trkpt lat="30.9264737" lon="34.7788256"><ele>510.0</ele><time>2014-11-08T13:24:28Z</time></trkpt>
<trkpt lat="30.9259826" lon="34.7785816"><ele>509.2</ele><time>2014-11-08T13:24:35Z</time></trkpt>
<trkpt lat="30.9255318" lon="34.7783304"><ele>509.6</ele><time>2014-11-08T13:24:41Z</time></trkpt>
<trkpt lat="30.9250762" lon="34.7781480"><ele>507.9</ele><time>2014-11-08T13:24:45Z</time></trkpt>
<trkpt lat="30.9245847" lon="34.7779611"><ele>506.0</ele><time>2014-11-08T13:24:51Z</time></trkpt>
<trkpt lat="30.9242763" lon="34.7779481"><ele>504.6</ele><time>2014-11-08T13:24:54Z</time></trkpt>
<trkpt lat="30.9237710" lon="34.7780697"><ele>501.9</ele><time>2014-11-08T13:25:00Z</time></trkpt>
<trkpt lat="30.9233243" lon="34.7781664"><ele>499.0</ele><time>2014-11-08T13:25:05Z</time></trkpt>
<trkpt lat="30.9228408" lon="34.7782853"><ele>498.8</ele><time>2014-11-08T13:25:11Z</time></trkpt>
<trkpt lat="30.9223781" lon="34.7784110"><ele>500.7</ele><time>2014-11-08T13:25:17Z</time></trkpt>
<trkpt lat="30.9219078" lon="34.7785388"><ele>499.4</ele><time>2014-11-08T13:25:23Z</time></trkpt>
<trkpt lat="30.9214187" lon="34.7786244"><ele>497.3</ele><time>2014-11-08T13:25:29Z</time></trkpt>
<trkpt lat="30.9209460" lon="34.7787075"><ele>496.0</ele><time>2014-11-08T13:25:35Z</time></trkpt>
<trkpt lat="30.9204373" lon="34.7788021"><ele>494.0</ele><time>2014-11-08T13:25:41Z</time></trkpt>
<trkpt lat="30.9200403" lon="34.7788664"><ele>491.7</ele><time>2014-11-08T13:25:46Z</time></trkpt>
<trkpt lat="30.9197498" lon="34.7789427"><ele>490.0</ele><time>2014-11-08T13:25:50Z</time></trkpt>
<trkpt lat="30.9192539" lon="34.7789256"><ele>486.4</ele><time>2014-11-08T13:25:56Z</time></trkpt>
<trkpt lat="30.9187481" lon="34.7788494"><ele>485.0</ele><time>2014-11-08T13:26:02Z</time></trkpt>
<trkpt lat="30.9185278" lon="34.7788245"><ele>485.0</ele><time>2014-11-08T13:26:03Z</time></trkpt>
<trkpt lat="30.9181041" lon="34.7787878"><ele>485.0</ele><time>2014-11-08T13:26:07Z</time></trkpt>
<trkpt lat="30.9178756" lon="34.7786377"><ele>483.8</ele><time>2014-11-08T13:26:11Z</time></trkpt>
<trkpt lat="30.9174366" lon="34.7785174"><ele>482.3</ele><time>2014-11-08T13:26:16Z</time></trkpt>
<trkpt lat="30.9169909" lon="34.7783987"><ele>482.8</ele><time>2014-11-08T13:26:21Z</time></trkpt>
<trkpt lat="30.9165084" lon="34.7782410"><ele>481.9</ele><time>2014-11-08T13:26:26Z</time></trkpt>
<trkpt lat="30.9160617" lon="34.7781212"><ele>481.2</ele><time>2014-11-08T13:26:29Z</time></trkpt>
<trkpt lat="30.9157470" lon="34.7779999"><ele>480.6</ele><time>2014-11-08T13:26:33Z</time></trkpt>
<trkpt lat="30.9156919" lon="34.7780170"><ele>480.5</ele><time>2014-11-08T13:26:34Z</time></trkpt>
<trkpt lat="30.9151944" lon="34.7778647"><ele>474.1</ele><time>2014-11-08T13:26:40Z</time></trkpt>
<trkpt lat="30.9147417" lon="34.7778125"><ele>469.7</ele><time>2014-11-08T13:26:45Z</time></trkpt>
<trkpt lat="30.9142170" lon="34.7777421"><ele>469.1</ele><time>2014-11-08T13:26:52Z</time></trkpt>
<trkpt lat="30.9137479" lon="34.7777590"><ele>467.3</ele><time>2014-11-08T13:26:58Z</time></trkpt>
<trkpt lat="30.9132817" lon="34.7777065"><ele>465.9</ele><time>2014-11-08T13:27:05Z</time></trkpt>
<trkpt lat="30.9128034" lon="34.7777480"><ele>464.6</ele><time>2014-11-08T13:27:12Z</time></trkpt>
<trkpt lat="30.9123355" lon="34.7778143"><ele>466.0</ele><time>2014-11-08T13:27:19Z</time></trkpt>
<trkpt lat="30.9118709" lon="34.7778610"><ele>467.0</ele><time>2014-11-08T13:27:26Z</time></trkpt>
<trkpt lat="30.9114148" lon="34.7779106"><ele>466.2</ele><time>2014-11-08T13:27:33Z</time></trkpt>
<trkpt lat="30.9109194" lon="34.7779596"><ele>467.6</ele><time>2014-11-08T13:27:41Z</time></trkpt>
<trkpt lat="30.9104143" lon="34.7780159"><ele>470.4</ele><time>2014-11-08T13:27:50Z</time></trkpt>
<trkpt lat="30.9099392" lon="34.7780763"><ele>467.3</ele><time>2014-11-08T13:27:58Z</time></trkpt>
<trkpt lat="30.9094575" lon="34.7781104"><ele>467.5</ele><time>2014-11-08T13:28:06Z</time></trkpt>
<trkpt lat="30.9089691" lon="34.7781652"><ele>465.8</ele><time>2014-11-08T13:28:15Z</time></trkpt>
<trkpt lat="30.9084710" lon="34.7782070"><ele>467.4</ele><time>2014-11-08T13:28:24Z</time></trkpt>
<trkpt lat="30.9079883" lon="34.7782537"><ele>469.3</ele><time>2014-11-08T13:28:34Z</time></trkpt>
<trkpt lat="30.9075590" lon="34.7783172"><ele>472.2</ele><time>2014-11-08T13:28:43Z</time></trkpt>
<trkpt lat="30.9075487" lon="34.7783410"><ele>472.4</ele><time>2014-11-08T13:28:45Z</time></trkpt>
<trkpt lat="30.9072074" lon="34.7783920"><ele>473.8</ele><time>2014-11-08T13:28:53Z</time></trkpt>
<trkpt lat="30.9070730" lon="34.7783681"><ele>474.3</ele><time>2014-11-08T13:28:56Z</time></trkpt>
<trkpt lat="30.9066207" lon="34.7783889"><ele>478.1</ele><time>2014-11-08T13:29:07Z</time></trkpt>
<trkpt lat="30.9061418" lon="34.7783957"><ele>474.0</ele><time>2014-11-08T13:29:18Z</time></trkpt>
<trkpt lat="30.9056580" lon="34.7784101"><ele>475.6</ele><time>2014-11-08T13:29:31Z</time></trkpt>
<trkpt lat="30.9052050" lon="34.7784768"><ele>480.5</ele><time>2014-11-08T13:29:43Z</time></trkpt>
<trkpt lat="30.9047636" lon="34.7786577"><ele>483.2</ele><time>2014-11-08T13:29:56Z</time></trkpt>
<trkpt lat="30.9043425" lon="34.7789081"><ele>486.4</ele><time>2014-11-08T13:30:10Z</time></trkpt>
<trkpt lat="30.9039640" lon="34.7792238"><ele>487.7</ele><time>2014-11-08T13:30:23Z</time></trkpt>
<trkpt lat="30.9036685" lon="34.7796352"><ele>490.8</ele><time>2014-11-08T13:30:36Z</time></trkpt>
<trkpt lat="30.9033566" lon="34.7800530"><ele>490.3</ele><time>2014-11-08T13:30:50Z</time></trkpt>
<trkpt lat="30.9030772" lon="34.7804689"><ele>494.0</ele><time>2014-11-08T13:31:04Z</time></trkpt>
<trkpt lat="30.9027721" lon="34.7808626"><ele>495.3</ele><time>2014-11-08T13:31:17Z</time></trkpt>
<trkpt lat="30.9024367" lon="34.7812217"><ele>498.0</ele><time>2014-11-08T13:31:32Z</time></trkpt>
<trkpt lat="30.9020592" lon="34.7815177"><ele>501.2</ele><time>2014-11-08T13:31:44Z</time></trkpt>
<trkpt lat="30.9016373" lon="34.7817031"><ele>505.7</ele><time>2014-11-08T13:31:58Z</time></trkpt>
<trkpt lat="30.9011865" lon="34.7818525"><ele>510.2</ele><time>2014-11-08T13:32:12Z</time></trkpt>
<trkpt lat="30.9007165" lon="34.7819248"><ele>513.5</ele><time>2014-11-08T13:32:26Z</time></trkpt>
<trkpt lat="30.9002553" lon="34.7819895"><ele>516.0</ele><time>2014-11-08T13:32:41Z</time></trkpt>
<trkpt lat="30.8997947" lon="34.7820373"><ele>517.0</ele><time>2014-11-08T13:32:54Z</time></trkpt>
<trkpt lat="30.8993277" lon="34.7820982"><ele>519.0</ele><time>2014-11-08T13:33:07Z</time></trkpt>
<trkpt lat="30.8988659" lon="34.7821573"><ele>520.1</ele><time>2014-11-08T13:33:19Z</time></trkpt>
<trkpt lat="30.8983899" lon="34.7822818"><ele>521.9</ele><time>2014-11-08T13:33:31Z</time></trkpt>
<trkpt lat="30.8979515" lon="34.7824863"><ele>522.0</ele><time>2014-11-08T13:33:42Z</time></trkpt>
<trkpt lat="30.8975478" lon="34.7827879"><ele>522.0</ele><time>2014-11-08T13:33:53Z</time></trkpt>
<trkpt lat="30.8972084" lon="34.7831687"><ele>522.0</ele><time>2014-11-08T13:34:04Z</time></trkpt>
<trkpt lat="30.8970046" lon="34.7833780"><ele>522.0</ele><time>2014-11-08T13:34:11Z</time></trkpt>
<trkpt lat="30.8966948" lon="34.7837754"><ele>524.0</ele><time>2014-11-08T13:34:23Z</time></trkpt>
<trkpt lat="30.8963537" lon="34.7841811"><ele>527.3</ele><time>2014-11-08T13:34:36Z</time></trkpt>
<trkpt lat="30.8960302" lon="34.7845695"><ele>530.3</ele><time>2014-11-08T13:34:48Z</time></trkpt>
<trkpt lat="30.8957106" lon="34.7849925"><ele>531.8</ele><time>2014-11-08T13:35:00Z</time></trkpt>
<trkpt lat="30.8954448" lon="34.7854686"><ele>533.8</ele><time>2014-11-08T13:35:12Z</time></trkpt>
<trkpt lat="30.8951739" lon="34.7858936"><ele>533.0</ele><time>2014-11-08T13:35:23Z</time></trkpt>
<trkpt lat="30.8949353" lon="34.7863935"><ele>532.3</ele><time>2014-11-08T13:35:33Z</time></trkpt>
<trkpt lat="30.8947241" lon="34.7868733"><ele>531.4</ele><time>2014-11-08T13:35:42Z</time></trkpt>
<trkpt lat="30.8944902" lon="34.7873971"><ele>530.6</ele><time>2014-11-08T13:35:51Z</time></trkpt>
<trkpt lat="30.8942827" lon="34.7878758"><ele>531.6</ele><time>2014-11-08T13:35:59Z</time></trkpt>
<trkpt lat="30.8940460" lon="34.7883642"><ele>532.0</ele><time>2014-11-08T13:36:08Z</time></trkpt>
<trkpt lat="30.8937847" lon="34.7888434"><ele>529.0</ele><time>2014-11-08T13:36:16Z</time></trkpt>
<trkpt lat="30.8935302" lon="34.7893043"><ele>528.0</ele><time>2014-11-08T13:36:24Z</time></trkpt>
<trkpt lat="30.8933110" lon="34.7896748"><ele>527.9</ele><time>2014-11-08T13:36:31Z</time></trkpt>
<trkpt lat="30.8933089" lon="34.7897463"><ele>527.8</ele><time>2014-11-08T13:36:32Z</time></trkpt>
<trkpt lat="30.8929587" lon="34.7901313"><ele>527.4</ele><time>2014-11-08T13:36:39Z</time></trkpt>
<trkpt lat="30.8926278" lon="34.7904912"><ele>527.4</ele><time>2014-11-08T13:36:47Z</time></trkpt>
<trkpt lat="30.8925155" lon="34.7906514"><ele>528.0</ele><time>2014-11-08T13:36:50Z</time></trkpt>
<trkpt lat="30.8921427" lon="34.7909781"><ele>526.4</ele><time>2014-11-08T13:36:59Z</time></trkpt>
<trkpt lat="30.8917286" lon="34.7912635"><ele>525.0</ele><time>2014-11-08T13:37:08Z</time></trkpt>
<trkpt lat="30.8916574" lon="34.7913051"><ele>525.0</ele><time>2014-11-08T13:37:10Z</time></trkpt>
<trkpt lat="30.8916294" lon="34.7913568"><ele>525.0</ele><time>2014-11-08T13:37:11Z</time></trkpt>
<trkpt lat="30.8912726" lon="34.7915373"><ele>525.0</ele><time>2014-11-08T13:37:19Z</time></trkpt>
<trkpt lat="30.8912254" lon="34.7915238"><ele>525.0</ele><time>2014-11-08T13:37:20Z</time></trkpt>
<trkpt lat="30.8911232" lon="34.7916006"><ele>525.0</ele><time>2014-11-08T13:37:22Z</time></trkpt>
<trkpt lat="30.8909983" lon="34.7916392"><ele>525.0</ele><time>2014-11-08T13:37:25Z</time></trkpt>
<trkpt lat="30.8907778" lon="34.7917982"><ele>525.0</ele><time>2014-11-08T13:37:29Z</time></trkpt>
<trkpt lat="30.8907288" lon="34.7917829"><ele>525.0</ele><time>2014-11-08T13:37:30Z</time></trkpt>
<trkpt lat="30.8902870" lon="34.7920032"><ele>526.2</ele><time>2014-11-08T13:37:38Z</time></trkpt>
<trkpt lat="30.8898074" lon="34.7921359"><ele>527.0</ele><time>2014-11-08T13:37:46Z</time></trkpt>
<trkpt lat="30.8893507" lon="34.7922233"><ele>525.7</ele><time>2014-11-08T13:37:53Z</time></trkpt>
<trkpt lat="30.8888550" lon="34.7922659"><ele>525.5</ele><time>2014-11-08T13:38:00Z</time></trkpt>
<trkpt lat="30.8883801" lon="34.7923010"><ele>523.2</ele><time>2014-11-08T13:38:07Z</time></trkpt>
<trkpt lat="30.8880703" lon="34.7923236"><ele>521.5</ele><time>2014-11-08T13:38:12Z</time></trkpt>
<trkpt lat="30.8879912" lon="34.7923539"><ele>521.2</ele><time>2014-11-08T13:38:13Z</time></trkpt>
<trkpt lat="30.8874830" lon="34.7923744"><ele>518.6</ele><time>2014-11-08T13:38:21Z</time></trkpt>
<trkpt lat="30.8869932" lon="34.7924217"><ele>518.3</ele><time>2014-11-08T13:38:27Z</time></trkpt>
<trkpt lat="30.8867415" lon="34.7924782"><ele>518.6</ele><time>2014-11-08T13:38:30Z</time></trkpt>
<trkpt lat="30.8862155" lon="34.7925472"><ele>518.7</ele><time>2014-11-08T13:38:36Z</time></trkpt>
<trkpt lat="30.8858673" lon="34.7926034"><ele>518.0</ele><time>2014-11-08T13:38:40Z</time></trkpt>
<trkpt lat="30.8853451" lon="34.7926260"><ele>513.0</ele><time>2014-11-08T13:38:45Z</time></trkpt>
<trkpt lat="30.8848676" lon="34.7926269"><ele>511.0</ele><time>2014-11-08T13:38:49Z</time></trkpt>
<trkpt lat="30.8845807" lon="34.7926688"><ele>509.7</ele><time>2014-11-08T13:38:53Z</time></trkpt>
<trkpt lat="30.8842052" lon="34.7928046"><ele>508.0</ele><time>2014-11-08T13:38:57Z</time></trkpt>
<trkpt lat="30.8839027" lon="34.7930189"><ele>505.6</ele><time>2014-11-08T13:39:01Z</time></trkpt>
<trkpt lat="30.8836785" lon="34.7932434"><ele>503.7</ele><time>2014-11-08T13:39:04Z</time></trkpt>
<trkpt lat="30.8835755" lon="34.7932936"><ele>503.0</ele><time>2014-11-08T13:39:05Z</time></trkpt>
<trkpt lat="30.8833945" lon="34.7937246"><ele>499.8</ele><time>2014-11-08T13:39:10Z</time></trkpt>
<trkpt lat="30.8833366" lon="34.7939208"><ele>498.0</ele><time>2014-11-08T13:39:13Z</time></trkpt>
<trkpt lat="30.8832518" lon="34.7939806"><ele>497.8</ele><time>2014-11-08T13:39:15Z</time></trkpt>
<trkpt lat="30.8831938" lon="34.7939816"><ele>497.7</ele><time>2014-11-08T13:39:16Z</time></trkpt>
<trkpt lat="30.8827038" lon="34.7938633"><ele>497.1</ele><time>2014-11-08T13:39:22Z</time></trkpt>
<trkpt lat="30.8825599" lon="34.7938033"><ele>496.8</ele><time>2014-11-08T13:39:25Z</time></trkpt>
<trkpt lat="30.8823517" lon="34.7937710"><ele>496.3</ele><time>2014-11-08T13:39:28Z</time></trkpt>
<trkpt lat="30.8818578" lon="34.7935831"><ele>497.8</ele><time>2014-11-08T13:39:33Z</time></trkpt>
<trkpt lat="30.8814291" lon="34.7934536"><ele>500.5</ele><time>2014-11-08T13:39:40Z</time></trkpt>
<trkpt lat="30.8810441" lon="34.7932516"><ele>501.0</ele><time>2014-11-08T13:39:46Z</time></trkpt>
<trkpt lat="30.8806509" lon="34.7929248"><ele>497.7</ele><time>2014-11-08T13:39:52Z</time></trkpt>
<trkpt lat="30.8801951" lon="34.7925524"><ele>495.8</ele><time>2014-11-08T13:39:59Z</time></trkpt>
<trkpt lat="30.8800534" lon="34.7924415"><ele>495.4</ele><time>2014-11-08T13:40:01Z</time></trkpt>
<trkpt lat="30.8799972" lon="34.7923664"><ele>495.2</ele><time>2014-11-08T13:40:02Z</time></trkpt>
<trkpt lat="30.8798207" lon="34.7922454"><ele>495.1</ele><time>2014-11-08T13:40:04Z</time></trkpt>
<trkpt lat="30.8797821" lon="34.7921884"><ele>495.3</ele><time>2014-11-08T13:40:06Z</time></trkpt>
<trkpt lat="30.8796985" lon="34.7921441"><ele>495.3</ele><time>2014-11-08T13:40:07Z</time></trkpt>
<trkpt lat="30.8793496" lon="34.7917763"><ele>496.0</ele><time>2014-11-08T13:40:14Z</time></trkpt>
<trkpt lat="30.8789877" lon="34.7913702"><ele>495.5</ele><time>2014-11-08T13:40:20Z</time></trkpt>
<trkpt lat="30.8789121" lon="34.7912481"><ele>495.4</ele><time>2014-11-08T13:40:21Z</time></trkpt>
<trkpt lat="30.8788731" lon="34.7912519"><ele>495.3</ele><time>2014-11-08T13:40:22Z</time></trkpt>
<trkpt lat="30.8784909" lon="34.7908480"><ele>494.6</ele><time>2014-11-08T13:40:28Z</time></trkpt>
<trkpt lat="30.8781214" lon="34.7904656"><ele>493.7</ele><time>2014-11-08T13:40:33Z</time></trkpt>
<trkpt lat="30.8777566" lon="34.7901180"><ele>493.0</ele><time>2014-11-08T13:40:40Z</time></trkpt>
<trkpt lat="30.8773889" lon="34.7897732"><ele>492.4</ele><time>2014-11-08T13:40:46Z</time></trkpt>
<trkpt lat="30.8770959" lon="34.7893957"><ele>491.7</ele><time>2014-11-08T13:40:52Z</time></trkpt>
<trkpt lat="30.8768861" lon="34.7891630"><ele>491.4</ele><time>2014-11-08T13:40:55Z</time></trkpt>
<trkpt lat="30.8765961" lon="34.7886631"><ele>489.8</ele><time>2014-11-08T13:41:02Z</time></trkpt>
<trkpt lat="30.8762691" lon="34.7881948"><ele>485.5</ele><time>2014-11-08T13:41:09Z</time></trkpt>
<trkpt lat="30.8760049" lon="34.7877564"><ele>481.0</ele><time>2014-11-08T13:41:15Z</time></trkpt>
<trkpt lat="30.8759626" lon="34.7876898"><ele>480.4</ele><time>2014-11-08T13:41:16Z</time></trkpt>
<trkpt lat="30.8759224" lon="34.7875577"><ele>478.7</ele><time>2014-11-08T13:41:18Z</time></trkpt>
<trkpt lat="30.8756323" lon="34.7871103"><ele>475.2</ele><time>2014-11-08T13:41:25Z</time></trkpt>
<trkpt lat="30.8753823" lon="34.7867167"><ele>473.3</ele><time>2014-11-08T13:41:33Z</time></trkpt>
<trkpt lat="30.8751908" lon="34.7864030"><ele>470.9</ele><time>2014-11-08T13:41:37Z</time></trkpt>
</trkseg>
<trkseg>
<trkpt lat="30.8751908" lon="34.7864030"><ele>470.9</ele><time>2014-11-08T13:56:13Z</time></trkpt>
<trkpt lat="30.8750088" lon="34.7861341"><ele>468.7</ele><time>2014-11-08T13:56:22Z</time></trkpt>
<trkpt lat="30.8749477" lon="34.7860596"><ele>468.9</ele><time>2014-11-08T13:56:24Z</time></trkpt>
<trkpt lat="30.8748407" lon="34.7860205"><ele>469.0</ele><time>2014-11-08T13:56:25Z</time></trkpt>
<trkpt lat="30.8744914" lon="34.7856022"><ele>466.5</ele><time>2014-11-08T13:56:34Z</time></trkpt>
<trkpt lat="30.8741396" lon="34.7852327"><ele>465.0</ele><time>2014-11-08T13:56:43Z</time></trkpt>
<trkpt lat="30.8738912" lon="34.7849872"><ele>464.2</ele><time>2014-11-08T13:56:50Z</time></trkpt>
<trkpt lat="30.8738395" lon="34.7849774"><ele>464.4</ele><time>2014-11-08T13:56:51Z</time></trkpt>
<trkpt lat="30.8735046" lon="34.7846089"><ele>469.4</ele><time>2014-11-08T13:57:04Z</time></trkpt>
<trkpt lat="30.8731613" lon="34.7842657"><ele>471.0</ele><time>2014-11-08T13:57:16Z</time></trkpt>
<trkpt lat="30.8727782" lon="34.7839371"><ele>469.3</ele><time>2014-11-08T13:57:27Z</time></trkpt>
<trkpt lat="30.8724293" lon="34.7835818"><ele>469.0</ele><time>2014-11-08T13:57:38Z</time></trkpt>
<trkpt lat="30.8720593" lon="34.7832181"><ele>473.1</ele><time>2014-11-08T13:57:51Z</time></trkpt>
<trkpt lat="30.8717206" lon="34.7828561"><ele>474.0</ele><time>2014-11-08T13:58:02Z</time></trkpt>
<trkpt lat="30.8713626" lon="34.7824768"><ele>477.2</ele><time>2014-11-08T13:58:20Z</time></trkpt>
<trkpt lat="30.8709963" lon="34.7821226"><ele>474.0</ele><time>2014-11-08T13:58:32Z</time></trkpt>
<trkpt lat="30.8706350" lon="34.7817574"><ele>472.2</ele><time>2014-11-08T13:58:45Z</time></trkpt>
<trkpt lat="30.8704493" lon="34.7816151"><ele>472.0</ele><time>2014-11-08T13:58:50Z</time></trkpt>
<trkpt lat="30.8703060" lon="34.7815669"><ele>472.0</ele><time>2014-11-08T13:58:52Z</time></trkpt>
<trkpt lat="30.8703191" lon="34.7815484"><ele>472.0</ele><time>2014-11-08T13:58:53Z</time></trkpt>
<trkpt lat="30.8699569" lon="34.7811487"><ele>469.1</ele><time>2014-11-08T13:59:05Z</time></trkpt>
<trkpt lat="30.8696967" lon="34.7808695"><ele>468.5</ele><time>2014-11-08T13:59:14Z</time></trkpt>
<trkpt lat="30.8695693" lon="34.7807804"><ele>469.6</ele><time>2014-11-08T13:59:17Z</time></trkpt>
<trkpt lat="30.8696010" lon="34.7807542"><ele>470.5</ele><time>2014-11-08T13:59:18Z</time></trkpt>
<trkpt lat="30.8695228" lon="34.7806961"><ele>473.0</ele><time>2014-11-08T13:59:21Z</time></trkpt>
<trkpt lat="30.8690856" lon="34.7804298"><ele>478.8</ele><time>2014-11-08T13:59:35Z</time></trkpt>
<trkpt lat="30.8686620" lon="34.7801500"><ele>478.0</ele><time>2014-11-08T13:59:46Z</time></trkpt>
<trkpt lat="30.8682407" lon="34.7798739"><ele>479.8</ele><time>2014-11-08T13:59:57Z</time></trkpt>
<trkpt lat="30.8680860" lon="34.7797694"><ele>480.2</ele><time>2014-11-08T14:00:01Z</time></trkpt>
<trkpt lat="30.8678469" lon="34.7796765"><ele>480.8</ele><time>2014-11-08T14:00:06Z</time></trkpt>
<trkpt lat="30.8674739" lon="34.7793849"><ele>481.8</ele><time>2014-11-08T14:00:16Z</time></trkpt>
<trkpt lat="30.8670274" lon="34.7791170"><ele>481.1</ele><time>2014-11-08T14:00:26Z</time></trkpt>
<trkpt lat="30.8668807" lon="34.7790520"><ele>482.0</ele><time>2014-11-08T14:00:30Z</time></trkpt>
<trkpt lat="30.8664813" lon="34.7787532"><ele>484.6</ele><time>2014-11-08T14:00:41Z</time></trkpt>
<trkpt lat="30.8660851" lon="34.7784744"><ele>483.5</ele><time>2014-11-08T14:00:52Z</time></trkpt>
<trkpt lat="30.8658162" lon="34.7782681"><ele>484.0</ele><time>2014-11-08T14:00:59Z</time></trkpt>
<trkpt lat="30.8657718" lon="34.7782791"><ele>484.1</ele><time>2014-11-08T14:01:00Z</time></trkpt>
<trkpt lat="30.8657133" lon="34.7782166"><ele>484.3</ele><time>2014-11-08T14:01:02Z</time></trkpt>
<trkpt lat="30.8654774" lon="34.7780931"><ele>484.6</ele><time>2014-11-08T14:01:07Z</time></trkpt>
<trkpt lat="30.8650787" lon="34.7778269"><ele>484.2</ele><time>2014-11-08T14:01:16Z</time></trkpt>
<trkpt lat="30.8646700" lon="34.7775525"><ele>482.4</ele><time>2014-11-08T14:01:26Z</time></trkpt>
<trkpt lat="30.8645051" lon="34.7774011"><ele>481.6</ele><time>2014-11-08T14:01:31Z</time></trkpt>
<trkpt lat="30.8640822" lon="34.7771635"><ele>485.0</ele><time>2014-11-08T14:01:40Z</time></trkpt>
<trkpt lat="30.8637576" lon="34.7769495"><ele>484.3</ele><time>2014-11-08T14:01:47Z</time></trkpt>
<trkpt lat="30.8637601" lon="34.7769100"><ele>484.5</ele><time>2014-11-08T14:01:48Z</time></trkpt>
<trkpt lat="30.8635873" lon="34.7767657"><ele>485.2</ele><time>2014-11-08T14:01:53Z</time></trkpt>
<trkpt lat="30.8631361" lon="34.7765032"><ele>487.5</ele><time>2014-11-08T14:02:04Z</time></trkpt>
<trkpt lat="30.8627131" lon="34.7762139"><ele>490.0</ele><time>2014-11-08T14:02:15Z</time></trkpt>
<trkpt lat="30.8624865" lon="34.7760203"><ele>489.7</ele><time>2014-11-08T14:02:21Z</time></trkpt>
<trkpt lat="30.8622881" lon="34.7759196"><ele>489.0</ele><time>2014-11-08T14:02:25Z</time></trkpt>
<trkpt lat="30.8622165" lon="34.7759097"><ele>488.8</ele><time>2014-11-08T14:02:26Z</time></trkpt>
<trkpt lat="30.8622002" lon="34.7758652"><ele>488.7</ele><time>2014-11-08T14:02:27Z</time></trkpt>
<trkpt lat="30.8620103" lon="34.7757450"><ele>488.0</ele><time>2014-11-08T14:02:31Z</time></trkpt>
<trkpt lat="30.8617735" lon="34.7755329"><ele>485.8</ele><time>2014-11-08T14:02:38Z</time></trkpt>
<trkpt lat="30.8615409" lon="34.7753999"><ele>484.8</ele><time>2014-11-08T14:02:43Z</time></trkpt>
<trkpt lat="30.8614348" lon="34.7752795"><ele>484.2</ele><time>2014-11-08T14:02:46Z</time></trkpt>
<trkpt lat="30.8609800" lon="34.7750442"><ele>482.0</ele><time>2014-11-08T14:02:55Z</time></trkpt>
<trkpt lat="30.8609391" lon="34.7750173"><ele>482.0</ele><time>2014-11-08T14:02:57Z</time></trkpt>
<trkpt lat="30.8608968" lon="34.7749368"><ele>482.0</ele><time>2014-11-08T14:02:59Z</time></trkpt>
<trkpt lat="30.8608351" lon="34.7749191"><ele>482.4</ele><time>2014-11-08T14:03:00Z</time></trkpt>
<trkpt lat="30.8606790" lon="34.7748006"><ele>483.6</ele><time>2014-11-08T14:03:06Z</time></trkpt>
<trkpt lat="30.8606652" lon="34.7747412"><ele>483.5</ele><time>2014-11-08T14:03:07Z</time></trkpt>
<trkpt lat="30.8605496" lon="34.7747381"><ele>483.2</ele><time>2014-11-08T14:03:09Z</time></trkpt>
<trkpt lat="30.8604203" lon="34.7746323"><ele>481.8</ele><time>2014-11-08T14:03:13Z</time></trkpt>
<trkpt lat="30.8601277" lon="34.7745205"><ele>482.5</ele><time>2014-11-08T14:03:18Z</time></trkpt>
<trkpt lat="30.8601300" lon="34.7744763"><ele>483.5</ele><time>2014-11-08T14:03:20Z</time></trkpt>
<trkpt lat="30.8601008" lon="34.7744256"><ele>484.0</ele><time>2014-11-08T14:03:21Z</time></trkpt>
<trkpt lat="30.8596758" lon="34.7741695"><ele>490.8</ele><time>2014-11-08T14:03:33Z</time></trkpt>
<trkpt lat="30.8592510" lon="34.7739423"><ele>498.1</ele><time>2014-11-08T14:03:46Z</time></trkpt>
<trkpt lat="30.8587528" lon="34.7736646"><ele>494.6</ele><time>2014-11-08T14:03:56Z</time></trkpt>
<trkpt lat="30.8587281" lon="34.7736140"><ele>494.0</ele><time>2014-11-08T14:03:57Z</time></trkpt>
<trkpt lat="30.8583372" lon="34.7733223"><ele>487.8</ele><time>2014-11-08T14:04:05Z</time></trkpt>
<trkpt lat="30.8579877" lon="34.7731522"><ele>486.2</ele><time>2014-11-08T14:04:14Z</time></trkpt>
<trkpt lat="30.8575652" lon="34.7728248"><ele>486.8</ele><time>2014-11-08T14:04:25Z</time></trkpt>
<trkpt lat="30.8573297" lon="34.7726706"><ele>487.2</ele><time>2014-11-08T14:04:30Z</time></trkpt>
<trkpt lat="30.8571846" lon="34.7726148"><ele>487.4</ele><time>2014-11-08T14:04:33Z</time></trkpt>
<trkpt lat="30.8567976" lon="34.7723460"><ele>487.9</ele><time>2014-11-08T14:04:42Z</time></trkpt>
<trkpt lat="30.8566706" lon="34.7722759"><ele>488.4</ele><time>2014-11-08T14:04:45Z</time></trkpt>
<trkpt lat="30.8562825" lon="34.7719558"><ele>489.1</ele><time>2014-11-08T14:04:55Z</time></trkpt>
<trkpt lat="30.8560065" lon="34.7717317"><ele>490.1</ele><time>2014-11-08T14:05:02Z</time></trkpt>
<trkpt lat="30.8559671" lon="34.7716743"><ele>490.2</ele><time>2014-11-08T14:05:03Z</time></trkpt>
<trkpt lat="30.8557656" lon="34.7715602"><ele>490.9</ele><time>2014-11-08T14:05:08Z</time></trkpt>
<trkpt lat="30.8557313" lon="34.7714613"><ele>491.2</ele><time>2014-11-08T14:05:10Z</time></trkpt>
<trkpt lat="30.8556281" lon="34.7714539"><ele>491.3</ele><time>2014-11-08T14:05:11Z</time></trkpt>
<trkpt lat="30.8553459" lon="34.7712378"><ele>492.2</ele><time>2014-11-08T14:05:17Z</time></trkpt>
<trkpt lat="30.8552277" lon="34.7709924"><ele>492.9</ele><time>2014-11-08T14:05:21Z</time></trkpt>
<trkpt lat="30.8551798" lon="34.7709451"><ele>493.1</ele><time>2014-11-08T14:05:22Z</time></trkpt>
<trkpt lat="30.8551509" lon="34.7709686"><ele>493.3</ele><time>2014-11-08T14:05:23Z</time></trkpt>
<trkpt lat="30.8550673" lon="34.7709591"><ele>493.4</ele><time>2014-11-08T14:05:24Z</time></trkpt>
<trkpt lat="30.8546779" lon="34.7706393"><ele>495.8</ele><time>2014-11-08T14:05:34Z</time></trkpt>
<trkpt lat="30.8543174" lon="34.7703225"><ele>495.0</ele><time>2014-11-08T14:05:43Z</time></trkpt>
<trkpt lat="30.8541763" lon="34.7702303"><ele>496.0</ele><time>2014-11-08T14:05:46Z</time></trkpt>
<trkpt lat="30.8537909" lon="34.7699214"><ele>498.0</ele><time>2014-11-08T14:05:55Z</time></trkpt>
<trkpt lat="30.8537116" lon="34.7698412"><ele>498.0</ele><time>2014-11-08T14:05:57Z</time></trkpt>
<trkpt lat="30.8535976" lon="34.7697928"><ele>498.0</ele><time>2014-11-08T14:05:59Z</time></trkpt>
<trkpt lat="30.8535531" lon="34.7697020"><ele>498.0</ele><time>2014-11-08T14:06:01Z</time></trkpt>
<trkpt lat="30.8532056" lon="34.7693956"><ele>496.9</ele><time>2014-11-08T14:06:10Z</time></trkpt>
<trkpt lat="30.8530949" lon="34.7693399"><ele>497.6</ele><time>2014-11-08T14:06:12Z</time></trkpt>
<trkpt lat="30.8530048" lon="34.7692420"><ele>498.3</ele><time>2014-11-08T14:06:15Z</time></trkpt>
<trkpt lat="30.8525937" lon="34.7689716"><ele>499.4</ele><time>2014-11-08T14:06:24Z</time></trkpt>
<trkpt lat="30.8523908" lon="34.7688699"><ele>500.1</ele><time>2014-11-08T14:06:29Z</time></trkpt>
<trkpt lat="30.8519611" lon="34.7686265"><ele>500.2</ele><time>2014-11-08T14:06:38Z</time></trkpt>
<trkpt lat="30.8516013" lon="34.7684170"><ele>497.4</ele><time>2014-11-08T14:06:45Z</time></trkpt>
<trkpt lat="30.8513098" lon="34.7682960"><ele>497.4</ele><time>2014-11-08T14:06:50Z</time></trkpt>
<trkpt lat="30.8512969" lon="34.7682354"><ele>497.4</ele><time>2014-11-08T14:06:51Z</time></trkpt>
<trkpt lat="30.8509063" lon="34.7678899"><ele>497.5</ele><time>2014-11-08T14:07:00Z</time></trkpt>
<trkpt lat="30.8506715" lon="34.7676412"><ele>496.4</ele><time>2014-11-08T14:07:05Z</time></trkpt>
<trkpt lat="30.8505983" lon="34.7674721"><ele>495.7</ele><time>2014-11-08T14:07:08Z</time></trkpt>
<trkpt lat="30.8502366" lon="34.7670992"><ele>494.0</ele><time>2014-11-08T14:07:16Z</time></trkpt>
<trkpt lat="30.8499590" lon="34.7666862"><ele>493.8</ele><time>2014-11-08T14:07:24Z</time></trkpt>
<trkpt lat="30.8497716" lon="34.7663115"><ele>493.4</ele><time>2014-11-08T14:07:31Z</time></trkpt>
<trkpt lat="30.8495003" lon="34.7658816"><ele>493.3</ele><time>2014-11-08T14:07:38Z</time></trkpt>
<trkpt lat="30.8495524" lon="34.7658350"><ele>493.6</ele><time>2014-11-08T14:07:39Z</time></trkpt>
<trkpt lat="30.8494378" lon="34.7656655"><ele>494.7</ele><time>2014-11-08T14:07:42Z</time></trkpt>
<trkpt lat="30.8494338" lon="34.7655270"><ele>496.1</ele><time>2014-11-08T14:07:45Z</time></trkpt>
<trkpt lat="30.8491690" lon="34.7650603"><ele>497.2</ele><time>2014-11-08T14:07:53Z</time></trkpt>
<trkpt lat="30.8489778" lon="34.7645419"><ele>498.5</ele><time>2014-11-08T14:08:03Z</time></trkpt>
<trkpt lat="30.8487949" lon="34.7640210"><ele>502.0</ele><time>2014-11-08T14:08:12Z</time></trkpt>
<trkpt lat="30.8487766" lon="34.7638663"><ele>502.0</ele><time>2014-11-08T14:08:15Z</time></trkpt>
<trkpt lat="30.8486343" lon="34.7633763"><ele>502.1</ele><time>2014-11-08T14:08:23Z</time></trkpt>
<trkpt lat="30.8486489" lon="34.7633361"><ele>502.1</ele><time>2014-11-08T14:08:24Z</time></trkpt>
<trkpt lat="30.8485349" lon="34.7630861"><ele>502.4</ele><time>2014-11-08T14:08:28Z</time></trkpt>
<trkpt lat="30.8485397" lon="34.7630303"><ele>502.4</ele><time>2014-11-08T14:08:29Z</time></trkpt>
<trkpt lat="30.8483497" lon="34.7625297"><ele>503.0</ele><time>2014-11-08T14:08:38Z</time></trkpt>
<trkpt lat="30.8481690" lon="34.7620215"><ele>502.6</ele><time>2014-11-08T14:08:47Z</time></trkpt>
<trkpt lat="30.8481214" lon="34.7617696"><ele>503.2</ele><time>2014-11-08T14:08:51Z</time></trkpt>
<trkpt lat="30.8479646" lon="34.7612615"><ele>504.8</ele><time>2014-11-08T14:09:00Z</time></trkpt>
<trkpt lat="30.8477989" lon="34.7607468"><ele>506.5</ele><time>2014-11-08T14:09:10Z</time></trkpt>
<trkpt lat="30.8477497" lon="34.7606096"><ele>507.5</ele><time>2014-11-08T14:09:12Z</time></trkpt>
<trkpt lat="30.8477472" lon="34.7603622"><ele>508.7</ele><time>2014-11-08T14:09:17Z</time></trkpt>
<trkpt lat="30.8477103" lon="34.7602777"><ele>509.1</ele><time>2014-11-08T14:09:19Z</time></trkpt>
<trkpt lat="30.8478217" lon="34.7597356"><ele>510.5</ele><time>2014-11-08T14:09:30Z</time></trkpt>
<trkpt lat="30.8480003" lon="34.7592202"><ele>513.5</ele><time>2014-11-08T14:09:40Z</time></trkpt>
<trkpt lat="30.8483023" lon="34.7587685"><ele>512.8</ele><time>2014-11-08T14:09:48Z</time></trkpt>
<trkpt lat="30.8485186" lon="34.7582982"><ele>513.0</ele><time>2014-11-08T14:09:57Z</time></trkpt>
<trkpt lat="30.8486759" lon="34.7577915"><ele>514.8</ele><time>2014-11-08T14:10:07Z</time></trkpt>
<trkpt lat="30.8487801" lon="34.7572779"><ele>516.0</ele><time>2014-11-08T14:10:16Z</time></trkpt>
<trkpt lat="30.8488396" lon="34.7569576"><ele>516.0</ele><time>2014-11-08T14:10:20Z</time></trkpt>
<trkpt lat="30.8488710" lon="34.7568943"><ele>515.9</ele><time>2014-11-08T14:10:21Z</time></trkpt>
<trkpt lat="30.8488980" lon="34.7562941"><ele>515.6</ele><time>2014-11-08T14:10:29Z</time></trkpt>
<trkpt lat="30.8489506" lon="34.7557356"><ele>515.3</ele><time>2014-11-08T14:10:36Z</time></trkpt>
<trkpt lat="30.8489398" lon="34.7552251"><ele>515.0</ele><time>2014-11-08T14:10:42Z</time></trkpt>
<trkpt lat="30.8489325" lon="34.7546662"><ele>508.0</ele><time>2014-11-08T14:10:48Z</time></trkpt>
<trkpt lat="30.8489274" lon="34.7545713"><ele>507.9</ele><time>2014-11-08T14:10:49Z</time></trkpt>
<trkpt lat="30.8487851" lon="34.7540842"><ele>507.4</ele><time>2014-11-08T14:10:55Z</time></trkpt>
<trkpt lat="30.8486087" lon="34.7537079"><ele>506.3</ele><time>2014-11-08T14:11:00Z</time></trkpt>
<trkpt lat="30.8482889" lon="34.7532520"><ele>502.0</ele><time>2014-11-08T14:11:06Z</time></trkpt>
<trkpt lat="30.8480719" lon="34.7530085"><ele>502.0</ele><time>2014-11-08T14:11:10Z</time></trkpt>
<trkpt lat="30.8479500" lon="34.7529176"><ele>502.0</ele><time>2014-11-08T14:11:12Z</time></trkpt>
<trkpt lat="30.8479128" lon="34.7528210"><ele>502.0</ele><time>2014-11-08T14:11:13Z</time></trkpt>
<trkpt lat="30.8477023" lon="34.7525647"><ele>502.1</ele><time>2014-11-08T14:11:17Z</time></trkpt>
<trkpt lat="30.8474359" lon="34.7520755"><ele>502.9</ele><time>2014-11-08T14:11:24Z</time></trkpt>
<trkpt lat="30.8473993" lon="34.7520012"><ele>503.1</ele><time>2014-11-08T14:11:25Z</time></trkpt>
<trkpt lat="30.8474015" lon="34.7518834"><ele>503.2</ele><time>2014-11-08T14:11:26Z</time></trkpt>
<trkpt lat="30.8472735" lon="34.7513503"><ele>503.9</ele><time>2014-11-08T14:11:32Z</time></trkpt>
<trkpt lat="30.8472381" lon="34.7508246"><ele>501.6</ele><time>2014-11-08T14:11:37Z</time></trkpt>
<trkpt lat="30.8472144" lon="34.7506357"><ele>501.0</ele><time>2014-11-08T14:11:39Z</time></trkpt>
<trkpt lat="30.8472323" lon="34.7500397"><ele>501.0</ele><time>2014-11-08T14:11:45Z</time></trkpt>
<trkpt lat="30.8472288" lon="34.7498193"><ele>501.0</ele><time>2014-11-08T14:11:47Z</time></trkpt>
<trkpt lat="30.8471800" lon="34.7496355"><ele>501.0</ele><time>2014-11-08T14:11:49Z</time></trkpt>
<trkpt lat="30.8471796" lon="34.7495197"><ele>500.9</ele><time>2014-11-08T14:11:50Z</time></trkpt>
<trkpt lat="30.8471179" lon="34.7493262"><ele>500.5</ele><time>2014-11-08T14:11:52Z</time></trkpt>
<trkpt lat="30.8470920" lon="34.7490267"><ele>500.0</ele><time>2014-11-08T14:11:55Z</time></trkpt>
<trkpt lat="30.8469647" lon="34.7487143"><ele>499.5</ele><time>2014-11-08T14:11:58Z</time></trkpt>
<trkpt lat="30.8469632" lon="34.7485332"><ele>499.3</ele><time>2014-11-08T14:11:59Z</time></trkpt>
<trkpt lat="30.8468779" lon="34.7483177"><ele>499.0</ele><time>2014-11-08T14:12:01Z</time></trkpt>
<trkpt lat="30.8468599" lon="34.7482063"><ele>499.0</ele><time>2014-11-08T14:12:02Z</time></trkpt>
<trkpt lat="30.8468040" lon="34.7481259"><ele>499.0</ele><time>2014-11-08T14:12:03Z</time></trkpt>
<trkpt lat="30.8467790" lon="34.7479917"><ele>499.0</ele><time>2014-11-08T14:12:04Z</time></trkpt>
<trkpt lat="30.8465463" lon="34.7474248"><ele>499.0</ele><time>2014-11-08T14:12:10Z</time></trkpt>
<trkpt lat="30.8463209" lon="34.7470670"><ele>498.8</ele><time>2014-11-08T14:12:14Z</time></trkpt>
<trkpt lat="30.8463184" lon="34.7469837"><ele>498.7</ele><time>2014-11-08T14:12:15Z</time></trkpt>
<trkpt lat="30.8461442" lon="34.7466842"><ele>498.3</ele><time>2014-11-08T14:12:19Z</time></trkpt>
<trkpt lat="30.8460928" lon="34.7465015"><ele>498.1</ele><time>2014-11-08T14:12:21Z</time></trkpt>
<trkpt lat="30.8460173" lon="34.7464303"><ele>498.0</ele><time>2014-11-08T14:12:22Z</time></trkpt>
<trkpt lat="30.8457858" lon="34.7459786"><ele>497.4</ele><time>2014-11-08T14:12:28Z</time></trkpt>
<trkpt lat="30.8455189" lon="34.7455127"><ele>496.7</ele><time>2014-11-08T14:12:34Z</time></trkpt>
<trkpt lat="30.8452600" lon="34.7450564"><ele>496.1</ele><time>2014-11-08T14:12:40Z</time></trkpt>
<trkpt lat="30.8449481" lon="34.7446638"><ele>495.6</ele><time>2014-11-08T14:12:45Z</time></trkpt>
<trkpt lat="30.8446946" lon="34.7443612"><ele>495.2</ele><time>2014-11-08T14:12:49Z</time></trkpt>
<trkpt lat="30.8444864" lon="34.7441816"><ele>495.0</ele><time>2014-11-08T14:12:52Z</time></trkpt>
<trkpt lat="30.8442654" lon="34.7439291"><ele>495.0</ele><time>2014-11-08T14:12:55Z</time></trkpt>
<trkpt lat="30.8438200" lon="34.7436089"><ele>492.5</ele><time>2014-11-08T14:13:01Z</time></trkpt>
<trkpt lat="30.8435080" lon="34.7433968"><ele>490.5</ele><time>2014-11-08T14:13:05Z</time></trkpt>
<trkpt lat="30.8433437" lon="34.7433252"><ele>489.5</ele><time>2014-11-08T14:13:07Z</time></trkpt>
<trkpt lat="30.8430400" lon="34.7431485"><ele>488.0</ele><time>2014-11-08T14:13:10Z</time></trkpt>
<trkpt lat="30.8429959" lon="34.7431882"><ele>487.5</ele><time>2014-11-08T14:13:11Z</time></trkpt>
<trkpt lat="30.8425686" lon="34.7430005"><ele>487.8</ele><time>2014-11-08T14:13:17Z</time></trkpt>
<trkpt lat="30.8421184" lon="34.7427831"><ele>488.0</ele><time>2014-11-08T14:13:25Z</time></trkpt>
<trkpt lat="30.8419508" lon="34.7426954"><ele>488.6</ele><time>2014-11-08T14:13:28Z</time></trkpt>
<trkpt lat="30.8417675" lon="34.7426472"><ele>489.1</ele><time>2014-11-08T14:13:31Z</time></trkpt>
<trkpt lat="30.8417558" lon="34.7426111"><ele>489.3</ele><time>2014-11-08T14:13:32Z</time></trkpt>
<trkpt lat="30.8415269" lon="34.7425345"><ele>490.0</ele><time>2014-11-08T14:13:36Z</time></trkpt>
<trkpt lat="30.8415109" lon="34.7424939"><ele>490.1</ele><time>2014-11-08T14:13:37Z</time></trkpt>
<trkpt lat="30.8410831" lon="34.7423190"><ele>490.8</ele><time>2014-11-08T14:13:46Z</time></trkpt>
<trkpt lat="30.8406590" lon="34.7421179"><ele>490.1</ele><time>2014-11-08T14:13:53Z</time></trkpt>
<trkpt lat="30.8402112" lon="34.7419262"><ele>489.4</ele><time>2014-11-08T14:14:03Z</time></trkpt>
<trkpt lat="30.8397927" lon="34.7417684"><ele>490.4</ele><time>2014-11-08T14:14:12Z</time></trkpt>
<trkpt lat="30.8397450" lon="34.7417715"><ele>490.6</ele><time>2014-11-08T14:14:13Z</time></trkpt>
<trkpt lat="30.8393920" lon="34.7416042"><ele>491.4</ele><time>2014-11-08T14:14:21Z</time></trkpt>
<trkpt lat="30.8393094" lon="34.7415869"><ele>491.7</ele><time>2014-11-08T14:14:23Z</time></trkpt>
<trkpt lat="30.8388846" lon="34.7413322"><ele>491.3</ele><time>2014-11-08T14:14:34Z</time></trkpt>
<trkpt lat="30.8384176" lon="34.7411294"><ele>492.0</ele><time>2014-11-08T14:14:44Z</time></trkpt>
<trkpt lat="30.8379376" lon="34.7409166"><ele>493.8</ele><time>2014-11-08T14:14:53Z</time></trkpt>
<trkpt lat="30.8375115" lon="34.7407440"><ele>495.3</ele><time>2014-11-08T14:15:01Z</time></trkpt>
<trkpt lat="30.8370485" lon="34.7405250"><ele>493.5</ele><time>2014-11-08T14:15:12Z</time></trkpt>
<trkpt lat="30.8366075" lon="34.7403048"><ele>493.9</ele><time>2014-11-08T14:15:20Z</time></trkpt>
<trkpt lat="30.8361663" lon="34.7400774"><ele>495.0</ele><time>2014-11-08T14:15:28Z</time></trkpt>
<trkpt lat="30.8357292" lon="34.7398817"><ele>495.9</ele><time>2014-11-08T14:15:38Z</time></trkpt>
<trkpt lat="30.8353874" lon="34.7397076"><ele>497.4</ele><time>2014-11-08T14:15:46Z</time></trkpt>
<trkpt lat="30.8353610" lon="34.7397202"><ele>497.6</ele><time>2014-11-08T14:15:47Z</time></trkpt>
<trkpt lat="30.8352129" lon="34.7394694"><ele>498.7</ele><time>2014-11-08T14:15:52Z</time></trkpt>
<trkpt lat="30.8352570" lon="34.7393812"><ele>499.0</ele><time>2014-11-08T14:15:53Z</time></trkpt>
<trkpt lat="30.8352313" lon="34.7393171"><ele>499.2</ele><time>2014-11-08T14:15:54Z</time></trkpt>
<trkpt lat="30.8352310" lon="34.7392147"><ele>499.8</ele><time>2014-11-08T14:15:56Z</time></trkpt>
<trkpt lat="30.8353743" lon="34.7389877"><ele>501.0</ele><time>2014-11-08T14:16:01Z</time></trkpt>
<trkpt lat="30.8354619" lon="34.7384736"><ele>502.0</ele><time>2014-11-08T14:16:12Z</time></trkpt>
<trkpt lat="30.8354843" lon="34.7378993"><ele>499.5</ele><time>2014-11-08T14:16:24Z</time></trkpt>
<trkpt lat="30.8355182" lon="34.7373216"><ele>498.0</ele><time>2014-11-08T14:16:34Z</time></trkpt>
<trkpt lat="30.8354267" lon="34.7369374"><ele>498.9</ele><time>2014-11-08T14:16:40Z</time></trkpt>
<trkpt lat="30.8353125" lon="34.7367256"><ele>498.4</ele><time>2014-11-08T14:16:43Z</time></trkpt>
<trkpt lat="30.8353167" lon="34.7366634"><ele>498.2</ele><time>2014-11-08T14:16:44Z</time></trkpt>
<trkpt lat="30.8352451" lon="34.7365498"><ele>498.2</ele><time>2014-11-08T14:16:46Z</time></trkpt>
<trkpt lat="30.8352059" lon="34.7363583"><ele>498.7</ele><time>2014-11-08T14:16:49Z</time></trkpt>
<trkpt lat="30.8351581" lon="34.7363054"><ele>498.8</ele><time>2014-11-08T14:16:50Z</time></trkpt>
<trkpt lat="30.8351097" lon="34.7361264"><ele>499.3</ele><time>2014-11-08T14:16:53Z</time></trkpt>
<trkpt lat="30.8348794" lon="34.7357720"><ele>500.5</ele><time>2014-11-08T14:17:00Z</time></trkpt>
<trkpt lat="30.8348700" lon="34.7356887"><ele>501.0</ele><time>2014-11-08T14:17:03Z</time></trkpt>
<trkpt lat="30.8348091" lon="34.7356591"><ele>501.3</ele><time>2014-11-08T14:17:07Z</time></trkpt>
</trkseg>
</trk>
<extensions>
<abvio:xmlVersion>1</abvio:xmlVersion>
<abvio:appInstanceID>5c9aeebec6f25edb</abvio:appInstanceID>
<abvio:runID>31</abvio:runID>
<abvio:routeID>8</abvio:routeID>
<abvio:routeName><![CDATA[בית השנטי]]></abvio:routeName>
<abvio:activityName><![CDATA[Cycle Merckx]]></abvio:activityName>
<abvio:activityTypeID>3</abvio:activityTypeID>
<abvio:activitySpeedBased>1</abvio:activitySpeedBased>
<abvio:startTime>2014-11-08 03:59:00.529</abvio:startTime>
<abvio:startTimeZone>Asia/Jerusalem</abvio:startTimeZone>
<abvio:runTime>25038.554</abvio:runTime>
<abvio:stoppedTime>12099.286</abvio:stoppedTime>
<abvio:badGPSTime>62.406</abvio:badGPSTime>
<abvio:distance>177361.5</abvio:distance>
<abvio:ascent>1241.0</abvio:ascent>
<abvio:descent>722.0</abvio:descent>
<abvio:calories>4200.658</abvio:calories>
<abvio:maxSpeed>13.7</abvio:maxSpeed>
<abvio:minPace>0.073</abvio:minPace>
<abvio:avgHeartRate>0</abvio:avgHeartRate>
<abvio:maxHeartRate>0</abvio:maxHeartRate>
<abvio:avgWheelRPM>0</abvio:avgWheelRPM>
<abvio:maxWheelRPM>0</abvio:maxWheelRPM>
<abvio:avgCrankRPM>-1</abvio:avgCrankRPM>
<abvio:maxCrankRPM>-1</abvio:maxCrankRPM>
<abvio:avgPower>-1</abvio:avgPower>
<abvio:maxPower>-1</abvio:maxPower>
<abvio:thresholdPower>0</abvio:thresholdPower>
<abvio:adjustedPower>-1</abvio:adjustedPower>
<abvio:powerIntensity>0.000</abvio:powerIntensity>
<abvio:powerScore>-1</abvio:powerScore>
<abvio:peakPower20Sec>-1</abvio:peakPower20Sec>
<abvio:peakPower1Min>-1</abvio:peakPower1Min>
<abvio:peakPower5Min>-1</abvio:peakPower5Min>
<abvio:peakPower10Min>-1</abvio:peakPower10Min>
<abvio:peakPower20Min>-1</abvio:peakPower20Min>
<abvio:peakPower1Hr>-1</abvio:peakPower1Hr>
<abvio:weight>56.0</abvio:weight>
<abvio:age>33</abvio:age>
<abvio:genderMale>1</abvio:genderMale>
<abvio:vo2Max>0.0</abvio:vo2Max>
<abvio:wheelSize>0.67</abvio:wheelSize>
<abvio:official>1</abvio:official>
<abvio:runEditFlags>0</abvio:runEditFlags>
<abvio:dontLoadRunData>0</abvio:dontLoadRunData>
<abvio:batteryUsage>0.65</abvio:batteryUsage>
<abvio:pathOnly>0</abvio:pathOnly>
<abvio:competitorInitials><![CDATA[]]></abvio:competitorInitials>
<abvio:stopDetection>1</abvio:stopDetection>
<abvio:caloriesUseElevation>1</abvio:caloriesUseElevation>
<abvio:notes><![CDATA[]]></abvio:notes>
<abvio:coordinateHasSpeed>1</abvio:coordinateHasSpeed>
<abvio:altitudeHasDistanceDelta>0</abvio:altitudeHasDistanceDelta>
<abvio:altitudeHasClimbSpeed>1</abvio:altitudeHasClimbSpeed>
<abvio:altitudeHasLongAltitude>1</abvio:altitudeHasLongAltitude>
<abvio:useIndoors>0</abvio:useIndoors>
<abvio:bikeID>1</abvio:bikeID>
<abvio:bikeName><![CDATA[Merckx]]></abvio:bikeName>
<abvio:shoesID>0</abvio:shoesID>
<abvio:useSteps>0</abvio:useSteps>
<abvio:useStepDistance>0</abvio:useStepDistance>
<abvio:stepLength>-1.000</abvio:stepLength>
<abvio:steps>-1</abvio:steps>
<abvio:grossSteps>0</abvio:grossSteps>
<abvio:maxStepsPM>-1</abvio:maxStepsPM>
<abvio:avgStepsPM>-1</abvio:avgStepsPM>
<abvio:minTemperature>-200.0</abvio:minTemperature>
<abvio:avgTemperature>-200.0</abvio:avgTemperature>
<abvio:maxTemperature>-200.0</abvio:maxTemperature>
<abvio:pathname><![CDATA[]]></abvio:pathname>
<abvio:runStateTable>
0.000,1,0
37137.840,2,0
</abvio:runStateTable>
<abvio:stopDetectionTable>
0.000,0
7.783,3
192.280,2
5285.329,3
5326.328,2
5343.406,3
6879.426,2
6879.426,3
6893.374,2
6893.374,3
6895.371,2
6895.371,3
6967.400,2
6967.400,3
6982.351,2
7020.411,3
7266.353,2
12374.353,3
12396.391,2
12396.391,3
12404.419,2
12404.419,3
12410.410,2
12433.354,3
14325.505,2
14325.505,3
15151.572,2
19930.390,3
19951.458,2
19951.458,3
22036.457,2
22036.457,3
22038.478,2
22038.478,3
22043.440,2
22043.440,3
23079.671,2
26508.518,3
27989.428,2
30463.461,3
30818.483,2
30818.483,3
30882.478,2
30882.478,3
32140.521,2
34956.490,3
34978.497,2
34978.497,3
35832.552,2
37086.522,3
37137.840,1
</abvio:stopDetectionTable>
<abvio:coordinateTable>
6.387,32.0507324,34.7647150,0.0,5.6,0.6
7.783,32.0505972,34.7647944,16.8,5.6,0.6
9.783,32.0506918,34.7648640,12.4,5.6,0.6
14.811,32.0506862,34.7647966,6.4,5.6,0.6
16.845,32.0507420,34.7649922,19.5,5.6,0.6
30.298,32.0506663,34.7649177,11.0,0.5,0.6
38.287,32.0506353,34.7648622,6.3,1.5,0.6
77.281,32.0506177,34.7649890,12.1,0.7,0.6
98.283,32.0506964,34.7650137,9.0,0.7,0.4
157.302,32.0504670,34.7646965,39.3,1.0,0.8
191.269,32.0501672,34.7644692,39.6,2.0,1.0
202.275,32.0497306,34.7642598,52.3,5.1,1.8
207.318,32.0495255,34.7640990,27.4,6.4,2.2
214.341,32.0492478,34.7639544,33.7,4.9,2.7
224.404,32.0488440,34.7636570,52.9,5.3,3.4
233.351,32.0484224,34.7633551,54.8,6.1,4.1
243.264,32.0480148,34.7631093,50.8,5.2,4.8
254.289,32.0475315,34.7630036,54.5,4.9,5.3
262.298,32.0471676,34.7629661,40.5,5.1,5.3
263.306,32.0471618,34.7629881,2.2,4.9,5.2
274.398,32.0466840,34.7628760,54.0,4.9,5.2
284.396,32.0462192,34.7627984,52.1,5.4,5.2
289.282,32.0460028,34.7627756,24.1,5.3,5.1
299.361,32.0455274,34.7627186,53.0,5.3,5.1
301.318,32.0454177,34.7627274,12.2,5.5,5.1
303.281,32.0453387,34.7627036,9.0,5.2,5.1
308.391,32.0450726,34.7628568,32.9,6.2,5.3
317.419,32.0446230,34.7626080,55.1,5.7,5.5
327.502,32.0441121,34.7624844,57.8,5.8,5.6
337.533,32.0436231,34.7623674,55.3,5.6,5.7
346.277,32.0431517,34.7623052,52.6,5.9,5.8
354.350,32.0426922,34.7622459,51.3,6.2,5.9
363.332,32.0421990,34.7621665,55.2,6.2,6.1
372.282,32.0417219,34.7621002,53.3,6.0,6.0
382.311,32.0412482,34.7620332,52.9,5.3,5.9
391.307,32.0407963,34.7619777,50.4,5.6,5.8
400.302,32.0403113,34.7618795,54.6,6.1,5.9
408.378,32.0398335,34.7617489,54.4,6.7,6.0
416.450,32.0393989,34.7615350,52.2,6.5,6.0
424.399,32.0389923,34.7612369,53.2,6.6,6.1
431.331,32.0385527,34.7609470,55.9,7.7,6.3
436.270,32.0382208,34.7607380,41.8,8.4,6.6
441.257,32.0380026,34.7604690,35.1,7.9,6.7
447.351,32.0376444,34.7601423,50.3,7.6,7.0
450.267,32.0374286,34.7599389,30.7,8.8,7.2
452.288,32.0373243,34.7598608,13.7,8.6,7.3
457.345,32.0370731,34.7595914,37.7,8.2,7.4
464.345,32.0366683,34.7593479,50.4,7.4,7.5
470.271,32.0362409,34.7590873,53.4,7.3,7.6
474.341,32.0360801,34.7590482,18.2,7.2,7.6
475.281,32.0360269,34.7591038,7.9,7.3,7.6
480.267,32.0356421,34.7592386,44.5,7.8,7.8
487.366,32.0351107,34.7591653,59.3,9.0,8.0
493.339,32.0346386,34.7591546,52.4,9.1,8.0
499.322,32.0341650,34.7592174,52.8,8.9,8.1
505.345,32.0336892,34.7593273,53.8,8.9,8.2
511.352,32.0331998,34.7593292,54.3,8.9,8.2
517.398,32.0327178,34.7594204,54.1,8.9,8.4
523.348,32.0322449,34.7595196,53.3,8.9,8.5
527.343,32.0319468,34.7596140,34.2,8.9,8.6
528.344,32.0318835,34.7596679,8.7,8.8,8.6
534.293,32.0314312,34.7598104,51.9,8.7,8.8
541.307,32.0309320,34.7600007,58.2,8.3,8.8
547.355,32.0304844,34.7601278,51.1,8.4,8.8
553.324,32.0300312,34.7601997,50.7,8.4,8.7
559.436,32.0295769,34.7602640,50.7,8.5,8.7
566.377,32.0290845,34.7602923,54.7,7.9,8.5
572.268,32.0286267,34.7603148,50.8,8.3,8.5
578.308,32.0281752,34.7603029,50.1,8.4,8.5
584.321,32.0276940,34.7602818,53.4,8.7,8.5
591.268,32.0271830,34.7602926,56.7,8.5,8.4
597.262,32.0266831,34.7603035,55.4,8.9,8.5
603.303,32.0261880,34.7603301,55.0,9.3,8.5
609.435,32.0256800,34.7603945,56.7,9.4,8.6
614.322,32.0252090,34.7604592,52.6,10.1,8.8
619.521,32.0247220,34.7605203,54.3,10.6,9.0
624.322,32.0241942,34.7606019,59.0,11.2,9.4
629.351,32.0236653,34.7606757,59.1,11.9,9.6
634.302,32.0231610,34.7607522,56.4,11.5,9.9
639.304,32.0226439,34.7608625,58.3,11.6,10.1
644.294,32.0221450,34.7609938,56.7,11.6,10.3
649.354,32.0216615,34.7610978,54.5,11.1,10.6
654.347,32.0211803,34.7612122,54.4,10.8,10.8
659.430,32.0207035,34.7613225,53.9,10.8,10.9
664.316,32.0202337,34.7614359,53.2,10.7,11.0
669.424,32.0197371,34.7615471,56.1,10.9,11.1
674.360,32.0192346,34.7616393,56.4,11.2,11.2
679.306,32.0187397,34.7617228,55.4,11.3,11.3
684.306,32.0182462,34.7617792,55.0,11.1,11.2
689.338,32.0177578,34.7618217,54.3,10.9,11.1
694.319,32.0172895,34.7618628,52.1,10.6,11.0
699.361,32.0168225,34.7618846,51.8,10.4,10.9
704.322,32.0163501,34.7619049,52.4,10.4,10.8
709.465,32.0158662,34.7619131,53.7,10.5,10.8
714.341,32.0153795,34.7619135,54.0,10.7,10.8
719.437,32.0149149,34.7619270,51.5,10.5,10.8
722.346,32.0146395,34.7619798,30.9,10.3,10.8
726.341,32.0142234,34.7619775,46.1,10.8,10.8
727.354,32.0141405,34.7619985,9.4,10.8,10.8
729.364,32.0140450,34.7619307,12.4,10.0,10.6
735.332,32.0135590,34.7618997,54.0,8.8,10.4
742.346,32.0130229,34.7618916,59.5,8.7,10.1
748.337,32.0125349,34.7618671,54.2,9.0,9.9
754.375,32.0120347,34.7618360,55.5,9.1,9.8
760.417,32.0115451,34.7618162,54.3,9.1,9.6
766.271,32.0110718,34.7618452,52.6,9.0,9.5
770.273,32.0107755,34.7618049,33.1,8.7,9.4
771.310,32.0106984,34.7618225,8.7,8.5,9.3
772.367,32.0106655,34.7617826,5.2,8.0,9.2
776.360,32.0101997,34.7617282,51.9,9.9,9.3
781.338,32.0097333,34.7616598,52.1,10.9,9.4
787.304,32.0092315,34.7615629,56.4,9.6,9.2
793.318,32.0087615,34.7614526,53.1,9.1,9.3
799.377,32.0082740,34.7613222,55.4,9.1,9.3
806.366,32.0077711,34.7611776,57.4,8.4,9.2
813.528,32.0072913,34.7610351,54.9,7.7,9.1
820.466,32.0068294,34.7609035,52.7,7.6,8.9
827.318,32.0063743,34.7607442,52.7,7.5,8.8
834.344,32.0058989,34.7605747,55.1,7.8,8.6
840.364,32.0054310,34.7604510,53.2,8.4,8.4
847.317,32.0049268,34.7603197,57.3,8.3,8.2
854.405,32.0044527,34.7601818,54.2,7.8,8.0
861.487,32.0039900,34.7600430,53.0,7.5,7.9
868.317,32.0035154,34.7599048,54.2,7.7,7.9
875.309,32.0030101,34.7597465,58.0,8.1,7.9
882.313,32.0025025,34.7596091,57.8,8.4,8.0
889.313,32.0019966,34.7594771,57.5,8.2,8.1
896.345,32.0015099,34.7593351,55.6,8.0,8.0
903.433,32.0010165,34.7591865,56.5,7.9,8.0
905.315,32.0008268,34.7591407,21.5,8.5,8.1
908.350,32.0006123,34.7591673,23.9,8.6,8.1
911.462,32.0003984,34.7591049,24.4,8.8,8.1
912.507,32.0003002,34.7591100,10.9,9.0,8.1
918.277,31.9997996,34.7590005,56.5,9.2,8.3
924.561,31.9993186,34.7589174,53.9,9.1,8.4
930.266,31.9988308,34.7588466,54.5,9.0,8.6
936.272,31.9983759,34.7587796,50.8,8.7,8.6
942.296,31.9978913,34.7586916,54.4,9.0,8.7
945.332,31.9976295,34.7586976,29.0,9.3,8.8
948.279,31.9973617,34.7586461,30.1,9.6,8.9
954.422,31.9969116,34.7585973,50.1,8.9,8.9
960.334,31.9964520,34.7585343,51.3,8.6,9.0
967.269,31.9959735,34.7584630,53.5,7.9,8.8
974.575,31.9954943,34.7583933,53.5,7.5,8.6
979.269,31.9950930,34.7583137,45.1,8.3,8.7
985.328,31.9946374,34.7582885,50.6,8.9,8.6
992.315,31.9941739,34.7582016,52.0,7.7,8.4
993.324,31.9941470,34.7581447,6.1,7.5,8.4
1001.376,31.9936290,34.7580909,57.7,7.1,8.2
1008.283,31.9931170,34.7580173,57.2,8.1,8.0
1010.351,31.9929858,34.7579814,14.9,8.0,8.0
1013.488,31.9927876,34.7579762,22.0,7.8,7.9
1015.538,31.9926273,34.7579385,18.1,8.0,7.9
1022.421,31.9921262,34.7578697,55.9,8.0,7.9
1023.272,31.9920734,34.7579068,6.8,8.1,7.9
1024.266,31.9920300,34.7578544,6.9,8.2,7.9
1031.307,31.9915840,34.7577740,50.0,7.1,7.8
1038.290,31.9911062,34.7576615,54.0,7.4,7.7
1040.310,31.9909536,34.7576811,17.0,7.9,7.7
1046.387,31.9905083,34.7575893,50.1,8.3,7.7
1050.365,31.9902065,34.7575027,34.5,8.4,7.8
1058.269,31.9897270,34.7574338,53.6,7.3,7.7
1062.432,31.9894633,34.7573463,30.4,6.7,7.8
1068.320,31.9890007,34.7573196,51.4,8.2,7.8
1076.319,31.9885231,34.7572360,53.5,7.2,7.7
1081.282,31.9881445,34.7572313,42.0,7.9,7.7
1087.299,31.9877002,34.7571219,50.3,8.4,7.8
1095.330,31.9872188,34.7570757,53.6,7.1,7.7
1096.306,31.9871211,34.7570558,11.0,7.3,7.8
1102.424,31.9866790,34.7569390,50.2,8.1,7.8
1109.265,31.9861899,34.7568324,55.2,8.1,7.8
1110.314,31.9861189,34.7568205,7.9,8.1,7.7
1111.374,31.9860153,34.7568483,11.8,8.5,7.7
1118.357,31.9855211,34.7567411,55.7,8.3,7.9
1125.265,31.9850275,34.7566772,55.1,8.3,8.0
1131.301,31.9845362,34.7565947,55.0,8.6,8.1
1138.347,31.9840252,34.7565129,57.2,8.5,8.2
1144.375,31.9835591,34.7564683,51.9,8.3,8.2
1151.362,31.9830429,34.7563772,57.9,8.3,8.3
1158.263,31.9825153,34.7562898,59.1,8.4,8.3
1165.543,31.9820073,34.7562205,56.7,8.3,8.4
1172.264,31.9814954,34.7561586,57.1,8.3,8.3
1179.305,31.9810193,34.7561121,53.0,7.7,8.3
1186.272,31.9805595,34.7560466,51.4,7.2,8.2
1194.414,31.9800899,34.7560339,52.1,6.6,7.8
1202.417,31.9795890,34.7559143,56.7,7.0,7.6
1210.299,31.9791343,34.7558681,50.6,6.6,7.4
1212.420,31.9790451,34.7558710,9.9,6.1,7.3
1219.271,31.9785913,34.7557669,51.3,6.7,7.2
1227.280,31.9780849,34.7557276,56.3,7.2,7.1
1235.324,31.9775954,34.7556973,54.4,6.8,6.9
1243.407,31.9771194,34.7557016,52.8,6.3,6.8
1250.286,31.9766610,34.7557185,50.9,7.0,6.9
1258.345,31.9761660,34.7557439,54.9,7.0,6.9
1266.272,31.9757103,34.7557736,50.6,6.5,6.8
1274.303,31.9752573,34.7558201,50.4,6.5,6.9
1280.348,31.9749456,34.7558800,35.0,5.6,6.6
1289.274,31.9744391,34.7559371,56.4,6.0,6.6
1298.484,31.9739527,34.7560487,55.0,6.1,6.4
1306.604,31.9735006,34.7561538,51.1,6.1,6.4
1308.268,31.9734112,34.7562000,10.8,6.3,6.4
1309.281,31.9733392,34.7561710,8.4,6.6,6.4
1317.267,31.9728534,34.7562720,54.7,7.0,6.4
1318.272,31.9727970,34.7563029,6.9,7.0,6.4
1320.282,31.9726617,34.7562942,15.0,7.1,6.4
1328.280,31.9721798,34.7564130,54.6,7.0,6.4
1336.378,31.9716830,34.7564992,55.7,6.9,6.5
1343.382,31.9712013,34.7566163,54.6,7.7,6.7
1349.260,31.9707533,34.7566875,50.1,8.3,7.0
1356.268,31.9702460,34.7567732,56.8,8.3,7.2
1360.277,31.9699301,34.7568438,35.7,8.6,7.4
1367.265,31.9694367,34.7569065,55.0,8.3,7.6
1368.266,31.9693642,34.7569188,8.1,8.3,7.6
1369.280,31.9693101,34.7570242,11.6,8.5,7.7
1370.287,31.9692290,34.7569796,9.9,8.5,7.7
1378.293,31.9686059,34.7571190,70.3,9.2,8.0
1381.318,31.9685055,34.7571115,11.2,7.2,7.8
1388.302,31.9680239,34.7572072,54.2,6.6,7.9
1395.487,31.9675019,34.7572935,58.5,8.2,8.1
1402.354,31.9670038,34.7573690,55.7,8.2,8.1
1403.422,31.9669040,34.7573622,11.1,8.4,8.2
1405.546,31.9668234,34.7574298,11.0,7.8,8.0
1411.328,31.9663732,34.7574946,50.3,8.2,8.1
1413.315,31.9662483,34.7574965,13.9,7.9,8.1
1417.340,31.9659709,34.7576179,32.8,8.1,8.0
1424.304,31.9655094,34.7577048,51.8,7.7,7.9
1430.280,31.9649856,34.7578662,60.0,8.9,8.1
1432.341,31.9648283,34.7579430,18.9,9.7,8.0
1433.421,31.9647673,34.7579161,7.2,9.7,8.0
1438.421,31.9644200,34.7580029,39.4,8.8,7.9
1440.345,31.9642983,34.7580732,15.0,8.0,8.1
1442.335,31.9640834,34.7581374,24.6,8.8,8.3
1443.425,31.9640054,34.7581179,8.8,8.8,8.4
1445.526,31.9638525,34.7581502,17.2,9.0,8.4
1452.405,31.9633599,34.7582205,55.0,8.3,8.4
1459.318,31.9628916,34.7583600,53.6,7.7,8.3
1465.319,31.9624330,34.7584391,51.4,7.9,8.4
1470.266,31.9619822,34.7585229,50.6,9.3,8.5
1475.333,31.9615148,34.7586191,52.6,10.3,8.8
1480.263,31.9610531,34.7586957,51.7,10.3,9.0
1485.462,31.9605305,34.7587791,58.5,10.9,9.3
1492.338,31.9600035,34.7588676,59.0,9.8,9.2
1496.516,31.9596286,34.7589102,41.8,9.1,9.3
1502.372,31.9590901,34.7588960,59.7,10.1,9.4
1507.270,31.9586074,34.7588721,53.6,10.5,9.6
1510.273,31.9583721,34.7588290,26.4,9.9,9.6
1512.281,31.9581656,34.7588319,22.9,10.3,9.7
1517.321,31.9577414,34.7587247,48.1,9.7,9.9
1518.276,31.9576684,34.7586802,9.1,9.7,9.9
1522.361,31.9572155,34.7586058,50.7,10.7,10.2
1526.344,31.9568059,34.7585089,46.3,11.7,10.4
1531.328,31.9563457,34.7582942,54.9,11.4,10.4
1537.432,31.9558366,34.7580542,60.8,10.7,10.4
1542.349,31.9553812,34.7578288,54.8,10.5,10.5
1547.525,31.9549613,34.7575987,51.4,10.5,10.4
1553.370,31.9544942,34.7572600,60.9,10.2,10.5
1558.314,31.9541117,34.7569670,50.7,10.4,10.6
1560.302,31.9539695,34.7568593,18.8,10.5,10.5
1562.331,31.9539117,34.7567618,11.2,9.2,10.4
1564.268,31.9537987,34.7566776,14.9,8.8,10.3
1565.297,31.9537913,34.7566190,5.6,8.3,10.2
1572.301,31.9534240,34.7563020,50.6,7.1,9.8
1576.333,31.9532404,34.7561083,27.4,7.2,9.6
1578.385,31.9531081,34.7560303,16.4,7.4,9.6
1579.300,31.9530906,34.7559529,7.6,7.4,9.5
1584.424,31.9527234,34.7555890,53.3,9.0,9.4
1588.466,31.9524499,34.7553558,37.5,9.8,9.3
1594.414,31.9520893,34.7549400,56.1,9.5,9.1
1600.292,31.9517175,34.7545753,53.7,9.0,9.0
1606.307,31.9513414,34.7541828,55.8,9.2,8.9
1607.315,31.9513629,34.7541802,2.4,8.7,8.8
1616.353,31.9510154,34.7537971,52.9,5.5,8.1
1623.321,31.9506639,34.7534502,50.9,7.5,8.0
1628.392,31.9503451,34.7531509,45.3,7.8,8.2
1630.344,31.9502257,34.7529933,19.9,8.7,8.3
1633.358,31.9500350,34.7528400,25.6,9.1,8.3
1638.505,31.9497741,34.7525258,41.5,8.6,8.4
1644.460,31.9493871,34.7521631,54.9,8.9,8.3
1651.274,31.9490134,34.7517803,55.0,8.4,8.1
1655.303,31.9487666,34.7516043,32.0,8.0,8.1
1661.286,31.9484033,34.7512579,51.9,8.4,8.0
1667.281,31.9480123,34.7508758,56.4,9.4,8.0
1673.352,31.9475919,34.7505013,58.5,9.5,8.6
1679.269,31.9472024,34.7500930,57.9,9.7,8.7
1685.490,31.9468223,34.7497244,54.7,9.2,9.0
1691.275,31.9464426,34.7493446,55.3,9.2,8.9
1697.585,31.9460837,34.7489805,52.6,8.9,9.0
1703.277,31.9457376,34.7486088,52.0,8.7,8.9
1709.269,31.9453885,34.7482402,52.1,8.9,9.1
1711.299,31.9452802,34.7481068,17.4,8.7,9.0
1712.290,31.9452130,34.7480769,8.0,8.6,9.0
1718.283,31.9448635,34.7477015,52.5,8.7,9.1
1725.376,31.9444855,34.7472923,57.0,8.2,8.9
1731.285,31.9441335,34.7469275,52.1,8.4,8.9
1737.397,31.9437947,34.7465637,50.9,8.4,8.8
1743.356,31.9434426,34.7462166,51.0,8.5,8.7
1749.315,31.9430715,34.7458670,52.8,8.7,8.6
1755.319,31.9426751,34.7455023,55.9,9.2,8.7
1761.328,31.9422639,34.7451371,57.2,9.4,8.7
1766.338,31.9418777,34.7448158,52.5,10.0,8.9
1771.343,31.9414821,34.7445157,52.2,10.5,9.0
1776.445,31.9411046,34.7442262,50.0,10.1,9.1
1782.316,31.9406520,34.7439114,58.4,9.9,9.3
1787.524,31.9402566,34.7436478,50.4,9.9,9.4
1792.344,31.9398544,34.7434010,50.3,10.1,9.5
1798.326,31.9393940,34.7431376,56.8,9.9,9.6
1804.320,31.9389272,34.7428816,57.1,9.5,9.7
1810.345,31.9384795,34.7426675,53.6,9.2,9.8
1816.330,31.9380378,34.7424686,52.5,8.7,9.7
1822.293,31.9375907,34.7422855,52.5,8.8,9.6
1829.487,31.9371437,34.7421168,52.1,7.6,9.2
1836.499,31.9366980,34.7419607,51.6,7.3,8.9
1843.299,31.9362238,34.7418043,54.6,7.6,8.7
1850.326,31.9357343,34.7416611,55.9,8.1,8.4
1857.330,31.9352452,34.7415404,55.4,7.9,8.3
1864.320,31.9347575,34.7414222,55.2,7.9,8.1
1871.315,31.9342698,34.7413230,54.9,7.8,7.9
1878.484,31.9337732,34.7412515,55.5,7.8,7.8
1885.390,31.9332860,34.7411870,54.4,7.8,7.8
1892.292,31.9328057,34.7411247,53.6,7.7,7.8
1899.316,31.9323080,34.7410582,55.5,8.0,7.9
1905.288,31.9318467,34.7410005,51.4,8.3,7.9
1911.318,31.9313382,34.7409393,56.7,9.1,8.1
1917.348,31.9308527,34.7408800,54.1,9.1,8.2
1923.285,31.9303651,34.7408160,54.4,9.0,8.3
1929.500,31.9298733,34.7407581,54.8,9.0,8.4
1935.361,31.9293835,34.7406906,54.7,9.1,8.5
1941.310,31.9289111,34.7406223,52.8,9.1,8.6
1947.340,31.9284246,34.7405641,54.2,9.0,8.8
1953.339,31.9279396,34.7405075,54.0,9.0,8.9
1959.287,31.9274626,34.7404545,53.1,8.9,9.0
1965.336,31.9269900,34.7404011,52.7,8.8,9.0
1971.432,31.9265065,34.7403483,53.8,8.9,9.0
1977.446,31.9260137,34.7402823,55.0,9.0,9.0
1984.317,31.9255054,34.7402182,56.7,8.4,8.9
1991.548,31.9250154,34.7401564,54.7,7.6,8.7
1998.330,31.9245295,34.7400947,54.2,7.7,8.6
2005.339,31.9240391,34.7400396,54.6,7.8,8.4
2012.327,31.9235507,34.7399790,54.5,7.7,8.3
2019.382,31.9230753,34.7399297,52.9,7.6,8.1
2026.364,31.9225946,34.7398633,53.7,7.6,8.0
2033.310,31.9221065,34.7398007,54.4,7.8,7.9
2040.541,31.9216145,34.7397412,54.8,7.8,7.7
2047.325,31.9211209,34.7396821,55.0,7.8,7.8
2054.321,31.9206404,34.7396181,53.6,7.7,7.7
2061.366,31.9201662,34.7395609,52.9,7.5,7.7
2068.385,31.9196922,34.7395073,52.8,7.4,7.7
2075.325,31.9192062,34.7394533,54.1,7.6,7.7
2082.563,31.9187198,34.7393895,54.3,7.6,7.7
2089.530,31.9182335,34.7393238,54.3,7.7,7.7
2096.335,31.9177565,34.7392636,53.2,7.6,7.7
2103.318,31.9172781,34.7392039,53.3,7.6,7.7
2110.305,31.9167997,34.7391473,53.3,7.6,7.7
2117.332,31.9163268,34.7390901,52.7,7.5,7.6
2124.303,31.9158273,34.7390293,55.7,7.8,7.7
2130.488,31.9153432,34.7389466,54.2,8.5,7.8
2136.376,31.9148427,34.7388956,55.7,9.2,8.0
2142.325,31.9143639,34.7388289,53.5,9.2,8.1
2148.330,31.9139129,34.7387841,50.2,8.6,8.2
2150.287,31.9137652,34.7387290,17.2,8.7,8.2
2151.373,31.9136993,34.7387631,8.0,8.5,8.2
2157.311,31.9132013,34.7387091,55.5,8.6,8.4
2163.310,31.9127600,34.7386936,49.0,8.7,8.4
2169.384,31.9122415,34.7386215,57.9,8.9,8.6
2175.502,31.9117615,34.7385433,53.7,8.9,8.7
2181.295,31.9112725,34.7384622,54.8,9.1,8.9
2187.303,31.9108221,34.7384108,50.2,8.8,8.9
2193.284,31.9103035,34.7383422,57.9,9.4,9.0
2199.291,31.9098127,34.7383093,54.5,9.5,9.0
2205.349,31.9093365,34.7382324,53.3,8.9,8.9
2211.349,31.9088251,34.7381373,57.4,9.4,9.1
2216.315,31.9084465,34.7380866,42.3,9.1,9.0
2220.410,31.9081218,34.7379984,37.0,8.7,9.0
2221.473,31.9079746,34.7380205,16.5,9.5,9.2
2224.298,31.9077933,34.7379287,21.9,9.4,9.2
2229.423,31.9073817,34.7378352,46.5,9.3,9.1
2231.329,31.9072692,34.7377660,14.1,9.1,9.0
2234.577,31.9070186,34.7377008,28.5,8.7,9.0
2240.485,31.9065347,34.7375560,55.4,8.9,9.1
2246.408,31.9060807,34.7374121,52.2,8.8,9.1
2251.319,31.9056938,34.7372822,44.6,9.0,9.1
2257.299,31.9052256,34.7370880,55.1,9.2,9.1
2264.272,31.9047502,34.7368466,57.4,8.7,9.0
2271.474,31.9042866,34.7366049,56.3,7.8,8.8
2278.344,31.9038348,34.7363860,54.2,7.6,8.7
2285.337,31.9033922,34.7361880,52.5,7.7,8.5
2292.275,31.9029542,34.7359711,52.7,7.8,8.4
2300.276,31.9025035,34.7357469,54.3,7.1,8.0
2307.346,31.9020318,34.7355017,57.2,7.6,8.0
2313.381,31.9016231,34.7352987,49.2,8.1,7.9
2314.417,31.9015594,34.7352947,7.1,8.0,7.9
2321.476,31.9011090,34.7350881,53.6,7.5,7.7
2328.355,31.9006756,34.7348703,52.3,7.7,7.6
2333.578,31.9003284,34.7347333,40.6,7.6,7.7
2340.355,31.8998876,34.7344980,53.7,8.0,7.7
2347.300,31.8994640,34.7342782,51.4,7.5,7.7
2354.334,31.8990043,34.7340661,54.8,7.7,7.7
2361.410,31.8985225,34.7338402,57.5,8.0,7.8
2364.278,31.8983368,34.7337427,22.6,8.1,7.8
2366.278,31.8982096,34.7336520,16.5,8.1,7.8
2369.405,31.8979616,34.7335494,29.2,8.3,7.9
2375.295,31.8974722,34.7333283,58.2,9.5,8.1
2379.411,31.8971868,34.7331772,34.7,9.3,8.2
2380.459,31.8970952,34.7331520,10.4,9.4,8.2
2383.282,31.8969020,34.7330007,25.8,9.3,8.3
2388.276,31.8964840,34.7328729,47.9,9.3,8.4
2395.276,31.8959972,34.7326167,59.2,8.7,8.5
2401.292,31.8955345,34.7323855,55.8,9.0,8.6
2407.278,31.8951036,34.7321622,52.2,9.0,8.7
2413.417,31.8946267,34.7319296,57.3,9.1,8.9
2419.368,31.8941688,34.7317204,54.5,9.2,9.0
2426.277,31.8936885,34.7314657,58.5,8.6,9.0
2432.545,31.8932395,34.7312604,53.4,8.7,9.0
2438.279,31.8927870,34.7310609,53.6,8.9,9.0
2444.277,31.8923272,34.7308457,54.9,9.3,8.9
2450.308,31.8918743,34.7306311,54.2,9.1,8.9
2456.291,31.8914116,34.7304233,54.9,9.1,9.0
2462.435,31.8909624,34.7301995,54.1,9.0,9.0
2466.329,31.8906425,34.7300644,37.7,9.2,9.1
2467.307,31.8905874,34.7300675,6.1,8.9,9.0
2469.360,31.8904446,34.7299419,19.8,8.8,9.0
2475.282,31.8900085,34.7296851,54.1,9.2,9.0
2481.459,31.8895905,34.7294778,50.3,8.6,8.9
2487.268,31.8891494,34.7292208,54.6,8.8,9.0
2493.275,31.8886868,34.7289929,55.6,9.1,9.1
2498.285,31.8882851,34.7287335,50.9,9.6,9.1
2504.363,31.8878670,34.7284683,52.7,9.2,9.1
2510.427,31.8874437,34.7281854,54.0,8.8,9.1
2516.344,31.8870012,34.7278980,56.1,9.2,9.1
2522.492,31.8866077,34.7276782,48.3,8.5,9.0
2523.589,31.8865486,34.7275719,12.0,8.7,9.0
2529.353,31.8861639,34.7272861,50.5,8.8,9.0
2535.286,31.8857468,34.7270115,53.0,8.9,9.0
2541.278,31.8853495,34.7267360,51.2,8.7,9.0
2548.306,31.8849278,34.7264533,53.9,7.8,8.8
2555.284,31.8845012,34.7261810,53.9,7.7,8.6
2560.417,31.8841995,34.7259916,37.9,7.5,8.4
2565.280,31.8838783,34.7257554,42.1,8.1,8.4
2569.362,31.8836108,34.7255897,33.5,8.3,8.4
2575.281,31.8832855,34.7253036,45.1,8.1,8.2
2581.477,31.8829459,34.7251100,41.9,7.3,8.1
2587.284,31.8825772,34.7248323,48.6,7.8,8.0
2594.276,31.8821359,34.7245670,55.0,8.3,7.9
2595.280,31.8820756,34.7245250,7.8,8.0,7.9
2596.335,31.8819821,34.7245093,10.5,8.1,7.9
2603.397,31.8815600,34.7242136,54.5,8.2,7.8
2610.418,31.8811250,34.7239001,56.6,8.1,7.9
2613.484,31.8809651,34.7237862,20.8,7.7,7.8
2616.288,31.8807984,34.7236255,23.9,7.6,7.9
2623.544,31.8803712,34.7233559,53.8,7.8,7.8
2630.282,31.8799413,34.7230644,55.1,7.8,7.8
2638.283,31.8794858,34.7227446,58.9,7.4,7.8
2645.282,31.8790425,34.7224485,56.6,8.1,7.9
2652.381,31.8786349,34.7221773,52.0,7.6,7.8
2659.342,31.8782110,34.7218843,54.6,7.6,7.8
2666.278,31.8778166,34.7215961,51.5,7.6,7.7
2673.532,31.8773855,34.7213045,55.2,7.6,7.7
2680.269,31.8769622,34.7210093,54.6,7.8,7.7
2687.279,31.8765278,34.7207191,55.4,7.9,7.7
2694.309,31.8760993,34.7204423,54.3,7.7,7.8
2701.397,31.8756686,34.7201448,55.4,7.7,7.7
2708.284,31.8752430,34.7198492,54.9,7.9,7.8
2715.537,31.8748050,34.7195505,56.2,7.9,7.8
2721.441,31.8743838,34.7192687,53.8,8.6,7.9
2727.283,31.8739316,34.7189476,58.6,9.4,8.2
2733.278,31.8735110,34.7186916,52.5,9.5,8.3
2739.286,31.8730869,34.7184132,53.9,8.9,8.4
2745.350,31.8726557,34.7181257,55.0,8.9,8.5
2751.396,31.8722268,34.7178594,53.8,9.0,8.6
2757.309,31.8718074,34.7175817,53.4,8.9,8.7
2759.327,31.8716571,34.7174979,18.5,8.9,8.8
2760.394,31.8715962,34.7174332,9.1,8.9,8.8
2766.307,31.8711493,34.7172170,53.6,9.1,8.9
2772.511,31.8707099,34.7169918,53.2,8.8,9.0
2778.277,31.8702257,34.7167572,58.1,9.4,9.1
2784.278,31.8697851,34.7165392,53.0,9.5,9.1
2790.307,31.8693347,34.7163261,53.9,9.0,9.0
2796.355,31.8688830,34.7161439,53.0,8.8,9.0
2802.455,31.8684163,34.7159413,55.2,8.9,9.0
2808.290,31.8679379,34.7157382,56.4,9.4,9.1
2814.552,31.8674728,34.7155395,54.9,9.0,9.1
2820.395,31.8670335,34.7153639,51.5,8.8,9.1
2826.278,31.8665728,34.7151692,54.3,8.9,9.1
2832.275,31.8661192,34.7149734,53.6,9.2,9.1
2838.281,31.8656535,34.7147878,54.6,9.2,9.0
2844.373,31.8651896,34.7145876,54.8,9.0,9.0
2850.413,31.8647397,34.7143813,53.6,8.9,9.0
2856.283,31.8643006,34.7142044,51.5,8.8,9.0
2862.512,31.8638648,34.7140195,51.4,8.5,8.9
2869.287,31.8633945,34.7138032,56.0,8.1,8.8
2876.278,31.8629577,34.7136076,51.8,7.8,8.6
2883.282,31.8624832,34.7134227,55.5,7.7,8.6
2890.332,31.8620422,34.7132348,52.0,7.6,8.3
2897.282,31.8615984,34.7130668,51.7,7.5,8.2
2904.484,31.8611421,34.7128707,53.9,7.7,8.0
2911.469,31.8606897,34.7126851,53.1,7.6,7.8
2918.295,31.8602351,34.7124683,54.4,7.8,7.7
2925.275,31.8597725,34.7122741,54.5,7.9,7.7
2932.285,31.8593034,34.7120762,55.3,8.0,7.7
2933.284,31.8592378,34.7120507,7.7,7.9,7.7
2934.287,31.8591756,34.7120731,7.2,8.0,7.7
2942.398,31.8586809,34.7118978,57.3,7.2,7.6
2944.413,31.8585501,34.7118241,16.1,7.3,7.6
2951.442,31.8580536,34.7116627,57.1,8.1,7.7
2958.337,31.8575751,34.7115004,55.2,8.1,7.7
2965.281,31.8570883,34.7113574,55.6,8.0,7.8
2972.279,31.8566093,34.7112297,54.5,8.0,7.8
2979.281,31.8561177,34.7111175,55.5,7.9,7.8
2986.283,31.8556375,34.7109963,54.5,7.8,7.8
2993.401,31.8551329,34.7108866,56.9,7.9,7.8
3000.387,31.8546550,34.7108042,53.6,7.5,7.9
3006.532,31.8541765,34.7107460,53.3,8.4,8.0
3012.497,31.8536651,34.7106467,57.5,9.3,8.1
3018.283,31.8531633,34.7106006,55.8,9.7,8.3
3024.296,31.8526890,34.7105560,52.8,9.3,8.4
3030.283,31.8521855,34.7104959,56.1,9.2,8.6
3036.302,31.8516656,34.7104856,57.7,9.6,8.7
3042.423,31.8511941,34.7104794,52.3,9.0,8.8
3048.358,31.8507244,34.7104636,52.1,8.6,8.9
3054.538,31.8502435,34.7104423,53.4,8.8,9.0
3060.377,31.8497122,34.7104062,59.0,9.3,9.2
3065.286,31.8492321,34.7103698,53.3,10.5,9.4
3070.281,31.8487759,34.7103288,50.7,10.4,9.4
3075.336,31.8483248,34.7102969,50.1,10.0,9.5
3080.292,31.8478628,34.7102959,51.2,10.1,9.5
3085.347,31.8473941,34.7102831,52.0,10.3,9.7
3090.379,31.8469401,34.7102569,50.4,10.2,9.7
3096.279,31.8463888,34.7102201,61.2,10.2,9.8
3102.499,31.8458898,34.7101981,55.4,9.5,9.8
3108.370,31.8453878,34.7101721,55.7,9.0,9.9
3114.588,31.8449252,34.7101254,51.5,8.8,9.8
3117.358,31.8447255,34.7100940,22.3,8.5,9.7
3118.290,31.8446800,34.7101105,5.3,8.2,9.7
3122.281,31.8443733,34.7100629,34.3,8.1,9.6
3128.279,31.8439663,34.7100920,45.2,7.8,9.4
3135.367,31.8434664,34.7100477,55.6,7.7,9.0
3142.453,31.8429761,34.7100223,54.4,7.6,8.7
3149.295,31.8424572,34.7099971,57.6,8.0,8.6
3156.281,31.8419649,34.7099702,54.7,7.8,8.2
3163.287,31.8414965,34.7099286,52.1,7.7,8.1
3170.280,31.8409956,34.7098990,55.6,7.8,7.9
3177.302,31.8404909,34.7098564,56.1,8.0,7.9
3184.376,31.8400213,34.7098364,52.1,7.5,7.8
3187.431,31.8398397,34.7098566,20.2,7.2,7.8
3195.496,31.8393331,34.7098187,56.3,6.8,7.7
3202.454,31.8388794,34.7097860,50.4,7.1,7.6
3208.659,31.8384109,34.7096805,52.9,7.8,7.6
3216.290,31.8378841,34.7096180,58.7,8.1,7.6
3222.287,31.8373644,34.7094666,59.4,9.1,7.9
3228.279,31.8368599,34.7092988,58.2,9.9,8.0
3234.393,31.8363649,34.7090958,58.2,9.6,8.2
3240.353,31.8358767,34.7088974,57.3,9.6,8.3
3245.496,31.8354550,34.7086539,52.1,10.1,8.6
3250.354,31.8350477,34.7084189,50.3,10.3,8.9
3256.287,31.8345819,34.7080955,60.0,10.2,9.2
3261.280,31.8341608,34.7078204,53.5,10.4,9.5
3266.282,31.8337819,34.7075127,51.1,10.4,9.7
3271.282,31.8334177,34.7071931,50.5,10.1,9.8
3277.281,31.8330113,34.7068069,58.0,9.9,10.0
3283.397,31.8326594,34.7064559,51.3,8.9,9.8
3289.294,31.8323037,34.7060447,55.4,8.9,9.8
3296.281,31.8319505,34.7056378,54.9,8.5,9.7
3302.452,31.8316309,34.7052318,52.3,8.4,9.5
3308.291,31.8313280,34.7048109,52.1,8.7,9.4
3315.312,31.8309943,34.7043479,57.4,8.4,9.1
3322.292,31.8306452,34.7039334,55.1,8.0,8.8
3329.299,31.8303201,34.7034850,55.7,8.1,8.5
3336.445,31.8299978,34.7030629,53.6,7.7,8.3
3343.505,31.8297010,34.7026607,50.3,7.4,8.1
3349.284,31.8294330,34.7023694,40.5,6.9,7.9
3357.294,31.8291097,34.7019038,56.8,7.1,7.8
3364.281,31.8287872,34.7015002,52.3,7.4,7.7
3371.297,31.8284384,34.7010764,55.7,7.9,7.6
3376.358,31.8282034,34.7007869,37.8,7.8,7.5
3383.444,31.8278143,34.7003901,57.2,7.9,7.5
3385.438,31.8277292,34.7002707,14.7,7.9,7.5
3386.485,31.8276755,34.7002716,6.0,7.7,7.5
3387.509,31.8275932,34.7002163,10.5,8.0,7.5
3391.416,31.8273923,34.6999979,30.4,8.0,7.5
3398.345,31.8269758,34.6996817,55.0,7.6,7.6
3405.625,31.8265504,34.6993868,54.8,7.7,7.7
3412.285,31.8261217,34.6991391,53.0,7.7,7.7
3419.297,31.8256923,34.6989493,50.9,7.3,7.8
3426.365,31.8252312,34.6987638,54.1,7.5,7.8
3428.287,31.8250842,34.6987136,17.0,7.8,7.8
3429.373,31.8250212,34.6987190,7.0,7.8,7.8
3435.468,31.8245747,34.6985698,51.5,8.3,7.8
3442.454,31.8240722,34.6985030,56.1,8.1,7.8
3449.281,31.8235730,34.6984494,55.6,8.1,7.8
3455.283,31.8230732,34.6984127,55.5,9.0,8.0
3461.287,31.8225747,34.6984051,55.3,9.3,8.1
3467.294,31.8220496,34.6983781,58.3,9.5,8.3
3469.377,31.8218613,34.6983846,20.9,9.7,8.4
3470.416,31.8217880,34.6984196,8.8,9.6,8.5
3473.340,31.8215553,34.6984158,25.8,9.5,8.5
3478.294,31.8210859,34.6984683,52.3,9.8,8.8
3483.449,31.8206329,34.6984871,50.3,10.2,9.0
3488.357,31.8201671,34.6984887,51.6,10.1,9.2
3495.284,31.8197889,34.6984746,42.0,7.9,9.0
3496.285,31.8197454,34.6984995,5.4,7.4,8.9
3503.291,31.8193662,34.6984772,42.1,5.9,8.7
3504.326,31.8193075,34.6984931,6.7,6.4,8.7
3508.290,31.8190474,34.6984737,28.9,6.8,8.6
3513.285,31.8187480,34.6985275,33.6,7.1,8.5
3519.291,31.8182675,34.6985361,53.3,8.0,8.4
3526.293,31.8178071,34.6985320,51.0,7.7,8.2
3534.455,31.8172920,34.6985479,57.1,7.1,7.8
3542.462,31.8167996,34.6986004,54.8,7.1,7.4
3550.287,31.8163194,34.6985822,53.3,6.9,7.0
3558.286,31.8158119,34.6986387,56.5,6.5,7.2
3566.303,31.8153147,34.6986455,55.1,7.0,7.2
3571.346,31.8150265,34.6986402,32.0,6.6,7.1
3577.431,31.8145652,34.6985944,51.3,7.7,7.2
3585.496,31.8140654,34.6985413,55.6,7.1,7.1
3592.448,31.8136142,34.6984306,51.1,7.3,7.1
3599.286,31.8131295,34.6982923,55.3,7.9,7.3
3604.568,31.8127551,34.6982233,42.0,8.3,7.3
3611.291,31.8122731,34.6979897,57.8,8.4,7.5
3618.287,31.8118391,34.6977869,51.8,7.7,7.6
3625.407,31.8113859,34.6975258,56.0,7.8,7.7
3632.458,31.8109499,34.6972379,55.5,7.9,7.8
3639.297,31.8105380,34.6969390,53.7,7.7,7.8
3646.287,31.8101183,34.6966093,56.0,8.1,7.9
3653.327,31.8096743,34.6962805,58.3,8.5,8.0
3660.302,31.8092318,34.6959441,58.5,8.3,8.1
3666.286,31.8088357,34.6956735,50.8,8.5,8.1
3670.321,31.8085741,34.6954757,34.5,8.6,8.1
3677.287,31.8081551,34.6951283,56.9,8.3,8.1
3685.544,31.8077784,34.6948215,50.9,6.7,7.9
3692.434,31.8073681,34.6945128,54.1,7.2,7.9
3699.283,31.8069534,34.6941791,55.8,7.9,8.0
3706.290,31.8065559,34.6938613,53.4,8.0,7.9
3713.315,31.8061328,34.6935332,56.3,8.0,7.9
3720.324,31.8057082,34.6932265,55.3,8.0,7.8
3727.291,31.8052779,34.6929088,56.4,8.0,7.8
3734.511,31.8048676,34.6926013,54.0,7.8,7.7
3741.391,31.8044306,34.6922957,56.4,7.9,7.8
3748.284,31.8040097,34.6920021,54.3,7.8,7.9
3755.292,31.8036074,34.6917198,52.0,7.7,7.9
3762.311,31.8032140,34.6914237,51.9,7.3,7.8
3769.290,31.8028279,34.6911141,51.9,7.5,7.8
3776.456,31.8024109,34.6908284,53.6,7.5,7.7
3783.469,31.8019882,34.6905504,53.8,7.6,7.7
3790.348,31.8015833,34.6902852,51.4,7.5,7.6
3797.283,31.8011752,34.6900175,51.9,7.4,7.6
3804.288,31.8007577,34.6896807,56.2,8.0,7.6
3808.372,31.8005053,34.6895163,32.0,8.0,7.6
3815.362,31.8001121,34.6892127,52.2,7.7,7.6
3822.431,31.7996863,34.6888765,56.9,7.9,7.7
3829.296,31.7992684,34.6885467,55.9,8.1,7.7
3836.587,31.7988632,34.6882495,53.0,7.6,7.7
3843.279,31.7984883,34.6879486,50.4,7.7,7.7
3845.282,31.7983285,34.6878604,19.6,7.9,7.8
3852.319,31.7979209,34.6875262,55.2,8.3,7.8
3857.351,31.7976369,34.6873278,36.7,7.6,7.8
3859.308,31.7975336,34.6872088,16.1,7.6,7.8
3866.406,31.7970938,34.6868987,56.9,7.9,7.8
3873.425,31.7966766,34.6865509,56.8,8.2,7.9
3878.294,31.7964487,34.6863827,29.9,7.5,7.8
3879.352,31.7963651,34.6862786,13.5,8.1,7.9
3880.331,31.7963152,34.6862832,5.5,7.8,7.8
3887.300,31.7959071,34.6859231,56.7,8.4,7.9
3889.316,31.7957949,34.6858264,15.5,8.3,7.8
3890.382,31.7957525,34.6857102,12.0,8.4,8.0
3896.624,31.7954473,34.6854449,42.2,7.5,7.8
3903.330,31.7951108,34.6850304,54.2,7.5,7.9
3910.297,31.7947902,34.6846377,51.4,7.4,7.8
3917.292,31.7944695,34.6842090,54.0,7.5,7.8
3923.446,31.7941701,34.6837997,51.0,8.2,7.8
3929.330,31.7938827,34.6833783,51.1,8.5,7.9
3934.493,31.7936233,34.6830499,42.4,8.4,8.0
3937.292,31.7935030,34.6829460,16.6,7.7,7.9
3939.354,31.7934004,34.6827751,19.8,7.9,8.0
3940.299,31.7934772,34.6826902,11.7,8.3,8.0
3942.351,31.7934141,34.6825350,16.3,8.1,8.0
3948.354,31.7930757,34.6821842,50.1,8.6,8.0
3949.303,31.7929844,34.6821596,10.4,8.8,8.1
3952.321,31.7928564,34.6819841,21.9,8.3,8.0
3954.291,31.7927652,34.6818116,19.2,8.5,8.1
3961.332,31.7924034,34.6814095,55.3,8.1,8.1
3965.429,31.7922661,34.6811795,26.6,7.3,8.0
3972.401,31.7919361,34.6808045,51.0,7.1,8.1
3978.302,31.7917030,34.6804529,42.2,7.2,8.0
3979.378,31.7916852,34.6804877,3.8,6.6,7.9
3985.532,31.7913376,34.6801258,51.6,8.1,7.9
3986.564,31.7912897,34.6800660,7.8,8.0,7.9
3987.317,31.7912107,34.6800345,9.3,8.3,7.9
3994.483,31.7908170,34.6796324,57.9,8.3,7.9
4000.291,31.7905119,34.6793456,43.4,7.6,7.9
4001.297,31.7904674,34.6792711,8.6,7.7,7.8
4008.348,31.7900822,34.6789194,54.2,7.7,7.8
4009.294,31.7900253,34.6788466,9.3,8.0,7.8
4011.308,31.7899049,34.6787571,15.8,7.9,7.7
4018.290,31.7895155,34.6783527,57.7,8.3,7.7
4025.292,31.7891509,34.6780330,50.5,7.6,7.8
4032.357,31.7887677,34.6776758,54.3,7.7,7.8
4035.555,31.7885921,34.6775606,22.3,7.5,7.9
4042.296,31.7882048,34.6771544,57.7,8.0,7.9
4049.292,31.7878236,34.6768106,53.4,7.9,7.8
4056.349,31.7874382,34.6764401,55.3,7.7,7.8
4063.406,31.7870477,34.6760628,56.1,7.9,7.8
4070.283,31.7866539,34.6757364,53.5,7.7,7.8
4077.536,31.7862610,34.6753932,54.4,7.6,7.8
4084.454,31.7858749,34.6750387,54.4,7.8,7.8
4091.290,31.7854923,34.6746650,55.2,8.0,7.8
4098.291,31.7851275,34.6742777,54.6,8.2,7.9
4105.354,31.7848130,34.6738727,51.8,7.5,7.8
4112.356,31.7844649,34.6734450,56.0,7.9,7.8
4119.535,31.7841616,34.6730327,51.5,7.5,7.7
4126.511,31.7838198,34.6726025,55.6,7.8,7.7
4133.392,31.7834801,34.6721689,55.7,8.1,7.8
4137.300,31.7832777,34.6719618,29.8,8.0,7.8
4144.335,31.7829807,34.6715400,51.8,7.5,7.7
4151.293,31.7826639,34.6711416,51.6,7.3,7.7
4155.380,31.7824882,34.6709557,26.3,7.0,7.6
4156.403,31.7824600,34.6708982,6.3,6.7,7.6
4162.352,31.7821007,34.6705402,52.3,7.8,7.7
4167.490,31.7818155,34.6702658,40.9,8.3,7.7
4168.510,31.7817370,34.6702180,9.8,8.4,7.8
4171.364,31.7816184,34.6700539,20.4,7.9,7.7
4178.345,31.7812307,34.6696757,56.0,8.0,7.8
4185.543,31.7808573,34.6693617,51.0,7.1,7.7
4192.312,31.7804592,34.6690615,52.5,7.2,7.7
4196.371,31.7802209,34.6689203,29.6,7.6,7.7
4203.363,31.7798185,34.6686289,52.5,7.6,7.6
4210.376,31.7793567,34.6683693,56.8,8.0,7.7
4217.513,31.7789205,34.6681521,52.6,7.5,7.8
4221.315,31.7786677,34.6680082,31.2,7.6,7.7
4222.390,31.7786425,34.6680291,3.4,7.0,7.6
4229.292,31.7781647,34.6678759,54.9,7.6,7.6
4236.590,31.7776871,34.6677064,55.3,7.9,7.6
4241.344,31.7773258,34.6676077,41.1,8.2,7.6
4242.326,31.7772408,34.6676142,9.4,8.2,7.7
4247.305,31.7769209,34.6675198,36.6,8.2,7.7
4254.368,31.7764296,34.6674595,54.8,7.8,7.7
4259.305,31.7760223,34.6674083,45.4,8.4,7.9
4262.383,31.7758176,34.6674266,22.8,8.3,7.9
4264.495,31.7757595,34.6674760,8.0,7.6,7.8
4270.593,31.7752911,34.6674105,52.3,7.3,7.8
4277.559,31.7747818,34.6673955,56.5,8.0,7.9
4284.360,31.7743007,34.6674032,53.3,8.0,7.9
4290.356,31.7738414,34.6673834,51.0,8.1,8.0
4291.293,31.7737733,34.6674052,7.8,8.3,8.0
4298.339,31.7733006,34.6673859,52.4,7.5,8.0
4305.434,31.7728102,34.6673802,54.4,7.6,7.9
4312.331,31.7723254,34.6673664,53.8,7.7,7.9
4319.295,31.7718535,34.6673498,52.3,7.7,7.8
4327.583,31.7713749,34.6673779,53.1,7.0,7.7
4333.358,31.7709052,34.6673678,52.1,7.5,7.8
4341.288,31.7703781,34.6673633,58.4,7.8,7.7
4348.353,31.7698751,34.6673767,55.8,7.6,7.6
4355.442,31.7693905,34.6673803,53.7,7.8,7.6
4362.317,31.7688939,34.6673571,55.1,7.8,7.7
4369.607,31.7683960,34.6673663,55.2,7.7,7.7
4376.551,31.7679122,34.6673550,53.7,7.8,7.7
4382.330,31.7674979,34.6673307,46.0,7.8,7.7
4389.290,31.7670216,34.6673363,52.8,7.6,7.8
4393.315,31.7667325,34.6673653,32.2,7.7,7.7
4400.288,31.7662137,34.6673597,57.5,8.2,7.9
4407.467,31.7657265,34.6673486,54.0,7.7,7.8
4414.433,31.7652096,34.6673231,57.4,8.1,7.9
4415.474,31.7651240,34.6673157,9.5,8.2,7.9
4416.562,31.7650775,34.6673589,6.6,8.1,7.9
4423.297,31.7645907,34.6673597,54.0,8.2,7.9
4430.322,31.7640730,34.6673567,57.4,8.3,7.9
4437.354,31.7635890,34.6673215,53.8,7.8,7.9
4444.339,31.7631311,34.6673232,50.8,7.3,7.8
4447.395,31.7629240,34.6673015,23.1,7.4,7.8
4454.420,31.7624494,34.6673022,52.6,7.6,7.8
4455.462,31.7623789,34.6672962,7.8,7.6,7.8
4457.512,31.7622435,34.6672333,16.2,7.6,7.8
4465.479,31.7617227,34.6671644,58.1,7.5,7.7
4466.536,31.7616610,34.6671753,6.9,7.3,7.7
4473.364,31.7612018,34.6670910,51.5,7.5,7.7
4480.287,31.7607421,34.6669407,52.9,7.3,7.7
4487.299,31.7602634,34.6668083,54.5,7.7,7.6
4494.353,31.7598140,34.6666842,51.2,7.6,7.5
4498.411,31.7595370,34.6665960,31.8,7.4,7.5
4499.409,31.7595220,34.6666242,3.2,6.9,7.5
4502.344,31.7593541,34.6665645,19.5,6.9,7.4
4504.396,31.7592459,34.6664860,14.1,6.8,7.4
4508.512,31.7589204,34.6664545,36.2,7.3,7.5
4511.348,31.7587186,34.6663695,23.8,8.1,7.6
4512.302,31.7586440,34.6663664,8.3,8.2,7.6
4513.366,31.7586181,34.6663903,3.7,7.9,7.5
4519.306,31.7581817,34.6662412,50.4,8.0,7.6
4524.310,31.7578201,34.6660995,42.3,8.5,7.7
4531.327,31.7573904,34.6658968,51.4,7.8,7.6
4538.307,31.7569416,34.6656220,56.2,8.0,7.8
4541.352,31.7567666,34.6655160,21.9,7.8,7.7
4547.424,31.7564393,34.6652032,46.8,7.9,7.7
4548.430,31.7564008,34.6651980,4.3,7.2,7.6
4555.476,31.7559652,34.6648753,57.2,7.7,7.7
4562.293,31.7555552,34.6645540,54.7,7.9,7.9
4569.652,31.7551376,34.6642245,55.8,7.7,7.8
4576.306,31.7547290,34.6639165,53.9,7.7,7.9
4577.356,31.7546614,34.6638855,8.1,7.7,7.9
4584.362,31.7542482,34.6635201,57.4,8.0,7.8
4591.335,31.7538506,34.6631701,55.2,7.8,7.9
4597.435,31.7535063,34.6629304,44.4,7.6,7.8
4599.457,31.7534074,34.6628085,15.9,7.6,7.8
4600.297,31.7533332,34.6628031,8.2,7.8,7.9
4607.534,31.7529544,34.6624814,51.9,7.6,7.8
4614.381,31.7525697,34.6620919,56.4,7.9,7.9
4621.309,31.7522489,34.6616893,52.2,7.5,7.8
4624.307,31.7521333,34.6615212,20.4,7.3,7.8
4631.360,31.7518715,34.6610004,57.2,7.8,7.8
4632.362,31.7518705,34.6609224,7.4,7.8,7.8
4639.370,31.7516696,34.6604104,53.4,7.7,7.7
4644.357,31.7514710,34.6600248,42.7,7.9,7.8
4645.454,31.7514955,34.6599371,8.7,8.0,7.8
4652.324,31.7513978,34.6593522,56.5,8.2,7.8
4655.441,31.7513805,34.6590984,24.1,8.1,7.9
4660.572,31.7513949,34.6587227,35.6,7.5,7.8
4662.315,31.7513341,34.6585672,16.2,7.7,7.8
4669.671,31.7512958,34.6579640,57.3,8.0,7.9
4675.348,31.7513128,34.6575796,36.5,7.1,7.7
4677.317,31.7512976,34.6573176,24.9,7.6,7.9
4678.310,31.7512714,34.6572321,8.6,7.9,7.9
4684.366,31.7512861,34.6567674,44.1,8.3,7.9
4691.366,31.7512339,34.6561923,54.8,7.6,7.9
4697.488,31.7512475,34.6556592,50.5,8.1,7.9
4699.487,31.7512559,34.6555050,14.6,7.9,7.9
4700.471,31.7512250,34.6554401,7.0,7.8,7.9
4703.333,31.7512238,34.6552294,20.0,7.5,7.8
4705.458,31.7511393,34.6550590,18.7,7.8,7.9
4706.448,31.7511359,34.6549790,7.6,7.8,7.9
4709.575,31.7510549,34.6546962,28.3,8.1,7.9
4711.318,31.7510661,34.6545830,10.8,7.9,7.9
4718.585,31.7509294,34.6540137,56.0,7.6,7.9
4720.295,31.7508674,34.6538547,16.6,7.8,7.9
4727.294,31.7507340,34.6533708,48.2,7.8,7.7
4734.337,31.7505048,34.6528547,55.1,7.7,7.9
4739.391,31.7503840,34.6525048,35.8,7.6,7.7
4743.306,31.7502693,34.6521993,31.6,7.9,7.7
4744.380,31.7502157,34.6521364,8.4,7.6,7.8
4745.404,31.7502204,34.6521017,3.3,7.2,7.7
4748.457,31.7500951,34.6518787,25.3,7.7,7.7
4755.418,31.7497874,34.6514265,54.8,8.0,7.7
4762.292,31.7494456,34.6509880,56.2,7.9,7.8
4769.620,31.7491339,34.6505728,52.4,7.6,7.6
4775.307,31.7487752,34.6502098,52.6,8.2,7.8
4779.300,31.7486416,34.6500255,22.9,7.7,7.6
4785.381,31.7482771,34.6497040,50.6,7.3,7.7
4789.392,31.7480463,34.6495344,30.2,8.0,7.8
4796.447,31.7476283,34.6492217,55.0,7.9,7.8
4804.387,31.7471898,34.6489556,54.8,6.9,7.7
4811.302,31.7467227,34.6486796,58.0,7.9,7.8
4817.303,31.7463112,34.6484758,49.5,8.2,7.8
4824.320,31.7459070,34.6481918,52.3,7.7,7.8
4831.424,31.7454809,34.6479315,53.3,7.6,7.8
4838.396,31.7450550,34.6477116,51.6,7.3,7.7
4845.409,31.7446361,34.6474649,52.0,7.6,7.6
4852.322,31.7441726,34.6472017,57.1,7.8,7.6
4858.533,31.7437612,34.6469484,51.5,8.2,7.8
4865.378,31.7433126,34.6467016,55.0,8.0,7.9
4866.312,31.7432530,34.6466717,7.2,8.1,7.9
4867.300,31.7432375,34.6466862,2.2,7.4,7.8
4874.324,31.7428346,34.6464478,50.1,6.7,7.6
4876.386,31.7427007,34.6463948,15.7,6.8,7.6
4882.360,31.7422959,34.6461254,51.6,7.9,7.7
4884.320,31.7421697,34.6460616,15.2,7.8,7.7
4885.366,31.7421215,34.6460657,5.4,8.1,7.7
4893.308,31.7416510,34.6458108,57.5,7.2,7.7
4900.532,31.7412120,34.6455622,54.1,7.2,7.6
4905.307,31.7409155,34.6453515,38.5,7.6,7.7
4910.614,31.7405823,34.6451830,40.2,7.8,7.7
4912.339,31.7404036,34.6451313,20.4,8.6,7.8
4913.358,31.7403631,34.6450600,8.1,8.6,7.8
4914.331,31.7402977,34.6450207,8.2,8.5,7.8
4915.307,31.7402255,34.6450154,8.0,8.5,7.7
4922.346,31.7398247,34.6447291,52.1,7.7,7.6
4928.319,31.7394105,34.6444629,52.4,8.2,7.8
4936.384,31.7389386,34.6442123,57.5,7.5,7.8
4942.318,31.7385494,34.6440281,46.6,7.5,7.8
4945.432,31.7383755,34.6438843,23.6,7.8,7.8
4951.306,31.7379566,34.6436876,50.0,8.3,8.0
4957.492,31.7376133,34.6434535,44.1,7.8,7.9
4964.302,31.7371865,34.6432090,52.7,7.6,7.9
4971.316,31.7367295,34.6429370,56.9,8.0,7.9
4972.328,31.7366736,34.6428593,9.6,8.1,7.9
4979.363,31.7362135,34.6426487,54.8,8.1,7.9
4986.435,31.7357814,34.6423852,54.0,7.7,7.8
4993.336,31.7353479,34.6421052,54.9,7.8,7.8
5000.312,31.7349342,34.6418209,53.2,7.8,7.9
5007.367,31.7345231,34.6415399,52.8,7.6,7.8
5014.348,31.7341030,34.6412458,54.3,7.7,7.8
5021.348,31.7336904,34.6409660,52.9,7.6,7.8
5028.362,31.7332799,34.6406861,52.7,7.6,7.7
5035.361,31.7328460,34.6404335,53.7,7.6,7.7
5042.412,31.7323931,34.6402020,54.8,7.6,7.7
5049.388,31.7319605,34.6399663,52.9,7.8,7.7
5056.405,31.7315205,34.6397148,54.3,7.7,7.7
5063.399,31.7310701,34.6394581,55.6,7.8,7.7
5070.390,31.7306178,34.6391991,55.8,8.0,7.8
5077.352,31.7301668,34.6389608,54.9,7.8,7.8
5084.392,31.7297324,34.6387252,53.1,7.7,7.8
5091.389,31.7292910,34.6384734,54.5,7.7,7.8
5098.418,31.7288522,34.6382429,53.3,7.7,7.8
5105.455,31.7284199,34.6380054,53.0,7.5,7.7
5112.323,31.7280097,34.6377683,50.7,7.4,7.7
5119.343,31.7275663,34.6375337,54.0,7.5,7.7
5124.300,31.7272577,34.6373966,36.6,7.6,7.7
5130.377,31.7268858,34.6371596,47.0,7.6,7.6
5131.331,31.7268612,34.6371024,6.1,7.5,7.6
5137.466,31.7264328,34.6369048,51.1,7.9,7.7
5144.348,31.7259658,34.6366438,57.4,8.3,7.8
5151.575,31.7255305,34.6364219,52.6,7.7,7.7
5158.483,31.7251133,34.6361902,51.2,7.4,7.7
5165.330,31.7246863,34.6359509,52.5,7.2,7.7
5169.316,31.7244364,34.6358656,28.9,7.6,7.7
5175.331,31.7240492,34.6359895,44.5,7.4,7.7
5177.386,31.7240338,34.6362107,21.0,8.0,7.8
5183.387,31.7237493,34.6366376,51.3,8.4,7.9
5190.473,31.7234546,34.6370986,54.6,7.8,7.9
5194.345,31.7233002,34.6373821,31.9,7.9,7.9
5201.383,31.7229710,34.6378111,54.6,8.0,7.9
5208.383,31.7226547,34.6382580,55.0,7.8,7.8
5215.336,31.7223363,34.6386699,52.6,7.6,7.8
5221.353,31.7220375,34.6390696,50.3,7.9,7.9
5227.377,31.7218103,34.6393677,37.9,7.5,7.8
5233.375,31.7214366,34.6394908,43.0,7.0,7.8
5239.325,31.7210777,34.6391659,50.3,7.8,7.8
5246.365,31.7206724,34.6388370,54.7,7.7,7.7
5248.497,31.7205659,34.6387443,14.7,7.7,7.7
5255.358,31.7201425,34.6384892,52.8,7.5,7.7
5262.364,31.7197186,34.6382201,53.5,7.5,7.7
5269.315,31.7193150,34.6378996,54.1,7.6,7.7
5278.302,31.7190845,34.6375898,38.9,4.8,7.2
5279.394,31.7191093,34.6375954,2.8,4.2,7.1
5286.341,31.7189489,34.6374483,22.6,3.0,6.6
5321.406,31.7192112,34.6370154,50.3,1.6,3.1
5351.617,31.7193752,34.6365171,50.6,1.4,1.6
5362.399,31.7194699,34.6363915,15.9,1.4,1.5
5437.348,31.7193306,34.6365308,20.3,0.5,0.4
5473.333,31.7193153,34.6364034,12.2,0.6,0.4
5529.322,31.7194167,34.6365443,17.5,0.2,0.4
5548.459,31.7194142,34.6365847,3.8,0.4,0.2
5663.357,31.7193721,34.6364447,14.1,0.6,0.4
5744.414,31.7194301,34.6364159,7.0,0.4,0.2
5768.392,31.7194441,34.6364922,7.4,0.7,0.3
5807.408,31.7194205,34.6364762,3.0,0.2,0.4
5818.395,31.7194108,34.6365144,3.8,0.4,0.4
6098.412,31.7193970,34.6364400,7.2,0.2,0.1
6116.390,31.7193775,34.6364947,5.6,0.6,0.2
6136.459,31.7194114,34.6364691,4.5,0.8,0.4
6165.329,31.7194243,34.6365299,5.9,0.9,0.7
6174.353,31.7194527,34.6364562,7.7,1.4,0.8
6180.344,31.7193248,34.6364215,14.6,1.6,1.0
6240.348,31.7194625,34.6364646,15.8,0.4,0.3
6371.375,31.7194971,34.6364382,4.6,0.4,0.1
6598.351,31.7194725,34.6365890,14.5,0.5,0.1
6620.320,31.7194591,34.6365712,2.3,1.0,0.4
6686.403,31.7192399,34.6370514,51.6,1.0,0.8
6753.406,31.7190308,34.6374934,47.9,0.8,0.7
6787.356,31.7191018,34.6376024,13.0,0.5,0.7
6805.397,31.7190706,34.6376552,6.1,0.6,0.6
6876.345,31.7194285,34.6379888,50.7,1.6,1.0
6916.335,31.7197961,34.6382973,50.2,1.2,1.3
6964.421,31.7202171,34.6385113,50.9,1.5,1.1
6987.400,31.7205953,34.6388453,52.5,3.9,1.6
7003.416,31.7209964,34.6391004,50.6,2.8,2.2
7017.409,31.7214243,34.6392986,51.0,4.0,2.8
7056.399,31.7217749,34.6395579,46.0,0.7,2.0
7153.404,31.7217959,34.6396478,8.8,0.2,0.1
7189.381,31.7217721,34.6396360,2.9,0.1,0.1
7269.485,31.7215113,34.6400839,51.4,4.7,0.9
7277.376,31.7212113,34.6405612,56.2,6.9,1.8
7285.354,31.7209022,34.6410347,56.5,7.3,2.7
7293.390,31.7206354,34.6414705,50.8,6.5,3.6
7301.476,31.7203588,34.6418928,50.4,6.2,4.4
7309.446,31.7200717,34.6423400,53.0,6.7,5.3
7317.351,31.7197825,34.6427722,52.0,6.6,6.1
7325.360,31.7194604,34.6432314,56.3,7.0,6.7
7332.356,31.7191087,34.6436203,53.7,7.5,6.9
7340.409,31.7186861,34.6439584,56.8,7.2,6.8
7347.390,31.7182729,34.6441929,50.9,7.2,6.8
7354.363,31.7178294,34.6443492,51.4,7.3,7.0
7361.488,31.7173805,34.6444336,50.4,7.1,7.1
7367.411,31.7169473,34.6444517,48.1,7.7,7.2
7374.360,31.7164436,34.6443551,56.6,7.9,7.4
7376.427,31.7163050,34.6443323,15.5,8.1,7.4
7383.431,31.7158286,34.6441360,56.0,7.8,7.6
7386.402,31.7156289,34.6440696,23.0,7.9,7.6
7390.354,31.7153544,34.6440010,31.1,7.9,7.6
7396.437,31.7149691,34.6438287,45.7,7.7,7.6
7402.491,31.7145209,34.6436687,52.0,8.2,7.8
7409.446,31.7140369,34.6434927,56.2,8.3,7.9
7415.397,31.7135867,34.6433431,51.9,8.5,8.0
7421.396,31.7131421,34.6431897,51.4,8.7,8.2
7428.370,31.7126522,34.6430117,56.9,8.2,8.2
7435.407,31.7121887,34.6429347,51.9,7.6,8.1
7442.416,31.7117010,34.6429771,54.2,7.6,8.1
7450.425,31.7111887,34.6430713,57.5,7.4,8.0
7457.359,31.7107396,34.6432490,52.6,7.4,8.0
7463.421,31.7102672,34.6434873,57.0,8.8,8.1
7469.417,31.7098051,34.6437331,56.3,9.5,8.2
7476.350,31.7093646,34.6439917,54.6,8.4,8.1
7483.367,31.7089392,34.6442224,52.0,7.6,8.0
7490.395,31.7084906,34.6444227,53.2,7.4,7.9
7496.368,31.7080634,34.6446025,50.3,8.0,8.0
7503.527,31.7075900,34.6447650,54.7,7.8,8.0
7510.391,31.7071369,34.6449415,52.9,7.7,8.1
7517.356,31.7066672,34.6451194,54.7,7.7,8.1
7524.321,31.7061978,34.6452638,53.8,7.9,7.9
7531.346,31.7057172,34.6453924,54.7,7.9,7.8
7538.382,31.7052203,34.6455392,56.8,7.9,7.8
7545.435,31.7047456,34.6456861,54.4,7.9,7.8
7552.497,31.7042768,34.6458276,53.7,7.7,7.8
7559.369,31.7038129,34.6459472,52.7,7.6,7.8
7566.424,31.7033379,34.6460822,54.2,7.8,7.7
7573.376,31.7028762,34.6462317,53.1,7.7,7.8
7580.364,31.7024226,34.6463568,51.7,7.6,7.7
7588.391,31.7019140,34.6465114,58.3,7.3,7.6
7595.444,31.7014422,34.6466576,54.1,7.7,7.6
7602.438,31.7009838,34.6468010,52.6,7.5,7.6
7609.374,31.7005419,34.6469366,50.7,7.4,7.5
7616.360,31.7000922,34.6470843,51.8,7.4,7.5
7622.377,31.6996481,34.6471870,50.2,7.9,7.6
7629.356,31.6991770,34.6473253,53.9,7.8,7.6
7636.375,31.6987270,34.6475005,52.6,7.5,7.6
7643.441,31.6982826,34.6477615,55.1,7.7,7.7
7650.357,31.6978401,34.6480089,54.4,7.7,7.7
7657.347,31.6974049,34.6482450,53.2,7.7,7.7
7664.502,31.6969657,34.6485041,54.5,7.7,7.7
7671.374,31.6965097,34.6487653,56.3,8.2,7.8
7678.400,31.6961018,34.6490087,50.8,7.4,7.7
7685.350,31.6956701,34.6492683,53.8,7.6,7.7
7692.382,31.6952376,34.6495262,53.8,7.7,7.7
7699.381,31.6947919,34.6496958,52.0,7.6,7.7
7706.562,31.6943167,34.6497907,53.4,7.5,7.6
7712.380,31.6938487,34.6498552,52.3,8.3,7.8
7719.355,31.6933465,34.6498860,55.8,8.3,7.8
7726.358,31.6928707,34.6498811,52.8,7.8,7.8
7733.356,31.6923658,34.6498529,56.1,7.9,7.8
7740.350,31.6918705,34.6498518,54.9,7.9,7.8
7747.463,31.6913901,34.6498422,53.3,7.7,7.8
7754.459,31.6908906,34.6498683,55.4,7.8,7.9
7761.341,31.6904295,34.6499343,51.5,7.6,7.8
7768.355,31.6899685,34.6499950,51.4,7.2,7.8
7775.356,31.6894848,34.6500652,54.0,7.5,7.7
7782.354,31.6889997,34.6501250,54.1,7.7,7.7
7789.363,31.6884901,34.6502143,57.1,8.0,7.8
7796.444,31.6880070,34.6504310,57.4,8.2,7.8
7803.358,31.6875608,34.6506518,53.7,7.8,7.8
7810.646,31.6871155,34.6508943,54.5,7.5,7.7
7817.386,31.6866902,34.6511429,52.7,7.7,7.7
7824.356,31.6862686,34.6513863,52.1,7.5,7.7
7831.350,31.6858266,34.6516524,55.1,7.8,7.8
7838.382,31.6853969,34.6519112,53.6,7.8,7.8
7845.442,31.6849694,34.6521891,54.2,7.7,7.8
7852.380,31.6845477,34.6524498,52.9,7.7,7.7
7859.419,31.6841217,34.6527098,53.3,7.7,7.6
7866.414,31.6836859,34.6529716,54.3,7.7,7.7
7873.422,31.6832696,34.6531906,50.6,7.4,7.6
7874.408,31.6832067,34.6532091,7.2,7.3,7.6
7876.434,31.6830814,34.6531621,14.6,7.2,7.6
7883.386,31.6828713,34.6526218,56.3,7.9,7.7
7890.423,31.6826910,34.6520699,56.0,8.1,7.7
7894.365,31.6825854,34.6517843,29.5,7.6,7.7
7896.486,31.6824762,34.6517106,14.0,7.5,7.6
7903.389,31.6819963,34.6518608,55.1,7.7,7.7
7909.403,31.6815491,34.6520249,52.0,8.5,7.8
7916.410,31.6810915,34.6521641,52.4,7.8,7.8
7923.432,31.6806388,34.6522407,50.7,7.3,7.7
7930.373,31.6801789,34.6522421,51.0,7.3,7.7
7937.387,31.6796523,34.6521556,59.0,8.2,7.8
7943.429,31.6791631,34.6521170,54.4,8.9,7.9
7950.388,31.6786731,34.6521085,54.3,8.3,7.9
7957.511,31.6781620,34.6521395,56.7,8.0,8.0
7964.344,31.6776915,34.6521672,52.2,7.8,7.9
7971.360,31.6772128,34.6521736,53.1,7.6,7.8
7978.374,31.6767559,34.6521890,50.7,7.5,7.8
7985.405,31.6762841,34.6522416,52.5,7.2,7.9
7992.325,31.6758038,34.6524363,56.4,8.0,7.9
7999.552,31.6753580,34.6527401,57.2,8.1,7.8
8006.389,31.6749478,34.6530669,55.0,8.0,7.7
8013.350,31.6745298,34.6533865,55.4,8.0,7.8
8020.383,31.6741329,34.6536951,52.9,7.9,7.7
8027.389,31.6737449,34.6540025,52.0,7.5,7.7
8034.386,31.6733344,34.6543146,54.3,7.7,7.7
8041.462,31.6729093,34.6545840,53.6,7.6,7.8
8048.504,31.6724637,34.6546883,50.4,7.4,7.7
8055.439,31.6719926,34.6547072,52.3,7.3,7.6
8062.408,31.6715125,34.6546699,53.3,7.6,7.6
8069.396,31.6710407,34.6546019,52.7,7.5,7.6
8076.428,31.6705659,34.6545065,53.4,7.4,7.5
8083.365,31.6701123,34.6544217,50.9,7.4,7.5
8087.384,31.6698166,34.6544243,32.8,7.6,7.6
8093.440,31.6693820,34.6545864,50.6,8.3,7.6
8100.536,31.6689081,34.6547969,56.2,8.1,7.7
8105.394,31.6686110,34.6549922,37.8,7.9,7.7
8112.373,31.6683248,34.6554581,54.4,7.7,7.8
8119.406,31.6680979,34.6559488,52.9,7.6,7.7
8126.382,31.6678804,34.6564209,50.8,7.3,7.7
8134.382,31.6676663,34.6569297,53.8,6.7,7.6
8142.410,31.6675292,34.6574456,51.2,6.4,7.5
8150.496,31.6673861,34.6579964,54.6,6.8,7.3
8154.376,31.6672288,34.6581723,24.1,6.5,7.2
8162.389,31.6667776,34.6581433,50.1,6.3,6.9
8170.382,31.6662800,34.6580202,56.4,7.0,6.9
8179.362,31.6658008,34.6579089,54.2,6.2,6.6
8188.451,31.6653407,34.6578074,51.9,5.8,6.4
8192.488,31.6651308,34.6578320,23.4,5.7,6.3
8198.443,31.6649048,34.6580697,33.7,5.8,6.3
8206.422,31.6647865,34.6585971,51.7,6.2,6.2
8213.416,31.6646980,34.6591767,55.8,7.7,6.4
8220.373,31.6646321,34.6597534,55.2,7.9,6.6
8227.396,31.6645633,34.6603068,53.0,7.6,6.7
8234.363,31.6644581,34.6608584,53.6,7.6,6.8
8238.394,31.6642929,34.6610888,28.5,7.5,6.9
8245.385,31.6638388,34.6612453,52.5,7.4,7.1
8253.363,31.6633435,34.6613104,55.3,7.1,7.2
8261.354,31.6628752,34.6613804,52.3,6.7,7.4
8267.356,31.6625519,34.6614729,36.9,6.2,7.3
8276.353,31.6621836,34.6618603,54.9,6.2,7.0
8285.354,31.6618987,34.6622754,50.5,5.7,6.7
8295.354,31.6616365,34.6627580,54.2,5.4,6.3
8304.358,31.6615374,34.6633106,53.5,6.0,6.1
8309.350,31.6614609,34.6637201,39.7,7.0,6.2
8311.360,31.6613632,34.6638844,19.0,7.8,6.3
8317.358,31.6608617,34.6641123,59.7,9.7,6.6
8322.357,31.6603984,34.6642565,53.2,10.4,7.0
8327.361,31.6599250,34.6643791,53.8,10.7,7.3
8332.435,31.6594909,34.6643073,48.6,10.2,7.6
8338.356,31.6590333,34.6640872,54.9,9.4,7.9
8345.354,31.6585645,34.6638568,56.4,8.2,8.2
8352.355,31.6581191,34.6636809,52.1,7.7,8.5
8359.356,31.6576728,34.6635238,51.7,7.4,8.6
8367.362,31.6572081,34.6633575,53.9,6.8,8.7
8375.358,31.6567295,34.6631901,55.4,6.8,8.4
8383.454,31.6562736,34.6630532,52.2,6.6,7.8
8390.394,31.6557647,34.6629368,57.5,7.7,7.6
8396.357,31.6552710,34.6628260,55.7,8.9,7.6
8402.349,31.6547915,34.6626675,55.2,9.3,7.7
8408.355,31.6543364,34.6624792,53.5,9.1,7.8
8414.336,31.6539151,34.6622733,50.6,8.7,7.8
8416.354,31.6537760,34.6622444,15.7,8.4,7.9
8417.351,31.6536995,34.6622645,8.7,8.4,7.9
8419.356,31.6535949,34.6623900,16.6,8.4,7.9
8426.343,31.6533817,34.6629386,57.2,8.2,8.1
8433.457,31.6531731,34.6633966,49.2,7.3,8.1
8435.472,31.6530790,34.6634843,13.3,7.0,8.1
8436.356,31.6530083,34.6635084,8.2,7.1,8.1
8443.506,31.6525126,34.6633279,57.6,7.9,8.3
8450.372,31.6520370,34.6631549,55.2,8.1,8.3
8457.363,31.6515628,34.6630166,54.2,7.7,8.1
8464.420,31.6510867,34.6628863,54.2,7.8,7.9
8471.389,31.6505868,34.6627952,56.1,7.9,7.9
8478.373,31.6500809,34.6627458,56.3,8.0,7.8
8485.517,31.6495692,34.6627282,56.8,8.0,7.8
8492.436,31.6490700,34.6627459,55.4,7.8,7.9
8499.413,31.6485964,34.6628009,52.8,7.6,7.9
8506.421,31.6481109,34.6628656,54.2,7.8,7.8
8513.386,31.6476254,34.6629317,54.2,7.7,7.9
8520.353,31.6471723,34.6629991,50.6,7.5,7.8
8527.407,31.6467051,34.6630692,52.2,7.4,7.8
8534.477,31.6462345,34.6631312,52.5,7.5,7.7
8541.398,31.6457465,34.6632220,54.8,7.9,7.7
8548.401,31.6452782,34.6632995,52.4,7.7,7.6
8555.397,31.6448109,34.6633919,52.6,7.5,7.6
8562.405,31.6443174,34.6634472,55.0,7.8,7.6
8568.382,31.6439136,34.6635067,45.1,7.7,7.6
8575.432,31.6434097,34.6634479,56.1,7.8,7.6
8582.412,31.6429005,34.6633791,56.8,8.0,7.7
8589.375,31.6424091,34.6632837,55.2,7.9,7.8
8596.563,31.6419172,34.6631990,55.1,7.8,7.8
8603.392,31.6414350,34.6631328,53.8,7.9,7.8
8610.375,31.6409626,34.6630758,52.7,7.4,7.8
8617.384,31.6404929,34.6629920,52.7,7.4,7.8
8624.371,31.6399960,34.6629165,55.6,7.8,7.8
8631.419,31.6395068,34.6628316,54.8,7.8,7.8
8638.577,31.6390255,34.6628002,53.5,7.5,7.7
8645.519,31.6385486,34.6628147,52.9,7.6,7.7
8652.344,31.6380534,34.6628196,54.9,7.6,7.7
8659.424,31.6375736,34.6628566,53.3,7.8,7.7
8666.420,31.6370756,34.6629091,55.4,7.9,7.7
8673.367,31.6365878,34.6629175,54.1,7.9,7.8
8680.355,31.6361333,34.6629548,50.5,7.5,7.7
8687.543,31.6356680,34.6630139,51.9,7.2,7.6
8694.383,31.6351574,34.6630412,56.7,7.9,7.7
8701.366,31.6346804,34.6630716,53.0,7.8,7.7
8708.371,31.6341913,34.6630898,54.3,7.9,7.7
8715.376,31.6337359,34.6631116,50.5,7.4,7.7
8722.424,31.6332252,34.6631488,56.7,7.7,7.7
8729.486,31.6327295,34.6631862,55.1,8.0,7.7
8736.562,31.6322723,34.6632250,50.8,7.4,7.6
8743.426,31.6317920,34.6632726,53.4,7.3,7.7
8750.422,31.6312853,34.6633457,56.6,8.0,7.7
8757.372,31.6308270,34.6634124,51.2,7.5,7.7
8764.401,31.6303480,34.6634054,53.1,7.4,7.7
8771.357,31.6298577,34.6633319,54.8,7.9,7.7
8778.459,31.6293856,34.6631839,54.2,7.8,7.7
8785.401,31.6289315,34.6629561,54.8,7.7,7.7
8792.352,31.6284879,34.6626961,55.0,7.9,7.7
8799.371,31.6280733,34.6624372,52.1,7.6,7.7
8806.329,31.6276269,34.6621811,55.1,7.8,7.7
8813.322,31.6271954,34.6619157,54.1,7.8,7.7
8820.396,31.6267615,34.6616533,54.2,7.8,7.8
8827.465,31.6263189,34.6614394,53.1,7.7,7.7
8834.372,31.6258959,34.6611980,52.2,7.3,7.7
8841.376,31.6254436,34.6609835,54.1,7.7,7.7
8848.365,31.6249671,34.6607686,56.6,8.1,7.8
8855.406,31.6244938,34.6606064,54.7,7.8,7.7
8862.367,31.6240482,34.6604929,50.6,7.5,7.7
8869.413,31.6235387,34.6603878,57.4,7.9,7.7
8876.407,31.6230816,34.6602606,52.1,7.8,7.7
8883.442,31.6226089,34.6601412,53.6,7.6,7.7
8890.403,31.6221305,34.6600187,54.3,7.9,7.7
8897.426,31.6216424,34.6599817,54.2,7.8,7.8
8904.377,31.6211857,34.6599530,50.7,7.4,7.7
8911.388,31.6207072,34.6599299,53.1,7.5,7.6
8918.424,31.6202277,34.6598869,53.3,7.6,7.6
8925.371,31.6197369,34.6598470,54.6,7.8,7.7
8932.385,31.6192709,34.6597444,52.6,7.6,7.6
8939.551,31.6188031,34.6596343,52.9,7.5,7.6
8946.347,31.6183346,34.6595208,53.0,7.6,7.6
8953.345,31.6178913,34.6593904,50.7,7.4,7.5
8960.344,31.6174361,34.6592581,52.0,7.4,7.5
8967.374,31.6169614,34.6590845,55.2,7.7,7.6
8974.375,31.6164713,34.6589177,56.6,8.1,7.6
8980.545,31.6160341,34.6587576,50.8,8.2,7.7
8987.401,31.6155598,34.6585862,55.0,8.1,7.7
8994.372,31.6150991,34.6584313,53.2,7.6,7.7
9001.403,31.6146408,34.6582678,53.1,7.5,7.7
9008.380,31.6141873,34.6581120,52.4,7.5,7.8
9015.412,31.6136998,34.6579437,56.4,7.8,7.8
9022.420,31.6132614,34.6577713,51.3,7.5,7.8
9029.455,31.6128194,34.6575248,54.3,7.6,7.8
9036.410,31.6123873,34.6572679,53.8,7.7,7.7
9043.386,31.6119361,34.6570225,55.2,7.8,7.7
9050.372,31.6114461,34.6568164,57.7,8.1,7.8
9057.396,31.6109482,34.6566094,58.6,8.3,7.8
9064.419,31.6104768,34.6564601,54.2,7.9,7.9
9071.474,31.6100262,34.6563246,51.6,7.4,7.8
9078.425,31.6095721,34.6561557,52.8,7.3,7.8
9085.389,31.6091281,34.6559000,54.9,7.8,7.8
9092.357,31.6087347,34.6555540,54.6,8.0,7.9
9099.411,31.6083693,34.6551370,56.6,7.9,7.9
9106.389,31.6080114,34.6547410,54.7,7.8,7.9
9113.347,31.6076401,34.6543438,55.8,7.9,7.8
9119.383,31.6072924,34.6539788,51.8,8.5,7.9
9125.409,31.6068705,34.6536731,55.0,9.0,8.0
9131.510,31.6064306,34.6534149,54.6,9.1,8.2
9138.348,31.6059963,34.6531533,54.2,8.2,8.2
9145.412,31.6055550,34.6529373,53.0,7.5,8.2
9152.435,31.6050420,34.6528668,57.3,8.0,8.2
9159.335,31.6045493,34.6528564,54.6,8.0,8.2
9166.338,31.6040523,34.6528323,55.2,7.9,8.2
9172.455,31.6036120,34.6527051,50.3,8.1,8.2
9178.363,31.6031434,34.6524848,56.0,9.0,8.3
9184.393,31.6026641,34.6522131,59.1,9.7,8.4
9189.413,31.6022198,34.6519447,55.5,10.5,8.6
9194.386,31.6017745,34.6516681,55.9,11.0,8.8
9199.339,31.6013263,34.6514122,55.3,11.1,9.1
9204.406,31.6008883,34.6511501,54.6,11.0,9.4
9209.396,31.6004659,34.6508921,52.8,10.7,9.6
9214.387,31.6000156,34.6506294,55.8,11.0,9.8
9219.402,31.5995701,34.6503377,56.6,11.2,10.1
9224.344,31.5991029,34.6500052,60.7,11.8,10.5
9229.383,31.5986356,34.6496465,62.0,12.3,10.8
9234.455,31.5981899,34.6492923,59.8,12.1,11.1
9239.350,31.5977643,34.6489543,57.1,11.9,11.2
9244.406,31.5973770,34.6485825,55.6,11.5,11.4
9249.365,31.5969653,34.6482435,55.9,11.1,11.4
9254.423,31.5965565,34.6479158,55.0,11.1,11.4
9259.376,31.5961451,34.6476565,51.8,10.8,11.3
9264.390,31.5957072,34.6474879,51.1,10.4,11.3
9270.380,31.5951671,34.6474206,60.2,10.0,11.2
9276.338,31.5946251,34.6473847,60.2,10.1,11.1
9281.414,31.5941664,34.6473529,51.0,10.1,10.9
9286.399,31.5937145,34.6473642,50.1,10.1,10.8
9292.421,31.5932234,34.6473755,54.5,9.5,10.5
9298.425,31.5927555,34.6473830,51.9,8.6,10.1
9304.412,31.5922646,34.6474085,54.5,8.9,9.9
9310.388,31.5917647,34.6474091,55.4,9.3,9.7
9316.436,31.5912711,34.6474014,54.7,9.2,9.6
9322.441,31.5907942,34.6473883,52.9,9.0,9.4
9328.396,31.5903197,34.6473683,52.6,8.8,9.3
9334.530,31.5898182,34.6473276,55.7,9.2,9.2
9340.391,31.5892875,34.6473030,58.9,9.5,9.2
9345.359,31.5888276,34.6472700,51.1,10.2,9.3
9351.431,31.5882978,34.6472218,58.9,9.9,9.3
9356.408,31.5878363,34.6472018,51.2,9.9,9.4
9361.419,31.5873629,34.6471552,52.7,10.4,9.5
9366.419,31.5868788,34.6471174,53.8,10.6,9.7
9372.396,31.5863516,34.6470644,58.7,10.2,9.7
9378.374,31.5858483,34.6470293,55.9,9.7,9.8
9384.438,31.5853434,34.6469871,56.1,9.3,9.8
9390.408,31.5848479,34.6469685,55.0,9.4,9.8
9396.336,31.5843414,34.6469045,56.5,9.6,9.9
9402.371,31.5838669,34.6468712,52.7,9.1,9.7
9408.381,31.5833626,34.6468303,56.1,9.1,9.7
9414.400,31.5828669,34.6466908,56.5,9.4,9.6
9420.376,31.5823874,34.6465283,55.4,9.3,9.5
9426.376,31.5819079,34.6463630,55.4,9.3,9.3
9432.354,31.5814697,34.6462013,51.0,8.9,9.2
9439.380,31.5809803,34.6460128,57.1,8.4,9.1
9445.358,31.5804895,34.6458167,57.5,9.1,9.1
9451.380,31.5799870,34.6456154,58.9,9.8,9.1
9457.352,31.5795036,34.6453991,57.4,9.8,9.2
9463.395,31.5790484,34.6452200,53.3,9.1,9.2
9469.426,31.5785739,34.6450341,55.5,9.2,9.1
9475.507,31.5781298,34.6449257,50.3,8.7,9.0
9481.385,31.5776434,34.6448614,54.3,8.7,9.0
9487.362,31.5771602,34.6448019,53.9,9.2,9.0
9493.380,31.5766935,34.6447373,52.1,8.9,9.0
9499.381,31.5762107,34.6446652,54.0,8.9,9.1
9505.358,31.5756923,34.6446097,57.7,9.4,9.1
9511.361,31.5752165,34.6445864,52.8,9.1,9.0
9517.465,31.5747415,34.6445989,52.7,8.8,8.9
9523.413,31.5742301,34.6445951,56.7,9.1,9.0
9529.433,31.5737333,34.6446092,55.1,9.2,9.0
9535.419,31.5732425,34.6446152,54.4,9.0,9.0
9541.371,31.5727599,34.6446273,53.5,9.1,9.1
9547.430,31.5722750,34.6446150,53.8,9.0,9.0
9553.385,31.5717879,34.6445676,54.2,9.0,9.1
9559.387,31.5712969,34.6444805,55.1,9.1,9.1
9565.448,31.5708263,34.6443620,53.4,9.0,9.0
9571.373,31.5703918,34.6442187,50.1,8.6,9.0
9578.357,31.5699499,34.6440389,51.9,7.7,8.8
9585.375,31.5695128,34.6438215,52.7,7.5,8.6
9592.376,31.5690863,34.6435601,53.4,7.6,8.4
9599.396,31.5686620,34.6432515,55.4,7.9,8.3
9606.396,31.5682767,34.6429307,52.5,7.8,8.1
9613.415,31.5678975,34.6425577,55.0,7.7,8.0
9620.525,31.5675437,34.6421566,54.7,7.8,7.8
9627.549,31.5672010,34.6417617,53.4,7.7,7.7
9634.395,31.5668541,34.6413522,54.7,7.7,7.7
9641.392,31.5665188,34.6409439,53.7,7.6,7.7
9648.421,31.5661830,34.6405405,53.4,7.7,7.7
9655.403,31.5658494,34.6401387,53.1,7.6,7.7
9662.417,31.5655135,34.6397353,53.4,7.6,7.7
9669.538,31.5651494,34.6393528,54.3,7.6,7.7
9676.437,31.5647667,34.6390009,54.0,7.7,7.7
9683.410,31.5643860,34.6386461,54.0,7.7,7.7
9690.385,31.5640043,34.6383013,53.5,7.8,7.7
9697.408,31.5636183,34.6379564,53.9,7.8,7.7
9704.358,31.5632300,34.6376007,54.7,7.8,7.7
9711.435,31.5628346,34.6372642,54.2,7.8,7.7
9718.508,31.5624525,34.6369332,52.7,7.5,7.7
9726.401,31.5620581,34.6365729,55.5,7.1,7.6
9735.384,31.5616431,34.6362143,57.2,6.4,7.4
9743.399,31.5612633,34.6358681,53.4,6.7,7.3
9751.369,31.5608630,34.6355161,55.6,6.9,7.2
9759.446,31.5604569,34.6351524,56.7,7.1,7.1
9766.424,31.5600887,34.6348364,50.7,7.1,7.0
9774.431,31.5597054,34.6344894,53.8,6.7,6.9
9782.451,31.5593299,34.6341552,52.4,6.6,6.8
9789.398,31.5589620,34.6338457,50.3,6.9,6.9
9796.412,31.5585846,34.6335015,53.1,7.5,7.0
9803.354,31.5582242,34.6331723,50.7,7.4,7.1
9810.444,31.5578484,34.6328457,51.9,7.3,7.1
9817.391,31.5574773,34.6324978,52.8,7.5,7.2
9825.390,31.5570749,34.6321289,56.7,7.2,7.1
9833.426,31.5566686,34.6318192,53.8,6.8,7.1
9841.405,31.5562306,34.6315362,55.5,6.8,7.2
9848.386,31.5558367,34.6312768,50.1,7.2,7.2
9856.392,31.5553929,34.6310288,54.6,6.9,7.1
9863.427,31.5549863,34.6307745,51.1,7.1,7.1
9870.354,31.5545829,34.6305131,51.2,7.5,7.1
9877.374,31.5541599,34.6302476,53.2,7.5,7.1
9884.349,31.5537458,34.6300301,50.3,7.6,7.1
9887.351,31.5535451,34.6299371,23.9,7.5,7.2
9893.350,31.5531861,34.6296602,47.7,7.8,7.3
9900.419,31.5527598,34.6293355,56.4,8.2,7.5
9908.397,31.5523318,34.6290368,55.3,7.0,7.4
9916.454,31.5519096,34.6287073,56.3,7.0,7.4
9924.364,31.5514930,34.6283971,54.8,7.0,7.4
9931.383,31.5510957,34.6280992,52.4,7.5,7.4
9938.383,31.5506849,34.6278052,53.4,7.7,7.4
9945.373,31.5502391,34.6274957,57.5,8.2,7.5
9952.438,31.5498357,34.6271847,53.6,7.7,7.5
9959.451,31.5494378,34.6268632,53.7,7.6,7.4
9966.386,31.5490302,34.6265500,54.1,7.7,7.5
9973.394,31.5486376,34.6262014,54.7,7.9,7.6
9980.424,31.5482741,34.6258479,52.5,7.6,7.7
9984.662,31.5480786,34.6256448,29.0,7.3,7.7
9985.355,31.5480051,34.6255992,9.2,7.7,7.7
9992.377,31.5476292,34.6252121,55.6,7.9,7.8
9996.387,31.5474231,34.6249901,31.1,7.8,7.8
9997.379,31.5473728,34.6248935,10.7,8.1,7.8
9998.382,31.5473240,34.6248952,5.4,7.9,7.8
10004.418,31.5469609,34.6246229,47.8,8.0,7.8
10011.487,31.5465778,34.6242312,56.5,8.0,7.8
10018.382,31.5461918,34.6238676,55.0,7.9,7.8
10025.403,31.5458082,34.6234822,56.1,8.0,7.9
10032.419,31.5454344,34.6231118,54.4,7.9,7.9
10039.382,31.5450783,34.6227435,52.7,7.5,7.8
10046.375,31.5447089,34.6223970,52.5,7.5,7.8
10053.415,31.5443272,34.6220310,54.8,7.7,7.8
10060.436,31.5439393,34.6216894,53.9,7.6,7.8
10067.448,31.5435577,34.6213879,51.1,7.3,7.7
10074.444,31.5431513,34.6210751,54.0,7.6,7.7
10081.381,31.5427685,34.6207125,54.7,7.9,7.7
10088.388,31.5424061,34.6203201,54.8,7.9,7.7
10095.405,31.5420472,34.6199179,55.2,7.8,7.7
10102.402,31.5417066,34.6195172,53.6,7.7,7.7
10109.351,31.5413574,34.6191150,54.4,7.7,7.7
10111.440,31.5412690,34.6189946,15.1,7.7,7.7
10112.463,31.5412168,34.6190012,5.8,7.5,7.7
10113.525,31.5411523,34.6189443,9.0,7.6,7.7
10119.430,31.5408454,34.6185273,52.2,8.2,7.8
10126.430,31.5404820,34.6181498,53.9,7.7,7.8
10133.442,31.5401155,34.6177174,57.8,8.1,7.9
10139.344,31.5397836,34.6173391,51.4,8.6,8.0
10141.371,31.5396569,34.6171304,24.3,9.2,8.1
10144.391,31.5394746,34.6169798,24.8,9.2,8.1
10150.363,31.5390970,34.6165606,57.8,9.7,8.3
10156.392,31.5386881,34.6161422,60.3,9.9,8.5
10161.427,31.5383480,34.6157923,50.3,9.9,8.7
10167.373,31.5379382,34.6154240,57.3,9.8,8.9
10173.549,31.5375365,34.6151204,53.1,9.1,9.1
10179.388,31.5371065,34.6148740,53.1,8.8,9.1
10185.420,31.5366414,34.6146180,57.0,9.5,9.2
10191.404,31.5362019,34.6143823,53.6,9.1,9.4
10198.385,31.5357383,34.6141162,57.3,8.5,9.3
10205.506,31.5352973,34.6138643,54.4,7.7,9.1
10212.454,31.5348884,34.6136148,51.2,7.4,8.8
10219.401,31.5344845,34.6133373,52.0,7.5,8.5
10226.438,31.5340680,34.6130255,54.9,7.6,8.3
10233.435,31.5336488,34.6127326,54.2,7.7,8.2
10240.385,31.5332433,34.6124295,53.4,7.7,8.0
10247.431,31.5327954,34.6121458,56.5,7.9,7.8
10254.462,31.5323427,34.6118762,56.3,8.1,7.7
10261.396,31.5318853,34.6115736,58.3,8.2,7.8
10267.438,31.5314874,34.6113239,50.1,8.3,7.9
10273.430,31.5310805,34.6110727,51.0,8.5,8.0
10279.395,31.5306435,34.6108375,53.4,8.7,8.2
10285.392,31.5302323,34.6105972,51.0,8.8,8.2
10291.385,31.5297709,34.6103303,57.1,8.9,8.4
10297.498,31.5293237,34.6100293,57.2,9.6,8.6
10303.409,31.5288830,34.6097429,55.9,9.5,8.7
10309.421,31.5284826,34.6094244,53.7,9.1,8.8
10315.552,31.5280972,34.6091407,50.5,8.6,8.8
10318.586,31.5278912,34.6089894,27.0,8.5,8.8
10319.353,31.5278367,34.6089048,10.1,8.9,8.9
10325.375,31.5274181,34.6086195,53.7,9.0,9.0
10331.388,31.5270338,34.6082961,52.5,8.8,9.0
10337.388,31.5266555,34.6079605,52.7,8.8,9.0
10343.364,31.5263041,34.6075799,53.1,8.9,9.0
10346.392,31.5261026,34.6073125,33.8,9.6,9.2
10347.388,31.5260119,34.6072296,12.8,9.9,9.2
10348.411,31.5258994,34.6072716,13.1,10.4,9.3
10349.422,31.5259336,34.6072225,6.0,10.1,9.2
10350.367,31.5258867,34.6072095,5.3,9.7,9.1
10351.365,31.5258111,34.6071311,11.2,9.9,9.1
10353.439,31.5256733,34.6069000,26.7,10.8,9.3
10359.367,31.5253086,34.6064358,59.8,10.0,9.3
10364.389,31.5250114,34.6060214,51.3,10.2,9.4
10369.362,31.5246746,34.6056548,51.1,10.4,9.5
10374.356,31.5243603,34.6052513,51.8,10.4,9.7
10379.417,31.5240478,34.6048487,51.6,10.3,9.8
10385.435,31.5236910,34.6043880,59.0,9.9,9.9
10391.396,31.5233338,34.6039658,56.4,9.4,9.9
10397.411,31.5229805,34.6035849,53.3,9.1,10.0
10403.422,31.5226090,34.6032245,53.6,8.8,10.0
10409.424,31.5221917,34.6028429,58.8,9.5,9.8
10415.503,31.5217392,34.6024735,61.2,10.0,9.8
10420.384,31.5213499,34.6021433,53.4,10.5,9.9
10425.396,31.5209595,34.6017926,54.6,10.9,9.9
10430.393,31.5205803,34.6014563,52.8,10.7,9.9
10435.394,31.5201892,34.6011291,53.4,10.6,9.9
10440.389,31.5198079,34.6008011,52.5,10.6,10.0
10446.410,31.5193877,34.6004526,57.1,9.8,10.0
10452.367,31.5189928,34.6000878,55.8,9.4,10.0
10458.388,31.5185860,34.5997091,57.7,9.5,10.0
10464.433,31.5181784,34.5993941,54.2,9.3,10.0
10470.358,31.5177841,34.5991073,51.5,9.0,9.9
10477.444,31.5173824,34.5988158,52.4,7.9,9.6
10484.377,31.5169643,34.5985492,52.8,7.5,9.2
10490.355,31.5165582,34.5982996,50.9,8.2,9.0
10497.430,31.5160992,34.5980210,57.4,8.3,8.7
10504.454,31.5156433,34.5977604,56.3,8.1,8.5
10511.431,31.5151926,34.5975205,54.9,7.8,8.3
10518.432,31.5147134,34.5972837,57.7,8.2,8.1
10524.431,31.5142803,34.5970631,52.4,8.5,8.1
10531.413,31.5138000,34.5968291,57.7,8.3,8.1
10537.394,31.5133839,34.5966181,50.3,8.3,8.2
10544.412,31.5129255,34.5963247,58.0,8.4,8.3
10550.487,31.5125400,34.5960489,50.1,8.3,8.2
10556.440,31.5121536,34.5957142,53.4,8.6,8.3
10562.338,31.5117709,34.5953609,54.1,9.1,8.4
10568.438,31.5114367,34.5949647,52.8,8.9,8.5
10574.376,31.5110916,34.5945344,56.0,9.2,8.6
10580.380,31.5107437,34.5940614,59.2,9.7,8.8
10586.398,31.5104511,34.5935301,60.0,10.0,8.9
10591.427,31.5102188,34.5930745,50.4,10.0,9.1
10596.395,31.5100070,34.5925756,52.9,10.3,9.3
10601.520,31.5098185,34.5920811,51.4,10.3,9.4
10606.398,31.5096354,34.5915861,51.2,10.3,9.6
10611.435,31.5094632,34.5910702,52.6,10.4,9.8
10616.391,31.5092796,34.5905490,53.5,10.5,9.9
10621.621,31.5090743,34.5900430,53.2,10.5,10.0
10626.364,31.5088543,34.5895578,52.1,10.6,10.2
10632.374,31.5085926,34.5890476,56.5,9.8,10.2
10638.387,31.5083979,34.5885265,54.0,9.3,10.1
10644.393,31.5081745,34.5879777,57.7,9.3,10.1
10647.392,31.5080737,34.5877037,28.3,9.5,10.1
10652.507,31.5078596,34.5873642,40.0,8.8,9.9
10656.352,31.5077901,34.5871598,20.9,7.2,9.6
10657.403,31.5079309,34.5869585,24.7,7.2,9.6
10658.465,31.5079790,34.5868314,13.2,9.0,9.8
10659.513,31.5079830,34.5866642,15.9,9.6,9.9
10660.367,31.5080357,34.5865618,11.3,9.9,9.9
10661.392,31.5081271,34.5865200,10.9,10.2,10.0
10663.372,31.5083832,34.5865059,28.4,11.5,10.1
10666.358,31.5085907,34.5863726,26.3,13.0,10.0
10667.378,31.5086238,34.5863212,6.1,12.4,9.9
10670.597,31.5086124,34.5861123,19.9,9.0,9.7
10671.617,31.5085721,34.5860482,7.6,8.6,9.7
10672.356,31.5085192,34.5860558,5.9,8.6,9.6
10678.429,31.5082388,34.5855421,57.9,8.5,9.5
10681.439,31.5080921,34.5853110,27.3,9.1,9.5
10682.421,31.5080167,34.5852630,9.5,9.4,9.4
10686.379,31.5077755,34.5849431,40.5,9.6,9.4
10688.420,31.5076000,34.5847917,24.2,10.0,9.5
10690.390,31.5073952,34.5847398,23.2,10.5,9.6
10693.410,31.5071916,34.5845537,28.7,10.6,9.6
10699.479,31.5068047,34.5841134,59.9,9.4,9.6
10704.369,31.5064726,34.5837180,52.6,10.3,9.7
10709.539,31.5061299,34.5832733,56.8,10.9,9.9
10714.646,31.5058063,34.5827991,57.6,11.1,10.3
10716.350,31.5056471,34.5826283,24.0,11.6,10.5
10719.502,31.5054833,34.5823656,30.9,11.2,10.3
10721.381,31.5054510,34.5821376,22.0,11.6,10.2
10727.362,31.5052011,34.5815843,59.4,10.3,10.1
10733.397,31.5049767,34.5811076,51.7,9.4,10.3
10735.393,31.5048759,34.5810712,11.7,8.5,10.2
10737.360,31.5048032,34.5809864,11.4,7.5,10.0
10739.401,31.5047325,34.5808572,14.6,7.3,10.0
10742.388,31.5046629,34.5805408,31.0,8.0,10.0
10746.424,31.5045475,34.5801817,36.4,8.8,10.0
10749.487,31.5044863,34.5799670,21.5,8.9,9.6
10750.505,31.5044772,34.5798432,11.8,9.2,9.7
10753.449,31.5043469,34.5793997,44.5,9.1,9.8
10754.466,31.5042922,34.5793844,6.2,8.3,9.6
10761.583,31.5041680,34.5790153,37.7,7.5,9.4
10766.373,31.5041009,34.5784783,51.6,8.8,9.3
10771.345,31.5039827,34.5780589,41.9,9.3,9.2
10774.387,31.5039138,34.5777214,33.0,9.5,9.1
10775.357,31.5039224,34.5776173,9.9,9.4,9.0
10779.375,31.5038606,34.5773239,28.7,8.7,8.8
10780.367,31.5038145,34.5772747,6.9,8.6,8.7
10787.388,31.5037751,34.5767121,53.6,7.4,8.4
10795.364,31.5037189,34.5761190,56.7,7.7,8.3
10799.445,31.5036626,34.5758346,27.7,7.1,8.3
10803.365,31.5036882,34.5754645,35.3,7.8,8.3
10804.420,31.5036166,34.5755541,11.6,8.3,8.3
10805.395,31.5035815,34.5755507,3.9,7.9,8.2
10807.401,31.5035603,34.5754161,13.0,7.5,8.1
10813.408,31.5035438,34.5748112,57.5,8.6,8.2
10820.442,31.5035213,34.5742029,57.8,8.4,8.3
10827.470,31.5034953,34.5736050,56.9,8.2,8.1
10829.333,31.5034867,34.5734400,15.7,8.1,8.1
10834.352,31.5035417,34.5728912,52.5,9.1,8.2
10842.437,31.5036527,34.5722863,58.8,7.9,8.1
10849.427,31.5037393,34.5716855,57.9,8.1,8.2
10855.378,31.5039015,34.5711306,55.7,9.3,8.4
10861.539,31.5039525,34.5705224,58.1,10.0,8.7
10864.348,31.5040062,34.5702231,29.1,9.9,8.7
10868.428,31.5041186,34.5699257,30.9,9.0,8.6
10874.674,31.5042079,34.5693139,59.0,8.7,8.7
10876.355,31.5042398,34.5690987,20.7,9.0,8.8
10878.345,31.5043143,34.5689403,17.2,9.7,8.9
10882.335,31.5043890,34.5684638,46.0,10.3,9.1
10889.447,31.5044223,34.5678818,55.4,9.1,9.0
10895.392,31.5044838,34.5673207,53.7,8.7,8.8
10901.337,31.5045842,34.5667078,59.3,9.5,9.2
10902.458,31.5045582,34.5666095,9.8,9.5,9.2
10908.346,31.5046520,34.5660825,51.1,9.1,9.3
10910.449,31.5046593,34.5658483,22.3,9.3,9.3
10916.353,31.5047445,34.5654514,38.9,8.1,9.0
10918.370,31.5047301,34.5653010,14.4,7.6,9.0
10924.401,31.5048360,34.5647676,52.0,7.5,8.9
10930.420,31.5049299,34.5642156,53.5,9.0,8.9
10937.394,31.5050415,34.5636230,57.6,8.5,8.7
10943.472,31.5051271,34.5630594,54.4,8.7,8.6
10949.394,31.5052399,34.5625100,53.7,9.1,8.7
10955.573,31.5053775,34.5619975,51.0,8.6,8.6
10960.373,31.5055288,34.5614869,51.3,9.3,8.7
10965.369,31.5056557,34.5609976,48.6,9.7,8.8
10970.363,31.5058047,34.5604973,50.3,10.0,8.9
10971.368,31.5058259,34.5603567,13.6,10.3,8.9
10974.329,31.5059039,34.5600762,28.0,10.4,9.0
10977.339,31.5059445,34.5597476,31.5,10.2,9.2
10980.405,31.5060362,34.5594101,33.6,10.7,9.4
10981.378,31.5059414,34.5594020,10.5,9.5,9.3
10984.432,31.5059690,34.5592329,16.4,9.2,9.3
10986.404,31.5060528,34.5589836,25.4,9.7,9.4
10991.483,31.5061274,34.5584235,53.8,9.9,9.6
10996.503,31.5061362,34.5578110,58.2,11.1,9.8
10998.363,31.5061038,34.5576445,16.2,10.9,9.8
11003.552,31.5060220,34.5570843,54.0,10.5,10.0
11005.588,31.5059957,34.5568019,27.0,10.9,10.1
11009.336,31.5058468,34.5563570,45.4,11.6,10.3
11010.357,31.5058121,34.5561265,22.2,12.5,10.5
11011.391,31.5057574,34.5560762,7.7,12.2,10.5
11015.638,31.5055845,34.5555472,53.8,12.9,10.8
11018.339,31.5053687,34.5551836,42.0,13.7,11.0
11020.354,31.5051970,34.5550054,25.5,13.7,11.1
11021.354,31.5051351,34.5548813,13.6,13.0,11.2
11025.384,31.5047849,34.5545223,51.7,13.5,11.4
11028.356,31.5044694,34.5542856,41.6,13.2,11.5
11031.388,31.5041824,34.5541855,33.2,12.6,11.6
11032.389,31.5041134,34.5541823,7.7,12.3,11.5
11035.409,31.5038487,34.5540434,32.2,11.5,11.6
11040.418,31.5033321,34.5540015,57.4,10.7,11.6
11045.424,31.5028343,34.5539578,55.3,11.3,11.9
11051.455,31.5023115,34.5538764,58.5,10.3,11.7
11057.446,31.5017818,34.5537942,59.2,9.7,11.7
11063.455,31.5012738,34.5537172,56.8,9.6,11.6
11069.415,31.5007680,34.5536720,56.2,9.5,11.2
11075.419,31.5002535,34.5536356,57.2,9.4,10.9
11081.347,31.4997224,34.5535960,59.0,9.8,10.5
11087.394,31.4991998,34.5535199,58.4,9.7,10.1
11092.459,31.4987980,34.5535479,44.6,9.3,9.9
11098.414,31.4982749,34.5534980,58.2,9.3,9.8
11104.526,31.4978244,34.5534688,50.0,8.8,9.5
11111.448,31.4973122,34.5534488,56.8,8.2,9.3
11118.410,31.4968453,34.5534033,52.0,7.5,9.0
11125.440,31.4963875,34.5533737,50.8,7.4,8.8
11133.388,31.4959192,34.5533353,52.1,6.7,8.4
11141.420,31.4954239,34.5532954,55.0,6.8,8.0
11148.435,31.4949260,34.5532519,55.4,7.7,7.8
11154.523,31.4944783,34.5531720,50.2,8.2,7.7
11160.380,31.4940352,34.5530128,51.4,8.6,7.6
11166.401,31.4936099,34.5527668,52.6,8.8,7.7
11172.396,31.4931356,34.5525378,56.9,9.2,7.8
11178.353,31.4926705,34.5523140,55.8,9.4,8.0
11179.349,31.4925907,34.5522567,10.4,9.5,8.1
11180.394,31.4925276,34.5522786,7.3,9.2,8.1
11186.454,31.4920327,34.5520431,59.3,9.6,8.3
11189.415,31.4918142,34.5519073,27.4,9.4,8.4
11190.436,31.4917533,34.5518409,9.2,9.6,8.5
11196.589,31.4912938,34.5516233,55.0,9.1,8.8
11202.453,31.4908145,34.5514013,57.2,9.4,9.0
11208.448,31.4903182,34.5511616,59.6,9.8,9.2
11214.403,31.4898460,34.5509422,56.4,9.7,9.3
11220.384,31.4893832,34.5507582,54.2,9.1,9.4
11224.392,31.4890649,34.5505980,38.4,9.2,9.4
11228.398,31.4887900,34.5504332,34.3,9.2,9.4
11230.396,31.4886459,34.5503735,17.0,9.0,9.4
11233.437,31.4884094,34.5502029,30.8,9.2,9.4
11237.477,31.4881421,34.5499350,39.1,9.5,9.4
11238.488,31.4880836,34.5498419,11.0,9.7,9.4
11240.336,31.4879564,34.5497152,18.5,9.9,9.4
11241.400,31.4878697,34.5496939,9.8,9.9,9.5
11243.434,31.4877145,34.5495976,19.5,10.0,9.5
11248.565,31.4874086,34.5492767,45.6,9.3,9.4
11251.413,31.4872012,34.5491372,26.5,9.2,9.4
11252.388,31.4871515,34.5490463,10.2,9.3,9.4
11258.337,31.4868005,34.5487171,49.9,9.1,9.4
11265.336,31.4863647,34.5484057,56.7,8.3,9.2
11268.335,31.4862158,34.5482134,24.6,8.4,9.1
11270.366,31.4860869,34.5481164,17.0,8.3,9.0
11271.409,31.4860352,34.5480424,9.1,8.4,9.0
11273.338,31.4858973,34.5479440,17.9,8.5,9.0
11276.412,31.4856837,34.5478451,25.5,8.5,9.0
11278.360,31.4855663,34.5477375,16.6,8.6,9.0
11280.415,31.4854420,34.5476666,15.3,8.4,8.9
11282.409,31.4853219,34.5475523,17.2,8.4,8.9
11283.389,31.4852512,34.5475228,8.3,8.3,8.9
11284.428,31.4851848,34.5474406,10.7,8.5,8.9
11290.520,31.4847734,34.5471515,53.2,8.9,8.9
11294.475,31.4845638,34.5468808,34.7,8.8,8.8
11301.371,31.4841495,34.5465471,55.8,8.1,8.6
11303.417,31.4840289,34.5465022,14.0,7.8,8.6
11308.429,31.4837350,34.5462224,42.1,8.3,8.5
11309.395,31.4836930,34.5462484,5.3,8.0,8.4
11312.387,31.4834687,34.5461369,27.0,8.2,8.4
11319.362,31.4831050,34.5457675,53.5,7.9,8.3
11323.405,31.4828739,34.5456224,29.1,7.6,8.2
11330.473,31.4824744,34.5452741,55.3,7.7,8.2
11336.474,31.4821424,34.5449790,46.3,7.7,8.1
11337.379,31.4820687,34.5449580,8.4,7.8,8.1
11341.372,31.4818650,34.5447508,30.0,7.8,8.1
11348.591,31.4815146,34.5443275,55.9,7.7,7.9
11350.620,31.4814221,34.5442044,15.6,7.7,7.9
11351.367,31.4814053,34.5441498,5.5,7.7,7.8
11352.356,31.4813392,34.5441275,7.6,7.7,7.8
11354.451,31.4812780,34.5440174,12.5,7.5,7.7
11355.516,31.4812042,34.5439787,9.0,7.4,7.8
11362.379,31.4809159,34.5435624,50.9,7.3,7.7
11366.382,31.4807474,34.5433062,30.7,7.5,7.7
11373.353,31.4804318,34.5429922,46.0,7.0,7.5
11380.378,31.4801136,34.5426393,48.7,6.9,7.4
11388.558,31.4798308,34.5421856,53.3,6.6,7.3
11394.477,31.4795921,34.5419209,36.5,6.2,7.1
11403.439,31.4792760,34.5415393,50.4,5.6,6.8
11412.383,31.4790558,34.5410334,53.9,6.0,6.6
11421.398,31.4788337,34.5405596,51.3,5.7,6.4
11431.410,31.4785970,34.5400669,53.7,5.4,6.1
11441.422,31.4783792,34.5395600,53.9,5.4,5.8
11451.410,31.4781631,34.5390703,52.3,5.3,5.6
11461.413,31.4779350,34.5385846,52.6,5.3,5.5
11462.364,31.4779139,34.5385315,5.6,5.3,5.5
11463.388,31.4778746,34.5385131,4.7,5.2,5.5
11473.385,31.4776384,34.5380130,54.3,5.4,5.4
11482.370,31.4773636,34.5375402,54.3,6.1,5.4
11491.554,31.4770104,34.5371584,53.4,5.9,5.5
11496.519,31.4768289,34.5369270,29.8,5.9,5.6
11501.391,31.4766570,34.5366115,35.5,6.6,5.7
11506.371,31.4764207,34.5364288,31.4,6.8,5.8
11511.388,31.4762115,34.5361434,35.7,7.1,6.0
11512.346,31.4761540,34.5361079,7.2,6.8,6.0
11515.359,31.4760349,34.5359520,19.8,6.9,6.1
11517.363,31.4759471,34.5358064,16.9,7.3,6.2
11518.347,31.4758834,34.5357679,8.0,7.4,6.2
11525.421,31.4755345,34.5353284,56.9,8.2,6.6
11527.453,31.4754661,34.5351646,17.3,8.2,6.7
11530.409,31.4753503,34.5350107,19.5,7.8,6.7
11532.386,31.4752901,34.5348574,16.0,7.7,6.8
11534.404,31.4752096,34.5347708,12.1,7.4,6.8
11535.470,31.4751366,34.5347362,8.7,7.4,6.9
11541.365,31.4749154,34.5343719,42.4,7.3,7.0
11542.361,31.4748681,34.5343358,6.3,7.3,7.0
11549.378,31.4745475,34.5338802,56.0,7.6,7.2
11557.559,31.4742573,34.5333673,58.4,7.5,7.4
11560.371,31.4741392,34.5331878,21.5,7.5,7.4
11564.397,31.4739944,34.5329238,29.8,7.6,7.4
11566.354,31.4738992,34.5328302,13.8,7.6,7.5
11572.359,31.4736629,34.5324829,42.1,7.1,7.5
11578.497,31.4734307,34.5322065,36.8,6.3,7.3
11579.481,31.4733375,34.5321861,10.5,6.8,7.3
11580.513,31.4733093,34.5320876,9.9,7.1,7.4
11586.471,31.4730609,34.5317188,44.6,7.9,7.3
11594.388,31.4727400,34.5313279,51.4,6.6,7.2
11601.412,31.4724766,34.5309486,46.4,6.7,7.2
11609.391,31.4721122,34.5305439,55.8,7.2,7.1
11617.451,31.4717387,34.5301402,56.5,6.9,7.1
11625.396,31.4713501,34.5297611,56.2,7.1,7.0
11632.369,31.4709663,34.5294367,52.6,7.6,7.0
11638.529,31.4705895,34.5291268,51.1,8.1,7.3
11644.453,31.4702070,34.5288024,52.4,8.6,7.3
11647.439,31.4700538,34.5287005,19.6,8.1,7.3
11653.373,31.4698980,34.5282722,44.2,7.4,7.4
11654.362,31.4698611,34.5282244,6.1,7.2,7.3
11655.386,31.4697816,34.5281869,9.5,7.3,7.4
11661.430,31.4696520,34.5287807,58.2,8.7,7.7
11667.372,31.4693257,34.5292058,54.2,8.6,7.9
11674.402,31.4689707,34.5296337,56.6,8.4,8.1
11681.545,31.4686200,34.5300496,55.4,7.7,8.2
11688.533,31.4682828,34.5304869,55.9,7.9,8.2
11695.450,31.4679406,34.5309384,57.3,8.1,8.3
11702.413,31.4675920,34.5313804,57.1,8.2,8.2
11708.438,31.4672871,34.5317701,50.1,8.3,8.3
11715.455,31.4669375,34.5321907,55.7,7.9,8.3
11722.409,31.4665866,34.5326290,57.0,8.1,8.2
11729.529,31.4662369,34.5330661,56.8,8.1,8.1
11736.398,31.4659037,34.5335027,55.6,8.0,8.1
11742.429,31.4656176,34.5338725,47.3,8.1,8.1
11744.368,31.4654843,34.5339410,16.1,8.0,8.1
11751.365,31.4649896,34.5337763,57.0,8.4,8.1
11757.396,31.4645671,34.5335691,50.8,8.4,8.1
11764.393,31.4640972,34.5333581,55.8,8.2,8.1
11771.462,31.4636699,34.5331433,51.6,7.5,8.0
11779.524,31.4632252,34.5329154,53.9,6.8,7.8
11788.461,31.4627985,34.5326179,55.1,6.1,7.6
11797.407,31.4624327,34.5322632,52.7,5.9,7.2
11803.370,31.4621372,34.5319696,43.0,6.7,7.2
11809.374,31.4618964,34.5316221,42.5,7.2,7.1
11811.349,31.4617790,34.5315183,16.3,7.4,7.1
11818.394,31.4614500,34.5310544,57.2,8.0,7.0
11825.353,31.4610999,34.5306801,52.7,7.9,7.0
11829.476,31.4608704,34.5304213,35.4,8.0,7.1
11830.518,31.4608291,34.5303435,8.7,8.2,7.1
11837.381,31.4604609,34.5299361,56.3,8.4,7.2
11843.343,31.4601596,34.5295125,52.3,8.7,7.5
11849.346,31.4598561,34.5291099,51.0,8.6,7.7
11855.357,31.4595334,34.5286710,55.0,8.9,8.1
11857.338,31.4594132,34.5284900,21.8,9.4,8.2
11863.346,31.4590341,34.5280803,57.3,9.5,8.5
11864.342,31.4589661,34.5280138,9.8,9.8,8.5
11866.422,31.4588632,34.5278287,21.0,9.7,8.6
11869.347,31.4586955,34.5276487,25.3,9.6,8.7
11871.461,31.4585663,34.5275478,17.2,9.2,8.7
11874.373,31.4584013,34.5273670,25.1,8.9,8.7
11876.361,31.4583070,34.5272044,18.7,8.9,8.8
11881.547,31.4580713,34.5268929,39.5,8.3,8.8
11883.579,31.4579656,34.5268199,13.6,7.8,8.8
11887.359,31.4577945,34.5266134,27.3,7.4,8.7
11889.482,31.4577298,34.5264768,14.8,7.1,8.6
11894.422,31.4575088,34.5261204,41.8,7.8,8.7
11898.349,31.4572736,34.5258347,37.7,8.8,8.7
11904.403,31.4569853,34.5254078,51.7,9.0,8.7
11910.413,31.4566678,34.5249984,52.5,8.8,8.7
11916.397,31.4563648,34.5245734,52.5,8.7,8.7
11919.450,31.4562309,34.5243485,26.0,8.6,8.6
11923.503,31.4559651,34.5240605,40.2,9.4,8.6
11929.536,31.4556745,34.5235078,61.6,10.1,8.7
11931.562,31.4555595,34.5233442,20.1,10.0,8.8
11933.609,31.4554678,34.5231738,19.1,10.0,8.8
11934.691,31.4554369,34.5230527,12.0,10.2,8.8
11938.457,31.4552008,34.5227538,38.6,10.2,9.0
11939.438,31.4551318,34.5226976,9.3,10.1,9.0
11945.352,31.4548578,34.5221770,58.1,10.0,9.2
11949.375,31.4546986,34.5218804,33.3,9.3,9.3
11950.344,31.4546313,34.5218139,9.8,9.3,9.3
11956.364,31.4543194,34.5213722,54.4,8.9,9.3
11962.405,31.4540231,34.5209377,52.8,8.9,9.3
11968.438,31.4537633,34.5204913,51.3,8.7,9.3
11974.340,31.4534223,34.5200413,57.1,9.3,9.4
11980.521,31.4531140,34.5196040,53.8,9.3,9.4
11982.434,31.4530169,34.5194484,18.3,9.3,9.3
11988.422,31.4526727,34.5191316,48.6,8.6,9.2
11994.410,31.4523371,34.5186467,59.2,8.9,9.2
11995.353,31.4523024,34.5185458,10.3,9.2,9.2
11996.376,31.4522196,34.5186079,10.9,9.7,9.2
11997.366,31.4521624,34.5185420,8.9,9.9,9.1
11999.374,31.4520677,34.5183610,20.2,10.0,9.2
12004.384,31.4517722,34.5180371,45.0,9.9,9.1
12005.368,31.4517355,34.5179647,8.0,9.3,9.1
12009.368,31.4514929,34.5177208,35.5,9.1,9.1
12013.413,31.4512558,34.5173976,40.4,9.5,9.1
12017.380,31.4509816,34.5170984,41.6,10.0,9.3
12018.404,31.4509026,34.5170673,9.2,9.9,9.3
12024.382,31.4505110,34.5166472,59.0,9.8,9.4
12029.453,31.4501833,34.5162473,52.6,10.3,9.5
12034.615,31.4498382,34.5158868,51.4,10.2,9.5
12039.391,31.4495073,34.5154748,53.7,10.6,9.7
12044.365,31.4491272,34.5151690,51.2,10.8,9.8
12049.384,31.4487781,34.5147654,54.5,10.6,10.1
12054.370,31.4484484,34.5143790,51.8,10.7,10.2
12059.387,31.4481112,34.5139938,52.3,10.4,10.1
12064.389,31.4477751,34.5136242,51.2,10.3,10.2
12069.439,31.4474236,34.5132631,51.9,10.3,10.4
12074.362,31.4470643,34.5128794,54.0,10.6,10.4
12079.497,31.4467066,34.5124852,54.6,10.8,10.5
12084.435,31.4463661,34.5120566,55.5,10.9,10.6
12090.493,31.4459846,34.5116290,58.7,10.4,10.5
12095.344,31.4456620,34.5112415,51.3,10.1,10.5
12099.369,31.4454249,34.5109567,37.7,9.9,10.4
12100.370,31.4453458,34.5108927,10.7,10.0,10.4
12103.403,31.4451677,34.5106466,30.6,9.8,10.4
12104.386,31.4451055,34.5105964,8.4,9.8,10.4
12105.380,31.4450619,34.5105152,9.1,9.6,10.4
12110.411,31.4447815,34.5102618,39.3,8.8,10.1
12117.386,31.4444256,34.5098132,58.1,8.2,9.9
12121.488,31.4442362,34.5095992,29.2,7.8,9.7
12123.548,31.4441106,34.5094864,17.6,7.8,9.6
12124.622,31.4440817,34.5093822,10.4,7.9,9.6
12125.364,31.4440286,34.5093432,7.0,8.0,9.6
12131.381,31.4437371,34.5090206,44.6,7.9,9.3
12132.383,31.4436860,34.5090426,6.0,7.9,9.3
12134.361,31.4435778,34.5089565,14.5,7.7,9.1
12136.677,31.4434797,34.5088344,15.9,7.5,9.0
12143.627,31.4431034,34.5084322,56.6,7.8,8.7
12145.419,31.4429973,34.5083166,16.1,8.1,8.6
12152.416,31.4426610,34.5078913,55.0,8.0,8.3
12156.354,31.4424962,34.5076778,27.3,7.6,8.1
12162.449,31.4421449,34.5073234,51.5,7.9,8.0
12169.435,31.4417815,34.5069305,54.9,7.9,7.9
12172.558,31.4416376,34.5068081,19.8,7.4,7.8
12173.351,31.4416045,34.5067422,7.3,7.6,7.8
12177.427,31.4413485,34.5065751,32.5,7.5,7.8
12182.386,31.4410359,34.5063135,42.7,8.2,7.9
12187.348,31.4407718,34.5059649,44.2,8.7,8.0
12190.396,31.4406105,34.5057478,27.3,9.0,8.0
12196.396,31.4401991,34.5053727,57.9,9.4,8.3
12202.461,31.4397686,34.5049955,59.7,10.0,8.4
12207.356,31.4393987,34.5046807,50.8,10.1,8.6
12209.377,31.4392525,34.5045662,19.5,10.0,8.7
12215.388,31.4388698,34.5041726,56.6,9.7,8.9
12219.412,31.4386012,34.5038902,40.1,9.7,9.0
12220.439,31.4385618,34.5039069,4.6,9.2,8.9
12227.407,31.4381867,34.5035616,53.0,8.2,8.9
12234.389,31.4378181,34.5032163,52.4,7.6,8.9
12241.389,31.4374182,34.5028545,56.1,8.0,8.9
12243.376,31.4372932,34.5027447,17.3,8.2,8.9
12246.389,31.4371297,34.5025584,25.3,8.4,8.9
12253.377,31.4367389,34.5022112,54.5,8.0,8.7
12259.379,31.4363989,34.5018761,49.4,8.2,8.5
12266.426,31.4360100,34.5015791,51.5,7.7,8.2
12273.385,31.4356000,34.5012438,55.5,7.8,8.0
12279.387,31.4352656,34.5009260,47.8,8.1,7.9
12281.382,31.4351295,34.5008433,17.0,8.2,7.9
12287.363,31.4347651,34.5004706,53.7,8.6,8.1
12293.378,31.4343681,34.5001267,54.8,9.1,8.2
12294.402,31.4343015,34.5000707,9.1,9.1,8.2
12295.406,31.4341770,34.5000331,14.3,9.5,8.3
12297.396,31.4341001,34.4998691,17.8,9.6,8.4
12302.397,31.4338035,34.4995672,43.6,9.4,8.4
12306.438,31.4335326,34.4993261,37.8,9.2,8.5
12307.400,31.4334557,34.4992874,9.3,9.2,8.5
12313.467,31.4330931,34.4989661,50.5,8.8,8.6
12319.356,31.4327094,34.4985999,55.0,8.6,8.7
12320.427,31.4326272,34.4985179,12.0,9.1,8.7
12321.462,31.4325676,34.4985017,6.8,8.8,8.7
12325.597,31.4323046,34.4982786,36.1,9.2,8.8
12326.645,31.4322635,34.4981850,10.0,9.4,8.8
12332.420,31.4318284,34.4978292,58.9,9.6,9.1
12338.395,31.4314005,34.4975725,53.4,9.4,9.2
12344.441,31.4309425,34.4973614,54.6,9.2,9.2
12351.446,31.4304426,34.4971961,57.6,8.5,9.1
12358.393,31.4299894,34.4970706,51.6,7.5,8.8
12364.743,31.4295383,34.4969826,50.7,7.8,8.8
12367.378,31.4293590,34.4968457,23.8,8.2,8.7
12373.534,31.4292180,34.4965483,32.3,6.7,8.4
12389.418,31.4292527,34.4963095,23.0,1.4,6.4
12392.377,31.4291928,34.4962922,6.8,1.6,6.1
12412.487,31.4291323,34.4960034,28.3,1.5,3.6
12440.356,31.4292234,34.4954841,50.4,1.8,1.7
12448.352,31.4292537,34.4953607,12.2,1.6,1.7
12458.419,31.4292868,34.4953463,3.9,1.5,1.6
12481.383,31.4292233,34.4952329,12.9,1.1,1.4
12490.450,31.4293037,34.4951842,10.0,1.0,1.3
12535.384,31.4293268,34.4952380,5.7,0.7,0.9
14307.476,31.4292993,34.4951690,7.2,0.4,0.1
14419.435,31.4292283,34.4956887,50.0,1.2,0.6
14457.465,31.4290813,34.4959427,29.1,0.7,0.9
14591.469,31.4291283,34.4960098,8.2,0.6,0.1
14616.409,31.4290972,34.4960237,3.7,0.3,0.2
14671.412,31.4291566,34.4960281,6.6,0.5,0.3
14689.449,31.4291170,34.4960148,4.6,0.4,0.3
14770.387,31.4291321,34.4960384,2.8,0.3,0.1
14780.394,31.4290621,34.4960979,9.6,1.0,0.2
14789.685,31.4290259,34.4960472,6.3,0.8,0.3
14932.404,31.4290854,34.4961724,13.6,0.5,0.3
14974.399,31.4290652,34.4961694,2.3,0.2,0.1
15095.467,31.4291810,34.4966840,50.6,0.7,0.7
15118.591,31.4291023,34.4969227,24.3,0.9,1.0
15154.470,31.4286315,34.4970233,53.1,4.2,1.4
15164.437,31.4281335,34.4969749,55.4,5.5,2.1
15172.450,31.4277269,34.4969673,45.1,5.9,2.7
15174.363,31.4276328,34.4969461,10.6,6.0,2.8
15176.520,31.4275098,34.4969963,14.4,6.2,3.1
15180.386,31.4272343,34.4969326,31.1,7.1,3.5
15181.639,31.4271622,34.4968774,9.6,7.3,3.7
15189.372,31.4266568,34.4969156,56.2,7.4,4.5
15196.393,31.4261830,34.4969565,52.7,7.5,5.4
15204.395,31.4256724,34.4970094,56.8,7.2,6.3
15211.415,31.4252214,34.4970146,50.0,7.2,6.7
15219.565,31.4247477,34.4970173,52.5,6.6,6.8
15227.367,31.4242869,34.4969787,51.2,6.5,7.0
15237.411,31.4238222,34.4969888,51.5,5.2,6.8
15247.416,31.4233702,34.4969594,50.2,5.1,6.3
15257.464,31.4228969,34.4969739,52.5,5.3,6.0
15267.426,31.4224167,34.4969772,53.2,5.3,5.7
15276.401,31.4219041,34.4969713,56.8,6.3,5.6
15284.382,31.4214014,34.4969868,55.8,7.0,5.7
15291.461,31.4208982,34.4969213,56.1,7.7,6.0
15295.450,31.4206129,34.4968830,31.8,7.8,6.1
15301.446,31.4201242,34.4967388,55.9,8.7,6.6
15303.386,31.4199491,34.4966931,19.9,9.1,6.7
15306.411,31.4197520,34.4965570,25.4,9.2,6.9
15312.550,31.4193151,34.4963345,52.9,8.8,7.2
15314.383,31.4191487,34.4962412,20.5,9.0,7.4
15317.424,31.4188798,34.4961636,30.7,9.5,7.6
15320.396,31.4186903,34.4959417,29.8,10.1,7.9
15326.395,31.4182675,34.4955825,58.0,9.9,8.3
15330.388,31.4179642,34.4953233,41.7,10.2,8.6
15332.385,31.4178596,34.4951853,17.5,10.1,8.7
15338.405,31.4174581,34.4948272,56.0,9.5,9.0
15344.415,31.4170589,34.4944328,58.0,9.6,9.3
15350.458,31.4166680,34.4940721,55.3,9.4,9.4
15354.439,31.4164178,34.4938398,35.5,9.1,9.4
15360.374,31.4160359,34.4934978,53.4,8.9,9.4
15366.444,31.4156970,34.4931375,50.8,8.4,9.4
15373.390,31.4152701,34.4927851,58.0,8.4,9.3
15374.390,31.4152164,34.4927688,6.2,8.2,9.2
15381.583,31.4148531,34.4924086,52.9,7.8,8.9
15388.392,31.4145005,34.4920674,50.8,7.3,8.6
15390.419,31.4143964,34.4919619,15.3,7.3,8.5
15392.440,31.4143172,34.4918265,15.6,7.6,8.5
15399.456,31.4139448,34.4913937,58.3,8.2,8.4
15401.460,31.4138110,34.4913104,16.8,8.4,8.3
15407.412,31.4134705,34.4908749,56.0,9.1,8.3
15414.582,31.4131089,34.4904442,57.3,8.2,8.2
15419.404,31.4128700,34.4901355,39.5,8.1,8.1
15421.442,31.4127569,34.4900251,16.4,8.2,8.1
15425.710,31.4125725,34.4897733,31.5,7.8,8.0
15427.381,31.4124387,34.4896501,18.9,8.4,8.1
15434.391,31.4121204,34.4892225,53.8,8.3,8.1
15441.430,31.4117700,34.4888329,53.7,7.3,8.1
15445.418,31.4115296,34.4886210,33.4,7.9,8.1
15451.507,31.4111791,34.4881692,57.9,9.1,8.4
15456.465,31.4108410,34.4877713,53.3,10.1,8.6
15461.550,31.4105271,34.4873513,53.0,10.6,8.8
15466.463,31.4101693,34.4869070,58.0,11.1,8.9
15467.405,31.4101123,34.4868130,10.9,11.2,9.0
15472.613,31.4097455,34.4864281,54.7,11.1,9.2
15477.408,31.4093981,34.4860259,54.3,10.9,9.5
15482.507,31.4090490,34.4855924,56.5,11.2,9.7
15487.393,31.4086865,34.4851520,58.0,11.4,10.0
15492.369,31.4083319,34.4847250,56.5,11.3,10.2
15497.390,31.4079564,34.4843175,56.9,11.6,10.6
15502.477,31.4076262,34.4839316,51.8,10.8,10.8
15508.444,31.4072569,34.4834699,60.0,10.2,10.9
15513.574,31.4069115,34.4830960,52.3,10.1,10.9
15519.428,31.4065971,34.4825969,58.9,10.1,10.9
15522.607,31.4064405,34.4823290,30.8,9.7,10.8
15523.391,31.4063428,34.4822155,15.3,10.4,10.9
15529.385,31.4060707,34.4817137,56.5,10.3,10.7
15535.374,31.4058004,34.4812060,56.8,9.5,10.6
15541.443,31.4055264,34.4806962,57.2,9.9,10.4
15547.405,31.4052761,34.4802269,52.6,8.6,10.1
15553.509,31.4050385,34.4797360,53.6,8.8,9.9
15559.549,31.4047454,34.4792453,56.9,9.2,9.8
15565.446,31.4044782,34.4787718,53.9,9.2,9.6
15571.564,31.4041967,34.4782995,54.7,9.2,9.5
15577.438,31.4039561,34.4778470,50.6,8.7,9.4
15583.410,31.4037035,34.4773899,51.7,8.5,9.1
15589.364,31.4033831,34.4769293,56.4,9.0,9.1
15594.404,31.4030744,34.4765892,47.1,9.4,9.2
15599.420,31.4027806,34.4762335,47.0,9.4,9.1
15600.454,31.4027499,34.4761581,7.9,9.3,9.0
15606.561,31.4023458,34.4758834,51.9,8.6,9.0
15612.544,31.4019331,34.4755411,56.2,8.9,9.1
15617.399,31.4015418,34.4752763,50.2,9.9,9.1
15622.391,31.4011337,34.4749505,54.8,10.6,9.3
15627.435,31.4007209,34.4747015,51.5,10.6,9.4
15632.432,31.4003480,34.4744484,47.8,9.9,9.4
15638.435,31.3999661,34.4741405,51.5,9.0,9.4
15640.401,31.3998172,34.4740359,19.3,9.3,9.5
15641.435,31.3998114,34.4739951,3.9,8.4,9.4
15649.413,31.3993984,34.4737434,51.7,6.5,9.0
15652.514,31.3992324,34.4736427,20.7,6.3,8.9
15653.506,31.3991811,34.4736349,5.7,6.2,8.9
15661.528,31.3987745,34.4733375,53.2,6.6,8.5
15667.416,31.3984899,34.4731282,37.3,6.5,8.3
15672.556,31.3981919,34.4728873,40.2,7.1,8.2
15679.461,31.3977915,34.4726190,51.2,7.5,7.8
15686.374,31.3973725,34.4723096,55.0,7.9,7.6
15692.470,31.3969382,34.4719890,57.0,9.0,7.5
15694.444,31.3968058,34.4719181,16.2,8.9,7.4
15700.402,31.3964677,34.4716374,46.0,8.3,7.3
15703.508,31.3962906,34.4714275,28.0,8.2,7.5
15705.564,31.3961392,34.4712983,20.8,8.5,7.6
15712.519,31.3958208,34.4708247,57.2,8.7,7.8
15718.432,31.3954807,34.4704527,51.7,8.6,8.0
15724.391,31.3951908,34.4700269,51.7,8.8,8.3
15727.380,31.3950371,34.4697907,28.2,9.1,8.4
15728.378,31.3949774,34.4697329,8.6,8.9,8.4
15734.458,31.3946550,34.4693165,53.4,9.0,8.5
15740.400,31.3943352,34.4689088,52.5,8.7,8.7
15747.477,31.3940051,34.4684533,56.7,8.3,8.7
15752.537,31.3937243,34.4681283,43.9,8.3,8.6
15759.380,31.3934166,34.4676415,57.5,8.7,8.6
15765.417,31.3931214,34.4671446,57.5,9.1,8.8
15767.472,31.3930376,34.4669960,16.9,9.1,8.7
15772.356,31.3927414,34.4666259,48.1,9.5,8.8
15778.404,31.3923684,34.4661641,60.3,10.0,9.0
15784.386,31.3920087,34.4657404,56.7,9.8,9.0
15787.429,31.3918526,34.4654563,32.1,9.9,9.1
15788.414,31.3918117,34.4654717,4.8,9.4,9.0
15791.438,31.3916536,34.4652552,27.0,9.2,9.0
15794.456,31.3915467,34.4650555,22.4,8.6,8.9
15801.470,31.3911678,34.4646415,57.6,8.0,8.9
15806.420,31.3908247,34.4643301,48.2,8.8,9.1
15807.451,31.3907069,34.4642873,13.7,9.3,9.1
15809.418,31.3906981,34.4640631,21.3,9.9,9.3
15810.403,31.3906699,34.4639786,8.6,10.1,9.2
15811.425,31.3906367,34.4639475,4.7,9.6,9.2
15815.654,31.3905380,34.4636222,32.8,9.1,9.1
15822.384,31.3904873,34.4630514,54.6,8.0,9.0
15828.404,31.3903946,34.4624506,58.1,9.2,9.1
15834.427,31.3902749,34.4618538,58.3,9.8,9.1
15840.440,31.3902243,34.4613025,52.7,9.3,8.9
15842.426,31.3902134,34.4611008,19.2,9.2,9.0
15848.360,31.3900884,34.4605443,54.7,9.1,8.9
15852.477,31.3900075,34.4601569,37.9,9.2,9.0
15854.548,31.3900116,34.4599815,16.7,9.0,9.0
15858.376,31.3899096,34.4595955,38.4,9.3,9.1
15861.437,31.3898887,34.4593046,27.8,9.2,9.2
15865.622,31.3897802,34.4588685,43.2,10.1,9.3
15866.376,31.3898056,34.4587611,10.6,10.3,9.3
15871.372,31.3896416,34.4581767,58.5,11.3,9.4
15876.410,31.3895628,34.4576441,51.4,11.0,9.6
15877.399,31.3895502,34.4575301,10.9,11.1,9.7
15878.389,31.3895719,34.4574418,8.7,10.8,9.7
15883.424,31.3894398,34.4568453,58.6,10.7,9.9
15888.460,31.3892765,34.4563351,51.8,11.0,10.0
15891.501,31.3891355,34.4560265,33.3,10.7,10.1
15892.479,31.3890634,34.4559297,12.2,10.6,10.1
15897.505,31.3888400,34.4554155,54.8,11.1,10.3
15899.381,31.3887704,34.4552095,21.1,11.1,10.3
15900.393,31.3887087,34.4551266,10.4,11.0,10.3
15906.443,31.3884875,34.4545736,58.0,9.9,10.4
15912.425,31.3882421,34.4540507,56.7,9.4,10.4
15917.399,31.3879986,34.4535715,53.0,10.0,10.6
15922.398,31.3877843,34.4531030,50.5,10.3,10.6
15927.453,31.3875384,34.4526129,54.0,10.4,10.6
15929.453,31.3874323,34.4524245,21.4,10.6,10.6
15934.395,31.3872783,34.4518934,53.3,10.9,10.5
15939.401,31.3870865,34.4514003,51.5,10.6,10.5
15940.396,31.3870488,34.4512941,10.9,10.6,10.5
15941.402,31.3870531,34.4512276,6.3,10.3,10.4
15942.402,31.3870058,34.4510849,14.5,10.6,10.4
15946.517,31.3867731,34.4506984,44.9,10.9,10.5
15949.433,31.3866692,34.4504060,30.1,10.7,10.5
15952.460,31.3865895,34.4501182,28.8,10.4,10.4
15954.490,31.3864480,34.4499399,23.1,10.5,10.4
15957.587,31.3863272,34.4496654,29.3,9.9,10.3
15958.377,31.3862575,34.4496111,9.3,10.1,10.3
15963.495,31.3860405,34.4490955,54.6,10.6,10.3
15968.392,31.3857804,34.4486554,50.8,10.6,10.5
15973.421,31.3855470,34.4482746,44.5,9.5,10.4
15975.424,31.3853995,34.4481393,20.8,9.6,10.4
15981.385,31.3849993,34.4478479,52.3,9.2,10.2
15985.374,31.3846838,34.4476096,41.7,9.6,10.2
15992.405,31.3841979,34.4474886,55.1,8.8,9.9
15993.459,31.3841432,34.4475297,7.2,8.6,9.8
15999.401,31.3836852,34.4474775,51.0,8.6,9.6
16007.425,31.3831761,34.4474494,56.5,7.4,9.2
16014.383,31.3827018,34.4474134,52.7,7.3,8.8
16020.422,31.3822926,34.4474204,45.4,7.6,8.5
16025.396,31.3819738,34.4474282,35.4,7.4,8.3
16032.461,31.3815226,34.4473923,50.1,7.2,8.0
16040.466,31.3810358,34.4473103,54.5,6.9,7.6
16049.438,31.3805455,34.4472716,54.5,6.2,7.3
16057.431,31.3800695,34.4472541,52.8,6.6,7.0
16065.574,31.3795932,34.4472366,52.8,6.6,6.9
16073.422,31.3791175,34.4472774,52.9,6.8,6.8
16081.423,31.3786560,34.4473593,51.8,6.6,6.7
16089.439,31.3782162,34.4474760,50.0,6.3,6.5
16096.547,31.3777657,34.4475815,50.9,7.1,6.6
16103.488,31.3773100,34.4476970,51.7,7.5,6.7
16111.453,31.3768250,34.4478422,55.5,7.1,6.8
16118.439,31.3763791,34.4479213,50.0,7.0,6.8
16125.447,31.3759123,34.4480722,53.7,7.5,7.0
16132.427,31.3754338,34.4482290,55.1,7.7,7.1
16139.418,31.3749715,34.4483387,52.3,7.7,7.2
16147.570,31.3744845,34.4484651,55.3,7.1,7.3
16154.521,31.3739912,34.4485882,55.9,7.8,7.4
16161.414,31.3735235,34.4487467,54.0,8.0,7.5
16166.405,31.3731949,34.4488095,36.9,7.8,7.5
16168.438,31.3730499,34.4488726,17.2,8.0,7.5
16172.413,31.3727672,34.4489056,31.5,7.8,7.6
16179.411,31.3722948,34.4490496,54.1,7.8,7.7
16186.474,31.3718383,34.4491782,52.1,7.5,7.6
16193.436,31.3713797,34.4493070,52.3,7.4,7.6
16201.420,31.3708895,34.4494512,56.1,7.2,7.6
16209.424,31.3703967,34.4495730,55.9,7.0,7.5
16216.375,31.3699331,34.4496900,52.6,7.5,7.5
16223.421,31.3694882,34.4498281,51.1,7.4,7.5
16231.483,31.3689990,34.4499306,55.1,6.9,7.3
16238.516,31.3685273,34.4500443,53.4,7.4,7.3
16245.540,31.3680705,34.4501423,51.5,7.4,7.3
16252.410,31.3676242,34.4502680,50.9,7.3,7.2
16259.438,31.3671664,34.4503788,51.8,7.5,7.3
16266.449,31.3666971,34.4504801,52.9,7.4,7.4
16273.388,31.3662258,34.4505522,52.7,7.6,7.4
16280.415,31.3657508,34.4506199,53.1,7.6,7.4
16287.534,31.3652989,34.4507181,51.0,7.3,7.4
16290.484,31.3650965,34.4507398,22.5,7.3,7.5
16297.390,31.3646185,34.4507579,53.0,7.6,7.5
16301.407,31.3643185,34.4507246,33.4,8.0,7.5
16307.558,31.3639011,34.4506965,46.4,7.9,7.6
16315.438,31.3634551,34.4505375,51.7,6.8,7.4
16322.358,31.3630058,34.4504329,50.8,7.2,7.5
16330.400,31.3625334,34.4503573,52.9,6.7,7.3
16337.518,31.3620867,34.4502614,50.4,7.1,7.3
16345.461,31.3615895,34.4502058,55.4,7.0,7.2
16352.370,31.3611449,34.4500852,50.6,7.4,7.2
16353.360,31.3610757,34.4500561,8.2,7.5,7.2
16355.428,31.3609437,34.4500522,14.6,7.3,7.2
16356.494,31.3609151,34.4499903,6.7,7.3,7.2
16363.396,31.3604548,34.4499261,51.4,7.3,7.1
16371.387,31.3599483,34.4498406,56.7,7.1,7.1
16376.371,31.3596249,34.4497939,36.1,7.1,7.2
16384.389,31.3591399,34.4497202,54.2,6.8,7.1
16392.373,31.3586484,34.4496263,55.2,6.7,7.1
16395.422,31.3584341,34.4495550,24.7,7.3,7.2
16396.479,31.3583485,34.4495672,9.6,7.6,7.2
16404.428,31.3578808,34.4494003,54.2,7.3,7.2
16406.396,31.3577319,34.4493845,16.6,7.4,7.2
16407.559,31.3576608,34.4493503,8.5,7.2,7.2
16409.680,31.3575611,34.4494215,13.0,7.3,7.2
16413.363,31.3573088,34.4493833,28.2,7.5,7.2
16415.377,31.3572232,34.4493179,11.4,7.1,7.2
16424.416,31.3567147,34.4492258,57.1,6.2,7.0
16432.387,31.3562447,34.4491412,52.7,6.4,7.0
16438.523,31.3558772,34.4490477,41.7,6.9,6.9
16442.389,31.3556031,34.4490057,30.7,7.3,7.0
16447.510,31.3553183,34.4489368,32.3,7.0,7.0
16448.557,31.3552590,34.4489007,7.4,7.1,6.9
16456.395,31.3547948,34.4488076,52.2,6.6,6.9
16464.447,31.3542955,34.4487215,56.0,6.9,6.8
16468.375,31.3540453,34.4487044,27.8,7.0,6.8
16470.404,31.3539142,34.4486572,15.2,7.0,6.8
16474.416,31.3536868,34.4486525,25.2,6.9,6.8
16482.482,31.3532305,34.4485425,51.7,6.3,6.8
16486.430,31.3529782,34.4484939,28.4,6.7,6.8
16494.371,31.3525306,34.4483986,50.4,6.6,6.8
16502.395,31.3520276,34.4482943,56.6,6.9,6.8
16506.404,31.3518106,34.4482834,24.1,6.6,6.7
16509.391,31.3516358,34.4481928,21.2,6.8,6.8
16517.451,31.3511629,34.4480763,53.6,6.7,6.7
16525.396,31.3506982,34.4479609,52.7,6.5,6.7
16534.404,31.3502303,34.4478776,52.5,5.9,6.6
16543.391,31.3497300,34.4477872,56.1,6.2,6.5
16549.441,31.3494617,34.4476772,31.5,5.9,6.4
16557.361,31.3489424,34.4475959,58.1,6.4,6.5
16564.359,31.3484749,34.4474841,52.9,7.8,6.6
16566.428,31.3483405,34.4474624,15.1,7.7,6.6
16568.400,31.3482174,34.4474672,13.6,7.3,6.6
16575.420,31.3477719,34.4473726,50.2,7.1,6.6
16578.434,31.3475609,34.4473403,23.6,7.4,6.7
16580.480,31.3474506,34.4472992,12.8,7.5,6.7
16581.512,31.3473795,34.4473020,7.9,7.5,6.7
16583.520,31.3472633,34.4472293,14.6,7.3,6.7
16592.641,31.3467665,34.4471198,56.1,6.0,6.8
16601.393,31.3463152,34.4470326,50.7,5.9,6.7
16606.395,31.3460541,34.4469765,29.4,6.0,6.7
16608.383,31.3459552,34.4469380,11.6,6.0,6.7
16609.400,31.3458657,34.4469501,10.0,6.5,6.8
16613.424,31.3456656,34.4468837,23.1,6.1,6.7
16623.416,31.3451917,34.4467949,53.2,5.4,6.4
16632.385,31.3447197,34.4466881,53.3,5.9,6.2
16640.439,31.3443328,34.4466315,43.2,5.5,5.9
16641.441,31.3442790,34.4465665,8.6,5.8,6.0
16650.604,31.3437985,34.4464469,54.5,6.3,5.9
16653.385,31.3435789,34.4464235,24.5,6.7,6.0
16661.438,31.3430942,34.4463998,53.8,7.3,6.1
16669.406,31.3426455,34.4463074,50.5,6.8,6.1
16677.438,31.3422295,34.4462279,46.7,5.9,6.2
16682.529,31.3419187,34.4461410,35.4,6.4,6.3
16687.447,31.3415510,34.4461397,40.8,7.7,6.5
16693.654,31.3412228,34.4460314,37.8,6.9,6.5
16700.588,31.3408497,34.4459422,42.2,6.0,6.6
16702.400,31.3407600,34.4459056,10.5,5.7,6.6
16703.400,31.3407814,34.4459582,5.5,5.8,6.6
16705.389,31.3406305,34.4458729,18.6,6.8,6.7
16708.412,31.3404487,34.4458300,20.6,6.7,6.7
16712.385,31.3401933,34.4458212,28.3,7.1,6.7
16718.402,31.3398122,34.4457198,43.3,7.2,6.8
16726.369,31.3393494,34.4456740,51.5,7.0,6.7
16735.393,31.3388815,34.4456188,52.1,5.7,6.7
16743.396,31.3383764,34.4455666,56.2,7.0,6.7
16751.422,31.3379202,34.4455079,50.9,6.6,6.6
16759.479,31.3374592,34.4454587,51.3,6.4,6.6
16767.408,31.3370011,34.4454100,51.0,6.3,6.6
16775.408,31.3365202,34.4453840,53.4,6.6,6.6
16781.533,31.3361572,34.4453191,40.7,6.9,6.4
16786.365,31.3358847,34.4453383,30.3,6.5,6.4
16794.443,31.3354104,34.4452807,52.9,6.4,6.6
16803.402,31.3349308,34.4452408,53.3,6.0,6.4
16809.387,31.3345486,34.4451976,42.6,6.7,6.5
16817.393,31.3340965,34.4451024,50.9,6.6,6.5
16824.455,31.3335926,34.4450210,56.4,7.5,6.7
16826.412,31.3334664,34.4449873,14.3,7.7,6.7
16832.561,31.3330706,34.4449795,43.9,7.7,6.8
16840.553,31.3326037,34.4448376,53.5,7.0,6.8
16848.439,31.3321101,34.4447105,56.1,7.0,6.9
16850.381,31.3319709,34.4446642,16.0,7.3,6.9
16852.402,31.3318631,34.4446871,12.2,6.9,6.9
16853.416,31.3318115,34.4446292,7.9,7.2,6.9
16860.441,31.3313540,34.4445429,51.4,7.1,7.1
16865.363,31.3310561,34.4444536,34.1,7.2,7.1
16873.408,31.3306183,34.4443015,50.7,6.6,7.1
16876.391,31.3304368,34.4442411,20.9,6.5,7.1
16877.422,31.3304015,34.4441982,5.7,6.4,7.1
16885.439,31.3299526,34.4440938,50.8,6.3,6.9
16893.459,31.3295017,34.4439333,52.3,6.5,6.8
16901.441,31.3290461,34.4438040,52.0,6.6,6.7
16910.471,31.3285603,34.4436614,55.5,6.2,6.6
16918.398,31.3281279,34.4435067,50.2,6.2,6.5
16926.418,31.3276665,34.4433616,53.0,6.5,6.4
16933.570,31.3272813,34.4432553,43.9,6.5,6.4
16934.377,31.3272215,34.4432963,7.7,6.7,6.4
16943.383,31.3267662,34.4431417,52.6,6.2,6.4
16949.418,31.3264910,34.4430394,32.0,5.6,6.3
16950.422,31.3264427,34.4430456,5.4,5.5,6.2
16959.443,31.3259815,34.4428860,53.3,5.9,6.1
16968.430,31.3255202,34.4427474,52.8,6.0,6.1
16976.459,31.3250639,34.4425888,52.8,6.5,6.1
16983.428,31.3246845,34.4424647,43.7,6.5,6.1
16992.439,31.3242401,34.4423604,50.3,5.6,6.0
17002.391,31.3237602,34.4422330,54.6,5.5,5.9
17011.436,31.3233201,34.4420756,51.0,5.7,5.9
17020.451,31.3228756,34.4419365,51.0,5.7,5.9
17029.438,31.3224332,34.4418207,50.3,5.7,5.8
17039.418,31.3219557,34.4416670,54.9,5.5,5.6
17048.432,31.3215037,34.4415224,52.0,5.7,5.6
17054.375,31.3211817,34.4414338,36.7,6.3,5.7
17056.375,31.3211085,34.4414576,8.4,5.8,5.6
17064.381,31.3206726,34.4412930,50.8,6.0,5.8
17074.568,31.3202073,34.4411442,53.5,5.3,5.7
17082.566,31.3198129,34.4410213,45.3,5.7,5.7
17091.420,31.3194322,34.4408966,43.8,5.1,5.6
17096.391,31.3192463,34.4407660,24.1,4.9,5.6
17101.391,31.3190129,34.4407361,26.0,5.0,5.6
17102.381,31.3190125,34.4406993,3.5,5.0,5.5
17107.389,31.3187893,34.4406270,25.7,5.3,5.5
17116.395,31.3183949,34.4405111,45.1,5.0,5.4
17124.551,31.3179434,34.4404307,50.6,6.1,5.3
17132.588,31.3174659,34.4403040,54.3,6.9,5.5
17140.436,31.3169917,34.4401248,55.3,7.0,5.7
17147.414,31.3165371,34.4399829,52.2,7.5,6.0
17154.473,31.3160711,34.4398347,53.6,7.6,6.3
17162.471,31.3155724,34.4396751,57.3,7.3,6.6
17170.439,31.3150757,34.4395341,56.7,7.1,6.8
17178.424,31.3146128,34.4393836,53.3,6.8,7.0
17185.605,31.3141513,34.4392178,53.6,7.2,7.2
17189.410,31.3138969,34.4390911,30.7,7.7,7.2
17190.379,31.3138202,34.4391053,8.6,7.8,7.3
17195.424,31.3134982,34.4389844,37.5,7.9,7.3
17203.408,31.3130205,34.4388574,54.3,6.8,7.3
17205.422,31.3128713,34.4388109,17.1,7.2,7.3
17206.430,31.3128018,34.4388204,7.8,7.3,7.3
17213.486,31.3123486,34.4386538,52.7,7.7,7.3
17221.443,31.3118528,34.4384769,57.5,7.3,7.3
17229.453,31.3113912,34.4383451,52.7,6.8,7.2
17236.455,31.3109476,34.4382412,50.2,7.1,7.3
17244.408,31.3104591,34.4380916,56.0,7.1,7.3
17251.412,31.3100097,34.4379521,51.6,7.3,7.1
17259.426,31.3095190,34.4377999,56.3,7.2,7.2
17266.527,31.3090776,34.4376536,50.9,7.1,7.1
17274.568,31.3086021,34.4375223,54.2,6.8,7.1
17276.572,31.3085003,34.4374897,11.7,6.6,7.0
17277.385,31.3084845,34.4375799,8.8,6.9,7.1
17281.439,31.3082371,34.4374423,30.4,7.1,7.1
17288.430,31.3078007,34.4372787,50.8,7.8,7.2
17296.393,31.3073284,34.4371230,54.4,7.1,7.1
17303.406,31.3068555,34.4369726,54.4,7.4,7.2
17310.398,31.3063714,34.4368397,55.1,8.0,7.3
17317.521,31.3058954,34.4366731,55.1,8.0,7.3
17324.551,31.3053925,34.4364921,58.4,8.2,7.5
17330.402,31.3049355,34.4363720,52.0,8.7,7.6
17337.443,31.3044394,34.4362117,57.1,8.6,7.8
17344.416,31.3039585,34.4360246,56.2,8.2,7.9
17347.393,31.3037511,34.4360067,23.1,8.0,7.9
17354.410,31.3032587,34.4358026,57.9,8.0,8.0
17358.428,31.3029238,34.4357256,37.8,8.7,8.2
17360.402,31.3027864,34.4356674,16.2,8.7,8.2
17367.557,31.3022953,34.4355421,55.7,8.0,8.2
17374.553,31.3018019,34.4353679,57.2,8.1,8.3
17380.414,31.3013654,34.4352151,50.5,8.3,8.3
17387.453,31.3008662,34.4350800,56.8,8.2,8.3
17393.387,31.3004125,34.4349336,52.2,8.5,8.3
17396.406,31.3001805,34.4348325,27.5,8.6,8.4
17398.410,31.3000552,34.4348242,13.9,8.6,8.3
17405.426,31.2995470,34.4346795,58.0,8.2,8.3
17411.408,31.2991551,34.4345799,44.5,7.7,8.3
17418.410,31.2986688,34.4344047,56.4,7.9,8.2
17425.547,31.2982145,34.4342568,52.3,7.5,8.1
17433.398,31.2977231,34.4340975,56.6,7.1,8.0
17441.398,31.2972448,34.4339624,54.6,7.0,7.8
17449.402,31.2967672,34.4337982,55.2,6.9,7.6
17457.447,31.2963064,34.4336350,53.4,6.7,7.3
17465.471,31.2958084,34.4335029,56.6,7.0,7.2
17472.406,31.2953667,34.4333452,51.2,7.2,7.2
17479.408,31.2948939,34.4332020,54.2,7.6,7.1
17486.402,31.2944267,34.4330774,53.1,7.9,7.2
17493.398,31.2939450,34.4329135,55.6,7.8,7.3
17500.395,31.2934954,34.4327674,51.8,7.6,7.3
17507.451,31.2930313,34.4326716,52.2,7.3,7.4
17512.406,31.2926623,34.4326242,41.2,7.9,7.5
17513.395,31.2925843,34.4326412,8.8,8.0,7.5
17519.412,31.2921530,34.4326193,47.9,8.2,7.7
17526.525,31.2916490,34.4326481,55.9,8.0,7.7
17533.406,31.2911615,34.4326687,54.1,7.7,7.8
17540.410,31.2906788,34.4326836,53.5,7.7,7.8
17548.387,31.2901721,34.4326817,56.2,7.1,7.7
17556.438,31.2896789,34.4326912,54.7,6.8,7.6
17564.402,31.2892107,34.4327054,51.9,6.6,7.4
17572.404,31.2887379,34.4327024,52.4,6.5,7.3
17580.408,31.2882487,34.4327112,54.2,6.8,7.1
17588.393,31.2877496,34.4327089,55.3,7.0,7.0
17596.393,31.2872510,34.4327158,55.3,7.0,6.9
17604.404,31.2867532,34.4327323,55.2,6.8,6.8
17611.414,31.2862948,34.4327424,50.8,7.3,6.8
17619.551,31.2858023,34.4327603,54.6,6.7,6.8
17627.430,31.2853044,34.4327793,55.2,7.0,6.9
17635.395,31.2848082,34.4328090,55.1,6.8,6.9
17643.398,31.2843046,34.4328156,55.8,7.0,7.0
17651.451,31.2838034,34.4328271,55.6,6.9,6.9
17658.516,31.2833336,34.4328421,52.1,7.2,7.0
17666.447,31.2828628,34.4328354,52.2,6.7,6.9
17669.557,31.2826312,34.4328378,25.7,7.1,7.0
17677.467,31.2821320,34.4328331,55.3,7.2,7.0
17685.439,31.2816675,34.4328517,51.5,6.4,7.0
17693.391,31.2811963,34.4328571,52.2,6.6,6.9
17701.420,31.2807433,34.4328512,50.2,6.3,6.8
17709.543,31.2802824,34.4328767,51.2,6.5,6.7
17718.504,31.2798227,34.4328794,51.0,5.6,6.5
17727.480,31.2793243,34.4328894,55.3,6.0,6.4
17735.391,31.2788721,34.4328794,50.1,6.2,6.3
17744.400,31.2783859,34.4328907,53.9,6.1,6.2
17753.453,31.2778899,34.4328895,55.0,6.1,6.1
17761.553,31.2774355,34.4329106,50.4,6.2,6.1
17770.541,31.2769356,34.4329333,55.5,6.2,6.1
17778.480,31.2764680,34.4329340,51.8,6.3,6.2
17787.395,31.2759734,34.4329543,54.9,6.2,6.2
17795.443,31.2755222,34.4329405,50.0,6.2,6.2
17799.404,31.2753036,34.4329292,24.3,6.2,6.2
17808.453,31.2748216,34.4329618,53.5,5.9,6.2
17817.453,31.2743432,34.4329712,53.1,5.8,6.2
17826.430,31.2738487,34.4329450,54.9,6.1,6.1
17835.391,31.2733722,34.4329414,52.8,6.0,6.1
17843.410,31.2729208,34.4329993,50.4,6.0,6.1
17851.482,31.2724619,34.4329872,50.9,6.4,6.1
17856.398,31.2721346,34.4329538,36.4,6.8,6.2
17857.381,31.2720937,34.4329216,5.5,6.8,6.2
17865.590,31.2715792,34.4328852,57.1,6.9,6.3
17868.414,31.2714081,34.4328428,19.4,7.2,6.3
17869.449,31.2713639,34.4328109,5.8,7.1,6.4
17877.385,31.2709096,34.4326513,52.6,6.6,6.5
17885.400,31.2704359,34.4323786,58.6,7.2,6.6
17886.396,31.2703635,34.4323744,8.0,7.3,6.7
17889.400,31.2701878,34.4322662,22.0,7.4,6.7
17891.406,31.2700840,34.4322224,12.2,7.3,6.7
17893.441,31.2699871,34.4320938,16.3,7.5,6.8
17894.391,31.2699653,34.4320291,6.6,7.5,6.8
17898.424,31.2697008,34.4319256,30.9,7.3,6.9
17899.439,31.2696860,34.4319888,6.2,7.2,6.9
17900.465,31.2696019,34.4319808,9.3,7.5,7.0
17901.469,31.2695553,34.4318946,9.7,7.9,7.0
17902.473,31.2695116,34.4319932,10.6,8.0,7.1
17909.457,31.2691123,34.4323179,54.0,8.4,7.3
17910.531,31.2690390,34.4323633,9.2,8.4,7.3
17919.477,31.2686343,34.4326192,51.1,6.1,7.2
17928.441,31.2681983,34.4328717,54.0,6.0,7.0
17937.416,31.2677873,34.4330989,50.4,5.7,6.9
17945.439,31.2673731,34.4333405,51.4,6.3,6.7
17954.480,31.2669238,34.4335725,54.5,6.1,6.6
17956.391,31.2668514,34.4336114,8.8,5.8,6.4
17957.422,31.2668062,34.4336030,5.1,5.6,6.4
17965.447,31.2663704,34.4339051,56.2,6.4,6.3
17972.576,31.2659870,34.4341163,47.0,7.1,6.2
17975.627,31.2658104,34.4341656,20.1,6.7,6.2
17977.451,31.2657432,34.4342342,9.9,6.5,6.2
17982.369,31.2654973,34.4343093,28.2,6.1,6.2
17985.412,31.2653623,34.4344092,17.7,5.9,6.2
17993.400,31.2649191,34.4345656,51.3,6.3,6.3
17996.459,31.2647601,34.4346597,19.8,6.3,6.3
18005.535,31.2642985,34.4348315,53.7,6.1,6.2
18014.402,31.2638716,34.4350386,51.3,5.8,6.2
18016.621,31.2637668,34.4350565,11.7,5.6,6.2
18018.443,31.2636603,34.4351318,13.8,6.0,6.3
18027.418,31.2631885,34.4352623,53.8,6.3,6.1
18031.408,31.2629690,34.4353790,26.8,6.5,6.2
18033.398,31.2628398,34.4354085,14.6,6.6,6.2
18034.402,31.2627503,34.4354638,11.2,7.0,6.2
18035.404,31.2627434,34.4354337,3.0,6.5,6.2
18040.389,31.2624547,34.4355829,35.0,7.0,6.3
18048.361,31.2620166,34.4357850,52.2,6.8,6.3
18050.391,31.2619343,34.4358496,11.0,6.4,6.3
18053.531,31.2617510,34.4359281,21.7,6.4,6.4
18059.412,31.2613824,34.4359758,41.1,6.9,6.4
18061.469,31.2612647,34.4360586,15.2,7.1,6.5
18063.391,31.2611099,34.4361029,17.7,7.5,6.6
18071.471,31.2606768,34.4363464,53.3,7.2,6.7
18074.414,31.2604225,34.4364717,30.6,8.0,6.9
18075.430,31.2603758,34.4364737,5.2,7.8,6.9
18084.428,31.2599046,34.4366736,55.6,6.1,6.9
18092.455,31.2594647,34.4368750,52.4,6.6,6.9
18100.408,31.2590157,34.4370694,53.1,6.7,6.9
18108.404,31.2585941,34.4372635,50.3,6.3,6.8
18117.662,31.2581389,34.4374776,54.4,6.0,6.7
18119.430,31.2580334,34.4375187,12.3,6.1,6.7
18127.375,31.2576397,34.4377976,51.1,6.4,6.6
18129.381,31.2575456,34.4378610,12.1,6.4,6.6
18138.389,31.2571632,34.4382688,57.5,6.4,6.4
18146.463,31.2567913,34.4386134,52.7,6.7,6.4
18153.549,31.2564461,34.4389623,50.7,6.9,6.5
18161.443,31.2560797,34.4393422,54.4,7.2,6.5
18169.387,31.2557389,34.4396901,50.2,6.5,6.5
18173.557,31.2555395,34.4398952,29.5,6.6,6.6
18178.430,31.2553003,34.4400785,31.8,6.8,6.7
18181.395,31.2551990,34.4402566,20.3,6.7,6.7
18189.475,31.2548086,34.4406068,54.7,6.8,6.7
18197.488,31.2544714,34.4408970,46.5,6.0,6.7
18198.406,31.2544351,34.4409774,8.7,6.2,6.7
18202.465,31.2542224,34.4411581,29.2,6.0,6.6
18209.430,31.2539592,34.4414768,42.1,6.5,6.7
18210.422,31.2539051,34.4414990,6.4,6.2,6.7
18219.371,31.2535470,34.4418852,54.1,6.2,6.5
18227.439,31.2532056,34.4422432,50.9,6.4,6.5
18230.416,31.2530346,34.4423755,22.8,6.8,6.5
18236.420,31.2527215,34.4426963,46.2,7.7,6.7
18244.469,31.2523289,34.4430857,57.2,7.3,6.7
18251.414,31.2519846,34.4434325,50.5,7.2,6.8
18258.393,31.2516314,34.4438123,53.3,7.5,7.0
18265.600,31.2512849,34.4441623,50.9,7.3,7.0
18272.438,31.2509007,34.4445408,55.8,7.8,7.2
18274.469,31.2508036,34.4446693,16.3,7.9,7.3
18276.439,31.2506935,34.4447470,14.3,8.0,7.3
18283.455,31.2503376,34.4451370,54.2,7.7,7.4
18291.395,31.2499815,34.4455053,52.8,6.9,7.4
18299.400,31.2496120,34.4458681,53.6,6.7,7.3
18307.719,31.2492304,34.4462530,56.0,6.9,7.3
18314.557,31.2488811,34.4466186,52.1,7.3,7.3
18321.443,31.2485372,34.4469691,50.7,7.4,7.3
18328.432,31.2481563,34.4473188,53.8,7.6,7.3
18336.426,31.2477840,34.4477038,55.2,7.1,7.2
18344.439,31.2474444,34.4480861,52.4,6.6,7.0
18348.525,31.2472429,34.4482666,28.2,6.7,7.0
18351.424,31.2470606,34.4483829,23.1,7.1,7.1
18354.541,31.2469246,34.4485484,21.8,7.3,7.2
18358.449,31.2467369,34.4486809,24.3,7.0,7.1
18366.592,31.2463989,34.4490586,51.9,6.4,7.0
18369.422,31.2462588,34.4491751,19.1,6.5,7.0
18370.426,31.2462341,34.4492467,7.3,6.5,7.0
18379.404,31.2458648,34.4496255,54.6,6.7,6.8
18382.406,31.2457196,34.4497831,22.0,6.6,6.8
18386.424,31.2455020,34.4499739,30.2,7.1,6.8
18394.508,31.2451365,34.4503946,57.0,7.2,6.8
18402.424,31.2447555,34.4507661,55.1,7.0,6.8
18410.410,31.2443932,34.4511345,53.3,6.5,6.8
18418.682,31.2440496,34.4515047,51.9,6.4,6.7
18421.395,31.2439196,34.4516463,19.7,6.6,6.7
18422.391,31.2439201,34.4516813,3.3,6.2,6.7
18428.439,31.2436142,34.4519649,43.4,6.8,6.8
18431.406,31.2434682,34.4520479,18.0,6.5,6.7
18437.432,31.2432185,34.4523352,38.9,6.6,6.8
18445.520,31.2428413,34.4526864,53.6,6.6,6.7
18453.453,31.2425162,34.4530532,50.2,6.3,6.6
18459.625,31.2422339,34.4532701,37.5,6.2,6.5
18461.449,31.2421867,34.4534008,13.5,6.4,6.5
18470.406,31.2418199,34.4537331,51.5,6.1,6.4
18479.451,31.2414698,34.4540805,51.0,5.8,6.3
18488.461,31.2410922,34.4544688,55.9,6.1,6.2
18492.430,31.2409092,34.4546380,25.9,6.3,6.2
18500.471,31.2405621,34.4549940,51.3,6.4,6.2
18508.477,31.2402217,34.4553475,50.6,6.4,6.2
18517.615,31.2398654,34.4557448,54.7,6.0,6.1
18525.422,31.2394825,34.4560754,52.9,6.4,6.3
18532.396,31.2390697,34.4564430,57.6,7.9,6.5
18539.496,31.2387131,34.4568516,55.5,7.8,6.8
18546.561,31.2383248,34.4572230,55.7,7.8,7.0
18553.428,31.2379532,34.4576028,54.8,8.0,7.1
18559.469,31.2376158,34.4579548,50.2,8.2,7.3
18565.484,31.2372886,34.4583303,50.9,8.5,7.5
18572.412,31.2368804,34.4587012,57.4,8.5,7.7
18579.438,31.2365331,34.4590939,53.7,7.8,7.9
18581.398,31.2364272,34.4592230,17.0,7.9,8.0
18584.449,31.2362401,34.4593676,24.9,8.1,8.1
18587.447,31.2361117,34.4595597,23.2,8.1,8.1
18588.473,31.2360789,34.4596662,10.8,8.3,8.1
18589.482,31.2359856,34.4596418,10.6,8.6,8.1
18590.445,31.2359230,34.4596661,7.3,8.5,8.1
18597.545,31.2355564,34.4600611,55.4,8.3,8.1
18604.416,31.2351715,34.4604398,55.9,7.8,8.2
18611.398,31.2347875,34.4608239,56.1,8.1,8.2
18618.410,31.2344301,34.4611679,51.4,7.7,8.1
18626.455,31.2340826,34.4615193,51.0,6.7,7.8
18633.404,31.2336942,34.4618677,54.4,7.4,7.8
18640.408,31.2333673,34.4622514,51.5,7.4,7.7
18647.521,31.2330423,34.4626496,52.3,7.5,7.6
18648.523,31.2329959,34.4627075,7.5,7.5,7.6
18649.389,31.2330362,34.4627193,4.6,7.3,7.6
18653.432,31.2328338,34.4630204,36.4,7.8,7.6
18660.604,31.2325761,34.4635410,57.2,8.4,7.6
18666.422,31.2323622,34.4640380,53.0,8.3,7.7
18669.623,31.2322527,34.4642626,24.6,8.2,7.7
18670.377,31.2321853,34.4642780,7.6,8.7,7.7
18672.453,31.2320934,34.4643997,15.4,8.5,7.7
18674.402,31.2319727,34.4645172,17.4,8.4,7.8
18676.373,31.2319726,34.4647353,20.8,8.7,7.9
18682.447,31.2317808,34.4651944,48.6,8.6,8.0
18684.381,31.2317039,34.4653337,15.8,8.5,8.0
18690.484,31.2314960,34.4657548,46.3,7.9,8.1
18691.473,31.2314861,34.4658309,7.3,8.0,8.0
18692.514,31.2314431,34.4658864,7.1,7.7,8.0
18694.428,31.2314132,34.4660230,13.4,7.4,8.0
18698.539,31.2312015,34.4662652,32.9,7.6,8.1
18700.410,31.2311570,34.4664195,15.5,7.6,8.1
18702.416,31.2310732,34.4665603,16.3,7.8,8.1
18709.414,31.2308322,34.4670787,56.2,8.0,8.3
18717.422,31.2305986,34.4675863,54.9,7.1,8.0
18725.408,31.2303565,34.4680977,55.6,6.8,7.8
18732.418,31.2300972,34.4685613,52.7,7.5,7.7
18739.494,31.2298688,34.4690249,50.9,7.4,7.5
18746.436,31.2296563,34.4694986,50.9,7.4,7.4
18749.561,31.2295815,34.4697106,21.8,7.2,7.4
18750.594,31.2295088,34.4697653,9.6,7.4,7.4
18757.391,31.2293069,34.4702591,52.1,7.7,7.5
18764.412,31.2290870,34.4707335,51.4,7.4,7.4
18772.424,31.2288262,34.4712358,55.9,7.0,7.2
18779.467,31.2285745,34.4717147,53.5,7.5,7.4
18786.422,31.2283147,34.4721700,52.1,7.5,7.4
18789.494,31.2282365,34.4724156,25.0,7.7,7.5
18797.457,31.2279890,34.4728877,52.7,6.9,7.4
18799.539,31.2278884,34.4729585,13.0,6.6,7.3
18803.383,31.2277827,34.4732015,26.0,6.7,7.3
18804.408,31.2277372,34.4732581,7.4,6.7,7.3
18805.422,31.2277209,34.4733495,8.9,7.0,7.3
18811.420,31.2275014,34.4737242,43.2,7.3,7.3
18812.414,31.2274773,34.4737986,7.6,7.4,7.3
18813.418,31.2274186,34.4738500,8.1,7.5,7.3
18817.420,31.2273232,34.4741478,30.3,7.5,7.3
18824.410,31.2270896,34.4746602,55.3,7.8,7.3
18831.434,31.2268747,34.4751294,50.7,7.5,7.4
18838.477,31.2266722,34.4755889,49.2,7.1,7.3
18840.525,31.2265801,34.4756807,13.4,7.0,7.3
18844.396,31.2264483,34.4759485,29.4,7.0,7.3
18845.404,31.2263854,34.4759793,7.6,7.0,7.3
18846.422,31.2263927,34.4760708,8.8,7.3,7.3
18853.637,31.2261789,34.4765599,52.3,7.6,7.3
18858.410,31.2260342,34.4768891,35.2,7.4,7.4
18865.402,31.2258108,34.4773469,50.2,7.5,7.4
18866.383,31.2257543,34.4774100,8.7,7.5,7.4
18873.412,31.2255617,34.4779219,53.2,7.8,7.5
18880.430,31.2253420,34.4782982,43.3,6.7,7.3
18886.396,31.2251956,34.4788395,54.1,7.6,7.3
18891.551,31.2251869,34.4792285,37.1,8.2,7.4
18892.568,31.2251566,34.4792782,5.8,7.8,7.4
18899.533,31.2251280,34.4798313,52.8,7.5,7.4
18903.408,31.2251493,34.4801411,29.6,7.6,7.5
18904.670,31.2251378,34.4802255,8.1,7.5,7.4
18905.404,31.2251548,34.4803442,11.5,8.0,7.5
18913.678,31.2250936,34.4809429,57.4,7.5,7.5
18921.451,31.2250303,34.4815247,55.9,7.1,7.5
18925.418,31.2249843,34.4817509,22.1,6.6,7.4
18932.469,31.2249982,34.4822993,52.3,6.8,7.3
18935.422,31.2249439,34.4824522,15.8,6.8,7.2
18943.398,31.2249323,34.4830579,57.7,6.8,7.3
18951.562,31.2249129,34.4836574,57.2,7.2,7.1
18954.426,31.2248950,34.4838502,18.5,6.9,7.1
18956.402,31.2248288,34.4839911,15.3,7.0,7.1
18959.426,31.2248028,34.4842300,22.9,7.1,7.1
18967.410,31.2247837,34.4847633,50.9,6.8,6.9
18972.393,31.2247592,34.4851259,34.7,6.8,6.9
18974.402,31.2247326,34.4852836,15.3,7.2,6.9
18981.457,31.2246666,34.4858343,53.0,7.6,7.0
18989.463,31.2246693,34.4863905,53.0,6.8,7.0
18996.396,31.2246195,34.4868843,47.4,6.6,7.0
19000.527,31.2245551,34.4871621,27.4,6.9,7.0
19008.420,31.2245487,34.4877128,52.5,6.7,6.9
19016.412,31.2245532,34.4882504,51.2,6.4,6.9
19025.432,31.2245257,34.4888082,53.2,5.8,6.8
19030.441,31.2245065,34.4891833,35.8,6.6,6.8
19031.455,31.2244802,34.4892690,8.7,6.8,6.8
19039.455,31.2244019,34.4898226,53.5,6.9,6.7
19047.432,31.2243797,34.4903541,50.7,6.4,6.6
19056.408,31.2243483,34.4908996,52.1,6.0,6.5
19062.434,31.2243246,34.4912819,36.5,6.1,6.4
19064.416,31.2243385,34.4914360,14.8,6.3,6.4
19072.414,31.2242899,34.4919829,52.4,6.7,6.4
19081.480,31.2242807,34.4925639,55.4,6.2,6.4
19089.408,31.2242152,34.4930988,51.5,6.4,6.4
19095.422,31.2241869,34.4934941,37.8,6.4,6.3
19103.436,31.2241607,34.4940396,52.1,6.6,6.3
19111.434,31.2241095,34.4945718,51.0,6.4,6.4
19120.416,31.2240663,34.4951328,53.7,6.0,6.4
19128.432,31.2240280,34.4956642,50.8,6.3,6.4
19136.422,31.2239841,34.4961977,51.1,6.4,6.3
19145.430,31.2239679,34.4967663,54.2,6.0,6.3
19154.418,31.2239205,34.4973443,55.3,6.2,6.3
19160.400,31.2238906,34.4977571,39.5,6.4,6.3
19161.416,31.2239116,34.4978202,6.4,6.4,6.3
19168.412,31.2238667,34.4983535,51.1,7.1,6.4
19174.430,31.2238132,34.4986638,30.2,6.0,6.3
19178.424,31.2238070,34.4989255,24.9,5.5,6.3
19188.428,31.2237699,34.4994982,54.7,5.5,6.2
19197.703,31.2237284,34.5000310,51.0,5.5,6.0
19199.480,31.2237341,34.5001476,11.1,5.7,6.0
19202.477,31.2236670,34.5002618,13.2,5.3,6.0
19208.469,31.2236651,34.5006452,36.5,5.6,6.0
19211.414,31.2236342,34.5007925,14.4,5.5,5.9
19212.430,31.2236538,34.5008641,7.2,5.7,5.9
19213.461,31.2236196,34.5009257,7.0,6.0,5.9
19222.406,31.2235745,34.5014686,52.0,6.0,5.8
19227.463,31.2235522,34.5017035,22.5,5.2,5.6
19229.432,31.2235112,34.5017950,9.8,5.1,5.6
19238.566,31.2235615,34.5023631,54.4,5.8,5.6
19249.439,31.2235329,34.5029056,51.8,4.8,5.5
19259.445,31.2235138,34.5034316,50.2,5.0,5.4
19260.479,31.2235141,34.5034852,5.1,4.9,5.4
19261.441,31.2234621,34.5035307,7.2,5.5,5.4
19270.389,31.2234259,34.5040095,45.8,5.4,5.4
19271.400,31.2234456,34.5040714,6.3,5.5,5.4
19272.418,31.2234219,34.5041107,4.6,5.4,5.4
19281.428,31.2234198,34.5046653,52.8,5.8,5.3
19283.541,31.2234398,34.5048000,13.0,5.9,5.4
19287.471,31.2233713,34.5050034,20.8,5.7,5.4
19297.654,31.2233070,34.5055400,51.6,5.1,5.3
19300.473,31.2233170,34.5057237,17.5,5.3,5.3
19309.418,31.2232580,34.5062107,46.9,5.2,5.4
19316.377,31.2231671,34.5065802,36.6,5.4,5.4
19319.420,31.2232019,34.5067852,19.9,5.7,5.5
19320.451,31.2231757,34.5068347,5.5,5.7,5.5
19328.377,31.2231941,34.5073189,46.2,5.9,5.6
19330.418,31.2232292,34.5074460,12.7,5.9,5.6
19339.449,31.2231795,34.5079972,52.8,5.8,5.6
19348.381,31.2231207,34.5085265,50.9,5.8,5.6
19350.404,31.2231442,34.5086625,13.2,6.0,5.7
19359.459,31.2230792,34.5092211,53.7,6.0,5.7
19361.410,31.2230542,34.5093397,11.6,6.0,5.8
19370.438,31.2230142,34.5099012,53.7,6.0,5.9
19377.500,31.2229750,34.5103540,43.4,5.9,6.0
19384.562,31.2229213,34.5108180,44.6,6.2,6.0
19393.539,31.2229197,34.5113738,53.0,5.9,6.0
19396.629,31.2229005,34.5115365,15.6,5.6,6.0
19404.564,31.2227407,34.5120274,50.0,6.0,6.1
19413.447,31.2226440,34.5125851,54.2,6.1,6.1
19420.436,31.2225452,34.5129808,39.3,5.8,6.0
19423.475,31.2224713,34.5131284,16.3,5.6,6.0
19424.473,31.2224886,34.5131863,5.8,5.6,6.0
19428.457,31.2224217,34.5133724,19.2,5.3,5.9
19431.387,31.2224124,34.5135183,13.9,5.1,5.9
19432.453,31.2223632,34.5135718,7.5,5.3,5.9
19441.402,31.2222789,34.5141007,51.3,5.9,5.8
19443.547,31.2222415,34.5142252,12.6,5.9,5.8
19447.439,31.2222023,34.5144852,25.2,6.2,5.8
19453.395,31.2220480,34.5147688,32.0,5.9,5.8
19454.383,31.2220461,34.5148285,5.7,5.9,5.8
19456.377,31.2219997,34.5149350,11.4,5.6,5.8
19457.385,31.2220359,34.5149869,6.4,5.7,5.8
19460.410,31.2219637,34.5151782,19.9,6.1,5.8
19469.412,31.2218352,34.5157071,52.4,6.1,5.8
19473.482,31.2217777,34.5159536,24.3,5.9,5.8
19474.381,31.2217418,34.5160026,6.1,6.0,5.8
19484.523,31.2216450,34.5165533,53.6,5.3,5.7
19486.609,31.2215937,34.5166530,11.1,5.3,5.8
19491.459,31.2215050,34.5169083,26.2,5.0,5.8
19492.412,31.2214565,34.5169833,8.9,5.4,5.9
19493.414,31.2214230,34.5169958,3.9,5.5,5.8
19503.459,31.2212041,34.5175220,55.7,5.6,5.8
19512.416,31.2209776,34.5180058,52.5,6.0,5.8
19521.398,31.2207271,34.5184613,51.5,5.7,5.7
19523.465,31.2207083,34.5185750,11.0,5.7,5.7
19530.459,31.2205011,34.5189628,43.5,6.0,5.8
19535.645,31.2203834,34.5192755,32.5,6.4,5.8
19542.461,31.2201984,34.5196026,37.3,5.8,5.8
19552.391,31.2199351,34.5200863,54.6,5.6,5.8
19558.387,31.2197619,34.5203687,33.1,5.5,5.9
19563.416,31.2196652,34.5206729,30.9,5.9,5.9
19573.477,31.2193736,34.5211088,52.6,5.3,5.7
19577.574,31.2192465,34.5212558,19.9,5.1,5.7
19583.516,31.2190865,34.5215399,32.4,5.2,5.7
19584.562,31.2190765,34.5216114,6.9,5.4,5.7
19586.637,31.2190223,34.5216761,8.6,5.2,5.6
19590.402,31.2189328,34.5218756,21.5,5.5,5.6
19595.641,31.2187977,34.5221371,29.1,5.6,5.5
19596.689,31.2187950,34.5222269,8.6,6.0,5.5
19605.379,31.2185711,34.5226970,51.2,6.1,5.6
19614.463,31.2183355,34.5231714,52.2,5.7,5.7
19616.463,31.2182636,34.5232594,11.6,5.8,5.6
19617.502,31.2182413,34.5233285,7.0,5.9,5.7
19619.480,31.2181683,34.5234373,13.2,6.1,5.7
19629.379,31.2179256,34.5239199,53.3,5.5,5.7
19638.705,31.2177293,34.5243609,47.3,5.2,5.7
19648.395,31.2174399,34.5248032,53.0,5.3,5.7
19656.441,31.2172316,34.5251798,42.7,5.1,5.6
19657.416,31.2172122,34.5252552,7.5,5.4,5.6
19662.455,31.2170810,34.5254177,21.3,5.4,5.5
19663.463,31.2170614,34.5255001,8.1,5.6,5.5
19664.480,31.2170299,34.5255263,4.3,5.4,5.5
19665.486,31.2170139,34.5256140,8.5,5.6,5.5
19674.516,31.2167304,34.5260751,54.0,6.3,5.6
19675.578,31.2167148,34.5261428,6.7,6.1,5.6
19680.395,31.2165318,34.5263654,29.4,6.2,5.6
19681.381,31.2165270,34.5264087,4.2,6.1,5.5
19687.396,31.2163103,34.5266692,34.5,5.8,5.6
19688.396,31.2163238,34.5266990,3.2,5.4,5.6
19696.377,31.2160293,34.5271168,51.5,6.2,5.7
19700.396,31.2158806,34.5273317,26.3,6.6,5.8
19701.391,31.2158267,34.5273700,7.0,6.4,5.8
19706.488,31.2156659,34.5276486,32.0,6.5,5.9
19708.395,31.2155820,34.5277284,12.0,6.5,5.9
19710.396,31.2155253,34.5278739,15.2,6.7,6.0
19720.447,31.2151865,34.5282486,51.8,5.3,6.0
19729.410,31.2148699,34.5286468,51.7,5.8,6.0
19733.529,31.2147149,34.5288333,24.7,6.0,6.0
19734.414,31.2146598,34.5288557,6.5,6.0,6.0
19737.715,31.2145753,34.5289874,15.7,5.8,5.9
19740.432,31.2145027,34.5291251,15.4,5.7,5.9
19741.396,31.2144610,34.5291420,4.9,5.7,5.9
19750.383,31.2141915,34.5295759,51.0,5.7,6.0
19753.402,31.2141088,34.5297155,16.2,5.5,5.9
19755.404,31.2140587,34.5297487,6.4,5.2,5.8
19760.404,31.2139569,34.5299441,21.8,4.5,5.6
19764.490,31.2137887,34.5300046,19.5,4.4,5.5
19766.541,31.2137220,34.5300669,9.5,4.6,5.4
19775.578,31.2135701,34.5304619,41.2,4.6,5.2
19779.418,31.2134193,34.5306501,24.5,5.2,5.3
19780.393,31.2133679,34.5306799,6.4,5.3,5.3
19782.453,31.2133152,34.5307684,10.3,5.5,5.3
19785.611,31.2131828,34.5308262,15.7,5.7,5.3
19786.664,31.2131425,34.5308221,4.5,5.2,5.2
19796.379,31.2127759,34.5311982,54.2,5.5,5.2
19799.434,31.2126471,34.5313200,18.4,5.6,5.3
19807.447,31.2123646,34.5315674,39.2,5.1,5.1
19808.418,31.2123490,34.5316228,5.6,5.2,5.1
19818.572,31.2119370,34.5319085,53.2,5.3,5.2
19828.416,31.2115568,34.5322114,51.1,5.3,5.3
19840.441,31.2111566,34.5325286,53.7,4.5,5.1
19844.387,31.2110007,34.5326764,22.3,5.2,5.2
19847.395,31.2108814,34.5327426,14.7,5.2,5.2
19856.459,31.2104909,34.5330447,52.0,5.7,5.2
19860.418,31.2103280,34.5331773,22.0,5.7,5.2
19868.385,31.2099702,34.5334264,46.2,5.8,5.3
19878.416,31.2096877,34.5337373,43.1,4.4,5.2
19882.408,31.2095195,34.5338366,20.9,4.8,5.2
19884.580,31.2094409,34.5339323,12.6,5.2,5.2
19894.395,31.2090786,34.5341509,45.3,4.8,5.2
19904.465,31.2086465,34.5344063,53.7,5.4,5.2
19911.455,31.2083827,34.5345988,34.5,5.0,5.2
19912.475,31.2083363,34.5345829,5.4,5.0,5.2
19913.539,31.2083207,34.5345003,8.1,5.3,5.2
19918.377,31.2081464,34.5343253,25.5,5.2,5.2
19923.537,31.2079628,34.5342301,22.3,5.1,5.1
19926.662,31.2078935,34.5342635,8.3,4.1,4.9
19927.391,31.2078627,34.5342385,4.2,4.2,4.9
19939.441,31.2075587,34.5341493,34.8,2.7,4.6
19957.512,31.2077635,34.5342051,23.3,1.3,3.5
19978.479,31.2075690,34.5344238,30.0,1.3,2.3
20057.488,31.2074343,34.5346990,30.2,0.6,0.6
20095.412,31.2074626,34.5347082,3.3,0.7,0.5
20158.490,31.2074847,34.5346724,4.2,0.4,0.3
20170.502,31.2074662,34.5346629,2.2,0.2,0.3
20186.484,31.2074730,34.5347087,4.4,0.7,0.3
20301.422,31.2074533,34.5346789,3.6,0.1,0.1
20328.445,31.2074510,34.5347310,5.0,0.6,0.2
20355.449,31.2074762,34.5347740,5.0,0.5,0.4
20385.510,31.2074445,34.5347434,4.6,0.5,0.6
20405.482,31.2074461,34.5347668,2.2,0.3,0.4
20462.469,31.2074441,34.5347465,2.0,0.3,0.2
20629.531,31.2074768,34.5347438,3.6,0.3,0.1
20812.453,31.2075121,34.5347004,5.7,0.4,0.1
20906.406,31.2075073,34.5347257,2.5,0.2,0.0
21000.432,31.2074707,34.5347823,6.8,0.4,0.5
21016.430,31.2074544,34.5347502,3.5,0.4,0.5
21035.436,31.2074808,34.5347591,3.0,0.2,0.4
21050.449,31.2074551,34.5347445,3.2,0.2,0.4
21088.432,31.2074824,34.5347762,4.3,0.4,0.2
21118.436,31.2074176,34.5348419,9.5,0.1,0.3
21257.426,31.2074413,34.5347738,7.0,0.5,0.1
21273.594,31.2074094,34.5347903,3.9,0.5,0.2
21303.453,31.2076059,34.5348333,22.2,1.3,0.6
21317.422,31.2075447,34.5348375,6.8,0.8,0.7
21341.436,31.2074317,34.5347491,15.1,0.6,0.8
21455.555,31.2074487,34.5347616,2.2,0.6,0.5
21505.416,31.2074230,34.5348241,6.6,0.4,0.6
21575.490,31.2075329,34.5347852,12.7,0.0,0.2
21591.424,31.2074936,34.5347546,5.2,0.0,0.3
21706.490,31.2073754,34.5348572,16.3,1.4,0.2
21743.494,31.2074024,34.5348006,6.2,0.4,0.5
21760.492,31.2074619,34.5348204,6.9,0.6,0.6
21791.510,31.2074657,34.5347581,5.9,1.2,0.8
21882.488,31.2073927,34.5347987,9.0,0.5,0.3
21961.453,31.2073609,34.5348479,5.9,0.5,0.3
21995.488,31.2073678,34.5347884,5.7,0.3,0.2
22020.473,31.2074356,34.5348939,12.6,0.9,0.4
22049.480,31.2072289,34.5352319,39.5,1.2,1.0
22124.420,31.2072529,34.5350236,20.0,0.4,0.5
22279.506,31.2073611,34.5348346,21.6,0.5,0.5
22300.439,31.2074272,34.5348227,7.4,0.9,0.4
22420.463,31.2074467,34.5348700,5.0,0.4,0.5
22433.479,31.2074413,34.5348159,5.2,0.5,0.4
22482.492,31.2074394,34.5347138,9.7,0.6,0.4
22734.477,31.2074354,34.5351066,37.4,0.8,0.7
22738.510,31.2074612,34.5351058,2.9,0.6,0.8
22793.506,31.2073519,34.5354174,32.1,0.5,0.8
22980.639,31.2074191,34.5353525,9.7,0.6,0.2
23007.504,31.2074086,34.5354091,5.5,0.2,0.2
23084.502,31.2070212,34.5357582,54.3,3.1,0.9
23095.428,31.2066300,34.5360606,52.1,4.8,1.8
23106.514,31.2062622,34.5363729,50.5,4.6,2.6
23117.574,31.2058499,34.5366720,53.9,4.9,3.5
23128.635,31.2054451,34.5369766,53.5,4.9,4.2
23135.441,31.2051440,34.5371625,37.8,5.6,4.6
23145.453,31.2047753,34.5374656,50.1,5.0,4.9
23156.467,31.2043736,34.5377890,54.2,4.9,4.9
23165.496,31.2039756,34.5380737,51.8,5.7,5.1
23174.455,31.2035870,34.5383923,52.7,6.2,5.3
23184.439,31.2031897,34.5386831,52.0,5.3,5.4
23193.455,31.2027563,34.5388471,50.5,5.5,5.4
23202.445,31.2022641,34.5388865,54.7,6.1,5.6
23209.531,31.2019122,34.5388383,39.3,5.9,5.6
23219.643,31.2014237,34.5387676,54.6,5.5,5.7
23228.641,31.2009445,34.5386859,53.7,5.9,5.7
23237.461,31.2004634,34.5386277,53.6,6.0,5.8
23246.424,31.1999728,34.5385242,55.3,6.3,5.9
23254.422,31.1994994,34.5384597,52.8,6.6,6.0
23263.508,31.1990012,34.5383897,55.6,6.3,6.0
23272.500,31.1985314,34.5383835,52.1,5.9,6.1
23277.557,31.1982794,34.5384089,28.0,5.8,6.1
23279.486,31.1981636,34.5384472,13.3,5.9,6.1
23288.416,31.1977009,34.5385219,51.8,6.1,6.1
23297.494,31.1972480,34.5387677,55.4,6.2,6.1
23306.500,31.1968398,34.5390763,54.0,6.2,6.1
23315.463,31.1964860,34.5394613,53.7,6.0,6.0
23324.494,31.1961548,34.5399019,55.8,6.1,6.0
23332.492,31.1958682,34.5403291,51.6,6.4,6.1
23342.420,31.1955534,34.5407715,54.7,5.6,6.0
23352.502,31.1952593,34.5412192,53.7,5.4,6.0
23363.480,31.1949542,34.5416778,55.3,5.0,5.7
23373.492,31.1946488,34.5420793,51.1,5.2,5.6
23384.455,31.1943458,34.5425372,55.1,4.9,5.4
23395.480,31.1940216,34.5429590,53.9,5.0,5.2
23406.496,31.1937195,34.5433937,53.3,4.8,5.1
23416.484,31.1934467,34.5438155,50.3,5.0,5.0
23426.443,31.1931531,34.5442199,50.5,5.5,5.0
23435.455,31.1928547,34.5446367,51.7,5.7,5.1
23446.496,31.1925367,34.5450617,53.7,4.9,5.1
23456.492,31.1922572,34.5454869,51.0,5.2,5.1
23465.477,31.1919737,34.5459030,50.6,5.5,5.2
23475.432,31.1916536,34.5463225,53.5,5.5,5.4
23487.422,31.1913808,34.5467849,53.4,4.5,5.2
23497.504,31.1910869,34.5472216,52.9,5.3,5.1
23506.486,31.1907892,34.5476171,50.1,5.8,5.2
23516.447,31.1904666,34.5480501,54.6,5.5,5.3
23526.482,31.1901718,34.5484641,51.2,5.1,5.2
23535.457,31.1898468,34.5489229,56.7,6.1,5.4
23543.467,31.1895080,34.5493834,57.8,7.1,5.7
23551.562,31.1891871,34.5498385,56.1,7.1,6.0
23558.576,31.1888955,34.5502440,50.4,7.1,6.2
23566.529,31.1885919,34.5506981,54.8,6.9,6.4
23573.477,31.1882981,34.5511183,51.6,7.1,6.6
23581.453,31.1880234,34.5515454,50.8,6.7,6.7
23590.506,31.1877116,34.5519927,54.9,6.3,6.8
23600.539,31.1874255,34.5524331,52.6,5.3,6.6
23611.516,31.1871080,34.5528769,55.0,5.0,6.2
23622.496,31.1867941,34.5533470,56.7,5.2,5.8
23632.508,31.1865081,34.5537594,50.5,5.1,5.5
23641.479,31.1862133,34.5542273,55.3,6.2,5.4
23649.537,31.1858844,34.5546438,53.9,6.8,5.5
23657.500,31.1855723,34.5550423,51.4,6.2,5.6
23665.443,31.1852491,34.5554998,56.4,6.7,5.9
23672.420,31.1849498,34.5559363,53.2,7.7,6.2
23678.490,31.1846694,34.5563579,50.8,8.2,6.6
23684.457,31.1843558,34.5567805,53.2,8.8,6.9
23691.484,31.1840644,34.5572113,52.3,7.8,7.2
23698.508,31.1837607,34.5576486,53.6,7.4,7.4
23705.518,31.1834768,34.5580956,53.0,7.4,7.5
23712.500,31.1831687,34.5585109,52.3,7.5,7.6
23719.473,31.1828731,34.5589723,54.9,7.8,7.8
23726.467,31.1825742,34.5594146,53.6,7.8,7.8
23733.463,31.1823739,34.5599379,54.6,7.6,7.9
23741.498,31.1822415,34.5604983,55.4,7.2,7.6
23749.531,31.1821313,34.5610688,55.7,6.9,7.5
23757.529,31.1820566,34.5616479,55.8,6.8,7.4
23766.508,31.1819303,34.5622216,56.4,6.3,7.2
23774.445,31.1818561,34.5627445,50.5,6.6,7.0
23783.484,31.1817093,34.5632839,53.9,6.0,6.8
23791.516,31.1816272,34.5638258,52.4,6.3,6.6
23800.500,31.1815210,34.5644061,56.6,6.3,6.5
23809.486,31.1813999,34.5649682,55.2,6.3,6.4
23817.449,31.1812473,34.5654891,52.5,6.4,6.3
23826.471,31.1810408,34.5659697,51.2,5.8,6.2
23834.453,31.1807861,34.5664097,50.6,6.1,6.2
23842.494,31.1805231,34.5668465,50.8,6.4,6.3
23850.525,31.1802179,34.5672784,53.3,6.6,6.3
23858.514,31.1799130,34.5676821,51.2,6.3,6.3
23867.441,31.1795792,34.5681230,56.0,6.2,6.3
23875.508,31.1792745,34.5685806,55.2,6.9,6.4
23883.502,31.1789423,34.5689896,53.6,6.6,6.5
23891.520,31.1785781,34.5693535,53.2,6.7,6.6
23899.447,31.1781726,34.5696581,53.5,6.9,6.6
23906.480,31.1777836,34.5699386,50.7,7.1,6.7
23913.639,31.1773562,34.5702002,53.6,7.5,6.8
23920.486,31.1769270,34.5704355,52.6,7.3,6.9
23927.449,31.1765332,34.5706934,50.1,7.4,7.1
23933.484,31.1762132,34.5708913,40.2,7.0,7.0
23941.520,31.1757418,34.5711277,56.9,7.0,7.1
23948.482,31.1753155,34.5713519,51.9,7.5,7.2
23956.494,31.1748343,34.5716302,59.6,7.4,7.3
23964.490,31.1743987,34.5718651,53.2,7.1,7.3
23972.439,31.1739547,34.5721310,55.4,6.9,7.2
23981.506,31.1735452,34.5724486,54.6,6.0,6.9
23989.463,31.1731806,34.5727975,52.4,6.4,6.9
23997.475,31.1728393,34.5731818,52.7,6.6,6.8
24005.656,31.1725304,34.5735917,52.0,6.6,6.7
24013.453,31.1722213,34.5739777,50.3,6.2,6.6
24021.459,31.1719238,34.5743840,50.9,6.4,6.5
24029.414,31.1716382,34.5748045,51.1,6.5,6.4
24038.479,31.1713346,34.5752581,54.8,6.0,6.4
24047.438,31.1710236,34.5757095,55.1,6.1,6.4
24056.670,31.1707364,34.5761333,51.4,5.8,6.2
24065.508,31.1704174,34.5765548,53.5,6.1,6.1
24074.443,31.1701223,34.5770147,54.7,6.1,6.1
24083.492,31.1698053,34.5774818,56.7,6.3,6.1
24091.525,31.1695199,34.5779082,51.5,6.6,6.1
24100.477,31.1692041,34.5783227,52.8,6.1,6.1
24109.527,31.1689155,34.5787619,52.7,5.8,6.1
24117.508,31.1686252,34.5791741,50.8,6.3,6.1
24126.459,31.1683028,34.5795826,52.9,6.0,6.1
24135.508,31.1680088,34.5800198,52.9,5.9,6.1
24144.533,31.1677167,34.5804768,54.3,5.9,6.0
24153.479,31.1674223,34.5809191,53.3,6.0,6.0
24162.453,31.1671113,34.5813362,52.6,5.8,6.0
24171.428,31.1668154,34.5817457,51.0,5.9,6.0
24180.445,31.1665190,34.5821500,50.6,5.6,5.8
24189.498,31.1662439,34.5825930,52.1,5.7,5.8
24198.637,31.1659527,34.5830089,51.1,5.7,5.8
24208.457,31.1656308,34.5834190,52.9,5.5,5.6
24218.420,31.1653471,34.5838500,51.7,5.3,5.6
24228.518,31.1650518,34.5842878,53.0,5.3,5.5
24237.520,31.1647354,34.5847327,55.0,6.0,5.6
24247.615,31.1643972,34.5851786,56.7,5.6,5.6
24256.658,31.1641039,34.5856015,51.8,5.9,5.6
24265.412,31.1638262,34.5860433,52.2,6.1,5.7
24275.473,31.1635238,34.5864682,52.6,5.3,5.6
24283.496,31.1632264,34.5868634,50.1,5.9,5.7
24291.518,31.1629164,34.5872929,53.5,6.4,5.9
24302.502,31.1626452,34.5877145,50.2,4.4,5.7
24312.484,31.1623242,34.5881409,54.0,5.4,5.7
24321.424,31.1620405,34.5885657,51.3,5.7,5.7
24329.512,31.1617357,34.5889775,51.8,6.3,5.7
24338.578,31.1614257,34.5894391,55.8,6.2,5.9
24347.672,31.1611241,34.5899017,55.4,6.2,5.8
24356.619,31.1608214,34.5903239,52.4,5.8,5.8
24365.494,31.1605205,34.5907536,52.8,6.0,6.0
24374.447,31.1602348,34.5911980,52.9,5.9,6.0
24384.506,31.1599343,34.5916535,54.7,5.5,6.0
24392.500,31.1595994,34.5920959,56.2,6.9,6.1
24401.490,31.1592812,34.5925509,55.9,6.4,6.1
24410.457,31.1589816,34.5929828,52.9,5.9,6.0
24419.520,31.1586710,34.5934296,54.8,6.0,6.1
24429.504,31.1583720,34.5938796,54.2,5.4,6.0
24439.605,31.1580479,34.5943168,55.0,5.5,6.0
24448.475,31.1577698,34.5947582,52.2,5.8,5.9
24457.443,31.1574569,34.5952043,54.9,6.2,5.9
24466.453,31.1571564,34.5956262,52.2,5.9,5.8
24477.475,31.1568599,34.5960904,55.1,5.0,5.6
24488.586,31.1565553,34.5965354,54.2,5.0,5.5
24498.607,31.1562196,34.5969476,54.1,5.4,5.5
24508.443,31.1559227,34.5973843,53.1,5.4,5.4
24517.441,31.1556272,34.5978175,52.7,5.9,5.4
24525.463,31.1553128,34.5982405,53.3,6.5,5.5
24534.445,31.1549938,34.5986795,54.8,6.2,5.7
24541.496,31.1546737,34.5991271,55.5,7.5,6.0
24548.662,31.1543706,34.5995838,55.0,8.0,6.3
24555.455,31.1540628,34.6000158,53.5,7.6,6.6
24562.457,31.1537542,34.6004596,54.4,7.8,6.9
24569.518,31.1534470,34.6008961,53.8,7.8,7.1
24576.482,31.1531091,34.6013593,57.9,8.2,7.4
24584.445,31.1528127,34.6018081,54.0,7.1,7.4
24592.457,31.1525142,34.6022748,55.5,7.0,7.6
24602.453,31.1522187,34.6027188,53.5,5.4,7.2
24612.469,31.1519139,34.6031783,55.3,5.5,6.8
24621.504,31.1515844,34.6035973,54.1,6.0,6.5
24631.480,31.1512924,34.6040147,51.3,5.2,6.1
24644.457,31.1509852,34.6044534,53.9,4.2,5.4
24656.506,31.1506754,34.6048620,51.9,4.4,5.0
24668.459,31.1503866,34.6053000,52.6,4.5,4.8
24679.549,31.1500928,34.6057295,52.3,4.7,4.5
24690.541,31.1497760,34.6061542,53.6,4.9,4.5
24699.475,31.1494950,34.6065678,50.3,5.5,4.7
24708.459,31.1491896,34.6069765,51.6,5.8,4.9
24717.436,31.1488925,34.6074215,53.7,5.8,5.2
24725.500,31.1485870,34.6078659,54.3,6.8,5.5
24733.488,31.1482494,34.6083230,57.5,7.3,5.8
24738.607,31.1480584,34.6086449,37.3,7.4,6.1
24746.504,31.1477258,34.6090802,55.5,7.2,6.4
24753.469,31.1474108,34.6094914,52.5,7.4,6.6
24760.492,31.1470977,34.6099325,54.5,7.7,6.9
24767.504,31.1468128,34.6103677,52.1,7.4,7.1
24774.465,31.1464986,34.6107698,51.8,7.3,7.3
24781.623,31.1461823,34.6112038,54.2,7.6,7.4
24788.607,31.1458887,34.6116120,50.7,7.3,7.4
24795.469,31.1456074,34.6120438,51.7,7.3,7.5
24802.510,31.1453021,34.6124932,54.6,7.7,7.5
24809.512,31.1449842,34.6128974,52.2,7.5,7.5
24816.492,31.1446703,34.6133178,53.1,7.6,7.5
24824.465,31.1443498,34.6137737,56.1,7.2,7.4
24832.646,31.1440699,34.6142303,53.5,6.7,7.4
24840.670,31.1437495,34.6146893,56.4,6.9,7.3
24848.508,31.1434474,34.6151510,55.3,6.8,7.2
24856.443,31.1431245,34.6156151,56.9,7.0,7.2
24864.443,31.1428215,34.6160518,53.5,6.8,7.1
24872.521,31.1425074,34.6164942,54.7,7.0,7.0
24880.633,31.1422039,34.6169318,53.6,6.7,6.9
24882.615,31.1421028,34.6170805,18.1,7.1,6.9
24883.451,31.1420470,34.6171252,7.5,7.3,6.9
24891.645,31.1417181,34.6175772,56.5,7.5,7.0
24899.486,31.1413920,34.6179748,52.4,6.7,7.0
24908.469,31.1410473,34.6183466,52.1,5.9,6.8
24916.447,31.1406993,34.6186841,50.2,6.1,6.7
24924.473,31.1403070,34.6190012,53.0,6.5,6.7
24929.547,31.1400939,34.6191932,29.9,6.2,6.6
24937.445,31.1396871,34.6194686,52.2,6.5,6.6
24946.508,31.1392775,34.6197640,53.5,5.7,6.3
24954.465,31.1388901,34.6200628,51.5,6.2,6.3
24963.436,31.1384558,34.6203694,56.3,6.4,6.3
24971.520,31.1380581,34.6206645,52.3,6.6,6.3
24978.486,31.1376576,34.6209755,53.4,7.0,6.5
24986.521,31.1372393,34.6212421,52.9,6.8,6.5
24994.510,31.1368533,34.6215153,50.1,6.3,6.5
25001.488,31.1364592,34.6218199,52.5,7.1,6.6
25008.471,31.1360646,34.6221149,52.0,7.4,6.8
25015.498,31.1356961,34.6224292,50.7,7.2,6.9
25023.570,31.1353171,34.6227437,51.6,6.6,6.9
25030.516,31.1349559,34.6231094,53.1,7.4,7.1
25037.449,31.1346072,34.6235208,55.1,7.7,7.1
25044.453,31.1342542,34.6239121,54.1,7.8,7.2
25051.457,31.1339159,34.6243233,54.3,7.7,7.4
25058.451,31.1335454,34.6247573,58.3,8.1,7.5
25065.455,31.1332005,34.6251450,53.2,7.7,7.5
25067.457,31.1330932,34.6252476,15.4,7.7,7.6
25074.578,31.1327872,34.6256469,51.0,7.3,7.6
25081.551,31.1324546,34.6260178,51.1,7.3,7.7
25088.465,31.1321214,34.6263938,51.5,7.3,7.7
25095.438,31.1317884,34.6267779,52.0,7.5,7.6
25103.449,31.1314343,34.6271787,54.8,7.0,7.5
25111.469,31.1310889,34.6276054,55.9,7.0,7.4
25119.467,31.1307549,34.6279704,50.8,6.5,7.2
25127.459,31.1304219,34.6283533,51.9,6.3,7.0
25137.447,31.1300723,34.6287624,55.0,5.5,6.7
25147.510,31.1297189,34.6291479,53.7,5.4,6.4
25156.445,31.1294052,34.6295476,51.6,5.7,6.1
25165.514,31.1290709,34.6299360,52.4,5.9,5.9
25173.590,31.1287368,34.6302945,50.4,6.2,5.9
25181.496,31.1284289,34.6306965,51.3,6.4,5.9
25189.441,31.1280849,34.6311106,54.9,6.7,6.0
25197.479,31.1277329,34.6315401,56.6,7.1,6.2
25204.486,31.1274189,34.6319252,50.6,7.1,6.4
25211.498,31.1270667,34.6322987,52.8,7.7,6.6
25219.488,31.1267560,34.6327300,53.7,6.9,6.8
25225.637,31.1264219,34.6331334,53.4,8.1,7.1
25232.510,31.1260728,34.6335203,53.5,7.8,7.2
25240.459,31.1257368,34.6339413,54.8,7.2,7.3
25248.531,31.1253780,34.6343267,54.2,6.7,7.3
25256.475,31.1250599,34.6347536,53.9,6.7,7.3
25263.535,31.1247503,34.6351542,51.4,7.3,7.3
25270.512,31.1244218,34.6355254,50.8,7.0,7.2
25278.453,31.1240997,34.6359413,53.4,7.1,7.2
25285.609,31.1237738,34.6363303,51.8,7.2,7.1
25293.465,31.1234023,34.6367538,57.7,7.5,7.0
25300.455,31.1230596,34.6371526,53.8,7.6,7.1
25307.514,31.1227279,34.6375239,51.1,7.2,7.2
25315.525,31.1223830,34.6379379,55.0,6.9,7.2
25322.533,31.1220630,34.6383273,51.4,7.2,7.2
25329.467,31.1217061,34.6387604,57.2,7.9,7.3
25336.654,31.1213853,34.6391290,50.0,7.4,7.4
25344.484,31.1210169,34.6395558,57.7,7.2,7.4
25351.428,31.1206585,34.6399460,54.4,7.9,7.4
25358.453,31.1203373,34.6403232,50.6,7.4,7.4
25365.527,31.1200022,34.6407389,54.3,7.7,7.4
25372.445,31.1196575,34.6411513,54.8,7.8,7.5
25380.465,31.1193061,34.6415783,56.4,7.3,7.5
25387.682,31.1189478,34.6420088,57.1,8.1,7.6
25394.473,31.1186032,34.6424078,53.9,8.0,7.6
25402.463,31.1182697,34.6428509,56.2,7.0,7.6
25411.441,31.1179365,34.6432517,53.2,6.0,7.3
25421.518,31.1175907,34.6436582,54.5,5.5,7.0
25430.502,31.1172510,34.6440768,54.9,6.3,6.7
25438.453,31.1169187,34.6444467,51.0,6.6,6.7
25447.457,31.1165880,34.6448474,53.0,6.1,6.4
25455.475,31.1162407,34.6452675,55.6,6.9,6.2
25464.457,31.1158941,34.6456974,56.2,6.4,6.1
25473.475,31.1155917,34.6460956,50.7,5.9,6.1
25481.525,31.1152360,34.6465056,55.5,6.6,6.3
25490.502,31.1148929,34.6468988,53.4,6.1,6.3
25498.428,31.1145521,34.6472900,53.1,6.8,6.3
25507.510,31.1142202,34.6476872,52.8,5.9,6.3
25515.537,31.1138953,34.6480576,50.5,6.3,6.2
25524.459,31.1135293,34.6484818,57.3,6.2,6.2
25532.463,31.1132067,34.6488667,51.3,6.4,6.3
25540.480,31.1128400,34.6492788,56.6,7.0,6.4
25548.453,31.1124887,34.6497060,56.4,7.0,6.6
25556.496,31.1121851,34.6501003,50.5,6.4,6.5
25564.469,31.1118635,34.6505073,52.7,6.7,6.6
25569.586,31.1116550,34.6507201,30.8,6.2,6.5
25577.447,31.1113373,34.6511363,53.1,6.7,6.6
25585.438,31.1110243,34.6515279,51.0,6.6,6.6
25593.477,31.1107014,34.6519074,50.9,6.4,6.6
25602.496,31.1103719,34.6523043,52.6,5.8,6.4
25610.502,31.1100427,34.6527035,52.7,6.3,6.4
25619.623,31.1097137,34.6530785,51.1,5.6,6.2
25629.646,31.1093525,34.6534925,56.2,5.6,6.1
25638.486,31.1090154,34.6538902,53.3,6.0,6.0
25648.510,31.1086712,34.6542960,54.4,5.5,5.9
25656.500,31.1083633,34.6546806,50.1,6.0,5.9
25663.527,31.1080683,34.6550007,44.7,6.3,6.0
25664.461,31.1080661,34.6550498,4.7,6.2,5.9
25672.490,31.1077438,34.6554418,51.7,6.3,5.9
25681.527,31.1073956,34.6558478,54.7,6.2,6.0
25689.520,31.1070476,34.6562392,53.7,6.6,6.2
25698.488,31.1067123,34.6566514,54.1,6.0,6.2
25706.490,31.1063712,34.6570474,53.5,6.6,6.3
25715.512,31.1060171,34.6574491,54.9,6.4,6.3
25723.514,31.1057038,34.6578351,50.6,6.3,6.3
25728.570,31.1055200,34.6580357,28.0,6.2,6.3
25737.455,31.1052265,34.6584385,50.4,5.7,6.2
25746.523,31.1048920,34.6588128,51.5,5.5,6.1
25755.484,31.1045721,34.6592099,51.9,5.7,6.0
25764.441,31.1042318,34.6595917,52.4,5.9,5.9
25774.484,31.1038771,34.6600003,55.4,5.5,5.8
25782.516,31.1036172,34.6603293,42.6,5.5,5.7
25793.486,31.1032705,34.6607543,55.9,5.1,5.5
25802.508,31.1029417,34.6611331,51.3,5.7,5.6
25812.572,31.1026175,34.6615268,52.0,5.2,5.5
25822.691,31.1022882,34.6619013,51.1,5.1,5.4
25831.490,31.1019805,34.6622893,50.3,5.7,5.4
25841.496,31.1016536,34.6626717,51.4,5.2,5.3
25849.514,31.1013197,34.6630530,51.9,6.3,5.5
25858.518,31.1009764,34.6634544,54.0,6.1,5.6
25860.566,31.1009059,34.6635469,11.8,5.9,5.6
25869.594,31.1005813,34.6639248,50.9,5.7,5.6
25878.475,31.1002426,34.6643644,56.3,6.2,5.8
25887.510,31.0999105,34.6647531,52.3,5.9,5.9
25896.488,31.0995914,34.6651776,53.8,6.1,6.0
25905.465,31.0992352,34.6655879,55.6,6.0,6.1
25913.615,31.0989324,34.6659794,50.2,6.2,6.0
25922.498,31.0986138,34.6664039,53.7,6.2,6.0
25930.453,31.0982715,34.6668104,54.3,6.6,6.2
25938.465,31.0979484,34.6672344,54.0,7.0,6.3
25945.471,31.0976524,34.6676309,50.1,6.9,6.4
25953.533,31.0973196,34.6680365,53.5,6.8,6.5
25963.443,31.0970210,34.6684365,50.5,5.2,6.3
25974.516,31.0967054,34.6688796,54.9,5.0,6.1
25983.455,31.0964076,34.6692770,50.3,5.6,6.1
25993.490,31.0960809,34.6696897,53.5,5.4,5.8
26004.496,31.0957758,34.6700922,51.2,4.8,5.4
26014.502,31.0954648,34.6705038,52.3,5.2,5.2
26024.484,31.0951495,34.6709139,52.5,5.4,5.2
26035.506,31.0948461,34.6713571,54.0,4.9,5.2
26044.488,31.0945968,34.6716737,40.9,4.6,5.0
26055.518,31.0942633,34.6720898,54.2,4.8,5.0
26066.496,31.0939435,34.6725055,53.2,4.9,5.0
26077.449,31.0936290,34.6728993,51.3,4.7,4.8
26088.514,31.0933267,34.6732935,50.4,4.6,4.7
26099.508,31.0929954,34.6736774,51.9,4.7,4.7
26110.574,31.0927168,34.6741250,52.7,4.8,4.7
26121.629,31.0923733,34.6745409,55.0,4.9,4.8
26131.492,31.0920711,34.6749515,51.6,5.3,4.8
26140.488,31.0917656,34.6753313,49.6,5.5,5.0
26150.512,31.0914799,34.6757432,50.5,5.1,5.1
26160.598,31.0911630,34.6761450,52.0,5.2,5.1
26171.518,31.0908510,34.6765451,51.5,4.7,5.1
26183.439,31.0905311,34.6769362,51.5,4.2,5.0
26195.465,31.0902386,34.6773454,50.8,4.3,4.8
26204.494,31.0899364,34.6777508,51.2,5.5,4.8
26214.457,31.0896258,34.6781569,51.8,5.5,4.8
26224.490,31.0893068,34.6785565,52.0,5.2,4.8
26235.506,31.0889670,34.6789932,56.2,5.2,4.9
26245.508,31.0886452,34.6794146,53.8,5.4,5.2
26254.443,31.0883409,34.6798181,51.2,5.6,5.4
26262.654,31.0880063,34.6801882,51.2,6.3,5.5
26271.439,31.0877006,34.6806063,52.3,6.0,5.5
26281.514,31.0873945,34.6810100,51.3,5.1,5.5
26290.523,31.0870955,34.6814278,51.8,5.7,5.7
26299.537,31.0867661,34.6818168,52.1,5.9,5.7
26308.506,31.0864750,34.6822341,51.3,5.6,5.8
26317.461,31.0861561,34.6826737,54.9,6.0,5.8
26327.459,31.0858232,34.6831087,55.5,5.7,5.6
26336.455,31.0855029,34.6835226,53.1,5.9,5.8
26344.537,31.0851813,34.6839313,52.8,6.4,5.9
26351.637,31.0848687,34.6843158,50.5,6.9,6.1
26359.525,31.0845583,34.6847074,50.8,6.5,6.1
26368.480,31.0842256,34.6851328,54.8,6.2,6.2
26378.463,31.0838961,34.6855485,53.9,5.5,6.1
26390.504,31.0836013,34.6859466,50.1,3.9,5.9
26403.666,31.0832718,34.6863563,53.5,4.2,5.4
26414.521,31.0829515,34.6867311,50.4,4.6,4.9
26425.506,31.0826058,34.6871397,54.7,4.9,4.7
26435.465,31.0823011,34.6875799,53.9,5.4,4.6
26446.535,31.0819846,34.6880021,53.4,4.7,4.7
26458.496,31.0816344,34.6884377,56.9,4.7,4.9
26468.430,31.0813305,34.6888389,51.0,5.4,5.0
26480.490,31.0810165,34.6892321,51.2,4.2,4.9
26492.590,31.0807090,34.6896161,50.0,4.2,4.7
26504.680,31.0803867,34.6899970,51.0,4.1,4.5
26545.525,31.0801591,34.6902081,32.3,0.8,2.4
26553.451,31.0801832,34.6902860,7.9,1.0,2.0
26567.455,31.0801597,34.6902402,5.1,0.5,1.1
26570.506,31.0801369,34.6902395,2.5,0.8,1.0
26614.506,31.0801270,34.6901838,5.4,0.9,0.4
26694.451,31.0801473,34.6901625,3.0,0.3,0.1
26789.529,31.0801726,34.6901879,3.7,0.1,0.0
26804.629,31.0801299,34.6901691,5.1,0.5,0.1
26888.516,31.0801844,34.6901914,6.4,0.3,0.1
26914.527,31.0801768,34.6901665,2.5,0.3,0.2
27008.502,31.0802376,34.6902155,8.2,1.2,0.4
27039.506,31.0802138,34.6901705,5.0,0.1,0.4
27934.455,31.0801842,34.6902090,4.9,0.4,0.1
27951.516,31.0802469,34.6903231,12.9,1.2,0.4
27960.455,31.0802740,34.6902666,6.2,1.4,0.6
27992.432,31.0799412,34.6906554,52.3,4.0,1.4
28003.439,31.0796307,34.6910405,50.4,4.6,2.1
28016.572,31.0792933,34.6914387,53.3,4.0,2.7
28028.428,31.0789717,34.6918438,52.6,4.5,3.4
28040.434,31.0786500,34.6922625,53.6,4.7,4.3
28049.455,31.0784235,34.6925932,40.3,4.5,4.4
28053.457,31.0784092,34.6927506,15.1,4.3,4.4
28063.527,31.0780729,34.6931132,50.9,5.1,4.4
28073.564,31.0777242,34.6934648,51.2,5.1,4.6
28083.545,31.0773805,34.6938298,51.6,5.1,4.8
28094.455,31.0770562,34.6942491,53.8,4.9,4.9
28105.494,31.0767481,34.6946757,53.1,4.8,4.9
28117.633,31.0764191,34.6950913,53.9,4.4,4.9
28128.717,31.0761314,34.6954994,50.3,4.5,4.8
28138.434,31.0758486,34.6958435,45.4,4.7,4.8
28150.432,31.0755422,34.6962764,53.5,4.4,4.6
28155.518,31.0753893,34.6964457,23.4,4.1,4.6
28156.432,31.0753696,34.6965097,6.5,4.6,4.6
28168.648,31.0749914,34.6968702,54.2,4.5,4.6
28180.488,31.0746330,34.6972212,52.0,4.3,4.5
28191.438,31.0742541,34.6975721,53.7,4.9,4.6
28202.486,31.0738887,34.6979636,55.1,5.1,4.7
28209.430,31.0736589,34.6982144,35.0,5.1,4.8
28210.471,31.0736474,34.6982523,3.8,5.0,4.8
28221.479,31.0732602,34.6986211,55.5,5.1,4.8
28230.443,31.0729036,34.6989503,50.5,5.7,5.0
28235.502,31.0727649,34.6991314,23.1,5.2,5.0
28243.453,31.0724432,34.6994343,45.9,5.4,5.2
28251.465,31.0721523,34.6997151,41.9,5.4,5.2
28261.430,31.0717969,34.7000901,53.2,5.4,5.3
28271.482,31.0714265,34.7004641,54.4,5.4,5.4
28281.479,31.0710620,34.7008525,54.8,5.5,5.4
28287.443,31.0708447,34.7010877,32.9,5.6,5.4
28292.436,31.0706362,34.7012713,29.0,5.7,5.5
28295.469,31.0705374,34.7014126,17.4,5.5,5.5
28305.561,31.0701678,34.7017821,54.1,5.4,5.5
28315.654,31.0697840,34.7021688,56.3,5.6,5.6
28325.674,31.0694061,34.7025113,53.2,5.3,5.5
28335.465,31.0690505,34.7028984,54.0,5.5,5.5
28345.484,31.0686785,34.7032655,54.1,5.4,5.5
28354.604,31.0683276,34.7036093,50.9,5.6,5.5
28363.549,31.0679865,34.7039602,50.5,5.6,5.5
28373.432,31.0676081,34.7043339,55.1,5.6,5.5
28383.465,31.0672382,34.7047122,54.6,5.5,5.5
28393.482,31.0668711,34.7050862,54.1,5.5,5.5
28403.555,31.0665440,34.7054469,50.0,5.0,5.5
28406.602,31.0664342,34.7055598,16.3,5.2,5.5
28407.631,31.0664320,34.7056167,5.4,5.2,5.5
28416.705,31.0660450,34.7059367,52.7,5.8,5.5
28426.750,31.0656782,34.7063149,54.4,5.4,5.5
28436.445,31.0652895,34.7066571,54.1,5.4,5.5
28446.566,31.0649210,34.7070304,54.2,5.4,5.4
28456.627,31.0645588,34.7073988,53.4,5.3,5.4
28466.660,31.0642026,34.7077706,53.1,5.3,5.5
28476.434,31.0638523,34.7081031,50.2,5.2,5.4
28487.467,31.0634925,34.7084815,53.8,4.9,5.3
28497.564,31.0631288,34.7088695,54.7,5.4,5.2
28507.654,31.0627722,34.7092460,53.4,5.3,5.2
28517.430,31.0623992,34.7096011,53.5,5.5,5.3
28526.430,31.0620591,34.7099484,50.2,5.7,5.3
28537.475,31.0616791,34.7103173,54.9,5.0,5.3
28547.582,31.0613444,34.7106939,51.7,5.1,5.3
28556.660,31.0609931,34.7110486,51.6,5.5,5.4
28566.709,31.0606218,34.7114065,53.5,5.3,5.4
28577.510,31.0602485,34.7117906,55.3,5.0,5.3
28587.494,31.0598806,34.7121485,53.2,5.3,5.3
28597.611,31.0595041,34.7125231,55.0,5.4,5.3
28607.736,31.0591434,34.7128765,52.3,5.2,5.3
28617.430,31.0588049,34.7132423,51.3,5.3,5.3
28627.436,31.0584359,34.7136154,54.2,5.4,5.3
28636.506,31.0580857,34.7139545,50.5,5.5,5.4
28646.641,31.0577171,34.7143279,54.2,5.4,5.4
28655.656,31.0573560,34.7147054,53.9,5.9,5.4
28664.434,31.0569866,34.7150720,53.9,6.0,5.6
28674.436,31.0566090,34.7154467,55.1,5.5,5.6
28685.523,31.0562712,34.7158594,54.3,5.0,5.6
28695.617,31.0558865,34.7162248,55.1,5.5,5.5
28704.596,31.0555227,34.7165690,52.0,5.9,5.6
28714.436,31.0551548,34.7169297,53.4,5.4,5.5
28723.477,31.0548068,34.7172803,51.1,5.7,5.5
28732.496,31.0544562,34.7176339,51.5,5.7,5.5
28741.443,31.0540885,34.7179801,52.5,5.8,5.6
28750.438,31.0537347,34.7183273,51.4,5.8,5.7
28759.436,31.0533654,34.7186691,52.4,6.0,5.7
28769.432,31.0530001,34.7190457,54.2,5.4,5.7
28778.434,31.0526675,34.7194055,50.4,5.5,5.7
28788.580,31.0523656,34.7198556,54.5,5.4,5.6
28798.691,31.0521220,34.7203433,53.8,5.4,5.6
28809.508,31.0518984,34.7208359,53.2,5.0,5.4
28818.498,31.0517287,34.7213407,51.7,5.6,5.4
28820.459,31.0517206,34.7214499,10.5,5.8,5.4
28829.443,31.0515823,34.7219678,51.8,5.7,5.5
28833.506,31.0515371,34.7222278,25.3,6.0,5.5
28842.494,31.0515034,34.7227504,50.0,5.6,5.5
28850.508,31.0514466,34.7232442,47.6,5.8,5.6
28856.705,31.0514381,34.7236880,42.4,6.8,5.7
28866.439,31.0513811,34.7242569,54.7,5.7,5.8
28875.492,31.0513396,34.7247934,51.4,5.7,5.9
28884.596,31.0512992,34.7253690,55.1,6.0,5.9
28893.553,31.0512120,34.7259518,56.5,6.3,6.0
28902.439,31.0510661,34.7264735,52.4,5.9,6.0
28906.713,31.0509695,34.7266940,23.6,5.8,6.0
28915.498,31.0507756,34.7272012,53.0,6.1,5.9
28917.494,31.0507157,34.7273279,13.8,6.3,6.0
28920.496,31.0506404,34.7274132,11.7,5.5,5.9
28921.441,31.0506214,34.7274913,7.7,5.7,5.9
28922.473,31.0506419,34.7275435,5.5,5.7,5.9
28932.527,31.0503625,34.7279842,52.2,5.3,5.9
28934.561,31.0502852,34.7280674,11.7,5.6,5.8
28936.635,31.0501609,34.7281615,16.5,5.9,5.9
28938.666,31.0500712,34.7282652,14.0,6.3,6.0
28939.658,31.0500199,34.7282928,6.3,6.4,6.0
28941.518,31.0499934,34.7283961,10.3,6.4,5.9
28948.447,31.0497407,34.7286496,37.0,5.7,5.9
28957.762,31.0494183,34.7289333,44.8,5.1,5.7
28959.436,31.0494005,34.7290188,8.4,4.9,5.6
28966.465,31.0491390,34.7293049,39.8,5.5,5.6
28976.549,31.0488232,34.7296683,49.3,5.0,5.4
28984.598,31.0484908,34.7299391,45.0,5.3,5.5
28994.590,31.0481456,34.7302793,50.2,5.1,5.4
29005.693,31.0477961,34.7306752,54.1,4.9,5.2
29015.447,31.0474432,34.7310271,51.6,5.1,5.2
29025.562,31.0470936,34.7313659,50.5,5.0,5.1
29035.646,31.0467250,34.7317070,52.3,5.2,5.2
29046.672,31.0463141,34.7320185,54.4,4.9,5.1
29057.436,31.0458994,34.7323092,53.7,5.0,5.1
29068.439,31.0454662,34.7325645,53.9,5.0,5.1
29078.590,31.0450591,34.7327947,50.2,5.0,5.0
29090.531,31.0446395,34.7330380,52.0,4.6,4.8
29102.447,31.0442129,34.7332857,52.9,4.3,4.7
29113.449,31.0437910,34.7335179,51.8,4.7,4.7
29123.549,31.0433940,34.7338185,52.5,5.2,4.7
29133.551,31.0430447,34.7341750,51.6,5.2,4.8
29142.439,31.0427744,34.7345280,45.1,5.2,4.9
29149.486,31.0426042,34.7348833,38.8,5.3,5.0
29152.436,31.0424863,34.7350287,19.1,5.7,5.1
29160.490,31.0422823,34.7355779,57.1,7.0,5.4
29169.508,31.0420546,34.7360821,54.4,6.5,5.7
29174.590,31.0419230,34.7364234,35.7,6.8,5.8
29175.645,31.0418716,34.7364648,6.9,6.8,5.9
29176.584,31.0418390,34.7365321,7.4,7.0,5.9
29177.635,31.0418358,34.7366132,7.8,7.0,6.0
29184.586,31.0416663,34.7370722,47.7,7.0,6.1
29192.506,31.0414067,34.7375771,56.1,6.9,6.4
29197.738,31.0412783,34.7378828,32.5,6.8,6.5
29205.439,31.0410355,34.7383668,53.5,6.8,6.7
29213.484,31.0408200,34.7388506,52.0,6.6,6.7
29223.504,31.0405931,34.7393216,51.5,5.2,6.5
29235.607,31.0403963,34.7398207,52.4,4.3,6.0
29247.434,31.0401687,34.7403090,53.0,4.4,5.5
29259.488,31.0399587,34.7408280,54.7,4.6,5.1
29270.436,31.0397402,34.7412957,50.8,4.6,4.7
29281.447,31.0395601,34.7417948,51.7,4.7,4.5
29292.506,31.0393318,34.7422974,54.2,4.8,4.6
29302.516,31.0391148,34.7427750,51.6,5.2,4.8
29306.494,31.0390279,34.7429460,19.0,5.0,4.8
29307.438,31.0389820,34.7429778,5.9,5.1,4.8
29309.445,31.0389813,34.7430907,10.8,5.0,4.8
29315.547,31.0388038,34.7433895,34.6,5.4,5.0
29326.650,31.0386141,34.7438843,51.7,4.7,5.0
29336.672,31.0384056,34.7443764,52.4,5.2,5.1
29347.441,31.0381937,34.7448723,52.8,4.9,5.1
29357.469,31.0379638,34.7453465,52.0,5.2,5.1
29367.574,31.0377417,34.7458470,53.8,5.4,5.2
29373.502,31.0376202,34.7461422,31.2,5.3,5.1
29383.439,31.0374013,34.7466411,53.5,5.4,5.2
29394.434,31.0371403,34.7471405,55.8,5.1,5.2
29403.461,31.0368847,34.7476114,53.1,5.9,5.4
29412.449,31.0366244,34.7480549,51.2,5.6,5.4
29421.438,31.0362705,34.7484485,54.3,6.1,5.6
29431.439,31.0358663,34.7487827,55.0,5.5,5.6
29441.436,31.0354404,34.7490302,52.8,5.4,5.6
29451.436,31.0350018,34.7492113,51.6,5.2,5.6
29461.441,31.0345337,34.7493424,53.4,5.4,5.5
29471.439,31.0340591,34.7494493,53.6,5.4,5.5
29481.506,31.0335765,34.7494984,53.7,5.4,5.4
29485.602,31.0333804,34.7495182,21.8,5.4,5.4
29486.436,31.0333383,34.7495617,6.2,5.6,5.4
29498.518,31.0328856,34.7496214,50.5,4.2,5.2
29510.436,31.0323857,34.7496564,55.5,4.7,5.0
29521.434,31.0319019,34.7497152,53.9,4.9,5.0
29533.465,31.0314204,34.7497792,53.7,4.4,4.8
29544.467,31.0309318,34.7498615,54.7,5.0,4.7
29555.520,31.0304519,34.7499286,53.6,4.9,4.8
29566.643,31.0299645,34.7500036,54.5,4.8,4.9
29577.684,31.0294829,34.7500607,53.7,4.9,4.8
29587.441,31.0290290,34.7501440,51.0,5.2,5.0
29597.523,31.0285721,34.7502169,51.1,5.1,5.0
29607.562,31.0281220,34.7502769,50.2,5.0,5.0
29616.662,31.0276604,34.7503360,51.5,5.6,5.1
29620.443,31.0274669,34.7503532,21.5,5.7,5.1
29629.438,31.0270127,34.7504801,51.8,5.8,5.3
29638.441,31.0265802,34.7506472,50.5,5.6,5.4
29646.463,31.0261601,34.7509090,52.9,6.5,5.6
29653.518,31.0257631,34.7511587,50.1,7.0,5.8
29662.455,31.0253482,34.7514590,54.2,6.0,6.0
29671.439,31.0249637,34.7517336,50.0,5.7,6.0
29680.436,31.0245692,34.7520266,51.9,5.8,6.1
29690.436,31.0241968,34.7523467,51.4,5.1,5.9
29701.469,31.0238082,34.7526925,54.3,4.9,5.8
29713.520,31.0234102,34.7530276,54.5,4.5,5.3
29724.578,31.0230108,34.7533768,55.4,5.0,5.1
29734.465,31.0226355,34.7536792,50.7,5.2,5.1
29744.473,31.0222866,34.7540152,50.3,5.1,4.9
29755.588,31.0219048,34.7543161,51.2,4.6,4.9
29767.699,31.0215027,34.7546373,54.1,4.4,4.8
29777.441,31.0211006,34.7549118,51.7,5.2,4.9
29787.512,31.0206910,34.7552097,53.6,5.3,5.0
29796.518,31.0202713,34.7554337,51.2,5.8,5.1
29806.623,31.0198128,34.7556634,55.4,5.5,5.1
29816.652,31.0193925,34.7559020,51.9,5.2,5.2
29825.471,31.0189301,34.7561230,55.4,5.8,5.5
29834.439,31.0184893,34.7563596,53.8,6.3,5.6
29843.504,31.0180720,34.7566495,53.9,6.1,5.8
29852.463,31.0176946,34.7569928,53.2,5.9,5.8
29861.492,31.0173771,34.7574365,55.1,6.2,5.9
29866.682,31.0172134,34.7576426,26.8,5.7,5.9
29874.473,31.0170140,34.7580266,42.8,5.3,5.8
29875.473,31.0170115,34.7580752,4.7,5.3,5.8
29876.697,31.0169758,34.7581304,6.6,5.4,5.9
29880.438,31.0168990,34.7583604,23.6,5.7,5.9
29883.453,31.0168783,34.7585372,17.0,5.9,5.9
29886.535,31.0167953,34.7586822,16.6,5.8,5.8
29895.523,31.0166569,34.7591951,51.3,5.7,5.8
29904.555,31.0164781,34.7597364,55.4,6.3,5.8
29914.559,31.0162784,34.7602596,54.7,5.5,5.8
29917.693,31.0161959,34.7604296,18.6,5.5,5.8
29921.510,31.0161345,34.7606830,25.1,6.2,5.8
29930.467,31.0159505,34.7611710,50.9,5.7,5.8
29938.480,31.0157845,34.7616769,51.7,6.0,5.9
29941.477,31.0157307,34.7618552,18.0,6.4,6.0
29942.490,31.0156864,34.7619055,6.9,6.1,6.0
29951.492,31.0155381,34.7624093,50.8,5.8,6.0
29956.576,31.0154307,34.7626925,29.6,5.7,6.0
29957.443,31.0154463,34.7627370,4.6,5.7,6.0
29959.699,31.0153800,34.7628320,11.7,5.8,6.0
29967.697,31.0152134,34.7633161,49.8,6.0,5.9
29973.523,31.0151166,34.7636340,32.2,5.9,6.0
29975.451,31.0150370,34.7637758,16.2,6.3,6.1
29976.506,31.0150351,34.7638879,10.7,6.7,6.1
29979.510,31.0149799,34.7640720,18.6,6.7,6.1
29980.459,31.0149207,34.7640604,6.7,6.8,6.1
29983.484,31.0149264,34.7642411,17.3,6.9,6.1
29987.490,31.0148907,34.7645223,27.1,6.2,6.1
29997.602,31.0146734,34.7650527,56.1,5.6,6.1
30006.623,31.0144733,34.7655443,51.9,5.8,6.0
30015.594,31.0143038,34.7660349,50.5,5.5,6.0
30024.447,31.0141142,34.7665350,52.2,5.7,6.1
30033.479,31.0139886,34.7670431,50.5,5.6,6.0
30038.510,31.0139186,34.7673192,27.5,5.5,5.8
30039.449,31.0139211,34.7673833,6.1,5.6,5.8
30049.635,31.0137578,34.7679151,53.9,5.3,5.6
30059.516,31.0136011,34.7684583,54.7,5.5,5.6
30068.744,31.0134538,34.7689877,53.1,6.0,5.6
30072.443,31.0133812,34.7692456,25.9,6.2,5.7
30076.445,31.0133684,34.7694975,24.1,6.3,5.7
30081.496,31.0132917,34.7697767,28.0,5.9,5.7
30084.494,31.0132291,34.7699055,14.1,5.4,5.7
30088.537,31.0131777,34.7701344,22.6,5.3,5.7
30089.539,31.0131961,34.7701597,3.2,5.0,5.6
30096.658,31.0130692,34.7705675,41.4,5.5,5.7
30098.637,31.0130246,34.7706602,10.1,5.5,5.6
30108.744,31.0129072,34.7711676,50.2,5.0,5.6
30119.439,31.0127723,34.7717133,54.2,5.1,5.5
30129.443,31.0126093,34.7722557,54.9,5.5,5.4
30139.582,31.0124770,34.7727640,50.7,5.0,5.2
30149.688,31.0123382,34.7732999,53.4,5.3,5.3
30159.438,31.0122096,34.7738376,53.3,5.4,5.2
30170.436,31.0120810,34.7743666,52.5,4.8,5.2
30181.443,31.0119497,34.7749150,54.4,5.0,5.2
30191.438,31.0118060,34.7754247,51.2,5.1,5.1
30202.441,31.0116853,34.7759516,52.1,4.6,5.0
30213.441,31.0115524,34.7764860,53.1,4.8,4.9
30223.439,31.0114300,34.7770248,53.2,5.3,5.0
30234.535,31.0113030,34.7775883,55.6,5.2,5.0
30244.523,31.0111976,34.7781311,53.1,5.4,5.0
30253.441,31.0110799,34.7786733,53.4,5.8,5.2
30263.465,31.0109241,34.7792068,53.8,5.4,5.3
30270.434,31.0107583,34.7795819,40.3,5.6,5.4
30276.488,31.0105872,34.7798621,32.8,5.5,5.5
30285.607,31.0102767,34.7803005,54.2,6.0,5.6
30288.617,31.0101347,34.7803543,16.6,5.8,5.6
30290.443,31.0100248,34.7803040,13.1,6.0,5.7
30292.520,31.0099025,34.7802089,16.3,6.4,5.8
30293.541,31.0099265,34.7801346,7.6,6.5,5.8
30301.447,31.0096044,34.7798451,45.2,6.3,5.9
30309.783,31.0092795,34.7794549,51.8,6.4,5.9
30317.465,31.0089385,34.7790813,52.0,6.8,6.1
30320.510,31.0088369,34.7789574,16.3,6.2,6.1
30321.494,31.0087718,34.7789157,8.2,6.3,6.1
30323.502,31.0087057,34.7788195,11.8,6.4,6.1
30330.443,31.0083712,34.7785014,47.9,6.8,6.3
30339.652,31.0080043,34.7781144,55.0,6.3,6.3
30346.637,31.0076586,34.7777529,51.6,7.1,6.5
30347.680,31.0076141,34.7777131,6.2,7.1,6.5
30348.736,31.0075419,34.7777078,8.0,7.2,6.6
30350.441,31.0074476,34.7776033,14.5,7.5,6.6
30357.443,31.0071753,34.7772430,45.8,7.0,6.6
30358.465,31.0071035,34.7771985,9.0,7.2,6.6
30367.518,31.0067621,34.7767785,55.2,6.4,6.7
30375.541,31.0064076,34.7763480,56.9,6.8,6.7
30379.590,31.0062210,34.7761798,26.2,7.0,6.7
30384.516,31.0060374,34.7759549,29.6,6.4,6.7
30385.576,31.0059633,34.7759319,8.5,6.4,6.7
30386.572,31.0059176,34.7758879,6.6,6.4,6.7
30387.688,31.0058557,34.7758758,7.0,6.3,6.7
30390.461,31.0057182,34.7757065,22.2,6.8,6.8
30391.467,31.0056554,34.7756903,7.1,7.0,6.8
30397.459,31.0054431,34.7754210,34.9,6.6,6.8
30398.684,31.0053554,34.7753591,11.4,6.8,6.8
30402.451,31.0052107,34.7751602,24.9,6.5,6.7
30403.455,31.0051425,34.7751089,9.0,6.8,6.8
30405.453,31.0050831,34.7749960,12.6,6.9,6.8
30409.449,31.0049310,34.7747929,25.7,6.8,6.8
30410.463,31.0048498,34.7747639,9.4,7.1,6.7
30415.518,31.0046666,34.7745276,30.4,6.6,6.7
30420.527,31.0044591,34.7743190,30.4,6.1,6.6
30428.592,31.0041455,34.7738725,55.0,6.6,6.7
30432.506,31.0039490,34.7736440,30.8,7.1,6.8
30434.514,31.0038063,34.7735352,18.9,7.4,6.9
30435.559,31.0038261,34.7734815,5.6,7.2,6.8
30439.729,31.0037154,34.7732613,24.3,7.2,6.8
30445.559,31.0034908,34.7729243,40.7,6.6,6.9
30447.680,31.0034124,34.7728598,10.6,6.4,6.8
30449.760,31.0033784,34.7727580,10.4,6.2,6.7
30450.453,31.0033842,34.7726981,5.8,6.4,6.7
30458.441,31.0037157,34.7722879,53.7,6.5,6.8
30462.482,31.0038492,34.7721460,20.1,6.1,6.6
30480.475,31.0040493,34.7719523,28.9,2.2,5.4
30488.531,31.0040145,34.7720186,7.4,1.1,4.6
30575.549,31.0038397,34.7715321,50.3,0.8,0.9
30612.516,31.0039466,34.7712083,33.1,1.0,0.8
30672.502,31.0039224,34.7710685,13.6,0.4,0.5
30681.559,31.0038856,34.7709515,11.9,1.6,0.6
30914.510,31.0039169,34.7710580,10.7,0.1,0.0
30920.494,31.0038958,34.7711063,5.2,0.6,0.1
30934.533,31.0039067,34.7710922,1.8,0.7,0.1
30964.527,31.0040758,34.7713708,32.5,1.0,0.8
30979.479,31.0040436,34.7712415,12.9,1.2,1.0
30984.510,31.0040679,34.7712967,5.9,1.2,1.1
31038.471,31.0040111,34.7713115,6.5,0.6,0.2
31079.492,31.0041219,34.7712679,13.0,0.4,0.4
31120.473,31.0039818,34.7712797,15.6,1.0,0.6
31144.492,31.0040070,34.7713188,4.7,0.5,0.7
31146.656,31.0039972,34.7713352,1.9,0.4,0.7
31181.465,31.0039324,34.7714311,11.6,1.2,0.8
31189.680,31.0039527,34.7714447,2.6,0.6,0.7
31263.502,31.0039427,34.7711497,28.2,1.1,0.5
31267.498,31.0038908,34.7711067,7.1,1.5,0.6
31295.502,31.0039058,34.7711166,1.9,0.3,0.6
31302.502,31.0039031,34.7709775,13.3,1.5,0.8
31325.568,31.0039434,34.7711046,12.9,0.6,0.6
31367.537,31.0039692,34.7710097,9.5,0.5,0.3
31384.502,31.0038920,34.7710560,9.6,0.6,0.4
31392.479,31.0039366,34.7709954,7.6,0.3,0.6
31424.656,31.0039724,34.7709567,5.4,0.3,0.5
31556.680,31.0038988,34.7710192,10.1,0.4,0.2
31919.480,31.0039441,34.7710905,8.5,0.2,0.2
31926.516,31.0039199,34.7711174,3.7,0.7,0.3
31957.527,31.0039236,34.7710339,8.0,0.2,0.7
31994.492,31.0039182,34.7711689,12.9,1.3,0.6
31996.518,31.0038866,34.7712146,5.6,1.5,0.6
32009.537,31.0040598,34.7712844,20.3,1.4,0.7
32095.523,31.0040855,34.7718080,50.1,1.1,0.8
32115.500,31.0039745,34.7720106,22.9,1.2,0.9
32144.463,31.0036654,34.7724187,51.9,3.4,1.5
32161.641,31.0033043,34.7726946,47.9,2.7,2.0
32165.516,31.0032046,34.7726451,12.0,2.8,2.1
32175.479,31.0029095,34.7722370,50.9,5.1,2.7
32185.457,31.0025814,34.7718681,50.6,5.1,3.6
32196.514,31.0022421,34.7714837,52.6,4.7,4.1
32199.609,31.0021385,34.7713694,15.8,5.0,4.2
32200.615,31.0021539,34.7713403,3.3,4.9,4.2
32211.746,31.0018262,34.7709336,53.2,4.8,4.4
32222.527,31.0014923,34.7705545,51.8,4.7,4.8
32233.463,31.0011829,34.7701682,50.4,4.6,4.8
32244.492,31.0008953,34.7697267,52.9,4.9,4.8
32255.570,31.0005753,34.7693380,51.3,4.7,4.8
32266.623,31.0002138,34.7689668,53.5,4.9,4.8
32276.447,30.9999085,34.7685755,50.4,5.3,4.8
32281.477,30.9997903,34.7684093,20.6,4.4,4.8
32289.533,30.9995052,34.7681856,38.2,4.4,4.8
32301.686,30.9991098,34.7678759,52.9,4.2,4.7
32312.463,30.9987575,34.7675483,50.0,4.6,4.7
32322.486,30.9983481,34.7672787,52.2,5.2,4.8
32324.486,30.9982747,34.7672226,9.7,5.2,4.8
32329.500,30.9980710,34.7671396,23.9,5.2,4.7
32334.514,30.9977828,34.7669587,36.3,6.1,4.9
32335.502,30.9977331,34.7669666,5.6,6.1,4.9
32336.521,30.9977051,34.7669458,3.7,5.9,4.9
32337.516,30.9977130,34.7668761,6.7,6.1,4.9
32341.516,30.9975607,34.7667311,21.8,5.7,5.0
32346.557,30.9973208,34.7666591,27.5,5.6,5.1
32354.510,30.9970105,34.7664400,40.3,5.3,5.1
32356.635,30.9969396,34.7663441,12.1,5.2,5.2
32364.477,30.9964749,34.7661487,54.8,6.6,5.5
32370.461,30.9961744,34.7659870,36.7,6.5,5.7
32379.455,30.9957442,34.7656943,55.3,6.2,5.9
32388.551,30.9953212,34.7654259,53.4,5.9,6.0
32396.561,30.9949311,34.7651932,48.6,6.0,6.0
32405.547,30.9945376,34.7649276,50.5,5.7,6.0
32410.760,30.9942718,34.7647737,32.9,6.2,6.1
32415.465,30.9940416,34.7645884,31.1,6.5,6.2
32419.463,30.9938017,34.7644710,28.9,6.7,6.2
32426.459,30.9934135,34.7642488,48.0,7.0,6.3
32434.580,30.9930040,34.7639899,51.7,6.5,6.3
32438.549,30.9928158,34.7638631,24.1,6.4,6.3
32446.568,30.9923715,34.7636107,54.8,6.6,6.4
32453.533,30.9919734,34.7633632,50.1,6.8,6.5
32461.463,30.9915108,34.7630961,57.3,7.4,6.7
32470.518,30.9911114,34.7628371,50.7,6.0,6.7
32473.490,30.9909403,34.7628613,19.1,6.1,6.7
32474.512,30.9908880,34.7628930,6.5,6.2,6.7
32476.518,30.9908534,34.7630350,14.1,6.0,6.7
32485.521,30.9905877,34.7634916,52.6,6.1,6.5
32495.588,30.9902389,34.7638955,54.6,5.5,6.3
32504.512,30.9899113,34.7642231,47.9,5.3,6.1
32506.611,30.9897952,34.7642610,13.4,5.6,6.1
32507.668,30.9898078,34.7642959,3.6,5.4,6.1
32518.473,30.9894363,34.7646448,53.0,4.9,5.7
32523.479,30.9892382,34.7647688,25.0,4.9,5.6
32524.475,30.9892178,34.7648048,4.1,4.9,5.5
32530.459,30.9889520,34.7649872,34.2,5.4,5.5
32539.590,30.9885773,34.7653045,51.4,5.7,5.4
32549.650,30.9881869,34.7656130,52.4,5.2,5.3
32561.490,30.9878196,34.7659717,53.2,4.6,5.2
32572.486,30.9874996,34.7664130,55.1,5.0,5.1
32583.514,30.9871685,34.7668419,55.0,4.9,5.1
32588.570,30.9870423,34.7670133,21.5,4.8,5.0
32592.482,30.9869616,34.7672310,22.6,5.0,5.0
32601.732,30.9866397,34.7676032,50.4,5.6,5.0
32611.789,30.9863475,34.7680202,51.3,5.2,5.1
32620.496,30.9860303,34.7684242,52.2,5.7,5.3
32629.533,30.9856813,34.7688265,54.5,6.0,5.4
32639.480,30.9853454,34.7692426,54.5,5.5,5.5
32650.479,30.9849681,34.7696210,55.3,5.1,5.5
32660.482,30.9845920,34.7699859,54.3,5.5,5.5
32670.494,30.9842005,34.7703354,54.7,5.5,5.5
32681.475,30.9837899,34.7706684,55.5,5.1,5.4
32691.656,30.9833872,34.7709560,52.4,5.2,5.3
32700.662,30.9830509,34.7711970,43.8,4.9,5.2
32710.486,30.9826415,34.7714296,50.5,5.2,5.2
32713.488,30.9825288,34.7714926,13.9,4.8,5.1
32714.482,30.9824943,34.7715476,6.5,5.0,5.1
32716.492,30.9823853,34.7716005,13.1,5.4,5.2
32717.484,30.9823295,34.7715847,6.4,5.4,5.2
32723.527,30.9820354,34.7717501,36.2,6.2,5.3
32733.484,30.9815827,34.7719044,52.3,5.4,5.3
32740.676,30.9812793,34.7720413,36.1,5.0,5.3
32741.488,30.9812970,34.7720684,3.2,4.9,5.3
32749.494,30.9808443,34.7721859,51.4,6.2,5.5
32759.480,30.9803804,34.7723147,52.9,5.6,5.5
32768.504,30.9799284,34.7724447,51.6,5.8,5.6
32777.551,30.9794654,34.7724901,51.5,5.7,5.6
32786.555,30.9789839,34.7725277,53.5,5.9,5.6
32796.508,30.9785110,34.7725361,52.4,5.5,5.7
32805.488,30.9780401,34.7725644,52.3,5.8,5.8
32815.480,30.9775763,34.7725589,51.4,5.2,5.6
32826.547,30.9770848,34.7725639,54.5,4.9,5.5
32836.523,30.9766117,34.7725426,52.5,5.2,5.4
32846.516,30.9761464,34.7725440,51.6,5.2,5.3
32856.492,30.9756913,34.7725346,50.5,5.0,5.2
32867.500,30.9752114,34.7725268,53.2,4.9,5.0
32878.613,30.9747610,34.7724948,50.0,4.8,5.0
32888.629,30.9742969,34.7725038,51.5,5.2,5.0
32898.488,30.9738303,34.7724780,51.8,5.2,5.0
32908.496,30.9733558,34.7724651,52.6,5.3,5.1
32917.492,30.9728806,34.7724789,52.7,5.9,5.2
32928.590,30.9724779,34.7725551,45.2,4.1,5.0
32937.539,30.9720298,34.7727171,52.0,5.7,5.2
32939.660,30.9719304,34.7727335,11.1,5.6,5.2
32949.512,30.9715330,34.7729973,50.8,5.2,5.2
32959.504,30.9710981,34.7732705,54.8,5.4,5.3
32969.586,30.9706801,34.7735803,55.0,5.5,5.3
32979.668,30.9703081,34.7739196,52.5,5.2,5.2
32989.512,30.9699367,34.7742763,53.4,5.4,5.4
32998.520,30.9695724,34.7746034,51.1,5.7,5.4
33007.539,30.9692108,34.7749272,50.6,5.6,5.5
33017.512,30.9688026,34.7752613,55.4,5.6,5.5
33027.559,30.9683951,34.7755819,54.6,5.4,5.5
33037.496,30.9679908,34.7759142,54.9,5.5,5.5
33048.473,30.9675962,34.7762558,54.6,5.0,5.5
33059.543,30.9672179,34.7765739,51.8,4.7,5.3
33070.602,30.9668597,34.7769008,50.5,4.5,5.1
33077.527,30.9666470,34.7771098,30.9,4.4,5.0
33087.512,30.9662718,34.7774005,50.0,5.0,4.9
33098.547,30.9659255,34.7777461,50.6,4.6,4.7
33109.520,30.9655269,34.7780703,54.0,4.9,4.7
33120.637,30.9651532,34.7784026,52.2,4.7,4.7
33130.480,30.9648107,34.7787437,50.0,5.1,4.8
33140.535,30.9644430,34.7790882,52.4,5.2,4.9
33149.488,30.9641191,34.7794587,50.4,5.6,5.0
33152.496,30.9640188,34.7795573,14.6,5.5,5.0
33154.465,30.9639381,34.7796965,16.0,6.1,5.2
33162.535,30.9635923,34.7801045,54.7,7.1,5.4
33170.664,30.9632986,34.7805360,52.5,6.6,5.7
33178.582,30.9629922,34.7809284,50.6,6.4,5.9
33187.527,30.9626456,34.7813214,53.7,6.1,6.0
33196.512,30.9622629,34.7816383,52.1,6.0,6.1
33205.488,30.9618385,34.7819032,53.4,5.8,6.2
33206.492,30.9617774,34.7819350,7.4,6.0,6.3
33207.520,30.9617055,34.7819202,8.1,6.2,6.3
33209.543,30.9616280,34.7819453,8.9,6.0,6.2
33210.551,30.9614963,34.7819462,14.6,6.4,6.3
33216.500,30.9613325,34.7820589,21.1,5.4,6.1
33228.574,30.9608516,34.7822312,55.8,4.7,5.7
33239.535,30.9603864,34.7823659,53.2,4.9,5.4
33250.488,30.9599319,34.7825358,52.9,4.9,5.2
33261.570,30.9594878,34.7826994,51.7,4.7,5.0
33271.652,30.9590386,34.7828891,53.0,5.3,4.8
33280.691,30.9586086,34.7830708,50.7,5.6,5.0
33290.480,30.9581798,34.7832808,51.6,5.2,5.1
33301.527,30.9577555,34.7835049,51.7,4.7,5.0
33311.477,30.9573290,34.7836992,50.8,5.1,5.1
33321.723,30.9569079,34.7839193,51.2,5.0,5.1
33330.477,30.9564942,34.7841304,50.1,5.5,5.2
33341.688,30.9560387,34.7843679,55.4,5.0,5.1
33351.535,30.9555949,34.7845856,53.4,5.4,5.1
33361.613,30.9551442,34.7848008,54.0,5.4,5.3
33371.699,30.9547174,34.7850089,51.3,5.1,5.2
33381.754,30.9542691,34.7852070,53.2,5.3,5.3
33392.508,30.9538106,34.7853943,53.9,4.9,5.2
33403.496,30.9533444,34.7855402,53.5,4.9,5.2
33413.477,30.9529243,34.7857063,49.2,5.0,5.1
33423.723,30.9524649,34.7857870,51.5,5.1,5.0
33433.492,30.9520130,34.7858591,50.6,5.0,5.1
33443.480,30.9515337,34.7859176,53.4,5.5,5.1
33454.582,30.9510545,34.7860026,53.8,4.8,5.0
33464.457,30.9505604,34.7860694,55.1,5.5,5.2
33468.523,30.9503461,34.7861017,24.0,5.8,5.2
33478.492,30.9499282,34.7863351,51.4,5.3,5.3
33488.512,30.9495247,34.7865852,50.7,5.1,5.2
33498.555,30.9491082,34.7868494,52.6,5.2,5.3
33508.562,30.9486643,34.7871033,54.9,5.5,5.3
33518.582,30.9481954,34.7872886,54.9,5.5,5.4
33527.547,30.9477245,34.7874023,53.3,5.9,5.4
33537.492,30.9472606,34.7874253,51.5,5.5,5.4
33546.484,30.9467747,34.7874662,54.0,6.0,5.5
33555.461,30.9463182,34.7873873,51.2,5.8,5.6
33556.465,30.9462689,34.7873467,6.7,5.7,5.7
33565.461,30.9457812,34.7872516,54.8,6.2,5.8
33574.508,30.9452948,34.7871788,54.4,6.1,5.9
33583.480,30.9448423,34.7871096,50.6,5.7,5.8
33593.477,30.9444187,34.7870572,47.2,5.0,5.7
33599.543,30.9441734,34.7870205,27.4,4.5,5.6
33600.598,30.9441645,34.7869840,3.6,4.5,5.6
33610.570,30.9437850,34.7870076,42.1,4.3,5.3
33617.535,30.9434660,34.7868753,37.6,5.5,5.3
33618.555,30.9434136,34.7869068,6.5,5.6,5.3
33628.492,30.9429723,34.7867476,51.2,5.4,5.1
33637.520,30.9425434,34.7865733,50.4,5.5,5.1
33641.508,30.9422897,34.7864567,30.3,6.1,5.1
33644.477,30.9421621,34.7863582,17.0,6.6,5.2
33645.504,30.9421358,34.7863880,4.1,6.4,5.2
33650.559,30.9418858,34.7863590,27.9,6.0,5.3
33652.629,30.9418059,34.7863128,9.9,5.9,5.3
33662.656,30.9413450,34.7861960,52.3,5.3,5.4
33672.734,30.9408960,34.7860347,52.1,5.2,5.6
33678.461,30.9406330,34.7858787,32.8,5.2,5.5
33683.547,30.9403711,34.7857322,32.2,6.1,5.6
33684.523,30.9403669,34.7857485,1.6,5.8,5.6
33689.457,30.9401608,34.7856902,23.5,5.3,5.5
33695.539,30.9398290,34.7855038,40.9,5.9,5.7
33703.637,30.9393903,34.7853584,50.6,6.4,5.6
33712.691,30.9389201,34.7851992,54.3,6.2,5.7
33714.453,30.9388225,34.7851684,11.2,6.1,5.7
33719.551,30.9385871,34.7851234,26.4,5.9,5.8
33721.660,30.9384778,34.7850622,13.5,5.9,5.8
33726.492,30.9381980,34.7849995,31.6,6.0,5.9
33733.523,30.9379030,34.7848366,36.2,5.8,5.9
33734.477,30.9378267,34.7847577,11.3,6.1,6.0
33745.484,30.9373676,34.7846481,52.0,5.1,5.8
33755.457,30.9369114,34.7844741,53.2,5.5,5.7
33765.461,30.9364817,34.7842849,51.0,5.1,5.5
33774.801,30.9360551,34.7840776,51.3,5.5,5.5
33784.461,30.9356412,34.7838529,50.7,5.2,5.4
33792.547,30.9353163,34.7836479,41.0,5.0,5.3
33795.598,30.9351136,34.7835914,23.1,5.8,5.4
33796.488,30.9351328,34.7835679,3.1,5.6,5.3
33805.453,30.9347237,34.7833064,51.8,5.8,5.5
33813.801,30.9343133,34.7830974,49.7,6.0,5.6
33815.477,30.9342590,34.7830360,8.4,5.8,5.5
33823.539,30.9337952,34.7828387,54.8,6.4,5.8
33829.465,30.9334510,34.7826402,42.6,7.1,5.9
33831.477,30.9333041,34.7826052,16.6,7.3,6.0
33834.547,30.9331814,34.7824559,19.7,7.1,6.1
33840.539,30.9327707,34.7821980,51.8,8.0,6.4
33846.461,30.9323622,34.7819754,50.0,8.7,6.7
33851.625,30.9320688,34.7818249,35.6,7.4,6.9
33858.535,30.9316110,34.7815530,57.0,7.8,7.2
33860.598,30.9314444,34.7814910,19.4,8.3,7.3
33866.461,30.9310267,34.7812293,52.6,8.9,7.6
33872.465,30.9305828,34.7810247,53.0,8.9,7.9
33875.492,30.9304121,34.7808893,22.9,8.3,8.0
33877.539,30.9302430,34.7808774,18.8,8.6,8.1
33879.492,30.9300790,34.7808186,19.0,8.7,8.2
33880.473,30.9300001,34.7807386,11.6,9.0,8.2
33886.484,30.9295554,34.7804962,54.5,9.5,8.5
33892.574,30.9291396,34.7802201,53.1,8.8,8.6
33898.473,30.9287379,34.7799763,50.3,8.5,8.7
33904.695,30.9283081,34.7797396,52.8,9.0,8.7
33909.551,30.9280007,34.7795472,38.7,8.1,8.7
33912.727,30.9277503,34.7794656,28.8,8.4,8.8
33915.539,30.9275558,34.7793578,23.9,8.1,8.8
33918.492,30.9272305,34.7792619,37.2,9.7,9.0
33922.695,30.9269239,34.7790489,39.6,10.0,9.0
33928.461,30.9264737,34.7788256,54.3,9.4,9.0
33934.480,30.9259826,34.7785816,59.2,9.8,9.2
33940.555,30.9255318,34.7783304,55.4,9.5,9.2
33945.461,30.9250762,34.7781480,53.4,9.9,9.2
33950.590,30.9245847,34.7779611,57.3,11.1,9.5
33953.738,30.9242763,34.7779481,34.2,11.1,9.6
33959.500,30.9237710,34.7780697,57.2,10.3,9.7
33964.559,30.9233243,34.7781664,50.4,9.8,9.8
33970.508,30.9228408,34.7782853,54.8,9.5,10.0
33976.477,30.9223781,34.7784110,52.7,8.9,10.0
33982.531,30.9219078,34.7785388,53.6,8.8,9.7
33988.508,30.9214187,34.7786244,54.8,9.0,9.7
33994.641,30.9209460,34.7787075,53.0,9.0,9.6
34000.562,30.9204373,34.7788021,57.1,9.2,9.7
34005.750,30.9200403,34.7788664,44.4,9.1,9.5
34009.492,30.9197498,34.7789427,33.0,8.8,9.3
34015.488,30.9192539,34.7789256,55.0,9.1,9.1
34021.535,30.9187481,34.7788494,56.6,9.4,9.1
34023.469,30.9185278,34.7788245,24.5,10.1,9.2
34027.469,30.9181041,34.7787878,47.1,11.0,9.3
34030.547,30.9178756,34.7786377,29.1,11.1,9.4
34035.551,30.9174366,34.7785174,50.0,10.3,9.5
34040.527,30.9169909,34.7783987,50.7,10.0,9.6
34045.656,30.9165084,34.7782410,55.6,10.5,9.7
34049.469,30.9160617,34.7781212,50.8,11.6,10.0
34052.695,30.9157470,34.7779999,36.8,12.1,10.2
34053.531,30.9156919,34.7780170,6.3,11.7,10.1
34059.516,30.9151944,34.7778647,57.0,10.0,10.1
34064.770,30.9147417,34.7778125,50.4,9.7,10.2
34071.512,30.9142170,34.7777421,58.6,8.9,10.2
34077.477,30.9137479,34.7777590,52.0,8.6,10.2
34084.555,30.9132817,34.7777065,51.9,7.6,9.8
34091.637,30.9128034,34.7777480,53.2,7.7,9.4
34098.508,30.9123355,34.7778143,52.3,7.6,9.1
34105.488,30.9118709,34.7778610,51.7,7.6,8.8
34112.660,30.9114148,34.7779106,50.8,7.2,8.3
34120.484,30.9109194,34.7779596,55.1,6.9,7.8
34129.488,30.9104143,34.7780159,56.3,6.4,7.4
34137.504,30.9099392,34.7780763,53.0,6.4,7.1
34145.684,30.9094575,34.7781104,53.5,6.7,7.0
34154.723,30.9089691,34.7781652,54.4,6.2,6.8
34163.688,30.9084710,34.7782070,55.4,6.0,6.5
34173.473,30.9079883,34.7782537,53.7,5.4,6.3
34183.461,30.9075590,34.7783172,48.0,4.9,6.0
34184.578,30.9075487,34.7783410,2.5,4.5,5.9
34192.609,30.9072074,34.7783920,38.2,4.6,5.7
34195.523,30.9070730,34.7783681,15.1,4.9,5.6
34206.480,30.9066207,34.7783889,50.2,4.6,5.2
34217.559,30.9061418,34.7783957,53.1,4.7,5.0
34230.527,30.9056580,34.7784101,53.7,4.2,4.6
34242.480,30.9052050,34.7784768,50.6,4.3,4.5
34255.500,30.9047636,34.7786577,51.9,4.0,4.3
34269.523,30.9043425,34.7789081,52.5,3.6,4.1
34282.613,30.9039640,34.7792238,51.7,4.0,4.0
34295.520,30.9036685,34.7796352,51.2,4.0,4.0
34309.480,30.9033566,34.7800530,52.8,3.7,3.9
34323.527,30.9030772,34.7804689,50.4,3.5,3.8
34336.500,30.9027721,34.7808626,50.6,3.9,3.8
34351.504,30.9024367,34.7812217,50.6,3.2,3.7
34363.504,30.9020592,34.7815177,50.5,4.3,3.7
34377.484,30.9016373,34.7817031,50.0,3.7,3.7
34391.586,30.9011865,34.7818525,52.0,3.7,3.7
34405.496,30.9007165,34.7819248,52.6,3.8,3.7
34420.496,30.9002553,34.7819895,51.5,3.4,3.7
34433.652,30.8997947,34.7820373,51.3,4.0,3.7
34446.480,30.8993277,34.7820982,52.1,4.1,3.8
34458.531,30.8988659,34.7821573,51.5,4.4,3.9
34470.562,30.8983899,34.7822818,54.1,4.5,4.1
34481.598,30.8979515,34.7824863,52.4,4.8,4.3
34492.484,30.8975478,34.7827879,53.2,4.9,4.5
34503.531,30.8972084,34.7831687,52.4,4.8,4.6
34510.492,30.8970046,34.7833780,30.2,4.4,4.6
34522.555,30.8966948,34.7837754,51.2,4.2,4.6
34535.520,30.8963537,34.7841811,54.2,4.2,4.5
34547.574,30.8960302,34.7845695,51.6,4.3,4.4
34559.574,30.8957106,34.7849925,53.8,4.5,4.3
34571.586,30.8954448,34.7854686,54.2,4.5,4.3
34582.543,30.8951739,34.7858936,50.5,4.5,4.4
34592.516,30.8949353,34.7863935,54.6,5.5,4.6
34601.523,30.8947241,34.7868733,51.5,5.9,4.8
34610.539,30.8944902,34.7873971,56.4,6.1,5.1
34618.617,30.8942827,34.7878758,51.2,6.4,5.4
34627.523,30.8940460,34.7883642,53.6,6.1,5.6
34635.488,30.8937847,34.7888434,54.2,6.7,5.9
34643.520,30.8935302,34.7893043,52.3,6.7,6.1
34650.523,30.8933110,34.7896748,43.0,6.2,6.2
34651.531,30.8933089,34.7897463,6.8,6.4,6.3
34658.559,30.8929587,34.7901313,53.5,7.0,6.5
34666.520,30.8926278,34.7904912,50.3,6.6,6.5
34669.641,30.8925155,34.7906514,19.7,6.5,6.5
34678.609,30.8921427,34.7909781,51.8,5.9,6.5
34687.535,30.8917286,34.7912635,53.4,5.9,6.4
34689.605,30.8916574,34.7913051,8.8,5.7,6.4
34690.480,30.8916294,34.7913568,5.8,5.7,6.4
34698.488,30.8912726,34.7915373,43.2,5.3,6.2
34699.520,30.8912254,34.7915238,5.4,5.5,6.1
34701.543,30.8911232,34.7916006,13.5,5.7,6.2
34704.535,30.8909983,34.7916392,14.3,5.6,6.1
34708.527,30.8907778,34.7917982,28.8,6.2,6.1
34709.535,30.8907288,34.7917829,5.6,6.3,6.1
34717.520,30.8902870,34.7920032,53.3,6.8,6.1
34725.477,30.8898074,34.7921359,54.7,7.2,6.1
34732.727,30.8893507,34.7922233,51.3,7.2,6.2
34739.562,30.8888550,34.7922659,55.1,7.6,6.5
34746.484,30.8883801,34.7923010,52.8,7.7,6.7
34751.535,30.8880703,34.7923236,34.4,7.2,6.8
34752.543,30.8879912,34.7923539,9.2,7.3,6.9
34760.582,30.8874830,34.7923744,56.4,7.2,7.1
34766.520,30.8869932,34.7924217,54.5,8.5,7.4
34769.582,30.8867415,34.7924782,28.4,9.1,7.5
34775.512,30.8862155,34.7925472,58.7,9.4,7.8
34779.609,30.8858673,34.7926034,39.0,9.8,8.0
34784.793,30.8853451,34.7926260,57.9,10.9,8.4
34789.469,30.8848676,34.7926269,52.9,11.1,8.7
34792.516,30.8845807,34.7926688,32.1,11.0,8.9
34796.473,30.8842052,34.7928046,43.6,10.7,9.1
34800.504,30.8839027,34.7930189,39.3,10.4,9.2
34803.512,30.8836785,34.7932434,32.8,10.5,9.4
34804.504,30.8835755,34.7932936,12.4,10.7,9.5
34809.566,30.8833945,34.7937246,45.8,10.1,9.6
34812.602,30.8833366,34.7939208,19.8,8.8,9.6
34814.496,30.8832518,34.7939806,11.0,8.1,9.5
34815.484,30.8831938,34.7939816,6.4,7.6,9.5
34822.465,30.8827038,34.7938633,55.5,7.4,9.6
34824.750,30.8825599,34.7938033,16.9,7.7,9.5
34827.574,30.8823517,34.7937710,23.3,7.9,9.5
34833.465,30.8818578,34.7935831,57.6,8.9,9.5
34839.555,30.8814291,34.7934536,49.1,8.7,9.3
34845.535,30.8810441,34.7932516,46.9,7.8,8.9
34851.492,30.8806509,34.7929248,53.6,8.7,8.8
34858.559,30.8801951,34.7925524,61.8,9.1,8.6
34860.574,30.8800534,34.7924415,19.0,9.1,8.6
34861.582,30.8799972,34.7923664,9.5,9.0,8.5
34863.617,30.8798207,34.7922454,22.7,8.9,8.3
34865.523,30.8797821,34.7921884,6.9,8.7,8.3
34866.488,30.8796985,34.7921441,10.2,8.9,8.3
34873.699,30.8793496,34.7917763,52.3,7.2,8.3
34879.582,30.8789877,34.7913702,55.8,8.5,8.5
34880.641,30.8789121,34.7912481,14.4,9.1,8.6
34881.672,30.8788731,34.7912519,4.3,9.1,8.6
34887.531,30.8784909,34.7908480,57.3,9.4,8.7
34893.469,30.8781214,34.7904656,54.9,9.5,8.7
34899.477,30.8777566,34.7901180,52.4,9.0,8.7
34905.512,30.8773889,34.7897732,52.4,8.7,8.8
34911.582,30.8770959,34.7893957,48.6,8.4,8.7
34914.664,30.8768861,34.7891630,32.2,8.9,8.9
34921.648,30.8765961,34.7886631,57.6,9.0,8.7
34928.527,30.8762691,34.7881948,57.6,8.2,8.8
34934.836,30.8760049,34.7877564,51.1,8.1,8.8
34935.543,30.8759626,34.7876898,7.9,8.3,8.8
34937.488,30.8759224,34.7875577,13.4,8.1,8.7
34944.504,30.8756323,34.7871103,53.5,7.9,8.5
34952.527,30.8753823,34.7867167,46.7,6.2,8.1
34953.531,30.8753727,34.7866720,4.4,5.9,8.0
34983.527,30.8752818,34.7862621,40.5,1.0,4.6
34997.586,30.8753348,34.7862740,6.0,1.1,2.8
35004.531,30.8752537,34.7862999,9.3,1.4,2.1
35036.535,30.8752125,34.7861842,12.0,0.7,0.8
35194.559,30.8754877,34.7865566,46.9,0.2,0.3
35225.758,30.8755141,34.7865139,5.0,0.5,0.1
35320.496,30.8754890,34.7865418,3.9,0.4,0.1
35382.535,30.8755054,34.7865414,1.8,0.4,0.1
35393.578,30.8754541,34.7864914,7.4,0.8,0.2
35412.684,30.8754976,34.7864965,4.9,0.5,0.4
35435.484,30.8754566,34.7865579,7.4,0.3,0.5
35452.676,30.8754070,34.7865263,6.3,0.9,0.6
35504.711,30.8754825,34.7865807,9.9,0.4,0.3
35518.523,30.8753720,34.7865906,12.3,1.3,0.4
35555.688,30.8754575,34.7865417,10.6,0.6,0.8
35574.508,30.8754965,34.7864690,8.2,0.7,0.7
35602.668,30.8753811,34.7866372,20.5,2.0,0.8
35653.711,30.8755647,34.7865349,22.6,0.8,0.7
35710.570,30.8755649,34.7865659,3.0,0.1,0.3
35750.574,30.8754805,34.7865490,9.5,0.2,0.3
35807.809,30.8754964,34.7865414,1.9,0.4,0.2
35829.480,30.8753088,34.7865516,20.8,1.8,0.5
35841.648,30.8750088,34.7861341,52.0,4.5,1.3
35843.672,30.8749477,34.7860596,9.8,4.8,1.5
35844.711,30.8748407,34.7860205,12.4,5.6,1.7
35853.695,30.8744914,34.7856022,55.7,6.9,2.6
35862.480,30.8741396,34.7852327,52.6,6.0,3.5
35869.477,30.8738912,34.7849872,36.2,5.5,4.0
35870.512,30.8738395,34.7849774,5.8,5.4,4.1
35883.586,30.8735046,34.7846089,51.2,3.9,4.9
35895.691,30.8731613,34.7842657,50.3,4.1,5.1
35906.473,30.8727782,34.7839371,52.8,4.9,4.9
35917.555,30.8724293,34.7835818,51.5,4.7,4.7
35930.523,30.8720593,34.7832181,53.8,4.0,4.4
35941.613,30.8717206,34.7828561,51.1,4.6,4.5
35959.531,30.8713626,34.7824768,53.8,3.0,4.1
35971.520,30.8709963,34.7821226,52.9,4.6,4.0
35984.492,30.8706350,34.7817574,53.1,4.1,4.0
35989.562,30.8704493,34.7816151,24.7,4.6,4.0
35991.582,30.8703060,34.7815669,16.6,5.4,4.2
35992.652,30.8703191,34.7815484,2.3,5.2,4.1
36004.750,30.8699569,34.7811487,55.4,4.7,4.2
36013.500,30.8696967,34.7808695,39.3,4.5,4.4
36016.504,30.8695693,34.7807804,16.5,4.9,4.6
36017.512,30.8696010,34.7807542,4.3,4.8,4.6
36020.484,30.8695228,34.7806961,10.3,4.5,4.6
36034.652,30.8690856,34.7804298,54.8,4.5,4.5
36045.723,30.8686620,34.7801500,54.0,4.9,4.6
36056.543,30.8682407,34.7798739,53.7,5.0,4.6
36060.500,30.8680860,34.7797694,19.9,5.0,4.6
36065.547,30.8678469,34.7796765,28.0,5.2,4.7
36075.547,30.8674739,34.7793849,49.9,5.1,4.7
36085.691,30.8670274,34.7791170,55.7,5.5,5.1
36089.480,30.8668807,34.7790520,17.4,5.2,5.1
36100.504,30.8664813,34.7787532,52.7,4.9,5.1
36111.508,30.8660851,34.7784744,51.4,4.7,5.0
36118.477,30.8658162,34.7782681,35.8,4.7,5.1
36119.574,30.8657718,34.7782791,5.0,4.8,5.1
36121.531,30.8657133,34.7782166,8.8,5.0,5.0
36126.586,30.8654774,34.7780931,28.7,5.3,5.0
36135.676,30.8650787,34.7778269,51.0,5.7,5.1
36145.785,30.8646700,34.7775525,52.4,5.2,5.1
36150.539,30.8645051,34.7774011,23.3,5.0,5.1
36159.477,30.8640822,34.7771635,52.1,5.6,5.2
36166.551,30.8637576,34.7769495,41.4,5.7,5.4
36167.531,30.8637601,34.7769100,3.8,5.6,5.4
36172.570,30.8635873,34.7767657,23.6,5.3,5.4
36183.484,30.8631361,34.7765032,56.0,5.2,5.4
36194.703,30.8627131,34.7762139,54.4,5.2,5.3
36200.551,30.8624865,34.7760203,31.2,5.5,5.3
36204.488,30.8622881,34.7759196,24.0,5.6,5.3
36205.512,30.8622165,34.7759097,8.0,5.6,5.4
36206.484,30.8622002,34.7758652,4.6,5.6,5.4
36210.496,30.8620103,34.7757450,24.0,5.9,5.4
36217.523,30.8617735,34.7755329,33.2,5.1,5.3
36222.539,30.8615409,34.7753999,28.8,5.4,5.3
36225.637,30.8614348,34.7752795,16.5,5.5,5.3
36234.680,30.8609800,34.7750442,55.2,5.5,5.4
36236.715,30.8609391,34.7750173,5.2,5.2,5.4
36238.539,30.8608968,34.7749368,9.0,5.0,5.4
36239.508,30.8608351,34.7749191,7.0,5.2,5.4
36245.777,30.8606790,34.7748006,20.7,5.0,5.4
36246.508,30.8606652,34.7747412,5.9,5.2,5.5
36248.500,30.8605496,34.7747381,12.8,5.5,5.5
36252.539,30.8604203,34.7746323,17.5,5.4,5.4
36257.512,30.8601277,34.7745205,34.1,5.7,5.5
36259.508,30.8601300,34.7744763,4.2,5.2,5.5
36260.484,30.8601008,34.7744256,5.8,5.3,5.5
36272.574,30.8596758,34.7741695,53.1,4.3,5.2
36285.766,30.8592510,34.7739423,51.9,3.9,4.9
36295.773,30.8587528,34.7736646,61.3,6.2,5.0
36296.828,30.8587281,34.7736140,5.6,6.4,5.0
36304.543,30.8583372,34.7733223,51.5,6.8,5.2
36313.500,30.8579877,34.7731522,42.0,5.3,5.1
36324.652,30.8575652,34.7728248,56.3,4.9,5.1
36329.500,30.8573297,34.7726706,30.0,5.2,5.3
36332.637,30.8571846,34.7726148,16.9,5.7,5.3
36341.613,30.8567976,34.7723460,50.0,5.6,5.5
36344.746,30.8566706,34.7722759,15.6,5.4,5.6
36354.520,30.8562825,34.7719558,52.8,5.5,5.6
36361.496,30.8560065,34.7717317,37.4,5.3,5.3
36362.492,30.8559671,34.7716743,7.0,5.5,5.4
36367.562,30.8557656,34.7715602,24.9,5.1,5.3
36369.492,30.8557313,34.7714613,10.2,5.2,5.4
36370.520,30.8556281,34.7714539,11.5,5.9,5.5
36376.648,30.8553459,34.7712378,37.5,6.5,5.6
36380.516,30.8552277,34.7709924,26.9,6.9,5.7
36381.590,30.8551798,34.7709451,7.0,6.7,5.7
36382.629,30.8551509,34.7709686,3.9,6.4,5.7
36383.660,30.8550673,34.7709591,9.3,6.8,5.8
36393.688,30.8546779,34.7706393,52.9,5.3,5.7
36402.547,30.8543174,34.7703225,50.2,5.3,5.7
36405.512,30.8541763,34.7702303,18.0,5.9,5.8
36414.547,30.8537909,34.7699214,51.9,6.0,5.9
36416.566,30.8537116,34.7698412,11.7,5.9,5.8
36418.516,30.8535976,34.7697928,13.5,6.0,5.9
36420.512,30.8535531,34.7697020,10.0,6.0,5.9
36429.484,30.8532056,34.7693956,48.4,5.4,5.9
36431.582,30.8530949,34.7693399,13.4,5.7,5.9
36434.703,30.8530048,34.7692420,13.7,5.7,5.8
36443.551,30.8525937,34.7689716,52.4,5.8,5.7
36448.539,30.8523908,34.7688699,24.5,5.3,5.6
36457.484,30.8519611,34.7686265,53.0,5.7,5.7
36464.562,30.8516013,34.7684170,44.6,6.2,5.8
36469.547,30.8513098,34.7682960,34.3,6.7,5.9
36470.531,30.8512969,34.7682354,6.0,6.6,5.9
36479.551,30.8509063,34.7678899,54.5,6.1,5.9
36484.727,30.8506715,34.7676412,35.3,6.7,6.1
36487.500,30.8505983,34.7674721,18.1,6.7,6.1
36495.520,30.8502366,34.7670992,53.7,6.7,6.2
36503.496,30.8499590,34.7666862,50.1,6.4,6.3
36510.516,30.8497716,34.7663115,41.4,6.2,6.3
36517.578,30.8495003,34.7658816,50.9,6.9,6.5
36518.516,30.8495524,34.7658350,7.3,6.9,6.5
36521.562,30.8494378,34.7656655,20.6,7.1,6.6
36524.707,30.8494338,34.7655270,13.3,6.2,6.5
36532.656,30.8491690,34.7650603,53.4,6.2,6.5
36542.492,30.8489778,34.7645419,53.9,5.8,6.4
36551.512,30.8487949,34.7640210,53.8,6.0,6.2
36554.488,30.8487766,34.7638663,14.9,5.4,6.2
36562.613,30.8486343,34.7633763,49.5,6.0,6.1
36563.574,30.8486489,34.7633361,4.2,5.9,6.1
36567.629,30.8485349,34.7630861,27.0,6.4,6.1
36568.520,30.8485397,34.7630303,5.4,6.2,6.1
36577.711,30.8483497,34.7625297,52.3,5.8,6.0
36586.766,30.8481690,34.7620215,52.6,5.8,5.9
36590.504,30.8481214,34.7617696,24.7,6.1,5.9
36599.602,30.8479646,34.7612615,51.6,5.9,5.9
36609.531,30.8477989,34.7607468,52.6,5.3,5.8
36611.512,30.8477497,34.7606096,14.2,5.6,5.8
36616.648,30.8477472,34.7603622,23.7,5.4,5.8
36618.543,30.8477103,34.7602777,9.1,5.4,5.7
36629.496,30.8478217,34.7597356,53.3,4.9,5.5
36639.504,30.8480003,34.7592202,53.1,5.4,5.4
36647.582,30.8483023,34.7587685,54.7,6.5,5.5
36656.590,30.8485186,34.7582982,51.0,5.9,5.5
36666.555,30.8486759,34.7577915,51.5,5.1,5.5
36675.746,30.8487801,34.7572779,50.5,5.6,5.5
36679.527,30.8488396,34.7569576,31.3,6.7,5.7
36680.594,30.8488710,34.7568943,7.0,7.0,5.7
36688.566,30.8488980,34.7562941,57.5,7.3,6.1
36695.629,30.8489506,34.7557356,53.7,7.7,6.3
36701.555,30.8489398,34.7552251,48.9,8.0,6.6
36707.555,30.8489325,34.7546662,53.5,8.7,6.8
36708.500,30.8489274,34.7545713,9.1,8.9,6.8
36714.625,30.8487851,34.7540842,49.2,8.4,7.1
36719.516,30.8486087,34.7537079,41.0,8.1,7.3
36725.707,30.8482889,34.7532520,56.2,8.9,7.8
36729.535,30.8480719,34.7530085,33.5,9.0,8.0
36731.539,30.8479500,34.7529176,16.1,8.8,8.0
36732.480,30.8479128,34.7528210,10.1,9.0,8.1
36736.777,30.8477023,34.7525647,33.8,8.6,8.2
36743.555,30.8474359,34.7520755,55.3,8.1,8.3
36744.547,30.8473993,34.7520012,8.2,8.1,8.3
36745.496,30.8474015,34.7518834,11.3,8.4,8.4
36751.516,30.8472735,34.7513503,52.9,8.7,8.5
36756.559,30.8472381,34.7508246,50.4,9.5,8.7
36758.582,30.8472144,34.7506357,18.3,9.4,8.8
36764.609,30.8472323,34.7500397,57.0,9.5,8.8
36766.672,30.8472288,34.7498193,21.1,9.6,8.9
36768.684,30.8471800,34.7496355,18.4,9.6,8.9
36769.508,30.8471796,34.7495197,11.1,9.9,8.9
36771.520,30.8471179,34.7493262,19.7,9.9,9.0
36774.656,30.8470920,34.7490267,28.8,9.9,9.1
36777.684,30.8469647,34.7487143,33.0,10.2,9.2
36778.504,30.8469632,34.7485332,17.3,11.0,9.4
36780.504,30.8468779,34.7483177,22.7,11.2,9.5
36781.516,30.8468599,34.7482063,10.8,11.1,9.5
36782.504,30.8468040,34.7481259,9.9,11.2,9.5
36783.527,30.8467790,34.7479917,13.1,11.6,9.6
36789.551,30.8465463,34.7474248,60.1,10.7,9.7
36793.488,30.8463209,34.7470670,42.4,10.5,9.8
36794.516,30.8463184,34.7469837,8.0,10.0,9.8
36798.480,30.8461442,34.7466842,34.6,9.9,9.8
36800.523,30.8460928,34.7465015,18.4,9.4,9.9
36801.492,30.8460173,34.7464303,10.8,9.5,9.9
36807.594,30.8457858,34.7459786,50.3,8.7,9.9
36813.578,30.8455189,34.7455127,53.5,8.7,9.8
36819.516,30.8452600,34.7450564,52.2,9.1,9.8
36824.520,30.8449481,34.7446638,51.1,9.5,9.8
36828.742,30.8446946,34.7443612,40.3,9.8,9.8
36831.484,30.8444864,34.7441816,28.8,10.0,9.8
36834.574,30.8442654,34.7439291,34.4,10.3,9.9
36840.496,30.8438200,34.7436089,58.1,10.3,9.7
36844.500,30.8435080,34.7433968,40.1,10.0,9.6
36846.480,30.8433437,34.7433252,19.5,9.7,9.5
36849.547,30.8430400,34.7431485,37.7,10.7,9.7
36850.531,30.8429959,34.7431882,6.2,10.3,9.6
36856.586,30.8425686,34.7430005,50.7,9.4,9.5
36864.578,30.8421184,34.7427831,54.1,6.8,9.2
36867.684,30.8419508,34.7426954,20.4,6.9,9.1
36870.520,30.8417675,34.7426472,20.8,6.8,9.1
36871.527,30.8417558,34.7426111,3.7,6.3,9.0
36875.664,30.8415269,34.7425345,26.4,6.4,8.8
36876.742,30.8415109,34.7424939,4.3,6.1,8.8
36885.484,30.8410831,34.7423190,50.3,5.7,8.2
36892.496,30.8406590,34.7421179,50.8,6.3,7.9
36902.496,30.8402112,34.7419262,52.9,5.3,7.0
36911.496,30.8397927,34.7417684,48.8,5.5,6.3
36912.523,30.8397450,34.7417715,5.3,5.4,6.2
36920.516,30.8393920,34.7416042,42.3,5.3,5.9
36922.496,30.8393094,34.7415869,9.3,5.2,5.8
36933.570,30.8388846,34.7413322,53.0,4.9,5.6
36943.480,30.8384176,34.7411294,55.3,5.8,5.5
36952.492,30.8379376,34.7409166,57.0,6.4,5.4
36960.480,30.8375115,34.7407440,50.0,6.3,5.6
36971.477,30.8370485,34.7405250,55.4,5.1,5.5
36979.484,30.8366075,34.7403048,53.2,6.4,5.7
36987.480,30.8361663,34.7400774,53.5,7.3,6.0
36997.539,30.8357292,34.7398817,51.9,5.2,5.9
37005.629,30.8353874,34.7397076,41.4,5.0,5.8
37006.605,30.8353610,34.7397202,3.2,4.9,5.8
37011.555,30.8352129,34.7394694,29.1,5.2,5.8
37012.504,30.8352570,34.7393812,9.8,5.7,5.8
37013.547,30.8352313,34.7393171,6.8,5.8,5.8
37015.656,30.8352310,34.7392147,9.8,5.9,5.8
37020.559,30.8353743,34.7389877,26.9,6.0,5.7
37031.520,30.8354619,34.7384736,50.1,4.6,5.6
37043.527,30.8354843,34.7378993,55.0,4.6,5.2
37053.590,30.8355182,34.7373216,55.4,5.5,5.1
37059.508,30.8354267,34.7369374,38.1,6.2,5.3
37062.484,30.8353125,34.7367256,23.9,7.0,5.4
37063.574,30.8353167,34.7366634,6.0,6.8,5.4
37065.680,30.8352451,34.7365498,13.5,6.9,5.5
37068.746,30.8352059,34.7363583,18.8,6.8,5.6
37069.500,30.8351581,34.7363054,7.3,7.0,5.6
37072.566,30.8351097,34.7361264,17.9,6.4,5.5
37079.508,30.8348794,34.7357720,42.4,5.9,5.6
37082.492,30.8348700,34.7356887,8.0,5.4,5.5
37084.484,30.8348091,34.7356591,7.3,5.2,5.5
37134.508,30.8346399,34.7354266,29.1,0.6,1.9
37138.461,30.8346413,34.7354249,0.2,0.4,1.6
</abvio:coordinateTable>
<abvio:altitudeTable>
6.387,-17.0,0.0,0.000,-17.0
11.803,6.0,0.0,0.000,6.0
27.296,10.0,0.0,1.827,10.0
37.303,14.0,0.0,0.400,14.0
43.265,13.0,0.0,0.091,13.0
59.323,14.0,0.0,0.199,14.0
65.320,16.0,0.0,0.273,16.0
71.335,15.0,0.0,0.000,10.5
82.334,19.0,0.0,0.364,13.2
93.353,18.0,0.0,-0.100,15.3
104.291,21.0,0.0,0.274,16.5
109.338,24.0,0.0,0.398,17.3
115.332,22.0,0.0,0.199,18.3
121.328,22.0,0.0,-0.100,19.1
131.355,25.0,0.0,0.299,20.4
137.359,23.0,0.0,-0.100,21.2
143.331,20.0,0.0,-0.499,21.5
149.278,17.0,0.0,-0.458,21.3
160.304,14.0,0.0,-0.200,20.7
166.362,13.0,0.0,-0.297,20.0
172.350,12.0,0.0,-0.199,19.0
177.478,12.0,0.0,-0.099,18.2
205.348,9.0,0.0,-0.298,13.0
216.361,7.0,0.0,-0.200,11.3
222.312,9.0,0.0,0.199,10.7
227.481,8.0,0.0,0.000,10.3
244.262,5.0,0.0,-0.275,9.0
249.330,6.0,0.0,-0.199,8.5
255.289,10.0,0.0,0.499,8.2
265.387,14.0,0.0,0.396,8.4
271.275,11.0,0.0,0.000,8.7
282.284,14.0,0.0,0.273,9.6
287.362,14.0,0.0,0.199,10.1
293.298,17.0,0.0,0.272,11.0
298.325,15.0,0.0,-0.100,11.6
304.263,13.0,0.0,-0.365,12.3
309.309,14.0,0.0,-0.091,12.9
320.328,11.0,0.0,-0.398,13.5
325.414,12.0,0.0,0.000,13.4
336.489,14.0,0.0,0.199,13.6
342.359,12.0,0.0,0.000,13.4
348.289,12.0,0.0,-0.186,13.3
358.376,11.0,0.0,-0.099,12.4
364.423,8.0,0.0,-0.298,12.0
375.424,9.0,0.0,0.091,11.0
381.298,10.0,0.0,0.199,10.9
387.354,10.0,0.0,0.099,10.7
398.310,13.0,0.0,0.274,10.4
410.302,16.0,0.0,0.300,10.8
415.398,16.0,0.0,0.199,11.2
421.306,19.0,0.0,0.273,11.8
426.476,19.0,0.0,0.199,12.8
432.302,20.0,0.0,0.100,13.9
443.278,18.0,0.0,-0.182,15.6
448.404,19.0,0.0,0.000,16.4
466.429,22.0,0.0,0.396,18.2
472.310,21.0,0.0,0.199,18.7
477.481,21.0,0.0,-0.100,19.2
494.355,18.0,0.0,-0.299,19.4
500.284,19.0,0.0,0.000,19.4
505.345,26.0,0.0,0.728,19.7
511.352,22.0,0.0,0.199,20.3
516.398,22.0,0.0,-0.199,20.7
522.355,21.0,0.0,-0.100,21.0
534.293,23.0,0.0,0.183,21.2
539.327,25.0,0.0,0.300,21.5
545.358,26.0,0.0,0.199,21.9
556.366,28.0,0.0,0.100,23.4
562.272,30.0,0.0,0.273,24.4
567.392,30.0,0.0,0.100,24.9
583.337,32.0,0.0,0.199,27.0
589.268,30.0,0.0,0.000,28.2
599.295,34.0,0.0,0.399,29.7
604.321,33.0,0.0,0.100,30.5
642.303,33.0,0.0,0.182,32.2
652.372,34.0,0.0,0.099,32.4
681.340,31.0,0.0,-0.298,32.8
692.339,29.0,0.0,-0.200,32.6
698.303,27.0,0.0,-0.273,32.3
703.336,27.0,0.0,-0.182,31.8
714.341,23.0,0.0,-0.299,30.3
719.437,23.0,0.0,-0.181,29.3
725.306,22.0,0.0,-0.091,28.3
736.342,25.0,0.0,0.300,26.3
747.323,29.0,0.0,0.299,25.6
752.381,29.0,0.0,0.100,25.6
786.304,27.0,0.0,-0.182,27.9
791.339,28.0,0.0,-0.100,28.5
797.285,29.0,0.0,0.182,28.8
802.377,28.0,0.0,0.000,29.0
808.383,27.0,0.0,-0.199,29.0
819.399,26.0,0.0,-0.091,28.4
825.307,25.0,0.0,-0.183,27.9
831.354,25.0,0.0,0.000,27.5
841.381,23.0,0.0,-0.199,26.7
847.317,21.0,0.0,-0.399,26.2
852.398,21.0,0.0,-0.199,25.6
858.326,21.0,0.0,0.000,24.9
897.353,18.0,0.0,-0.100,20.4
930.266,16.0,0.0,-0.182,18.4
935.336,18.0,0.0,0.099,18.1
941.296,15.0,0.0,-0.199,17.9
946.339,14.0,0.0,-0.397,17.3
951.348,15.0,0.0,0.000,17.0
994.347,12.0,0.0,-0.299,14.9
1000.333,13.0,0.0,0.000,14.4
1005.467,13.0,0.0,0.198,14.4
1011.427,12.0,0.0,-0.199,14.2
1016.566,13.0,0.0,0.000,14.0
1028.302,15.0,0.0,0.181,13.5
1040.310,16.0,0.0,0.100,13.6
1051.266,14.0,0.0,-0.182,13.7
1056.487,15.0,0.0,0.000,14.0
1062.432,17.0,0.0,0.398,14.3
1068.320,17.0,0.0,0.100,14.6
1074.544,18.0,0.0,0.199,15.2
1080.290,17.0,0.0,0.000,15.6
1090.314,15.0,0.0,-0.199,16.1
1100.339,15.0,0.0,0.000,16.0
1133.352,16.0,0.0,-0.298,16.2
1139.348,15.0,0.0,-0.199,16.1
1144.375,17.0,0.0,0.100,15.9
1150.309,14.0,0.0,-0.091,15.9
1155.485,15.0,0.0,-0.199,15.9
1167.301,12.0,0.0,0.000,15.4
1178.274,15.0,0.0,0.273,15.0
1183.284,14.0,0.0,0.100,14.8
1193.386,16.0,0.0,0.198,14.1
1204.496,16.0,0.0,0.000,14.2
1210.299,18.0,0.0,0.182,14.4
1215.530,19.0,0.0,0.293,14.7
1221.292,18.0,0.0,0.000,15.1
1227.280,15.0,0.0,-0.200,15.5
1232.293,15.0,0.0,-0.399,15.7
1238.268,16.0,0.0,0.091,15.9
1260.276,17.0,0.0,0.182,16.4
1277.268,21.0,0.0,0.273,16.8
1282.310,20.0,0.0,0.100,17.0
1292.405,18.0,0.0,-0.198,17.8
1297.512,19.0,0.0,-0.296,18.1
1303.443,22.0,0.0,0.362,18.7
1314.499,23.0,0.0,0.100,19.9
1320.282,26.0,0.0,0.400,20.7
1331.322,26.0,0.0,0.000,22.3
1342.345,28.0,0.0,0.181,23.7
1348.262,29.0,0.0,0.091,24.4
1359.293,26.0,0.0,-0.299,26.1
1370.287,27.0,0.0,0.100,26.9
1383.380,25.0,0.0,-0.199,27.2
1389.318,26.0,0.0,0.000,27.1
1394.410,27.0,0.0,0.200,27.2
1400.269,27.0,0.0,0.091,27.2
1416.367,29.0,0.0,0.185,26.6
1427.419,29.0,0.0,0.000,27.0
1433.421,27.0,0.0,-0.198,27.1
1439.355,30.0,0.0,0.099,27.5
1455.291,28.0,0.0,-0.184,28.3
1460.335,28.0,0.0,-0.100,28.3
1466.272,25.0,0.0,-0.273,28.4
1471.273,26.0,0.0,-0.183,28.4
1476.296,23.0,0.0,-0.200,28.1
1481.382,23.0,0.0,-0.297,27.6
1487.289,22.0,0.0,-0.091,27.0
1492.338,20.0,0.0,-0.274,26.4
1497.513,20.0,0.0,-0.196,25.6
1503.394,19.0,0.0,-0.100,24.6
1509.335,16.0,0.0,-0.298,23.5
1515.342,19.0,0.0,0.000,22.5
1521.284,19.0,0.0,0.273,21.8
1526.344,18.0,0.0,-0.300,20.8
1532.382,15.0,0.0,-0.399,19.9
1537.432,17.0,0.0,-0.099,19.2
1543.369,17.0,0.0,0.182,18.6
1548.549,14.0,0.0,-0.198,18.0
1554.424,11.0,0.0,-0.600,17.2
1566.298,12.0,0.0,0.093,15.6
1571.301,14.0,0.0,0.364,15.3
1582.320,17.0,0.0,0.300,14.6
1594.414,21.0,0.0,0.362,15.0
1600.292,22.0,0.0,0.181,15.4
1605.468,19.0,0.0,-0.100,15.6
1611.299,20.0,0.0,-0.182,16.1
1616.353,20.0,0.0,0.100,16.8
1622.308,22.0,0.0,0.200,17.8
1633.358,18.0,0.0,-0.399,19.4
1644.460,12.0,0.0,-0.498,19.3
1649.613,14.0,0.0,-0.198,18.8
1655.303,15.0,0.0,0.276,18.2
1661.286,10.0,0.0,-0.300,17.5
1672.296,10.0,0.0,0.000,15.9
1700.270,13.0,0.0,0.091,12.1
1705.303,14.0,0.0,0.184,12.1
1710.310,12.0,0.0,-0.100,12.2
1737.397,11.0,0.0,-0.198,12.5
1743.356,11.0,0.0,-0.090,12.5
1766.338,9.0,0.0,-0.181,11.7
1776.445,8.0,0.0,-0.099,10.9
1787.524,5.0,0.0,-0.298,9.7
1798.326,5.0,0.0,0.000,8.5
1815.334,7.0,0.0,0.199,6.9
1832.334,10.0,0.0,0.199,6.7
1848.348,13.0,0.0,0.200,7.9
1865.330,16.0,0.0,0.200,10.6
1871.315,16.0,0.0,0.100,11.6
1893.325,13.0,0.0,-0.182,14.1
1899.316,13.0,0.0,-0.093,14.2
1915.308,11.0,0.0,-0.200,14.1
1932.290,8.0,0.0,-0.200,12.6
1943.322,7.0,0.0,-0.100,11.0
1977.446,10.0,0.0,0.198,8.1
1983.319,10.0,0.0,0.091,8.1
1995.323,12.0,0.0,0.182,8.6
2007.328,13.0,0.0,0.100,9.7
2023.324,15.0,0.0,0.182,11.5
2028.493,15.0,0.0,0.099,12.1
2034.345,17.0,0.0,0.200,12.8
2045.291,18.0,0.0,0.091,14.1
2077.429,21.0,0.0,0.199,17.8
2082.563,20.0,0.0,0.000,18.3
2099.331,22.0,0.0,0.184,19.6
2104.336,22.0,0.0,0.100,19.9
2132.536,28.0,0.0,0.594,21.5
2144.296,27.0,0.0,-0.091,22.9
2155.293,29.0,0.0,0.182,24.4
2160.367,28.0,0.0,0.000,25.0
2177.352,27.0,0.0,-0.199,26.8
2183.321,28.0,0.0,0.092,27.3
2194.279,26.0,0.0,-0.183,28.0
2199.291,26.0,0.0,-0.092,27.8
2227.344,23.0,0.0,-0.453,27.2
2239.443,23.0,0.0,0.100,26.2
2245.338,26.0,0.0,0.398,25.9
2251.319,25.0,0.0,0.092,25.8
2262.373,28.0,0.0,0.397,25.6
2268.344,25.0,0.0,-0.100,25.6
2273.480,24.0,0.0,-0.395,25.3
2279.416,24.0,0.0,0.000,24.9
2296.299,22.0,0.0,-0.200,24.6
2302.286,25.0,0.0,0.200,24.6
2307.346,25.0,0.0,0.299,24.5
2312.379,25.0,0.0,0.000,24.5
2329.406,21.0,0.0,-0.271,23.9
2335.318,23.0,0.0,-0.185,23.8
2340.355,23.0,0.0,0.183,23.7
2345.366,28.0,0.0,0.498,24.0
2351.362,20.0,0.0,-0.273,23.8
2362.400,21.0,0.0,0.099,23.3
2373.521,18.0,0.0,-0.198,22.1
2379.411,20.0,0.0,0.200,21.6
2385.276,24.0,0.0,0.546,21.4
2391.275,20.0,0.0,-0.092,21.2
2397.285,18.0,0.0,-0.300,20.8
2402.306,19.0,0.0,-0.100,20.4
2408.323,17.0,0.0,-0.199,19.6
2413.417,18.0,0.0,-0.099,19.4
2424.529,20.0,0.0,0.198,19.1
2430.422,22.0,0.0,0.362,19.3
2436.275,25.0,0.0,0.455,19.8
2447.277,25.0,0.0,0.000,20.6
2458.309,23.0,0.0,-0.299,21.6
2469.360,21.0,0.0,-0.181,22.2
2474.538,24.0,0.0,0.099,22.7
2480.407,24.0,0.0,0.272,23.2
2486.271,25.0,0.0,0.182,23.7
2496.302,25.0,0.0,0.000,24.3
2512.471,20.0,0.0,-0.395,23.7
2523.589,20.0,0.0,0.000,23.2
2529.353,23.0,0.0,0.183,23.2
2535.286,26.0,0.0,0.467,23.4
2540.282,24.0,0.0,0.091,23.5
2551.344,26.0,0.0,0.199,23.6
2557.310,26.0,0.0,0.000,23.5
2562.501,23.0,0.0,-0.296,23.6
2568.309,25.0,0.0,-0.200,23.7
2573.536,27.0,0.0,0.299,24.1
2579.288,33.0,0.0,0.600,25.9
2595.280,35.0,0.0,0.200,28.0
2600.344,36.0,0.0,0.099,28.8
2617.310,39.0,0.0,0.199,31.9
2622.522,42.0,0.0,0.597,33.4
2633.281,48.0,0.0,0.400,38.3
2643.287,48.0,0.0,0.100,39.5
2660.389,49.0,0.0,0.200,43.4
2666.278,50.0,0.0,0.276,44.7
2671.452,48.0,0.0,-0.090,45.5
2688.278,47.0,0.0,-0.300,48.1
2693.301,48.0,0.0,-0.100,48.2
2704.414,44.0,0.0,-0.297,47.9
2710.396,44.0,0.0,-0.100,47.6
2721.441,42.0,0.0,-0.200,46.9
2733.278,43.0,0.0,0.093,45.6
2744.330,44.0,0.0,0.199,44.5
2750.391,42.0,0.0,-0.099,44.0
2755.449,42.0,0.0,-0.198,43.6
2761.458,42.0,0.0,-0.100,43.1
2767.277,40.0,0.0,-0.182,42.8
2772.511,39.0,0.0,-0.299,42.4
2778.277,39.0,0.0,-0.091,41.9
2788.284,36.0,0.0,-0.300,41.1
2793.338,36.0,0.0,-0.199,40.5
2799.328,36.0,0.0,0.000,39.9
2804.468,33.0,0.0,-0.297,39.1
2810.386,33.0,0.0,-0.199,38.2
2815.562,33.0,0.0,0.000,37.3
2827.282,31.0,0.0,-0.200,35.6
2833.275,29.0,0.0,-0.372,34.7
2838.281,29.0,0.0,-0.200,33.8
2843.352,29.0,0.0,0.000,33.0
2849.337,27.0,0.0,-0.200,32.0
2854.470,25.0,0.0,-0.297,31.2
2860.399,26.0,0.0,-0.090,30.1
2865.569,29.0,0.0,0.396,29.6
2877.292,29.0,0.0,-0.091,28.9
2888.284,32.0,0.0,0.300,28.5
2893.385,31.0,0.0,0.099,28.6
2899.331,33.0,0.0,0.200,29.0
2904.484,35.0,0.0,0.297,29.4
2916.650,36.0,0.0,0.096,31.4
2928.279,39.0,0.0,0.183,33.2
2938.304,40.0,0.0,0.100,34.9
2943.405,41.0,0.0,0.198,35.9
2949.342,42.0,0.0,0.100,37.0
2977.296,44.0,0.0,0.187,40.7
2988.340,44.0,0.0,0.000,42.0
2993.401,42.0,0.0,-0.298,42.2
2999.350,41.0,0.0,-0.200,42.4
3004.540,41.0,0.0,-0.099,42.5
3010.405,40.0,0.0,-0.200,42.3
3016.292,40.0,0.0,-0.093,42.3
3027.337,43.0,0.0,0.199,42.1
3033.311,42.0,0.0,0.100,42.1
3038.322,41.0,0.0,-0.199,41.9
3043.432,42.0,0.0,0.000,41.5
3049.352,43.0,0.0,0.200,41.5
3054.538,43.0,0.0,0.000,41.8
3060.377,41.0,0.0,-0.181,41.8
3066.361,40.0,0.0,-0.099,41.5
3072.273,38.0,0.0,-0.184,41.3
3088.284,38.0,0.0,0.100,40.2
3093.449,38.0,0.0,0.198,39.7
3099.281,37.0,0.0,-0.091,39.4
3104.498,36.0,0.0,-0.299,38.9
3110.443,34.0,0.0,-0.199,38.1
3115.586,31.0,0.0,-0.598,37.0
3121.283,37.0,0.0,0.277,36.5
3131.321,40.0,0.0,0.299,36.4
3137.281,40.0,0.0,0.182,36.7
3142.453,40.0,0.0,0.099,37.0
3153.520,43.0,0.0,0.298,37.8
3165.285,44.0,0.0,0.000,39.3
3181.347,43.0,0.0,-0.199,42.0
3191.415,48.0,0.0,0.497,43.1
3197.281,45.0,0.0,0.184,43.7
3202.454,44.0,0.0,-0.362,44.1
3207.613,43.0,0.0,-0.194,44.3
3213.281,43.0,0.0,-0.092,44.3
3218.310,40.0,0.0,-0.280,44.1
3224.280,37.0,0.0,-0.545,43.5
3234.393,36.0,0.0,-0.099,42.0
3245.496,34.0,0.0,-0.198,40.4
3257.618,32.0,0.0,-0.099,37.6
3269.288,31.0,0.0,-0.300,35.6
3274.295,32.0,0.0,-0.100,34.8
3279.332,36.0,0.0,0.498,34.1
3285.422,41.0,0.0,0.499,34.7
3297.282,41.0,0.0,0.092,35.2
3302.452,39.0,0.0,-0.181,35.6
3308.291,41.0,0.0,0.100,36.1
3314.316,43.0,0.0,0.370,37.1
3320.305,44.0,0.0,0.181,38.3
3325.381,42.0,0.0,-0.099,39.0
3331.390,40.0,0.0,-0.198,39.9
3336.445,41.0,0.0,-0.099,40.6
3342.458,42.0,0.0,0.199,41.2
3348.282,45.0,0.0,0.273,41.6
3353.518,45.0,0.0,0.200,41.9
3365.281,47.0,0.0,0.280,43.2
3370.294,47.0,0.0,0.000,43.7
3380.354,45.0,0.0,-0.199,44.2
3385.438,46.0,0.0,0.000,44.5
3419.297,49.0,0.0,0.400,46.1
3429.373,48.0,0.0,-0.099,46.5
3434.465,47.0,0.0,-0.297,46.5
3440.341,46.0,0.0,-0.182,46.6
3451.387,45.0,0.0,-0.091,46.6
3457.281,42.0,0.0,-0.300,46.3
3467.294,41.0,0.0,-0.100,45.7
3477.371,39.0,0.0,-0.198,44.7
3482.381,37.0,0.0,-0.398,43.8
3488.357,37.0,0.0,-0.199,42.6
3493.458,40.0,0.0,0.300,41.9
3499.320,43.0,0.0,0.547,41.4
3504.326,48.0,0.0,0.736,41.5
3516.332,50.0,0.0,0.099,42.5
3521.344,48.0,0.0,-0.299,43.2
3532.386,44.0,0.0,-0.398,43.9
3538.311,45.0,0.0,0.000,44.4
3543.486,48.0,0.0,0.298,45.1
3554.535,51.0,0.0,0.271,47.2
3560.343,51.0,0.0,0.099,48.1
3566.303,54.0,0.0,0.281,48.4
3571.346,53.0,0.0,0.200,48.9
3576.427,51.0,0.0,-0.296,48.9
3582.428,50.0,0.0,-0.099,49.0
3599.286,48.0,0.0,-0.273,50.3
3610.346,46.0,0.0,-0.200,50.3
3615.300,47.0,0.0,-0.093,50.0
3620.327,44.0,0.0,-0.199,49.5
3625.407,44.0,0.0,-0.297,48.8
3631.403,44.0,0.0,0.199,47.8
3636.524,42.0,0.0,-0.198,47.1
3642.432,41.0,0.0,-0.272,46.3
3647.634,42.0,0.0,0.000,45.6
3658.348,38.0,0.0,-0.373,43.9
3669.326,35.0,0.0,-0.299,41.9
3674.421,37.0,0.0,0.099,41.0
3680.317,39.0,0.0,0.364,40.3
3691.373,41.0,0.0,0.181,39.8
3697.287,42.0,0.0,0.000,39.6
3702.288,43.0,0.0,0.183,39.6
3708.286,42.0,0.0,0.100,39.7
3747.285,40.0,0.0,-0.187,41.4
3753.285,38.0,0.0,-0.276,41.2
3758.286,40.0,0.0,0.100,41.1
3763.328,42.0,0.0,0.398,41.0
3769.290,42.0,0.0,0.200,41.0
3774.456,45.0,0.0,0.296,41.2
3785.542,47.0,0.0,0.198,42.1
3797.283,50.0,0.0,0.373,43.5
3802.290,49.0,0.0,0.000,44.1
3807.369,48.0,0.0,-0.198,44.8
3813.344,48.0,0.0,0.000,45.8
3845.282,49.0,0.0,0.182,48.1
3855.334,50.0,0.0,0.099,48.5
3861.345,49.0,0.0,-0.200,48.6
3866.406,46.0,0.0,-0.396,48.5
3872.387,48.0,0.0,0.000,48.3
3883.302,44.0,0.0,-0.367,48.3
3893.478,43.0,0.0,-0.098,47.8
3905.311,41.0,0.0,-0.185,46.6
3911.340,41.0,0.0,-0.100,45.7
3916.430,39.0,0.0,-0.298,44.7
3922.403,38.0,0.0,-0.100,43.7
3928.345,36.0,0.0,-0.452,42.8
3939.354,35.0,0.0,0.100,40.4
3973.425,37.0,0.0,0.199,35.9
3979.378,42.0,0.0,0.897,35.9
3990.291,42.0,0.0,0.000,36.7
4006.387,39.0,0.0,-0.299,38.6
4012.372,33.0,0.0,-0.799,38.5
4023.438,32.0,0.0,0.000,37.6
4034.472,35.0,0.0,0.300,37.2
4046.368,31.0,0.0,-0.370,35.8
4057.354,26.0,0.0,-0.400,33.4
4068.489,25.0,0.0,0.000,30.7
4074.452,28.0,0.0,0.299,30.1
4091.290,31.0,0.0,0.182,29.7
4096.291,30.0,0.0,0.000,29.3
4107.387,27.0,0.0,-0.297,28.5
4113.407,24.0,0.0,-0.595,28.0
4118.486,24.0,0.0,-0.198,27.7
4124.462,17.0,0.0,0.000,27.6
4129.633,17.0,0.0,-0.693,26.7
4135.545,19.0,0.0,0.199,25.8
4141.296,22.0,0.0,0.457,25.0
4153.342,23.0,0.0,0.100,23.5
4158.402,25.0,0.0,0.199,22.9
4163.407,26.0,0.0,0.298,22.6
4168.510,25.0,0.0,0.000,22.5
4191.337,27.0,0.0,0.299,23.8
4196.371,28.0,0.0,0.185,24.6
4208.430,28.0,0.0,0.099,25.9
4214.488,31.0,0.0,0.198,26.7
4220.301,32.0,0.0,0.092,27.4
4225.497,36.0,0.0,0.497,28.1
4231.367,33.0,0.0,0.199,29.0
4236.590,32.0,0.0,-0.298,29.6
4242.326,31.0,0.0,-0.100,30.1
4248.306,30.0,0.0,-0.200,30.5
4253.360,31.0,0.0,0.000,30.8
4275.532,29.0,0.0,-0.295,31.8
4281.291,31.0,0.0,-0.187,31.6
4286.322,28.0,0.0,-0.093,31.3
4292.291,27.0,0.0,-0.364,30.6
4297.332,23.0,0.0,-0.500,30.0
4303.350,18.0,0.0,-0.796,28.9
4314.441,17.0,0.0,0.000,26.5
4331.298,21.0,0.0,0.200,22.9
4336.316,19.0,0.0,0.092,21.9
4342.297,19.0,0.0,-0.182,20.8
4347.339,20.0,0.0,0.199,19.8
4353.358,20.0,0.0,0.099,19.0
4358.470,22.0,0.0,0.198,18.8
4364.443,24.0,0.0,0.298,19.3
4369.607,22.0,0.0,-0.097,19.8
4375.494,22.0,0.0,-0.200,20.2
4381.291,21.0,0.0,-0.091,20.5
4392.354,20.0,0.0,-0.299,21.1
4397.374,21.0,0.0,0.000,21.4
4425.483,19.0,0.0,-0.400,21.5
4431.327,18.0,0.0,-0.100,20.9
4453.383,20.0,0.0,0.200,19.6
4458.483,20.0,0.0,0.295,19.4
4464.420,22.0,0.0,0.181,19.6
4476.292,22.0,0.0,0.000,19.8
4482.289,24.0,0.0,0.182,20.0
4487.299,26.0,0.0,0.364,20.6
4492.325,25.0,0.0,0.100,21.3
4497.402,24.0,0.0,-0.198,21.7
4503.367,31.0,0.0,0.499,22.8
4514.385,33.0,0.0,0.181,25.5
4520.332,31.0,0.0,-0.185,26.7
4526.300,32.0,0.0,-0.092,27.5
4531.327,35.0,0.0,0.364,28.5
4537.328,32.0,0.0,0.000,29.5
4542.448,32.0,0.0,-0.299,30.4
4547.424,32.0,0.0,0.000,30.9
4558.538,29.0,0.0,-0.495,32.2
4569.652,29.0,0.0,0.000,31.7
4591.335,31.0,0.0,0.299,30.4
4596.384,32.0,0.0,0.199,30.3
4602.294,35.0,0.0,0.365,30.4
4613.328,38.0,0.0,0.272,31.1
4618.332,38.0,0.0,0.185,31.6
4624.307,39.0,0.0,0.091,32.6
4639.370,36.0,0.0,-0.199,35.0
4645.454,33.0,0.0,-0.495,35.5
4651.329,32.0,0.0,-0.200,35.7
4657.450,30.0,0.0,-0.273,35.6
4663.386,30.0,0.0,0.000,35.3
4674.311,32.0,0.0,0.183,34.5
4679.315,29.0,0.0,-0.279,33.9
4690.398,24.0,0.0,-0.496,31.6
4695.486,27.0,0.0,0.099,30.5
4701.362,28.0,0.0,0.365,29.7
4706.448,28.0,0.0,0.100,29.2
4717.566,26.0,0.0,-0.199,28.4
4723.308,28.0,0.0,0.091,28.0
4728.380,29.0,0.0,0.277,27.8
4734.337,29.0,0.0,0.100,27.5
4739.391,31.0,0.0,0.182,27.4
4745.404,33.0,0.0,0.397,27.8
4751.307,32.0,0.0,0.100,28.4
4756.467,35.0,0.0,0.299,29.1
4762.292,34.0,0.0,0.182,29.8
4767.304,33.0,0.0,-0.185,30.3
4772.376,37.0,0.0,0.297,30.8
4784.363,39.0,0.0,-0.099,33.3
4789.392,36.0,0.0,-0.297,33.9
4795.371,39.0,0.0,0.100,34.8
4800.509,41.0,0.0,0.495,35.6
4806.449,41.0,0.0,0.200,36.7
4812.304,40.0,0.0,-0.300,37.5
4818.296,37.0,0.0,-0.364,38.0
4828.313,39.0,0.0,0.200,38.5
4834.361,41.0,0.0,0.398,38.9
4839.415,38.0,0.0,-0.099,39.0
4845.409,38.0,0.0,-0.199,38.9
4850.560,37.0,0.0,-0.099,39.0
4856.466,40.0,0.0,0.200,38.9
4862.384,40.0,0.0,0.298,38.8
4868.292,41.0,0.0,0.093,38.7
4874.324,43.0,0.0,0.273,39.0
4885.366,46.0,0.0,0.299,40.1
4890.438,45.0,0.0,0.198,40.7
4896.451,52.0,0.0,0.597,41.9
4907.495,52.0,0.0,0.000,44.3
4913.358,48.0,0.0,-0.300,45.6
4924.338,47.0,0.0,-0.100,46.9
4946.451,45.0,0.0,-0.199,48.2
4952.342,43.0,0.0,-0.299,48.0
4963.346,43.0,0.0,0.000,46.4
4974.305,40.0,0.0,-0.300,44.6
4979.363,37.0,0.0,-0.271,42.9
4990.472,36.0,0.0,-0.099,42.0
4996.458,35.0,0.0,-0.200,41.0
5002.371,35.0,0.0,-0.092,39.8
5019.393,36.0,0.0,0.182,37.3
5031.324,39.0,0.0,0.273,36.4
5036.376,40.0,0.0,0.199,36.3
5042.412,43.0,0.0,0.399,36.7
5047.493,42.0,0.0,0.198,37.2
5053.326,40.0,0.0,-0.275,37.7
5063.399,37.0,0.0,-0.298,38.3
5068.417,36.0,0.0,-0.199,38.3
5074.381,37.0,0.0,0.000,38.6
5085.369,35.0,0.0,-0.182,38.6
5096.407,34.0,0.0,-0.091,37.8
5125.334,38.0,0.0,0.299,35.3
5130.377,37.0,0.0,0.199,35.4
5136.402,38.0,0.0,0.099,35.5
5141.497,34.0,0.0,-0.295,35.5
5152.603,33.0,0.0,-0.099,35.3
5158.483,36.0,0.0,0.200,35.4
5164.302,38.0,0.0,0.468,35.7
5169.316,38.0,0.0,0.185,36.0
5175.331,37.0,0.0,-0.100,36.3
5180.414,33.0,0.0,-0.595,36.2
5191.512,36.0,0.0,0.297,35.6
5197.437,35.0,0.0,0.180,35.4
5203.356,35.0,0.0,-0.100,35.3
5248.497,38.0,0.0,0.199,35.6
5260.356,38.0,0.0,0.274,36.0
5266.334,37.0,0.0,-0.091,36.2
5276.400,39.0,0.0,0.199,36.6
5281.417,41.0,0.0,0.399,37.0
5287.433,41.0,0.0,0.100,37.6
5293.353,42.0,0.0,0.183,38.2
5299.317,42.0,0.0,0.091,38.9
5348.411,39.0,0.0,-0.091,41.2
5354.403,38.0,0.0,-0.182,40.8
5360.386,39.0,0.0,0.091,40.5
5421.350,34.0,0.0,-0.300,37.1
5433.329,32.0,0.0,-0.200,36.3
5439.339,33.0,0.0,-0.091,35.8
5460.337,35.0,0.0,0.200,34.7
5471.350,35.0,0.0,0.000,34.3
5488.351,34.0,0.0,-0.299,34.2
5494.335,35.0,0.0,0.000,34.4
5505.338,36.0,0.0,0.200,34.7
5511.352,36.0,0.0,0.000,35.0
5533.354,40.0,0.0,0.399,35.6
5544.381,41.0,0.0,0.091,36.5
5549.538,42.0,0.0,0.198,37.1
5560.396,43.0,0.0,0.000,38.7
5588.413,39.0,0.0,-0.300,41.5
5594.413,39.0,0.0,-0.099,41.5
5599.521,40.0,0.0,0.199,41.5
5605.374,40.0,0.0,0.091,41.4
5620.424,38.0,0.0,-0.199,40.5
5626.381,38.0,0.0,-0.100,40.0
5660.356,38.0,0.0,-0.185,39.1
5670.368,39.0,0.0,0.100,38.8
5710.366,42.0,0.0,0.365,38.9
5715.407,42.0,0.0,0.199,39.1
5720.412,43.0,0.0,0.100,39.4
5748.347,40.0,0.0,-0.183,40.8
5753.371,40.0,0.0,-0.100,40.9
5764.368,42.0,0.0,0.182,41.4
5770.388,41.0,0.0,0.000,41.4
5803.412,39.0,0.0,-0.182,40.4
5808.415,39.0,0.0,-0.100,40.2
5836.372,40.0,0.0,0.182,39.6
5841.392,38.0,0.0,-0.182,39.6
5852.397,38.0,0.0,0.000,39.2
5868.381,41.0,0.0,0.300,38.9
5880.404,43.0,0.0,0.100,39.7
5891.381,41.0,0.0,-0.199,40.3
5902.410,40.0,0.0,-0.100,40.5
5959.398,39.0,0.0,-0.199,40.9
5965.386,40.0,0.0,0.000,40.8
5971.406,41.0,0.0,0.200,40.7
5977.391,40.0,0.0,0.000,40.7
6000.416,40.0,0.0,-0.200,40.7
6006.417,40.0,0.0,0.000,40.6
6029.352,43.0,0.0,0.091,41.1
6079.415,41.0,0.0,-0.199,42.9
6084.421,42.0,0.0,-0.100,42.8
6095.531,39.0,0.0,-0.298,42.5
6101.402,40.0,0.0,-0.099,42.1
6130.356,37.0,0.0,0.000,39.6
6146.409,38.0,0.0,0.182,38.4
6151.414,39.0,0.0,0.099,38.2
6157.338,40.0,0.0,0.183,38.1
6163.342,40.0,0.0,0.091,38.2
6185.437,36.0,0.0,-0.297,38.4
6191.340,35.0,0.0,-0.200,38.3
6196.346,35.0,0.0,-0.092,38.1
6202.326,39.0,0.0,0.364,38.1
6213.341,40.0,0.0,0.091,38.4
6218.347,39.0,0.0,-0.200,38.4
6223.354,39.0,0.0,-0.100,38.3
6383.429,37.0,0.0,-0.199,38.0
6389.358,37.0,0.0,-0.091,37.9
6422.397,40.0,0.0,0.300,37.5
6428.335,37.0,0.0,0.000,37.5
6433.406,37.0,0.0,-0.200,37.4
6439.404,37.0,0.0,0.000,37.2
6499.376,39.0,0.0,0.186,37.1
6505.348,40.0,0.0,0.273,37.4
6510.349,40.0,0.0,0.100,37.6
6550.335,44.0,0.0,0.273,40.4
6561.357,46.0,0.0,0.200,41.7
6571.415,47.0,0.0,0.099,42.9
6599.414,45.0,0.0,-0.199,45.6
6605.351,43.0,0.0,-0.363,45.8
6610.375,42.0,0.0,-0.199,45.7
6615.404,40.0,0.0,-0.298,45.5
6621.351,40.0,0.0,-0.200,45.0
6626.523,41.0,0.0,0.099,44.5
6643.421,40.0,0.0,-0.200,42.7
6649.368,39.0,0.0,-0.091,41.9
6655.371,38.0,0.0,-0.182,41.1
6661.362,40.0,0.0,0.091,40.4
6677.555,37.0,0.0,-0.198,39.4
6683.465,37.0,0.0,-0.090,39.1
6701.349,38.0,0.0,0.182,37.9
6711.412,39.0,0.0,0.099,37.9
6727.591,40.0,0.0,0.198,37.9
6733.452,39.0,0.0,0.000,38.0
6751.380,38.0,0.0,-0.273,38.7
6757.386,34.0,0.0,-0.500,38.8
6768.416,34.0,0.0,0.000,37.9
6839.389,37.0,0.0,0.299,34.6
6845.420,37.0,0.0,0.000,34.9
6866.401,34.0,0.0,-0.299,35.7
6877.371,31.0,0.0,-0.274,35.3
6883.382,31.0,0.0,-0.091,34.9
6894.430,29.0,0.0,-0.299,34.2
6899.442,26.0,0.0,-0.397,33.3
6905.371,23.0,0.0,-0.548,32.1
6916.335,19.0,0.0,-0.365,29.2
6921.420,20.0,0.0,-0.100,27.6
6931.427,16.0,0.0,-0.400,25.1
6937.381,17.0,0.0,-0.091,23.5
6948.384,12.0,0.0,-0.454,20.6
6959.402,11.0,0.0,-0.099,17.7
6964.421,10.0,0.0,-0.299,16.4
6970.408,13.0,0.0,0.182,15.4
6976.344,11.0,0.0,0.000,14.6
6981.421,11.0,0.0,-0.182,13.8
6993.411,8.0,0.0,-0.100,12.0
6998.436,7.0,0.0,-0.199,11.3
7004.398,8.0,0.0,0.000,10.4
7010.389,10.0,0.0,0.273,10.1
7021.422,15.0,0.0,0.498,10.2
7026.424,13.0,0.0,0.099,10.4
7038.364,18.0,0.0,0.549,11.0
7044.386,21.0,0.0,0.637,11.9
7050.048,24.0,0.0,0.592,13.0
7055.384,28.0,0.0,0.636,14.8
7065.410,30.0,0.0,0.199,18.3
7070.421,32.0,0.0,0.499,20.1
7076.387,31.0,0.0,0.100,22.0
7098.410,28.0,0.0,-0.200,27.7
7104.362,29.0,0.0,-0.091,28.5
7176.352,27.0,0.0,-0.200,28.7
7181.361,25.0,0.0,-0.365,28.5
7186.390,25.0,0.0,-0.199,28.2
7191.404,27.0,0.0,0.199,27.9
7197.402,27.0,0.0,0.100,27.7
7264.376,29.0,0.0,0.182,27.1
7269.485,31.0,0.0,0.362,27.4
7280.413,33.0,0.0,0.183,28.3
7286.358,33.0,0.0,0.100,28.9
7302.451,37.0,0.0,0.298,31.0
7308.403,38.0,0.0,0.200,32.0
7313.598,38.0,0.0,0.098,32.9
7330.382,37.0,0.0,-0.183,35.6
7336.419,38.0,0.0,0.000,36.2
7342.385,39.0,0.0,0.199,36.8
7347.390,39.0,0.0,0.091,37.3
7420.415,35.0,0.0,-0.182,37.5
7432.372,35.0,0.0,0.000,36.9
7438.368,32.0,0.0,-0.182,36.4
7443.432,32.0,0.0,-0.299,35.9
7449.412,31.0,0.0,-0.100,35.2
7460.427,27.0,0.0,-0.400,33.7
7472.347,25.0,0.0,-0.184,31.5
7483.367,25.0,0.0,0.000,29.5
7517.356,27.0,0.0,0.183,25.3
7522.408,28.0,0.0,0.273,25.3
7528.374,27.0,0.0,0.000,25.4
7585.361,24.0,0.0,-0.091,25.9
7623.390,23.0,0.0,-0.183,25.1
7629.356,22.0,0.0,-0.273,24.7
7634.391,22.0,0.0,-0.099,24.4
7645.448,24.0,0.0,0.199,24.1
7651.390,23.0,0.0,0.000,24.0
7656.402,26.0,0.0,0.183,23.9
7661.415,29.0,0.0,0.598,24.1
7672.424,30.0,0.0,0.091,25.0
7684.333,33.0,0.0,0.275,26.4
7689.426,37.0,0.0,0.499,27.5
7700.385,42.0,0.0,0.499,30.7
7711.378,44.0,0.0,0.100,34.2
7755.472,42.0,0.0,-0.199,43.1
7766.354,39.0,0.0,-0.276,42.7
7778.336,38.0,0.0,0.000,41.6
7789.363,36.0,0.0,-0.200,40.4
7800.359,36.0,0.0,0.000,39.2
7822.390,39.0,0.0,0.300,37.3
7833.380,42.0,0.0,0.273,37.6
7845.442,45.0,0.0,0.299,38.7
7856.520,49.0,0.0,0.399,40.6
7862.430,49.0,0.0,0.199,41.9
7868.429,50.0,0.0,0.100,43.3
7897.521,48.0,0.0,-0.198,48.3
7903.389,47.0,0.0,-0.100,48.7
7957.511,44.0,0.0,-0.200,46.6
7963.387,45.0,0.0,-0.091,46.2
7990.431,45.0,0.0,0.199,45.0
8002.427,47.0,0.0,0.099,44.8
8007.432,48.0,0.0,0.181,44.9
8013.350,47.0,0.0,0.000,45.0
8046.398,50.0,0.0,0.091,47.5
8063.362,53.0,0.0,0.183,49.1
8068.407,54.0,0.0,0.273,49.6
8073.427,53.0,0.0,0.000,50.1
8079.372,56.0,0.0,0.182,50.8
8085.364,59.0,0.0,0.548,51.7
8090.441,62.0,0.0,0.597,52.8
8101.407,64.0,0.0,0.182,55.2
8107.444,66.0,0.0,0.299,56.8
8113.377,66.0,0.0,0.100,58.3
8135.364,69.0,0.0,0.182,63.6
8140.463,68.0,0.0,0.000,64.9
8146.433,67.0,0.0,-0.199,65.9
8151.555,67.0,0.0,-0.100,66.4
8157.353,70.0,0.0,0.275,66.9
8167.437,71.0,0.0,0.099,68.0
8179.362,73.0,0.0,0.199,69.0
8189.453,74.0,0.0,0.099,70.1
8195.366,78.0,0.0,0.456,70.8
8206.422,81.0,0.0,0.298,72.8
8212.395,80.0,0.0,0.000,74.2
8218.363,79.0,0.0,-0.182,75.2
8224.406,78.0,0.0,-0.100,76.0
8251.511,81.0,0.0,0.181,79.1
8257.352,83.0,0.0,0.274,79.5
8267.356,84.0,0.0,0.100,80.1
8278.357,88.0,0.0,0.300,81.2
8289.404,93.0,0.0,0.399,83.5
8300.458,96.0,0.0,0.199,86.7
8306.357,94.0,0.0,-0.100,88.0
8311.360,93.0,0.0,-0.300,89.1
8317.358,93.0,0.0,-0.100,90.3
8322.357,91.0,0.0,-0.200,91.0
8327.361,90.0,0.0,-0.300,91.6
8332.435,90.0,0.0,-0.099,92.0
8354.372,88.0,0.0,-0.184,91.6
8360.369,88.0,0.0,0.000,90.8
8371.376,85.0,0.0,-0.200,89.2
8377.340,88.0,0.0,0.182,88.7
8382.419,89.0,0.0,0.398,88.3
8388.338,89.0,0.0,0.091,88.2
8409.363,87.0,0.0,-0.200,87.7
8415.350,88.0,0.0,0.000,87.7
8420.350,89.0,0.0,0.182,87.8
8431.356,88.0,0.0,-0.100,88.3
8436.356,87.0,0.0,-0.300,88.5
8441.384,86.0,0.0,-0.199,88.3
8452.410,85.0,0.0,-0.091,87.7
8469.368,82.0,0.0,-0.182,86.4
8475.384,80.0,0.0,-0.274,85.7
8481.408,80.0,0.0,-0.200,84.8
8487.372,80.0,0.0,0.000,83.9
8498.421,78.0,0.0,-0.199,82.3
8509.369,77.0,0.0,-0.091,80.6
8515.379,75.0,0.0,-0.182,79.8
8521.411,74.0,0.0,-0.272,78.8
8526.421,74.0,0.0,-0.100,78.0
8549.386,74.0,0.0,0.182,75.3
8555.397,74.0,0.0,0.000,74.8
8583.433,73.0,0.0,-0.199,73.5
8589.375,73.0,0.0,0.000,73.4
8627.422,76.0,0.0,0.100,74.0
8672.409,78.0,0.0,0.199,76.0
8677.440,78.0,0.0,0.099,76.4
8683.401,80.0,0.0,0.199,76.7
8694.383,78.0,0.0,-0.182,77.3
8705.397,77.0,0.0,-0.091,77.7
8733.361,79.0,0.0,0.183,77.7
8744.391,79.0,0.0,0.000,77.8
8755.326,81.0,0.0,0.183,77.9
8760.439,84.0,0.0,0.399,78.3
8766.366,83.0,0.0,0.100,78.9
8788.519,86.0,0.0,0.199,81.8
8794.348,85.0,0.0,0.000,82.5
8804.375,87.0,0.0,0.199,83.7
8820.396,89.0,0.0,0.100,85.8
8837.490,91.0,0.0,0.199,87.5
8843.387,93.0,0.0,0.299,88.2
8849.392,91.0,0.0,0.000,88.8
8854.406,91.0,0.0,-0.199,89.3
8859.435,90.0,0.0,-0.100,89.7
8887.449,93.0,0.0,0.100,91.2
8893.337,95.0,0.0,0.274,91.7
8898.394,95.0,0.0,0.183,92.1
8904.377,96.0,0.0,0.091,92.5
8909.381,98.0,0.0,0.273,92.9
8920.407,101.0,0.0,0.299,94.6
8931.548,103.0,0.0,0.099,96.8
8937.421,105.0,0.0,0.200,97.9
8949.360,107.0,0.0,0.276,100.5
8954.371,106.0,0.0,0.000,101.4
8964.422,108.0,0.0,0.199,103.5
8976.416,111.0,0.0,0.298,105.9
8981.523,112.0,0.0,0.198,106.7
8998.410,116.0,0.0,0.273,109.5
9009.383,118.0,0.0,0.200,111.6
9015.412,119.0,0.0,0.299,112.9
9020.408,120.0,0.0,0.200,113.9
9036.410,125.0,0.0,0.398,117.0
9047.355,126.0,0.0,0.091,119.6
9052.396,125.0,0.0,-0.184,120.7
9057.396,123.0,0.0,-0.299,121.4
9063.407,122.0,0.0,-0.199,122.0
9069.405,122.0,0.0,-0.100,122.6
9126.357,124.0,0.0,0.274,122.2
9137.402,127.0,0.0,0.299,123.0
9148.425,130.0,0.0,0.198,124.3
9154.405,128.0,0.0,-0.200,124.9
9160.381,128.0,0.0,-0.091,125.5
9181.483,125.0,0.0,-0.299,127.4
9187.374,121.0,0.0,-0.499,127.2
9193.372,118.0,0.0,-0.551,126.5
9203.429,116.0,0.0,-0.199,124.7
9209.396,113.0,0.0,-0.398,123.3
9215.403,110.0,0.0,-0.598,121.6
9221.376,107.0,0.0,-0.455,119.5
9226.415,104.0,0.0,-0.544,117.5
9237.394,101.0,0.0,-0.200,112.8
9242.418,102.0,0.0,-0.091,111.0
9253.408,98.0,0.0,-0.364,107.1
9264.390,95.0,0.0,-0.273,103.5
9270.380,94.0,0.0,-0.200,101.4
9275.495,93.0,0.0,-0.099,99.8
9281.414,92.0,0.0,-0.181,98.3
9298.425,90.0,0.0,-0.099,94.9
9315.420,88.0,0.0,-0.273,92.0
9321.388,87.0,0.0,-0.200,91.2
9332.441,85.0,0.0,-0.100,89.6
9338.390,84.0,0.0,-0.182,88.7
9344.404,83.0,0.0,-0.092,87.9
9360.381,82.0,0.0,-0.183,85.9
9375.558,80.0,0.0,-0.098,83.6
9381.403,78.0,0.0,-0.299,82.8
9392.356,76.0,0.0,-0.183,81.2
9398.354,75.0,0.0,-0.100,80.3
9413.438,74.0,0.0,-0.199,78.1
9424.501,73.0,0.0,0.000,76.4
9430.348,71.0,0.0,-0.183,75.6
9441.412,71.0,0.0,0.000,74.0
9468.449,68.0,0.0,-0.099,71.1
9485.538,67.0,0.0,-0.199,69.7
9491.365,65.0,0.0,-0.273,69.1
9496.385,66.0,0.0,-0.092,68.7
9506.429,64.0,0.0,-0.199,67.6
9517.465,63.0,0.0,-0.100,66.4
9540.364,60.0,0.0,-0.183,63.6
9546.374,60.0,0.0,-0.091,62.9
9568.520,58.0,0.0,-0.296,60.8
9574.414,57.0,0.0,-0.200,60.3
9580.421,59.0,0.0,0.100,59.8
9586.382,59.0,0.0,0.183,59.5
9592.376,60.0,0.0,0.091,59.3
9632.375,57.0,0.0,-0.091,58.6
9665.396,60.0,0.0,0.091,58.4
9806.403,57.0,0.0,-0.091,58.5
9840.405,60.0,0.0,0.199,58.0
9846.397,60.0,0.0,0.091,58.2
9895.413,56.0,0.0,-0.199,59.1
9900.419,55.0,0.0,-0.299,58.7
9906.381,56.0,0.0,0.000,58.4
9928.408,54.0,0.0,-0.181,56.8
9934.350,53.0,0.0,-0.092,56.3
9945.373,56.0,0.0,0.200,55.6
9950.386,55.0,0.0,0.091,55.4
9971.524,57.0,0.0,0.199,55.1
9977.356,57.0,0.0,0.091,55.2
9993.439,56.0,0.0,-0.184,55.9
9999.382,56.0,0.0,-0.091,56.2
10009.430,58.0,0.0,0.199,56.6
10014.522,59.0,0.0,0.099,56.8
10031.429,57.0,0.0,-0.182,57.6
10042.429,57.0,0.0,-0.100,57.7
10064.554,60.0,0.0,0.099,58.0
10070.434,62.0,0.0,0.362,58.3
10081.381,66.0,0.0,0.365,59.3
10092.380,69.0,0.0,0.273,60.9
10103.425,71.0,0.0,0.199,63.4
10109.351,72.0,0.0,0.091,64.8
10120.403,70.0,0.0,-0.200,67.2
10126.430,70.0,0.0,-0.100,68.3
10132.418,68.0,0.0,-0.299,69.1
10143.390,69.0,0.0,0.091,69.8
10159.369,71.0,0.0,0.183,70.1
10175.616,74.0,0.0,0.199,70.3
10181.399,76.0,0.0,0.272,70.7
10186.446,76.0,0.0,0.100,71.2
10198.385,80.0,0.0,0.366,72.9
10208.457,81.0,0.0,0.099,74.9
10224.544,83.0,0.0,0.200,77.8
10230.361,83.0,0.0,0.091,78.8
10246.456,84.0,0.0,0.199,80.9
10252.405,84.0,0.0,0.100,81.7
10258.382,86.0,0.0,0.183,82.3
10263.508,85.0,0.0,0.000,82.8
10292.404,87.0,0.0,0.181,84.4
10297.498,89.0,0.0,0.363,85.0
10302.436,89.0,0.0,0.199,85.6
10313.372,92.0,0.0,0.274,86.9
10318.586,90.0,0.0,-0.098,87.3
10330.356,91.0,0.0,0.182,88.3
10346.392,93.0,0.0,-0.100,90.6
10363.410,90.0,0.0,-0.273,91.9
10369.362,90.0,0.0,-0.185,91.8
10375.388,89.0,0.0,-0.091,91.6
10386.430,90.0,0.0,0.200,91.5
10392.359,90.0,0.0,0.000,91.3
10397.411,92.0,0.0,0.199,91.2
10407.553,93.0,0.0,0.099,91.0
10424.406,90.0,0.0,-0.273,91.0
10435.394,91.0,0.0,0.091,91.0
10441.388,92.0,0.0,0.200,91.3
10446.410,94.0,0.0,0.300,91.6
10452.367,97.0,0.0,0.455,92.2
10463.386,101.0,0.0,0.363,93.6
10468.615,101.0,0.0,0.196,94.3
10479.389,104.0,0.0,0.279,96.0
10485.385,105.0,0.0,0.181,97.4
10491.406,105.0,0.0,0.000,99.0
10507.487,108.0,0.0,0.100,103.0
10580.380,106.0,0.0,-0.182,108.0
10591.427,105.0,0.0,-0.100,107.7
10613.606,106.0,0.0,0.196,106.1
10619.368,109.0,0.0,0.460,106.1
10624.438,108.0,0.0,0.100,106.1
10641.430,107.0,0.0,-0.200,106.3
10647.392,107.0,0.0,-0.091,106.4
10670.597,104.0,0.0,-0.196,106.9
10687.396,101.0,0.0,-0.100,105.2
10737.360,98.0,0.0,-0.100,100.1
10747.471,101.0,0.0,0.297,99.7
10752.568,101.0,0.0,0.196,99.7
10758.465,97.0,0.0,-0.399,99.5
10764.384,99.0,0.0,-0.169,99.2
10770.522,98.0,0.0,0.000,99.0
10797.340,95.0,0.0,-0.274,98.2
10807.401,94.0,0.0,-0.099,97.5
10812.635,96.0,0.0,0.195,97.0
10818.388,95.0,0.0,0.091,96.6
10830.371,97.0,0.0,0.183,96.2
10836.354,96.0,0.0,0.000,96.1
10841.428,95.0,0.0,-0.199,95.9
10846.453,93.0,0.0,-0.297,95.5
10851.521,93.0,0.0,-0.198,95.1
10857.372,92.0,0.0,-0.092,94.8
10862.556,91.0,0.0,-0.181,94.5
10873.619,92.0,0.0,0.090,93.7
10885.385,88.0,0.0,-0.398,92.6
10896.418,85.0,0.0,-0.199,90.6
10902.458,81.0,0.0,-0.363,89.4
10908.346,84.0,0.0,-0.100,88.4
10924.401,86.0,0.0,0.363,86.1
10930.420,85.0,0.0,0.199,85.6
10936.360,90.0,0.0,0.273,85.3
10946.453,97.0,0.0,0.693,85.9
10957.355,96.0,0.0,-0.092,87.9
10962.371,95.0,0.0,-0.184,88.9
10973.354,94.0,0.0,-0.091,90.9
10989.364,90.0,0.0,-0.274,93.2
11000.442,85.0,0.0,-0.499,93.1
11005.588,87.0,0.0,-0.099,92.5
11011.391,90.0,0.0,0.457,91.9
11017.335,98.0,0.0,0.932,91.7
11022.367,101.0,0.0,0.299,92.5
11032.389,98.0,0.0,-0.299,92.9
11042.511,96.0,0.0,-0.198,93.5
11053.526,91.0,0.0,-0.500,94.1
11059.380,88.0,0.0,-0.636,94.2
11070.427,84.0,0.0,-0.400,94.0
11082.379,80.0,0.0,-0.366,91.1
11092.459,80.0,0.0,0.000,87.7
11103.541,82.0,0.0,0.199,84.7
11115.429,83.0,0.0,0.092,82.5
11121.398,85.0,0.0,0.274,82.1
11127.396,85.0,0.0,0.182,82.0
11132.428,88.0,0.0,0.272,82.2
11143.517,88.0,0.0,-0.099,83.5
11149.451,87.0,0.0,-0.198,84.4
11160.380,86.0,0.0,-0.091,85.5
11171.461,85.0,0.0,-0.198,86.3
11177.384,83.0,0.0,-0.364,86.3
11188.409,77.0,0.0,-0.597,85.6
11199.394,75.0,0.0,-0.182,83.3
11204.531,75.0,0.0,0.000,82.2
11221.393,76.0,0.0,0.200,78.8
11227.424,76.0,0.0,0.099,77.9
11255.541,73.0,0.0,-0.099,74.9
11261.397,72.0,0.0,-0.182,74.7
11267.341,73.0,0.0,0.000,74.5
11272.342,75.0,0.0,0.274,74.5
11277.406,73.0,0.0,0.000,74.4
11282.409,71.0,0.0,-0.397,74.1
11288.364,72.0,0.0,-0.200,73.7
11293.396,73.0,0.0,0.100,73.4
11298.564,75.0,0.0,0.294,73.3
11304.476,75.0,0.0,0.100,73.4
11315.426,78.0,0.0,0.274,73.8
11321.397,75.0,0.0,-0.091,74.1
11355.516,79.0,0.0,0.200,76.2
11361.409,81.0,0.0,0.398,76.8
11367.362,82.0,0.0,0.182,77.4
11378.398,83.0,0.0,0.099,78.4
11394.477,85.0,0.0,0.299,80.4
11400.437,86.0,0.0,0.091,81.4
11406.441,88.0,0.0,0.274,82.4
11417.460,90.0,0.0,0.199,84.4
11423.414,93.0,0.0,0.363,85.5
11434.460,97.0,0.0,0.399,88.0
11445.473,99.0,0.0,0.100,90.8
11451.410,101.0,0.0,0.182,92.3
11457.389,103.0,0.0,0.368,94.0
11468.424,106.0,0.0,0.397,97.1
11474.420,107.0,0.0,0.199,98.9
11479.438,106.0,0.0,0.000,100.4
11496.519,107.0,0.0,0.200,103.7
11502.364,107.0,0.0,0.000,104.5
11519.371,107.0,0.0,-0.200,106.5
11524.397,108.0,0.0,0.100,106.9
11529.463,109.0,0.0,0.198,107.2
11535.470,109.0,0.0,0.100,107.3
11563.389,113.0,0.0,0.299,109.0
11569.389,111.0,0.0,0.000,109.4
11574.406,114.0,0.0,0.100,109.8
11579.481,113.0,0.0,0.198,110.3
11585.435,113.0,0.0,-0.091,110.9
11596.482,116.0,0.0,0.200,112.0
11608.377,116.0,0.0,0.000,113.3
11628.482,115.0,0.0,-0.198,115.0
11634.394,116.0,0.0,0.000,115.3
11673.388,112.0,0.0,-0.200,114.9
11678.491,110.0,0.0,-0.396,114.3
11690.362,108.0,0.0,-0.185,113.0
11695.450,108.0,0.0,-0.100,112.3
11741.416,105.0,0.0,-0.092,106.8
11757.396,107.0,0.0,0.183,106.1
11762.449,109.0,0.0,0.298,106.2
11774.392,111.0,0.0,0.091,107.0
11779.524,113.0,0.0,0.198,107.5
11785.364,115.0,0.0,0.365,108.2
11795.668,117.0,0.0,0.194,110.0
11801.411,116.0,0.0,0.000,110.9
11807.346,115.0,0.0,-0.182,111.9
11813.378,115.0,0.0,0.000,112.9
11829.476,117.0,0.0,0.199,114.8
11835.344,117.0,0.0,0.091,115.4
11858.374,112.0,0.0,-0.400,115.6
11864.342,113.0,0.0,-0.091,115.2
11885.408,116.0,0.0,0.199,114.8
11896.372,113.0,0.0,-0.274,114.5
11907.370,113.0,0.0,0.100,113.9
11933.609,109.0,0.0,-0.495,113.4
11945.352,106.0,0.0,-0.281,112.2
11957.376,105.0,0.0,-0.100,110.4
11962.405,103.0,0.0,-0.272,109.6
11968.438,103.0,0.0,-0.199,108.6
11973.511,105.0,0.0,0.099,107.9
11990.533,107.0,0.0,0.400,105.7
11996.376,112.0,0.0,0.799,105.5
12007.380,109.0,0.0,-0.273,106.1
12012.396,110.0,0.0,-0.099,106.4
12024.382,107.0,0.0,-0.100,107.1
12029.453,106.0,0.0,-0.300,107.4
12040.369,101.0,0.0,-0.299,107.0
12051.432,99.0,0.0,-0.100,106.4
12056.378,99.0,0.0,-0.182,105.6
12061.427,99.0,0.0,0.000,104.5
12067.387,97.0,0.0,-0.182,103.3
12072.533,96.0,0.0,-0.297,102.2
12078.400,97.0,0.0,0.000,101.2
12089.343,93.0,0.0,-0.366,98.8
12094.349,93.0,0.0,-0.183,97.8
12099.369,94.0,0.0,0.100,97.1
12109.396,96.0,0.0,0.199,96.0
12120.435,99.0,0.0,0.299,95.5
12126.571,99.0,0.0,0.196,95.6
12132.383,99.0,0.0,-0.092,95.8
12158.434,100.0,0.0,0.198,97.6
12163.479,101.0,0.0,0.297,98.1
12169.435,101.0,0.0,0.100,98.8
12186.399,100.0,0.0,-0.182,99.8
12197.404,97.0,0.0,-0.298,99.8
12208.361,95.0,0.0,-0.183,99.2
12213.509,92.0,0.0,-0.299,98.8
12219.412,94.0,0.0,0.000,98.2
12224.449,94.0,0.0,0.183,97.7
12230.399,94.0,0.0,0.000,97.0
12251.409,97.0,0.0,0.200,95.2
12262.519,96.0,0.0,-0.099,95.2
12280.368,96.0,0.0,-0.183,96.1
12291.405,94.0,0.0,-0.100,96.2
12296.412,92.0,0.0,-0.200,95.9
12308.362,92.0,0.0,0.091,95.2
12313.467,95.0,0.0,0.199,94.9
12319.356,95.0,0.0,0.273,94.7
12324.575,93.0,0.0,-0.199,94.4
12330.405,92.0,0.0,-0.271,94.0
12335.454,91.0,0.0,-0.184,93.5
12341.435,94.0,0.0,0.298,93.1
12352.441,95.0,0.0,0.000,93.2
12381.407,94.0,0.0,-0.181,94.3
12387.381,95.0,0.0,0.000,94.4
12416.438,93.0,0.0,-0.300,94.6
12427.382,90.0,0.0,-0.274,93.8
12433.354,89.0,0.0,-0.185,93.2
12438.394,87.0,0.0,-0.272,92.7
12444.357,89.0,0.0,0.000,92.1
12449.397,91.0,0.0,0.364,91.7
12454.429,90.0,0.0,0.099,91.5
12471.463,88.0,0.0,-0.199,90.3
12477.388,86.0,0.0,-0.454,89.7
12488.436,83.0,0.0,-0.299,88.6
12494.377,83.0,0.0,-0.183,88.0
12499.533,87.0,0.0,0.397,87.9
12505.439,88.0,0.0,0.199,87.8
12511.410,85.0,0.0,-0.273,87.3
12522.423,86.0,0.0,0.100,86.3
12527.444,87.0,0.0,0.182,86.0
12533.360,86.0,0.0,0.000,85.7
12673.419,84.0,0.0,-0.182,86.5
12684.358,83.0,0.0,-0.091,85.8
12792.622,81.0,0.0,-0.196,82.8
12803.353,81.0,0.0,0.000,82.5
14299.416,84.0,0.0,0.398,80.2
14309.491,85.0,0.0,0.099,81.0
14314.506,88.0,0.0,0.298,81.6
14320.448,87.0,0.0,0.099,82.3
14331.436,90.0,0.0,0.273,83.9
14337.406,91.0,0.0,0.100,85.1
14342.467,92.0,0.0,0.199,86.1
14353.445,93.0,0.0,0.099,88.4
14374.462,96.0,0.0,0.200,92.1
14380.477,98.0,0.0,0.300,93.2
14386.482,98.0,0.0,0.200,94.1
14403.408,99.0,0.0,-0.091,96.5
14419.435,94.0,0.0,-0.398,97.3
14430.589,92.0,0.0,-0.197,97.1
14436.476,90.0,0.0,-0.298,96.6
14442.449,92.0,0.0,0.000,96.1
14465.434,91.0,0.0,-0.199,93.1
14470.471,91.0,0.0,0.100,92.5
14503.453,88.0,0.0,-0.199,90.5
14509.398,91.0,0.0,0.183,90.3
14514.404,92.0,0.0,0.365,90.3
14519.484,91.0,0.0,0.000,90.3
14564.419,93.0,0.0,0.181,91.1
14569.478,92.0,0.0,0.100,91.2
14591.469,89.0,0.0,-0.298,91.4
14603.430,85.0,0.0,-0.399,90.7
14614.470,82.0,0.0,-0.299,89.3
14619.491,84.0,0.0,0.099,88.7
14668.522,87.0,0.0,0.297,83.9
14679.660,88.0,0.0,0.000,84.8
14707.448,90.0,0.0,0.200,86.8
14712.441,89.0,0.0,0.100,87.2
14777.522,92.0,0.0,0.296,89.8
14788.448,96.0,0.0,0.366,90.6
14794.413,96.0,0.0,0.100,91.2
14811.427,95.0,0.0,-0.183,93.1
14822.432,94.0,0.0,-0.091,94.1
14885.398,94.0,0.0,-0.182,95.6
14891.399,95.0,0.0,0.182,95.5
14907.479,97.0,0.0,0.000,95.9
14935.416,100.0,0.0,0.200,96.8
14941.360,101.0,0.0,0.365,97.2
14946.418,100.0,0.0,0.000,97.8
14979.432,98.0,0.0,-0.199,99.4
14985.407,99.0,0.0,0.000,99.4
15001.437,97.0,0.0,-0.182,99.4
15012.432,97.0,0.0,0.000,98.8
15023.438,96.0,0.0,-0.199,98.3
15029.432,97.0,0.0,-0.100,98.0
15035.429,98.0,0.0,0.200,97.8
15040.448,98.0,0.0,0.100,97.8
15095.467,102.0,0.0,0.298,98.9
15106.498,101.0,0.0,-0.100,99.4
15112.404,99.0,0.0,-0.182,99.5
15117.568,99.0,0.0,-0.100,99.6
15123.407,95.0,0.0,-0.400,99.5
15134.367,90.0,0.0,-0.456,98.1
15139.374,91.0,0.0,-0.183,97.5
15144.376,91.0,0.0,0.100,96.9
15154.470,89.0,0.0,-0.198,95.3
15160.396,90.0,0.0,-0.091,94.2
15181.639,89.0,0.0,-0.196,90.6
15187.392,85.0,0.0,-0.368,89.9
15198.442,84.0,0.0,-0.199,88.7
15204.395,82.0,0.0,-0.273,87.9
15209.541,84.0,0.0,-0.099,87.3
15231.423,82.0,0.0,-0.199,85.0
15237.411,82.0,0.0,-0.100,84.3
15292.418,85.0,0.0,0.091,83.4
15320.396,83.0,0.0,-0.299,84.1
15325.680,83.0,0.0,0.000,84.0
15331.386,81.0,0.0,-0.182,83.7
15336.402,79.0,0.0,-0.400,83.3
15347.433,78.0,0.0,-0.100,82.3
15352.503,76.0,0.0,-0.198,81.6
15358.453,73.0,0.0,-0.400,80.5
15369.513,73.0,0.0,0.100,78.4
15381.583,75.0,0.0,0.181,76.1
15387.366,75.0,0.0,0.275,75.4
15392.440,76.0,0.0,0.092,74.9
15398.414,79.0,0.0,0.399,74.7
15408.450,79.0,0.0,0.000,75.1
15435.438,75.0,0.0,-0.273,76.9
15441.430,76.0,0.0,0.000,77.2
15457.416,72.0,0.0,-0.300,77.0
15468.408,70.0,0.0,-0.200,75.4
15479.443,66.0,0.0,-0.199,73.4
15485.387,64.0,0.0,-0.500,72.2
15490.390,61.0,0.0,-0.457,70.9
15500.446,60.0,0.0,-0.099,68.4
15527.362,57.0,0.0,-0.183,62.1
15543.441,54.0,0.0,-0.272,58.9
15549.429,54.0,0.0,0.000,58.0
15571.564,52.0,0.0,-0.200,55.7
15577.438,53.0,0.0,-0.099,55.2
15605.550,50.0,0.0,0.000,52.2
15629.439,46.0,0.0,-0.298,50.6
15635.368,46.0,0.0,-0.091,49.9
15673.587,45.0,0.0,-0.299,46.3
15679.461,47.0,0.0,0.100,46.0
15701.465,49.0,0.0,0.181,46.5
15712.519,50.0,0.0,0.100,47.2
15723.573,48.0,0.0,-0.197,47.8
15729.390,44.0,0.0,-0.456,47.8
15740.400,45.0,0.0,0.200,47.5
15745.483,44.0,0.0,-0.099,47.3
15757.453,47.0,0.0,0.181,46.9
15768.414,47.0,0.0,0.000,46.7
15779.384,52.0,0.0,0.456,46.7
15789.396,52.0,0.0,0.000,47.4
15794.456,50.0,0.0,-0.199,47.9
15800.403,51.0,0.0,-0.100,48.6
15805.622,49.0,0.0,-0.197,49.1
15811.425,48.0,0.0,-0.272,49.4
15816.684,49.0,0.0,0.000,49.7
15822.384,50.0,0.0,0.182,49.9
15827.424,49.0,0.0,0.000,50.0
15833.394,52.0,0.0,0.200,50.3
15843.473,56.0,0.0,0.397,50.8
15849.365,54.0,0.0,0.091,51.0
15860.435,51.0,0.0,-0.299,51.6
15865.622,52.0,0.0,-0.199,51.7
15871.372,51.0,0.0,0.000,51.9
15876.410,50.0,0.0,-0.199,52.0
15881.418,50.0,0.0,-0.100,52.0
15896.529,47.0,0.0,-0.297,51.6
15902.453,47.0,0.0,-0.183,51.0
15907.549,47.0,0.0,0.000,50.5
15935.392,41.0,0.0,-0.546,47.5
15945.501,39.0,0.0,-0.198,45.9
15951.379,37.0,0.0,-0.364,44.8
15962.464,38.0,0.0,0.100,42.8
15968.392,39.0,0.0,0.300,42.0
15973.421,38.0,0.0,0.000,41.3
15995.506,40.0,0.0,0.197,38.7
16001.419,38.0,0.0,-0.100,38.4
16028.422,42.0,0.0,0.100,39.2
16033.441,42.0,0.0,0.199,39.5
16038.505,42.0,0.0,0.000,39.7
16061.418,45.0,0.0,0.182,41.5
16066.434,45.0,0.0,0.092,42.1
16094.521,48.0,0.0,0.100,45.1
16100.472,49.0,0.0,0.200,45.8
16105.596,51.0,0.0,0.298,46.4
16117.419,53.0,0.0,0.185,48.0
16123.390,53.0,0.0,0.091,48.8
16162.421,50.0,0.0,-0.200,51.8
16168.438,51.0,0.0,0.000,51.9
16218.396,51.0,0.0,-0.185,51.6
16223.421,52.0,0.0,0.000,51.6
16228.420,54.0,0.0,0.299,51.7
16238.516,56.0,0.0,0.198,52.4
16244.459,56.0,0.0,0.100,52.8
16272.383,57.0,0.0,0.182,54.8
16277.415,56.0,0.0,-0.091,55.3
16311.404,58.0,0.0,0.273,56.5
16322.358,60.0,0.0,0.183,56.9
16327.441,59.0,0.0,0.000,57.2
16333.403,58.0,0.0,-0.199,57.4
16338.503,58.0,0.0,-0.099,57.5
16349.636,61.0,0.0,0.198,58.1
16355.428,60.0,0.0,0.091,58.4
16361.375,59.0,0.0,-0.187,58.7
16366.428,59.0,0.0,-0.091,59.0
16389.391,60.0,0.0,0.182,59.0
16399.584,60.0,0.0,0.000,59.3
16421.438,62.0,0.0,0.199,59.4
16427.438,62.0,0.0,0.299,59.7
16433.383,62.0,0.0,0.000,60.0
16444.393,66.0,0.0,0.363,61.0
16449.588,65.0,0.0,0.199,61.5
16455.408,64.0,0.0,-0.200,62.0
16461.391,64.0,0.0,-0.093,62.4
16477.420,66.0,0.0,0.298,63.6
16488.514,68.0,0.0,0.198,64.6
16494.371,68.0,0.0,0.092,65.2
16516.410,68.0,0.0,0.200,66.2
16522.359,68.0,0.0,0.000,66.5
16544.369,71.0,0.0,0.273,68.1
16549.441,71.0,0.0,0.183,68.3
16554.443,70.0,0.0,-0.099,68.5
16565.365,68.0,0.0,-0.183,69.0
16580.480,68.0,0.0,0.000,68.9
16629.482,69.0,0.0,0.199,67.0
16635.414,68.0,0.0,-0.100,67.1
16645.451,71.0,0.0,0.299,67.7
16656.395,71.0,0.0,0.000,68.5
16677.438,74.0,0.0,0.199,70.4
16693.654,77.0,0.0,0.194,72.3
16699.529,78.0,0.0,0.300,73.0
16705.389,77.0,0.0,0.093,73.6
16716.389,79.0,0.0,0.182,74.9
16721.418,78.0,0.0,0.000,75.6
16777.424,78.0,0.0,0.200,77.5
16783.418,80.0,0.0,0.274,77.6
16788.457,79.0,0.0,0.000,77.7
16794.443,79.0,0.0,-0.199,77.8
16800.424,79.0,0.0,0.000,77.9
16839.506,84.0,0.0,0.298,80.0
16845.398,81.0,0.0,0.000,80.1
16878.422,84.0,0.0,0.091,81.6
16888.463,81.0,0.0,-0.299,81.9
16894.457,82.0,0.0,0.100,81.9
16900.467,83.0,0.0,0.273,81.9
16906.480,81.0,0.0,-0.100,82.0
16928.422,84.0,0.0,0.199,82.3
16933.570,85.0,0.0,0.296,82.5
16939.463,84.0,0.0,0.000,82.6
16956.420,87.0,0.0,0.274,83.6
16962.422,86.0,0.0,0.000,84.0
17022.533,88.0,0.0,0.198,86.9
17028.438,90.0,0.0,0.299,87.2
17034.377,91.0,0.0,0.184,87.6
17039.418,91.0,0.0,0.091,87.9
17056.375,94.0,0.0,0.182,89.3
17067.391,97.0,0.0,0.299,90.9
17072.549,97.0,0.0,0.099,91.9
17084.383,98.0,0.0,0.185,93.8
17089.461,100.0,0.0,0.300,94.7
17094.666,103.0,0.0,0.486,95.7
17100.414,103.0,0.0,0.200,96.8
17106.389,106.0,0.0,0.281,97.9
17111.426,105.0,0.0,0.199,99.0
17128.406,106.0,0.0,0.000,102.1
17133.625,104.0,0.0,-0.298,102.9
17139.451,105.0,0.0,-0.091,103.6
17156.443,105.0,0.0,0.299,104.6
17161.465,108.0,0.0,0.399,104.9
17167.441,111.0,0.0,0.597,105.4
17178.424,112.0,0.0,0.100,106.4
17200.439,114.0,0.0,0.199,109.1
17206.430,114.0,0.0,0.100,110.2
17217.383,112.0,0.0,-0.183,111.7
17222.410,114.0,0.0,0.000,112.2
17238.424,115.0,0.0,0.182,113.1
17244.408,117.0,0.0,0.277,113.5
17249.480,114.0,0.0,-0.100,113.8
17254.488,114.0,0.0,-0.298,113.9
17265.498,111.0,0.0,-0.199,113.5
17271.461,113.0,0.0,0.199,113.5
17276.572,113.0,0.0,0.100,113.5
17327.678,110.0,0.0,-0.197,113.4
17333.504,110.0,0.0,-0.400,113.1
17339.488,110.0,0.0,0.100,112.8
17357.420,108.0,0.0,-0.200,111.4
17363.467,110.0,0.0,0.100,110.9
17374.553,109.0,0.0,-0.199,110.0
17380.414,109.0,0.0,0.000,109.7
17391.402,106.0,0.0,-0.273,109.1
17396.406,107.0,0.0,-0.091,108.8
17407.447,105.0,0.0,-0.199,108.2
17413.424,104.0,0.0,-0.299,107.7
17419.420,105.0,0.0,0.100,107.3
17435.406,106.0,0.0,0.183,106.2
17446.400,108.0,0.0,0.100,106.0
17456.432,110.0,0.0,0.199,106.5
17462.408,110.0,0.0,0.000,106.8
17501.412,110.0,0.0,-0.200,110.5
17513.395,109.0,0.0,-0.091,110.6
17541.408,106.0,0.0,-0.200,109.3
17547.406,107.0,0.0,0.091,108.8
17552.408,109.0,0.0,0.300,108.5
17557.449,113.0,0.0,0.597,108.5
17563.410,111.0,0.0,0.100,108.6
17568.549,111.0,0.0,-0.199,108.8
17585.404,109.0,0.0,0.000,109.0
17591.412,111.0,0.0,0.200,109.3
17597.410,111.0,0.0,0.000,109.7
17642.424,110.0,0.0,-0.182,111.6
17653.424,111.0,0.0,0.000,111.6
17664.426,110.0,0.0,-0.200,111.5
17669.557,111.0,0.0,0.000,111.4
17686.443,113.0,0.0,0.199,111.0
17691.473,114.0,0.0,0.272,111.2
17697.422,114.0,0.0,0.091,111.4
17724.459,117.0,0.0,0.182,113.3
17736.391,121.0,0.0,0.366,115.0
17741.441,121.0,0.0,0.200,115.7
17747.422,121.0,0.0,0.100,116.7
17758.473,125.0,0.0,0.398,118.3
17769.492,129.0,0.0,0.399,120.5
17780.469,132.0,0.0,0.273,123.3
17786.441,132.0,0.0,0.100,124.9
17797.391,130.0,0.0,-0.183,127.0
17802.438,130.0,0.0,-0.091,128.0
17825.445,133.0,0.0,0.091,131.2
17841.455,136.0,0.0,0.274,132.1
17852.449,137.0,0.0,0.100,132.9
17858.389,139.0,0.0,0.200,133.5
17863.559,137.0,0.0,0.000,134.1
17869.449,136.0,0.0,-0.271,134.5
17875.422,137.0,0.0,0.000,135.0
17880.504,139.0,0.0,0.271,135.5
17886.396,139.0,0.0,0.182,136.1
17891.406,139.0,0.0,0.000,136.6
17929.453,140.0,0.0,0.273,138.2
17935.445,138.0,0.0,0.091,138.3
17979.443,139.0,0.0,0.299,137.4
17985.412,138.0,0.0,0.093,137.6
18007.416,134.0,0.0,-0.365,137.1
18018.443,132.0,0.0,-0.200,136.3
18023.451,134.0,0.0,0.100,136.1
18029.404,135.0,0.0,0.199,135.9
18035.404,135.0,0.0,0.100,135.7
18051.484,137.0,0.0,0.298,135.0
18056.545,137.0,0.0,0.099,134.9
18062.527,139.0,0.0,0.181,135.0
18079.449,140.0,0.0,0.091,136.8
18091.467,139.0,0.0,-0.199,137.9
18097.426,138.0,0.0,0.000,138.3
18102.543,137.0,0.0,-0.297,138.5
18108.404,137.0,0.0,-0.091,138.6
18131.398,137.0,0.0,-0.182,138.7
18136.412,137.0,0.0,-0.100,138.4
18152.498,136.0,0.0,-0.199,137.7
18163.553,134.0,0.0,-0.300,137.2
18169.387,136.0,0.0,0.091,137.0
18174.604,133.0,0.0,-0.098,136.7
18191.406,136.0,0.0,0.200,135.4
18202.465,137.0,0.0,0.100,135.3
18224.371,136.0,0.0,-0.185,135.7
18229.430,137.0,0.0,0.000,135.8
18235.426,138.0,0.0,0.199,136.2
18241.461,137.0,0.0,-0.198,136.6
18252.488,134.0,0.0,-0.300,136.8
18258.393,131.0,0.0,-0.367,136.4
18269.449,130.0,0.0,-0.199,135.2
18274.469,130.0,0.0,0.000,134.6
18286.443,128.0,0.0,-0.300,133.0
18292.422,127.0,0.0,-0.182,132.0
18297.447,127.0,0.0,-0.099,131.1
18324.426,125.0,0.0,-0.183,127.9
18330.396,126.0,0.0,0.000,127.4
18341.422,124.0,0.0,-0.199,126.4
18346.479,123.0,0.0,-0.099,125.9
18352.447,120.0,0.0,-0.299,125.3
18363.426,120.0,0.0,0.000,124.1
18374.414,118.0,0.0,-0.200,122.6
18385.436,117.0,0.0,-0.100,121.0
18391.443,115.0,0.0,-0.199,120.1
18396.451,114.0,0.0,-0.299,119.3
18401.463,114.0,0.0,-0.100,118.4
18406.613,116.0,0.0,0.197,117.7
18412.439,116.0,0.0,0.100,117.3
18417.631,114.0,0.0,-0.197,116.8
18423.396,111.0,0.0,-0.456,116.1
18434.453,111.0,0.0,0.099,114.5
18445.520,108.0,0.0,-0.199,113.0
18451.426,105.0,0.0,-0.400,112.1
18462.457,105.0,0.0,0.000,110.3
18479.451,109.0,0.0,0.300,107.9
18485.453,109.0,0.0,0.200,107.5
18491.428,108.0,0.0,-0.091,107.4
18519.678,113.0,0.0,0.488,108.0
18531.387,113.0,0.0,0.000,109.8
18536.463,113.0,0.0,-0.200,110.3
18547.559,110.0,0.0,-0.197,110.8
18553.428,110.0,0.0,-0.100,110.9
18575.445,108.0,0.0,-0.181,111.3
18586.432,106.0,0.0,-0.299,110.2
18592.418,107.0,0.0,0.000,109.4
18608.592,108.0,0.0,0.199,108.0
18620.416,107.0,0.0,-0.093,107.6
18626.455,110.0,0.0,0.199,107.5
18632.406,111.0,0.0,0.364,107.6
18637.432,112.0,0.0,0.182,107.8
18643.400,112.0,0.0,0.091,108.2
18654.449,114.0,0.0,0.199,109.4
18659.633,119.0,0.0,0.488,110.2
18671.416,119.0,0.0,0.000,112.5
18693.469,121.0,0.0,0.297,116.2
18698.539,121.0,0.0,0.199,117.0
18709.414,122.0,0.0,0.000,118.9
18736.420,124.0,0.0,0.200,121.2
18742.406,122.0,0.0,-0.091,121.7
18777.428,125.0,0.0,0.200,122.7
18783.400,127.0,0.0,0.456,123.1
18788.475,126.0,0.0,0.000,123.5
18794.420,124.0,0.0,-0.300,123.6
18799.539,124.0,0.0,0.000,123.7
18805.422,123.0,0.0,-0.200,123.7
18811.420,124.0,0.0,0.000,123.8
18828.420,123.0,0.0,-0.200,124.1
18834.418,123.0,0.0,-0.100,124.3
18855.459,125.0,0.0,0.199,123.5
18860.572,128.0,0.0,0.394,123.8
18871.436,130.0,0.0,0.184,124.9
18877.375,130.0,0.0,0.000,125.4
18892.568,129.0,0.0,-0.197,127.1
18898.465,131.0,0.0,0.091,127.8
18910.555,134.0,0.0,0.200,129.8
18916.420,132.0,0.0,-0.091,130.6
18921.451,132.0,0.0,-0.184,131.0
18927.379,131.0,0.0,-0.091,131.2
18932.469,130.0,0.0,-0.199,131.3
18938.400,130.0,0.0,-0.100,131.2
18949.492,128.0,0.0,-0.199,131.0
18955.418,128.0,0.0,-0.100,130.8
18983.479,131.0,0.0,0.298,129.0
18989.463,128.0,0.0,-0.100,128.9
18995.420,128.0,0.0,-0.273,128.7
19000.527,128.0,0.0,0.000,128.6
19011.582,131.0,0.0,0.295,128.7
19017.406,130.0,0.0,0.091,129.0
19022.426,129.0,0.0,-0.200,129.1
19028.463,129.0,0.0,-0.099,129.2
19044.598,128.0,0.0,-0.198,129.2
19050.484,129.0,0.0,0.000,129.1
19067.422,130.0,0.0,0.200,129.3
19073.426,129.0,0.0,0.000,129.2
19089.408,128.0,0.0,-0.182,129.0
19094.426,128.0,0.0,-0.092,128.9
19117.420,128.0,0.0,0.182,128.0
19122.420,128.0,0.0,0.000,128.0
19132.518,126.0,0.0,-0.198,127.6
19143.539,126.0,0.0,0.000,127.0
19182.465,128.0,0.0,0.199,126.5
19188.428,130.0,0.0,0.300,126.6
19193.572,129.0,0.0,0.099,126.9
19243.412,126.0,0.0,-0.183,129.2
19248.488,125.0,0.0,-0.366,128.8
19254.473,125.0,0.0,-0.090,128.4
19266.434,127.0,0.0,0.199,127.5
19277.439,127.0,0.0,0.000,127.2
19287.471,129.0,0.0,0.199,127.2
19297.654,129.0,0.0,0.000,127.1
19341.439,131.0,0.0,0.181,128.9
19346.635,132.0,0.0,0.099,129.2
19357.422,131.0,0.0,-0.199,129.8
19363.398,131.0,0.0,-0.091,130.0
19395.438,130.0,0.0,-0.184,131.3
19401.400,131.0,0.0,-0.091,131.3
19427.518,133.0,0.0,0.198,131.3
19433.482,132.0,0.0,-0.100,131.5
19438.619,131.0,0.0,-0.197,131.5
19444.434,132.0,0.0,0.000,131.5
19455.377,130.0,0.0,-0.183,131.4
19460.410,131.0,0.0,0.000,131.4
19476.512,132.0,0.0,0.297,131.2
19482.455,133.0,0.0,0.182,131.4
19487.611,133.0,0.0,0.099,131.3
19503.459,136.0,0.0,0.199,132.0
19509.424,134.0,0.0,-0.100,132.2
19521.398,137.0,0.0,0.182,133.3
19526.557,136.0,0.0,0.000,133.9
19532.455,134.0,0.0,-0.271,134.3
19543.523,134.0,0.0,0.000,134.7
19549.381,135.0,0.0,0.182,134.9
19554.381,135.0,0.0,0.092,135.0
19559.412,137.0,0.0,0.199,135.1
19564.430,136.0,0.0,0.100,135.2
19569.445,135.0,0.0,-0.199,135.3
19585.592,132.0,0.0,-0.199,134.7
19591.451,132.0,0.0,-0.100,134.4
19607.428,134.0,0.0,0.186,134.1
19613.436,134.0,0.0,0.000,133.9
19647.383,136.0,0.0,0.186,133.8
19652.432,134.0,0.0,0.000,134.1
19685.604,136.0,0.0,0.199,134.6
19691.436,135.0,0.0,0.099,134.8
19719.561,133.0,0.0,-0.196,134.7
19737.715,131.0,0.0,0.000,133.9
19743.400,134.0,0.0,0.274,133.7
19754.416,135.0,0.0,0.091,133.4
19760.404,133.0,0.0,-0.299,133.2
19765.564,135.0,0.0,0.098,133.3
19771.488,136.0,0.0,0.198,133.3
19782.453,137.0,0.0,0.091,133.8
19798.469,139.0,0.0,0.199,135.4
19804.416,139.0,0.0,0.100,136.2
19810.383,141.0,0.0,0.183,136.7
19815.521,140.0,0.0,0.099,137.2
19821.400,138.0,0.0,-0.272,137.8
19832.414,138.0,0.0,0.000,138.0
19837.676,140.0,0.0,0.391,138.3
19848.385,143.0,0.0,0.280,139.0
19853.439,142.0,0.0,0.099,139.5
19913.539,144.0,0.0,0.198,142.2
19924.607,143.0,0.0,-0.198,142.5
19936.416,140.0,0.0,-0.278,142.4
19941.430,140.0,0.0,-0.091,142.2
19953.492,143.0,0.0,0.198,142.0
19959.473,143.0,0.0,0.100,142.0
19977.463,146.0,0.0,0.184,142.5
19983.443,146.0,0.0,0.100,142.7
20028.400,148.0,0.0,0.183,146.1
20033.500,146.0,0.0,-0.091,146.3
20084.518,145.0,0.0,-0.299,147.2
20096.492,144.0,0.0,0.000,146.5
20117.506,146.0,0.0,0.199,145.7
20123.434,146.0,0.0,0.091,145.6
20169.467,149.0,0.0,0.100,147.7
20191.615,145.0,0.0,-0.394,147.7
20202.627,145.0,0.0,0.000,147.3
20213.494,146.0,0.0,0.199,147.0
20219.443,146.0,0.0,0.000,146.8
20280.486,145.0,0.0,-0.200,146.9
20285.512,145.0,0.0,-0.099,146.8
20302.459,143.0,0.0,-0.184,146.1
20312.498,143.0,0.0,0.000,145.3
20323.496,141.0,0.0,-0.182,144.5
20335.471,142.0,0.0,0.182,143.5
20340.547,143.0,0.0,0.100,143.2
20346.432,148.0,0.0,0.547,143.2
20357.445,146.0,0.0,-0.100,143.5
20390.549,144.0,0.0,-0.299,145.8
20402.473,144.0,0.0,0.000,146.1
20419.500,146.0,0.0,0.181,145.7
20425.477,146.0,0.0,0.100,145.6
20463.490,144.0,0.0,-0.200,145.4
20469.441,146.0,0.0,0.000,145.4
20529.520,146.0,0.0,-0.199,146.9
20535.477,146.0,0.0,0.000,146.9
20658.479,144.0,0.0,-0.300,145.3
20669.510,144.0,0.0,0.100,145.0
20686.473,146.0,0.0,0.300,144.7
20691.482,143.0,0.0,0.000,144.7
20697.443,143.0,0.0,-0.300,144.4
20702.445,143.0,0.0,0.000,144.2
20742.490,145.0,0.0,0.182,143.7
20748.473,143.0,0.0,-0.299,143.6
20754.482,143.0,0.0,-0.091,143.5
20810.477,146.0,0.0,0.099,144.3
20915.469,143.0,0.0,-0.200,144.8
20921.521,144.0,0.0,0.000,144.6
20927.434,145.0,0.0,0.182,144.6
20932.611,145.0,0.0,0.099,144.6
20978.439,140.0,0.0,-0.400,143.9
20983.445,141.0,0.0,-0.183,143.8
20989.432,142.0,0.0,0.182,143.5
20994.666,144.0,0.0,0.294,143.4
21000.432,144.0,0.0,0.182,143.4
21005.439,145.0,0.0,0.100,143.3
21010.443,146.0,0.0,0.200,143.3
21016.430,146.0,0.0,0.000,143.3
21021.551,148.0,0.0,0.396,143.7
21027.434,148.0,0.0,0.200,144.2
21032.568,148.0,0.0,0.000,144.5
21055.410,148.0,0.0,-0.182,147.0
21065.482,148.0,0.0,0.000,147.6
21092.434,151.0,0.0,0.275,148.4
21103.434,152.0,0.0,0.100,149.1
21109.430,156.0,0.0,0.400,149.6
21114.506,155.0,0.0,0.199,150.3
21120.473,155.0,0.0,-0.100,151.0
21126.422,154.0,0.0,-0.182,151.6
21131.428,154.0,0.0,-0.091,152.1
21257.426,155.0,0.0,0.182,153.4
21262.531,153.0,0.0,0.000,153.4
21268.432,153.0,0.0,-0.182,153.4
21273.594,150.0,0.0,-0.398,153.2
21290.432,149.0,0.0,-0.100,152.3
21295.434,146.0,0.0,-0.273,151.9
21301.438,147.0,0.0,-0.200,151.2
21307.424,145.0,0.0,-0.091,150.5
21357.424,148.0,0.0,0.200,145.8
21362.553,149.0,0.0,0.298,146.0
21368.432,149.0,0.0,0.000,146.4
21396.432,147.0,0.0,-0.200,147.6
21401.463,147.0,0.0,-0.100,147.9
21418.412,145.0,0.0,-0.182,148.0
21423.426,145.0,0.0,-0.092,147.6
21451.484,147.0,0.0,0.199,146.0
21462.557,148.0,0.0,0.099,146.1
21478.441,146.0,0.0,-0.200,146.3
21483.469,148.0,0.0,0.100,146.5
21489.438,150.0,0.0,0.364,147.0
21494.439,149.0,0.0,0.091,147.2
21593.502,146.0,0.0,-0.183,148.2
21599.463,146.0,0.0,-0.091,147.9
21621.482,148.0,0.0,0.199,147.1
21632.482,149.0,0.0,0.000,147.1
21698.426,153.0,0.0,0.365,149.2
21708.504,155.0,0.0,0.198,150.1
21713.506,155.0,0.0,0.100,150.7
21780.510,153.0,0.0,-0.200,154.8
21786.475,153.0,0.0,-0.091,154.7
21834.578,155.0,0.0,0.197,153.3
21840.506,155.0,0.0,0.000,153.4
21886.439,157.0,0.0,0.274,155.0
21892.441,154.0,0.0,-0.183,155.2
21903.482,154.0,0.0,0.100,154.9
21914.482,156.0,0.0,0.182,155.0
21920.455,156.0,0.0,0.100,155.0
21925.477,154.0,0.0,-0.182,154.9
21931.418,150.0,0.0,-0.547,154.6
21941.498,151.0,0.0,0.099,153.9
21991.420,148.0,0.0,-0.183,150.3
22002.490,148.0,0.0,0.000,149.7
22013.471,145.0,0.0,-0.273,149.1
22018.482,151.0,0.0,0.276,148.9
22029.482,150.0,0.0,-0.091,149.2
22035.439,149.0,0.0,-0.273,149.1
22041.461,148.0,0.0,-0.200,149.0
22046.561,151.0,0.0,0.198,149.0
22057.615,150.0,0.0,0.000,149.3
22085.473,146.0,0.0,-0.181,149.2
22091.473,147.0,0.0,-0.091,148.8
22118.412,150.0,0.0,0.000,148.3
22123.453,150.0,0.0,0.182,148.3
22128.480,150.0,0.0,0.000,148.4
22134.498,147.0,0.0,-0.198,148.3
22151.430,146.0,0.0,-0.092,148.1
22201.498,148.0,0.0,0.199,146.3
22207.482,147.0,0.0,0.000,146.5
22240.447,149.0,0.0,0.200,147.4
22245.480,149.0,0.0,0.000,147.6
22266.588,147.0,0.0,-0.197,148.3
22278.473,148.0,0.0,0.100,148.3
22289.473,144.0,0.0,-0.364,147.9
22294.477,144.0,0.0,-0.200,147.6
22300.439,143.0,0.0,-0.100,147.1
22305.502,142.0,0.0,-0.199,146.5
22316.621,141.0,0.0,-0.099,145.1
22377.428,144.0,0.0,0.185,141.9
22382.451,144.0,0.0,0.091,142.2
22387.496,146.0,0.0,0.199,142.5
22399.451,146.0,0.0,0.000,143.4
22472.484,143.0,0.0,-0.091,144.3
22699.494,146.0,0.0,0.099,144.9
22705.514,149.0,0.0,0.500,145.2
22717.453,148.0,0.0,-0.182,146.2
22729.434,148.0,0.0,0.000,146.7
22734.477,149.0,0.0,0.182,147.0
22739.488,148.0,0.0,0.000,147.3
22745.486,145.0,0.0,-0.399,147.6
22755.512,145.0,0.0,0.000,147.6
22790.447,142.0,0.0,-0.274,145.0
22796.455,143.0,0.0,0.000,144.3
22801.484,145.0,0.0,0.300,144.1
22807.443,144.0,0.0,0.091,143.8
22812.445,143.0,0.0,-0.200,143.8
22817.453,143.0,0.0,-0.100,143.6
22861.496,145.0,0.0,0.199,143.4
22867.512,146.0,0.0,0.300,143.5
22873.506,144.0,0.0,0.000,143.6
22897.473,141.0,0.0,-0.274,143.7
22908.449,142.0,0.0,0.091,143.5
22924.488,144.0,0.0,0.200,143.3
22929.627,146.0,0.0,0.297,143.3
22940.492,147.0,0.0,0.092,143.8
22963.438,145.0,0.0,-0.182,145.2
22974.498,145.0,0.0,0.000,145.7
23013.449,146.0,0.0,0.272,144.6
23018.590,146.0,0.0,0.099,144.5
23066.520,149.0,0.0,0.199,146.5
23072.502,150.0,0.0,0.298,146.9
23077.510,150.0,0.0,0.091,147.2
23089.480,152.0,0.0,0.182,148.3
23095.428,154.0,0.0,0.366,148.9
23100.473,153.0,0.0,0.091,149.4
23105.490,152.0,0.0,-0.199,149.9
23110.518,153.0,0.0,0.000,150.3
23154.477,151.0,0.0,-0.200,152.7
23159.525,152.0,0.0,0.000,152.5
23165.496,153.0,0.0,0.199,152.5
23170.660,153.0,0.0,0.099,152.5
23209.531,152.0,0.0,-0.199,152.9
23220.496,151.0,0.0,-0.091,152.9
23243.441,154.0,0.0,0.200,152.7
23249.424,154.0,0.0,0.000,152.8
23283.480,155.0,0.0,0.273,153.0
23289.445,155.0,0.0,0.183,153.3
23295.453,155.0,0.0,0.000,153.6
23300.492,157.0,0.0,0.181,153.9
23306.500,157.0,0.0,0.100,154.2
23351.500,158.0,0.0,0.198,157.0
23357.479,156.0,0.0,-0.100,157.1
23411.623,156.0,0.0,0.197,155.1
23417.521,156.0,0.0,0.100,155.0
23463.453,153.0,0.0,-0.091,155.0
23479.471,152.0,0.0,-0.183,154.2
23484.475,152.0,0.0,-0.099,153.9
23500.537,155.0,0.0,0.199,153.6
23506.486,155.0,0.0,0.100,153.5
23551.562,155.0,0.0,-0.197,155.3
23557.527,155.0,0.0,0.000,155.6
23563.539,154.0,0.0,-0.200,155.6
23568.533,154.0,0.0,-0.091,155.5
23612.658,155.0,0.0,0.197,153.6
23618.521,155.0,0.0,0.090,153.6
23629.518,157.0,0.0,0.200,153.9
23641.479,159.0,0.0,0.100,154.9
23647.438,159.0,0.0,0.182,155.6
23652.490,160.0,0.0,0.091,156.2
23701.566,161.0,0.0,0.297,158.9
23707.432,161.0,0.0,0.182,159.1
23712.500,162.0,0.0,0.091,159.2
23745.486,159.0,0.0,-0.100,160.3
23767.445,158.0,0.0,-0.183,160.2
23784.500,154.0,0.0,-0.298,158.8
23789.512,154.0,0.0,-0.100,158.2
23800.500,156.0,0.0,0.182,157.1
23805.510,157.0,0.0,0.299,156.9
23810.521,158.0,0.0,0.200,156.8
23816.500,158.0,0.0,0.091,156.6
23839.482,161.0,0.0,0.181,157.0
23845.432,164.0,0.0,0.400,157.8
23856.424,164.0,0.0,0.000,159.7
23917.486,167.0,0.0,0.182,164.7
23922.490,166.0,0.0,0.099,164.9
23928.453,164.0,0.0,-0.274,165.0
23933.484,164.0,0.0,-0.182,165.1
23950.492,163.0,0.0,0.100,164.5
23967.459,161.0,0.0,-0.182,163.8
23973.516,161.0,0.0,-0.100,163.4
24017.529,163.0,0.0,0.199,161.4
24023.496,161.0,0.0,-0.100,161.4
24029.414,160.0,0.0,-0.182,161.2
24034.479,162.0,0.0,0.100,161.3
24051.465,164.0,0.0,0.181,161.7
24062.492,164.0,0.0,0.000,162.3
24111.473,162.0,0.0,-0.199,164.1
24116.479,163.0,0.0,0.000,163.9
24149.416,167.0,0.0,0.183,164.0
24154.564,168.0,0.0,0.299,164.3
24160.480,168.0,0.0,0.100,164.7
24165.506,170.0,0.0,0.183,165.1
24171.428,169.0,0.0,0.091,165.8
24192.500,170.0,0.0,0.199,167.8
24203.461,171.0,0.0,0.091,168.9
24225.490,174.0,0.0,0.199,170.7
24242.479,175.0,0.0,0.000,172.3
24275.473,178.0,0.0,0.199,174.9
24281.459,178.0,0.0,0.000,175.5
24303.510,182.0,0.0,0.199,177.3
24309.492,184.0,0.0,0.400,178.1
24315.455,183.0,0.0,0.091,179.0
24336.562,186.0,0.0,0.198,181.8
24342.459,186.0,0.0,0.091,182.5
24375.494,183.0,0.0,-0.091,184.6
24397.639,183.0,0.0,-0.198,184.5
24403.475,183.0,0.0,-0.100,184.2
24414.445,185.0,0.0,0.182,184.1
24419.520,185.0,0.0,0.099,184.1
24436.580,188.0,0.0,0.197,184.8
24447.604,189.0,0.0,0.000,185.7
24470.445,190.0,0.0,0.200,187.7
24476.455,190.0,0.0,0.100,188.2
24504.453,193.0,0.0,0.100,190.2
24538.600,190.0,0.0,-0.198,191.4
24544.439,191.0,0.0,0.000,191.4
24582.508,188.0,0.0,-0.299,190.5
24587.604,187.0,0.0,-0.198,190.1
24593.451,188.0,0.0,0.000,189.8
24598.615,189.0,0.0,0.182,189.6
24609.500,190.0,0.0,0.092,189.4
24625.502,192.0,0.0,0.199,189.3
24630.568,192.0,0.0,0.099,189.4
24670.479,196.0,0.0,0.273,192.1
24680.584,200.0,0.0,0.396,193.5
24686.541,200.0,0.0,0.100,194.3
24760.492,200.0,0.0,-0.199,200.5
24766.461,200.0,0.0,0.000,200.5
24787.543,198.0,0.0,-0.199,200.2
24793.492,198.0,0.0,-0.100,200.0
24815.461,195.0,0.0,-0.182,198.5
24820.494,193.0,0.0,-0.298,197.9
24826.484,193.0,0.0,-0.181,197.2
24831.596,192.0,0.0,-0.099,196.5
24859.469,190.0,0.0,-0.182,193.1
24865.447,190.0,0.0,-0.091,192.4
24875.543,192.0,0.0,0.198,191.5
24886.480,192.0,0.0,0.000,191.4
24923.533,193.0,0.0,0.199,191.5
24929.547,193.0,0.0,0.100,191.8
24958.494,195.0,0.0,0.199,192.5
24964.498,196.0,0.0,0.100,193.0
25002.531,199.0,0.0,0.200,196.0
25008.471,199.0,0.0,0.000,196.7
25047.457,196.0,0.0,-0.300,198.6
25053.457,197.0,0.0,-0.100,198.5
25076.434,199.0,0.0,0.182,198.1
25087.455,200.0,0.0,0.000,198.4
25098.453,198.0,0.0,-0.182,198.3
25110.453,196.0,0.0,-0.091,198.1
25144.457,198.0,0.0,0.184,197.2
25154.496,199.0,0.0,0.100,196.9
25182.533,202.0,0.0,0.200,198.3
25194.465,202.0,0.0,0.000,199.6
25216.508,204.0,0.0,0.200,201.2
25221.512,204.0,0.0,0.100,201.6
25232.510,202.0,0.0,-0.199,202.3
25238.508,203.0,0.0,-0.092,202.5
25244.500,204.0,0.0,0.182,202.8
25250.449,203.0,0.0,-0.091,203.0
25255.518,202.0,0.0,-0.298,203.1
25261.469,203.0,0.0,0.000,203.1
25266.529,204.0,0.0,0.199,203.3
25272.445,204.0,0.0,0.091,203.4
25300.455,202.0,0.0,-0.182,203.5
25306.490,203.0,0.0,0.091,203.3
25312.439,201.0,0.0,-0.183,203.1
25323.516,200.0,0.0,-0.100,202.8
25357.480,198.0,0.0,-0.200,200.6
25363.479,199.0,0.0,0.000,200.1
25391.465,199.0,0.0,0.182,198.9
25396.475,197.0,0.0,-0.091,198.8
25402.463,197.0,0.0,-0.200,198.5
25407.518,197.0,0.0,0.000,198.2
25435.523,200.0,0.0,0.091,198.3
25441.447,201.0,0.0,0.200,198.5
25446.455,200.0,0.0,0.000,198.7
25535.508,204.0,0.0,0.400,200.5
25541.473,204.0,0.0,0.200,200.9
25547.480,203.0,0.0,-0.092,201.2
25558.477,205.0,0.0,0.200,201.8
25563.502,206.0,0.0,0.100,202.3
25623.504,209.0,0.0,0.182,206.5
25628.623,209.0,0.0,0.100,206.7
25640.514,211.0,0.0,0.184,207.6
25646.486,213.0,0.0,0.273,208.2
25652.467,211.0,0.0,-0.100,208.8
25657.486,211.0,0.0,-0.182,209.2
25662.525,212.0,0.0,0.099,209.7
25706.490,216.0,0.0,0.200,213.1
25717.504,217.0,0.0,0.091,214.1
25723.514,216.0,0.0,-0.200,214.5
25734.463,217.0,0.0,0.100,215.2
25739.514,218.0,0.0,0.183,215.6
25745.502,217.0,0.0,0.000,216.0
25751.473,216.0,0.0,-0.182,216.3
25756.490,217.0,0.0,0.000,216.5
25811.465,220.0,0.0,0.183,217.7
25816.510,222.0,0.0,0.299,218.2
25822.691,223.0,0.0,0.198,218.7
25833.508,224.0,0.0,0.000,219.9
25856.492,227.0,0.0,0.200,222.7
25861.598,227.0,0.0,0.099,223.5
25885.467,224.0,0.0,-0.091,225.2
25896.488,227.0,0.0,0.299,225.5
25901.520,227.0,0.0,0.199,225.8
25907.508,225.0,0.0,-0.198,225.9
25912.607,227.0,0.0,0.000,225.9
25946.492,224.0,0.0,-0.091,225.7
25957.445,226.0,0.0,0.183,225.7
25962.617,226.0,0.0,0.000,225.7
25991.506,227.0,0.0,0.182,225.8
25997.441,228.0,0.0,0.091,226.0
26007.518,230.0,0.0,0.198,226.8
26018.486,231.0,0.0,0.091,227.6
26024.484,232.0,0.0,0.185,228.1
26029.496,231.0,0.0,0.000,228.5
26041.514,232.0,0.0,0.200,229.6
26047.469,232.0,0.0,0.100,230.2
26058.498,234.0,0.0,0.200,231.2
26063.656,233.0,0.0,0.000,231.6
26069.506,236.0,0.0,0.182,232.1
26074.518,236.0,0.0,0.299,232.6
26080.525,237.0,0.0,0.091,233.2
26109.555,240.0,0.0,0.100,236.6
26115.518,242.0,0.0,0.300,237.3
26126.488,245.0,0.0,0.300,239.1
26131.492,245.0,0.0,0.092,240.0
26148.479,243.0,0.0,-0.182,242.0
26153.580,244.0,0.0,-0.099,242.5
26159.531,245.0,0.0,0.199,243.0
26165.490,244.0,0.0,-0.091,243.5
26203.592,243.0,0.0,-0.199,243.8
26209.525,243.0,0.0,-0.100,243.7
26227.469,245.0,0.0,0.182,243.6
26232.490,246.0,0.0,0.091,243.8
26273.438,243.0,0.0,-0.185,244.4
26278.469,244.0,0.0,0.000,244.4
26306.494,245.0,0.0,0.200,243.9
26311.639,247.0,0.0,0.299,244.0
26322.479,247.0,0.0,0.000,244.8
26328.467,246.0,0.0,-0.300,245.0
26333.477,247.0,0.0,0.000,245.3
26343.561,245.0,0.0,-0.198,245.8
26355.463,246.0,0.0,0.092,246.0
26378.463,243.0,0.0,-0.091,245.3
26383.479,242.0,0.0,-0.200,244.9
26400.545,241.0,0.0,-0.100,243.3
26417.463,242.0,0.0,0.182,242.2
26429.430,242.0,0.0,0.000,241.9
26450.549,242.0,0.0,0.200,241.3
26456.521,242.0,0.0,0.091,241.5
26499.539,244.0,0.0,0.199,242.2
26516.447,246.0,0.0,0.092,243.4
26526.477,248.0,0.0,0.199,244.3
26531.498,248.0,0.0,0.100,244.7
26576.465,245.0,0.0,-0.091,246.8
26614.506,246.0,0.0,0.182,245.2
26620.432,247.0,0.0,0.274,245.3
26625.492,247.0,0.0,0.000,245.4
26705.436,252.0,0.0,0.455,247.5
26716.523,253.0,0.0,0.099,248.6
26721.531,255.0,0.0,0.200,249.1
26727.469,259.0,0.0,0.548,250.1
26738.469,258.0,0.0,-0.091,252.1
26794.621,260.0,0.0,0.198,258.3
26805.609,261.0,0.0,0.091,258.7
26871.520,258.0,0.0,-0.199,259.8
26876.652,258.0,0.0,-0.099,259.7
26921.471,255.0,0.0,-0.200,257.5
26926.650,255.0,0.0,-0.099,257.2
26971.486,249.0,0.0,-0.455,254.4
26982.523,250.0,0.0,0.100,253.3
26988.428,254.0,0.0,0.365,253.0
26998.492,253.0,0.0,-0.099,252.6
27021.594,252.0,0.0,-0.198,252.2
27027.520,252.0,0.0,0.000,252.0
27048.502,251.0,0.0,-0.199,252.7
27054.498,251.0,0.0,-0.091,252.5
27939.459,258.0,0.0,0.700,251.7
27950.438,256.0,0.0,-0.182,253.0
27960.455,257.0,0.0,0.100,253.9
27982.443,258.0,0.0,0.182,255.9
27987.715,257.0,0.0,0.000,256.5
27993.430,255.0,0.0,-0.273,256.9
28004.443,252.0,0.0,-0.299,256.3
28010.420,252.0,0.0,-0.182,255.7
28015.572,253.0,0.0,0.099,255.3
28032.512,258.0,0.0,0.499,254.8
28043.488,258.0,0.0,0.000,255.2
28049.455,262.0,0.0,0.199,255.3
28054.467,262.0,0.0,0.399,255.9
28059.521,264.0,0.0,0.199,256.7
28069.621,264.0,0.0,0.000,258.7
28092.451,261.0,0.0,-0.273,261.9
28097.494,260.0,0.0,-0.099,262.2
28103.471,262.0,0.0,0.200,262.2
28109.436,263.0,0.0,0.274,262.6
28114.604,267.0,0.0,0.494,262.8
28125.676,268.0,0.0,0.199,263.3
28131.432,267.0,0.0,0.000,263.6
28153.496,269.0,0.0,0.199,265.5
28159.463,268.0,0.0,0.000,266.3
28164.609,264.0,0.0,-0.396,266.6
28175.676,262.0,0.0,-0.199,266.5
28181.430,263.0,0.0,0.000,266.2
28198.432,260.0,0.0,-0.094,264.8
28203.492,258.0,0.0,-0.399,264.0
28208.564,258.0,0.0,-0.197,263.2
28214.578,259.0,0.0,0.199,262.1
28220.430,257.0,0.0,-0.091,261.4
28225.660,255.0,0.0,-0.299,260.5
28231.463,256.0,0.0,-0.091,259.7
28236.475,258.0,0.0,0.199,259.4
28253.535,262.0,0.0,0.496,258.4
28258.586,260.0,0.0,0.000,258.3
28281.479,263.0,0.0,0.092,260.3
28292.436,265.0,0.0,0.183,261.1
28297.498,266.0,0.0,0.099,261.8
28308.617,263.0,0.0,-0.296,262.9
28314.598,263.0,0.0,0.000,263.1
28325.674,261.0,0.0,-0.299,263.3
28331.432,261.0,0.0,0.000,263.3
28336.457,259.0,0.0,-0.185,263.2
28342.449,260.0,0.0,-0.091,262.8
28347.506,261.0,0.0,0.198,262.4
28353.543,258.0,0.0,0.000,261.7
28358.656,257.0,0.0,-0.395,261.0
28364.604,256.0,0.0,-0.181,260.0
28370.436,261.0,0.0,0.557,259.7
28381.467,260.0,0.0,-0.100,259.3
28397.537,263.0,0.0,0.273,259.3
28403.555,263.0,0.0,0.199,259.7
28408.670,263.0,0.0,0.000,260.1
28414.602,262.0,0.0,-0.200,260.4
28425.432,259.0,0.0,-0.277,261.1
28431.477,259.0,0.0,0.000,261.1
28437.447,257.0,0.0,-0.187,260.9
28447.543,258.0,0.0,0.099,260.4
28453.523,259.0,0.0,0.199,260.1
28458.676,258.0,0.0,-0.098,259.8
28464.602,255.0,0.0,-0.498,259.1
28475.432,255.0,0.0,0.000,257.7
28480.455,257.0,0.0,0.299,257.2
28486.480,257.0,0.0,0.199,257.0
28492.449,257.0,0.0,0.100,256.8
28536.465,259.0,0.0,0.299,256.8
28541.465,257.0,0.0,-0.100,256.8
28546.586,257.0,0.0,-0.198,256.9
28552.496,259.0,0.0,0.181,257.1
28557.664,259.0,0.0,0.000,257.3
28563.545,257.0,0.0,-0.181,257.6
28581.436,258.0,0.0,0.100,257.6
28586.480,259.0,0.0,0.272,257.8
28592.496,261.0,0.0,0.199,258.0
28597.611,261.0,0.0,0.296,258.2
28603.555,261.0,0.0,-0.100,258.6
28608.725,260.0,0.0,-0.198,258.8
28614.602,260.0,0.0,-0.091,258.9
28637.527,262.0,0.0,0.198,260.0
28643.559,262.0,0.0,0.298,260.4
28649.467,263.0,0.0,0.199,260.7
28654.609,263.0,0.0,0.100,260.8
28660.434,265.0,0.0,0.182,261.1
28682.477,268.0,0.0,0.199,263.1
28693.547,271.0,0.0,0.299,264.9
28698.648,270.0,0.0,0.000,265.7
28721.441,270.0,0.0,-0.200,268.6
28727.453,270.0,0.0,-0.100,269.2
28732.496,272.0,0.0,0.199,269.6
28737.547,273.0,0.0,0.297,270.1
28743.561,273.0,0.0,0.199,270.6
28748.686,273.0,0.0,0.000,271.0
28759.436,275.0,0.0,0.186,271.6
28770.477,276.0,0.0,0.000,272.7
28792.496,273.0,0.0,-0.300,274.4
28797.678,273.0,0.0,-0.099,274.5
28803.578,272.0,0.0,-0.198,274.5
28809.508,274.0,0.0,0.092,274.5
28815.459,276.0,0.0,0.277,274.6
28820.459,275.0,0.0,0.091,274.6
28825.473,278.0,0.0,0.200,274.6
28830.494,275.0,0.0,0.000,274.7
28835.562,276.0,0.0,-0.198,274.7
28841.443,276.0,0.0,0.091,274.8
28852.494,274.0,0.0,-0.200,275.0
28858.439,275.0,0.0,-0.093,275.1
28864.436,277.0,0.0,0.276,275.4
28869.443,277.0,0.0,0.200,275.6
28874.477,278.0,0.0,0.100,275.9
28880.443,281.0,0.0,0.399,276.4
28891.430,281.0,0.0,0.000,277.2
28896.688,278.0,0.0,-0.298,277.5
28902.439,275.0,0.0,-0.545,277.4
28913.465,271.0,0.0,-0.399,276.9
28918.523,271.0,0.0,-0.099,276.7
28930.490,273.0,0.0,0.183,275.7
28935.604,272.0,0.0,0.099,275.3
28946.709,275.0,0.0,0.298,274.0
28952.504,276.0,0.0,0.100,273.5
28957.762,279.0,0.0,0.399,273.5
28963.512,284.0,0.0,0.727,274.3
28969.439,287.0,0.0,0.300,275.4
28980.439,291.0,0.0,0.364,278.7
28985.650,289.0,0.0,-0.197,280.5
28991.488,287.0,0.0,-0.298,282.0
28996.680,283.0,0.0,-0.498,282.9
29002.430,287.0,0.0,0.000,284.0
29007.436,288.0,0.0,0.465,285.0
29012.471,287.0,0.0,0.000,285.9
29017.473,284.0,0.0,-0.399,286.6
29022.490,286.0,0.0,-0.100,286.8
29027.570,286.0,0.0,0.198,286.9
29033.545,283.0,0.0,-0.300,286.6
29038.699,285.0,0.0,0.000,286.1
29044.586,288.0,0.0,0.453,285.8
29055.436,291.0,0.0,0.277,286.2
29060.438,294.0,0.0,0.468,287.0
29065.455,293.0,0.0,0.200,287.6
29070.484,293.0,0.0,-0.100,288.2
29075.555,288.0,0.0,-0.495,288.5
29081.465,292.0,0.0,0.000,289.0
29086.658,292.0,0.0,0.496,289.5
29092.441,292.0,0.0,0.000,290.1
29097.705,295.0,0.0,0.299,291.0
29108.459,297.0,0.0,0.186,292.5
29114.465,297.0,0.0,0.100,293.2
29131.514,298.0,0.0,0.199,294.2
29142.439,301.0,0.0,0.275,295.8
29147.734,300.0,0.0,0.100,296.6
29153.469,299.0,0.0,-0.181,297.3
29159.504,303.0,0.0,0.200,298.2
29165.490,303.0,0.0,0.000,299.0
29170.525,299.0,0.0,-0.299,299.3
29181.488,297.0,0.0,-0.182,299.7
29186.684,296.0,0.0,-0.396,299.7
29192.506,296.0,0.0,0.000,299.6
29197.738,298.0,0.0,0.199,299.5
29203.473,295.0,0.0,-0.091,299.1
29225.557,297.0,0.0,0.199,297.0
29230.654,299.0,0.0,0.294,296.9
29242.438,302.0,0.0,0.182,297.5
29248.439,303.0,0.0,0.093,298.1
29253.494,303.0,0.0,0.199,298.7
29259.488,306.0,0.0,0.272,299.3
29264.523,306.0,0.0,0.199,300.2
29270.436,307.0,0.0,0.091,301.1
29275.580,308.0,0.0,0.199,302.3
29281.447,310.0,0.0,0.272,303.5
29286.654,310.0,0.0,0.181,304.7
29292.506,313.0,0.0,0.298,305.8
29298.443,310.0,0.0,-0.100,306.7
29303.471,310.0,0.0,-0.274,307.4
29309.445,311.0,0.0,0.091,308.2
29314.523,306.0,0.0,-0.500,308.7
29325.592,308.0,0.0,0.299,309.1
29331.432,309.0,0.0,0.091,309.3
29365.545,306.0,0.0,-0.297,308.3
29370.623,306.0,0.0,-0.196,307.9
29375.641,307.0,0.0,0.099,307.8
29404.455,305.0,0.0,-0.200,306.5
29409.467,305.0,0.0,0.000,306.4
29419.611,303.0,0.0,-0.197,305.6
29425.625,303.0,0.0,-0.100,305.2
29431.439,306.0,0.0,0.400,305.0
29442.439,305.0,0.0,-0.100,305.2
29448.436,310.0,0.0,0.200,305.6
29453.463,312.0,0.0,0.635,306.0
29458.512,310.0,0.0,0.000,306.5
29464.514,307.0,0.0,-0.498,306.8
29469.639,312.0,0.0,0.196,307.2
29475.617,311.0,0.0,0.298,307.8
29487.455,312.0,0.0,0.000,309.6
29498.518,314.0,0.0,0.181,311.0
29504.496,315.0,0.0,0.000,311.7
29515.598,309.0,0.0,-0.595,312.0
29521.434,311.0,0.0,-0.182,312.1
29526.652,318.0,0.0,0.897,312.8
29538.438,315.0,0.0,-0.279,314.0
29549.439,314.0,0.0,-0.200,314.3
29554.504,316.0,0.0,0.199,314.4
29560.494,314.0,0.0,0.000,314.6
29565.621,319.0,0.0,0.297,314.8
29571.439,325.0,0.0,1.001,315.5
29582.467,324.0,0.0,-0.200,318.3
29594.441,324.0,0.0,-0.091,319.4
29599.479,325.0,0.0,0.182,320.2
29604.553,328.0,0.0,0.396,321.0
29609.615,327.0,0.0,0.197,322.1
29615.584,327.0,0.0,0.000,323.2
29621.479,321.0,0.0,0.000,323.8
29626.686,322.0,0.0,-0.299,324.4
29638.441,321.0,0.0,-0.200,324.1
29643.449,320.0,0.0,-0.273,323.8
29648.527,316.0,0.0,-0.496,323.3
29654.555,309.0,0.0,-0.366,320.3
29665.625,311.0,0.0,0.299,318.9
29671.439,311.0,0.0,0.200,317.5
29676.693,311.0,0.0,-0.100,316.2
29698.492,310.0,0.0,-0.199,311.8
29703.535,308.0,0.0,-0.396,310.9
29708.605,309.0,0.0,-0.099,310.1
29720.441,307.0,0.0,-0.278,310.1
29725.645,307.0,0.0,-0.199,309.8
29731.457,308.0,0.0,0.100,309.5
29758.621,304.0,0.0,-0.295,307.5
29770.441,304.0,0.0,0.000,306.4
29775.637,306.0,0.0,0.200,306.0
29781.471,309.0,0.0,0.498,305.9
29793.482,313.0,0.0,0.300,306.6
29804.576,318.0,0.0,0.496,308.2
29810.438,318.0,0.0,0.182,309.3
29815.646,319.0,0.0,0.100,310.3
29821.438,312.0,0.0,-0.600,311.2
29832.441,320.0,0.0,0.727,313.5
29837.443,317.0,0.0,0.000,314.6
29842.463,313.0,0.0,-0.699,315.2
29853.514,312.0,0.0,-0.200,315.7
29858.666,313.0,0.0,0.000,315.7
29870.775,318.0,0.0,0.487,315.2
29882.451,321.0,0.0,0.364,315.7
29887.545,321.0,0.0,0.198,316.3
29893.518,322.0,0.0,0.099,316.6
29898.598,324.0,0.0,0.297,317.1
29904.555,329.0,0.0,0.598,318.4
29910.535,329.0,0.0,0.199,319.9
29915.639,330.0,0.0,0.099,321.4
29926.688,327.0,0.0,-0.299,324.2
29932.488,324.0,0.0,-0.498,325.1
29943.551,323.0,0.0,-0.099,325.9
29948.619,322.0,0.0,-0.197,326.1
29954.586,324.0,0.0,0.100,326.3
29959.699,324.0,0.0,0.198,326.3
29965.619,324.0,0.0,0.000,325.9
29971.469,327.0,0.0,0.273,325.6
29982.459,326.0,0.0,-0.091,325.1
29987.490,332.0,0.0,0.500,325.2
29997.602,332.0,0.0,0.000,326.4
30003.510,331.0,0.0,-0.182,327.1
30008.715,336.0,0.0,0.397,328.1
30020.520,333.0,0.0,-0.199,330.2
30031.473,338.0,0.0,0.456,332.0
30042.445,341.0,0.0,0.273,334.1
30047.619,339.0,0.0,0.000,335.2
30064.543,338.0,0.0,-0.181,337.3
30075.443,339.0,0.0,0.092,338.0
30103.471,337.0,0.0,-0.273,338.8
30108.744,340.0,0.0,0.297,338.6
30120.441,344.0,0.0,0.468,338.8
30125.443,341.0,0.0,0.091,339.1
30130.443,342.0,0.0,-0.200,339.4
30135.510,344.0,0.0,0.298,339.8
30146.631,344.0,0.0,0.000,340.9
30157.680,342.0,0.0,-0.200,341.8
30163.441,343.0,0.0,-0.091,342.3
30169.438,340.0,0.0,-0.400,342.5
30180.443,340.0,0.0,0.000,342.4
30191.438,343.0,0.0,0.273,342.1
30202.441,344.0,0.0,0.200,342.0
30207.732,344.0,0.0,0.000,342.0
30230.436,347.0,0.0,0.273,342.7
30235.592,346.0,0.0,0.099,343.3
30241.439,344.0,0.0,-0.300,343.7
30246.656,344.0,0.0,-0.099,344.1
30257.701,346.0,0.0,0.200,344.6
30269.438,345.0,0.0,-0.093,344.9
30279.520,349.0,0.0,0.397,345.4
30285.607,345.0,0.0,-0.198,345.6
30291.477,344.0,0.0,-0.300,345.4
30296.639,345.0,0.0,0.100,345.3
30302.453,346.0,0.0,0.182,345.5
30307.680,346.0,0.0,0.100,345.6
30340.680,345.0,0.0,-0.195,346.0
30352.459,345.0,0.0,0.000,345.9
30358.465,346.0,0.0,0.185,346.0
30364.482,346.0,0.0,0.100,346.1
30369.545,350.0,0.0,0.397,346.1
30375.541,348.0,0.0,0.099,346.4
30380.590,347.0,0.0,-0.494,346.5
30386.572,347.0,0.0,-0.100,346.5
30398.684,345.0,0.0,-0.200,346.5
30404.447,345.0,0.0,-0.092,346.5
30430.611,346.0,0.0,0.198,345.8
30436.607,347.0,0.0,0.397,345.4
30442.443,346.0,0.0,0.000,345.4
30459.465,349.0,0.0,0.373,345.7
30464.482,349.0,0.0,0.100,346.0
30470.490,351.0,0.0,0.181,346.6
30475.582,352.0,0.0,0.298,347.1
30481.471,352.0,0.0,0.091,347.9
30515.559,350.0,0.0,-0.298,351.5
30526.617,351.0,0.0,0.099,351.8
30537.631,353.0,0.0,0.200,352.0
30548.506,354.0,0.0,0.000,352.3
30565.490,356.0,0.0,0.183,352.9
30570.492,352.0,0.0,-0.182,352.9
30575.549,350.0,0.0,-0.596,352.8
30581.553,350.0,0.0,-0.099,352.8
30586.654,352.0,0.0,0.180,352.9
30592.572,352.0,0.0,0.099,352.9
30621.521,353.0,0.0,0.200,352.0
30626.586,351.0,0.0,-0.099,351.7
30632.500,349.0,0.0,-0.400,351.4
30637.650,348.0,0.0,-0.200,351.3
30643.479,349.0,0.0,0.000,351.0
30654.512,350.0,0.0,0.299,350.5
30660.498,349.0,0.0,0.000,350.1
30671.473,347.0,0.0,-0.182,349.3
30677.506,348.0,0.0,0.000,349.0
30682.643,350.0,0.0,0.296,348.5
30693.555,351.0,0.0,0.092,348.7
30704.527,348.0,0.0,-0.400,349.3
30716.492,347.0,0.0,0.000,348.8
30921.475,349.0,0.0,0.182,347.2
30926.492,349.0,0.0,0.091,347.3
30942.465,348.0,0.0,-0.183,347.5
30947.508,347.0,0.0,-0.091,348.0
30952.547,346.0,0.0,-0.198,347.9
30957.668,344.0,0.0,-0.295,347.7
30963.488,344.0,0.0,-0.183,347.4
30968.496,346.0,0.0,0.185,347.2
30980.482,345.0,0.0,0.000,346.7
31041.457,341.0,0.0,-0.275,343.9
31046.658,342.0,0.0,-0.199,343.6
31052.543,341.0,0.0,0.000,343.3
31058.500,343.0,0.0,0.200,343.1
31063.508,345.0,0.0,0.365,343.1
31074.520,348.0,0.0,0.300,343.5
31080.508,347.0,0.0,0.091,343.8
31085.559,350.0,0.0,0.297,344.3
31091.674,350.0,0.0,0.000,344.9
31103.477,347.0,0.0,-0.100,345.9
31108.502,343.0,0.0,-0.553,346.3
31119.518,342.0,0.0,-0.199,346.3
31124.521,341.0,0.0,-0.100,346.1
31129.551,340.0,0.0,-0.199,345.6
31135.566,337.0,0.0,-0.398,344.8
31141.479,338.0,0.0,-0.182,343.8
31146.656,338.0,0.0,0.100,342.6
31169.465,337.0,0.0,-0.280,339.4
31174.516,338.0,0.0,0.000,339.0
31180.469,339.0,0.0,0.200,338.7
31185.561,339.0,0.0,0.000,338.6
31196.627,341.0,0.0,0.181,338.8
31202.477,340.0,0.0,0.000,339.1
31207.529,339.0,0.0,-0.200,339.2
31213.479,339.0,0.0,-0.091,339.2
31224.496,341.0,0.0,0.182,339.1
31229.502,342.0,0.0,0.364,339.4
31234.506,341.0,0.0,0.000,339.7
31278.607,344.0,0.0,0.198,341.6
31284.527,343.0,0.0,0.000,342.0
31300.535,346.0,0.0,0.184,342.7
31306.488,348.0,0.0,0.455,343.3
31312.527,348.0,0.0,0.100,344.0
31323.502,349.0,0.0,0.300,344.8
31329.627,349.0,0.0,0.099,345.6
31346.543,351.0,0.0,0.182,347.5
31351.619,356.0,0.0,0.591,348.3
31363.527,361.0,0.0,0.363,351.0
31375.662,356.0,0.0,-0.495,353.5
31381.475,350.0,0.0,-1.093,353.9
31392.479,350.0,0.0,0.000,353.8
31397.498,347.0,0.0,-0.100,353.7
31402.521,347.0,0.0,-0.299,353.6
31407.584,345.0,0.0,-0.198,353.2
31413.566,343.0,0.0,-0.399,352.0
31419.479,344.0,0.0,0.000,350.8
31429.787,341.0,0.0,-0.291,347.6
31435.482,341.0,0.0,-0.185,346.1
31440.490,341.0,0.0,0.000,345.0
31462.543,338.0,0.0,-0.299,342.1
31467.670,339.0,0.0,-0.099,341.6
31473.645,336.0,0.0,-0.298,340.9
31479.488,335.0,0.0,-0.199,340.0
31485.479,335.0,0.0,-0.092,339.2
31495.537,333.0,0.0,-0.199,337.8
31501.477,333.0,0.0,-0.091,337.0
31562.529,334.0,0.0,0.199,332.7
31568.461,333.0,0.0,0.000,332.7
31573.549,332.0,0.0,-0.181,332.6
31579.477,333.0,0.0,0.000,332.5
31594.521,335.0,0.0,0.199,332.9
31600.457,335.0,0.0,0.100,333.2
31628.514,337.0,0.0,0.182,334.4
31633.547,336.0,0.0,0.000,334.7
31805.529,339.0,0.0,0.000,338.1
31848.510,342.0,0.0,0.200,339.4
31859.553,343.0,0.0,0.100,340.4
31915.541,346.0,0.0,0.299,343.1
31921.535,346.0,0.0,0.199,343.5
31927.527,347.0,0.0,-0.100,343.9
31990.525,344.0,0.0,-0.399,347.5
32001.527,340.0,0.0,-0.299,346.8
32012.527,340.0,0.0,-0.100,345.4
32017.713,335.0,0.0,-0.588,344.4
32029.527,336.0,0.0,0.181,342.0
32045.523,340.0,0.0,0.273,339.2
32050.562,340.0,0.0,0.199,338.7
32056.537,340.0,0.0,0.000,338.3
32062.527,344.0,0.0,0.399,338.3
32073.723,345.0,0.0,0.098,339.1
32089.711,347.0,0.0,0.195,341.7
32101.510,347.0,0.0,0.000,343.6
32106.732,344.0,0.0,-0.295,344.1
32117.588,341.0,0.0,-0.299,344.4
32123.533,341.0,0.0,-0.100,344.4
32140.521,347.0,0.0,0.452,343.7
32150.564,348.0,0.0,0.100,344.3
32167.668,346.0,0.0,-0.197,344.8
32173.461,348.0,0.0,0.000,345.3
32222.527,353.0,0.0,0.298,348.3
32233.463,350.0,0.0,-0.274,349.2
32243.502,347.0,0.0,-0.299,349.3
32254.518,345.0,0.0,-0.199,348.8
32259.711,346.0,0.0,0.099,348.7
32282.457,347.0,0.0,0.182,347.5
32298.545,348.0,0.0,0.000,346.6
32304.521,346.0,0.0,-0.271,346.5
32309.725,346.0,0.0,-0.099,346.7
32315.557,344.0,0.0,-0.400,346.6
32326.512,340.0,0.0,-0.365,345.9
32332.455,342.0,0.0,0.182,345.6
32337.516,344.0,0.0,0.299,345.2
32342.527,340.0,0.0,-0.199,344.8
32347.623,340.0,0.0,-0.396,344.2
32353.527,341.0,0.0,0.100,343.4
32358.686,343.0,0.0,0.298,342.9
32364.477,346.0,0.0,0.457,342.6
32376.457,346.0,0.0,0.000,342.6
32397.650,351.0,0.0,0.494,344.7
32408.539,353.0,0.0,0.184,346.7
32414.453,351.0,0.0,-0.182,347.8
32419.463,350.0,0.0,-0.274,348.5
32424.533,350.0,0.0,-0.099,349.1
32446.568,348.0,0.0,-0.299,350.7
32452.461,350.0,0.0,-0.200,350.9
32457.660,353.0,0.0,0.497,351.0
32468.482,353.0,0.0,0.000,351.1
32500.703,355.0,0.0,0.197,352.8
32506.611,356.0,0.0,0.272,353.4
32518.473,360.0,0.0,0.185,354.9
32529.475,366.0,0.0,0.500,356.6
32540.621,369.0,0.0,0.295,359.2
32546.572,366.0,0.0,-0.498,360.7
32551.713,367.0,0.0,-0.195,361.7
32557.674,366.0,0.0,0.000,362.9
32585.531,366.0,0.0,-0.199,367.3
32590.605,363.0,0.0,-0.296,367.1
32596.471,360.0,0.0,-0.548,366.5
32601.732,360.0,0.0,-0.198,365.6
32607.613,361.0,0.0,0.090,364.9
32619.480,364.0,0.0,0.278,364.1
32630.482,365.0,0.0,0.091,363.6
32635.514,367.0,0.0,0.199,363.5
32646.602,365.0,0.0,-0.199,363.4
32652.479,366.0,0.0,-0.091,363.7
32657.514,367.0,0.0,0.183,364.2
32663.465,367.0,0.0,0.091,364.9
32678.539,369.0,0.0,0.298,366.3
32684.488,370.0,0.0,0.182,366.8
32689.639,370.0,0.0,0.099,367.2
32700.662,373.0,0.0,0.295,368.0
32712.484,374.0,0.0,0.182,369.4
32718.469,374.0,0.0,0.091,370.1
32739.650,377.0,0.0,0.397,372.8
32750.494,379.0,0.0,0.184,374.4
32756.494,384.0,0.0,0.545,375.5
32766.498,386.0,0.0,0.200,377.6
32788.625,388.0,0.0,0.000,382.4
32805.488,391.0,0.0,0.273,385.8
32811.480,394.0,0.0,0.455,387.3
32817.496,397.0,0.0,0.500,388.6
32828.559,400.0,0.0,0.198,391.3
32834.488,400.0,0.0,0.000,392.5
32839.633,405.0,0.0,0.498,394.0
32845.492,408.0,0.0,0.727,395.8
32856.492,411.0,0.0,0.273,399.6
32861.508,410.0,0.0,0.100,401.7
32877.574,409.0,0.0,-0.199,406.1
32883.488,410.0,0.0,0.000,407.2
32912.512,413.0,0.0,0.200,410.7
32918.512,413.0,0.0,0.100,410.9
32923.531,414.0,0.0,0.200,411.2
32928.590,413.0,0.0,0.000,411.4
32934.484,412.0,0.0,-0.199,411.6
32939.660,412.0,0.0,-0.099,411.9
32955.535,410.0,0.0,-0.200,412.0
32961.555,408.0,0.0,-0.298,411.8
32972.586,409.0,0.0,0.100,411.0
32978.602,411.0,0.0,0.497,410.8
32984.500,411.0,0.0,0.182,410.4
32989.512,409.0,0.0,-0.183,410.1
32995.500,410.0,0.0,-0.091,409.8
33040.746,412.0,0.0,0.195,410.1
33046.508,413.0,0.0,0.091,410.3
33051.508,415.0,0.0,0.300,410.7
33062.512,419.0,0.0,0.363,412.1
33067.527,419.0,0.0,0.200,412.9
33072.648,420.0,0.0,0.099,413.8
33078.590,422.0,0.0,0.199,415.0
33089.645,425.0,0.0,0.398,417.3
33100.531,429.0,0.0,0.299,420.0
33105.535,428.0,0.0,0.199,421.4
33117.539,431.0,0.0,0.200,424.4
33122.551,431.0,0.0,0.099,425.4
33150.504,433.0,0.0,0.182,430.0
33156.461,433.0,0.0,0.000,430.7
33201.500,438.0,0.0,0.364,433.9
33207.520,438.0,0.0,0.099,434.4
33218.559,441.0,0.0,0.299,435.5
33223.707,441.0,0.0,0.197,436.1
33229.645,441.0,0.0,0.000,436.8
33256.500,441.0,0.0,-0.182,440.3
33261.570,442.0,0.0,0.000,440.7
33267.504,443.0,0.0,0.200,441.1
33272.688,443.0,0.0,0.000,441.7
33278.523,441.0,0.0,-0.181,441.9
33283.770,442.0,0.0,0.000,441.9
33299.527,446.0,0.0,0.398,442.4
33310.570,447.0,0.0,0.100,443.2
33321.723,449.0,0.0,0.293,444.4
33333.785,452.0,0.0,0.291,445.8
33339.535,452.0,0.0,0.091,446.7
33389.535,455.0,0.0,0.199,453.1
33395.488,457.0,0.0,0.273,453.6
33401.504,458.0,0.0,0.200,454.1
33412.625,463.0,0.0,0.595,455.4
33418.551,466.0,0.0,0.599,456.6
33429.520,469.0,0.0,0.273,459.1
33435.543,468.0,0.0,0.100,460.6
33446.492,470.0,0.0,0.183,463.2
33457.539,471.0,0.0,0.100,466.0
33485.516,471.0,0.0,-0.200,470.2
33491.543,470.0,0.0,-0.091,470.4
33508.562,468.0,0.0,-0.300,470.7
33513.727,469.0,0.0,0.000,470.4
33536.496,473.0,0.0,0.364,470.0
33548.535,475.0,0.0,0.199,470.4
33553.609,478.0,0.0,0.494,471.0
33559.562,481.0,0.0,0.399,472.0
33564.676,480.0,0.0,0.000,472.9
33576.473,484.0,0.0,0.499,475.2
33587.523,484.0,0.0,0.000,477.6
33604.590,486.0,0.0,0.198,481.3
33610.570,488.0,0.0,0.363,482.5
33615.750,489.0,0.0,0.098,483.4
33621.672,491.0,0.0,0.270,484.3
33627.488,495.0,0.0,0.547,485.6
33632.488,500.0,0.0,0.832,487.0
33643.496,500.0,0.0,-0.100,490.3
33648.504,509.0,0.0,0.820,491.8
33659.555,508.0,0.0,-0.091,496.2
33670.613,503.0,0.0,-0.400,499.7
33682.469,502.0,0.0,-0.093,502.2
33692.508,500.0,0.0,-0.199,503.5
33698.504,501.0,0.0,-0.100,503.4
33709.551,503.0,0.0,0.199,503.3
33720.613,504.0,0.0,0.100,502.6
33726.492,508.0,0.0,0.399,502.6
33732.539,505.0,0.0,0.092,502.8
33738.480,504.0,0.0,-0.200,503.0
33743.543,505.0,0.0,0.000,503.3
33754.656,507.0,0.0,0.197,504.1
33760.625,510.0,0.0,0.497,504.8
33766.461,508.0,0.0,0.091,505.5
33772.461,511.0,0.0,0.093,506.3
33788.496,512.0,0.0,0.200,507.9
33799.527,512.0,0.0,0.000,509.2
33826.473,516.0,0.0,0.200,512.1
33847.469,518.0,0.0,0.000,514.5
33852.684,516.0,0.0,-0.296,514.9
33858.535,517.0,0.0,0.000,515.3
33863.715,518.0,0.0,0.199,515.9
33869.461,516.0,0.0,-0.092,516.2
33874.492,515.0,0.0,-0.200,516.5
33879.492,516.0,0.0,0.000,516.7
33884.520,517.0,0.0,0.199,516.9
33889.555,514.0,0.0,-0.199,516.9
33894.617,513.0,0.0,-0.396,516.7
33900.578,511.0,0.0,-0.200,516.1
33906.527,510.0,0.0,-0.271,515.3
33911.637,509.0,0.0,-0.181,514.6
33917.539,509.0,0.0,0.000,513.9
33922.695,507.0,0.0,-0.181,513.1
33928.461,510.0,0.0,0.092,512.2
33933.500,509.0,0.0,0.185,511.6
33939.527,510.0,0.0,0.000,511.0
33950.590,506.0,0.0,-0.399,509.6
33961.504,501.0,0.0,-0.458,508.1
33967.477,497.0,0.0,-0.818,506.9
33972.488,500.0,0.0,-0.091,506.2
33978.516,501.0,0.0,0.200,505.3
33983.535,499.0,0.0,-0.099,504.7
33989.527,497.0,0.0,-0.399,503.5
33994.641,496.0,0.0,-0.198,502.5
34000.562,494.0,0.0,-0.272,501.0
34011.621,489.0,0.0,-0.452,498.0
34017.512,485.0,0.0,-0.499,496.0
34028.480,485.0,0.0,0.000,493.3
34033.551,482.0,0.0,-0.198,491.7
34039.520,483.0,0.0,-0.100,489.9
34050.617,481.0,0.0,-0.297,486.8
34056.496,480.0,0.0,-0.200,485.4
34061.613,470.0,0.0,-1.001,483.5
34072.512,469.0,0.0,-0.092,479.8
34078.512,467.0,0.0,-0.273,477.9
34089.496,465.0,0.0,-0.182,474.2
34094.684,464.0,0.0,-0.099,472.7
34100.551,467.0,0.0,0.181,471.0
34106.500,467.0,0.0,0.277,469.4
34111.539,466.0,0.0,-0.091,468.4
34122.539,468.0,0.0,0.182,466.5
34128.500,471.0,0.0,0.364,466.4
34133.613,468.0,0.0,0.000,466.2
34139.488,467.0,0.0,-0.364,466.2
34144.656,468.0,0.0,0.000,466.5
34150.512,465.0,0.0,-0.181,466.7
34155.754,466.0,0.0,-0.099,466.9
34172.488,469.0,0.0,0.273,467.2
34182.566,472.0,0.0,0.298,467.9
34199.566,475.0,0.0,0.100,469.6
34204.734,479.0,0.0,0.499,470.3
34210.523,476.0,0.0,0.100,471.3
34216.500,474.0,0.0,-0.299,472.1
34221.516,474.0,0.0,-0.182,472.9
34227.477,475.0,0.0,0.091,473.4
34232.555,476.0,0.0,0.199,474.1
34243.668,481.0,0.0,0.398,475.5
34254.508,483.0,0.0,0.184,477.0
34260.508,484.0,0.0,0.091,477.9
34265.520,486.0,0.0,0.200,478.7
34275.547,487.0,0.0,0.100,480.5
34280.551,488.0,0.0,0.200,481.6
34286.504,487.0,0.0,0.000,483.0
34291.500,490.0,0.0,0.183,484.0
34296.531,491.0,0.0,0.399,485.2
34301.590,491.0,0.0,0.099,486.2
34313.492,490.0,0.0,-0.183,487.9
34318.512,492.0,0.0,0.091,488.7
34323.527,494.0,0.0,0.399,489.4
34329.500,494.0,0.0,0.182,490.1
34334.645,495.0,0.0,0.099,490.9
34345.547,497.0,0.0,0.183,492.2
34351.504,498.0,0.0,0.274,493.2
34356.508,498.0,0.0,0.091,493.8
34367.500,503.0,0.0,0.455,495.5
34378.488,506.0,0.0,0.273,498.0
34383.645,506.0,0.0,0.099,499.3
34389.512,510.0,0.0,0.299,500.6
34400.520,511.0,0.0,0.091,503.3
34406.488,514.0,0.0,0.364,505.1
34417.496,516.0,0.0,0.200,508.2
34428.496,516.0,0.0,0.000,511.0
34438.699,518.0,0.0,0.196,513.0
34444.703,519.0,0.0,0.399,514.3
34450.500,519.0,0.0,0.091,515.3
34471.574,522.0,0.0,0.198,518.3
34476.617,522.0,0.0,0.099,518.8
34511.492,522.0,0.0,-0.183,522.5
34516.566,523.0,0.0,-0.100,522.7
34528.590,525.0,0.0,0.399,523.1
34540.551,529.0,0.0,0.365,524.1
34551.582,531.0,0.0,0.200,525.2
34557.500,531.0,0.0,0.091,525.8
34562.539,533.0,0.0,0.299,526.5
34573.547,534.0,0.0,0.091,528.5
34579.504,533.0,0.0,-0.182,529.6
34584.578,533.0,0.0,-0.100,530.5
34616.555,530.0,0.0,-0.199,532.7
34621.645,534.0,0.0,0.297,532.7
34627.523,532.0,0.0,0.182,532.5
34632.715,530.0,0.0,-0.199,532.2
34638.500,528.0,0.0,-0.364,531.7
34643.520,528.0,0.0,-0.185,531.2
34648.547,528.0,0.0,0.000,530.8
34664.551,527.0,0.0,-0.199,529.5
34669.641,528.0,0.0,0.000,529.2
34680.688,526.0,0.0,-0.199,528.5
34686.547,525.0,0.0,-0.099,527.8
34714.590,525.0,0.0,-0.199,526.3
34719.637,527.0,0.0,0.099,526.2
34725.477,527.0,0.0,0.184,526.1
34730.656,525.0,0.0,-0.181,526.0
34736.555,527.0,0.0,0.100,525.9
34742.465,524.0,0.0,-0.093,525.8
34747.492,523.0,0.0,-0.366,525.7
34758.547,519.0,0.0,-0.199,524.7
34763.582,518.0,0.0,-0.299,524.2
34773.715,519.0,0.0,0.099,522.7
34779.609,518.0,0.0,0.200,522.0
34784.793,513.0,0.0,-0.594,521.0
34796.473,508.0,0.0,-0.456,518.1
34801.508,505.0,0.0,-0.547,516.3
34807.508,501.0,0.0,-0.634,514.3
34812.602,498.0,0.0,-0.693,512.4
34823.699,497.0,0.0,-0.197,508.4
34829.566,496.0,0.0,-0.100,506.6
34840.656,501.0,0.0,0.399,503.1
34846.512,501.0,0.0,0.000,501.7
34852.492,497.0,0.0,-0.499,500.8
34862.625,495.0,0.0,-0.197,498.8
34873.699,496.0,0.0,0.099,497.8
34885.465,495.0,0.0,-0.187,497.5
34890.508,494.0,0.0,-0.092,497.3
34918.473,491.0,0.0,-0.183,494.2
34923.668,489.0,0.0,-0.399,493.8
34934.836,481.0,0.0,-0.773,492.1
34940.523,476.0,0.0,-0.499,488.8
34950.582,474.0,0.0,-0.199,487.2
34956.488,472.0,0.0,-0.366,485.3
34961.637,473.0,0.0,-0.099,483.5
34967.496,474.0,0.0,0.182,481.7
34972.539,477.0,0.0,0.367,480.2
34978.496,474.0,0.0,0.000,478.1
34983.527,475.0,0.0,-0.182,477.0
34989.535,478.0,0.0,0.399,475.6
34994.539,481.0,0.0,0.545,475.3
35000.555,479.0,0.0,0.000,475.4
35005.562,482.0,0.0,0.199,475.8
35010.613,478.0,0.0,-0.099,476.2
35016.512,477.0,0.0,-0.457,476.7
35021.699,478.0,0.0,0.100,477.1
35032.547,476.0,0.0,-0.184,477.6
35043.555,475.0,0.0,-0.100,477.8
35059.582,476.0,0.0,0.199,476.8
35064.738,475.0,0.0,0.000,476.3
35070.660,472.0,0.0,-0.361,475.6
35076.500,474.0,0.0,-0.091,475.2
35087.547,471.0,0.0,-0.200,474.1
35093.586,472.0,0.0,0.000,473.5
35099.535,473.0,0.0,0.299,473.2
35104.602,474.0,0.0,0.199,473.1
35116.516,475.0,0.0,0.091,473.1
35127.516,477.0,0.0,0.182,473.2
35132.531,476.0,0.0,0.000,473.5
35143.535,479.0,0.0,0.300,474.3
35149.547,482.0,0.0,0.599,475.4
35155.508,480.0,0.0,0.000,476.3
35160.629,478.0,0.0,-0.199,476.9
35166.508,477.0,0.0,-0.273,477.1
35171.695,478.0,0.0,0.000,477.4
35195.805,476.0,0.0,-0.184,478.1
35200.555,478.0,0.0,0.000,478.4
35211.594,474.0,0.0,-0.495,477.7
35222.668,472.0,0.0,-0.199,476.6
35228.508,472.0,0.0,-0.091,476.1
35335.512,474.0,0.0,0.182,472.8
35346.520,475.0,0.0,0.000,473.2
35363.691,472.0,0.0,-0.398,473.8
35369.504,469.0,0.0,-0.298,473.2
35380.543,469.0,0.0,-0.099,472.9
35391.523,475.0,0.0,0.599,472.6
35396.539,481.0,0.0,1.001,473.0
35401.582,484.0,0.0,0.895,473.7
35406.598,488.0,0.0,0.696,474.6
35418.523,492.0,0.0,0.363,477.5
35423.590,490.0,0.0,0.000,478.8
35429.465,486.0,0.0,-0.548,480.4
35439.523,486.0,0.0,0.000,483.0
35444.559,488.0,0.0,0.298,484.5
35449.562,491.0,0.0,0.498,486.3
35454.719,490.0,0.0,0.197,487.5
35460.535,495.0,0.0,0.365,488.5
35471.543,494.0,0.0,-0.091,489.9
35482.551,497.0,0.0,0.300,490.6
35493.574,500.0,0.0,0.200,492.9
35499.539,498.0,0.0,-0.100,494.3
35504.711,498.0,0.0,-0.196,495.3
35510.555,499.0,0.0,0.099,495.9
35516.590,495.0,0.0,-0.199,496.7
35522.551,491.0,0.0,-0.730,496.5
35533.508,490.0,0.0,0.000,495.8
35543.598,488.0,0.0,-0.198,494.9
35549.492,484.0,0.0,-0.455,493.7
35554.676,481.0,0.0,-0.595,492.2
35560.508,474.0,0.0,-0.908,489.9
35566.738,475.0,0.0,-0.199,487.5
35572.473,477.0,0.0,0.275,485.5
35577.535,476.0,0.0,0.000,483.8
35600.527,481.0,0.0,0.363,478.7
35605.562,480.0,0.0,0.100,478.2
35642.660,483.0,0.0,0.297,479.5
35648.520,490.0,0.0,0.913,480.5
35653.711,487.0,0.0,0.398,481.5
35659.551,484.0,0.0,-0.599,481.9
35665.551,483.0,0.0,-0.100,482.2
35671.547,481.0,0.0,-0.271,482.4
35677.508,481.0,0.0,-0.182,482.5
35693.672,480.0,0.0,0.099,482.4
35710.570,476.0,0.0,-0.399,481.1
35715.773,473.0,0.0,-0.587,480.0
35727.500,474.0,0.0,0.094,478.1
35732.570,471.0,0.0,-0.199,477.2
35738.527,471.0,0.0,-0.272,476.3
35743.688,471.0,0.0,0.000,475.6
35765.539,470.0,0.0,-0.199,472.6
35771.512,470.0,0.0,-0.091,471.8
35817.508,469.0,0.0,-0.186,470.2
35822.582,463.0,0.0,-0.593,469.6
35833.574,468.0,0.0,0.597,468.5
35844.711,469.0,0.0,0.099,468.2
35850.531,467.0,0.0,-0.200,468.1
35856.496,466.0,0.0,-0.299,467.7
35868.480,464.0,0.0,-0.200,466.5
35873.500,465.0,0.0,0.091,466.2
35879.484,469.0,0.0,0.500,466.1
35890.535,470.0,0.0,0.000,467.2
35895.691,471.0,0.0,0.198,467.4
35901.578,471.0,0.0,0.091,467.7
35907.500,469.0,0.0,-0.199,467.8
35918.555,469.0,0.0,0.000,468.1
35924.496,472.0,0.0,0.300,468.6
35935.609,474.0,0.0,0.199,470.2
35941.613,474.0,0.0,0.100,470.8
35946.746,478.0,0.0,0.495,471.5
35952.625,482.0,0.0,0.599,472.6
35958.496,478.0,0.0,-0.200,473.5
35963.559,474.0,0.0,-0.794,473.9
35974.551,474.0,0.0,0.000,475.0
35985.637,472.0,0.0,-0.200,475.6
35996.754,472.0,0.0,0.097,475.2
36002.629,468.0,0.0,-0.272,474.7
36008.523,471.0,0.0,-0.181,473.8
36014.562,468.0,0.0,-0.092,472.6
36020.484,473.0,0.0,0.700,471.7
36025.547,478.0,0.0,0.911,471.8
36036.664,479.0,0.0,0.000,472.6
36042.656,477.0,0.0,-0.298,473.1
36048.539,479.0,0.0,0.091,473.7
36077.473,482.0,0.0,0.458,477.9
36082.594,480.0,0.0,0.198,478.5
36088.477,482.0,0.0,0.000,478.8
36093.695,482.0,0.0,0.199,479.1
36099.504,485.0,0.0,0.299,479.7
36104.777,483.0,0.0,0.000,480.4
36131.555,485.0,0.0,0.200,482.9
36136.676,484.0,0.0,-0.198,483.2
36142.637,483.0,0.0,-0.099,483.7
36153.688,481.0,0.0,-0.200,483.6
36159.477,485.0,0.0,0.091,483.5
36164.551,484.0,0.0,0.276,483.5
36170.539,485.0,0.0,0.100,483.6
36181.582,486.0,0.0,0.199,484.1
36186.699,490.0,0.0,0.396,484.2
36198.520,490.0,0.0,-0.100,485.4
36210.496,488.0,0.0,-0.182,486.3
36216.539,486.0,0.0,-0.298,487.0
36221.551,485.0,0.0,-0.100,487.1
36226.621,484.0,0.0,-0.198,487.1
36232.602,482.0,0.0,-0.298,486.9
36238.539,482.0,0.0,0.000,486.5
36243.695,484.0,0.0,0.180,486.3
36249.480,483.0,0.0,0.091,485.8
36254.523,481.0,0.0,-0.277,485.2
36260.484,484.0,0.0,0.091,484.5
36265.504,488.0,0.0,0.699,484.2
36275.605,492.0,0.0,0.396,484.4
36281.590,490.0,0.0,0.199,484.9
36286.727,500.0,0.0,0.979,486.2
36298.480,493.0,0.0,-0.729,489.3
36303.559,488.0,0.0,-0.455,490.3
36314.520,486.0,0.0,-0.091,490.6
36320.566,486.0,0.0,-0.297,491.2
36325.637,487.0,0.0,-0.099,491.2
36342.645,488.0,0.0,0.200,490.4
36348.477,489.0,0.0,0.273,489.3
36353.551,489.0,0.0,0.092,488.4
36375.645,492.0,0.0,0.298,487.9
36386.797,494.0,0.0,0.197,489.1
36392.660,496.0,0.0,0.299,489.9
36398.484,495.0,0.0,0.187,490.8
36403.547,495.0,0.0,-0.092,491.5
36409.562,498.0,0.0,0.298,492.3
36421.547,498.0,0.0,0.000,494.2
36426.703,496.0,0.0,-0.296,494.9
36432.688,498.0,0.0,0.000,495.7
36455.504,501.0,0.0,0.275,497.4
36465.566,497.0,0.0,-0.398,498.2
36476.703,498.0,0.0,0.197,498.1
36482.652,497.0,0.0,-0.199,498.0
36493.691,494.0,0.0,-0.300,497.6
36499.562,494.0,0.0,0.000,497.3
36516.594,493.0,0.0,-0.199,496.2
36522.598,495.0,0.0,0.100,495.5
36528.508,498.0,0.0,0.457,495.4
36533.676,497.0,0.0,0.200,495.5
36545.473,499.0,0.0,0.093,495.7
36550.520,502.0,0.0,0.273,496.2
36556.508,502.0,0.0,0.200,497.0
36561.555,502.0,0.0,0.000,497.6
36577.711,503.0,0.0,0.198,499.7
36583.641,502.0,0.0,0.000,500.5
36600.566,505.0,0.0,0.199,502.3
36606.555,505.0,0.0,0.091,503.0
36612.570,508.0,0.0,0.299,503.5
36623.648,510.0,0.0,0.200,504.8
36634.535,511.0,0.0,0.092,506.1
36640.547,514.0,0.0,0.399,507.1
36646.551,513.0,0.0,0.100,508.2
36651.559,512.0,0.0,-0.182,509.0
36656.590,513.0,0.0,0.000,509.7
36667.559,515.0,0.0,0.199,511.2
36672.602,516.0,0.0,0.299,511.9
36678.590,516.0,0.0,0.100,512.7
36701.555,515.0,0.0,-0.182,514.9
36707.555,508.0,0.0,-0.822,514.6
36718.676,507.0,0.0,0.098,513.5
36724.664,502.0,0.0,-0.398,512.7
36735.723,502.0,0.0,0.000,510.4
36752.508,504.0,0.0,0.200,506.6
36757.562,501.0,0.0,-0.198,505.5
36763.562,501.0,0.0,-0.299,503.9
36768.684,501.0,0.0,-0.099,503.3
36780.504,499.0,0.0,-0.200,502.1
36791.547,499.0,0.0,0.000,501.1
36830.488,495.0,0.0,-0.273,498.1
36835.523,495.0,0.0,-0.182,497.7
36841.488,492.0,0.0,-0.300,497.0
36847.562,489.0,0.0,-0.362,496.2
36853.535,486.0,0.0,-0.597,495.2
36858.594,489.0,0.0,0.100,494.2
36864.578,488.0,0.0,0.199,493.0
36869.715,489.0,0.0,0.297,492.3
36875.664,490.0,0.0,0.199,491.4
36887.496,491.0,0.0,-0.186,490.4
36898.480,489.0,0.0,-0.100,489.5
36925.656,492.0,0.0,0.200,490.1
36931.492,492.0,0.0,0.100,490.4
36937.512,490.0,0.0,-0.185,490.4
36943.480,492.0,0.0,-0.091,490.3
36953.543,494.0,0.0,0.199,490.6
36964.629,496.0,0.0,0.298,491.5
36975.684,492.0,0.0,-0.399,492.5
36981.551,495.0,0.0,0.099,492.8
36987.480,495.0,0.0,0.279,493.2
36992.512,495.0,0.0,0.000,493.5
37008.684,498.0,0.0,0.296,494.8
37020.559,501.0,0.0,0.300,496.0
37031.520,502.0,0.0,0.091,497.1
37042.594,500.0,0.0,-0.199,498.6
37048.566,497.0,0.0,-0.398,498.9
37053.590,498.0,0.0,-0.199,499.1
37058.684,499.0,0.0,0.198,499.4
37064.664,498.0,0.0,-0.100,499.7
37076.723,500.0,0.0,0.199,499.9
37082.492,501.0,0.0,0.000,500.0
37097.617,503.0,0.0,0.296,499.9
37103.574,502.0,0.0,0.000,500.1
37114.617,504.0,0.0,0.200,500.8
37125.523,507.0,0.0,0.275,501.9
37136.547,511.0,0.0,0.399,503.5
37136.547,511.0,0.0,0.399,503.5
</abvio:altitudeTable>
</extensions>
</gpx>
